<?xml version="1.0" encoding="UTF-8" standalone="no" ?>
<gpx xmlns="http://www.topografix.com/GPX/1/1" xmlns:xsi="http://www.w3.org/2001/XMLSchema-instance" xsi:schemaLocation="http://www.topografix.com/GPX/1/1 http://www.topografix.com/GPX/1/1/gpx.xsd" version="1.1" creator="VisuGPX - https://www.visugpx.com">
  <metadata>
    <name>Mtp_Grabels_Bel_Air_24042021</name>
  </metadata>
  <trk>
    <name><![CDATA[Mtp_Grabels_Bel_Air_24042021_1]]></name>
    <trkseg>
      <trkpt lat="43.6226" lon="3.84896">
        <ele>56.2</ele>
        <time>2021-04-24T09:55:43Z</time>
      </trkpt>
      <trkpt lat="43.62261" lon="3.84906">
        <ele>56</ele>
        <time>2021-04-24T09:57:32Z</time>
      </trkpt>
      <trkpt lat="43.62263" lon="3.84905">
        <ele>56.3</ele>
        <time>2021-04-24T09:57:34Z</time>
      </trkpt>
      <trkpt lat="43.62262" lon="3.84906">
        <ele>68</ele>
        <time>2021-04-24T09:57:41Z</time>
      </trkpt>
      <trkpt lat="43.62269" lon="3.84904">
        <ele>68</ele>
        <time>2021-04-24T09:57:56Z</time>
      </trkpt>
      <trkpt lat="43.62272" lon="3.84905">
        <ele>68</ele>
        <time>2021-04-24T09:57:58Z</time>
      </trkpt>
      <trkpt lat="43.62275" lon="3.84903">
        <ele>68</ele>
        <time>2021-04-24T09:58:00Z</time>
      </trkpt>
      <trkpt lat="43.62276" lon="3.84898">
        <ele>68</ele>
        <time>2021-04-24T09:58:02Z</time>
      </trkpt>
      <trkpt lat="43.62276" lon="3.84896">
        <ele>68</ele>
        <time>2021-04-24T09:58:03Z</time>
      </trkpt>
      <trkpt lat="43.62276" lon="3.84893">
        <ele>68</ele>
        <time>2021-04-24T09:58:04Z</time>
      </trkpt>
      <trkpt lat="43.62277" lon="3.84889">
        <ele>68</ele>
        <time>2021-04-24T09:58:06Z</time>
      </trkpt>
      <trkpt lat="43.62277" lon="3.84884">
        <ele>68</ele>
        <time>2021-04-24T09:58:08Z</time>
      </trkpt>
      <trkpt lat="43.62278" lon="3.8488">
        <ele>68</ele>
        <time>2021-04-24T09:58:10Z</time>
      </trkpt>
      <trkpt lat="43.6228" lon="3.84875">
        <ele>68</ele>
        <time>2021-04-24T09:58:12Z</time>
      </trkpt>
      <trkpt lat="43.62281" lon="3.84871">
        <ele>68</ele>
        <time>2021-04-24T09:58:14Z</time>
      </trkpt>
      <trkpt lat="43.62281" lon="3.84867">
        <ele>68</ele>
        <time>2021-04-24T09:58:16Z</time>
      </trkpt>
      <trkpt lat="43.62282" lon="3.84863">
        <ele>68</ele>
        <time>2021-04-24T09:58:17Z</time>
      </trkpt>
      <trkpt lat="43.62282" lon="3.84859">
        <ele>68</ele>
        <time>2021-04-24T09:58:19Z</time>
      </trkpt>
      <trkpt lat="43.62283" lon="3.84854">
        <ele>68</ele>
        <time>2021-04-24T09:58:21Z</time>
      </trkpt>
      <trkpt lat="43.62283" lon="3.84847">
        <ele>68</ele>
        <time>2021-04-24T09:58:24Z</time>
      </trkpt>
      <trkpt lat="43.62282" lon="3.84844">
        <ele>68</ele>
        <time>2021-04-24T09:58:26Z</time>
      </trkpt>
      <trkpt lat="43.62282" lon="3.84842">
        <ele>68</ele>
        <time>2021-04-24T09:58:27Z</time>
      </trkpt>
      <trkpt lat="43.62281" lon="3.84839">
        <ele>68</ele>
        <time>2021-04-24T09:58:28Z</time>
      </trkpt>
      <trkpt lat="43.62281" lon="3.84836">
        <ele>68</ele>
        <time>2021-04-24T09:58:29Z</time>
      </trkpt>
      <trkpt lat="43.62281" lon="3.84832">
        <ele>68</ele>
        <time>2021-04-24T09:58:30Z</time>
      </trkpt>
      <trkpt lat="43.6228" lon="3.84828">
        <ele>68</ele>
        <time>2021-04-24T09:58:31Z</time>
      </trkpt>
      <trkpt lat="43.62279" lon="3.84823">
        <ele>68</ele>
        <time>2021-04-24T09:58:32Z</time>
      </trkpt>
      <trkpt lat="43.62279" lon="3.84818">
        <ele>68</ele>
        <time>2021-04-24T09:58:33Z</time>
      </trkpt>
      <trkpt lat="43.62279" lon="3.84813">
        <ele>68</ele>
        <time>2021-04-24T09:58:34Z</time>
      </trkpt>
      <trkpt lat="43.6228" lon="3.84808">
        <ele>68</ele>
        <time>2021-04-24T09:58:35Z</time>
      </trkpt>
      <trkpt lat="43.6228" lon="3.84803">
        <ele>68</ele>
        <time>2021-04-24T09:58:36Z</time>
      </trkpt>
      <trkpt lat="43.6228" lon="3.84798">
        <ele>68</ele>
        <time>2021-04-24T09:58:37Z</time>
      </trkpt>
      <trkpt lat="43.62281" lon="3.84793">
        <ele>68</ele>
        <time>2021-04-24T09:58:38Z</time>
      </trkpt>
      <trkpt lat="43.62281" lon="3.84787">
        <ele>68</ele>
        <time>2021-04-24T09:58:39Z</time>
      </trkpt>
      <trkpt lat="43.62282" lon="3.84781">
        <ele>68</ele>
        <time>2021-04-24T09:58:40Z</time>
      </trkpt>
      <trkpt lat="43.62283" lon="3.84776">
        <ele>68</ele>
        <time>2021-04-24T09:58:41Z</time>
      </trkpt>
      <trkpt lat="43.62285" lon="3.8477">
        <ele>68</ele>
        <time>2021-04-24T09:58:42Z</time>
      </trkpt>
      <trkpt lat="43.62285" lon="3.84764">
        <ele>68</ele>
        <time>2021-04-24T09:58:43Z</time>
      </trkpt>
      <trkpt lat="43.62284" lon="3.84757">
        <ele>68</ele>
        <time>2021-04-24T09:58:44Z</time>
      </trkpt>
      <trkpt lat="43.62282" lon="3.84752">
        <ele>68</ele>
        <time>2021-04-24T09:58:45Z</time>
      </trkpt>
      <trkpt lat="43.6228" lon="3.84746">
        <ele>67</ele>
        <time>2021-04-24T09:58:46Z</time>
      </trkpt>
      <trkpt lat="43.62278" lon="3.84741">
        <ele>67</ele>
        <time>2021-04-24T09:58:47Z</time>
      </trkpt>
      <trkpt lat="43.62277" lon="3.84736">
        <ele>67</ele>
        <time>2021-04-24T09:58:48Z</time>
      </trkpt>
      <trkpt lat="43.62275" lon="3.8473">
        <ele>67</ele>
        <time>2021-04-24T09:58:49Z</time>
      </trkpt>
      <trkpt lat="43.62273" lon="3.84726">
        <ele>67</ele>
        <time>2021-04-24T09:58:50Z</time>
      </trkpt>
      <trkpt lat="43.62271" lon="3.8472">
        <ele>67</ele>
        <time>2021-04-24T09:58:51Z</time>
      </trkpt>
      <trkpt lat="43.62269" lon="3.84714">
        <ele>67</ele>
        <time>2021-04-24T09:58:52Z</time>
      </trkpt>
      <trkpt lat="43.62267" lon="3.84708">
        <ele>67</ele>
        <time>2021-04-24T09:58:53Z</time>
      </trkpt>
      <trkpt lat="43.62265" lon="3.84701">
        <ele>67</ele>
        <time>2021-04-24T09:58:54Z</time>
      </trkpt>
      <trkpt lat="43.62262" lon="3.84693">
        <ele>67</ele>
        <time>2021-04-24T09:58:55Z</time>
      </trkpt>
      <trkpt lat="43.62258" lon="3.84685">
        <ele>65</ele>
        <time>2021-04-24T09:58:56Z</time>
      </trkpt>
      <trkpt lat="43.62254" lon="3.84676">
        <ele>65</ele>
        <time>2021-04-24T09:58:57Z</time>
      </trkpt>
      <trkpt lat="43.62248" lon="3.84668">
        <ele>65</ele>
        <time>2021-04-24T09:58:58Z</time>
      </trkpt>
      <trkpt lat="43.62241" lon="3.84661">
        <ele>65</ele>
        <time>2021-04-24T09:58:59Z</time>
      </trkpt>
      <trkpt lat="43.62234" lon="3.84654">
        <ele>65</ele>
        <time>2021-04-24T09:59:00Z</time>
      </trkpt>
      <trkpt lat="43.62228" lon="3.84647">
        <ele>65</ele>
        <time>2021-04-24T09:59:01Z</time>
      </trkpt>
      <trkpt lat="43.62222" lon="3.8464">
        <ele>65</ele>
        <time>2021-04-24T09:59:02Z</time>
      </trkpt>
      <trkpt lat="43.62219" lon="3.84635">
        <ele>65</ele>
        <time>2021-04-24T09:59:03Z</time>
      </trkpt>
      <trkpt lat="43.62218" lon="3.84629">
        <ele>65</ele>
        <time>2021-04-24T09:59:04Z</time>
      </trkpt>
      <trkpt lat="43.62218" lon="3.84623">
        <ele>65</ele>
        <time>2021-04-24T09:59:05Z</time>
      </trkpt>
      <trkpt lat="43.62222" lon="3.84609">
        <ele>65</ele>
        <time>2021-04-24T09:59:07Z</time>
      </trkpt>
      <trkpt lat="43.62223" lon="3.84604">
        <ele>65</ele>
        <time>2021-04-24T09:59:08Z</time>
      </trkpt>
      <trkpt lat="43.62223" lon="3.846">
        <ele>65</ele>
        <time>2021-04-24T09:59:09Z</time>
      </trkpt>
      <trkpt lat="43.62224" lon="3.84596">
        <ele>65</ele>
        <time>2021-04-24T09:59:10Z</time>
      </trkpt>
      <trkpt lat="43.62225" lon="3.84593">
        <ele>65</ele>
        <time>2021-04-24T09:59:11Z</time>
      </trkpt>
      <trkpt lat="43.62224" lon="3.84589">
        <ele>65</ele>
        <time>2021-04-24T09:59:12Z</time>
      </trkpt>
      <trkpt lat="43.62224" lon="3.84584">
        <ele>65</ele>
        <time>2021-04-24T09:59:13Z</time>
      </trkpt>
      <trkpt lat="43.62223" lon="3.8458">
        <ele>65</ele>
        <time>2021-04-24T09:59:14Z</time>
      </trkpt>
      <trkpt lat="43.62224" lon="3.84576">
        <ele>65</ele>
        <time>2021-04-24T09:59:15Z</time>
      </trkpt>
      <trkpt lat="43.62224" lon="3.84571">
        <ele>62</ele>
        <time>2021-04-24T09:59:16Z</time>
      </trkpt>
      <trkpt lat="43.62226" lon="3.84568">
        <ele>62</ele>
        <time>2021-04-24T09:59:17Z</time>
      </trkpt>
      <trkpt lat="43.62228" lon="3.84564">
        <ele>62</ele>
        <time>2021-04-24T09:59:18Z</time>
      </trkpt>
      <trkpt lat="43.6223" lon="3.84559">
        <ele>62</ele>
        <time>2021-04-24T09:59:19Z</time>
      </trkpt>
      <trkpt lat="43.62232" lon="3.84556">
        <ele>62</ele>
        <time>2021-04-24T09:59:20Z</time>
      </trkpt>
      <trkpt lat="43.62234" lon="3.84552">
        <ele>62</ele>
        <time>2021-04-24T09:59:21Z</time>
      </trkpt>
      <trkpt lat="43.62237" lon="3.84548">
        <ele>62</ele>
        <time>2021-04-24T09:59:22Z</time>
      </trkpt>
      <trkpt lat="43.6224" lon="3.84545">
        <ele>62</ele>
        <time>2021-04-24T09:59:23Z</time>
      </trkpt>
      <trkpt lat="43.62242" lon="3.84541">
        <ele>62</ele>
        <time>2021-04-24T09:59:24Z</time>
      </trkpt>
      <trkpt lat="43.62245" lon="3.84537">
        <ele>62</ele>
        <time>2021-04-24T09:59:25Z</time>
      </trkpt>
      <trkpt lat="43.62248" lon="3.84533">
        <ele>60</ele>
        <time>2021-04-24T09:59:26Z</time>
      </trkpt>
      <trkpt lat="43.62251" lon="3.84529">
        <ele>60</ele>
        <time>2021-04-24T09:59:27Z</time>
      </trkpt>
      <trkpt lat="43.62254" lon="3.84525">
        <ele>60</ele>
        <time>2021-04-24T09:59:28Z</time>
      </trkpt>
      <trkpt lat="43.62257" lon="3.8452">
        <ele>60</ele>
        <time>2021-04-24T09:59:29Z</time>
      </trkpt>
      <trkpt lat="43.62259" lon="3.84516">
        <ele>60</ele>
        <time>2021-04-24T09:59:30Z</time>
      </trkpt>
      <trkpt lat="43.62262" lon="3.84512">
        <ele>60</ele>
        <time>2021-04-24T09:59:31Z</time>
      </trkpt>
      <trkpt lat="43.62265" lon="3.84508">
        <ele>60</ele>
        <time>2021-04-24T09:59:32Z</time>
      </trkpt>
      <trkpt lat="43.62268" lon="3.84503">
        <ele>60</ele>
        <time>2021-04-24T09:59:33Z</time>
      </trkpt>
      <trkpt lat="43.62271" lon="3.84499">
        <ele>60</ele>
        <time>2021-04-24T09:59:34Z</time>
      </trkpt>
      <trkpt lat="43.62274" lon="3.84494">
        <ele>60</ele>
        <time>2021-04-24T09:59:35Z</time>
      </trkpt>
      <trkpt lat="43.62277" lon="3.8449">
        <ele>58</ele>
        <time>2021-04-24T09:59:36Z</time>
      </trkpt>
      <trkpt lat="43.6228" lon="3.84485">
        <ele>58</ele>
        <time>2021-04-24T09:59:37Z</time>
      </trkpt>
      <trkpt lat="43.62283" lon="3.84481">
        <ele>58</ele>
        <time>2021-04-24T09:59:38Z</time>
      </trkpt>
      <trkpt lat="43.62286" lon="3.84477">
        <ele>58</ele>
        <time>2021-04-24T09:59:39Z</time>
      </trkpt>
      <trkpt lat="43.62289" lon="3.84473">
        <ele>58</ele>
        <time>2021-04-24T09:59:40Z</time>
      </trkpt>
      <trkpt lat="43.62292" lon="3.84468">
        <ele>58</ele>
        <time>2021-04-24T09:59:41Z</time>
      </trkpt>
      <trkpt lat="43.62295" lon="3.84464">
        <ele>58</ele>
        <time>2021-04-24T09:59:42Z</time>
      </trkpt>
      <trkpt lat="43.62297" lon="3.8446">
        <ele>58</ele>
        <time>2021-04-24T09:59:43Z</time>
      </trkpt>
      <trkpt lat="43.623" lon="3.84456">
        <ele>58</ele>
        <time>2021-04-24T09:59:44Z</time>
      </trkpt>
      <trkpt lat="43.62303" lon="3.84452">
        <ele>58</ele>
        <time>2021-04-24T09:59:45Z</time>
      </trkpt>
      <trkpt lat="43.62306" lon="3.84448">
        <ele>57</ele>
        <time>2021-04-24T09:59:46Z</time>
      </trkpt>
      <trkpt lat="43.62309" lon="3.84444">
        <ele>57</ele>
        <time>2021-04-24T09:59:47Z</time>
      </trkpt>
      <trkpt lat="43.62311" lon="3.8444">
        <ele>57</ele>
        <time>2021-04-24T09:59:48Z</time>
      </trkpt>
      <trkpt lat="43.62314" lon="3.84435">
        <ele>57</ele>
        <time>2021-04-24T09:59:49Z</time>
      </trkpt>
      <trkpt lat="43.62317" lon="3.84431">
        <ele>57</ele>
        <time>2021-04-24T09:59:50Z</time>
      </trkpt>
      <trkpt lat="43.6232" lon="3.84427">
        <ele>57</ele>
        <time>2021-04-24T09:59:51Z</time>
      </trkpt>
      <trkpt lat="43.62323" lon="3.84423">
        <ele>57</ele>
        <time>2021-04-24T09:59:52Z</time>
      </trkpt>
      <trkpt lat="43.62326" lon="3.84419">
        <ele>57</ele>
        <time>2021-04-24T09:59:53Z</time>
      </trkpt>
      <trkpt lat="43.62328" lon="3.84415">
        <ele>57</ele>
        <time>2021-04-24T09:59:54Z</time>
      </trkpt>
      <trkpt lat="43.62331" lon="3.84411">
        <ele>57</ele>
        <time>2021-04-24T09:59:55Z</time>
      </trkpt>
      <trkpt lat="43.62334" lon="3.84406">
        <ele>57</ele>
        <time>2021-04-24T09:59:56Z</time>
      </trkpt>
      <trkpt lat="43.62337" lon="3.84402">
        <ele>57</ele>
        <time>2021-04-24T09:59:57Z</time>
      </trkpt>
      <trkpt lat="43.6234" lon="3.84398">
        <ele>57</ele>
        <time>2021-04-24T09:59:58Z</time>
      </trkpt>
      <trkpt lat="43.62343" lon="3.84394">
        <ele>57</ele>
        <time>2021-04-24T09:59:59Z</time>
      </trkpt>
      <trkpt lat="43.62345" lon="3.8439">
        <ele>57</ele>
        <time>2021-04-24T10:00:00Z</time>
      </trkpt>
      <trkpt lat="43.62348" lon="3.84387">
        <ele>57</ele>
        <time>2021-04-24T10:00:01Z</time>
      </trkpt>
      <trkpt lat="43.62351" lon="3.84383">
        <ele>57</ele>
        <time>2021-04-24T10:00:02Z</time>
      </trkpt>
      <trkpt lat="43.62353" lon="3.8438">
        <ele>57</ele>
        <time>2021-04-24T10:00:03Z</time>
      </trkpt>
      <trkpt lat="43.62356" lon="3.84377">
        <ele>57</ele>
        <time>2021-04-24T10:00:04Z</time>
      </trkpt>
      <trkpt lat="43.62358" lon="3.84373">
        <ele>57</ele>
        <time>2021-04-24T10:00:05Z</time>
      </trkpt>
      <trkpt lat="43.62361" lon="3.84369">
        <ele>58</ele>
        <time>2021-04-24T10:00:06Z</time>
      </trkpt>
      <trkpt lat="43.62363" lon="3.84366">
        <ele>58</ele>
        <time>2021-04-24T10:00:07Z</time>
      </trkpt>
      <trkpt lat="43.62364" lon="3.84361">
        <ele>58</ele>
        <time>2021-04-24T10:00:08Z</time>
      </trkpt>
      <trkpt lat="43.62364" lon="3.84357">
        <ele>58</ele>
        <time>2021-04-24T10:00:09Z</time>
      </trkpt>
      <trkpt lat="43.62363" lon="3.84353">
        <ele>58</ele>
        <time>2021-04-24T10:00:10Z</time>
      </trkpt>
      <trkpt lat="43.62362" lon="3.84348">
        <ele>58</ele>
        <time>2021-04-24T10:00:11Z</time>
      </trkpt>
      <trkpt lat="43.62361" lon="3.84343">
        <ele>58</ele>
        <time>2021-04-24T10:00:12Z</time>
      </trkpt>
      <trkpt lat="43.62361" lon="3.84339">
        <ele>58</ele>
        <time>2021-04-24T10:00:13Z</time>
      </trkpt>
      <trkpt lat="43.6236" lon="3.84334">
        <ele>58</ele>
        <time>2021-04-24T10:00:14Z</time>
      </trkpt>
      <trkpt lat="43.6236" lon="3.84329">
        <ele>58</ele>
        <time>2021-04-24T10:00:15Z</time>
      </trkpt>
      <trkpt lat="43.62361" lon="3.84324">
        <ele>58</ele>
        <time>2021-04-24T10:00:16Z</time>
      </trkpt>
      <trkpt lat="43.62362" lon="3.8432">
        <ele>58</ele>
        <time>2021-04-24T10:00:17Z</time>
      </trkpt>
      <trkpt lat="43.62365" lon="3.84317">
        <ele>58</ele>
        <time>2021-04-24T10:00:18Z</time>
      </trkpt>
      <trkpt lat="43.6237" lon="3.84306">
        <ele>58</ele>
        <time>2021-04-24T10:00:21Z</time>
      </trkpt>
      <trkpt lat="43.62377" lon="3.84295">
        <ele>58</ele>
        <time>2021-04-24T10:00:24Z</time>
      </trkpt>
      <trkpt lat="43.62379" lon="3.84291">
        <ele>58</ele>
        <time>2021-04-24T10:00:25Z</time>
      </trkpt>
      <trkpt lat="43.62382" lon="3.84288">
        <ele>59</ele>
        <time>2021-04-24T10:00:26Z</time>
      </trkpt>
      <trkpt lat="43.62387" lon="3.84276">
        <ele>59</ele>
        <time>2021-04-24T10:00:29Z</time>
      </trkpt>
      <trkpt lat="43.62386" lon="3.8427">
        <ele>59</ele>
        <time>2021-04-24T10:00:30Z</time>
      </trkpt>
      <trkpt lat="43.62386" lon="3.84262">
        <ele>59</ele>
        <time>2021-04-24T10:00:31Z</time>
      </trkpt>
      <trkpt lat="43.62385" lon="3.84252">
        <ele>59</ele>
        <time>2021-04-24T10:00:32Z</time>
      </trkpt>
      <trkpt lat="43.62386" lon="3.84241">
        <ele>59</ele>
        <time>2021-04-24T10:00:33Z</time>
      </trkpt>
      <trkpt lat="43.62385" lon="3.84234">
        <ele>59</ele>
        <time>2021-04-24T10:00:34Z</time>
      </trkpt>
      <trkpt lat="43.62386" lon="3.84229">
        <ele>59</ele>
        <time>2021-04-24T10:00:35Z</time>
      </trkpt>
      <trkpt lat="43.62392" lon="3.84226">
        <ele>59</ele>
        <time>2021-04-24T10:00:38Z</time>
      </trkpt>
      <trkpt lat="43.62393" lon="3.84221">
        <ele>59</ele>
        <time>2021-04-24T10:00:40Z</time>
      </trkpt>
      <trkpt lat="43.62393" lon="3.84218">
        <ele>59</ele>
        <time>2021-04-24T10:00:41Z</time>
      </trkpt>
      <trkpt lat="43.62393" lon="3.84216">
        <ele>59</ele>
        <time>2021-04-24T10:00:42Z</time>
      </trkpt>
      <trkpt lat="43.62393" lon="3.84212">
        <ele>59</ele>
        <time>2021-04-24T10:00:43Z</time>
      </trkpt>
      <trkpt lat="43.62393" lon="3.84209">
        <ele>59</ele>
        <time>2021-04-24T10:00:44Z</time>
      </trkpt>
      <trkpt lat="43.62393" lon="3.84205">
        <ele>59</ele>
        <time>2021-04-24T10:00:45Z</time>
      </trkpt>
      <trkpt lat="43.62392" lon="3.84202">
        <ele>59</ele>
        <time>2021-04-24T10:00:46Z</time>
      </trkpt>
      <trkpt lat="43.62392" lon="3.84198">
        <ele>59</ele>
        <time>2021-04-24T10:00:47Z</time>
      </trkpt>
      <trkpt lat="43.62391" lon="3.84195">
        <ele>59</ele>
        <time>2021-04-24T10:00:48Z</time>
      </trkpt>
      <trkpt lat="43.62391" lon="3.84192">
        <ele>59</ele>
        <time>2021-04-24T10:00:49Z</time>
      </trkpt>
      <trkpt lat="43.62391" lon="3.84189">
        <ele>59</ele>
        <time>2021-04-24T10:00:50Z</time>
      </trkpt>
      <trkpt lat="43.6239" lon="3.84186">
        <ele>59</ele>
        <time>2021-04-24T10:00:51Z</time>
      </trkpt>
      <trkpt lat="43.6239" lon="3.84184">
        <ele>59</ele>
        <time>2021-04-24T10:00:52Z</time>
      </trkpt>
      <trkpt lat="43.62388" lon="3.84181">
        <ele>59</ele>
        <time>2021-04-24T10:00:53Z</time>
      </trkpt>
      <trkpt lat="43.62387" lon="3.84178">
        <ele>59</ele>
        <time>2021-04-24T10:00:54Z</time>
      </trkpt>
      <trkpt lat="43.62387" lon="3.84174">
        <ele>59</ele>
        <time>2021-04-24T10:00:55Z</time>
      </trkpt>
      <trkpt lat="43.62388" lon="3.84171">
        <ele>60</ele>
        <time>2021-04-24T10:00:56Z</time>
      </trkpt>
      <trkpt lat="43.62389" lon="3.84169">
        <ele>60</ele>
        <time>2021-04-24T10:00:57Z</time>
      </trkpt>
      <trkpt lat="43.6239" lon="3.84166">
        <ele>60</ele>
        <time>2021-04-24T10:00:58Z</time>
      </trkpt>
      <trkpt lat="43.62391" lon="3.84163">
        <ele>60</ele>
        <time>2021-04-24T10:00:59Z</time>
      </trkpt>
      <trkpt lat="43.62392" lon="3.84159">
        <ele>60</ele>
        <time>2021-04-24T10:01:00Z</time>
      </trkpt>
      <trkpt lat="43.62394" lon="3.84155">
        <ele>60</ele>
        <time>2021-04-24T10:01:01Z</time>
      </trkpt>
      <trkpt lat="43.62395" lon="3.84152">
        <ele>60</ele>
        <time>2021-04-24T10:01:02Z</time>
      </trkpt>
      <trkpt lat="43.62397" lon="3.84149">
        <ele>60</ele>
        <time>2021-04-24T10:01:03Z</time>
      </trkpt>
      <trkpt lat="43.62399" lon="3.84147">
        <ele>60</ele>
        <time>2021-04-24T10:01:04Z</time>
      </trkpt>
      <trkpt lat="43.62402" lon="3.84146">
        <ele>60</ele>
        <time>2021-04-24T10:01:05Z</time>
      </trkpt>
      <trkpt lat="43.62404" lon="3.84146">
        <ele>61</ele>
        <time>2021-04-24T10:01:06Z</time>
      </trkpt>
      <trkpt lat="43.62407" lon="3.84145">
        <ele>61</ele>
        <time>2021-04-24T10:01:07Z</time>
      </trkpt>
      <trkpt lat="43.6241" lon="3.84144">
        <ele>61</ele>
        <time>2021-04-24T10:01:08Z</time>
      </trkpt>
      <trkpt lat="43.62413" lon="3.84143">
        <ele>61</ele>
        <time>2021-04-24T10:01:09Z</time>
      </trkpt>
      <trkpt lat="43.62416" lon="3.84142">
        <ele>61</ele>
        <time>2021-04-24T10:01:10Z</time>
      </trkpt>
      <trkpt lat="43.62419" lon="3.84141">
        <ele>61</ele>
        <time>2021-04-24T10:01:11Z</time>
      </trkpt>
      <trkpt lat="43.62422" lon="3.8414">
        <ele>61</ele>
        <time>2021-04-24T10:01:12Z</time>
      </trkpt>
      <trkpt lat="43.62425" lon="3.84139">
        <ele>61</ele>
        <time>2021-04-24T10:01:13Z</time>
      </trkpt>
      <trkpt lat="43.62428" lon="3.84138">
        <ele>61</ele>
        <time>2021-04-24T10:01:14Z</time>
      </trkpt>
      <trkpt lat="43.62431" lon="3.84136">
        <ele>61</ele>
        <time>2021-04-24T10:01:15Z</time>
      </trkpt>
      <trkpt lat="43.62434" lon="3.84135">
        <ele>62</ele>
        <time>2021-04-24T10:01:16Z</time>
      </trkpt>
      <trkpt lat="43.62436" lon="3.84134">
        <ele>62</ele>
        <time>2021-04-24T10:01:17Z</time>
      </trkpt>
      <trkpt lat="43.62439" lon="3.84132">
        <ele>62</ele>
        <time>2021-04-24T10:01:18Z</time>
      </trkpt>
      <trkpt lat="43.62442" lon="3.84132">
        <ele>62</ele>
        <time>2021-04-24T10:01:19Z</time>
      </trkpt>
      <trkpt lat="43.62444" lon="3.84131">
        <ele>62</ele>
        <time>2021-04-24T10:01:20Z</time>
      </trkpt>
      <trkpt lat="43.62447" lon="3.8413">
        <ele>62</ele>
        <time>2021-04-24T10:01:21Z</time>
      </trkpt>
      <trkpt lat="43.62449" lon="3.84129">
        <ele>62</ele>
        <time>2021-04-24T10:01:22Z</time>
      </trkpt>
      <trkpt lat="43.62452" lon="3.84128">
        <ele>62</ele>
        <time>2021-04-24T10:01:23Z</time>
      </trkpt>
      <trkpt lat="43.62455" lon="3.84127">
        <ele>62</ele>
        <time>2021-04-24T10:01:24Z</time>
      </trkpt>
      <trkpt lat="43.62458" lon="3.84126">
        <ele>62</ele>
        <time>2021-04-24T10:01:25Z</time>
      </trkpt>
      <trkpt lat="43.62462" lon="3.84123">
        <ele>63</ele>
        <time>2021-04-24T10:01:26Z</time>
      </trkpt>
      <trkpt lat="43.62464" lon="3.84121">
        <ele>63</ele>
        <time>2021-04-24T10:01:27Z</time>
      </trkpt>
      <trkpt lat="43.62466" lon="3.84118">
        <ele>63</ele>
        <time>2021-04-24T10:01:28Z</time>
      </trkpt>
      <trkpt lat="43.62468" lon="3.84115">
        <ele>63</ele>
        <time>2021-04-24T10:01:29Z</time>
      </trkpt>
      <trkpt lat="43.6247" lon="3.84111">
        <ele>63</ele>
        <time>2021-04-24T10:01:30Z</time>
      </trkpt>
      <trkpt lat="43.62472" lon="3.84108">
        <ele>63</ele>
        <time>2021-04-24T10:01:31Z</time>
      </trkpt>
      <trkpt lat="43.62474" lon="3.84104">
        <ele>63</ele>
        <time>2021-04-24T10:01:32Z</time>
      </trkpt>
      <trkpt lat="43.62476" lon="3.84101">
        <ele>63</ele>
        <time>2021-04-24T10:01:33Z</time>
      </trkpt>
      <trkpt lat="43.62477" lon="3.84098">
        <ele>63</ele>
        <time>2021-04-24T10:01:34Z</time>
      </trkpt>
      <trkpt lat="43.62479" lon="3.84094">
        <ele>64</ele>
        <time>2021-04-24T10:01:36Z</time>
      </trkpt>
      <trkpt lat="43.6248" lon="3.84091">
        <ele>64</ele>
        <time>2021-04-24T10:01:37Z</time>
      </trkpt>
      <trkpt lat="43.62482" lon="3.84088">
        <ele>64</ele>
        <time>2021-04-24T10:01:38Z</time>
      </trkpt>
      <trkpt lat="43.62483" lon="3.84084">
        <ele>64</ele>
        <time>2021-04-24T10:01:39Z</time>
      </trkpt>
      <trkpt lat="43.62485" lon="3.84081">
        <ele>64</ele>
        <time>2021-04-24T10:01:40Z</time>
      </trkpt>
      <trkpt lat="43.62486" lon="3.84078">
        <ele>64</ele>
        <time>2021-04-24T10:01:41Z</time>
      </trkpt>
      <trkpt lat="43.62488" lon="3.84074">
        <ele>64</ele>
        <time>2021-04-24T10:01:42Z</time>
      </trkpt>
      <trkpt lat="43.62489" lon="3.84071">
        <ele>64</ele>
        <time>2021-04-24T10:01:43Z</time>
      </trkpt>
      <trkpt lat="43.6249" lon="3.84067">
        <ele>64</ele>
        <time>2021-04-24T10:01:44Z</time>
      </trkpt>
      <trkpt lat="43.62492" lon="3.84064">
        <ele>64</ele>
        <time>2021-04-24T10:01:45Z</time>
      </trkpt>
      <trkpt lat="43.62493" lon="3.8406">
        <ele>65</ele>
        <time>2021-04-24T10:01:46Z</time>
      </trkpt>
      <trkpt lat="43.62495" lon="3.84057">
        <ele>65</ele>
        <time>2021-04-24T10:01:47Z</time>
      </trkpt>
      <trkpt lat="43.62496" lon="3.84054">
        <ele>65</ele>
        <time>2021-04-24T10:01:48Z</time>
      </trkpt>
      <trkpt lat="43.62498" lon="3.8405">
        <ele>65</ele>
        <time>2021-04-24T10:01:49Z</time>
      </trkpt>
      <trkpt lat="43.62499" lon="3.84046">
        <ele>65</ele>
        <time>2021-04-24T10:01:50Z</time>
      </trkpt>
      <trkpt lat="43.625" lon="3.84042">
        <ele>65</ele>
        <time>2021-04-24T10:01:51Z</time>
      </trkpt>
      <trkpt lat="43.62502" lon="3.84039">
        <ele>65</ele>
        <time>2021-04-24T10:01:52Z</time>
      </trkpt>
      <trkpt lat="43.62504" lon="3.84035">
        <ele>65</ele>
        <time>2021-04-24T10:01:53Z</time>
      </trkpt>
      <trkpt lat="43.62505" lon="3.84031">
        <ele>65</ele>
        <time>2021-04-24T10:01:54Z</time>
      </trkpt>
      <trkpt lat="43.62507" lon="3.84028">
        <ele>65</ele>
        <time>2021-04-24T10:01:55Z</time>
      </trkpt>
      <trkpt lat="43.62508" lon="3.84025">
        <ele>66</ele>
        <time>2021-04-24T10:01:56Z</time>
      </trkpt>
      <trkpt lat="43.6251" lon="3.84021">
        <ele>66</ele>
        <time>2021-04-24T10:01:57Z</time>
      </trkpt>
      <trkpt lat="43.62511" lon="3.84018">
        <ele>66</ele>
        <time>2021-04-24T10:01:58Z</time>
      </trkpt>
      <trkpt lat="43.62513" lon="3.84014">
        <ele>66</ele>
        <time>2021-04-24T10:01:59Z</time>
      </trkpt>
      <trkpt lat="43.62514" lon="3.84011">
        <ele>66</ele>
        <time>2021-04-24T10:02:00Z</time>
      </trkpt>
      <trkpt lat="43.62515" lon="3.84008">
        <ele>66</ele>
        <time>2021-04-24T10:02:01Z</time>
      </trkpt>
      <trkpt lat="43.62516" lon="3.84005">
        <ele>66</ele>
        <time>2021-04-24T10:02:02Z</time>
      </trkpt>
      <trkpt lat="43.62518" lon="3.84003">
        <ele>66</ele>
        <time>2021-04-24T10:02:03Z</time>
      </trkpt>
      <trkpt lat="43.62519" lon="3.84">
        <ele>66</ele>
        <time>2021-04-24T10:02:04Z</time>
      </trkpt>
      <trkpt lat="43.6252" lon="3.83997">
        <ele>66</ele>
        <time>2021-04-24T10:02:05Z</time>
      </trkpt>
      <trkpt lat="43.62521" lon="3.83995">
        <ele>67</ele>
        <time>2021-04-24T10:02:06Z</time>
      </trkpt>
      <trkpt lat="43.62522" lon="3.83992">
        <ele>67</ele>
        <time>2021-04-24T10:02:07Z</time>
      </trkpt>
      <trkpt lat="43.62523" lon="3.83989">
        <ele>67</ele>
        <time>2021-04-24T10:02:08Z</time>
      </trkpt>
      <trkpt lat="43.62524" lon="3.83987">
        <ele>67</ele>
        <time>2021-04-24T10:02:09Z</time>
      </trkpt>
      <trkpt lat="43.62525" lon="3.83984">
        <ele>67</ele>
        <time>2021-04-24T10:02:10Z</time>
      </trkpt>
      <trkpt lat="43.62526" lon="3.83981">
        <ele>67</ele>
        <time>2021-04-24T10:02:11Z</time>
      </trkpt>
      <trkpt lat="43.62527" lon="3.83978">
        <ele>67</ele>
        <time>2021-04-24T10:02:12Z</time>
      </trkpt>
      <trkpt lat="43.62528" lon="3.83975">
        <ele>67</ele>
        <time>2021-04-24T10:02:13Z</time>
      </trkpt>
      <trkpt lat="43.6253" lon="3.83972">
        <ele>67</ele>
        <time>2021-04-24T10:02:14Z</time>
      </trkpt>
      <trkpt lat="43.62531" lon="3.83969">
        <ele>67</ele>
        <time>2021-04-24T10:02:15Z</time>
      </trkpt>
      <trkpt lat="43.62533" lon="3.83965">
        <ele>68</ele>
        <time>2021-04-24T10:02:16Z</time>
      </trkpt>
      <trkpt lat="43.62535" lon="3.83962">
        <ele>68</ele>
        <time>2021-04-24T10:02:17Z</time>
      </trkpt>
      <trkpt lat="43.62536" lon="3.83959">
        <ele>68</ele>
        <time>2021-04-24T10:02:18Z</time>
      </trkpt>
      <trkpt lat="43.62537" lon="3.83955">
        <ele>68</ele>
        <time>2021-04-24T10:02:19Z</time>
      </trkpt>
      <trkpt lat="43.62538" lon="3.83951">
        <ele>68</ele>
        <time>2021-04-24T10:02:20Z</time>
      </trkpt>
      <trkpt lat="43.62538" lon="3.83947">
        <ele>68</ele>
        <time>2021-04-24T10:02:21Z</time>
      </trkpt>
      <trkpt lat="43.62539" lon="3.83943">
        <ele>68</ele>
        <time>2021-04-24T10:02:22Z</time>
      </trkpt>
      <trkpt lat="43.62538" lon="3.83939">
        <ele>68</ele>
        <time>2021-04-24T10:02:23Z</time>
      </trkpt>
      <trkpt lat="43.62538" lon="3.83935">
        <ele>68</ele>
        <time>2021-04-24T10:02:24Z</time>
      </trkpt>
      <trkpt lat="43.62537" lon="3.83931">
        <ele>68</ele>
        <time>2021-04-24T10:02:25Z</time>
      </trkpt>
      <trkpt lat="43.62536" lon="3.83927">
        <ele>69</ele>
        <time>2021-04-24T10:02:26Z</time>
      </trkpt>
      <trkpt lat="43.62535" lon="3.83924">
        <ele>69</ele>
        <time>2021-04-24T10:02:27Z</time>
      </trkpt>
      <trkpt lat="43.62535" lon="3.83921">
        <ele>69</ele>
        <time>2021-04-24T10:02:28Z</time>
      </trkpt>
      <trkpt lat="43.62534" lon="3.83917">
        <ele>69</ele>
        <time>2021-04-24T10:02:29Z</time>
      </trkpt>
      <trkpt lat="43.62533" lon="3.83914">
        <ele>69</ele>
        <time>2021-04-24T10:02:30Z</time>
      </trkpt>
      <trkpt lat="43.62533" lon="3.8391">
        <ele>69</ele>
        <time>2021-04-24T10:02:31Z</time>
      </trkpt>
      <trkpt lat="43.62533" lon="3.83906">
        <ele>69</ele>
        <time>2021-04-24T10:02:32Z</time>
      </trkpt>
      <trkpt lat="43.62533" lon="3.83902">
        <ele>69</ele>
        <time>2021-04-24T10:02:33Z</time>
      </trkpt>
      <trkpt lat="43.62533" lon="3.83899">
        <ele>69</ele>
        <time>2021-04-24T10:02:34Z</time>
      </trkpt>
      <trkpt lat="43.62532" lon="3.83895">
        <ele>69</ele>
        <time>2021-04-24T10:02:35Z</time>
      </trkpt>
      <trkpt lat="43.62531" lon="3.83891">
        <ele>70</ele>
        <time>2021-04-24T10:02:36Z</time>
      </trkpt>
      <trkpt lat="43.6253" lon="3.83887">
        <ele>70</ele>
        <time>2021-04-24T10:02:37Z</time>
      </trkpt>
      <trkpt lat="43.62529" lon="3.83884">
        <ele>70</ele>
        <time>2021-04-24T10:02:38Z</time>
      </trkpt>
      <trkpt lat="43.62527" lon="3.8388">
        <ele>70</ele>
        <time>2021-04-24T10:02:39Z</time>
      </trkpt>
      <trkpt lat="43.62526" lon="3.83877">
        <ele>70</ele>
        <time>2021-04-24T10:02:40Z</time>
      </trkpt>
      <trkpt lat="43.62525" lon="3.83873">
        <ele>70</ele>
        <time>2021-04-24T10:02:41Z</time>
      </trkpt>
      <trkpt lat="43.62524" lon="3.83869">
        <ele>70</ele>
        <time>2021-04-24T10:02:42Z</time>
      </trkpt>
      <trkpt lat="43.62523" lon="3.83865">
        <ele>70</ele>
        <time>2021-04-24T10:02:43Z</time>
      </trkpt>
      <trkpt lat="43.62523" lon="3.83861">
        <ele>70</ele>
        <time>2021-04-24T10:02:44Z</time>
      </trkpt>
      <trkpt lat="43.62522" lon="3.83857">
        <ele>70</ele>
        <time>2021-04-24T10:02:45Z</time>
      </trkpt>
      <trkpt lat="43.62521" lon="3.83853">
        <ele>71</ele>
        <time>2021-04-24T10:02:46Z</time>
      </trkpt>
      <trkpt lat="43.6252" lon="3.83849">
        <ele>71</ele>
        <time>2021-04-24T10:02:47Z</time>
      </trkpt>
      <trkpt lat="43.62519" lon="3.83845">
        <ele>71</ele>
        <time>2021-04-24T10:02:48Z</time>
      </trkpt>
      <trkpt lat="43.62518" lon="3.83842">
        <ele>71</ele>
        <time>2021-04-24T10:02:49Z</time>
      </trkpt>
      <trkpt lat="43.62516" lon="3.83838">
        <ele>71</ele>
        <time>2021-04-24T10:02:50Z</time>
      </trkpt>
      <trkpt lat="43.62514" lon="3.83835">
        <ele>71</ele>
        <time>2021-04-24T10:02:51Z</time>
      </trkpt>
      <trkpt lat="43.62511" lon="3.83833">
        <ele>71</ele>
        <time>2021-04-24T10:02:52Z</time>
      </trkpt>
      <trkpt lat="43.62509" lon="3.8383">
        <ele>71</ele>
        <time>2021-04-24T10:02:53Z</time>
      </trkpt>
      <trkpt lat="43.62507" lon="3.83828">
        <ele>71</ele>
        <time>2021-04-24T10:02:54Z</time>
      </trkpt>
      <trkpt lat="43.62504" lon="3.83826">
        <ele>71</ele>
        <time>2021-04-24T10:02:55Z</time>
      </trkpt>
      <trkpt lat="43.62501" lon="3.83824">
        <ele>71</ele>
        <time>2021-04-24T10:02:56Z</time>
      </trkpt>
      <trkpt lat="43.62499" lon="3.83822">
        <ele>71</ele>
        <time>2021-04-24T10:02:57Z</time>
      </trkpt>
      <trkpt lat="43.62497" lon="3.8382">
        <ele>71</ele>
        <time>2021-04-24T10:02:58Z</time>
      </trkpt>
      <trkpt lat="43.62494" lon="3.83818">
        <ele>71</ele>
        <time>2021-04-24T10:02:59Z</time>
      </trkpt>
      <trkpt lat="43.62491" lon="3.83816">
        <ele>71</ele>
        <time>2021-04-24T10:03:00Z</time>
      </trkpt>
      <trkpt lat="43.62488" lon="3.83814">
        <ele>71</ele>
        <time>2021-04-24T10:03:01Z</time>
      </trkpt>
      <trkpt lat="43.62486" lon="3.83812">
        <ele>71</ele>
        <time>2021-04-24T10:03:02Z</time>
      </trkpt>
      <trkpt lat="43.62483" lon="3.83811">
        <ele>71</ele>
        <time>2021-04-24T10:03:03Z</time>
      </trkpt>
      <trkpt lat="43.62481" lon="3.83809">
        <ele>71</ele>
        <time>2021-04-24T10:03:04Z</time>
      </trkpt>
      <trkpt lat="43.62478" lon="3.83807">
        <ele>71</ele>
        <time>2021-04-24T10:03:05Z</time>
      </trkpt>
      <trkpt lat="43.62476" lon="3.83805">
        <ele>71</ele>
        <time>2021-04-24T10:03:06Z</time>
      </trkpt>
      <trkpt lat="43.62473" lon="3.83803">
        <ele>71</ele>
        <time>2021-04-24T10:03:07Z</time>
      </trkpt>
      <trkpt lat="43.62471" lon="3.83801">
        <ele>71</ele>
        <time>2021-04-24T10:03:08Z</time>
      </trkpt>
      <trkpt lat="43.62468" lon="3.83799">
        <ele>71</ele>
        <time>2021-04-24T10:03:09Z</time>
      </trkpt>
      <trkpt lat="43.62465" lon="3.83797">
        <ele>71</ele>
        <time>2021-04-24T10:03:10Z</time>
      </trkpt>
      <trkpt lat="43.62463" lon="3.83795">
        <ele>71</ele>
        <time>2021-04-24T10:03:11Z</time>
      </trkpt>
      <trkpt lat="43.6246" lon="3.83793">
        <ele>71</ele>
        <time>2021-04-24T10:03:12Z</time>
      </trkpt>
      <trkpt lat="43.62457" lon="3.83791">
        <ele>71</ele>
        <time>2021-04-24T10:03:13Z</time>
      </trkpt>
      <trkpt lat="43.62455" lon="3.83789">
        <ele>71</ele>
        <time>2021-04-24T10:03:14Z</time>
      </trkpt>
      <trkpt lat="43.62452" lon="3.83786">
        <ele>71</ele>
        <time>2021-04-24T10:03:15Z</time>
      </trkpt>
      <trkpt lat="43.62449" lon="3.83783">
        <ele>72</ele>
        <time>2021-04-24T10:03:16Z</time>
      </trkpt>
      <trkpt lat="43.62447" lon="3.8378">
        <ele>72</ele>
        <time>2021-04-24T10:03:17Z</time>
      </trkpt>
      <trkpt lat="43.62445" lon="3.83777">
        <ele>72</ele>
        <time>2021-04-24T10:03:18Z</time>
      </trkpt>
      <trkpt lat="43.62443" lon="3.83773">
        <ele>72</ele>
        <time>2021-04-24T10:03:19Z</time>
      </trkpt>
      <trkpt lat="43.62442" lon="3.83769">
        <ele>72</ele>
        <time>2021-04-24T10:03:20Z</time>
      </trkpt>
      <trkpt lat="43.62441" lon="3.83765">
        <ele>72</ele>
        <time>2021-04-24T10:03:21Z</time>
      </trkpt>
      <trkpt lat="43.6244" lon="3.83761">
        <ele>72</ele>
        <time>2021-04-24T10:03:22Z</time>
      </trkpt>
      <trkpt lat="43.62439" lon="3.83756">
        <ele>72</ele>
        <time>2021-04-24T10:03:23Z</time>
      </trkpt>
      <trkpt lat="43.62437" lon="3.83751">
        <ele>72</ele>
        <time>2021-04-24T10:03:24Z</time>
      </trkpt>
      <trkpt lat="43.62436" lon="3.83747">
        <ele>72</ele>
        <time>2021-04-24T10:03:25Z</time>
      </trkpt>
      <trkpt lat="43.62435" lon="3.83742">
        <ele>73</ele>
        <time>2021-04-24T10:03:26Z</time>
      </trkpt>
      <trkpt lat="43.62434" lon="3.83736">
        <ele>73</ele>
        <time>2021-04-24T10:03:27Z</time>
      </trkpt>
      <trkpt lat="43.62432" lon="3.83731">
        <ele>73</ele>
        <time>2021-04-24T10:03:28Z</time>
      </trkpt>
      <trkpt lat="43.62431" lon="3.83726">
        <ele>73</ele>
        <time>2021-04-24T10:03:29Z</time>
      </trkpt>
      <trkpt lat="43.6243" lon="3.8372">
        <ele>73</ele>
        <time>2021-04-24T10:03:30Z</time>
      </trkpt>
      <trkpt lat="43.62429" lon="3.83715">
        <ele>73</ele>
        <time>2021-04-24T10:03:31Z</time>
      </trkpt>
      <trkpt lat="43.62428" lon="3.8371">
        <ele>73</ele>
        <time>2021-04-24T10:03:32Z</time>
      </trkpt>
      <trkpt lat="43.62426" lon="3.83705">
        <ele>73</ele>
        <time>2021-04-24T10:03:33Z</time>
      </trkpt>
      <trkpt lat="43.62425" lon="3.83701">
        <ele>73</ele>
        <time>2021-04-24T10:03:34Z</time>
      </trkpt>
      <trkpt lat="43.62423" lon="3.83697">
        <ele>73</ele>
        <time>2021-04-24T10:03:35Z</time>
      </trkpt>
      <trkpt lat="43.62421" lon="3.83694">
        <ele>73</ele>
        <time>2021-04-24T10:03:36Z</time>
      </trkpt>
      <trkpt lat="43.62419" lon="3.83691">
        <ele>73</ele>
        <time>2021-04-24T10:03:37Z</time>
      </trkpt>
      <trkpt lat="43.62417" lon="3.83689">
        <ele>73</ele>
        <time>2021-04-24T10:03:38Z</time>
      </trkpt>
      <trkpt lat="43.62416" lon="3.83686">
        <ele>73</ele>
        <time>2021-04-24T10:03:39Z</time>
      </trkpt>
      <trkpt lat="43.62416" lon="3.83682">
        <ele>73</ele>
        <time>2021-04-24T10:03:40Z</time>
      </trkpt>
      <trkpt lat="43.62414" lon="3.8368">
        <ele>73</ele>
        <time>2021-04-24T10:03:41Z</time>
      </trkpt>
      <trkpt lat="43.62413" lon="3.83677">
        <ele>73</ele>
        <time>2021-04-24T10:03:42Z</time>
      </trkpt>
      <trkpt lat="43.62413" lon="3.83673">
        <ele>73</ele>
        <time>2021-04-24T10:03:43Z</time>
      </trkpt>
      <trkpt lat="43.62414" lon="3.83669">
        <ele>73</ele>
        <time>2021-04-24T10:03:44Z</time>
      </trkpt>
      <trkpt lat="43.62416" lon="3.83667">
        <ele>73</ele>
        <time>2021-04-24T10:03:45Z</time>
      </trkpt>
      <trkpt lat="43.62419" lon="3.83667">
        <ele>75</ele>
        <time>2021-04-24T10:03:46Z</time>
      </trkpt>
      <trkpt lat="43.62422" lon="3.83667">
        <ele>75</ele>
        <time>2021-04-24T10:03:47Z</time>
      </trkpt>
      <trkpt lat="43.62424" lon="3.83667">
        <ele>75</ele>
        <time>2021-04-24T10:03:48Z</time>
      </trkpt>
      <trkpt lat="43.62427" lon="3.83666">
        <ele>75</ele>
        <time>2021-04-24T10:03:49Z</time>
      </trkpt>
      <trkpt lat="43.6243" lon="3.83665">
        <ele>75</ele>
        <time>2021-04-24T10:03:50Z</time>
      </trkpt>
      <trkpt lat="43.62432" lon="3.83664">
        <ele>75</ele>
        <time>2021-04-24T10:03:51Z</time>
      </trkpt>
      <trkpt lat="43.62435" lon="3.83662">
        <ele>75</ele>
        <time>2021-04-24T10:03:52Z</time>
      </trkpt>
      <trkpt lat="43.62438" lon="3.83661">
        <ele>75</ele>
        <time>2021-04-24T10:03:53Z</time>
      </trkpt>
      <trkpt lat="43.62441" lon="3.8366">
        <ele>75</ele>
        <time>2021-04-24T10:03:54Z</time>
      </trkpt>
      <trkpt lat="43.62443" lon="3.8366">
        <ele>75</ele>
        <time>2021-04-24T10:03:55Z</time>
      </trkpt>
      <trkpt lat="43.62446" lon="3.83659">
        <ele>75</ele>
        <time>2021-04-24T10:03:56Z</time>
      </trkpt>
      <trkpt lat="43.62449" lon="3.83658">
        <ele>75</ele>
        <time>2021-04-24T10:03:57Z</time>
      </trkpt>
      <trkpt lat="43.62452" lon="3.83657">
        <ele>75</ele>
        <time>2021-04-24T10:03:58Z</time>
      </trkpt>
      <trkpt lat="43.62454" lon="3.83656">
        <ele>75</ele>
        <time>2021-04-24T10:03:59Z</time>
      </trkpt>
      <trkpt lat="43.62457" lon="3.83655">
        <ele>75</ele>
        <time>2021-04-24T10:04:00Z</time>
      </trkpt>
      <trkpt lat="43.6246" lon="3.83654">
        <ele>75</ele>
        <time>2021-04-24T10:04:01Z</time>
      </trkpt>
      <trkpt lat="43.62462" lon="3.83653">
        <ele>75</ele>
        <time>2021-04-24T10:04:02Z</time>
      </trkpt>
      <trkpt lat="43.62465" lon="3.83652">
        <ele>75</ele>
        <time>2021-04-24T10:04:03Z</time>
      </trkpt>
      <trkpt lat="43.62468" lon="3.83651">
        <ele>75</ele>
        <time>2021-04-24T10:04:04Z</time>
      </trkpt>
      <trkpt lat="43.62471" lon="3.8365">
        <ele>75</ele>
        <time>2021-04-24T10:04:05Z</time>
      </trkpt>
      <trkpt lat="43.62473" lon="3.83649">
        <ele>76</ele>
        <time>2021-04-24T10:04:06Z</time>
      </trkpt>
      <trkpt lat="43.62476" lon="3.83648">
        <ele>76</ele>
        <time>2021-04-24T10:04:07Z</time>
      </trkpt>
      <trkpt lat="43.62479" lon="3.83647">
        <ele>76</ele>
        <time>2021-04-24T10:04:08Z</time>
      </trkpt>
      <trkpt lat="43.62482" lon="3.83646">
        <ele>76</ele>
        <time>2021-04-24T10:04:09Z</time>
      </trkpt>
      <trkpt lat="43.62485" lon="3.83644">
        <ele>76</ele>
        <time>2021-04-24T10:04:10Z</time>
      </trkpt>
      <trkpt lat="43.62488" lon="3.83641">
        <ele>76</ele>
        <time>2021-04-24T10:04:11Z</time>
      </trkpt>
      <trkpt lat="43.6249" lon="3.83637">
        <ele>76</ele>
        <time>2021-04-24T10:04:12Z</time>
      </trkpt>
      <trkpt lat="43.62492" lon="3.83633">
        <ele>76</ele>
        <time>2021-04-24T10:04:13Z</time>
      </trkpt>
      <trkpt lat="43.62493" lon="3.83629">
        <ele>76</ele>
        <time>2021-04-24T10:04:14Z</time>
      </trkpt>
      <trkpt lat="43.62495" lon="3.83625">
        <ele>76</ele>
        <time>2021-04-24T10:04:15Z</time>
      </trkpt>
      <trkpt lat="43.62496" lon="3.83621">
        <ele>76</ele>
        <time>2021-04-24T10:04:16Z</time>
      </trkpt>
      <trkpt lat="43.62497" lon="3.83618">
        <ele>76</ele>
        <time>2021-04-24T10:04:17Z</time>
      </trkpt>
      <trkpt lat="43.62498" lon="3.83616">
        <ele>76</ele>
        <time>2021-04-24T10:04:18Z</time>
      </trkpt>
      <trkpt lat="43.625" lon="3.83612">
        <ele>76</ele>
        <time>2021-04-24T10:04:19Z</time>
      </trkpt>
      <trkpt lat="43.62503" lon="3.83609">
        <ele>76</ele>
        <time>2021-04-24T10:04:20Z</time>
      </trkpt>
      <trkpt lat="43.62507" lon="3.83607">
        <ele>76</ele>
        <time>2021-04-24T10:04:21Z</time>
      </trkpt>
      <trkpt lat="43.6251" lon="3.83605">
        <ele>76</ele>
        <time>2021-04-24T10:04:22Z</time>
      </trkpt>
      <trkpt lat="43.62514" lon="3.83604">
        <ele>76</ele>
        <time>2021-04-24T10:04:23Z</time>
      </trkpt>
      <trkpt lat="43.62518" lon="3.83604">
        <ele>76</ele>
        <time>2021-04-24T10:04:24Z</time>
      </trkpt>
      <trkpt lat="43.62522" lon="3.83605">
        <ele>76</ele>
        <time>2021-04-24T10:04:25Z</time>
      </trkpt>
      <trkpt lat="43.62526" lon="3.83607">
        <ele>77</ele>
        <time>2021-04-24T10:04:26Z</time>
      </trkpt>
      <trkpt lat="43.6253" lon="3.83609">
        <ele>77</ele>
        <time>2021-04-24T10:04:27Z</time>
      </trkpt>
      <trkpt lat="43.62533" lon="3.83611">
        <ele>77</ele>
        <time>2021-04-24T10:04:28Z</time>
      </trkpt>
      <trkpt lat="43.62536" lon="3.83614">
        <ele>77</ele>
        <time>2021-04-24T10:04:29Z</time>
      </trkpt>
      <trkpt lat="43.62539" lon="3.83616">
        <ele>77</ele>
        <time>2021-04-24T10:04:30Z</time>
      </trkpt>
      <trkpt lat="43.62542" lon="3.83618">
        <ele>77</ele>
        <time>2021-04-24T10:04:31Z</time>
      </trkpt>
      <trkpt lat="43.62545" lon="3.8362">
        <ele>77</ele>
        <time>2021-04-24T10:04:32Z</time>
      </trkpt>
      <trkpt lat="43.62548" lon="3.83622">
        <ele>77</ele>
        <time>2021-04-24T10:04:33Z</time>
      </trkpt>
      <trkpt lat="43.62551" lon="3.83622">
        <ele>77</ele>
        <time>2021-04-24T10:04:34Z</time>
      </trkpt>
      <trkpt lat="43.62554" lon="3.83621">
        <ele>77</ele>
        <time>2021-04-24T10:04:35Z</time>
      </trkpt>
      <trkpt lat="43.6256" lon="3.83618">
        <ele>77</ele>
        <time>2021-04-24T10:04:36Z</time>
      </trkpt>
      <trkpt lat="43.62563" lon="3.83617">
        <ele>77</ele>
        <time>2021-04-24T10:04:37Z</time>
      </trkpt>
      <trkpt lat="43.62566" lon="3.83616">
        <ele>77</ele>
        <time>2021-04-24T10:04:38Z</time>
      </trkpt>
      <trkpt lat="43.62568" lon="3.83615">
        <ele>77</ele>
        <time>2021-04-24T10:04:39Z</time>
      </trkpt>
      <trkpt lat="43.62574" lon="3.83612">
        <ele>77</ele>
        <time>2021-04-24T10:04:41Z</time>
      </trkpt>
      <trkpt lat="43.62576" lon="3.83609">
        <ele>77</ele>
        <time>2021-04-24T10:04:42Z</time>
      </trkpt>
      <trkpt lat="43.62577" lon="3.83605">
        <ele>77</ele>
        <time>2021-04-24T10:04:43Z</time>
      </trkpt>
      <trkpt lat="43.62576" lon="3.836">
        <ele>77</ele>
        <time>2021-04-24T10:04:44Z</time>
      </trkpt>
      <trkpt lat="43.62575" lon="3.83596">
        <ele>77</ele>
        <time>2021-04-24T10:04:46Z</time>
      </trkpt>
      <trkpt lat="43.62573" lon="3.83592">
        <ele>77</ele>
        <time>2021-04-24T10:04:47Z</time>
      </trkpt>
      <trkpt lat="43.62572" lon="3.83588">
        <ele>77</ele>
        <time>2021-04-24T10:04:48Z</time>
      </trkpt>
      <trkpt lat="43.6257" lon="3.83584">
        <ele>77</ele>
        <time>2021-04-24T10:04:49Z</time>
      </trkpt>
      <trkpt lat="43.62566" lon="3.8358">
        <ele>77</ele>
        <time>2021-04-24T10:04:50Z</time>
      </trkpt>
      <trkpt lat="43.62562" lon="3.83576">
        <ele>77</ele>
        <time>2021-04-24T10:04:51Z</time>
      </trkpt>
      <trkpt lat="43.62559" lon="3.83572">
        <ele>77</ele>
        <time>2021-04-24T10:04:52Z</time>
      </trkpt>
      <trkpt lat="43.62555" lon="3.83568">
        <ele>77</ele>
        <time>2021-04-24T10:04:53Z</time>
      </trkpt>
      <trkpt lat="43.62551" lon="3.83564">
        <ele>77</ele>
        <time>2021-04-24T10:04:54Z</time>
      </trkpt>
      <trkpt lat="43.62547" lon="3.83561">
        <ele>77</ele>
        <time>2021-04-24T10:04:55Z</time>
      </trkpt>
      <trkpt lat="43.62543" lon="3.83559">
        <ele>76</ele>
        <time>2021-04-24T10:04:56Z</time>
      </trkpt>
      <trkpt lat="43.6254" lon="3.83556">
        <ele>76</ele>
        <time>2021-04-24T10:04:57Z</time>
      </trkpt>
      <trkpt lat="43.62537" lon="3.83553">
        <ele>76</ele>
        <time>2021-04-24T10:04:58Z</time>
      </trkpt>
      <trkpt lat="43.62534" lon="3.8355">
        <ele>76</ele>
        <time>2021-04-24T10:04:59Z</time>
      </trkpt>
      <trkpt lat="43.62532" lon="3.83546">
        <ele>76</ele>
        <time>2021-04-24T10:05:00Z</time>
      </trkpt>
      <trkpt lat="43.62532" lon="3.83543">
        <ele>76</ele>
        <time>2021-04-24T10:05:01Z</time>
      </trkpt>
      <trkpt lat="43.62531" lon="3.83539">
        <ele>76</ele>
        <time>2021-04-24T10:05:02Z</time>
      </trkpt>
      <trkpt lat="43.6253" lon="3.83535">
        <ele>76</ele>
        <time>2021-04-24T10:05:03Z</time>
      </trkpt>
      <trkpt lat="43.62529" lon="3.8353">
        <ele>76</ele>
        <time>2021-04-24T10:05:04Z</time>
      </trkpt>
      <trkpt lat="43.62527" lon="3.83526">
        <ele>76</ele>
        <time>2021-04-24T10:05:05Z</time>
      </trkpt>
      <trkpt lat="43.62526" lon="3.83522">
        <ele>76</ele>
        <time>2021-04-24T10:05:06Z</time>
      </trkpt>
      <trkpt lat="43.62524" lon="3.83517">
        <ele>76</ele>
        <time>2021-04-24T10:05:07Z</time>
      </trkpt>
      <trkpt lat="43.62522" lon="3.83513">
        <ele>76</ele>
        <time>2021-04-24T10:05:08Z</time>
      </trkpt>
      <trkpt lat="43.6252" lon="3.83508">
        <ele>76</ele>
        <time>2021-04-24T10:05:09Z</time>
      </trkpt>
      <trkpt lat="43.62518" lon="3.83504">
        <ele>76</ele>
        <time>2021-04-24T10:05:10Z</time>
      </trkpt>
      <trkpt lat="43.62516" lon="3.83499">
        <ele>76</ele>
        <time>2021-04-24T10:05:11Z</time>
      </trkpt>
      <trkpt lat="43.62515" lon="3.83495">
        <ele>76</ele>
        <time>2021-04-24T10:05:12Z</time>
      </trkpt>
      <trkpt lat="43.62513" lon="3.8349">
        <ele>76</ele>
        <time>2021-04-24T10:05:13Z</time>
      </trkpt>
      <trkpt lat="43.62511" lon="3.83487">
        <ele>76</ele>
        <time>2021-04-24T10:05:14Z</time>
      </trkpt>
      <trkpt lat="43.62509" lon="3.83483">
        <ele>76</ele>
        <time>2021-04-24T10:05:15Z</time>
      </trkpt>
      <trkpt lat="43.62507" lon="3.83479">
        <ele>77</ele>
        <time>2021-04-24T10:05:16Z</time>
      </trkpt>
      <trkpt lat="43.62505" lon="3.83474">
        <ele>77</ele>
        <time>2021-04-24T10:05:17Z</time>
      </trkpt>
      <trkpt lat="43.62504" lon="3.83469">
        <ele>77</ele>
        <time>2021-04-24T10:05:18Z</time>
      </trkpt>
      <trkpt lat="43.62503" lon="3.83463">
        <ele>77</ele>
        <time>2021-04-24T10:05:19Z</time>
      </trkpt>
      <trkpt lat="43.62503" lon="3.83457">
        <ele>77</ele>
        <time>2021-04-24T10:05:20Z</time>
      </trkpt>
      <trkpt lat="43.62504" lon="3.83451">
        <ele>77</ele>
        <time>2021-04-24T10:05:21Z</time>
      </trkpt>
      <trkpt lat="43.62506" lon="3.83445">
        <ele>77</ele>
        <time>2021-04-24T10:05:22Z</time>
      </trkpt>
      <trkpt lat="43.62507" lon="3.8344">
        <ele>77</ele>
        <time>2021-04-24T10:05:23Z</time>
      </trkpt>
      <trkpt lat="43.62509" lon="3.83434">
        <ele>77</ele>
        <time>2021-04-24T10:05:24Z</time>
      </trkpt>
      <trkpt lat="43.62511" lon="3.83428">
        <ele>77</ele>
        <time>2021-04-24T10:05:25Z</time>
      </trkpt>
      <trkpt lat="43.62513" lon="3.83423">
        <ele>77</ele>
        <time>2021-04-24T10:05:26Z</time>
      </trkpt>
      <trkpt lat="43.62514" lon="3.83417">
        <ele>77</ele>
        <time>2021-04-24T10:05:27Z</time>
      </trkpt>
      <trkpt lat="43.62515" lon="3.8341">
        <ele>77</ele>
        <time>2021-04-24T10:05:28Z</time>
      </trkpt>
      <trkpt lat="43.62516" lon="3.83403">
        <ele>77</ele>
        <time>2021-04-24T10:05:29Z</time>
      </trkpt>
      <trkpt lat="43.62517" lon="3.83397">
        <ele>77</ele>
        <time>2021-04-24T10:05:30Z</time>
      </trkpt>
      <trkpt lat="43.62518" lon="3.8339">
        <ele>77</ele>
        <time>2021-04-24T10:05:31Z</time>
      </trkpt>
      <trkpt lat="43.6252" lon="3.83384">
        <ele>77</ele>
        <time>2021-04-24T10:05:32Z</time>
      </trkpt>
      <trkpt lat="43.62522" lon="3.83379">
        <ele>77</ele>
        <time>2021-04-24T10:05:33Z</time>
      </trkpt>
      <trkpt lat="43.62524" lon="3.83373">
        <ele>77</ele>
        <time>2021-04-24T10:05:34Z</time>
      </trkpt>
      <trkpt lat="43.62526" lon="3.83367">
        <ele>77</ele>
        <time>2021-04-24T10:05:35Z</time>
      </trkpt>
      <trkpt lat="43.62528" lon="3.83362">
        <ele>77</ele>
        <time>2021-04-24T10:05:36Z</time>
      </trkpt>
      <trkpt lat="43.62529" lon="3.83357">
        <ele>77</ele>
        <time>2021-04-24T10:05:37Z</time>
      </trkpt>
      <trkpt lat="43.62531" lon="3.83351">
        <ele>77</ele>
        <time>2021-04-24T10:05:38Z</time>
      </trkpt>
      <trkpt lat="43.62533" lon="3.83346">
        <ele>77</ele>
        <time>2021-04-24T10:05:39Z</time>
      </trkpt>
      <trkpt lat="43.62535" lon="3.83341">
        <ele>77</ele>
        <time>2021-04-24T10:05:40Z</time>
      </trkpt>
      <trkpt lat="43.62536" lon="3.83335">
        <ele>77</ele>
        <time>2021-04-24T10:05:41Z</time>
      </trkpt>
      <trkpt lat="43.62538" lon="3.8333">
        <ele>77</ele>
        <time>2021-04-24T10:05:42Z</time>
      </trkpt>
      <trkpt lat="43.6254" lon="3.83325">
        <ele>77</ele>
        <time>2021-04-24T10:05:43Z</time>
      </trkpt>
      <trkpt lat="43.62542" lon="3.8332">
        <ele>77</ele>
        <time>2021-04-24T10:05:44Z</time>
      </trkpt>
      <trkpt lat="43.62544" lon="3.83315">
        <ele>77</ele>
        <time>2021-04-24T10:05:45Z</time>
      </trkpt>
      <trkpt lat="43.62545" lon="3.8331">
        <ele>78</ele>
        <time>2021-04-24T10:05:46Z</time>
      </trkpt>
      <trkpt lat="43.62547" lon="3.83304">
        <ele>78</ele>
        <time>2021-04-24T10:05:47Z</time>
      </trkpt>
      <trkpt lat="43.62548" lon="3.83299">
        <ele>78</ele>
        <time>2021-04-24T10:05:48Z</time>
      </trkpt>
      <trkpt lat="43.6255" lon="3.83294">
        <ele>78</ele>
        <time>2021-04-24T10:05:49Z</time>
      </trkpt>
      <trkpt lat="43.62552" lon="3.83289">
        <ele>78</ele>
        <time>2021-04-24T10:05:50Z</time>
      </trkpt>
      <trkpt lat="43.62554" lon="3.83284">
        <ele>78</ele>
        <time>2021-04-24T10:05:51Z</time>
      </trkpt>
      <trkpt lat="43.62556" lon="3.8328">
        <ele>78</ele>
        <time>2021-04-24T10:05:52Z</time>
      </trkpt>
      <trkpt lat="43.62559" lon="3.83276">
        <ele>78</ele>
        <time>2021-04-24T10:05:53Z</time>
      </trkpt>
      <trkpt lat="43.62562" lon="3.83273">
        <ele>78</ele>
        <time>2021-04-24T10:05:54Z</time>
      </trkpt>
      <trkpt lat="43.62565" lon="3.83271">
        <ele>78</ele>
        <time>2021-04-24T10:05:55Z</time>
      </trkpt>
      <trkpt lat="43.62569" lon="3.83268">
        <ele>79</ele>
        <time>2021-04-24T10:05:56Z</time>
      </trkpt>
      <trkpt lat="43.62572" lon="3.83264">
        <ele>79</ele>
        <time>2021-04-24T10:05:57Z</time>
      </trkpt>
      <trkpt lat="43.62575" lon="3.8326">
        <ele>79</ele>
        <time>2021-04-24T10:05:58Z</time>
      </trkpt>
      <trkpt lat="43.62577" lon="3.83256">
        <ele>79</ele>
        <time>2021-04-24T10:05:59Z</time>
      </trkpt>
      <trkpt lat="43.6258" lon="3.83252">
        <ele>79</ele>
        <time>2021-04-24T10:06:00Z</time>
      </trkpt>
      <trkpt lat="43.62582" lon="3.83247">
        <ele>79</ele>
        <time>2021-04-24T10:06:01Z</time>
      </trkpt>
      <trkpt lat="43.62584" lon="3.83242">
        <ele>79</ele>
        <time>2021-04-24T10:06:02Z</time>
      </trkpt>
      <trkpt lat="43.62587" lon="3.83238">
        <ele>79</ele>
        <time>2021-04-24T10:06:03Z</time>
      </trkpt>
      <trkpt lat="43.6259" lon="3.83234">
        <ele>79</ele>
        <time>2021-04-24T10:06:04Z</time>
      </trkpt>
      <trkpt lat="43.62593" lon="3.8323">
        <ele>79</ele>
        <time>2021-04-24T10:06:05Z</time>
      </trkpt>
      <trkpt lat="43.62597" lon="3.83228">
        <ele>80</ele>
        <time>2021-04-24T10:06:06Z</time>
      </trkpt>
      <trkpt lat="43.626" lon="3.83225">
        <ele>80</ele>
        <time>2021-04-24T10:06:07Z</time>
      </trkpt>
      <trkpt lat="43.62604" lon="3.83223">
        <ele>80</ele>
        <time>2021-04-24T10:06:08Z</time>
      </trkpt>
      <trkpt lat="43.62607" lon="3.8322">
        <ele>80</ele>
        <time>2021-04-24T10:06:09Z</time>
      </trkpt>
      <trkpt lat="43.6261" lon="3.83218">
        <ele>80</ele>
        <time>2021-04-24T10:06:10Z</time>
      </trkpt>
      <trkpt lat="43.62614" lon="3.83216">
        <ele>80</ele>
        <time>2021-04-24T10:06:11Z</time>
      </trkpt>
      <trkpt lat="43.62616" lon="3.83214">
        <ele>80</ele>
        <time>2021-04-24T10:06:12Z</time>
      </trkpt>
      <trkpt lat="43.62617" lon="3.83211">
        <ele>80</ele>
        <time>2021-04-24T10:06:13Z</time>
      </trkpt>
      <trkpt lat="43.62617" lon="3.83208">
        <ele>80</ele>
        <time>2021-04-24T10:06:14Z</time>
      </trkpt>
      <trkpt lat="43.62615" lon="3.83204">
        <ele>80</ele>
        <time>2021-04-24T10:06:15Z</time>
      </trkpt>
      <trkpt lat="43.62613" lon="3.83201">
        <ele>81</ele>
        <time>2021-04-24T10:06:16Z</time>
      </trkpt>
      <trkpt lat="43.62611" lon="3.83199">
        <ele>81</ele>
        <time>2021-04-24T10:06:17Z</time>
      </trkpt>
      <trkpt lat="43.62609" lon="3.83196">
        <ele>81</ele>
        <time>2021-04-24T10:06:18Z</time>
      </trkpt>
      <trkpt lat="43.62608" lon="3.83193">
        <ele>81</ele>
        <time>2021-04-24T10:06:19Z</time>
      </trkpt>
      <trkpt lat="43.62609" lon="3.83188">
        <ele>81</ele>
        <time>2021-04-24T10:06:20Z</time>
      </trkpt>
      <trkpt lat="43.6261" lon="3.83183">
        <ele>81</ele>
        <time>2021-04-24T10:06:21Z</time>
      </trkpt>
      <trkpt lat="43.62612" lon="3.83178">
        <ele>81</ele>
        <time>2021-04-24T10:06:22Z</time>
      </trkpt>
      <trkpt lat="43.62615" lon="3.83173">
        <ele>81</ele>
        <time>2021-04-24T10:06:23Z</time>
      </trkpt>
      <trkpt lat="43.62617" lon="3.83167">
        <ele>81</ele>
        <time>2021-04-24T10:06:24Z</time>
      </trkpt>
      <trkpt lat="43.62619" lon="3.83162">
        <ele>81</ele>
        <time>2021-04-24T10:06:25Z</time>
      </trkpt>
      <trkpt lat="43.62623" lon="3.83152">
        <ele>81</ele>
        <time>2021-04-24T10:06:26Z</time>
      </trkpt>
      <trkpt lat="43.62625" lon="3.83148">
        <ele>81</ele>
        <time>2021-04-24T10:06:27Z</time>
      </trkpt>
      <trkpt lat="43.62627" lon="3.83144">
        <ele>81</ele>
        <time>2021-04-24T10:06:28Z</time>
      </trkpt>
      <trkpt lat="43.62632" lon="3.83136">
        <ele>81</ele>
        <time>2021-04-24T10:06:30Z</time>
      </trkpt>
      <trkpt lat="43.62634" lon="3.83133">
        <ele>81</ele>
        <time>2021-04-24T10:06:31Z</time>
      </trkpt>
      <trkpt lat="43.62636" lon="3.83128">
        <ele>81</ele>
        <time>2021-04-24T10:06:32Z</time>
      </trkpt>
      <trkpt lat="43.62636" lon="3.83123">
        <ele>81</ele>
        <time>2021-04-24T10:06:33Z</time>
      </trkpt>
      <trkpt lat="43.62637" lon="3.83117">
        <ele>81</ele>
        <time>2021-04-24T10:06:34Z</time>
      </trkpt>
      <trkpt lat="43.62637" lon="3.83111">
        <ele>82</ele>
        <time>2021-04-24T10:06:36Z</time>
      </trkpt>
      <trkpt lat="43.62637" lon="3.83098">
        <ele>82</ele>
        <time>2021-04-24T10:06:37Z</time>
      </trkpt>
      <trkpt lat="43.62638" lon="3.83092">
        <ele>82</ele>
        <time>2021-04-24T10:06:38Z</time>
      </trkpt>
      <trkpt lat="43.62638" lon="3.83086">
        <ele>82</ele>
        <time>2021-04-24T10:06:39Z</time>
      </trkpt>
      <trkpt lat="43.62639" lon="3.8308">
        <ele>82</ele>
        <time>2021-04-24T10:06:40Z</time>
      </trkpt>
      <trkpt lat="43.6264" lon="3.83074">
        <ele>82</ele>
        <time>2021-04-24T10:06:41Z</time>
      </trkpt>
      <trkpt lat="43.62641" lon="3.83068">
        <ele>82</ele>
        <time>2021-04-24T10:06:42Z</time>
      </trkpt>
      <trkpt lat="43.62641" lon="3.83062">
        <ele>82</ele>
        <time>2021-04-24T10:06:43Z</time>
      </trkpt>
      <trkpt lat="43.62642" lon="3.83056">
        <ele>82</ele>
        <time>2021-04-24T10:06:44Z</time>
      </trkpt>
      <trkpt lat="43.62643" lon="3.8305">
        <ele>82</ele>
        <time>2021-04-24T10:06:46Z</time>
      </trkpt>
      <trkpt lat="43.62643" lon="3.83043">
        <ele>82</ele>
        <time>2021-04-24T10:06:47Z</time>
      </trkpt>
      <trkpt lat="43.62644" lon="3.83036">
        <ele>82</ele>
        <time>2021-04-24T10:06:48Z</time>
      </trkpt>
      <trkpt lat="43.62644" lon="3.83029">
        <ele>82</ele>
        <time>2021-04-24T10:06:49Z</time>
      </trkpt>
      <trkpt lat="43.62645" lon="3.83022">
        <ele>82</ele>
        <time>2021-04-24T10:06:50Z</time>
      </trkpt>
      <trkpt lat="43.62647" lon="3.83016">
        <ele>82</ele>
        <time>2021-04-24T10:06:51Z</time>
      </trkpt>
      <trkpt lat="43.6265" lon="3.83011">
        <ele>82</ele>
        <time>2021-04-24T10:06:52Z</time>
      </trkpt>
      <trkpt lat="43.62654" lon="3.83009">
        <ele>82</ele>
        <time>2021-04-24T10:06:53Z</time>
      </trkpt>
      <trkpt lat="43.62657" lon="3.8301">
        <ele>82</ele>
        <time>2021-04-24T10:06:54Z</time>
      </trkpt>
      <trkpt lat="43.62661" lon="3.83012">
        <ele>82</ele>
        <time>2021-04-24T10:06:55Z</time>
      </trkpt>
      <trkpt lat="43.62664" lon="3.83014">
        <ele>83</ele>
        <time>2021-04-24T10:06:56Z</time>
      </trkpt>
      <trkpt lat="43.62667" lon="3.83015">
        <ele>83</ele>
        <time>2021-04-24T10:06:57Z</time>
      </trkpt>
      <trkpt lat="43.6267" lon="3.83016">
        <ele>83</ele>
        <time>2021-04-24T10:06:58Z</time>
      </trkpt>
      <trkpt lat="43.62672" lon="3.83017">
        <ele>83</ele>
        <time>2021-04-24T10:06:59Z</time>
      </trkpt>
      <trkpt lat="43.62674" lon="3.83018">
        <ele>83</ele>
        <time>2021-04-24T10:07:00Z</time>
      </trkpt>
      <trkpt lat="43.62677" lon="3.83018">
        <ele>83</ele>
        <time>2021-04-24T10:07:01Z</time>
      </trkpt>
      <trkpt lat="43.62679" lon="3.83018">
        <ele>83</ele>
        <time>2021-04-24T10:07:02Z</time>
      </trkpt>
      <trkpt lat="43.62682" lon="3.83019">
        <ele>83</ele>
        <time>2021-04-24T10:07:03Z</time>
      </trkpt>
      <trkpt lat="43.62684" lon="3.8302">
        <ele>83</ele>
        <time>2021-04-24T10:07:04Z</time>
      </trkpt>
      <trkpt lat="43.62686" lon="3.83021">
        <ele>83</ele>
        <time>2021-04-24T10:07:05Z</time>
      </trkpt>
      <trkpt lat="43.62689" lon="3.83022">
        <ele>84</ele>
        <time>2021-04-24T10:07:06Z</time>
      </trkpt>
      <trkpt lat="43.62691" lon="3.83023">
        <ele>84</ele>
        <time>2021-04-24T10:07:07Z</time>
      </trkpt>
      <trkpt lat="43.62694" lon="3.83024">
        <ele>84</ele>
        <time>2021-04-24T10:07:08Z</time>
      </trkpt>
      <trkpt lat="43.62697" lon="3.83025">
        <ele>84</ele>
        <time>2021-04-24T10:07:09Z</time>
      </trkpt>
      <trkpt lat="43.627" lon="3.83026">
        <ele>84</ele>
        <time>2021-04-24T10:07:10Z</time>
      </trkpt>
      <trkpt lat="43.62703" lon="3.83027">
        <ele>84</ele>
        <time>2021-04-24T10:07:11Z</time>
      </trkpt>
      <trkpt lat="43.62706" lon="3.83028">
        <ele>84</ele>
        <time>2021-04-24T10:07:12Z</time>
      </trkpt>
      <trkpt lat="43.6271" lon="3.83029">
        <ele>84</ele>
        <time>2021-04-24T10:07:13Z</time>
      </trkpt>
      <trkpt lat="43.62713" lon="3.8303">
        <ele>84</ele>
        <time>2021-04-24T10:07:14Z</time>
      </trkpt>
      <trkpt lat="43.62717" lon="3.83032">
        <ele>84</ele>
        <time>2021-04-24T10:07:15Z</time>
      </trkpt>
      <trkpt lat="43.6272" lon="3.83033">
        <ele>84</ele>
        <time>2021-04-24T10:07:16Z</time>
      </trkpt>
      <trkpt lat="43.62724" lon="3.83034">
        <ele>84</ele>
        <time>2021-04-24T10:07:17Z</time>
      </trkpt>
      <trkpt lat="43.62727" lon="3.83036">
        <ele>84</ele>
        <time>2021-04-24T10:07:18Z</time>
      </trkpt>
      <trkpt lat="43.6273" lon="3.83037">
        <ele>84</ele>
        <time>2021-04-24T10:07:19Z</time>
      </trkpt>
      <trkpt lat="43.62733" lon="3.83039">
        <ele>84</ele>
        <time>2021-04-24T10:07:20Z</time>
      </trkpt>
      <trkpt lat="43.62735" lon="3.83041">
        <ele>84</ele>
        <time>2021-04-24T10:07:21Z</time>
      </trkpt>
      <trkpt lat="43.62738" lon="3.83043">
        <ele>84</ele>
        <time>2021-04-24T10:07:22Z</time>
      </trkpt>
      <trkpt lat="43.62741" lon="3.83045">
        <ele>84</ele>
        <time>2021-04-24T10:07:23Z</time>
      </trkpt>
      <trkpt lat="43.62743" lon="3.83047">
        <ele>84</ele>
        <time>2021-04-24T10:07:24Z</time>
      </trkpt>
      <trkpt lat="43.62746" lon="3.83049">
        <ele>84</ele>
        <time>2021-04-24T10:07:25Z</time>
      </trkpt>
      <trkpt lat="43.62749" lon="3.83051">
        <ele>85</ele>
        <time>2021-04-24T10:07:26Z</time>
      </trkpt>
      <trkpt lat="43.62752" lon="3.83053">
        <ele>85</ele>
        <time>2021-04-24T10:07:27Z</time>
      </trkpt>
      <trkpt lat="43.62754" lon="3.83056">
        <ele>85</ele>
        <time>2021-04-24T10:07:28Z</time>
      </trkpt>
      <trkpt lat="43.62757" lon="3.83058">
        <ele>85</ele>
        <time>2021-04-24T10:07:29Z</time>
      </trkpt>
      <trkpt lat="43.62759" lon="3.83061">
        <ele>85</ele>
        <time>2021-04-24T10:07:30Z</time>
      </trkpt>
      <trkpt lat="43.62761" lon="3.83064">
        <ele>85</ele>
        <time>2021-04-24T10:07:31Z</time>
      </trkpt>
      <trkpt lat="43.62763" lon="3.83067">
        <ele>85</ele>
        <time>2021-04-24T10:07:32Z</time>
      </trkpt>
      <trkpt lat="43.62766" lon="3.8307">
        <ele>85</ele>
        <time>2021-04-24T10:07:33Z</time>
      </trkpt>
      <trkpt lat="43.62768" lon="3.83074">
        <ele>85</ele>
        <time>2021-04-24T10:07:34Z</time>
      </trkpt>
      <trkpt lat="43.6277" lon="3.83077">
        <ele>85</ele>
        <time>2021-04-24T10:07:35Z</time>
      </trkpt>
      <trkpt lat="43.62771" lon="3.83081">
        <ele>85</ele>
        <time>2021-04-24T10:07:36Z</time>
      </trkpt>
      <trkpt lat="43.62773" lon="3.83084">
        <ele>85</ele>
        <time>2021-04-24T10:07:37Z</time>
      </trkpt>
      <trkpt lat="43.62775" lon="3.83088">
        <ele>85</ele>
        <time>2021-04-24T10:07:38Z</time>
      </trkpt>
      <trkpt lat="43.62777" lon="3.83091">
        <ele>85</ele>
        <time>2021-04-24T10:07:39Z</time>
      </trkpt>
      <trkpt lat="43.62779" lon="3.83094">
        <ele>85</ele>
        <time>2021-04-24T10:07:40Z</time>
      </trkpt>
      <trkpt lat="43.62782" lon="3.83096">
        <ele>85</ele>
        <time>2021-04-24T10:07:41Z</time>
      </trkpt>
      <trkpt lat="43.62786" lon="3.83097">
        <ele>85</ele>
        <time>2021-04-24T10:07:42Z</time>
      </trkpt>
      <trkpt lat="43.6279" lon="3.83097">
        <ele>85</ele>
        <time>2021-04-24T10:07:43Z</time>
      </trkpt>
      <trkpt lat="43.62794" lon="3.83096">
        <ele>85</ele>
        <time>2021-04-24T10:07:44Z</time>
      </trkpt>
      <trkpt lat="43.62798" lon="3.83094">
        <ele>85</ele>
        <time>2021-04-24T10:07:45Z</time>
      </trkpt>
      <trkpt lat="43.62807" lon="3.83091">
        <ele>85</ele>
        <time>2021-04-24T10:07:46Z</time>
      </trkpt>
      <trkpt lat="43.62815" lon="3.83088">
        <ele>85</ele>
        <time>2021-04-24T10:07:48Z</time>
      </trkpt>
      <trkpt lat="43.6282" lon="3.83088">
        <ele>85</ele>
        <time>2021-04-24T10:07:49Z</time>
      </trkpt>
      <trkpt lat="43.62824" lon="3.83087">
        <ele>85</ele>
        <time>2021-04-24T10:07:50Z</time>
      </trkpt>
      <trkpt lat="43.62828" lon="3.83086">
        <ele>85</ele>
        <time>2021-04-24T10:07:51Z</time>
      </trkpt>
      <trkpt lat="43.62832" lon="3.83086">
        <ele>85</ele>
        <time>2021-04-24T10:07:52Z</time>
      </trkpt>
      <trkpt lat="43.62837" lon="3.83085">
        <ele>85</ele>
        <time>2021-04-24T10:07:53Z</time>
      </trkpt>
      <trkpt lat="43.6284" lon="3.83084">
        <ele>85</ele>
        <time>2021-04-24T10:07:54Z</time>
      </trkpt>
      <trkpt lat="43.62843" lon="3.8308">
        <ele>85</ele>
        <time>2021-04-24T10:07:56Z</time>
      </trkpt>
      <trkpt lat="43.62845" lon="3.83075">
        <ele>85</ele>
        <time>2021-04-24T10:07:57Z</time>
      </trkpt>
      <trkpt lat="43.62846" lon="3.83071">
        <ele>85</ele>
        <time>2021-04-24T10:07:58Z</time>
      </trkpt>
      <trkpt lat="43.62848" lon="3.83065">
        <ele>85</ele>
        <time>2021-04-24T10:07:59Z</time>
      </trkpt>
      <trkpt lat="43.62847" lon="3.83058">
        <ele>85</ele>
        <time>2021-04-24T10:08:00Z</time>
      </trkpt>
      <trkpt lat="43.62845" lon="3.83049">
        <ele>85</ele>
        <time>2021-04-24T10:08:01Z</time>
      </trkpt>
      <trkpt lat="43.62842" lon="3.8304">
        <ele>85</ele>
        <time>2021-04-24T10:08:02Z</time>
      </trkpt>
      <trkpt lat="43.62839" lon="3.8303">
        <ele>85</ele>
        <time>2021-04-24T10:08:03Z</time>
      </trkpt>
      <trkpt lat="43.62837" lon="3.83018">
        <ele>85</ele>
        <time>2021-04-24T10:08:04Z</time>
      </trkpt>
      <trkpt lat="43.62836" lon="3.83007">
        <ele>85</ele>
        <time>2021-04-24T10:08:05Z</time>
      </trkpt>
      <trkpt lat="43.62836" lon="3.82995">
        <ele>80</ele>
        <time>2021-04-24T10:08:06Z</time>
      </trkpt>
      <trkpt lat="43.62836" lon="3.82985">
        <ele>80</ele>
        <time>2021-04-24T10:08:07Z</time>
      </trkpt>
      <trkpt lat="43.62836" lon="3.82976">
        <ele>80</ele>
        <time>2021-04-24T10:08:08Z</time>
      </trkpt>
      <trkpt lat="43.62834" lon="3.82967">
        <ele>80</ele>
        <time>2021-04-24T10:08:09Z</time>
      </trkpt>
      <trkpt lat="43.62833" lon="3.82959">
        <ele>80</ele>
        <time>2021-04-24T10:08:10Z</time>
      </trkpt>
      <trkpt lat="43.62833" lon="3.82952">
        <ele>80</ele>
        <time>2021-04-24T10:08:11Z</time>
      </trkpt>
      <trkpt lat="43.62833" lon="3.82946">
        <ele>80</ele>
        <time>2021-04-24T10:08:12Z</time>
      </trkpt>
      <trkpt lat="43.62833" lon="3.8294">
        <ele>80</ele>
        <time>2021-04-24T10:08:13Z</time>
      </trkpt>
      <trkpt lat="43.62834" lon="3.82937">
        <ele>80</ele>
        <time>2021-04-24T10:08:14Z</time>
      </trkpt>
      <trkpt lat="43.62837" lon="3.82935">
        <ele>80</ele>
        <time>2021-04-24T10:08:15Z</time>
      </trkpt>
      <trkpt lat="43.6284" lon="3.82935">
        <ele>78</ele>
        <time>2021-04-24T10:08:16Z</time>
      </trkpt>
      <trkpt lat="43.62843" lon="3.82937">
        <ele>78</ele>
        <time>2021-04-24T10:08:17Z</time>
      </trkpt>
      <trkpt lat="43.62847" lon="3.82938">
        <ele>78</ele>
        <time>2021-04-24T10:08:18Z</time>
      </trkpt>
      <trkpt lat="43.62851" lon="3.8294">
        <ele>78</ele>
        <time>2021-04-24T10:08:19Z</time>
      </trkpt>
      <trkpt lat="43.62854" lon="3.82942">
        <ele>78</ele>
        <time>2021-04-24T10:08:20Z</time>
      </trkpt>
      <trkpt lat="43.62858" lon="3.82943">
        <ele>78</ele>
        <time>2021-04-24T10:08:21Z</time>
      </trkpt>
      <trkpt lat="43.62862" lon="3.82944">
        <ele>78</ele>
        <time>2021-04-24T10:08:22Z</time>
      </trkpt>
      <trkpt lat="43.62866" lon="3.82944">
        <ele>78</ele>
        <time>2021-04-24T10:08:23Z</time>
      </trkpt>
      <trkpt lat="43.62869" lon="3.82945">
        <ele>78</ele>
        <time>2021-04-24T10:08:24Z</time>
      </trkpt>
      <trkpt lat="43.62873" lon="3.82945">
        <ele>78</ele>
        <time>2021-04-24T10:08:25Z</time>
      </trkpt>
      <trkpt lat="43.62877" lon="3.82946">
        <ele>78</ele>
        <time>2021-04-24T10:08:26Z</time>
      </trkpt>
      <trkpt lat="43.6288" lon="3.82947">
        <ele>78</ele>
        <time>2021-04-24T10:08:27Z</time>
      </trkpt>
      <trkpt lat="43.62884" lon="3.82947">
        <ele>78</ele>
        <time>2021-04-24T10:08:28Z</time>
      </trkpt>
      <trkpt lat="43.62888" lon="3.82948">
        <ele>78</ele>
        <time>2021-04-24T10:08:29Z</time>
      </trkpt>
      <trkpt lat="43.62891" lon="3.82949">
        <ele>78</ele>
        <time>2021-04-24T10:08:30Z</time>
      </trkpt>
      <trkpt lat="43.62895" lon="3.8295">
        <ele>78</ele>
        <time>2021-04-24T10:08:31Z</time>
      </trkpt>
      <trkpt lat="43.62899" lon="3.82952">
        <ele>78</ele>
        <time>2021-04-24T10:08:32Z</time>
      </trkpt>
      <trkpt lat="43.62902" lon="3.82953">
        <ele>78</ele>
        <time>2021-04-24T10:08:33Z</time>
      </trkpt>
      <trkpt lat="43.62906" lon="3.82954">
        <ele>78</ele>
        <time>2021-04-24T10:08:34Z</time>
      </trkpt>
      <trkpt lat="43.62909" lon="3.82956">
        <ele>78</ele>
        <time>2021-04-24T10:08:35Z</time>
      </trkpt>
      <trkpt lat="43.62912" lon="3.82957">
        <ele>77</ele>
        <time>2021-04-24T10:08:36Z</time>
      </trkpt>
      <trkpt lat="43.62915" lon="3.82959">
        <ele>77</ele>
        <time>2021-04-24T10:08:37Z</time>
      </trkpt>
      <trkpt lat="43.62918" lon="3.8296">
        <ele>77</ele>
        <time>2021-04-24T10:08:38Z</time>
      </trkpt>
      <trkpt lat="43.62921" lon="3.82961">
        <ele>77</ele>
        <time>2021-04-24T10:08:39Z</time>
      </trkpt>
      <trkpt lat="43.62924" lon="3.82963">
        <ele>77</ele>
        <time>2021-04-24T10:08:40Z</time>
      </trkpt>
      <trkpt lat="43.62927" lon="3.82964">
        <ele>77</ele>
        <time>2021-04-24T10:08:41Z</time>
      </trkpt>
      <trkpt lat="43.6293" lon="3.82965">
        <ele>77</ele>
        <time>2021-04-24T10:08:42Z</time>
      </trkpt>
      <trkpt lat="43.62933" lon="3.82966">
        <ele>77</ele>
        <time>2021-04-24T10:08:43Z</time>
      </trkpt>
      <trkpt lat="43.62936" lon="3.82967">
        <ele>77</ele>
        <time>2021-04-24T10:08:44Z</time>
      </trkpt>
      <trkpt lat="43.62939" lon="3.82968">
        <ele>77</ele>
        <time>2021-04-24T10:08:45Z</time>
      </trkpt>
      <trkpt lat="43.62941" lon="3.82969">
        <ele>78</ele>
        <time>2021-04-24T10:08:46Z</time>
      </trkpt>
      <trkpt lat="43.62944" lon="3.8297">
        <ele>78</ele>
        <time>2021-04-24T10:08:47Z</time>
      </trkpt>
      <trkpt lat="43.62946" lon="3.82971">
        <ele>78</ele>
        <time>2021-04-24T10:08:48Z</time>
      </trkpt>
      <trkpt lat="43.62949" lon="3.82973">
        <ele>78</ele>
        <time>2021-04-24T10:08:49Z</time>
      </trkpt>
      <trkpt lat="43.62951" lon="3.82974">
        <ele>78</ele>
        <time>2021-04-24T10:08:50Z</time>
      </trkpt>
      <trkpt lat="43.62954" lon="3.82975">
        <ele>78</ele>
        <time>2021-04-24T10:08:51Z</time>
      </trkpt>
      <trkpt lat="43.62956" lon="3.82976">
        <ele>78</ele>
        <time>2021-04-24T10:08:52Z</time>
      </trkpt>
      <trkpt lat="43.62959" lon="3.82977">
        <ele>78</ele>
        <time>2021-04-24T10:08:53Z</time>
      </trkpt>
      <trkpt lat="43.62962" lon="3.82977">
        <ele>78</ele>
        <time>2021-04-24T10:08:54Z</time>
      </trkpt>
      <trkpt lat="43.62965" lon="3.82977">
        <ele>78</ele>
        <time>2021-04-24T10:08:55Z</time>
      </trkpt>
      <trkpt lat="43.62968" lon="3.82977">
        <ele>78</ele>
        <time>2021-04-24T10:08:56Z</time>
      </trkpt>
      <trkpt lat="43.62971" lon="3.82975">
        <ele>78</ele>
        <time>2021-04-24T10:08:57Z</time>
      </trkpt>
      <trkpt lat="43.62975" lon="3.82974">
        <ele>78</ele>
        <time>2021-04-24T10:08:58Z</time>
      </trkpt>
      <trkpt lat="43.62978" lon="3.82973">
        <ele>78</ele>
        <time>2021-04-24T10:08:59Z</time>
      </trkpt>
      <trkpt lat="43.62981" lon="3.82971">
        <ele>78</ele>
        <time>2021-04-24T10:09:00Z</time>
      </trkpt>
      <trkpt lat="43.62984" lon="3.8297">
        <ele>78</ele>
        <time>2021-04-24T10:09:01Z</time>
      </trkpt>
      <trkpt lat="43.62987" lon="3.82968">
        <ele>78</ele>
        <time>2021-04-24T10:09:02Z</time>
      </trkpt>
      <trkpt lat="43.62991" lon="3.82967">
        <ele>78</ele>
        <time>2021-04-24T10:09:03Z</time>
      </trkpt>
      <trkpt lat="43.62994" lon="3.82965">
        <ele>78</ele>
        <time>2021-04-24T10:09:04Z</time>
      </trkpt>
      <trkpt lat="43.62997" lon="3.82963">
        <ele>78</ele>
        <time>2021-04-24T10:09:05Z</time>
      </trkpt>
      <trkpt lat="43.63" lon="3.82962">
        <ele>79</ele>
        <time>2021-04-24T10:09:06Z</time>
      </trkpt>
      <trkpt lat="43.63003" lon="3.8296">
        <ele>79</ele>
        <time>2021-04-24T10:09:07Z</time>
      </trkpt>
      <trkpt lat="43.63007" lon="3.82958">
        <ele>79</ele>
        <time>2021-04-24T10:09:08Z</time>
      </trkpt>
      <trkpt lat="43.6301" lon="3.82956">
        <ele>79</ele>
        <time>2021-04-24T10:09:09Z</time>
      </trkpt>
      <trkpt lat="43.63013" lon="3.82954">
        <ele>79</ele>
        <time>2021-04-24T10:09:10Z</time>
      </trkpt>
      <trkpt lat="43.63016" lon="3.82953">
        <ele>79</ele>
        <time>2021-04-24T10:09:11Z</time>
      </trkpt>
      <trkpt lat="43.63019" lon="3.82951">
        <ele>79</ele>
        <time>2021-04-24T10:09:12Z</time>
      </trkpt>
      <trkpt lat="43.63022" lon="3.8295">
        <ele>79</ele>
        <time>2021-04-24T10:09:13Z</time>
      </trkpt>
      <trkpt lat="43.63026" lon="3.8295">
        <ele>79</ele>
        <time>2021-04-24T10:09:14Z</time>
      </trkpt>
      <trkpt lat="43.63029" lon="3.82952">
        <ele>79</ele>
        <time>2021-04-24T10:09:15Z</time>
      </trkpt>
      <trkpt lat="43.63031" lon="3.82955">
        <ele>80</ele>
        <time>2021-04-24T10:09:16Z</time>
      </trkpt>
      <trkpt lat="43.63034" lon="3.82957">
        <ele>80</ele>
        <time>2021-04-24T10:09:17Z</time>
      </trkpt>
      <trkpt lat="43.63036" lon="3.8296">
        <ele>80</ele>
        <time>2021-04-24T10:09:18Z</time>
      </trkpt>
      <trkpt lat="43.63039" lon="3.82963">
        <ele>80</ele>
        <time>2021-04-24T10:09:19Z</time>
      </trkpt>
      <trkpt lat="43.63041" lon="3.82966">
        <ele>80</ele>
        <time>2021-04-24T10:09:20Z</time>
      </trkpt>
      <trkpt lat="43.63043" lon="3.82969">
        <ele>80</ele>
        <time>2021-04-24T10:09:21Z</time>
      </trkpt>
      <trkpt lat="43.63045" lon="3.82972">
        <ele>80</ele>
        <time>2021-04-24T10:09:22Z</time>
      </trkpt>
      <trkpt lat="43.63048" lon="3.82974">
        <ele>80</ele>
        <time>2021-04-24T10:09:23Z</time>
      </trkpt>
      <trkpt lat="43.6305" lon="3.82977">
        <ele>80</ele>
        <time>2021-04-24T10:09:24Z</time>
      </trkpt>
      <trkpt lat="43.63052" lon="3.8298">
        <ele>80</ele>
        <time>2021-04-24T10:09:25Z</time>
      </trkpt>
      <trkpt lat="43.63054" lon="3.82983">
        <ele>80</ele>
        <time>2021-04-24T10:09:26Z</time>
      </trkpt>
      <trkpt lat="43.63056" lon="3.82985">
        <ele>80</ele>
        <time>2021-04-24T10:09:27Z</time>
      </trkpt>
      <trkpt lat="43.63059" lon="3.82988">
        <ele>80</ele>
        <time>2021-04-24T10:09:28Z</time>
      </trkpt>
      <trkpt lat="43.63061" lon="3.82991">
        <ele>80</ele>
        <time>2021-04-24T10:09:29Z</time>
      </trkpt>
      <trkpt lat="43.63063" lon="3.82993">
        <ele>80</ele>
        <time>2021-04-24T10:09:30Z</time>
      </trkpt>
      <trkpt lat="43.63066" lon="3.82993">
        <ele>80</ele>
        <time>2021-04-24T10:09:31Z</time>
      </trkpt>
      <trkpt lat="43.63068" lon="3.82992">
        <ele>80</ele>
        <time>2021-04-24T10:09:32Z</time>
      </trkpt>
      <trkpt lat="43.63071" lon="3.82989">
        <ele>80</ele>
        <time>2021-04-24T10:09:33Z</time>
      </trkpt>
      <trkpt lat="43.63074" lon="3.82986">
        <ele>80</ele>
        <time>2021-04-24T10:09:34Z</time>
      </trkpt>
      <trkpt lat="43.63077" lon="3.82982">
        <ele>80</ele>
        <time>2021-04-24T10:09:35Z</time>
      </trkpt>
      <trkpt lat="43.63079" lon="3.82978">
        <ele>80</ele>
        <time>2021-04-24T10:09:36Z</time>
      </trkpt>
      <trkpt lat="43.63081" lon="3.82974">
        <ele>80</ele>
        <time>2021-04-24T10:09:37Z</time>
      </trkpt>
      <trkpt lat="43.63084" lon="3.82971">
        <ele>80</ele>
        <time>2021-04-24T10:09:38Z</time>
      </trkpt>
      <trkpt lat="43.63087" lon="3.8297">
        <ele>80</ele>
        <time>2021-04-24T10:09:39Z</time>
      </trkpt>
      <trkpt lat="43.63091" lon="3.8297">
        <ele>80</ele>
        <time>2021-04-24T10:09:40Z</time>
      </trkpt>
      <trkpt lat="43.63095" lon="3.8297">
        <ele>80</ele>
        <time>2021-04-24T10:09:41Z</time>
      </trkpt>
      <trkpt lat="43.63098" lon="3.82971">
        <ele>80</ele>
        <time>2021-04-24T10:09:42Z</time>
      </trkpt>
      <trkpt lat="43.63102" lon="3.82971">
        <ele>80</ele>
        <time>2021-04-24T10:09:43Z</time>
      </trkpt>
      <trkpt lat="43.63106" lon="3.82971">
        <ele>80</ele>
        <time>2021-04-24T10:09:44Z</time>
      </trkpt>
      <trkpt lat="43.63109" lon="3.82971">
        <ele>80</ele>
        <time>2021-04-24T10:09:45Z</time>
      </trkpt>
      <trkpt lat="43.63111" lon="3.82971">
        <ele>79</ele>
        <time>2021-04-24T10:09:46Z</time>
      </trkpt>
      <trkpt lat="43.63114" lon="3.82972">
        <ele>79</ele>
        <time>2021-04-24T10:09:48Z</time>
      </trkpt>
      <trkpt lat="43.63117" lon="3.82974">
        <ele>79</ele>
        <time>2021-04-24T10:09:50Z</time>
      </trkpt>
      <trkpt lat="43.63121" lon="3.82974">
        <ele>79</ele>
        <time>2021-04-24T10:09:52Z</time>
      </trkpt>
      <trkpt lat="43.63125" lon="3.82973">
        <ele>79</ele>
        <time>2021-04-24T10:09:53Z</time>
      </trkpt>
      <trkpt lat="43.63129" lon="3.82972">
        <ele>79</ele>
        <time>2021-04-24T10:09:54Z</time>
      </trkpt>
      <trkpt lat="43.63133" lon="3.82972">
        <ele>79</ele>
        <time>2021-04-24T10:09:55Z</time>
      </trkpt>
      <trkpt lat="43.63138" lon="3.82971">
        <ele>78</ele>
        <time>2021-04-24T10:09:56Z</time>
      </trkpt>
      <trkpt lat="43.63142" lon="3.82971">
        <ele>78</ele>
        <time>2021-04-24T10:09:57Z</time>
      </trkpt>
      <trkpt lat="43.63147" lon="3.82971">
        <ele>78</ele>
        <time>2021-04-24T10:09:58Z</time>
      </trkpt>
      <trkpt lat="43.63151" lon="3.82971">
        <ele>78</ele>
        <time>2021-04-24T10:09:59Z</time>
      </trkpt>
      <trkpt lat="43.63156" lon="3.82971">
        <ele>78</ele>
        <time>2021-04-24T10:10:00Z</time>
      </trkpt>
      <trkpt lat="43.63161" lon="3.82971">
        <ele>78</ele>
        <time>2021-04-24T10:10:01Z</time>
      </trkpt>
      <trkpt lat="43.63166" lon="3.82971">
        <ele>78</ele>
        <time>2021-04-24T10:10:02Z</time>
      </trkpt>
      <trkpt lat="43.63171" lon="3.82971">
        <ele>78</ele>
        <time>2021-04-24T10:10:03Z</time>
      </trkpt>
      <trkpt lat="43.63175" lon="3.82971">
        <ele>78</ele>
        <time>2021-04-24T10:10:04Z</time>
      </trkpt>
      <trkpt lat="43.6318" lon="3.82971">
        <ele>78</ele>
        <time>2021-04-24T10:10:05Z</time>
      </trkpt>
      <trkpt lat="43.63184" lon="3.82969">
        <ele>78</ele>
        <time>2021-04-24T10:10:06Z</time>
      </trkpt>
      <trkpt lat="43.63189" lon="3.82965">
        <ele>78</ele>
        <time>2021-04-24T10:10:07Z</time>
      </trkpt>
      <trkpt lat="43.63193" lon="3.82962">
        <ele>78</ele>
        <time>2021-04-24T10:10:08Z</time>
      </trkpt>
      <trkpt lat="43.63198" lon="3.82958">
        <ele>78</ele>
        <time>2021-04-24T10:10:09Z</time>
      </trkpt>
      <trkpt lat="43.63202" lon="3.82955">
        <ele>78</ele>
        <time>2021-04-24T10:10:10Z</time>
      </trkpt>
      <trkpt lat="43.63206" lon="3.82953">
        <ele>78</ele>
        <time>2021-04-24T10:10:11Z</time>
      </trkpt>
      <trkpt lat="43.63209" lon="3.82949">
        <ele>78</ele>
        <time>2021-04-24T10:10:12Z</time>
      </trkpt>
      <trkpt lat="43.63211" lon="3.82946">
        <ele>78</ele>
        <time>2021-04-24T10:10:13Z</time>
      </trkpt>
      <trkpt lat="43.63211" lon="3.82942">
        <ele>78</ele>
        <time>2021-04-24T10:10:14Z</time>
      </trkpt>
      <trkpt lat="43.63211" lon="3.82937">
        <ele>78</ele>
        <time>2021-04-24T10:10:15Z</time>
      </trkpt>
      <trkpt lat="43.63209" lon="3.82932">
        <ele>77</ele>
        <time>2021-04-24T10:10:16Z</time>
      </trkpt>
      <trkpt lat="43.63208" lon="3.82928">
        <ele>77</ele>
        <time>2021-04-24T10:10:17Z</time>
      </trkpt>
      <trkpt lat="43.63206" lon="3.82923">
        <ele>77</ele>
        <time>2021-04-24T10:10:18Z</time>
      </trkpt>
      <trkpt lat="43.63205" lon="3.82918">
        <ele>77</ele>
        <time>2021-04-24T10:10:19Z</time>
      </trkpt>
      <trkpt lat="43.63203" lon="3.82913">
        <ele>77</ele>
        <time>2021-04-24T10:10:20Z</time>
      </trkpt>
      <trkpt lat="43.63202" lon="3.82909">
        <ele>77</ele>
        <time>2021-04-24T10:10:21Z</time>
      </trkpt>
      <trkpt lat="43.632" lon="3.82905">
        <ele>77</ele>
        <time>2021-04-24T10:10:22Z</time>
      </trkpt>
      <trkpt lat="43.63199" lon="3.829">
        <ele>77</ele>
        <time>2021-04-24T10:10:23Z</time>
      </trkpt>
      <trkpt lat="43.63197" lon="3.82896">
        <ele>77</ele>
        <time>2021-04-24T10:10:24Z</time>
      </trkpt>
      <trkpt lat="43.63196" lon="3.82892">
        <ele>77</ele>
        <time>2021-04-24T10:10:25Z</time>
      </trkpt>
      <trkpt lat="43.63195" lon="3.82887">
        <ele>77</ele>
        <time>2021-04-24T10:10:26Z</time>
      </trkpt>
      <trkpt lat="43.63194" lon="3.82883">
        <ele>77</ele>
        <time>2021-04-24T10:10:27Z</time>
      </trkpt>
      <trkpt lat="43.63194" lon="3.82878">
        <ele>77</ele>
        <time>2021-04-24T10:10:28Z</time>
      </trkpt>
      <trkpt lat="43.63193" lon="3.82874">
        <ele>77</ele>
        <time>2021-04-24T10:10:29Z</time>
      </trkpt>
      <trkpt lat="43.63192" lon="3.82869">
        <ele>77</ele>
        <time>2021-04-24T10:10:30Z</time>
      </trkpt>
      <trkpt lat="43.63191" lon="3.82865">
        <ele>77</ele>
        <time>2021-04-24T10:10:31Z</time>
      </trkpt>
      <trkpt lat="43.6319" lon="3.82861">
        <ele>77</ele>
        <time>2021-04-24T10:10:32Z</time>
      </trkpt>
      <trkpt lat="43.63189" lon="3.82856">
        <ele>77</ele>
        <time>2021-04-24T10:10:33Z</time>
      </trkpt>
      <trkpt lat="43.63188" lon="3.82852">
        <ele>77</ele>
        <time>2021-04-24T10:10:34Z</time>
      </trkpt>
      <trkpt lat="43.63187" lon="3.82847">
        <ele>77</ele>
        <time>2021-04-24T10:10:35Z</time>
      </trkpt>
      <trkpt lat="43.63186" lon="3.82843">
        <ele>78</ele>
        <time>2021-04-24T10:10:36Z</time>
      </trkpt>
      <trkpt lat="43.63185" lon="3.82838">
        <ele>78</ele>
        <time>2021-04-24T10:10:37Z</time>
      </trkpt>
      <trkpt lat="43.63184" lon="3.82834">
        <ele>78</ele>
        <time>2021-04-24T10:10:38Z</time>
      </trkpt>
      <trkpt lat="43.63183" lon="3.82829">
        <ele>78</ele>
        <time>2021-04-24T10:10:39Z</time>
      </trkpt>
      <trkpt lat="43.63182" lon="3.82825">
        <ele>78</ele>
        <time>2021-04-24T10:10:40Z</time>
      </trkpt>
      <trkpt lat="43.63181" lon="3.82821">
        <ele>78</ele>
        <time>2021-04-24T10:10:41Z</time>
      </trkpt>
      <trkpt lat="43.6318" lon="3.82816">
        <ele>78</ele>
        <time>2021-04-24T10:10:42Z</time>
      </trkpt>
      <trkpt lat="43.63179" lon="3.82812">
        <ele>78</ele>
        <time>2021-04-24T10:10:43Z</time>
      </trkpt>
      <trkpt lat="43.63178" lon="3.82808">
        <ele>78</ele>
        <time>2021-04-24T10:10:44Z</time>
      </trkpt>
      <trkpt lat="43.63177" lon="3.82804">
        <ele>78</ele>
        <time>2021-04-24T10:10:45Z</time>
      </trkpt>
      <trkpt lat="43.63176" lon="3.828">
        <ele>79</ele>
        <time>2021-04-24T10:10:46Z</time>
      </trkpt>
      <trkpt lat="43.63175" lon="3.82795">
        <ele>79</ele>
        <time>2021-04-24T10:10:47Z</time>
      </trkpt>
      <trkpt lat="43.63175" lon="3.82791">
        <ele>79</ele>
        <time>2021-04-24T10:10:48Z</time>
      </trkpt>
      <trkpt lat="43.63176" lon="3.82787">
        <ele>79</ele>
        <time>2021-04-24T10:10:49Z</time>
      </trkpt>
      <trkpt lat="43.63177" lon="3.82784">
        <ele>79</ele>
        <time>2021-04-24T10:10:50Z</time>
      </trkpt>
      <trkpt lat="43.63179" lon="3.8278">
        <ele>79</ele>
        <time>2021-04-24T10:10:51Z</time>
      </trkpt>
      <trkpt lat="43.63181" lon="3.82777">
        <ele>79</ele>
        <time>2021-04-24T10:10:52Z</time>
      </trkpt>
      <trkpt lat="43.63183" lon="3.82774">
        <ele>79</ele>
        <time>2021-04-24T10:10:53Z</time>
      </trkpt>
      <trkpt lat="43.63185" lon="3.82771">
        <ele>79</ele>
        <time>2021-04-24T10:10:54Z</time>
      </trkpt>
      <trkpt lat="43.63187" lon="3.82767">
        <ele>79</ele>
        <time>2021-04-24T10:10:55Z</time>
      </trkpt>
      <trkpt lat="43.63189" lon="3.82764">
        <ele>81</ele>
        <time>2021-04-24T10:10:56Z</time>
      </trkpt>
      <trkpt lat="43.63192" lon="3.82757">
        <ele>81</ele>
        <time>2021-04-24T10:10:57Z</time>
      </trkpt>
      <trkpt lat="43.63193" lon="3.82753">
        <ele>81</ele>
        <time>2021-04-24T10:10:58Z</time>
      </trkpt>
      <trkpt lat="43.63196" lon="3.82747">
        <ele>81</ele>
        <time>2021-04-24T10:11:00Z</time>
      </trkpt>
      <trkpt lat="43.63197" lon="3.82744">
        <ele>81</ele>
        <time>2021-04-24T10:11:01Z</time>
      </trkpt>
      <trkpt lat="43.63199" lon="3.82741">
        <ele>81</ele>
        <time>2021-04-24T10:11:02Z</time>
      </trkpt>
      <trkpt lat="43.63202" lon="3.82734">
        <ele>81</ele>
        <time>2021-04-24T10:11:04Z</time>
      </trkpt>
      <trkpt lat="43.63204" lon="3.82731">
        <ele>82</ele>
        <time>2021-04-24T10:11:06Z</time>
      </trkpt>
      <trkpt lat="43.63206" lon="3.82727">
        <ele>82</ele>
        <time>2021-04-24T10:11:07Z</time>
      </trkpt>
      <trkpt lat="43.63207" lon="3.82724">
        <ele>82</ele>
        <time>2021-04-24T10:11:08Z</time>
      </trkpt>
      <trkpt lat="43.63209" lon="3.82721">
        <ele>82</ele>
        <time>2021-04-24T10:11:09Z</time>
      </trkpt>
      <trkpt lat="43.63212" lon="3.82718">
        <ele>82</ele>
        <time>2021-04-24T10:11:10Z</time>
      </trkpt>
      <trkpt lat="43.63214" lon="3.82715">
        <ele>82</ele>
        <time>2021-04-24T10:11:11Z</time>
      </trkpt>
      <trkpt lat="43.63217" lon="3.82712">
        <ele>82</ele>
        <time>2021-04-24T10:11:12Z</time>
      </trkpt>
      <trkpt lat="43.63219" lon="3.8271">
        <ele>82</ele>
        <time>2021-04-24T10:11:13Z</time>
      </trkpt>
      <trkpt lat="43.63221" lon="3.82706">
        <ele>82</ele>
        <time>2021-04-24T10:11:14Z</time>
      </trkpt>
      <trkpt lat="43.63223" lon="3.82702">
        <ele>82</ele>
        <time>2021-04-24T10:11:15Z</time>
      </trkpt>
      <trkpt lat="43.63225" lon="3.82698">
        <ele>82</ele>
        <time>2021-04-24T10:11:16Z</time>
      </trkpt>
      <trkpt lat="43.63227" lon="3.82694">
        <ele>82</ele>
        <time>2021-04-24T10:11:17Z</time>
      </trkpt>
      <trkpt lat="43.63229" lon="3.8269">
        <ele>82</ele>
        <time>2021-04-24T10:11:18Z</time>
      </trkpt>
      <trkpt lat="43.63231" lon="3.82685">
        <ele>82</ele>
        <time>2021-04-24T10:11:19Z</time>
      </trkpt>
      <trkpt lat="43.63234" lon="3.82681">
        <ele>82</ele>
        <time>2021-04-24T10:11:20Z</time>
      </trkpt>
      <trkpt lat="43.63236" lon="3.82677">
        <ele>82</ele>
        <time>2021-04-24T10:11:21Z</time>
      </trkpt>
      <trkpt lat="43.63239" lon="3.82672">
        <ele>82</ele>
        <time>2021-04-24T10:11:22Z</time>
      </trkpt>
      <trkpt lat="43.63242" lon="3.82668">
        <ele>82</ele>
        <time>2021-04-24T10:11:23Z</time>
      </trkpt>
      <trkpt lat="43.63245" lon="3.82664">
        <ele>82</ele>
        <time>2021-04-24T10:11:24Z</time>
      </trkpt>
      <trkpt lat="43.63248" lon="3.8266">
        <ele>82</ele>
        <time>2021-04-24T10:11:25Z</time>
      </trkpt>
      <trkpt lat="43.63252" lon="3.82656">
        <ele>83</ele>
        <time>2021-04-24T10:11:26Z</time>
      </trkpt>
      <trkpt lat="43.63255" lon="3.82652">
        <ele>83</ele>
        <time>2021-04-24T10:11:27Z</time>
      </trkpt>
      <trkpt lat="43.63259" lon="3.82648">
        <ele>83</ele>
        <time>2021-04-24T10:11:28Z</time>
      </trkpt>
      <trkpt lat="43.63262" lon="3.82644">
        <ele>83</ele>
        <time>2021-04-24T10:11:29Z</time>
      </trkpt>
      <trkpt lat="43.63265" lon="3.82641">
        <ele>83</ele>
        <time>2021-04-24T10:11:30Z</time>
      </trkpt>
      <trkpt lat="43.63268" lon="3.82637">
        <ele>83</ele>
        <time>2021-04-24T10:11:31Z</time>
      </trkpt>
      <trkpt lat="43.63271" lon="3.82633">
        <ele>83</ele>
        <time>2021-04-24T10:11:32Z</time>
      </trkpt>
      <trkpt lat="43.63274" lon="3.82629">
        <ele>83</ele>
        <time>2021-04-24T10:11:33Z</time>
      </trkpt>
      <trkpt lat="43.63278" lon="3.82625">
        <ele>83</ele>
        <time>2021-04-24T10:11:34Z</time>
      </trkpt>
      <trkpt lat="43.63282" lon="3.82621">
        <ele>83</ele>
        <time>2021-04-24T10:11:35Z</time>
      </trkpt>
      <trkpt lat="43.63286" lon="3.82617">
        <ele>83</ele>
        <time>2021-04-24T10:11:36Z</time>
      </trkpt>
      <trkpt lat="43.6329" lon="3.82614">
        <ele>83</ele>
        <time>2021-04-24T10:11:37Z</time>
      </trkpt>
      <trkpt lat="43.63295" lon="3.82611">
        <ele>83</ele>
        <time>2021-04-24T10:11:38Z</time>
      </trkpt>
      <trkpt lat="43.63299" lon="3.82608">
        <ele>83</ele>
        <time>2021-04-24T10:11:39Z</time>
      </trkpt>
      <trkpt lat="43.63303" lon="3.82605">
        <ele>83</ele>
        <time>2021-04-24T10:11:40Z</time>
      </trkpt>
      <trkpt lat="43.63307" lon="3.82601">
        <ele>83</ele>
        <time>2021-04-24T10:11:41Z</time>
      </trkpt>
      <trkpt lat="43.6331" lon="3.82598">
        <ele>83</ele>
        <time>2021-04-24T10:11:42Z</time>
      </trkpt>
      <trkpt lat="43.63314" lon="3.82594">
        <ele>83</ele>
        <time>2021-04-24T10:11:43Z</time>
      </trkpt>
      <trkpt lat="43.63318" lon="3.82591">
        <ele>83</ele>
        <time>2021-04-24T10:11:44Z</time>
      </trkpt>
      <trkpt lat="43.63322" lon="3.82587">
        <ele>83</ele>
        <time>2021-04-24T10:11:45Z</time>
      </trkpt>
      <trkpt lat="43.63327" lon="3.82584">
        <ele>82</ele>
        <time>2021-04-24T10:11:46Z</time>
      </trkpt>
      <trkpt lat="43.63331" lon="3.82581">
        <ele>82</ele>
        <time>2021-04-24T10:11:47Z</time>
      </trkpt>
      <trkpt lat="43.63336" lon="3.82577">
        <ele>82</ele>
        <time>2021-04-24T10:11:48Z</time>
      </trkpt>
      <trkpt lat="43.6334" lon="3.82574">
        <ele>82</ele>
        <time>2021-04-24T10:11:49Z</time>
      </trkpt>
      <trkpt lat="43.63345" lon="3.82571">
        <ele>82</ele>
        <time>2021-04-24T10:11:50Z</time>
      </trkpt>
      <trkpt lat="43.6335" lon="3.82569">
        <ele>82</ele>
        <time>2021-04-24T10:11:51Z</time>
      </trkpt>
      <trkpt lat="43.63355" lon="3.82566">
        <ele>82</ele>
        <time>2021-04-24T10:11:52Z</time>
      </trkpt>
      <trkpt lat="43.6336" lon="3.82562">
        <ele>82</ele>
        <time>2021-04-24T10:11:53Z</time>
      </trkpt>
      <trkpt lat="43.63364" lon="3.8256">
        <ele>82</ele>
        <time>2021-04-24T10:11:54Z</time>
      </trkpt>
      <trkpt lat="43.63369" lon="3.82558">
        <ele>82</ele>
        <time>2021-04-24T10:11:55Z</time>
      </trkpt>
      <trkpt lat="43.63374" lon="3.82557">
        <ele>83</ele>
        <time>2021-04-24T10:11:56Z</time>
      </trkpt>
      <trkpt lat="43.63378" lon="3.82556">
        <ele>83</ele>
        <time>2021-04-24T10:11:57Z</time>
      </trkpt>
      <trkpt lat="43.63383" lon="3.82555">
        <ele>83</ele>
        <time>2021-04-24T10:11:58Z</time>
      </trkpt>
      <trkpt lat="43.63387" lon="3.82555">
        <ele>83</ele>
        <time>2021-04-24T10:11:59Z</time>
      </trkpt>
      <trkpt lat="43.63392" lon="3.82554">
        <ele>83</ele>
        <time>2021-04-24T10:12:00Z</time>
      </trkpt>
      <trkpt lat="43.63396" lon="3.82554">
        <ele>83</ele>
        <time>2021-04-24T10:12:01Z</time>
      </trkpt>
      <trkpt lat="43.63399" lon="3.82553">
        <ele>83</ele>
        <time>2021-04-24T10:12:02Z</time>
      </trkpt>
      <trkpt lat="43.63403" lon="3.82552">
        <ele>83</ele>
        <time>2021-04-24T10:12:03Z</time>
      </trkpt>
      <trkpt lat="43.63407" lon="3.82552">
        <ele>83</ele>
        <time>2021-04-24T10:12:04Z</time>
      </trkpt>
      <trkpt lat="43.6341" lon="3.82551">
        <ele>83</ele>
        <time>2021-04-24T10:12:05Z</time>
      </trkpt>
      <trkpt lat="43.63414" lon="3.82551">
        <ele>82</ele>
        <time>2021-04-24T10:12:06Z</time>
      </trkpt>
      <trkpt lat="43.63418" lon="3.8255">
        <ele>82</ele>
        <time>2021-04-24T10:12:07Z</time>
      </trkpt>
      <trkpt lat="43.63421" lon="3.8255">
        <ele>82</ele>
        <time>2021-04-24T10:12:08Z</time>
      </trkpt>
      <trkpt lat="43.63425" lon="3.8255">
        <ele>82</ele>
        <time>2021-04-24T10:12:09Z</time>
      </trkpt>
      <trkpt lat="43.63428" lon="3.82549">
        <ele>82</ele>
        <time>2021-04-24T10:12:10Z</time>
      </trkpt>
      <trkpt lat="43.63431" lon="3.82549">
        <ele>82</ele>
        <time>2021-04-24T10:12:11Z</time>
      </trkpt>
      <trkpt lat="43.63434" lon="3.82549">
        <ele>82</ele>
        <time>2021-04-24T10:12:12Z</time>
      </trkpt>
      <trkpt lat="43.63437" lon="3.82548">
        <ele>82</ele>
        <time>2021-04-24T10:12:13Z</time>
      </trkpt>
      <trkpt lat="43.6344" lon="3.82548">
        <ele>82</ele>
        <time>2021-04-24T10:12:14Z</time>
      </trkpt>
      <trkpt lat="43.63442" lon="3.82548">
        <ele>82</ele>
        <time>2021-04-24T10:12:15Z</time>
      </trkpt>
      <trkpt lat="43.63445" lon="3.82547">
        <ele>83</ele>
        <time>2021-04-24T10:12:16Z</time>
      </trkpt>
      <trkpt lat="43.63448" lon="3.82547">
        <ele>83</ele>
        <time>2021-04-24T10:12:17Z</time>
      </trkpt>
      <trkpt lat="43.63451" lon="3.82547">
        <ele>83</ele>
        <time>2021-04-24T10:12:18Z</time>
      </trkpt>
      <trkpt lat="43.63453" lon="3.82546">
        <ele>83</ele>
        <time>2021-04-24T10:12:19Z</time>
      </trkpt>
      <trkpt lat="43.63456" lon="3.82546">
        <ele>83</ele>
        <time>2021-04-24T10:12:20Z</time>
      </trkpt>
      <trkpt lat="43.63459" lon="3.82546">
        <ele>83</ele>
        <time>2021-04-24T10:12:21Z</time>
      </trkpt>
      <trkpt lat="43.63462" lon="3.82546">
        <ele>83</ele>
        <time>2021-04-24T10:12:22Z</time>
      </trkpt>
      <trkpt lat="43.63464" lon="3.82545">
        <ele>83</ele>
        <time>2021-04-24T10:12:23Z</time>
      </trkpt>
      <trkpt lat="43.63467" lon="3.82545">
        <ele>83</ele>
        <time>2021-04-24T10:12:24Z</time>
      </trkpt>
      <trkpt lat="43.6347" lon="3.82545">
        <ele>83</ele>
        <time>2021-04-24T10:12:25Z</time>
      </trkpt>
      <trkpt lat="43.63473" lon="3.82545">
        <ele>85</ele>
        <time>2021-04-24T10:12:26Z</time>
      </trkpt>
      <trkpt lat="43.63476" lon="3.82544">
        <ele>85</ele>
        <time>2021-04-24T10:12:27Z</time>
      </trkpt>
      <trkpt lat="43.63478" lon="3.82544">
        <ele>85</ele>
        <time>2021-04-24T10:12:28Z</time>
      </trkpt>
      <trkpt lat="43.63481" lon="3.82543">
        <ele>85</ele>
        <time>2021-04-24T10:12:29Z</time>
      </trkpt>
      <trkpt lat="43.63484" lon="3.82543">
        <ele>85</ele>
        <time>2021-04-24T10:12:30Z</time>
      </trkpt>
      <trkpt lat="43.63487" lon="3.82542">
        <ele>85</ele>
        <time>2021-04-24T10:12:31Z</time>
      </trkpt>
      <trkpt lat="43.6349" lon="3.82543">
        <ele>85</ele>
        <time>2021-04-24T10:12:32Z</time>
      </trkpt>
      <trkpt lat="43.63493" lon="3.82543">
        <ele>85</ele>
        <time>2021-04-24T10:12:33Z</time>
      </trkpt>
      <trkpt lat="43.63496" lon="3.82543">
        <ele>85</ele>
        <time>2021-04-24T10:12:34Z</time>
      </trkpt>
      <trkpt lat="43.63499" lon="3.82542">
        <ele>85</ele>
        <time>2021-04-24T10:12:35Z</time>
      </trkpt>
      <trkpt lat="43.63501" lon="3.82542">
        <ele>86</ele>
        <time>2021-04-24T10:12:36Z</time>
      </trkpt>
      <trkpt lat="43.63504" lon="3.82542">
        <ele>86</ele>
        <time>2021-04-24T10:12:37Z</time>
      </trkpt>
      <trkpt lat="43.63507" lon="3.82541">
        <ele>86</ele>
        <time>2021-04-24T10:12:38Z</time>
      </trkpt>
      <trkpt lat="43.6351" lon="3.82541">
        <ele>86</ele>
        <time>2021-04-24T10:12:39Z</time>
      </trkpt>
      <trkpt lat="43.63512" lon="3.8254">
        <ele>86</ele>
        <time>2021-04-24T10:12:40Z</time>
      </trkpt>
      <trkpt lat="43.63515" lon="3.82539">
        <ele>86</ele>
        <time>2021-04-24T10:12:41Z</time>
      </trkpt>
      <trkpt lat="43.63518" lon="3.82539">
        <ele>86</ele>
        <time>2021-04-24T10:12:42Z</time>
      </trkpt>
      <trkpt lat="43.63521" lon="3.82539">
        <ele>86</ele>
        <time>2021-04-24T10:12:43Z</time>
      </trkpt>
      <trkpt lat="43.63524" lon="3.82538">
        <ele>86</ele>
        <time>2021-04-24T10:12:44Z</time>
      </trkpt>
      <trkpt lat="43.63526" lon="3.82537">
        <ele>86</ele>
        <time>2021-04-24T10:12:45Z</time>
      </trkpt>
      <trkpt lat="43.63529" lon="3.82537">
        <ele>88</ele>
        <time>2021-04-24T10:12:46Z</time>
      </trkpt>
      <trkpt lat="43.63532" lon="3.82536">
        <ele>88</ele>
        <time>2021-04-24T10:12:47Z</time>
      </trkpt>
      <trkpt lat="43.63534" lon="3.82536">
        <ele>88</ele>
        <time>2021-04-24T10:12:48Z</time>
      </trkpt>
      <trkpt lat="43.63537" lon="3.82535">
        <ele>88</ele>
        <time>2021-04-24T10:12:49Z</time>
      </trkpt>
      <trkpt lat="43.6354" lon="3.82535">
        <ele>88</ele>
        <time>2021-04-24T10:12:50Z</time>
      </trkpt>
      <trkpt lat="43.63543" lon="3.82535">
        <ele>88</ele>
        <time>2021-04-24T10:12:51Z</time>
      </trkpt>
      <trkpt lat="43.63546" lon="3.82534">
        <ele>88</ele>
        <time>2021-04-24T10:12:52Z</time>
      </trkpt>
      <trkpt lat="43.63549" lon="3.82533">
        <ele>88</ele>
        <time>2021-04-24T10:12:53Z</time>
      </trkpt>
      <trkpt lat="43.63552" lon="3.82532">
        <ele>88</ele>
        <time>2021-04-24T10:12:54Z</time>
      </trkpt>
      <trkpt lat="43.63555" lon="3.8253">
        <ele>88</ele>
        <time>2021-04-24T10:12:55Z</time>
      </trkpt>
      <trkpt lat="43.63557" lon="3.82527">
        <ele>89</ele>
        <time>2021-04-24T10:12:56Z</time>
      </trkpt>
      <trkpt lat="43.6356" lon="3.82525">
        <ele>89</ele>
        <time>2021-04-24T10:12:57Z</time>
      </trkpt>
      <trkpt lat="43.63562" lon="3.82523">
        <ele>89</ele>
        <time>2021-04-24T10:12:58Z</time>
      </trkpt>
      <trkpt lat="43.63564" lon="3.8252">
        <ele>89</ele>
        <time>2021-04-24T10:12:59Z</time>
      </trkpt>
      <trkpt lat="43.63566" lon="3.82518">
        <ele>89</ele>
        <time>2021-04-24T10:13:00Z</time>
      </trkpt>
      <trkpt lat="43.63568" lon="3.82516">
        <ele>89</ele>
        <time>2021-04-24T10:13:01Z</time>
      </trkpt>
      <trkpt lat="43.6357" lon="3.82515">
        <ele>89</ele>
        <time>2021-04-24T10:13:02Z</time>
      </trkpt>
      <trkpt lat="43.63573" lon="3.82518">
        <ele>89</ele>
        <time>2021-04-24T10:13:04Z</time>
      </trkpt>
      <trkpt lat="43.63575" lon="3.82521">
        <ele>89</ele>
        <time>2021-04-24T10:13:05Z</time>
      </trkpt>
      <trkpt lat="43.63575" lon="3.82525">
        <ele>90</ele>
        <time>2021-04-24T10:13:06Z</time>
      </trkpt>
      <trkpt lat="43.63576" lon="3.82529">
        <ele>90</ele>
        <time>2021-04-24T10:13:07Z</time>
      </trkpt>
      <trkpt lat="43.63576" lon="3.82533">
        <ele>90</ele>
        <time>2021-04-24T10:13:08Z</time>
      </trkpt>
      <trkpt lat="43.63577" lon="3.82537">
        <ele>90</ele>
        <time>2021-04-24T10:13:09Z</time>
      </trkpt>
      <trkpt lat="43.63578" lon="3.82542">
        <ele>90</ele>
        <time>2021-04-24T10:13:10Z</time>
      </trkpt>
      <trkpt lat="43.63579" lon="3.82546">
        <ele>90</ele>
        <time>2021-04-24T10:13:11Z</time>
      </trkpt>
      <trkpt lat="43.6358" lon="3.8255">
        <ele>90</ele>
        <time>2021-04-24T10:13:12Z</time>
      </trkpt>
      <trkpt lat="43.6358" lon="3.82555">
        <ele>90</ele>
        <time>2021-04-24T10:13:13Z</time>
      </trkpt>
      <trkpt lat="43.63581" lon="3.82559">
        <ele>90</ele>
        <time>2021-04-24T10:13:14Z</time>
      </trkpt>
      <trkpt lat="43.63581" lon="3.82563">
        <ele>90</ele>
        <time>2021-04-24T10:13:15Z</time>
      </trkpt>
      <trkpt lat="43.63582" lon="3.82566">
        <ele>90</ele>
        <time>2021-04-24T10:13:16Z</time>
      </trkpt>
      <trkpt lat="43.63582" lon="3.8257">
        <ele>90</ele>
        <time>2021-04-24T10:13:17Z</time>
      </trkpt>
      <trkpt lat="43.63583" lon="3.82573">
        <ele>90</ele>
        <time>2021-04-24T10:13:18Z</time>
      </trkpt>
      <trkpt lat="43.63584" lon="3.82577">
        <ele>90</ele>
        <time>2021-04-24T10:13:19Z</time>
      </trkpt>
      <trkpt lat="43.63585" lon="3.82581">
        <ele>90</ele>
        <time>2021-04-24T10:13:20Z</time>
      </trkpt>
      <trkpt lat="43.63586" lon="3.82585">
        <ele>90</ele>
        <time>2021-04-24T10:13:21Z</time>
      </trkpt>
      <trkpt lat="43.63586" lon="3.82589">
        <ele>90</ele>
        <time>2021-04-24T10:13:22Z</time>
      </trkpt>
      <trkpt lat="43.63587" lon="3.82593">
        <ele>90</ele>
        <time>2021-04-24T10:13:23Z</time>
      </trkpt>
      <trkpt lat="43.63588" lon="3.82597">
        <ele>90</ele>
        <time>2021-04-24T10:13:24Z</time>
      </trkpt>
      <trkpt lat="43.63588" lon="3.826">
        <ele>90</ele>
        <time>2021-04-24T10:13:25Z</time>
      </trkpt>
      <trkpt lat="43.63589" lon="3.82604">
        <ele>88</ele>
        <time>2021-04-24T10:13:26Z</time>
      </trkpt>
      <trkpt lat="43.6359" lon="3.82608">
        <ele>88</ele>
        <time>2021-04-24T10:13:27Z</time>
      </trkpt>
      <trkpt lat="43.6359" lon="3.82612">
        <ele>88</ele>
        <time>2021-04-24T10:13:28Z</time>
      </trkpt>
      <trkpt lat="43.63592" lon="3.82615">
        <ele>88</ele>
        <time>2021-04-24T10:13:29Z</time>
      </trkpt>
      <trkpt lat="43.63594" lon="3.82617">
        <ele>88</ele>
        <time>2021-04-24T10:13:30Z</time>
      </trkpt>
      <trkpt lat="43.63597" lon="3.82617">
        <ele>88</ele>
        <time>2021-04-24T10:13:31Z</time>
      </trkpt>
      <trkpt lat="43.636" lon="3.82617">
        <ele>88</ele>
        <time>2021-04-24T10:13:32Z</time>
      </trkpt>
      <trkpt lat="43.63604" lon="3.8262">
        <ele>88</ele>
        <time>2021-04-24T10:13:33Z</time>
      </trkpt>
      <trkpt lat="43.63606" lon="3.82625">
        <ele>88</ele>
        <time>2021-04-24T10:13:34Z</time>
      </trkpt>
      <trkpt lat="43.63609" lon="3.8263">
        <ele>88</ele>
        <time>2021-04-24T10:13:35Z</time>
      </trkpt>
      <trkpt lat="43.63611" lon="3.82635">
        <ele>88</ele>
        <time>2021-04-24T10:13:36Z</time>
      </trkpt>
      <trkpt lat="43.63613" lon="3.82642">
        <ele>88</ele>
        <time>2021-04-24T10:13:37Z</time>
      </trkpt>
      <trkpt lat="43.63615" lon="3.82648">
        <ele>88</ele>
        <time>2021-04-24T10:13:38Z</time>
      </trkpt>
      <trkpt lat="43.63617" lon="3.82654">
        <ele>88</ele>
        <time>2021-04-24T10:13:39Z</time>
      </trkpt>
      <trkpt lat="43.6362" lon="3.82661">
        <ele>88</ele>
        <time>2021-04-24T10:13:40Z</time>
      </trkpt>
      <trkpt lat="43.63623" lon="3.82669">
        <ele>88</ele>
        <time>2021-04-24T10:13:41Z</time>
      </trkpt>
      <trkpt lat="43.63626" lon="3.82675">
        <ele>88</ele>
        <time>2021-04-24T10:13:42Z</time>
      </trkpt>
      <trkpt lat="43.6363" lon="3.82679">
        <ele>88</ele>
        <time>2021-04-24T10:13:43Z</time>
      </trkpt>
      <trkpt lat="43.63633" lon="3.82685">
        <ele>88</ele>
        <time>2021-04-24T10:13:44Z</time>
      </trkpt>
      <trkpt lat="43.63635" lon="3.82692">
        <ele>88</ele>
        <time>2021-04-24T10:13:45Z</time>
      </trkpt>
      <trkpt lat="43.63635" lon="3.827">
        <ele>86</ele>
        <time>2021-04-24T10:13:46Z</time>
      </trkpt>
      <trkpt lat="43.63634" lon="3.8271">
        <ele>86</ele>
        <time>2021-04-24T10:13:47Z</time>
      </trkpt>
      <trkpt lat="43.63633" lon="3.8272">
        <ele>86</ele>
        <time>2021-04-24T10:13:48Z</time>
      </trkpt>
      <trkpt lat="43.63633" lon="3.82729">
        <ele>86</ele>
        <time>2021-04-24T10:13:49Z</time>
      </trkpt>
      <trkpt lat="43.63633" lon="3.8274">
        <ele>86</ele>
        <time>2021-04-24T10:13:50Z</time>
      </trkpt>
      <trkpt lat="43.63632" lon="3.82749">
        <ele>86</ele>
        <time>2021-04-24T10:13:51Z</time>
      </trkpt>
      <trkpt lat="43.63632" lon="3.82756">
        <ele>86</ele>
        <time>2021-04-24T10:13:52Z</time>
      </trkpt>
      <trkpt lat="43.63633" lon="3.82762">
        <ele>86</ele>
        <time>2021-04-24T10:13:53Z</time>
      </trkpt>
      <trkpt lat="43.63635" lon="3.82766">
        <ele>86</ele>
        <time>2021-04-24T10:13:54Z</time>
      </trkpt>
      <trkpt lat="43.63637" lon="3.8277">
        <ele>86</ele>
        <time>2021-04-24T10:13:55Z</time>
      </trkpt>
      <trkpt lat="43.63641" lon="3.82773">
        <ele>83</ele>
        <time>2021-04-24T10:13:56Z</time>
      </trkpt>
      <trkpt lat="43.63645" lon="3.82776">
        <ele>83</ele>
        <time>2021-04-24T10:13:57Z</time>
      </trkpt>
      <trkpt lat="43.63649" lon="3.82779">
        <ele>83</ele>
        <time>2021-04-24T10:13:58Z</time>
      </trkpt>
      <trkpt lat="43.63655" lon="3.8278">
        <ele>83</ele>
        <time>2021-04-24T10:13:59Z</time>
      </trkpt>
      <trkpt lat="43.6366" lon="3.8278">
        <ele>83</ele>
        <time>2021-04-24T10:14:00Z</time>
      </trkpt>
      <trkpt lat="43.63666" lon="3.82779">
        <ele>83</ele>
        <time>2021-04-24T10:14:01Z</time>
      </trkpt>
      <trkpt lat="43.63672" lon="3.82777">
        <ele>83</ele>
        <time>2021-04-24T10:14:02Z</time>
      </trkpt>
      <trkpt lat="43.63677" lon="3.82776">
        <ele>83</ele>
        <time>2021-04-24T10:14:03Z</time>
      </trkpt>
      <trkpt lat="43.63683" lon="3.82775">
        <ele>83</ele>
        <time>2021-04-24T10:14:04Z</time>
      </trkpt>
      <trkpt lat="43.63689" lon="3.82773">
        <ele>83</ele>
        <time>2021-04-24T10:14:05Z</time>
      </trkpt>
      <trkpt lat="43.637" lon="3.8277">
        <ele>81</ele>
        <time>2021-04-24T10:14:06Z</time>
      </trkpt>
      <trkpt lat="43.63705" lon="3.82769">
        <ele>81</ele>
        <time>2021-04-24T10:14:07Z</time>
      </trkpt>
      <trkpt lat="43.63711" lon="3.82767">
        <ele>81</ele>
        <time>2021-04-24T10:14:08Z</time>
      </trkpt>
      <trkpt lat="43.63722" lon="3.82765">
        <ele>81</ele>
        <time>2021-04-24T10:14:10Z</time>
      </trkpt>
      <trkpt lat="43.63727" lon="3.82763">
        <ele>81</ele>
        <time>2021-04-24T10:14:11Z</time>
      </trkpt>
      <trkpt lat="43.63732" lon="3.82762">
        <ele>81</ele>
        <time>2021-04-24T10:14:12Z</time>
      </trkpt>
      <trkpt lat="43.63742" lon="3.82761">
        <ele>81</ele>
        <time>2021-04-24T10:14:14Z</time>
      </trkpt>
      <trkpt lat="43.63747" lon="3.82759">
        <ele>81</ele>
        <time>2021-04-24T10:14:16Z</time>
      </trkpt>
      <trkpt lat="43.63751" lon="3.82758">
        <ele>81</ele>
        <time>2021-04-24T10:14:17Z</time>
      </trkpt>
      <trkpt lat="43.63756" lon="3.82756">
        <ele>81</ele>
        <time>2021-04-24T10:14:18Z</time>
      </trkpt>
      <trkpt lat="43.6376" lon="3.82755">
        <ele>81</ele>
        <time>2021-04-24T10:14:19Z</time>
      </trkpt>
      <trkpt lat="43.63765" lon="3.82753">
        <ele>81</ele>
        <time>2021-04-24T10:14:20Z</time>
      </trkpt>
      <trkpt lat="43.63769" lon="3.82752">
        <ele>81</ele>
        <time>2021-04-24T10:14:21Z</time>
      </trkpt>
      <trkpt lat="43.63774" lon="3.82751">
        <ele>81</ele>
        <time>2021-04-24T10:14:22Z</time>
      </trkpt>
      <trkpt lat="43.63778" lon="3.8275">
        <ele>81</ele>
        <time>2021-04-24T10:14:23Z</time>
      </trkpt>
      <trkpt lat="43.63782" lon="3.82748">
        <ele>81</ele>
        <time>2021-04-24T10:14:24Z</time>
      </trkpt>
      <trkpt lat="43.63786" lon="3.82747">
        <ele>81</ele>
        <time>2021-04-24T10:14:25Z</time>
      </trkpt>
      <trkpt lat="43.6379" lon="3.82745">
        <ele>81</ele>
        <time>2021-04-24T10:14:26Z</time>
      </trkpt>
      <trkpt lat="43.63793" lon="3.82743">
        <ele>81</ele>
        <time>2021-04-24T10:14:27Z</time>
      </trkpt>
      <trkpt lat="43.63797" lon="3.82742">
        <ele>81</ele>
        <time>2021-04-24T10:14:28Z</time>
      </trkpt>
      <trkpt lat="43.63801" lon="3.8274">
        <ele>81</ele>
        <time>2021-04-24T10:14:29Z</time>
      </trkpt>
      <trkpt lat="43.63805" lon="3.82737">
        <ele>81</ele>
        <time>2021-04-24T10:14:30Z</time>
      </trkpt>
      <trkpt lat="43.63809" lon="3.82735">
        <ele>81</ele>
        <time>2021-04-24T10:14:31Z</time>
      </trkpt>
      <trkpt lat="43.63814" lon="3.82733">
        <ele>81</ele>
        <time>2021-04-24T10:14:32Z</time>
      </trkpt>
      <trkpt lat="43.63818" lon="3.8273">
        <ele>81</ele>
        <time>2021-04-24T10:14:33Z</time>
      </trkpt>
      <trkpt lat="43.63822" lon="3.82729">
        <ele>81</ele>
        <time>2021-04-24T10:14:34Z</time>
      </trkpt>
      <trkpt lat="43.63826" lon="3.82727">
        <ele>81</ele>
        <time>2021-04-24T10:14:35Z</time>
      </trkpt>
      <trkpt lat="43.6383" lon="3.82726">
        <ele>81</ele>
        <time>2021-04-24T10:14:36Z</time>
      </trkpt>
      <trkpt lat="43.63834" lon="3.82725">
        <ele>81</ele>
        <time>2021-04-24T10:14:37Z</time>
      </trkpt>
      <trkpt lat="43.63838" lon="3.82723">
        <ele>81</ele>
        <time>2021-04-24T10:14:38Z</time>
      </trkpt>
      <trkpt lat="43.63841" lon="3.82722">
        <ele>81</ele>
        <time>2021-04-24T10:14:39Z</time>
      </trkpt>
      <trkpt lat="43.63844" lon="3.82721">
        <ele>81</ele>
        <time>2021-04-24T10:14:40Z</time>
      </trkpt>
      <trkpt lat="43.63847" lon="3.82721">
        <ele>81</ele>
        <time>2021-04-24T10:14:41Z</time>
      </trkpt>
      <trkpt lat="43.6385" lon="3.8272">
        <ele>81</ele>
        <time>2021-04-24T10:14:42Z</time>
      </trkpt>
      <trkpt lat="43.63853" lon="3.82719">
        <ele>81</ele>
        <time>2021-04-24T10:14:43Z</time>
      </trkpt>
      <trkpt lat="43.63856" lon="3.82718">
        <ele>81</ele>
        <time>2021-04-24T10:14:44Z</time>
      </trkpt>
      <trkpt lat="43.63859" lon="3.82717">
        <ele>81</ele>
        <time>2021-04-24T10:14:45Z</time>
      </trkpt>
      <trkpt lat="43.63862" lon="3.82717">
        <ele>82</ele>
        <time>2021-04-24T10:14:46Z</time>
      </trkpt>
      <trkpt lat="43.63864" lon="3.82716">
        <ele>82</ele>
        <time>2021-04-24T10:14:47Z</time>
      </trkpt>
      <trkpt lat="43.63867" lon="3.82716">
        <ele>82</ele>
        <time>2021-04-24T10:14:48Z</time>
      </trkpt>
      <trkpt lat="43.6387" lon="3.82717">
        <ele>82</ele>
        <time>2021-04-24T10:14:49Z</time>
      </trkpt>
      <trkpt lat="43.63872" lon="3.8272">
        <ele>82</ele>
        <time>2021-04-24T10:14:50Z</time>
      </trkpt>
      <trkpt lat="43.63874" lon="3.82723">
        <ele>82</ele>
        <time>2021-04-24T10:14:51Z</time>
      </trkpt>
      <trkpt lat="43.63875" lon="3.82727">
        <ele>82</ele>
        <time>2021-04-24T10:14:52Z</time>
      </trkpt>
      <trkpt lat="43.63876" lon="3.82731">
        <ele>82</ele>
        <time>2021-04-24T10:14:53Z</time>
      </trkpt>
      <trkpt lat="43.63878" lon="3.82735">
        <ele>82</ele>
        <time>2021-04-24T10:14:54Z</time>
      </trkpt>
      <trkpt lat="43.63879" lon="3.82739">
        <ele>82</ele>
        <time>2021-04-24T10:14:55Z</time>
      </trkpt>
      <trkpt lat="43.63881" lon="3.82743">
        <ele>82</ele>
        <time>2021-04-24T10:14:56Z</time>
      </trkpt>
      <trkpt lat="43.63883" lon="3.82748">
        <ele>82</ele>
        <time>2021-04-24T10:14:57Z</time>
      </trkpt>
      <trkpt lat="43.63884" lon="3.82752">
        <ele>82</ele>
        <time>2021-04-24T10:14:58Z</time>
      </trkpt>
      <trkpt lat="43.63886" lon="3.82757">
        <ele>82</ele>
        <time>2021-04-24T10:14:59Z</time>
      </trkpt>
      <trkpt lat="43.63888" lon="3.82763">
        <ele>82</ele>
        <time>2021-04-24T10:15:00Z</time>
      </trkpt>
      <trkpt lat="43.6389" lon="3.82769">
        <ele>82</ele>
        <time>2021-04-24T10:15:01Z</time>
      </trkpt>
      <trkpt lat="43.63892" lon="3.82775">
        <ele>82</ele>
        <time>2021-04-24T10:15:02Z</time>
      </trkpt>
      <trkpt lat="43.63894" lon="3.82781">
        <ele>82</ele>
        <time>2021-04-24T10:15:03Z</time>
      </trkpt>
      <trkpt lat="43.63896" lon="3.82787">
        <ele>82</ele>
        <time>2021-04-24T10:15:04Z</time>
      </trkpt>
      <trkpt lat="43.63898" lon="3.82793">
        <ele>82</ele>
        <time>2021-04-24T10:15:05Z</time>
      </trkpt>
      <trkpt lat="43.639" lon="3.82798">
        <ele>81</ele>
        <time>2021-04-24T10:15:06Z</time>
      </trkpt>
      <trkpt lat="43.63902" lon="3.82802">
        <ele>81</ele>
        <time>2021-04-24T10:15:07Z</time>
      </trkpt>
      <trkpt lat="43.63904" lon="3.82805">
        <ele>81</ele>
        <time>2021-04-24T10:15:08Z</time>
      </trkpt>
      <trkpt lat="43.63907" lon="3.82806">
        <ele>81</ele>
        <time>2021-04-24T10:15:09Z</time>
      </trkpt>
      <trkpt lat="43.63909" lon="3.82805">
        <ele>81</ele>
        <time>2021-04-24T10:15:10Z</time>
      </trkpt>
      <trkpt lat="43.63912" lon="3.82805">
        <ele>81</ele>
        <time>2021-04-24T10:15:11Z</time>
      </trkpt>
      <trkpt lat="43.63915" lon="3.82805">
        <ele>81</ele>
        <time>2021-04-24T10:15:12Z</time>
      </trkpt>
      <trkpt lat="43.63918" lon="3.82807">
        <ele>81</ele>
        <time>2021-04-24T10:15:13Z</time>
      </trkpt>
      <trkpt lat="43.6392" lon="3.8281">
        <ele>81</ele>
        <time>2021-04-24T10:15:14Z</time>
      </trkpt>
      <trkpt lat="43.63923" lon="3.82812">
        <ele>81</ele>
        <time>2021-04-24T10:15:15Z</time>
      </trkpt>
      <trkpt lat="43.63926" lon="3.82813">
        <ele>80</ele>
        <time>2021-04-24T10:15:16Z</time>
      </trkpt>
      <trkpt lat="43.63929" lon="3.82813">
        <ele>80</ele>
        <time>2021-04-24T10:15:17Z</time>
      </trkpt>
      <trkpt lat="43.63931" lon="3.82813">
        <ele>80</ele>
        <time>2021-04-24T10:15:18Z</time>
      </trkpt>
      <trkpt lat="43.63934" lon="3.82813">
        <ele>80</ele>
        <time>2021-04-24T10:15:19Z</time>
      </trkpt>
      <trkpt lat="43.63937" lon="3.82814">
        <ele>80</ele>
        <time>2021-04-24T10:15:20Z</time>
      </trkpt>
      <trkpt lat="43.6394" lon="3.82816">
        <ele>80</ele>
        <time>2021-04-24T10:15:21Z</time>
      </trkpt>
      <trkpt lat="43.63944" lon="3.82817">
        <ele>80</ele>
        <time>2021-04-24T10:15:22Z</time>
      </trkpt>
      <trkpt lat="43.63948" lon="3.82817">
        <ele>80</ele>
        <time>2021-04-24T10:15:23Z</time>
      </trkpt>
      <trkpt lat="43.63952" lon="3.82815">
        <ele>80</ele>
        <time>2021-04-24T10:15:24Z</time>
      </trkpt>
      <trkpt lat="43.63955" lon="3.82813">
        <ele>80</ele>
        <time>2021-04-24T10:15:25Z</time>
      </trkpt>
      <trkpt lat="43.63959" lon="3.82811">
        <ele>80</ele>
        <time>2021-04-24T10:15:26Z</time>
      </trkpt>
      <trkpt lat="43.63962" lon="3.82808">
        <ele>80</ele>
        <time>2021-04-24T10:15:27Z</time>
      </trkpt>
      <trkpt lat="43.63966" lon="3.82805">
        <ele>80</ele>
        <time>2021-04-24T10:15:28Z</time>
      </trkpt>
      <trkpt lat="43.63969" lon="3.82803">
        <ele>80</ele>
        <time>2021-04-24T10:15:29Z</time>
      </trkpt>
      <trkpt lat="43.63972" lon="3.828">
        <ele>80</ele>
        <time>2021-04-24T10:15:30Z</time>
      </trkpt>
      <trkpt lat="43.63976" lon="3.82799">
        <ele>80</ele>
        <time>2021-04-24T10:15:31Z</time>
      </trkpt>
      <trkpt lat="43.6398" lon="3.82798">
        <ele>80</ele>
        <time>2021-04-24T10:15:32Z</time>
      </trkpt>
      <trkpt lat="43.63983" lon="3.82796">
        <ele>80</ele>
        <time>2021-04-24T10:15:33Z</time>
      </trkpt>
      <trkpt lat="43.63986" lon="3.82795">
        <ele>80</ele>
        <time>2021-04-24T10:15:34Z</time>
      </trkpt>
      <trkpt lat="43.63989" lon="3.82795">
        <ele>80</ele>
        <time>2021-04-24T10:15:35Z</time>
      </trkpt>
      <trkpt lat="43.63992" lon="3.82796">
        <ele>81</ele>
        <time>2021-04-24T10:15:36Z</time>
      </trkpt>
      <trkpt lat="43.63996" lon="3.82795">
        <ele>81</ele>
        <time>2021-04-24T10:15:37Z</time>
      </trkpt>
      <trkpt lat="43.63999" lon="3.82794">
        <ele>81</ele>
        <time>2021-04-24T10:15:38Z</time>
      </trkpt>
      <trkpt lat="43.64003" lon="3.82793">
        <ele>81</ele>
        <time>2021-04-24T10:15:39Z</time>
      </trkpt>
      <trkpt lat="43.64006" lon="3.82792">
        <ele>81</ele>
        <time>2021-04-24T10:15:40Z</time>
      </trkpt>
      <trkpt lat="43.64008" lon="3.82791">
        <ele>81</ele>
        <time>2021-04-24T10:15:41Z</time>
      </trkpt>
      <trkpt lat="43.64011" lon="3.8279">
        <ele>81</ele>
        <time>2021-04-24T10:15:42Z</time>
      </trkpt>
      <trkpt lat="43.64014" lon="3.82788">
        <ele>81</ele>
        <time>2021-04-24T10:15:43Z</time>
      </trkpt>
      <trkpt lat="43.64016" lon="3.82785">
        <ele>81</ele>
        <time>2021-04-24T10:15:44Z</time>
      </trkpt>
      <trkpt lat="43.64017" lon="3.82782">
        <ele>81</ele>
        <time>2021-04-24T10:15:45Z</time>
      </trkpt>
      <trkpt lat="43.64017" lon="3.82778">
        <ele>82</ele>
        <time>2021-04-24T10:15:46Z</time>
      </trkpt>
      <trkpt lat="43.64018" lon="3.82775">
        <ele>82</ele>
        <time>2021-04-24T10:15:47Z</time>
      </trkpt>
      <trkpt lat="43.64019" lon="3.82772">
        <ele>82</ele>
        <time>2021-04-24T10:15:48Z</time>
      </trkpt>
      <trkpt lat="43.64021" lon="3.82769">
        <ele>82</ele>
        <time>2021-04-24T10:15:49Z</time>
      </trkpt>
      <trkpt lat="43.64023" lon="3.82766">
        <ele>82</ele>
        <time>2021-04-24T10:15:50Z</time>
      </trkpt>
      <trkpt lat="43.64025" lon="3.82763">
        <ele>82</ele>
        <time>2021-04-24T10:15:51Z</time>
      </trkpt>
      <trkpt lat="43.64027" lon="3.8276">
        <ele>82</ele>
        <time>2021-04-24T10:15:52Z</time>
      </trkpt>
      <trkpt lat="43.64028" lon="3.82757">
        <ele>82</ele>
        <time>2021-04-24T10:15:53Z</time>
      </trkpt>
      <trkpt lat="43.6403" lon="3.82753">
        <ele>82</ele>
        <time>2021-04-24T10:15:54Z</time>
      </trkpt>
      <trkpt lat="43.64031" lon="3.8275">
        <ele>82</ele>
        <time>2021-04-24T10:15:55Z</time>
      </trkpt>
      <trkpt lat="43.64032" lon="3.82747">
        <ele>84</ele>
        <time>2021-04-24T10:15:56Z</time>
      </trkpt>
      <trkpt lat="43.64033" lon="3.82744">
        <ele>84</ele>
        <time>2021-04-24T10:15:57Z</time>
      </trkpt>
      <trkpt lat="43.64035" lon="3.8274">
        <ele>84</ele>
        <time>2021-04-24T10:15:58Z</time>
      </trkpt>
      <trkpt lat="43.64036" lon="3.82737">
        <ele>84</ele>
        <time>2021-04-24T10:15:59Z</time>
      </trkpt>
      <trkpt lat="43.64038" lon="3.82734">
        <ele>84</ele>
        <time>2021-04-24T10:16:00Z</time>
      </trkpt>
      <trkpt lat="43.64039" lon="3.82731">
        <ele>84</ele>
        <time>2021-04-24T10:16:01Z</time>
      </trkpt>
      <trkpt lat="43.64041" lon="3.82729">
        <ele>84</ele>
        <time>2021-04-24T10:16:02Z</time>
      </trkpt>
      <trkpt lat="43.64043" lon="3.82726">
        <ele>84</ele>
        <time>2021-04-24T10:16:03Z</time>
      </trkpt>
      <trkpt lat="43.64044" lon="3.82723">
        <ele>84</ele>
        <time>2021-04-24T10:16:04Z</time>
      </trkpt>
      <trkpt lat="43.64046" lon="3.8272">
        <ele>84</ele>
        <time>2021-04-24T10:16:05Z</time>
      </trkpt>
      <trkpt lat="43.64047" lon="3.82717">
        <ele>86</ele>
        <time>2021-04-24T10:16:06Z</time>
      </trkpt>
      <trkpt lat="43.64049" lon="3.82714">
        <ele>86</ele>
        <time>2021-04-24T10:16:07Z</time>
      </trkpt>
      <trkpt lat="43.6405" lon="3.82711">
        <ele>86</ele>
        <time>2021-04-24T10:16:08Z</time>
      </trkpt>
      <trkpt lat="43.64052" lon="3.82708">
        <ele>86</ele>
        <time>2021-04-24T10:16:09Z</time>
      </trkpt>
      <trkpt lat="43.64053" lon="3.82706">
        <ele>86</ele>
        <time>2021-04-24T10:16:10Z</time>
      </trkpt>
      <trkpt lat="43.64055" lon="3.82703">
        <ele>86</ele>
        <time>2021-04-24T10:16:11Z</time>
      </trkpt>
      <trkpt lat="43.64056" lon="3.827">
        <ele>86</ele>
        <time>2021-04-24T10:16:12Z</time>
      </trkpt>
      <trkpt lat="43.64057" lon="3.82697">
        <ele>86</ele>
        <time>2021-04-24T10:16:13Z</time>
      </trkpt>
      <trkpt lat="43.64058" lon="3.82694">
        <ele>86</ele>
        <time>2021-04-24T10:16:14Z</time>
      </trkpt>
      <trkpt lat="43.64058" lon="3.82691">
        <ele>86</ele>
        <time>2021-04-24T10:16:15Z</time>
      </trkpt>
      <trkpt lat="43.64059" lon="3.82687">
        <ele>89</ele>
        <time>2021-04-24T10:16:16Z</time>
      </trkpt>
      <trkpt lat="43.64059" lon="3.82683">
        <ele>89</ele>
        <time>2021-04-24T10:16:17Z</time>
      </trkpt>
      <trkpt lat="43.6406" lon="3.8268">
        <ele>89</ele>
        <time>2021-04-24T10:16:18Z</time>
      </trkpt>
      <trkpt lat="43.64061" lon="3.82677">
        <ele>89</ele>
        <time>2021-04-24T10:16:19Z</time>
      </trkpt>
      <trkpt lat="43.64063" lon="3.82674">
        <ele>89</ele>
        <time>2021-04-24T10:16:20Z</time>
      </trkpt>
      <trkpt lat="43.64064" lon="3.82671">
        <ele>89</ele>
        <time>2021-04-24T10:16:21Z</time>
      </trkpt>
      <trkpt lat="43.64066" lon="3.82668">
        <ele>89</ele>
        <time>2021-04-24T10:16:22Z</time>
      </trkpt>
      <trkpt lat="43.64067" lon="3.82665">
        <ele>89</ele>
        <time>2021-04-24T10:16:23Z</time>
      </trkpt>
      <trkpt lat="43.64069" lon="3.82662">
        <ele>89</ele>
        <time>2021-04-24T10:16:24Z</time>
      </trkpt>
      <trkpt lat="43.6407" lon="3.82659">
        <ele>89</ele>
        <time>2021-04-24T10:16:25Z</time>
      </trkpt>
      <trkpt lat="43.64072" lon="3.82657">
        <ele>90</ele>
        <time>2021-04-24T10:16:26Z</time>
      </trkpt>
      <trkpt lat="43.64074" lon="3.82654">
        <ele>90</ele>
        <time>2021-04-24T10:16:27Z</time>
      </trkpt>
      <trkpt lat="43.64075" lon="3.82651">
        <ele>90</ele>
        <time>2021-04-24T10:16:28Z</time>
      </trkpt>
      <trkpt lat="43.64076" lon="3.82648">
        <ele>90</ele>
        <time>2021-04-24T10:16:29Z</time>
      </trkpt>
      <trkpt lat="43.64078" lon="3.82645">
        <ele>90</ele>
        <time>2021-04-24T10:16:30Z</time>
      </trkpt>
      <trkpt lat="43.64078" lon="3.82642">
        <ele>90</ele>
        <time>2021-04-24T10:16:31Z</time>
      </trkpt>
      <trkpt lat="43.64079" lon="3.82639">
        <ele>90</ele>
        <time>2021-04-24T10:16:32Z</time>
      </trkpt>
      <trkpt lat="43.6408" lon="3.82636">
        <ele>90</ele>
        <time>2021-04-24T10:16:33Z</time>
      </trkpt>
      <trkpt lat="43.6408" lon="3.82634">
        <ele>90</ele>
        <time>2021-04-24T10:16:34Z</time>
      </trkpt>
      <trkpt lat="43.64081" lon="3.82631">
        <ele>90</ele>
        <time>2021-04-24T10:16:35Z</time>
      </trkpt>
      <trkpt lat="43.64081" lon="3.82626">
        <ele>90</ele>
        <time>2021-04-24T10:16:37Z</time>
      </trkpt>
      <trkpt lat="43.6408" lon="3.82623">
        <ele>90</ele>
        <time>2021-04-24T10:16:38Z</time>
      </trkpt>
      <trkpt lat="43.6408" lon="3.8262">
        <ele>90</ele>
        <time>2021-04-24T10:16:39Z</time>
      </trkpt>
      <trkpt lat="43.64081" lon="3.82617">
        <ele>90</ele>
        <time>2021-04-24T10:16:40Z</time>
      </trkpt>
      <trkpt lat="43.64081" lon="3.82613">
        <ele>90</ele>
        <time>2021-04-24T10:16:41Z</time>
      </trkpt>
      <trkpt lat="43.64082" lon="3.8261">
        <ele>90</ele>
        <time>2021-04-24T10:16:42Z</time>
      </trkpt>
      <trkpt lat="43.64083" lon="3.82607">
        <ele>90</ele>
        <time>2021-04-24T10:16:43Z</time>
      </trkpt>
      <trkpt lat="43.64084" lon="3.82604">
        <ele>90</ele>
        <time>2021-04-24T10:16:44Z</time>
      </trkpt>
      <trkpt lat="43.64085" lon="3.82601">
        <ele>90</ele>
        <time>2021-04-24T10:16:45Z</time>
      </trkpt>
      <trkpt lat="43.64086" lon="3.82599">
        <ele>93</ele>
        <time>2021-04-24T10:16:46Z</time>
      </trkpt>
      <trkpt lat="43.64087" lon="3.82596">
        <ele>93</ele>
        <time>2021-04-24T10:16:47Z</time>
      </trkpt>
      <trkpt lat="43.64088" lon="3.82593">
        <ele>93</ele>
        <time>2021-04-24T10:16:48Z</time>
      </trkpt>
      <trkpt lat="43.64089" lon="3.8259">
        <ele>93</ele>
        <time>2021-04-24T10:16:49Z</time>
      </trkpt>
      <trkpt lat="43.6409" lon="3.82587">
        <ele>93</ele>
        <time>2021-04-24T10:16:50Z</time>
      </trkpt>
      <trkpt lat="43.64091" lon="3.82584">
        <ele>93</ele>
        <time>2021-04-24T10:16:51Z</time>
      </trkpt>
      <trkpt lat="43.64092" lon="3.82581">
        <ele>93</ele>
        <time>2021-04-24T10:16:52Z</time>
      </trkpt>
      <trkpt lat="43.64094" lon="3.82579">
        <ele>93</ele>
        <time>2021-04-24T10:16:53Z</time>
      </trkpt>
      <trkpt lat="43.64095" lon="3.82576">
        <ele>93</ele>
        <time>2021-04-24T10:16:54Z</time>
      </trkpt>
      <trkpt lat="43.64096" lon="3.82573">
        <ele>93</ele>
        <time>2021-04-24T10:16:55Z</time>
      </trkpt>
      <trkpt lat="43.64097" lon="3.8257">
        <ele>94</ele>
        <time>2021-04-24T10:16:56Z</time>
      </trkpt>
      <trkpt lat="43.64098" lon="3.82567">
        <ele>94</ele>
        <time>2021-04-24T10:16:57Z</time>
      </trkpt>
      <trkpt lat="43.64099" lon="3.82565">
        <ele>94</ele>
        <time>2021-04-24T10:16:58Z</time>
      </trkpt>
      <trkpt lat="43.64101" lon="3.82562">
        <ele>94</ele>
        <time>2021-04-24T10:16:59Z</time>
      </trkpt>
      <trkpt lat="43.64102" lon="3.82559">
        <ele>94</ele>
        <time>2021-04-24T10:17:00Z</time>
      </trkpt>
      <trkpt lat="43.64104" lon="3.82556">
        <ele>94</ele>
        <time>2021-04-24T10:17:01Z</time>
      </trkpt>
      <trkpt lat="43.64104" lon="3.82554">
        <ele>94</ele>
        <time>2021-04-24T10:17:02Z</time>
      </trkpt>
      <trkpt lat="43.64105" lon="3.82551">
        <ele>94</ele>
        <time>2021-04-24T10:17:03Z</time>
      </trkpt>
      <trkpt lat="43.64105" lon="3.82548">
        <ele>94</ele>
        <time>2021-04-24T10:17:04Z</time>
      </trkpt>
      <trkpt lat="43.64106" lon="3.82545">
        <ele>94</ele>
        <time>2021-04-24T10:17:05Z</time>
      </trkpt>
      <trkpt lat="43.64107" lon="3.82541">
        <ele>96</ele>
        <time>2021-04-24T10:17:06Z</time>
      </trkpt>
      <trkpt lat="43.64108" lon="3.82538">
        <ele>96</ele>
        <time>2021-04-24T10:17:07Z</time>
      </trkpt>
      <trkpt lat="43.64109" lon="3.82535">
        <ele>96</ele>
        <time>2021-04-24T10:17:08Z</time>
      </trkpt>
      <trkpt lat="43.6411" lon="3.82532">
        <ele>96</ele>
        <time>2021-04-24T10:17:09Z</time>
      </trkpt>
      <trkpt lat="43.64111" lon="3.8253">
        <ele>96</ele>
        <time>2021-04-24T10:17:10Z</time>
      </trkpt>
      <trkpt lat="43.64113" lon="3.82527">
        <ele>96</ele>
        <time>2021-04-24T10:17:11Z</time>
      </trkpt>
      <trkpt lat="43.64114" lon="3.82525">
        <ele>96</ele>
        <time>2021-04-24T10:17:12Z</time>
      </trkpt>
      <trkpt lat="43.64115" lon="3.82523">
        <ele>96</ele>
        <time>2021-04-24T10:17:13Z</time>
      </trkpt>
      <trkpt lat="43.64116" lon="3.8252">
        <ele>96</ele>
        <time>2021-04-24T10:17:14Z</time>
      </trkpt>
      <trkpt lat="43.64117" lon="3.82518">
        <ele>96</ele>
        <time>2021-04-24T10:17:15Z</time>
      </trkpt>
      <trkpt lat="43.64119" lon="3.82513">
        <ele>97</ele>
        <time>2021-04-24T10:17:16Z</time>
      </trkpt>
      <trkpt lat="43.6412" lon="3.82511">
        <ele>97</ele>
        <time>2021-04-24T10:17:17Z</time>
      </trkpt>
      <trkpt lat="43.64122" lon="3.82509">
        <ele>97</ele>
        <time>2021-04-24T10:17:18Z</time>
      </trkpt>
      <trkpt lat="43.64124" lon="3.82507">
        <ele>97</ele>
        <time>2021-04-24T10:17:19Z</time>
      </trkpt>
      <trkpt lat="43.64125" lon="3.82505">
        <ele>97</ele>
        <time>2021-04-24T10:17:20Z</time>
      </trkpt>
      <trkpt lat="43.64127" lon="3.82502">
        <ele>97</ele>
        <time>2021-04-24T10:17:21Z</time>
      </trkpt>
      <trkpt lat="43.64129" lon="3.825">
        <ele>97</ele>
        <time>2021-04-24T10:17:22Z</time>
      </trkpt>
      <trkpt lat="43.64131" lon="3.82497">
        <ele>97</ele>
        <time>2021-04-24T10:17:23Z</time>
      </trkpt>
      <trkpt lat="43.64132" lon="3.82494">
        <ele>97</ele>
        <time>2021-04-24T10:17:24Z</time>
      </trkpt>
      <trkpt lat="43.64134" lon="3.82491">
        <ele>98</ele>
        <time>2021-04-24T10:17:26Z</time>
      </trkpt>
      <trkpt lat="43.64134" lon="3.82488">
        <ele>98</ele>
        <time>2021-04-24T10:17:27Z</time>
      </trkpt>
      <trkpt lat="43.64135" lon="3.82485">
        <ele>98</ele>
        <time>2021-04-24T10:17:28Z</time>
      </trkpt>
      <trkpt lat="43.64136" lon="3.82482">
        <ele>98</ele>
        <time>2021-04-24T10:17:29Z</time>
      </trkpt>
      <trkpt lat="43.64137" lon="3.82479">
        <ele>98</ele>
        <time>2021-04-24T10:17:30Z</time>
      </trkpt>
      <trkpt lat="43.64138" lon="3.82476">
        <ele>98</ele>
        <time>2021-04-24T10:17:31Z</time>
      </trkpt>
      <trkpt lat="43.64139" lon="3.82472">
        <ele>98</ele>
        <time>2021-04-24T10:17:32Z</time>
      </trkpt>
      <trkpt lat="43.6414" lon="3.82469">
        <ele>98</ele>
        <time>2021-04-24T10:17:33Z</time>
      </trkpt>
      <trkpt lat="43.64141" lon="3.82466">
        <ele>98</ele>
        <time>2021-04-24T10:17:34Z</time>
      </trkpt>
      <trkpt lat="43.64142" lon="3.82462">
        <ele>98</ele>
        <time>2021-04-24T10:17:35Z</time>
      </trkpt>
      <trkpt lat="43.64143" lon="3.82459">
        <ele>99</ele>
        <time>2021-04-24T10:17:36Z</time>
      </trkpt>
      <trkpt lat="43.64143" lon="3.82455">
        <ele>99</ele>
        <time>2021-04-24T10:17:37Z</time>
      </trkpt>
      <trkpt lat="43.64144" lon="3.82452">
        <ele>99</ele>
        <time>2021-04-24T10:17:38Z</time>
      </trkpt>
      <trkpt lat="43.64144" lon="3.82449">
        <ele>99</ele>
        <time>2021-04-24T10:17:39Z</time>
      </trkpt>
      <trkpt lat="43.64144" lon="3.82445">
        <ele>99</ele>
        <time>2021-04-24T10:17:40Z</time>
      </trkpt>
      <trkpt lat="43.64144" lon="3.82442">
        <ele>99</ele>
        <time>2021-04-24T10:17:41Z</time>
      </trkpt>
      <trkpt lat="43.64145" lon="3.82438">
        <ele>99</ele>
        <time>2021-04-24T10:17:42Z</time>
      </trkpt>
      <trkpt lat="43.64146" lon="3.82435">
        <ele>99</ele>
        <time>2021-04-24T10:17:43Z</time>
      </trkpt>
      <trkpt lat="43.64147" lon="3.82432">
        <ele>99</ele>
        <time>2021-04-24T10:17:44Z</time>
      </trkpt>
      <trkpt lat="43.64148" lon="3.82429">
        <ele>99</ele>
        <time>2021-04-24T10:17:45Z</time>
      </trkpt>
      <trkpt lat="43.64148" lon="3.82426">
        <ele>100</ele>
        <time>2021-04-24T10:17:46Z</time>
      </trkpt>
      <trkpt lat="43.64147" lon="3.82423">
        <ele>100</ele>
        <time>2021-04-24T10:17:47Z</time>
      </trkpt>
      <trkpt lat="43.64147" lon="3.82419">
        <ele>100</ele>
        <time>2021-04-24T10:17:48Z</time>
      </trkpt>
      <trkpt lat="43.64148" lon="3.82416">
        <ele>100</ele>
        <time>2021-04-24T10:17:49Z</time>
      </trkpt>
      <trkpt lat="43.64149" lon="3.82413">
        <ele>100</ele>
        <time>2021-04-24T10:17:50Z</time>
      </trkpt>
      <trkpt lat="43.64151" lon="3.8241">
        <ele>100</ele>
        <time>2021-04-24T10:17:51Z</time>
      </trkpt>
      <trkpt lat="43.64152" lon="3.82406">
        <ele>100</ele>
        <time>2021-04-24T10:17:52Z</time>
      </trkpt>
      <trkpt lat="43.64154" lon="3.82403">
        <ele>100</ele>
        <time>2021-04-24T10:17:53Z</time>
      </trkpt>
      <trkpt lat="43.64155" lon="3.824">
        <ele>100</ele>
        <time>2021-04-24T10:17:54Z</time>
      </trkpt>
      <trkpt lat="43.64156" lon="3.82397">
        <ele>100</ele>
        <time>2021-04-24T10:17:55Z</time>
      </trkpt>
      <trkpt lat="43.64158" lon="3.82394">
        <ele>101</ele>
        <time>2021-04-24T10:17:56Z</time>
      </trkpt>
      <trkpt lat="43.64159" lon="3.82392">
        <ele>101</ele>
        <time>2021-04-24T10:17:57Z</time>
      </trkpt>
      <trkpt lat="43.6416" lon="3.82389">
        <ele>101</ele>
        <time>2021-04-24T10:17:58Z</time>
      </trkpt>
      <trkpt lat="43.6416" lon="3.82386">
        <ele>101</ele>
        <time>2021-04-24T10:17:59Z</time>
      </trkpt>
      <trkpt lat="43.64161" lon="3.82383">
        <ele>101</ele>
        <time>2021-04-24T10:18:00Z</time>
      </trkpt>
      <trkpt lat="43.64161" lon="3.8238">
        <ele>101</ele>
        <time>2021-04-24T10:18:01Z</time>
      </trkpt>
      <trkpt lat="43.64163" lon="3.82378">
        <ele>101</ele>
        <time>2021-04-24T10:18:02Z</time>
      </trkpt>
      <trkpt lat="43.64165" lon="3.82376">
        <ele>101</ele>
        <time>2021-04-24T10:18:03Z</time>
      </trkpt>
      <trkpt lat="43.64166" lon="3.82374">
        <ele>101</ele>
        <time>2021-04-24T10:18:04Z</time>
      </trkpt>
      <trkpt lat="43.64168" lon="3.82373">
        <ele>101</ele>
        <time>2021-04-24T10:18:05Z</time>
      </trkpt>
      <trkpt lat="43.6417" lon="3.82373">
        <ele>103</ele>
        <time>2021-04-24T10:18:06Z</time>
      </trkpt>
      <trkpt lat="43.64173" lon="3.8237">
        <ele>103</ele>
        <time>2021-04-24T10:18:08Z</time>
      </trkpt>
      <trkpt lat="43.64174" lon="3.82368">
        <ele>103</ele>
        <time>2021-04-24T10:18:10Z</time>
      </trkpt>
      <trkpt lat="43.64175" lon="3.82365">
        <ele>103</ele>
        <time>2021-04-24T10:18:13Z</time>
      </trkpt>
      <trkpt lat="43.64176" lon="3.82361">
        <ele>103</ele>
        <time>2021-04-24T10:18:15Z</time>
      </trkpt>
      <trkpt lat="43.64177" lon="3.82359">
        <ele>103</ele>
        <time>2021-04-24T10:18:16Z</time>
      </trkpt>
      <trkpt lat="43.64178" lon="3.82356">
        <ele>103</ele>
        <time>2021-04-24T10:18:17Z</time>
      </trkpt>
      <trkpt lat="43.64179" lon="3.82353">
        <ele>103</ele>
        <time>2021-04-24T10:18:18Z</time>
      </trkpt>
      <trkpt lat="43.6418" lon="3.8235">
        <ele>103</ele>
        <time>2021-04-24T10:18:19Z</time>
      </trkpt>
      <trkpt lat="43.6418" lon="3.82346">
        <ele>103</ele>
        <time>2021-04-24T10:18:20Z</time>
      </trkpt>
      <trkpt lat="43.64181" lon="3.82342">
        <ele>103</ele>
        <time>2021-04-24T10:18:21Z</time>
      </trkpt>
      <trkpt lat="43.64181" lon="3.82339">
        <ele>103</ele>
        <time>2021-04-24T10:18:22Z</time>
      </trkpt>
      <trkpt lat="43.64181" lon="3.82336">
        <ele>103</ele>
        <time>2021-04-24T10:18:23Z</time>
      </trkpt>
      <trkpt lat="43.64182" lon="3.82332">
        <ele>103</ele>
        <time>2021-04-24T10:18:24Z</time>
      </trkpt>
      <trkpt lat="43.64183" lon="3.82329">
        <ele>103</ele>
        <time>2021-04-24T10:18:25Z</time>
      </trkpt>
      <trkpt lat="43.64185" lon="3.82326">
        <ele>104</ele>
        <time>2021-04-24T10:18:26Z</time>
      </trkpt>
      <trkpt lat="43.64187" lon="3.82323">
        <ele>104</ele>
        <time>2021-04-24T10:18:27Z</time>
      </trkpt>
      <trkpt lat="43.6419" lon="3.8232">
        <ele>104</ele>
        <time>2021-04-24T10:18:28Z</time>
      </trkpt>
      <trkpt lat="43.64193" lon="3.82317">
        <ele>104</ele>
        <time>2021-04-24T10:18:29Z</time>
      </trkpt>
      <trkpt lat="43.64196" lon="3.82314">
        <ele>104</ele>
        <time>2021-04-24T10:18:30Z</time>
      </trkpt>
      <trkpt lat="43.642" lon="3.82311">
        <ele>104</ele>
        <time>2021-04-24T10:18:31Z</time>
      </trkpt>
      <trkpt lat="43.64204" lon="3.82309">
        <ele>104</ele>
        <time>2021-04-24T10:18:32Z</time>
      </trkpt>
      <trkpt lat="43.64208" lon="3.82306">
        <ele>104</ele>
        <time>2021-04-24T10:18:33Z</time>
      </trkpt>
      <trkpt lat="43.64213" lon="3.82304">
        <ele>104</ele>
        <time>2021-04-24T10:18:34Z</time>
      </trkpt>
      <trkpt lat="43.64217" lon="3.82303">
        <ele>104</ele>
        <time>2021-04-24T10:18:35Z</time>
      </trkpt>
      <trkpt lat="43.64221" lon="3.82303">
        <ele>104</ele>
        <time>2021-04-24T10:18:36Z</time>
      </trkpt>
      <trkpt lat="43.64225" lon="3.82303">
        <ele>104</ele>
        <time>2021-04-24T10:18:37Z</time>
      </trkpt>
      <trkpt lat="43.6423" lon="3.82302">
        <ele>104</ele>
        <time>2021-04-24T10:18:38Z</time>
      </trkpt>
      <trkpt lat="43.64234" lon="3.82302">
        <ele>104</ele>
        <time>2021-04-24T10:18:39Z</time>
      </trkpt>
      <trkpt lat="43.64239" lon="3.82303">
        <ele>104</ele>
        <time>2021-04-24T10:18:40Z</time>
      </trkpt>
      <trkpt lat="43.64243" lon="3.82303">
        <ele>104</ele>
        <time>2021-04-24T10:18:41Z</time>
      </trkpt>
      <trkpt lat="43.64247" lon="3.82303">
        <ele>104</ele>
        <time>2021-04-24T10:18:42Z</time>
      </trkpt>
      <trkpt lat="43.64251" lon="3.82302">
        <ele>104</ele>
        <time>2021-04-24T10:18:43Z</time>
      </trkpt>
      <trkpt lat="43.64255" lon="3.82303">
        <ele>104</ele>
        <time>2021-04-24T10:18:44Z</time>
      </trkpt>
      <trkpt lat="43.6426" lon="3.82304">
        <ele>104</ele>
        <time>2021-04-24T10:18:45Z</time>
      </trkpt>
      <trkpt lat="43.64265" lon="3.82306">
        <ele>103</ele>
        <time>2021-04-24T10:18:46Z</time>
      </trkpt>
      <trkpt lat="43.64269" lon="3.8231">
        <ele>103</ele>
        <time>2021-04-24T10:18:47Z</time>
      </trkpt>
      <trkpt lat="43.64274" lon="3.82312">
        <ele>103</ele>
        <time>2021-04-24T10:18:48Z</time>
      </trkpt>
      <trkpt lat="43.64279" lon="3.82312">
        <ele>103</ele>
        <time>2021-04-24T10:18:49Z</time>
      </trkpt>
      <trkpt lat="43.64284" lon="3.8231">
        <ele>103</ele>
        <time>2021-04-24T10:18:50Z</time>
      </trkpt>
      <trkpt lat="43.64288" lon="3.82307">
        <ele>103</ele>
        <time>2021-04-24T10:18:51Z</time>
      </trkpt>
      <trkpt lat="43.64292" lon="3.82303">
        <ele>103</ele>
        <time>2021-04-24T10:18:52Z</time>
      </trkpt>
      <trkpt lat="43.64295" lon="3.82299">
        <ele>103</ele>
        <time>2021-04-24T10:18:53Z</time>
      </trkpt>
      <trkpt lat="43.64298" lon="3.82296">
        <ele>103</ele>
        <time>2021-04-24T10:18:54Z</time>
      </trkpt>
      <trkpt lat="43.64302" lon="3.82297">
        <ele>103</ele>
        <time>2021-04-24T10:18:55Z</time>
      </trkpt>
      <trkpt lat="43.64306" lon="3.82298">
        <ele>103</ele>
        <time>2021-04-24T10:18:56Z</time>
      </trkpt>
      <trkpt lat="43.64315" lon="3.82297">
        <ele>103</ele>
        <time>2021-04-24T10:18:57Z</time>
      </trkpt>
      <trkpt lat="43.6432" lon="3.82295">
        <ele>103</ele>
        <time>2021-04-24T10:18:58Z</time>
      </trkpt>
      <trkpt lat="43.64324" lon="3.82293">
        <ele>103</ele>
        <time>2021-04-24T10:18:59Z</time>
      </trkpt>
      <trkpt lat="43.64328" lon="3.82292">
        <ele>103</ele>
        <time>2021-04-24T10:19:00Z</time>
      </trkpt>
      <trkpt lat="43.64332" lon="3.82291">
        <ele>103</ele>
        <time>2021-04-24T10:19:01Z</time>
      </trkpt>
      <trkpt lat="43.64335" lon="3.8229">
        <ele>103</ele>
        <time>2021-04-24T10:19:02Z</time>
      </trkpt>
      <trkpt lat="43.64338" lon="3.82289">
        <ele>103</ele>
        <time>2021-04-24T10:19:03Z</time>
      </trkpt>
      <trkpt lat="43.64341" lon="3.82287">
        <ele>103</ele>
        <time>2021-04-24T10:19:04Z</time>
      </trkpt>
      <trkpt lat="43.64344" lon="3.82286">
        <ele>101</ele>
        <time>2021-04-24T10:19:06Z</time>
      </trkpt>
      <trkpt lat="43.64346" lon="3.82283">
        <ele>101</ele>
        <time>2021-04-24T10:19:07Z</time>
      </trkpt>
      <trkpt lat="43.64349" lon="3.8228">
        <ele>101</ele>
        <time>2021-04-24T10:19:08Z</time>
      </trkpt>
      <trkpt lat="43.64351" lon="3.82277">
        <ele>101</ele>
        <time>2021-04-24T10:19:09Z</time>
      </trkpt>
      <trkpt lat="43.64352" lon="3.82275">
        <ele>101</ele>
        <time>2021-04-24T10:19:10Z</time>
      </trkpt>
      <trkpt lat="43.6435" lon="3.82275">
        <ele>101</ele>
        <time>2021-04-24T10:19:17Z</time>
      </trkpt>
      <trkpt lat="43.64358" lon="3.82264">
        <ele>101</ele>
        <time>2021-04-24T10:19:41Z</time>
      </trkpt>
      <trkpt lat="43.64362" lon="3.82264">
        <ele>101</ele>
        <time>2021-04-24T10:19:42Z</time>
      </trkpt>
      <trkpt lat="43.64365" lon="3.82264">
        <ele>101</ele>
        <time>2021-04-24T10:19:43Z</time>
      </trkpt>
      <trkpt lat="43.64368" lon="3.82262">
        <ele>101</ele>
        <time>2021-04-24T10:19:44Z</time>
      </trkpt>
      <trkpt lat="43.6437" lon="3.82259">
        <ele>101</ele>
        <time>2021-04-24T10:19:45Z</time>
      </trkpt>
      <trkpt lat="43.64374" lon="3.82257">
        <ele>101</ele>
        <time>2021-04-24T10:19:46Z</time>
      </trkpt>
      <trkpt lat="43.64378" lon="3.82256">
        <ele>101</ele>
        <time>2021-04-24T10:19:47Z</time>
      </trkpt>
      <trkpt lat="43.64382" lon="3.82256">
        <ele>101</ele>
        <time>2021-04-24T10:19:48Z</time>
      </trkpt>
      <trkpt lat="43.64386" lon="3.82256">
        <ele>101</ele>
        <time>2021-04-24T10:19:49Z</time>
      </trkpt>
      <trkpt lat="43.6439" lon="3.82254">
        <ele>101</ele>
        <time>2021-04-24T10:19:50Z</time>
      </trkpt>
      <trkpt lat="43.64394" lon="3.82253">
        <ele>100</ele>
        <time>2021-04-24T10:19:51Z</time>
      </trkpt>
      <trkpt lat="43.64397" lon="3.82251">
        <ele>100</ele>
        <time>2021-04-24T10:19:52Z</time>
      </trkpt>
      <trkpt lat="43.64401" lon="3.82249">
        <ele>100</ele>
        <time>2021-04-24T10:19:53Z</time>
      </trkpt>
      <trkpt lat="43.64404" lon="3.82247">
        <ele>100</ele>
        <time>2021-04-24T10:19:54Z</time>
      </trkpt>
      <trkpt lat="43.64407" lon="3.82244">
        <ele>100</ele>
        <time>2021-04-24T10:19:55Z</time>
      </trkpt>
      <trkpt lat="43.6441" lon="3.8224">
        <ele>100</ele>
        <time>2021-04-24T10:19:56Z</time>
      </trkpt>
      <trkpt lat="43.64413" lon="3.82237">
        <ele>100</ele>
        <time>2021-04-24T10:19:57Z</time>
      </trkpt>
      <trkpt lat="43.64417" lon="3.82235">
        <ele>100</ele>
        <time>2021-04-24T10:19:58Z</time>
      </trkpt>
      <trkpt lat="43.6442" lon="3.82235">
        <ele>100</ele>
        <time>2021-04-24T10:19:59Z</time>
      </trkpt>
      <trkpt lat="43.64424" lon="3.82237">
        <ele>100</ele>
        <time>2021-04-24T10:20:00Z</time>
      </trkpt>
      <trkpt lat="43.64426" lon="3.82241">
        <ele>99</ele>
        <time>2021-04-24T10:20:01Z</time>
      </trkpt>
      <trkpt lat="43.64431" lon="3.82249">
        <ele>99</ele>
        <time>2021-04-24T10:20:02Z</time>
      </trkpt>
      <trkpt lat="43.64434" lon="3.82253">
        <ele>99</ele>
        <time>2021-04-24T10:20:03Z</time>
      </trkpt>
      <trkpt lat="43.64437" lon="3.82255">
        <ele>99</ele>
        <time>2021-04-24T10:20:04Z</time>
      </trkpt>
      <trkpt lat="43.6444" lon="3.82259">
        <ele>99</ele>
        <time>2021-04-24T10:20:05Z</time>
      </trkpt>
      <trkpt lat="43.64443" lon="3.82262">
        <ele>99</ele>
        <time>2021-04-24T10:20:06Z</time>
      </trkpt>
      <trkpt lat="43.64449" lon="3.82269">
        <ele>99</ele>
        <time>2021-04-24T10:20:08Z</time>
      </trkpt>
      <trkpt lat="43.64452" lon="3.82271">
        <ele>99</ele>
        <time>2021-04-24T10:20:09Z</time>
      </trkpt>
      <trkpt lat="43.6446" lon="3.82273">
        <ele>98</ele>
        <time>2021-04-24T10:20:11Z</time>
      </trkpt>
      <trkpt lat="43.64463" lon="3.82275">
        <ele>98</ele>
        <time>2021-04-24T10:20:12Z</time>
      </trkpt>
      <trkpt lat="43.64466" lon="3.82279">
        <ele>98</ele>
        <time>2021-04-24T10:20:13Z</time>
      </trkpt>
      <trkpt lat="43.64467" lon="3.82284">
        <ele>98</ele>
        <time>2021-04-24T10:20:14Z</time>
      </trkpt>
      <trkpt lat="43.6447" lon="3.82288">
        <ele>98</ele>
        <time>2021-04-24T10:20:15Z</time>
      </trkpt>
      <trkpt lat="43.64473" lon="3.82289">
        <ele>98</ele>
        <time>2021-04-24T10:20:16Z</time>
      </trkpt>
      <trkpt lat="43.64476" lon="3.82288">
        <ele>98</ele>
        <time>2021-04-24T10:20:17Z</time>
      </trkpt>
      <trkpt lat="43.6448" lon="3.82286">
        <ele>98</ele>
        <time>2021-04-24T10:20:18Z</time>
      </trkpt>
      <trkpt lat="43.64484" lon="3.82285">
        <ele>98</ele>
        <time>2021-04-24T10:20:20Z</time>
      </trkpt>
      <trkpt lat="43.64489" lon="3.82287">
        <ele>98</ele>
        <time>2021-04-24T10:20:21Z</time>
      </trkpt>
      <trkpt lat="43.64493" lon="3.82289">
        <ele>98</ele>
        <time>2021-04-24T10:20:22Z</time>
      </trkpt>
      <trkpt lat="43.64497" lon="3.82292">
        <ele>98</ele>
        <time>2021-04-24T10:20:23Z</time>
      </trkpt>
      <trkpt lat="43.64501" lon="3.82294">
        <ele>98</ele>
        <time>2021-04-24T10:20:24Z</time>
      </trkpt>
      <trkpt lat="43.64503" lon="3.82298">
        <ele>98</ele>
        <time>2021-04-24T10:20:25Z</time>
      </trkpt>
      <trkpt lat="43.64505" lon="3.823">
        <ele>98</ele>
        <time>2021-04-24T10:20:26Z</time>
      </trkpt>
      <trkpt lat="43.64508" lon="3.82302">
        <ele>98</ele>
        <time>2021-04-24T10:20:27Z</time>
      </trkpt>
      <trkpt lat="43.64511" lon="3.82303">
        <ele>98</ele>
        <time>2021-04-24T10:20:28Z</time>
      </trkpt>
      <trkpt lat="43.64515" lon="3.82303">
        <ele>98</ele>
        <time>2021-04-24T10:20:29Z</time>
      </trkpt>
      <trkpt lat="43.64519" lon="3.82304">
        <ele>98</ele>
        <time>2021-04-24T10:20:30Z</time>
      </trkpt>
      <trkpt lat="43.64523" lon="3.82305">
        <ele>99</ele>
        <time>2021-04-24T10:20:31Z</time>
      </trkpt>
      <trkpt lat="43.64526" lon="3.82306">
        <ele>99</ele>
        <time>2021-04-24T10:20:32Z</time>
      </trkpt>
      <trkpt lat="43.6453" lon="3.82307">
        <ele>99</ele>
        <time>2021-04-24T10:20:33Z</time>
      </trkpt>
      <trkpt lat="43.64534" lon="3.82308">
        <ele>99</ele>
        <time>2021-04-24T10:20:34Z</time>
      </trkpt>
      <trkpt lat="43.64538" lon="3.82309">
        <ele>99</ele>
        <time>2021-04-24T10:20:35Z</time>
      </trkpt>
      <trkpt lat="43.64541" lon="3.82309">
        <ele>99</ele>
        <time>2021-04-24T10:20:36Z</time>
      </trkpt>
      <trkpt lat="43.64545" lon="3.8231">
        <ele>99</ele>
        <time>2021-04-24T10:20:37Z</time>
      </trkpt>
      <trkpt lat="43.64549" lon="3.8231">
        <ele>99</ele>
        <time>2021-04-24T10:20:38Z</time>
      </trkpt>
      <trkpt lat="43.64553" lon="3.82311">
        <ele>99</ele>
        <time>2021-04-24T10:20:39Z</time>
      </trkpt>
      <trkpt lat="43.64557" lon="3.82312">
        <ele>99</ele>
        <time>2021-04-24T10:20:40Z</time>
      </trkpt>
      <trkpt lat="43.6456" lon="3.82313">
        <ele>100</ele>
        <time>2021-04-24T10:20:41Z</time>
      </trkpt>
      <trkpt lat="43.64564" lon="3.82314">
        <ele>100</ele>
        <time>2021-04-24T10:20:42Z</time>
      </trkpt>
      <trkpt lat="43.64567" lon="3.82316">
        <ele>100</ele>
        <time>2021-04-24T10:20:43Z</time>
      </trkpt>
      <trkpt lat="43.64571" lon="3.82318">
        <ele>100</ele>
        <time>2021-04-24T10:20:44Z</time>
      </trkpt>
      <trkpt lat="43.64575" lon="3.8232">
        <ele>100</ele>
        <time>2021-04-24T10:20:45Z</time>
      </trkpt>
      <trkpt lat="43.64578" lon="3.82323">
        <ele>100</ele>
        <time>2021-04-24T10:20:46Z</time>
      </trkpt>
      <trkpt lat="43.64581" lon="3.82326">
        <ele>100</ele>
        <time>2021-04-24T10:20:47Z</time>
      </trkpt>
      <trkpt lat="43.64584" lon="3.82329">
        <ele>100</ele>
        <time>2021-04-24T10:20:48Z</time>
      </trkpt>
      <trkpt lat="43.64587" lon="3.82331">
        <ele>100</ele>
        <time>2021-04-24T10:20:49Z</time>
      </trkpt>
      <trkpt lat="43.6459" lon="3.82334">
        <ele>100</ele>
        <time>2021-04-24T10:20:50Z</time>
      </trkpt>
      <trkpt lat="43.64596" lon="3.82339">
        <ele>100</ele>
        <time>2021-04-24T10:20:51Z</time>
      </trkpt>
      <trkpt lat="43.64599" lon="3.82342">
        <ele>100</ele>
        <time>2021-04-24T10:20:52Z</time>
      </trkpt>
      <trkpt lat="43.64602" lon="3.82344">
        <ele>100</ele>
        <time>2021-04-24T10:20:53Z</time>
      </trkpt>
      <trkpt lat="43.64605" lon="3.82347">
        <ele>100</ele>
        <time>2021-04-24T10:20:54Z</time>
      </trkpt>
      <trkpt lat="43.64608" lon="3.82349">
        <ele>100</ele>
        <time>2021-04-24T10:20:55Z</time>
      </trkpt>
      <trkpt lat="43.64612" lon="3.82352">
        <ele>100</ele>
        <time>2021-04-24T10:20:56Z</time>
      </trkpt>
      <trkpt lat="43.64615" lon="3.82355">
        <ele>100</ele>
        <time>2021-04-24T10:20:58Z</time>
      </trkpt>
      <trkpt lat="43.64623" lon="3.8236">
        <ele>100</ele>
        <time>2021-04-24T10:20:59Z</time>
      </trkpt>
      <trkpt lat="43.64627" lon="3.82363">
        <ele>100</ele>
        <time>2021-04-24T10:21:01Z</time>
      </trkpt>
      <trkpt lat="43.6463" lon="3.82366">
        <ele>100</ele>
        <time>2021-04-24T10:21:02Z</time>
      </trkpt>
      <trkpt lat="43.64633" lon="3.82369">
        <ele>100</ele>
        <time>2021-04-24T10:21:03Z</time>
      </trkpt>
      <trkpt lat="43.64637" lon="3.82372">
        <ele>100</ele>
        <time>2021-04-24T10:21:04Z</time>
      </trkpt>
      <trkpt lat="43.64641" lon="3.82374">
        <ele>100</ele>
        <time>2021-04-24T10:21:05Z</time>
      </trkpt>
      <trkpt lat="43.64644" lon="3.82376">
        <ele>100</ele>
        <time>2021-04-24T10:21:06Z</time>
      </trkpt>
      <trkpt lat="43.64648" lon="3.82379">
        <ele>100</ele>
        <time>2021-04-24T10:21:07Z</time>
      </trkpt>
      <trkpt lat="43.64652" lon="3.82381">
        <ele>100</ele>
        <time>2021-04-24T10:21:08Z</time>
      </trkpt>
      <trkpt lat="43.64656" lon="3.82384">
        <ele>100</ele>
        <time>2021-04-24T10:21:09Z</time>
      </trkpt>
      <trkpt lat="43.64659" lon="3.82386">
        <ele>100</ele>
        <time>2021-04-24T10:21:10Z</time>
      </trkpt>
      <trkpt lat="43.64663" lon="3.82389">
        <ele>100</ele>
        <time>2021-04-24T10:21:11Z</time>
      </trkpt>
      <trkpt lat="43.64666" lon="3.82392">
        <ele>100</ele>
        <time>2021-04-24T10:21:12Z</time>
      </trkpt>
      <trkpt lat="43.64669" lon="3.82394">
        <ele>100</ele>
        <time>2021-04-24T10:21:13Z</time>
      </trkpt>
      <trkpt lat="43.64673" lon="3.82397">
        <ele>100</ele>
        <time>2021-04-24T10:21:14Z</time>
      </trkpt>
      <trkpt lat="43.64676" lon="3.82399">
        <ele>100</ele>
        <time>2021-04-24T10:21:15Z</time>
      </trkpt>
      <trkpt lat="43.64679" lon="3.82401">
        <ele>100</ele>
        <time>2021-04-24T10:21:16Z</time>
      </trkpt>
      <trkpt lat="43.64683" lon="3.82403">
        <ele>100</ele>
        <time>2021-04-24T10:21:17Z</time>
      </trkpt>
      <trkpt lat="43.64686" lon="3.82406">
        <ele>100</ele>
        <time>2021-04-24T10:21:18Z</time>
      </trkpt>
      <trkpt lat="43.6469" lon="3.82408">
        <ele>100</ele>
        <time>2021-04-24T10:21:19Z</time>
      </trkpt>
      <trkpt lat="43.64693" lon="3.8241">
        <ele>100</ele>
        <time>2021-04-24T10:21:20Z</time>
      </trkpt>
      <trkpt lat="43.64696" lon="3.82412">
        <ele>100</ele>
        <time>2021-04-24T10:21:21Z</time>
      </trkpt>
      <trkpt lat="43.647" lon="3.82414">
        <ele>100</ele>
        <time>2021-04-24T10:21:22Z</time>
      </trkpt>
      <trkpt lat="43.64703" lon="3.82416">
        <ele>100</ele>
        <time>2021-04-24T10:21:23Z</time>
      </trkpt>
      <trkpt lat="43.64707" lon="3.82418">
        <ele>100</ele>
        <time>2021-04-24T10:21:24Z</time>
      </trkpt>
      <trkpt lat="43.6471" lon="3.8242">
        <ele>100</ele>
        <time>2021-04-24T10:21:25Z</time>
      </trkpt>
      <trkpt lat="43.64714" lon="3.82422">
        <ele>100</ele>
        <time>2021-04-24T10:21:26Z</time>
      </trkpt>
      <trkpt lat="43.64717" lon="3.82424">
        <ele>100</ele>
        <time>2021-04-24T10:21:27Z</time>
      </trkpt>
      <trkpt lat="43.64721" lon="3.82426">
        <ele>100</ele>
        <time>2021-04-24T10:21:28Z</time>
      </trkpt>
      <trkpt lat="43.64724" lon="3.82427">
        <ele>100</ele>
        <time>2021-04-24T10:21:29Z</time>
      </trkpt>
      <trkpt lat="43.64728" lon="3.82428">
        <ele>100</ele>
        <time>2021-04-24T10:21:30Z</time>
      </trkpt>
      <trkpt lat="43.64732" lon="3.82429">
        <ele>100</ele>
        <time>2021-04-24T10:21:31Z</time>
      </trkpt>
      <trkpt lat="43.64735" lon="3.8243">
        <ele>100</ele>
        <time>2021-04-24T10:21:32Z</time>
      </trkpt>
      <trkpt lat="43.64739" lon="3.82431">
        <ele>100</ele>
        <time>2021-04-24T10:21:33Z</time>
      </trkpt>
      <trkpt lat="43.64743" lon="3.82431">
        <ele>100</ele>
        <time>2021-04-24T10:21:34Z</time>
      </trkpt>
      <trkpt lat="43.64747" lon="3.82431">
        <ele>100</ele>
        <time>2021-04-24T10:21:35Z</time>
      </trkpt>
      <trkpt lat="43.6475" lon="3.82431">
        <ele>100</ele>
        <time>2021-04-24T10:21:36Z</time>
      </trkpt>
      <trkpt lat="43.64754" lon="3.82431">
        <ele>100</ele>
        <time>2021-04-24T10:21:37Z</time>
      </trkpt>
      <trkpt lat="43.64758" lon="3.82431">
        <ele>100</ele>
        <time>2021-04-24T10:21:38Z</time>
      </trkpt>
      <trkpt lat="43.64761" lon="3.8243">
        <ele>100</ele>
        <time>2021-04-24T10:21:39Z</time>
      </trkpt>
      <trkpt lat="43.64765" lon="3.8243">
        <ele>100</ele>
        <time>2021-04-24T10:21:40Z</time>
      </trkpt>
      <trkpt lat="43.64768" lon="3.82429">
        <ele>101</ele>
        <time>2021-04-24T10:21:41Z</time>
      </trkpt>
      <trkpt lat="43.64772" lon="3.82429">
        <ele>101</ele>
        <time>2021-04-24T10:21:42Z</time>
      </trkpt>
      <trkpt lat="43.64775" lon="3.82428">
        <ele>101</ele>
        <time>2021-04-24T10:21:43Z</time>
      </trkpt>
      <trkpt lat="43.64779" lon="3.82427">
        <ele>101</ele>
        <time>2021-04-24T10:21:44Z</time>
      </trkpt>
      <trkpt lat="43.64782" lon="3.82426">
        <ele>101</ele>
        <time>2021-04-24T10:21:45Z</time>
      </trkpt>
      <trkpt lat="43.64785" lon="3.82426">
        <ele>101</ele>
        <time>2021-04-24T10:21:46Z</time>
      </trkpt>
      <trkpt lat="43.64788" lon="3.82425">
        <ele>101</ele>
        <time>2021-04-24T10:21:47Z</time>
      </trkpt>
      <trkpt lat="43.64791" lon="3.82424">
        <ele>101</ele>
        <time>2021-04-24T10:21:48Z</time>
      </trkpt>
      <trkpt lat="43.64794" lon="3.82424">
        <ele>101</ele>
        <time>2021-04-24T10:21:49Z</time>
      </trkpt>
      <trkpt lat="43.64797" lon="3.82423">
        <ele>101</ele>
        <time>2021-04-24T10:21:50Z</time>
      </trkpt>
      <trkpt lat="43.648" lon="3.82423">
        <ele>103</ele>
        <time>2021-04-24T10:21:51Z</time>
      </trkpt>
      <trkpt lat="43.64802" lon="3.82422">
        <ele>103</ele>
        <time>2021-04-24T10:21:52Z</time>
      </trkpt>
      <trkpt lat="43.64805" lon="3.82422">
        <ele>103</ele>
        <time>2021-04-24T10:21:53Z</time>
      </trkpt>
      <trkpt lat="43.64807" lon="3.82421">
        <ele>103</ele>
        <time>2021-04-24T10:21:54Z</time>
      </trkpt>
      <trkpt lat="43.6481" lon="3.82421">
        <ele>103</ele>
        <time>2021-04-24T10:21:55Z</time>
      </trkpt>
      <trkpt lat="43.64812" lon="3.8242">
        <ele>103</ele>
        <time>2021-04-24T10:21:56Z</time>
      </trkpt>
      <trkpt lat="43.64815" lon="3.8242">
        <ele>103</ele>
        <time>2021-04-24T10:21:57Z</time>
      </trkpt>
      <trkpt lat="43.64818" lon="3.82419">
        <ele>103</ele>
        <time>2021-04-24T10:21:58Z</time>
      </trkpt>
      <trkpt lat="43.6482" lon="3.82419">
        <ele>103</ele>
        <time>2021-04-24T10:21:59Z</time>
      </trkpt>
      <trkpt lat="43.64823" lon="3.82419">
        <ele>103</ele>
        <time>2021-04-24T10:22:00Z</time>
      </trkpt>
      <trkpt lat="43.64826" lon="3.82418">
        <ele>104</ele>
        <time>2021-04-24T10:22:01Z</time>
      </trkpt>
      <trkpt lat="43.64829" lon="3.82418">
        <ele>104</ele>
        <time>2021-04-24T10:22:02Z</time>
      </trkpt>
      <trkpt lat="43.64831" lon="3.82418">
        <ele>104</ele>
        <time>2021-04-24T10:22:03Z</time>
      </trkpt>
      <trkpt lat="43.64834" lon="3.82417">
        <ele>104</ele>
        <time>2021-04-24T10:22:04Z</time>
      </trkpt>
      <trkpt lat="43.64837" lon="3.82417">
        <ele>104</ele>
        <time>2021-04-24T10:22:05Z</time>
      </trkpt>
      <trkpt lat="43.6484" lon="3.82416">
        <ele>104</ele>
        <time>2021-04-24T10:22:06Z</time>
      </trkpt>
      <trkpt lat="43.64843" lon="3.82416">
        <ele>104</ele>
        <time>2021-04-24T10:22:07Z</time>
      </trkpt>
      <trkpt lat="43.64845" lon="3.82415">
        <ele>104</ele>
        <time>2021-04-24T10:22:08Z</time>
      </trkpt>
      <trkpt lat="43.64848" lon="3.82415">
        <ele>104</ele>
        <time>2021-04-24T10:22:09Z</time>
      </trkpt>
      <trkpt lat="43.64851" lon="3.82414">
        <ele>104</ele>
        <time>2021-04-24T10:22:10Z</time>
      </trkpt>
      <trkpt lat="43.64853" lon="3.82413">
        <ele>105</ele>
        <time>2021-04-24T10:22:11Z</time>
      </trkpt>
      <trkpt lat="43.64856" lon="3.82413">
        <ele>105</ele>
        <time>2021-04-24T10:22:12Z</time>
      </trkpt>
      <trkpt lat="43.64859" lon="3.82413">
        <ele>105</ele>
        <time>2021-04-24T10:22:13Z</time>
      </trkpt>
      <trkpt lat="43.64861" lon="3.82413">
        <ele>105</ele>
        <time>2021-04-24T10:22:14Z</time>
      </trkpt>
      <trkpt lat="43.64864" lon="3.82413">
        <ele>105</ele>
        <time>2021-04-24T10:22:15Z</time>
      </trkpt>
      <trkpt lat="43.64867" lon="3.82414">
        <ele>105</ele>
        <time>2021-04-24T10:22:16Z</time>
      </trkpt>
      <trkpt lat="43.64869" lon="3.82415">
        <ele>105</ele>
        <time>2021-04-24T10:22:17Z</time>
      </trkpt>
      <trkpt lat="43.64872" lon="3.82417">
        <ele>105</ele>
        <time>2021-04-24T10:22:18Z</time>
      </trkpt>
      <trkpt lat="43.64874" lon="3.82419">
        <ele>105</ele>
        <time>2021-04-24T10:22:19Z</time>
      </trkpt>
      <trkpt lat="43.64877" lon="3.82422">
        <ele>105</ele>
        <time>2021-04-24T10:22:20Z</time>
      </trkpt>
      <trkpt lat="43.64879" lon="3.82425">
        <ele>107</ele>
        <time>2021-04-24T10:22:21Z</time>
      </trkpt>
      <trkpt lat="43.64881" lon="3.82427">
        <ele>107</ele>
        <time>2021-04-24T10:22:22Z</time>
      </trkpt>
      <trkpt lat="43.64883" lon="3.8243">
        <ele>107</ele>
        <time>2021-04-24T10:22:23Z</time>
      </trkpt>
      <trkpt lat="43.64884" lon="3.82432">
        <ele>107</ele>
        <time>2021-04-24T10:22:24Z</time>
      </trkpt>
      <trkpt lat="43.64886" lon="3.82434">
        <ele>107</ele>
        <time>2021-04-24T10:22:25Z</time>
      </trkpt>
      <trkpt lat="43.64887" lon="3.82437">
        <ele>107</ele>
        <time>2021-04-24T10:22:26Z</time>
      </trkpt>
      <trkpt lat="43.64889" lon="3.82439">
        <ele>107</ele>
        <time>2021-04-24T10:22:27Z</time>
      </trkpt>
      <trkpt lat="43.6489" lon="3.82442">
        <ele>107</ele>
        <time>2021-04-24T10:22:28Z</time>
      </trkpt>
      <trkpt lat="43.64892" lon="3.82444">
        <ele>107</ele>
        <time>2021-04-24T10:22:29Z</time>
      </trkpt>
      <trkpt lat="43.64894" lon="3.82446">
        <ele>107</ele>
        <time>2021-04-24T10:22:30Z</time>
      </trkpt>
      <trkpt lat="43.64896" lon="3.82448">
        <ele>108</ele>
        <time>2021-04-24T10:22:31Z</time>
      </trkpt>
      <trkpt lat="43.64898" lon="3.8245">
        <ele>108</ele>
        <time>2021-04-24T10:22:32Z</time>
      </trkpt>
      <trkpt lat="43.64899" lon="3.82452">
        <ele>108</ele>
        <time>2021-04-24T10:22:33Z</time>
      </trkpt>
      <trkpt lat="43.64901" lon="3.82454">
        <ele>108</ele>
        <time>2021-04-24T10:22:34Z</time>
      </trkpt>
      <trkpt lat="43.64903" lon="3.82457">
        <ele>108</ele>
        <time>2021-04-24T10:22:35Z</time>
      </trkpt>
      <trkpt lat="43.64905" lon="3.82459">
        <ele>108</ele>
        <time>2021-04-24T10:22:36Z</time>
      </trkpt>
      <trkpt lat="43.64907" lon="3.8246">
        <ele>108</ele>
        <time>2021-04-24T10:22:37Z</time>
      </trkpt>
      <trkpt lat="43.6491" lon="3.82461">
        <ele>108</ele>
        <time>2021-04-24T10:22:38Z</time>
      </trkpt>
      <trkpt lat="43.64912" lon="3.82462">
        <ele>108</ele>
        <time>2021-04-24T10:22:39Z</time>
      </trkpt>
      <trkpt lat="43.64915" lon="3.82462">
        <ele>108</ele>
        <time>2021-04-24T10:22:40Z</time>
      </trkpt>
      <trkpt lat="43.64918" lon="3.82462">
        <ele>109</ele>
        <time>2021-04-24T10:22:41Z</time>
      </trkpt>
      <trkpt lat="43.64921" lon="3.82462">
        <ele>109</ele>
        <time>2021-04-24T10:22:42Z</time>
      </trkpt>
      <trkpt lat="43.64924" lon="3.82461">
        <ele>109</ele>
        <time>2021-04-24T10:22:43Z</time>
      </trkpt>
      <trkpt lat="43.64926" lon="3.82459">
        <ele>109</ele>
        <time>2021-04-24T10:22:44Z</time>
      </trkpt>
      <trkpt lat="43.64929" lon="3.82456">
        <ele>109</ele>
        <time>2021-04-24T10:22:45Z</time>
      </trkpt>
      <trkpt lat="43.64931" lon="3.82453">
        <ele>109</ele>
        <time>2021-04-24T10:22:46Z</time>
      </trkpt>
      <trkpt lat="43.64934" lon="3.82451">
        <ele>109</ele>
        <time>2021-04-24T10:22:47Z</time>
      </trkpt>
      <trkpt lat="43.64937" lon="3.82448">
        <ele>109</ele>
        <time>2021-04-24T10:22:48Z</time>
      </trkpt>
      <trkpt lat="43.64941" lon="3.82446">
        <ele>109</ele>
        <time>2021-04-24T10:22:49Z</time>
      </trkpt>
      <trkpt lat="43.64944" lon="3.82445">
        <ele>109</ele>
        <time>2021-04-24T10:22:50Z</time>
      </trkpt>
      <trkpt lat="43.64948" lon="3.82444">
        <ele>109</ele>
        <time>2021-04-24T10:22:51Z</time>
      </trkpt>
      <trkpt lat="43.64952" lon="3.82443">
        <ele>109</ele>
        <time>2021-04-24T10:22:52Z</time>
      </trkpt>
      <trkpt lat="43.64956" lon="3.82442">
        <ele>109</ele>
        <time>2021-04-24T10:22:53Z</time>
      </trkpt>
      <trkpt lat="43.64959" lon="3.82443">
        <ele>109</ele>
        <time>2021-04-24T10:22:54Z</time>
      </trkpt>
      <trkpt lat="43.64963" lon="3.82443">
        <ele>109</ele>
        <time>2021-04-24T10:22:55Z</time>
      </trkpt>
      <trkpt lat="43.64966" lon="3.82443">
        <ele>109</ele>
        <time>2021-04-24T10:22:56Z</time>
      </trkpt>
      <trkpt lat="43.64969" lon="3.82444">
        <ele>109</ele>
        <time>2021-04-24T10:22:57Z</time>
      </trkpt>
      <trkpt lat="43.64971" lon="3.82445">
        <ele>109</ele>
        <time>2021-04-24T10:22:58Z</time>
      </trkpt>
      <trkpt lat="43.64973" lon="3.82446">
        <ele>109</ele>
        <time>2021-04-24T10:22:59Z</time>
      </trkpt>
      <trkpt lat="43.64975" lon="3.82446">
        <ele>109</ele>
        <time>2021-04-24T10:23:00Z</time>
      </trkpt>
      <trkpt lat="43.64979" lon="3.82446">
        <ele>109</ele>
        <time>2021-04-24T10:23:02Z</time>
      </trkpt>
      <trkpt lat="43.64982" lon="3.82448">
        <ele>109</ele>
        <time>2021-04-24T10:23:04Z</time>
      </trkpt>
      <trkpt lat="43.64985" lon="3.82449">
        <ele>109</ele>
        <time>2021-04-24T10:23:06Z</time>
      </trkpt>
      <trkpt lat="43.64988" lon="3.82448">
        <ele>109</ele>
        <time>2021-04-24T10:23:08Z</time>
      </trkpt>
      <trkpt lat="43.6499" lon="3.82447">
        <ele>109</ele>
        <time>2021-04-24T10:23:09Z</time>
      </trkpt>
      <trkpt lat="43.64991" lon="3.82445">
        <ele>109</ele>
        <time>2021-04-24T10:23:10Z</time>
      </trkpt>
      <trkpt lat="43.64993" lon="3.82444">
        <ele>113</ele>
        <time>2021-04-24T10:23:11Z</time>
      </trkpt>
      <trkpt lat="43.64994" lon="3.82441">
        <ele>113</ele>
        <time>2021-04-24T10:23:12Z</time>
      </trkpt>
      <trkpt lat="43.64995" lon="3.82439">
        <ele>113</ele>
        <time>2021-04-24T10:23:13Z</time>
      </trkpt>
      <trkpt lat="43.64996" lon="3.82436">
        <ele>113</ele>
        <time>2021-04-24T10:23:14Z</time>
      </trkpt>
      <trkpt lat="43.64998" lon="3.82434">
        <ele>113</ele>
        <time>2021-04-24T10:23:15Z</time>
      </trkpt>
      <trkpt lat="43.64999" lon="3.82431">
        <ele>113</ele>
        <time>2021-04-24T10:23:16Z</time>
      </trkpt>
      <trkpt lat="43.65001" lon="3.82429">
        <ele>113</ele>
        <time>2021-04-24T10:23:17Z</time>
      </trkpt>
      <trkpt lat="43.65003" lon="3.82427">
        <ele>113</ele>
        <time>2021-04-24T10:23:18Z</time>
      </trkpt>
      <trkpt lat="43.65004" lon="3.82425">
        <ele>113</ele>
        <time>2021-04-24T10:23:19Z</time>
      </trkpt>
      <trkpt lat="43.65006" lon="3.82423">
        <ele>113</ele>
        <time>2021-04-24T10:23:20Z</time>
      </trkpt>
      <trkpt lat="43.65008" lon="3.82422">
        <ele>114</ele>
        <time>2021-04-24T10:23:21Z</time>
      </trkpt>
      <trkpt lat="43.65009" lon="3.8242">
        <ele>114</ele>
        <time>2021-04-24T10:23:22Z</time>
      </trkpt>
      <trkpt lat="43.65011" lon="3.82417">
        <ele>114</ele>
        <time>2021-04-24T10:23:23Z</time>
      </trkpt>
      <trkpt lat="43.65013" lon="3.82415">
        <ele>114</ele>
        <time>2021-04-24T10:23:24Z</time>
      </trkpt>
      <trkpt lat="43.65015" lon="3.82414">
        <ele>114</ele>
        <time>2021-04-24T10:23:25Z</time>
      </trkpt>
      <trkpt lat="43.65017" lon="3.82413">
        <ele>114</ele>
        <time>2021-04-24T10:23:26Z</time>
      </trkpt>
      <trkpt lat="43.65019" lon="3.82412">
        <ele>114</ele>
        <time>2021-04-24T10:23:27Z</time>
      </trkpt>
      <trkpt lat="43.65022" lon="3.82412">
        <ele>114</ele>
        <time>2021-04-24T10:23:28Z</time>
      </trkpt>
      <trkpt lat="43.65024" lon="3.82411">
        <ele>114</ele>
        <time>2021-04-24T10:23:29Z</time>
      </trkpt>
      <trkpt lat="43.65026" lon="3.82411">
        <ele>114</ele>
        <time>2021-04-24T10:23:30Z</time>
      </trkpt>
      <trkpt lat="43.65028" lon="3.8241">
        <ele>116</ele>
        <time>2021-04-24T10:23:31Z</time>
      </trkpt>
      <trkpt lat="43.6503" lon="3.8241">
        <ele>116</ele>
        <time>2021-04-24T10:23:32Z</time>
      </trkpt>
      <trkpt lat="43.65033" lon="3.82409">
        <ele>116</ele>
        <time>2021-04-24T10:23:33Z</time>
      </trkpt>
      <trkpt lat="43.65035" lon="3.82408">
        <ele>116</ele>
        <time>2021-04-24T10:23:34Z</time>
      </trkpt>
      <trkpt lat="43.65038" lon="3.82408">
        <ele>116</ele>
        <time>2021-04-24T10:23:35Z</time>
      </trkpt>
      <trkpt lat="43.65041" lon="3.82407">
        <ele>116</ele>
        <time>2021-04-24T10:23:36Z</time>
      </trkpt>
      <trkpt lat="43.65043" lon="3.82406">
        <ele>116</ele>
        <time>2021-04-24T10:23:37Z</time>
      </trkpt>
      <trkpt lat="43.65046" lon="3.82406">
        <ele>116</ele>
        <time>2021-04-24T10:23:38Z</time>
      </trkpt>
      <trkpt lat="43.65049" lon="3.82405">
        <ele>116</ele>
        <time>2021-04-24T10:23:39Z</time>
      </trkpt>
      <trkpt lat="43.65051" lon="3.82405">
        <ele>116</ele>
        <time>2021-04-24T10:23:40Z</time>
      </trkpt>
      <trkpt lat="43.65054" lon="3.82404">
        <ele>117</ele>
        <time>2021-04-24T10:23:41Z</time>
      </trkpt>
      <trkpt lat="43.65056" lon="3.82404">
        <ele>117</ele>
        <time>2021-04-24T10:23:42Z</time>
      </trkpt>
      <trkpt lat="43.65059" lon="3.82404">
        <ele>117</ele>
        <time>2021-04-24T10:23:43Z</time>
      </trkpt>
      <trkpt lat="43.65061" lon="3.82403">
        <ele>117</ele>
        <time>2021-04-24T10:23:44Z</time>
      </trkpt>
      <trkpt lat="43.65063" lon="3.82402">
        <ele>117</ele>
        <time>2021-04-24T10:23:45Z</time>
      </trkpt>
      <trkpt lat="43.65065" lon="3.824">
        <ele>117</ele>
        <time>2021-04-24T10:23:46Z</time>
      </trkpt>
      <trkpt lat="43.65066" lon="3.82397">
        <ele>117</ele>
        <time>2021-04-24T10:23:47Z</time>
      </trkpt>
      <trkpt lat="43.65066" lon="3.82393">
        <ele>117</ele>
        <time>2021-04-24T10:23:48Z</time>
      </trkpt>
      <trkpt lat="43.65067" lon="3.82389">
        <ele>117</ele>
        <time>2021-04-24T10:23:49Z</time>
      </trkpt>
      <trkpt lat="43.65068" lon="3.82384">
        <ele>117</ele>
        <time>2021-04-24T10:23:50Z</time>
      </trkpt>
      <trkpt lat="43.65069" lon="3.8238">
        <ele>118</ele>
        <time>2021-04-24T10:23:51Z</time>
      </trkpt>
      <trkpt lat="43.6507" lon="3.82375">
        <ele>118</ele>
        <time>2021-04-24T10:23:52Z</time>
      </trkpt>
      <trkpt lat="43.65072" lon="3.82371">
        <ele>118</ele>
        <time>2021-04-24T10:23:53Z</time>
      </trkpt>
      <trkpt lat="43.65074" lon="3.82366">
        <ele>118</ele>
        <time>2021-04-24T10:23:54Z</time>
      </trkpt>
      <trkpt lat="43.65076" lon="3.82362">
        <ele>118</ele>
        <time>2021-04-24T10:23:55Z</time>
      </trkpt>
      <trkpt lat="43.65079" lon="3.82359">
        <ele>118</ele>
        <time>2021-04-24T10:23:56Z</time>
      </trkpt>
      <trkpt lat="43.65082" lon="3.82356">
        <ele>118</ele>
        <time>2021-04-24T10:23:57Z</time>
      </trkpt>
      <trkpt lat="43.65085" lon="3.82354">
        <ele>118</ele>
        <time>2021-04-24T10:23:58Z</time>
      </trkpt>
      <trkpt lat="43.65088" lon="3.82352">
        <ele>118</ele>
        <time>2021-04-24T10:23:59Z</time>
      </trkpt>
      <trkpt lat="43.65091" lon="3.82351">
        <ele>118</ele>
        <time>2021-04-24T10:24:00Z</time>
      </trkpt>
      <trkpt lat="43.65094" lon="3.8235">
        <ele>118</ele>
        <time>2021-04-24T10:24:01Z</time>
      </trkpt>
      <trkpt lat="43.65097" lon="3.8235">
        <ele>118</ele>
        <time>2021-04-24T10:24:02Z</time>
      </trkpt>
      <trkpt lat="43.651" lon="3.82351">
        <ele>118</ele>
        <time>2021-04-24T10:24:03Z</time>
      </trkpt>
      <trkpt lat="43.65102" lon="3.82351">
        <ele>118</ele>
        <time>2021-04-24T10:24:04Z</time>
      </trkpt>
      <trkpt lat="43.65105" lon="3.82352">
        <ele>118</ele>
        <time>2021-04-24T10:24:05Z</time>
      </trkpt>
      <trkpt lat="43.65107" lon="3.82353">
        <ele>118</ele>
        <time>2021-04-24T10:24:06Z</time>
      </trkpt>
      <trkpt lat="43.6511" lon="3.82354">
        <ele>118</ele>
        <time>2021-04-24T10:24:07Z</time>
      </trkpt>
      <trkpt lat="43.65112" lon="3.82355">
        <ele>118</ele>
        <time>2021-04-24T10:24:08Z</time>
      </trkpt>
      <trkpt lat="43.65115" lon="3.82356">
        <ele>118</ele>
        <time>2021-04-24T10:24:09Z</time>
      </trkpt>
      <trkpt lat="43.65117" lon="3.82358">
        <ele>118</ele>
        <time>2021-04-24T10:24:10Z</time>
      </trkpt>
      <trkpt lat="43.6512" lon="3.8236">
        <ele>119</ele>
        <time>2021-04-24T10:24:11Z</time>
      </trkpt>
      <trkpt lat="43.65122" lon="3.82361">
        <ele>119</ele>
        <time>2021-04-24T10:24:12Z</time>
      </trkpt>
      <trkpt lat="43.65125" lon="3.82363">
        <ele>119</ele>
        <time>2021-04-24T10:24:13Z</time>
      </trkpt>
      <trkpt lat="43.65127" lon="3.82365">
        <ele>119</ele>
        <time>2021-04-24T10:24:14Z</time>
      </trkpt>
      <trkpt lat="43.6513" lon="3.82368">
        <ele>119</ele>
        <time>2021-04-24T10:24:15Z</time>
      </trkpt>
      <trkpt lat="43.65132" lon="3.82371">
        <ele>119</ele>
        <time>2021-04-24T10:24:16Z</time>
      </trkpt>
      <trkpt lat="43.65135" lon="3.82374">
        <ele>119</ele>
        <time>2021-04-24T10:24:17Z</time>
      </trkpt>
      <trkpt lat="43.65137" lon="3.82378">
        <ele>119</ele>
        <time>2021-04-24T10:24:18Z</time>
      </trkpt>
      <trkpt lat="43.65139" lon="3.82382">
        <ele>119</ele>
        <time>2021-04-24T10:24:19Z</time>
      </trkpt>
      <trkpt lat="43.6514" lon="3.82386">
        <ele>119</ele>
        <time>2021-04-24T10:24:20Z</time>
      </trkpt>
      <trkpt lat="43.65142" lon="3.82389">
        <ele>120</ele>
        <time>2021-04-24T10:24:21Z</time>
      </trkpt>
      <trkpt lat="43.65143" lon="3.82393">
        <ele>120</ele>
        <time>2021-04-24T10:24:22Z</time>
      </trkpt>
      <trkpt lat="43.65145" lon="3.82397">
        <ele>120</ele>
        <time>2021-04-24T10:24:23Z</time>
      </trkpt>
      <trkpt lat="43.65146" lon="3.82401">
        <ele>120</ele>
        <time>2021-04-24T10:24:24Z</time>
      </trkpt>
      <trkpt lat="43.65148" lon="3.82405">
        <ele>120</ele>
        <time>2021-04-24T10:24:25Z</time>
      </trkpt>
      <trkpt lat="43.6515" lon="3.8241">
        <ele>120</ele>
        <time>2021-04-24T10:24:26Z</time>
      </trkpt>
      <trkpt lat="43.65153" lon="3.82414">
        <ele>120</ele>
        <time>2021-04-24T10:24:27Z</time>
      </trkpt>
      <trkpt lat="43.65155" lon="3.82419">
        <ele>120</ele>
        <time>2021-04-24T10:24:28Z</time>
      </trkpt>
      <trkpt lat="43.65157" lon="3.82425">
        <ele>120</ele>
        <time>2021-04-24T10:24:29Z</time>
      </trkpt>
      <trkpt lat="43.65158" lon="3.82431">
        <ele>120</ele>
        <time>2021-04-24T10:24:30Z</time>
      </trkpt>
      <trkpt lat="43.65159" lon="3.82437">
        <ele>120</ele>
        <time>2021-04-24T10:24:31Z</time>
      </trkpt>
      <trkpt lat="43.6516" lon="3.82443">
        <ele>120</ele>
        <time>2021-04-24T10:24:32Z</time>
      </trkpt>
      <trkpt lat="43.65161" lon="3.82449">
        <ele>120</ele>
        <time>2021-04-24T10:24:33Z</time>
      </trkpt>
      <trkpt lat="43.65161" lon="3.82456">
        <ele>120</ele>
        <time>2021-04-24T10:24:34Z</time>
      </trkpt>
      <trkpt lat="43.6516" lon="3.82464">
        <ele>120</ele>
        <time>2021-04-24T10:24:35Z</time>
      </trkpt>
      <trkpt lat="43.65159" lon="3.8247">
        <ele>120</ele>
        <time>2021-04-24T10:24:36Z</time>
      </trkpt>
      <trkpt lat="43.65157" lon="3.82477">
        <ele>120</ele>
        <time>2021-04-24T10:24:37Z</time>
      </trkpt>
      <trkpt lat="43.65156" lon="3.82482">
        <ele>120</ele>
        <time>2021-04-24T10:24:38Z</time>
      </trkpt>
      <trkpt lat="43.65157" lon="3.82489">
        <ele>120</ele>
        <time>2021-04-24T10:24:39Z</time>
      </trkpt>
      <trkpt lat="43.65159" lon="3.82495">
        <ele>120</ele>
        <time>2021-04-24T10:24:40Z</time>
      </trkpt>
      <trkpt lat="43.6516" lon="3.82502">
        <ele>118</ele>
        <time>2021-04-24T10:24:41Z</time>
      </trkpt>
      <trkpt lat="43.65162" lon="3.82509">
        <ele>118</ele>
        <time>2021-04-24T10:24:42Z</time>
      </trkpt>
      <trkpt lat="43.65164" lon="3.82516">
        <ele>118</ele>
        <time>2021-04-24T10:24:43Z</time>
      </trkpt>
      <trkpt lat="43.65167" lon="3.82521">
        <ele>118</ele>
        <time>2021-04-24T10:24:44Z</time>
      </trkpt>
      <trkpt lat="43.65171" lon="3.82527">
        <ele>118</ele>
        <time>2021-04-24T10:24:45Z</time>
      </trkpt>
      <trkpt lat="43.65175" lon="3.82532">
        <ele>118</ele>
        <time>2021-04-24T10:24:46Z</time>
      </trkpt>
      <trkpt lat="43.65179" lon="3.82537">
        <ele>118</ele>
        <time>2021-04-24T10:24:47Z</time>
      </trkpt>
      <trkpt lat="43.65183" lon="3.82543">
        <ele>118</ele>
        <time>2021-04-24T10:24:48Z</time>
      </trkpt>
      <trkpt lat="43.65187" lon="3.82548">
        <ele>118</ele>
        <time>2021-04-24T10:24:49Z</time>
      </trkpt>
      <trkpt lat="43.6519" lon="3.82553">
        <ele>118</ele>
        <time>2021-04-24T10:24:50Z</time>
      </trkpt>
      <trkpt lat="43.65193" lon="3.82559">
        <ele>117</ele>
        <time>2021-04-24T10:24:51Z</time>
      </trkpt>
      <trkpt lat="43.65196" lon="3.82564">
        <ele>117</ele>
        <time>2021-04-24T10:24:52Z</time>
      </trkpt>
      <trkpt lat="43.65199" lon="3.82569">
        <ele>117</ele>
        <time>2021-04-24T10:24:53Z</time>
      </trkpt>
      <trkpt lat="43.65201" lon="3.82573">
        <ele>117</ele>
        <time>2021-04-24T10:24:54Z</time>
      </trkpt>
      <trkpt lat="43.65204" lon="3.82577">
        <ele>117</ele>
        <time>2021-04-24T10:24:55Z</time>
      </trkpt>
      <trkpt lat="43.65207" lon="3.82581">
        <ele>117</ele>
        <time>2021-04-24T10:24:56Z</time>
      </trkpt>
      <trkpt lat="43.65209" lon="3.82585">
        <ele>117</ele>
        <time>2021-04-24T10:24:57Z</time>
      </trkpt>
      <trkpt lat="43.65212" lon="3.82589">
        <ele>117</ele>
        <time>2021-04-24T10:24:58Z</time>
      </trkpt>
      <trkpt lat="43.65215" lon="3.82593">
        <ele>117</ele>
        <time>2021-04-24T10:24:59Z</time>
      </trkpt>
      <trkpt lat="43.65219" lon="3.82596">
        <ele>117</ele>
        <time>2021-04-24T10:25:00Z</time>
      </trkpt>
      <trkpt lat="43.65222" lon="3.82598">
        <ele>118</ele>
        <time>2021-04-24T10:25:01Z</time>
      </trkpt>
      <trkpt lat="43.65226" lon="3.826">
        <ele>118</ele>
        <time>2021-04-24T10:25:02Z</time>
      </trkpt>
      <trkpt lat="43.6523" lon="3.82602">
        <ele>118</ele>
        <time>2021-04-24T10:25:03Z</time>
      </trkpt>
      <trkpt lat="43.65233" lon="3.82605">
        <ele>118</ele>
        <time>2021-04-24T10:25:04Z</time>
      </trkpt>
      <trkpt lat="43.65236" lon="3.82609">
        <ele>118</ele>
        <time>2021-04-24T10:25:05Z</time>
      </trkpt>
      <trkpt lat="43.65238" lon="3.82612">
        <ele>118</ele>
        <time>2021-04-24T10:25:06Z</time>
      </trkpt>
      <trkpt lat="43.6524" lon="3.82615">
        <ele>118</ele>
        <time>2021-04-24T10:25:07Z</time>
      </trkpt>
      <trkpt lat="43.65242" lon="3.82617">
        <ele>118</ele>
        <time>2021-04-24T10:25:08Z</time>
      </trkpt>
      <trkpt lat="43.65244" lon="3.82618">
        <ele>118</ele>
        <time>2021-04-24T10:25:09Z</time>
      </trkpt>
      <trkpt lat="43.65246" lon="3.8262">
        <ele>118</ele>
        <time>2021-04-24T10:25:10Z</time>
      </trkpt>
      <trkpt lat="43.65248" lon="3.82622">
        <ele>119</ele>
        <time>2021-04-24T10:25:11Z</time>
      </trkpt>
      <trkpt lat="43.65249" lon="3.82624">
        <ele>119</ele>
        <time>2021-04-24T10:25:12Z</time>
      </trkpt>
      <trkpt lat="43.65251" lon="3.82626">
        <ele>119</ele>
        <time>2021-04-24T10:25:13Z</time>
      </trkpt>
      <trkpt lat="43.65253" lon="3.82628">
        <ele>119</ele>
        <time>2021-04-24T10:25:14Z</time>
      </trkpt>
      <trkpt lat="43.65255" lon="3.8263">
        <ele>119</ele>
        <time>2021-04-24T10:25:15Z</time>
      </trkpt>
      <trkpt lat="43.65257" lon="3.82632">
        <ele>119</ele>
        <time>2021-04-24T10:25:16Z</time>
      </trkpt>
      <trkpt lat="43.65259" lon="3.82635">
        <ele>119</ele>
        <time>2021-04-24T10:25:17Z</time>
      </trkpt>
      <trkpt lat="43.65261" lon="3.82637">
        <ele>119</ele>
        <time>2021-04-24T10:25:18Z</time>
      </trkpt>
      <trkpt lat="43.65263" lon="3.8264">
        <ele>119</ele>
        <time>2021-04-24T10:25:19Z</time>
      </trkpt>
      <trkpt lat="43.65265" lon="3.82643">
        <ele>119</ele>
        <time>2021-04-24T10:25:20Z</time>
      </trkpt>
      <trkpt lat="43.65266" lon="3.82646">
        <ele>120</ele>
        <time>2021-04-24T10:25:21Z</time>
      </trkpt>
      <trkpt lat="43.65267" lon="3.82649">
        <ele>120</ele>
        <time>2021-04-24T10:25:22Z</time>
      </trkpt>
      <trkpt lat="43.65268" lon="3.82652">
        <ele>120</ele>
        <time>2021-04-24T10:25:23Z</time>
      </trkpt>
      <trkpt lat="43.6527" lon="3.82654">
        <ele>120</ele>
        <time>2021-04-24T10:25:24Z</time>
      </trkpt>
      <trkpt lat="43.65272" lon="3.82655">
        <ele>120</ele>
        <time>2021-04-24T10:25:25Z</time>
      </trkpt>
      <trkpt lat="43.65274" lon="3.82657">
        <ele>120</ele>
        <time>2021-04-24T10:25:26Z</time>
      </trkpt>
      <trkpt lat="43.65276" lon="3.82659">
        <ele>120</ele>
        <time>2021-04-24T10:25:27Z</time>
      </trkpt>
      <trkpt lat="43.65279" lon="3.82661">
        <ele>120</ele>
        <time>2021-04-24T10:25:28Z</time>
      </trkpt>
      <trkpt lat="43.65282" lon="3.82663">
        <ele>120</ele>
        <time>2021-04-24T10:25:29Z</time>
      </trkpt>
      <trkpt lat="43.65284" lon="3.82665">
        <ele>120</ele>
        <time>2021-04-24T10:25:30Z</time>
      </trkpt>
      <trkpt lat="43.65287" lon="3.82667">
        <ele>121</ele>
        <time>2021-04-24T10:25:31Z</time>
      </trkpt>
      <trkpt lat="43.6529" lon="3.82669">
        <ele>121</ele>
        <time>2021-04-24T10:25:32Z</time>
      </trkpt>
      <trkpt lat="43.65293" lon="3.82671">
        <ele>121</ele>
        <time>2021-04-24T10:25:33Z</time>
      </trkpt>
      <trkpt lat="43.65296" lon="3.82673">
        <ele>121</ele>
        <time>2021-04-24T10:25:34Z</time>
      </trkpt>
      <trkpt lat="43.65299" lon="3.82675">
        <ele>121</ele>
        <time>2021-04-24T10:25:35Z</time>
      </trkpt>
      <trkpt lat="43.65302" lon="3.82677">
        <ele>121</ele>
        <time>2021-04-24T10:25:36Z</time>
      </trkpt>
      <trkpt lat="43.65305" lon="3.8268">
        <ele>121</ele>
        <time>2021-04-24T10:25:37Z</time>
      </trkpt>
      <trkpt lat="43.65308" lon="3.82682">
        <ele>121</ele>
        <time>2021-04-24T10:25:38Z</time>
      </trkpt>
      <trkpt lat="43.65311" lon="3.82685">
        <ele>121</ele>
        <time>2021-04-24T10:25:39Z</time>
      </trkpt>
      <trkpt lat="43.65314" lon="3.82688">
        <ele>121</ele>
        <time>2021-04-24T10:25:40Z</time>
      </trkpt>
      <trkpt lat="43.65316" lon="3.8269">
        <ele>122</ele>
        <time>2021-04-24T10:25:41Z</time>
      </trkpt>
      <trkpt lat="43.65319" lon="3.82692">
        <ele>122</ele>
        <time>2021-04-24T10:25:42Z</time>
      </trkpt>
      <trkpt lat="43.65322" lon="3.82694">
        <ele>122</ele>
        <time>2021-04-24T10:25:43Z</time>
      </trkpt>
      <trkpt lat="43.65325" lon="3.82696">
        <ele>122</ele>
        <time>2021-04-24T10:25:44Z</time>
      </trkpt>
      <trkpt lat="43.65328" lon="3.82698">
        <ele>122</ele>
        <time>2021-04-24T10:25:45Z</time>
      </trkpt>
      <trkpt lat="43.65332" lon="3.82701">
        <ele>122</ele>
        <time>2021-04-24T10:25:46Z</time>
      </trkpt>
      <trkpt lat="43.65335" lon="3.82702">
        <ele>122</ele>
        <time>2021-04-24T10:25:47Z</time>
      </trkpt>
      <trkpt lat="43.65338" lon="3.82704">
        <ele>122</ele>
        <time>2021-04-24T10:25:48Z</time>
      </trkpt>
      <trkpt lat="43.65341" lon="3.82705">
        <ele>122</ele>
        <time>2021-04-24T10:25:49Z</time>
      </trkpt>
      <trkpt lat="43.65344" lon="3.82706">
        <ele>122</ele>
        <time>2021-04-24T10:25:50Z</time>
      </trkpt>
      <trkpt lat="43.65348" lon="3.82706">
        <ele>123</ele>
        <time>2021-04-24T10:25:51Z</time>
      </trkpt>
      <trkpt lat="43.65351" lon="3.82708">
        <ele>123</ele>
        <time>2021-04-24T10:25:52Z</time>
      </trkpt>
      <trkpt lat="43.65353" lon="3.82711">
        <ele>123</ele>
        <time>2021-04-24T10:25:53Z</time>
      </trkpt>
      <trkpt lat="43.65356" lon="3.82714">
        <ele>123</ele>
        <time>2021-04-24T10:25:54Z</time>
      </trkpt>
      <trkpt lat="43.65359" lon="3.82716">
        <ele>123</ele>
        <time>2021-04-24T10:25:55Z</time>
      </trkpt>
      <trkpt lat="43.65363" lon="3.82717">
        <ele>123</ele>
        <time>2021-04-24T10:25:56Z</time>
      </trkpt>
      <trkpt lat="43.65367" lon="3.82718">
        <ele>123</ele>
        <time>2021-04-24T10:25:57Z</time>
      </trkpt>
      <trkpt lat="43.65371" lon="3.82718">
        <ele>123</ele>
        <time>2021-04-24T10:25:58Z</time>
      </trkpt>
      <trkpt lat="43.65374" lon="3.82719">
        <ele>123</ele>
        <time>2021-04-24T10:25:59Z</time>
      </trkpt>
      <trkpt lat="43.65378" lon="3.82721">
        <ele>123</ele>
        <time>2021-04-24T10:26:00Z</time>
      </trkpt>
      <trkpt lat="43.65382" lon="3.82722">
        <ele>123</ele>
        <time>2021-04-24T10:26:01Z</time>
      </trkpt>
      <trkpt lat="43.65385" lon="3.82724">
        <ele>123</ele>
        <time>2021-04-24T10:26:02Z</time>
      </trkpt>
      <trkpt lat="43.65388" lon="3.82726">
        <ele>123</ele>
        <time>2021-04-24T10:26:03Z</time>
      </trkpt>
      <trkpt lat="43.65391" lon="3.82727">
        <ele>123</ele>
        <time>2021-04-24T10:26:04Z</time>
      </trkpt>
      <trkpt lat="43.65394" lon="3.82729">
        <ele>123</ele>
        <time>2021-04-24T10:26:05Z</time>
      </trkpt>
      <trkpt lat="43.65397" lon="3.82732">
        <ele>123</ele>
        <time>2021-04-24T10:26:06Z</time>
      </trkpt>
      <trkpt lat="43.65399" lon="3.82734">
        <ele>123</ele>
        <time>2021-04-24T10:26:07Z</time>
      </trkpt>
      <trkpt lat="43.65402" lon="3.82736">
        <ele>123</ele>
        <time>2021-04-24T10:26:08Z</time>
      </trkpt>
      <trkpt lat="43.65405" lon="3.82738">
        <ele>123</ele>
        <time>2021-04-24T10:26:09Z</time>
      </trkpt>
      <trkpt lat="43.65408" lon="3.82741">
        <ele>123</ele>
        <time>2021-04-24T10:26:10Z</time>
      </trkpt>
      <trkpt lat="43.65411" lon="3.82743">
        <ele>124</ele>
        <time>2021-04-24T10:26:11Z</time>
      </trkpt>
      <trkpt lat="43.65414" lon="3.82746">
        <ele>124</ele>
        <time>2021-04-24T10:26:12Z</time>
      </trkpt>
      <trkpt lat="43.65417" lon="3.82748">
        <ele>124</ele>
        <time>2021-04-24T10:26:13Z</time>
      </trkpt>
      <trkpt lat="43.65419" lon="3.82751">
        <ele>124</ele>
        <time>2021-04-24T10:26:14Z</time>
      </trkpt>
      <trkpt lat="43.65422" lon="3.82754">
        <ele>124</ele>
        <time>2021-04-24T10:26:15Z</time>
      </trkpt>
      <trkpt lat="43.65425" lon="3.82757">
        <ele>124</ele>
        <time>2021-04-24T10:26:16Z</time>
      </trkpt>
      <trkpt lat="43.65427" lon="3.8276">
        <ele>124</ele>
        <time>2021-04-24T10:26:17Z</time>
      </trkpt>
      <trkpt lat="43.6543" lon="3.82763">
        <ele>124</ele>
        <time>2021-04-24T10:26:18Z</time>
      </trkpt>
      <trkpt lat="43.65433" lon="3.82766">
        <ele>124</ele>
        <time>2021-04-24T10:26:19Z</time>
      </trkpt>
      <trkpt lat="43.65436" lon="3.82767">
        <ele>124</ele>
        <time>2021-04-24T10:26:20Z</time>
      </trkpt>
      <trkpt lat="43.65439" lon="3.82768">
        <ele>124</ele>
        <time>2021-04-24T10:26:21Z</time>
      </trkpt>
      <trkpt lat="43.65442" lon="3.82768">
        <ele>124</ele>
        <time>2021-04-24T10:26:22Z</time>
      </trkpt>
      <trkpt lat="43.65445" lon="3.82769">
        <ele>124</ele>
        <time>2021-04-24T10:26:23Z</time>
      </trkpt>
      <trkpt lat="43.65448" lon="3.82769">
        <ele>124</ele>
        <time>2021-04-24T10:26:24Z</time>
      </trkpt>
      <trkpt lat="43.65451" lon="3.82769">
        <ele>124</ele>
        <time>2021-04-24T10:26:25Z</time>
      </trkpt>
      <trkpt lat="43.65455" lon="3.8277">
        <ele>124</ele>
        <time>2021-04-24T10:26:26Z</time>
      </trkpt>
      <trkpt lat="43.65458" lon="3.82771">
        <ele>124</ele>
        <time>2021-04-24T10:26:27Z</time>
      </trkpt>
      <trkpt lat="43.65461" lon="3.82773">
        <ele>124</ele>
        <time>2021-04-24T10:26:28Z</time>
      </trkpt>
      <trkpt lat="43.65464" lon="3.82776">
        <ele>124</ele>
        <time>2021-04-24T10:26:29Z</time>
      </trkpt>
      <trkpt lat="43.65466" lon="3.8278">
        <ele>124</ele>
        <time>2021-04-24T10:26:30Z</time>
      </trkpt>
      <trkpt lat="43.65468" lon="3.82783">
        <ele>124</ele>
        <time>2021-04-24T10:26:31Z</time>
      </trkpt>
      <trkpt lat="43.65471" lon="3.82787">
        <ele>124</ele>
        <time>2021-04-24T10:26:32Z</time>
      </trkpt>
      <trkpt lat="43.65473" lon="3.82791">
        <ele>124</ele>
        <time>2021-04-24T10:26:33Z</time>
      </trkpt>
      <trkpt lat="43.65475" lon="3.82794">
        <ele>124</ele>
        <time>2021-04-24T10:26:34Z</time>
      </trkpt>
      <trkpt lat="43.65478" lon="3.82798">
        <ele>124</ele>
        <time>2021-04-24T10:26:35Z</time>
      </trkpt>
      <trkpt lat="43.6548" lon="3.82802">
        <ele>124</ele>
        <time>2021-04-24T10:26:36Z</time>
      </trkpt>
      <trkpt lat="43.65483" lon="3.82804">
        <ele>124</ele>
        <time>2021-04-24T10:26:37Z</time>
      </trkpt>
      <trkpt lat="43.65486" lon="3.82806">
        <ele>124</ele>
        <time>2021-04-24T10:26:38Z</time>
      </trkpt>
      <trkpt lat="43.6549" lon="3.82809">
        <ele>124</ele>
        <time>2021-04-24T10:26:39Z</time>
      </trkpt>
      <trkpt lat="43.65493" lon="3.82812">
        <ele>124</ele>
        <time>2021-04-24T10:26:40Z</time>
      </trkpt>
      <trkpt lat="43.65495" lon="3.82815">
        <ele>125</ele>
        <time>2021-04-24T10:26:41Z</time>
      </trkpt>
      <trkpt lat="43.65496" lon="3.82818">
        <ele>125</ele>
        <time>2021-04-24T10:26:42Z</time>
      </trkpt>
      <trkpt lat="43.65497" lon="3.82822">
        <ele>125</ele>
        <time>2021-04-24T10:26:43Z</time>
      </trkpt>
      <trkpt lat="43.65498" lon="3.82826">
        <ele>125</ele>
        <time>2021-04-24T10:26:44Z</time>
      </trkpt>
      <trkpt lat="43.65502" lon="3.82835">
        <ele>125</ele>
        <time>2021-04-24T10:26:45Z</time>
      </trkpt>
      <trkpt lat="43.65503" lon="3.82838">
        <ele>125</ele>
        <time>2021-04-24T10:26:46Z</time>
      </trkpt>
      <trkpt lat="43.65504" lon="3.82842">
        <ele>125</ele>
        <time>2021-04-24T10:26:47Z</time>
      </trkpt>
      <trkpt lat="43.65504" lon="3.82845">
        <ele>125</ele>
        <time>2021-04-24T10:26:48Z</time>
      </trkpt>
      <trkpt lat="43.65504" lon="3.82849">
        <ele>125</ele>
        <time>2021-04-24T10:26:49Z</time>
      </trkpt>
      <trkpt lat="43.65503" lon="3.82853">
        <ele>126</ele>
        <time>2021-04-24T10:26:51Z</time>
      </trkpt>
      <trkpt lat="43.65502" lon="3.82856">
        <ele>126</ele>
        <time>2021-04-24T10:26:52Z</time>
      </trkpt>
      <trkpt lat="43.655" lon="3.82858">
        <ele>126</ele>
        <time>2021-04-24T10:26:53Z</time>
      </trkpt>
      <trkpt lat="43.65498" lon="3.8286">
        <ele>126</ele>
        <time>2021-04-24T10:26:54Z</time>
      </trkpt>
      <trkpt lat="43.65496" lon="3.82862">
        <ele>126</ele>
        <time>2021-04-24T10:26:55Z</time>
      </trkpt>
      <trkpt lat="43.65494" lon="3.82864">
        <ele>126</ele>
        <time>2021-04-24T10:26:56Z</time>
      </trkpt>
      <trkpt lat="43.65493" lon="3.82866">
        <ele>126</ele>
        <time>2021-04-24T10:26:57Z</time>
      </trkpt>
      <trkpt lat="43.65491" lon="3.82868">
        <ele>126</ele>
        <time>2021-04-24T10:26:58Z</time>
      </trkpt>
      <trkpt lat="43.65488" lon="3.82869">
        <ele>126</ele>
        <time>2021-04-24T10:26:59Z</time>
      </trkpt>
      <trkpt lat="43.65486" lon="3.82871">
        <ele>126</ele>
        <time>2021-04-24T10:27:00Z</time>
      </trkpt>
      <trkpt lat="43.65484" lon="3.82873">
        <ele>128</ele>
        <time>2021-04-24T10:27:01Z</time>
      </trkpt>
      <trkpt lat="43.65482" lon="3.82876">
        <ele>128</ele>
        <time>2021-04-24T10:27:02Z</time>
      </trkpt>
      <trkpt lat="43.6548" lon="3.82879">
        <ele>128</ele>
        <time>2021-04-24T10:27:03Z</time>
      </trkpt>
      <trkpt lat="43.65479" lon="3.82883">
        <ele>128</ele>
        <time>2021-04-24T10:27:04Z</time>
      </trkpt>
      <trkpt lat="43.65477" lon="3.82886">
        <ele>128</ele>
        <time>2021-04-24T10:27:05Z</time>
      </trkpt>
      <trkpt lat="43.65475" lon="3.82889">
        <ele>128</ele>
        <time>2021-04-24T10:27:06Z</time>
      </trkpt>
      <trkpt lat="43.65473" lon="3.82893">
        <ele>128</ele>
        <time>2021-04-24T10:27:07Z</time>
      </trkpt>
      <trkpt lat="43.65472" lon="3.82895">
        <ele>128</ele>
        <time>2021-04-24T10:27:08Z</time>
      </trkpt>
      <trkpt lat="43.65469" lon="3.82899">
        <ele>128</ele>
        <time>2021-04-24T10:27:09Z</time>
      </trkpt>
      <trkpt lat="43.65468" lon="3.82903">
        <ele>128</ele>
        <time>2021-04-24T10:27:10Z</time>
      </trkpt>
      <trkpt lat="43.65467" lon="3.82906">
        <ele>130</ele>
        <time>2021-04-24T10:27:11Z</time>
      </trkpt>
      <trkpt lat="43.65466" lon="3.82911">
        <ele>130</ele>
        <time>2021-04-24T10:27:12Z</time>
      </trkpt>
      <trkpt lat="43.65465" lon="3.82915">
        <ele>130</ele>
        <time>2021-04-24T10:27:13Z</time>
      </trkpt>
      <trkpt lat="43.65464" lon="3.82918">
        <ele>130</ele>
        <time>2021-04-24T10:27:14Z</time>
      </trkpt>
      <trkpt lat="43.65464" lon="3.82922">
        <ele>130</ele>
        <time>2021-04-24T10:27:15Z</time>
      </trkpt>
      <trkpt lat="43.65464" lon="3.82927">
        <ele>130</ele>
        <time>2021-04-24T10:27:16Z</time>
      </trkpt>
      <trkpt lat="43.65464" lon="3.82931">
        <ele>130</ele>
        <time>2021-04-24T10:27:17Z</time>
      </trkpt>
      <trkpt lat="43.65465" lon="3.82936">
        <ele>130</ele>
        <time>2021-04-24T10:27:18Z</time>
      </trkpt>
      <trkpt lat="43.65465" lon="3.82941">
        <ele>130</ele>
        <time>2021-04-24T10:27:19Z</time>
      </trkpt>
      <trkpt lat="43.65465" lon="3.82946">
        <ele>130</ele>
        <time>2021-04-24T10:27:20Z</time>
      </trkpt>
      <trkpt lat="43.65466" lon="3.82951">
        <ele>130</ele>
        <time>2021-04-24T10:27:21Z</time>
      </trkpt>
      <trkpt lat="43.65466" lon="3.82957">
        <ele>130</ele>
        <time>2021-04-24T10:27:22Z</time>
      </trkpt>
      <trkpt lat="43.65464" lon="3.82962">
        <ele>130</ele>
        <time>2021-04-24T10:27:23Z</time>
      </trkpt>
      <trkpt lat="43.65461" lon="3.82967">
        <ele>130</ele>
        <time>2021-04-24T10:27:24Z</time>
      </trkpt>
      <trkpt lat="43.65458" lon="3.82971">
        <ele>130</ele>
        <time>2021-04-24T10:27:25Z</time>
      </trkpt>
      <trkpt lat="43.65455" lon="3.82974">
        <ele>130</ele>
        <time>2021-04-24T10:27:26Z</time>
      </trkpt>
      <trkpt lat="43.65453" lon="3.82977">
        <ele>130</ele>
        <time>2021-04-24T10:27:27Z</time>
      </trkpt>
      <trkpt lat="43.65453" lon="3.82981">
        <ele>130</ele>
        <time>2021-04-24T10:27:29Z</time>
      </trkpt>
      <trkpt lat="43.65455" lon="3.82982">
        <ele>130</ele>
        <time>2021-04-24T10:27:30Z</time>
      </trkpt>
      <trkpt lat="43.65457" lon="3.82984">
        <ele>129</ele>
        <time>2021-04-24T10:27:31Z</time>
      </trkpt>
      <trkpt lat="43.65459" lon="3.82986">
        <ele>129</ele>
        <time>2021-04-24T10:27:32Z</time>
      </trkpt>
      <trkpt lat="43.65461" lon="3.82989">
        <ele>129</ele>
        <time>2021-04-24T10:27:33Z</time>
      </trkpt>
      <trkpt lat="43.65463" lon="3.82992">
        <ele>129</ele>
        <time>2021-04-24T10:27:34Z</time>
      </trkpt>
      <trkpt lat="43.65465" lon="3.82994">
        <ele>129</ele>
        <time>2021-04-24T10:27:35Z</time>
      </trkpt>
      <trkpt lat="43.65467" lon="3.82997">
        <ele>129</ele>
        <time>2021-04-24T10:27:36Z</time>
      </trkpt>
      <trkpt lat="43.65469" lon="3.82999">
        <ele>129</ele>
        <time>2021-04-24T10:27:37Z</time>
      </trkpt>
      <trkpt lat="43.65471" lon="3.83002">
        <ele>129</ele>
        <time>2021-04-24T10:27:38Z</time>
      </trkpt>
      <trkpt lat="43.65473" lon="3.83005">
        <ele>129</ele>
        <time>2021-04-24T10:27:39Z</time>
      </trkpt>
      <trkpt lat="43.65476" lon="3.83008">
        <ele>129</ele>
        <time>2021-04-24T10:27:40Z</time>
      </trkpt>
      <trkpt lat="43.65477" lon="3.83009">
        <ele>128</ele>
        <time>2021-04-24T10:27:41Z</time>
      </trkpt>
      <trkpt lat="43.65481" lon="3.83009">
        <ele>128</ele>
        <time>2021-04-24T10:27:43Z</time>
      </trkpt>
      <trkpt lat="43.65484" lon="3.8301">
        <ele>128</ele>
        <time>2021-04-24T10:27:44Z</time>
      </trkpt>
      <trkpt lat="43.65488" lon="3.83013">
        <ele>128</ele>
        <time>2021-04-24T10:27:45Z</time>
      </trkpt>
      <trkpt lat="43.65491" lon="3.83018">
        <ele>128</ele>
        <time>2021-04-24T10:27:46Z</time>
      </trkpt>
      <trkpt lat="43.65495" lon="3.83021">
        <ele>128</ele>
        <time>2021-04-24T10:27:47Z</time>
      </trkpt>
      <trkpt lat="43.65499" lon="3.83024">
        <ele>128</ele>
        <time>2021-04-24T10:27:48Z</time>
      </trkpt>
      <trkpt lat="43.65503" lon="3.83027">
        <ele>128</ele>
        <time>2021-04-24T10:27:49Z</time>
      </trkpt>
      <trkpt lat="43.65506" lon="3.83031">
        <ele>128</ele>
        <time>2021-04-24T10:27:50Z</time>
      </trkpt>
      <trkpt lat="43.65508" lon="3.83035">
        <ele>128</ele>
        <time>2021-04-24T10:27:51Z</time>
      </trkpt>
      <trkpt lat="43.65511" lon="3.8304">
        <ele>128</ele>
        <time>2021-04-24T10:27:52Z</time>
      </trkpt>
      <trkpt lat="43.65514" lon="3.83044">
        <ele>128</ele>
        <time>2021-04-24T10:27:53Z</time>
      </trkpt>
      <trkpt lat="43.65517" lon="3.83048">
        <ele>128</ele>
        <time>2021-04-24T10:27:54Z</time>
      </trkpt>
      <trkpt lat="43.6552" lon="3.83051">
        <ele>128</ele>
        <time>2021-04-24T10:27:55Z</time>
      </trkpt>
      <trkpt lat="43.65528" lon="3.8306">
        <ele>128</ele>
        <time>2021-04-24T10:27:57Z</time>
      </trkpt>
      <trkpt lat="43.65535" lon="3.83068">
        <ele>128</ele>
        <time>2021-04-24T10:27:59Z</time>
      </trkpt>
      <trkpt lat="43.65544" lon="3.83068">
        <ele>127</ele>
        <time>2021-04-24T10:28:01Z</time>
      </trkpt>
      <trkpt lat="43.65548" lon="3.83064">
        <ele>127</ele>
        <time>2021-04-24T10:28:02Z</time>
      </trkpt>
      <trkpt lat="43.65554" lon="3.83059">
        <ele>127</ele>
        <time>2021-04-24T10:28:03Z</time>
      </trkpt>
      <trkpt lat="43.65565" lon="3.83048">
        <ele>127</ele>
        <time>2021-04-24T10:28:05Z</time>
      </trkpt>
      <trkpt lat="43.65575" lon="3.83036">
        <ele>127</ele>
        <time>2021-04-24T10:28:07Z</time>
      </trkpt>
      <trkpt lat="43.65581" lon="3.83025">
        <ele>127</ele>
        <time>2021-04-24T10:28:09Z</time>
      </trkpt>
      <trkpt lat="43.65588" lon="3.83014">
        <ele>124</ele>
        <time>2021-04-24T10:28:11Z</time>
      </trkpt>
      <trkpt lat="43.6559" lon="3.83008">
        <ele>124</ele>
        <time>2021-04-24T10:28:12Z</time>
      </trkpt>
      <trkpt lat="43.65591" lon="3.83004">
        <ele>124</ele>
        <time>2021-04-24T10:28:13Z</time>
      </trkpt>
      <trkpt lat="43.65592" lon="3.82995">
        <ele>124</ele>
        <time>2021-04-24T10:28:15Z</time>
      </trkpt>
      <trkpt lat="43.65593" lon="3.82991">
        <ele>124</ele>
        <time>2021-04-24T10:28:16Z</time>
      </trkpt>
      <trkpt lat="43.65601" lon="3.82996">
        <ele>124</ele>
        <time>2021-04-24T10:28:19Z</time>
      </trkpt>
      <trkpt lat="43.65605" lon="3.83">
        <ele>124</ele>
        <time>2021-04-24T10:28:20Z</time>
      </trkpt>
      <trkpt lat="43.65609" lon="3.83004">
        <ele>123</ele>
        <time>2021-04-24T10:28:21Z</time>
      </trkpt>
      <trkpt lat="43.65613" lon="3.83008">
        <ele>123</ele>
        <time>2021-04-24T10:28:22Z</time>
      </trkpt>
      <trkpt lat="43.65616" lon="3.83012">
        <ele>123</ele>
        <time>2021-04-24T10:28:23Z</time>
      </trkpt>
      <trkpt lat="43.65621" lon="3.83014">
        <ele>123</ele>
        <time>2021-04-24T10:28:24Z</time>
      </trkpt>
      <trkpt lat="43.65632" lon="3.8302">
        <ele>123</ele>
        <time>2021-04-24T10:28:26Z</time>
      </trkpt>
      <trkpt lat="43.65643" lon="3.83027">
        <ele>123</ele>
        <time>2021-04-24T10:28:28Z</time>
      </trkpt>
      <trkpt lat="43.65655" lon="3.83033">
        <ele>123</ele>
        <time>2021-04-24T10:28:30Z</time>
      </trkpt>
      <trkpt lat="43.65664" lon="3.83041">
        <ele>123</ele>
        <time>2021-04-24T10:28:33Z</time>
      </trkpt>
      <trkpt lat="43.65667" lon="3.83045">
        <ele>123</ele>
        <time>2021-04-24T10:28:35Z</time>
      </trkpt>
      <trkpt lat="43.65668" lon="3.83049">
        <ele>123</ele>
        <time>2021-04-24T10:28:36Z</time>
      </trkpt>
      <trkpt lat="43.65667" lon="3.83052">
        <ele>123</ele>
        <time>2021-04-24T10:28:37Z</time>
      </trkpt>
      <trkpt lat="43.65669" lon="3.83054">
        <ele>123</ele>
        <time>2021-04-24T10:28:39Z</time>
      </trkpt>
      <trkpt lat="43.65672" lon="3.83051">
        <ele>116</ele>
        <time>2021-04-24T10:28:41Z</time>
      </trkpt>
      <trkpt lat="43.65674" lon="3.83054">
        <ele>116</ele>
        <time>2021-04-24T10:28:44Z</time>
      </trkpt>
      <trkpt lat="43.65677" lon="3.83056">
        <ele>116</ele>
        <time>2021-04-24T10:28:45Z</time>
      </trkpt>
      <trkpt lat="43.65682" lon="3.83057">
        <ele>116</ele>
        <time>2021-04-24T10:28:46Z</time>
      </trkpt>
      <trkpt lat="43.65687" lon="3.83058">
        <ele>116</ele>
        <time>2021-04-24T10:28:47Z</time>
      </trkpt>
      <trkpt lat="43.65692" lon="3.8306">
        <ele>116</ele>
        <time>2021-04-24T10:28:48Z</time>
      </trkpt>
      <trkpt lat="43.65696" lon="3.83061">
        <ele>116</ele>
        <time>2021-04-24T10:28:49Z</time>
      </trkpt>
      <trkpt lat="43.65699" lon="3.8306">
        <ele>116</ele>
        <time>2021-04-24T10:28:50Z</time>
      </trkpt>
      <trkpt lat="43.65701" lon="3.83058">
        <ele>111</ele>
        <time>2021-04-24T10:28:51Z</time>
      </trkpt>
      <trkpt lat="43.65702" lon="3.83053">
        <ele>111</ele>
        <time>2021-04-24T10:28:52Z</time>
      </trkpt>
      <trkpt lat="43.65703" lon="3.83048">
        <ele>111</ele>
        <time>2021-04-24T10:28:53Z</time>
      </trkpt>
      <trkpt lat="43.65703" lon="3.83043">
        <ele>111</ele>
        <time>2021-04-24T10:28:54Z</time>
      </trkpt>
      <trkpt lat="43.65703" lon="3.83037">
        <ele>111</ele>
        <time>2021-04-24T10:28:55Z</time>
      </trkpt>
      <trkpt lat="43.65704" lon="3.83032">
        <ele>111</ele>
        <time>2021-04-24T10:28:56Z</time>
      </trkpt>
      <trkpt lat="43.65705" lon="3.83027">
        <ele>111</ele>
        <time>2021-04-24T10:28:57Z</time>
      </trkpt>
      <trkpt lat="43.65708" lon="3.83025">
        <ele>111</ele>
        <time>2021-04-24T10:28:58Z</time>
      </trkpt>
      <trkpt lat="43.6571" lon="3.83023">
        <ele>111</ele>
        <time>2021-04-24T10:28:59Z</time>
      </trkpt>
      <trkpt lat="43.65713" lon="3.8302">
        <ele>111</ele>
        <time>2021-04-24T10:29:00Z</time>
      </trkpt>
      <trkpt lat="43.65715" lon="3.83016">
        <ele>107</ele>
        <time>2021-04-24T10:29:01Z</time>
      </trkpt>
      <trkpt lat="43.65717" lon="3.83012">
        <ele>107</ele>
        <time>2021-04-24T10:29:02Z</time>
      </trkpt>
      <trkpt lat="43.65719" lon="3.83008">
        <ele>107</ele>
        <time>2021-04-24T10:29:03Z</time>
      </trkpt>
      <trkpt lat="43.6572" lon="3.83003">
        <ele>107</ele>
        <time>2021-04-24T10:29:04Z</time>
      </trkpt>
      <trkpt lat="43.65722" lon="3.82999">
        <ele>107</ele>
        <time>2021-04-24T10:29:05Z</time>
      </trkpt>
      <trkpt lat="43.65723" lon="3.82996">
        <ele>107</ele>
        <time>2021-04-24T10:29:06Z</time>
      </trkpt>
      <trkpt lat="43.65724" lon="3.82993">
        <ele>107</ele>
        <time>2021-04-24T10:29:07Z</time>
      </trkpt>
      <trkpt lat="43.65725" lon="3.82989">
        <ele>107</ele>
        <time>2021-04-24T10:29:08Z</time>
      </trkpt>
      <trkpt lat="43.65725" lon="3.82984">
        <ele>107</ele>
        <time>2021-04-24T10:29:09Z</time>
      </trkpt>
      <trkpt lat="43.65725" lon="3.82979">
        <ele>107</ele>
        <time>2021-04-24T10:29:10Z</time>
      </trkpt>
      <trkpt lat="43.65726" lon="3.82976">
        <ele>104</ele>
        <time>2021-04-24T10:29:11Z</time>
      </trkpt>
      <trkpt lat="43.65727" lon="3.82971">
        <ele>104</ele>
        <time>2021-04-24T10:29:12Z</time>
      </trkpt>
      <trkpt lat="43.65728" lon="3.82967">
        <ele>104</ele>
        <time>2021-04-24T10:29:13Z</time>
      </trkpt>
      <trkpt lat="43.65729" lon="3.82963">
        <ele>104</ele>
        <time>2021-04-24T10:29:14Z</time>
      </trkpt>
      <trkpt lat="43.6573" lon="3.82959">
        <ele>104</ele>
        <time>2021-04-24T10:29:15Z</time>
      </trkpt>
      <trkpt lat="43.65731" lon="3.82954">
        <ele>104</ele>
        <time>2021-04-24T10:29:16Z</time>
      </trkpt>
      <trkpt lat="43.65733" lon="3.8295">
        <ele>104</ele>
        <time>2021-04-24T10:29:17Z</time>
      </trkpt>
      <trkpt lat="43.65735" lon="3.82946">
        <ele>104</ele>
        <time>2021-04-24T10:29:18Z</time>
      </trkpt>
      <trkpt lat="43.65737" lon="3.82943">
        <ele>104</ele>
        <time>2021-04-24T10:29:19Z</time>
      </trkpt>
      <trkpt lat="43.65739" lon="3.82939">
        <ele>104</ele>
        <time>2021-04-24T10:29:20Z</time>
      </trkpt>
      <trkpt lat="43.65743" lon="3.82936">
        <ele>102</ele>
        <time>2021-04-24T10:29:21Z</time>
      </trkpt>
      <trkpt lat="43.65747" lon="3.82934">
        <ele>102</ele>
        <time>2021-04-24T10:29:22Z</time>
      </trkpt>
      <trkpt lat="43.6575" lon="3.82934">
        <ele>102</ele>
        <time>2021-04-24T10:29:23Z</time>
      </trkpt>
      <trkpt lat="43.65751" lon="3.82936">
        <ele>102</ele>
        <time>2021-04-24T10:29:24Z</time>
      </trkpt>
      <trkpt lat="43.65753" lon="3.82939">
        <ele>102</ele>
        <time>2021-04-24T10:29:25Z</time>
      </trkpt>
      <trkpt lat="43.65753" lon="3.82944">
        <ele>102</ele>
        <time>2021-04-24T10:29:26Z</time>
      </trkpt>
      <trkpt lat="43.65755" lon="3.82949">
        <ele>102</ele>
        <time>2021-04-24T10:29:27Z</time>
      </trkpt>
      <trkpt lat="43.65756" lon="3.82955">
        <ele>102</ele>
        <time>2021-04-24T10:29:28Z</time>
      </trkpt>
      <trkpt lat="43.65758" lon="3.82961">
        <ele>102</ele>
        <time>2021-04-24T10:29:29Z</time>
      </trkpt>
      <trkpt lat="43.6576" lon="3.82967">
        <ele>102</ele>
        <time>2021-04-24T10:29:30Z</time>
      </trkpt>
      <trkpt lat="43.65763" lon="3.82973">
        <ele>99</ele>
        <time>2021-04-24T10:29:31Z</time>
      </trkpt>
      <trkpt lat="43.65767" lon="3.82985">
        <ele>99</ele>
        <time>2021-04-24T10:29:32Z</time>
      </trkpt>
      <trkpt lat="43.65769" lon="3.82991">
        <ele>99</ele>
        <time>2021-04-24T10:29:33Z</time>
      </trkpt>
      <trkpt lat="43.65771" lon="3.82997">
        <ele>99</ele>
        <time>2021-04-24T10:29:34Z</time>
      </trkpt>
      <trkpt lat="43.65772" lon="3.83003">
        <ele>99</ele>
        <time>2021-04-24T10:29:35Z</time>
      </trkpt>
      <trkpt lat="43.65774" lon="3.83008">
        <ele>99</ele>
        <time>2021-04-24T10:29:36Z</time>
      </trkpt>
      <trkpt lat="43.65776" lon="3.83012">
        <ele>99</ele>
        <time>2021-04-24T10:29:37Z</time>
      </trkpt>
      <trkpt lat="43.65778" lon="3.83017">
        <ele>99</ele>
        <time>2021-04-24T10:29:38Z</time>
      </trkpt>
      <trkpt lat="43.65779" lon="3.83022">
        <ele>99</ele>
        <time>2021-04-24T10:29:39Z</time>
      </trkpt>
      <trkpt lat="43.6578" lon="3.83027">
        <ele>97</ele>
        <time>2021-04-24T10:29:41Z</time>
      </trkpt>
      <trkpt lat="43.65782" lon="3.83032">
        <ele>97</ele>
        <time>2021-04-24T10:29:42Z</time>
      </trkpt>
      <trkpt lat="43.65784" lon="3.83036">
        <ele>97</ele>
        <time>2021-04-24T10:29:43Z</time>
      </trkpt>
      <trkpt lat="43.65786" lon="3.83039">
        <ele>97</ele>
        <time>2021-04-24T10:29:44Z</time>
      </trkpt>
      <trkpt lat="43.65789" lon="3.8304">
        <ele>97</ele>
        <time>2021-04-24T10:29:45Z</time>
      </trkpt>
      <trkpt lat="43.65792" lon="3.83039">
        <ele>97</ele>
        <time>2021-04-24T10:29:46Z</time>
      </trkpt>
      <trkpt lat="43.65795" lon="3.83037">
        <ele>97</ele>
        <time>2021-04-24T10:29:47Z</time>
      </trkpt>
      <trkpt lat="43.65797" lon="3.83034">
        <ele>97</ele>
        <time>2021-04-24T10:29:48Z</time>
      </trkpt>
      <trkpt lat="43.658" lon="3.83031">
        <ele>97</ele>
        <time>2021-04-24T10:29:49Z</time>
      </trkpt>
      <trkpt lat="43.65803" lon="3.83028">
        <ele>97</ele>
        <time>2021-04-24T10:29:50Z</time>
      </trkpt>
      <trkpt lat="43.65806" lon="3.83026">
        <ele>95</ele>
        <time>2021-04-24T10:29:51Z</time>
      </trkpt>
      <trkpt lat="43.65809" lon="3.83024">
        <ele>95</ele>
        <time>2021-04-24T10:29:52Z</time>
      </trkpt>
      <trkpt lat="43.65812" lon="3.83021">
        <ele>95</ele>
        <time>2021-04-24T10:29:53Z</time>
      </trkpt>
      <trkpt lat="43.65815" lon="3.83019">
        <ele>95</ele>
        <time>2021-04-24T10:29:54Z</time>
      </trkpt>
      <trkpt lat="43.65818" lon="3.83017">
        <ele>95</ele>
        <time>2021-04-24T10:29:55Z</time>
      </trkpt>
      <trkpt lat="43.65822" lon="3.83015">
        <ele>95</ele>
        <time>2021-04-24T10:29:56Z</time>
      </trkpt>
      <trkpt lat="43.65825" lon="3.83013">
        <ele>95</ele>
        <time>2021-04-24T10:29:57Z</time>
      </trkpt>
      <trkpt lat="43.65829" lon="3.83012">
        <ele>95</ele>
        <time>2021-04-24T10:29:58Z</time>
      </trkpt>
      <trkpt lat="43.65832" lon="3.83011">
        <ele>95</ele>
        <time>2021-04-24T10:29:59Z</time>
      </trkpt>
      <trkpt lat="43.65835" lon="3.8301">
        <ele>95</ele>
        <time>2021-04-24T10:30:00Z</time>
      </trkpt>
      <trkpt lat="43.65839" lon="3.8301">
        <ele>94</ele>
        <time>2021-04-24T10:30:01Z</time>
      </trkpt>
      <trkpt lat="43.65843" lon="3.83009">
        <ele>94</ele>
        <time>2021-04-24T10:30:02Z</time>
      </trkpt>
      <trkpt lat="43.65847" lon="3.83008">
        <ele>94</ele>
        <time>2021-04-24T10:30:03Z</time>
      </trkpt>
      <trkpt lat="43.65851" lon="3.83008">
        <ele>94</ele>
        <time>2021-04-24T10:30:04Z</time>
      </trkpt>
      <trkpt lat="43.65855" lon="3.83008">
        <ele>94</ele>
        <time>2021-04-24T10:30:05Z</time>
      </trkpt>
      <trkpt lat="43.65859" lon="3.83007">
        <ele>94</ele>
        <time>2021-04-24T10:30:06Z</time>
      </trkpt>
      <trkpt lat="43.65863" lon="3.83007">
        <ele>94</ele>
        <time>2021-04-24T10:30:07Z</time>
      </trkpt>
      <trkpt lat="43.65866" lon="3.83006">
        <ele>94</ele>
        <time>2021-04-24T10:30:08Z</time>
      </trkpt>
      <trkpt lat="43.6587" lon="3.83005">
        <ele>94</ele>
        <time>2021-04-24T10:30:09Z</time>
      </trkpt>
      <trkpt lat="43.65874" lon="3.83005">
        <ele>94</ele>
        <time>2021-04-24T10:30:10Z</time>
      </trkpt>
      <trkpt lat="43.65877" lon="3.83004">
        <ele>94</ele>
        <time>2021-04-24T10:30:11Z</time>
      </trkpt>
      <trkpt lat="43.6588" lon="3.83004">
        <ele>94</ele>
        <time>2021-04-24T10:30:12Z</time>
      </trkpt>
      <trkpt lat="43.65884" lon="3.83004">
        <ele>94</ele>
        <time>2021-04-24T10:30:13Z</time>
      </trkpt>
      <trkpt lat="43.65887" lon="3.83004">
        <ele>94</ele>
        <time>2021-04-24T10:30:14Z</time>
      </trkpt>
      <trkpt lat="43.65891" lon="3.83004">
        <ele>94</ele>
        <time>2021-04-24T10:30:15Z</time>
      </trkpt>
      <trkpt lat="43.65894" lon="3.83003">
        <ele>94</ele>
        <time>2021-04-24T10:30:16Z</time>
      </trkpt>
      <trkpt lat="43.65898" lon="3.83003">
        <ele>94</ele>
        <time>2021-04-24T10:30:17Z</time>
      </trkpt>
      <trkpt lat="43.65901" lon="3.83003">
        <ele>94</ele>
        <time>2021-04-24T10:30:18Z</time>
      </trkpt>
      <trkpt lat="43.65904" lon="3.83002">
        <ele>94</ele>
        <time>2021-04-24T10:30:19Z</time>
      </trkpt>
      <trkpt lat="43.65907" lon="3.83002">
        <ele>94</ele>
        <time>2021-04-24T10:30:20Z</time>
      </trkpt>
      <trkpt lat="43.65911" lon="3.83">
        <ele>95</ele>
        <time>2021-04-24T10:30:21Z</time>
      </trkpt>
      <trkpt lat="43.65914" lon="3.82999">
        <ele>95</ele>
        <time>2021-04-24T10:30:22Z</time>
      </trkpt>
      <trkpt lat="43.65917" lon="3.82998">
        <ele>95</ele>
        <time>2021-04-24T10:30:23Z</time>
      </trkpt>
      <trkpt lat="43.6592" lon="3.82997">
        <ele>95</ele>
        <time>2021-04-24T10:30:24Z</time>
      </trkpt>
      <trkpt lat="43.65924" lon="3.82997">
        <ele>95</ele>
        <time>2021-04-24T10:30:25Z</time>
      </trkpt>
      <trkpt lat="43.65927" lon="3.82996">
        <ele>95</ele>
        <time>2021-04-24T10:30:26Z</time>
      </trkpt>
      <trkpt lat="43.6593" lon="3.82996">
        <ele>95</ele>
        <time>2021-04-24T10:30:27Z</time>
      </trkpt>
      <trkpt lat="43.65933" lon="3.82996">
        <ele>95</ele>
        <time>2021-04-24T10:30:28Z</time>
      </trkpt>
      <trkpt lat="43.65936" lon="3.82996">
        <ele>95</ele>
        <time>2021-04-24T10:30:29Z</time>
      </trkpt>
      <trkpt lat="43.65939" lon="3.82995">
        <ele>95</ele>
        <time>2021-04-24T10:30:30Z</time>
      </trkpt>
      <trkpt lat="43.65942" lon="3.82994">
        <ele>95</ele>
        <time>2021-04-24T10:30:31Z</time>
      </trkpt>
      <trkpt lat="43.65945" lon="3.82994">
        <ele>95</ele>
        <time>2021-04-24T10:30:32Z</time>
      </trkpt>
      <trkpt lat="43.65948" lon="3.82993">
        <ele>95</ele>
        <time>2021-04-24T10:30:33Z</time>
      </trkpt>
      <trkpt lat="43.65951" lon="3.82993">
        <ele>95</ele>
        <time>2021-04-24T10:30:34Z</time>
      </trkpt>
      <trkpt lat="43.65954" lon="3.82993">
        <ele>95</ele>
        <time>2021-04-24T10:30:35Z</time>
      </trkpt>
      <trkpt lat="43.65957" lon="3.82992">
        <ele>95</ele>
        <time>2021-04-24T10:30:36Z</time>
      </trkpt>
      <trkpt lat="43.65959" lon="3.82991">
        <ele>95</ele>
        <time>2021-04-24T10:30:37Z</time>
      </trkpt>
      <trkpt lat="43.6596" lon="3.82989">
        <ele>95</ele>
        <time>2021-04-24T10:30:38Z</time>
      </trkpt>
      <trkpt lat="43.65961" lon="3.82985">
        <ele>95</ele>
        <time>2021-04-24T10:30:39Z</time>
      </trkpt>
      <trkpt lat="43.65963" lon="3.82982">
        <ele>95</ele>
        <time>2021-04-24T10:30:40Z</time>
      </trkpt>
      <trkpt lat="43.65966" lon="3.8298">
        <ele>97</ele>
        <time>2021-04-24T10:30:41Z</time>
      </trkpt>
      <trkpt lat="43.65968" lon="3.82978">
        <ele>97</ele>
        <time>2021-04-24T10:30:42Z</time>
      </trkpt>
      <trkpt lat="43.65971" lon="3.82977">
        <ele>97</ele>
        <time>2021-04-24T10:30:43Z</time>
      </trkpt>
      <trkpt lat="43.65974" lon="3.82976">
        <ele>97</ele>
        <time>2021-04-24T10:30:44Z</time>
      </trkpt>
      <trkpt lat="43.65977" lon="3.82974">
        <ele>97</ele>
        <time>2021-04-24T10:30:45Z</time>
      </trkpt>
      <trkpt lat="43.6598" lon="3.82973">
        <ele>97</ele>
        <time>2021-04-24T10:30:46Z</time>
      </trkpt>
      <trkpt lat="43.65983" lon="3.82972">
        <ele>97</ele>
        <time>2021-04-24T10:30:47Z</time>
      </trkpt>
      <trkpt lat="43.65987" lon="3.82971">
        <ele>97</ele>
        <time>2021-04-24T10:30:48Z</time>
      </trkpt>
      <trkpt lat="43.6599" lon="3.82969">
        <ele>97</ele>
        <time>2021-04-24T10:30:49Z</time>
      </trkpt>
      <trkpt lat="43.65993" lon="3.82968">
        <ele>97</ele>
        <time>2021-04-24T10:30:50Z</time>
      </trkpt>
      <trkpt lat="43.65996" lon="3.82967">
        <ele>97</ele>
        <time>2021-04-24T10:30:51Z</time>
      </trkpt>
      <trkpt lat="43.65999" lon="3.82966">
        <ele>97</ele>
        <time>2021-04-24T10:30:52Z</time>
      </trkpt>
      <trkpt lat="43.66002" lon="3.82966">
        <ele>97</ele>
        <time>2021-04-24T10:30:53Z</time>
      </trkpt>
      <trkpt lat="43.66005" lon="3.82965">
        <ele>97</ele>
        <time>2021-04-24T10:30:54Z</time>
      </trkpt>
      <trkpt lat="43.66007" lon="3.82964">
        <ele>97</ele>
        <time>2021-04-24T10:30:55Z</time>
      </trkpt>
      <trkpt lat="43.66009" lon="3.82962">
        <ele>97</ele>
        <time>2021-04-24T10:30:56Z</time>
      </trkpt>
      <trkpt lat="43.66011" lon="3.82959">
        <ele>97</ele>
        <time>2021-04-24T10:30:57Z</time>
      </trkpt>
      <trkpt lat="43.66012" lon="3.82955">
        <ele>97</ele>
        <time>2021-04-24T10:30:58Z</time>
      </trkpt>
      <trkpt lat="43.66012" lon="3.82952">
        <ele>97</ele>
        <time>2021-04-24T10:30:59Z</time>
      </trkpt>
      <trkpt lat="43.66012" lon="3.82948">
        <ele>97</ele>
        <time>2021-04-24T10:31:00Z</time>
      </trkpt>
      <trkpt lat="43.66012" lon="3.82945">
        <ele>99</ele>
        <time>2021-04-24T10:31:01Z</time>
      </trkpt>
      <trkpt lat="43.66012" lon="3.82941">
        <ele>99</ele>
        <time>2021-04-24T10:31:02Z</time>
      </trkpt>
      <trkpt lat="43.66011" lon="3.82938">
        <ele>99</ele>
        <time>2021-04-24T10:31:03Z</time>
      </trkpt>
      <trkpt lat="43.66011" lon="3.82934">
        <ele>99</ele>
        <time>2021-04-24T10:31:04Z</time>
      </trkpt>
      <trkpt lat="43.6601" lon="3.82931">
        <ele>99</ele>
        <time>2021-04-24T10:31:05Z</time>
      </trkpt>
      <trkpt lat="43.66009" lon="3.82928">
        <ele>99</ele>
        <time>2021-04-24T10:31:06Z</time>
      </trkpt>
      <trkpt lat="43.66008" lon="3.82926">
        <ele>99</ele>
        <time>2021-04-24T10:31:07Z</time>
      </trkpt>
      <trkpt lat="43.66006" lon="3.82923">
        <ele>99</ele>
        <time>2021-04-24T10:31:08Z</time>
      </trkpt>
      <trkpt lat="43.66005" lon="3.82921">
        <ele>99</ele>
        <time>2021-04-24T10:31:09Z</time>
      </trkpt>
      <trkpt lat="43.66004" lon="3.82918">
        <ele>99</ele>
        <time>2021-04-24T10:31:10Z</time>
      </trkpt>
      <trkpt lat="43.66003" lon="3.82915">
        <ele>101</ele>
        <time>2021-04-24T10:31:11Z</time>
      </trkpt>
      <trkpt lat="43.66002" lon="3.82913">
        <ele>101</ele>
        <time>2021-04-24T10:31:12Z</time>
      </trkpt>
      <trkpt lat="43.66" lon="3.8291">
        <ele>101</ele>
        <time>2021-04-24T10:31:13Z</time>
      </trkpt>
      <trkpt lat="43.65999" lon="3.82908">
        <ele>101</ele>
        <time>2021-04-24T10:31:14Z</time>
      </trkpt>
      <trkpt lat="43.65998" lon="3.82905">
        <ele>101</ele>
        <time>2021-04-24T10:31:15Z</time>
      </trkpt>
      <trkpt lat="43.65997" lon="3.82903">
        <ele>101</ele>
        <time>2021-04-24T10:31:16Z</time>
      </trkpt>
      <trkpt lat="43.65995" lon="3.829">
        <ele>101</ele>
        <time>2021-04-24T10:31:17Z</time>
      </trkpt>
      <trkpt lat="43.65994" lon="3.82897">
        <ele>101</ele>
        <time>2021-04-24T10:31:18Z</time>
      </trkpt>
      <trkpt lat="43.65992" lon="3.82893">
        <ele>101</ele>
        <time>2021-04-24T10:31:19Z</time>
      </trkpt>
      <trkpt lat="43.65991" lon="3.8289">
        <ele>101</ele>
        <time>2021-04-24T10:31:20Z</time>
      </trkpt>
      <trkpt lat="43.6599" lon="3.82886">
        <ele>102</ele>
        <time>2021-04-24T10:31:21Z</time>
      </trkpt>
      <trkpt lat="43.65989" lon="3.82882">
        <ele>102</ele>
        <time>2021-04-24T10:31:22Z</time>
      </trkpt>
      <trkpt lat="43.65987" lon="3.82878">
        <ele>102</ele>
        <time>2021-04-24T10:31:23Z</time>
      </trkpt>
      <trkpt lat="43.65986" lon="3.82875">
        <ele>102</ele>
        <time>2021-04-24T10:31:24Z</time>
      </trkpt>
      <trkpt lat="43.65984" lon="3.82871">
        <ele>102</ele>
        <time>2021-04-24T10:31:25Z</time>
      </trkpt>
      <trkpt lat="43.65983" lon="3.82867">
        <ele>102</ele>
        <time>2021-04-24T10:31:26Z</time>
      </trkpt>
      <trkpt lat="43.65982" lon="3.82863">
        <ele>102</ele>
        <time>2021-04-24T10:31:27Z</time>
      </trkpt>
      <trkpt lat="43.65981" lon="3.82859">
        <ele>102</ele>
        <time>2021-04-24T10:31:28Z</time>
      </trkpt>
      <trkpt lat="43.6598" lon="3.82855">
        <ele>102</ele>
        <time>2021-04-24T10:31:29Z</time>
      </trkpt>
      <trkpt lat="43.65981" lon="3.8285">
        <ele>102</ele>
        <time>2021-04-24T10:31:30Z</time>
      </trkpt>
      <trkpt lat="43.65982" lon="3.82845">
        <ele>102</ele>
        <time>2021-04-24T10:31:31Z</time>
      </trkpt>
      <trkpt lat="43.65984" lon="3.82841">
        <ele>102</ele>
        <time>2021-04-24T10:31:32Z</time>
      </trkpt>
      <trkpt lat="43.65986" lon="3.82837">
        <ele>102</ele>
        <time>2021-04-24T10:31:33Z</time>
      </trkpt>
      <trkpt lat="43.65987" lon="3.82833">
        <ele>102</ele>
        <time>2021-04-24T10:31:34Z</time>
      </trkpt>
      <trkpt lat="43.65989" lon="3.82829">
        <ele>102</ele>
        <time>2021-04-24T10:31:35Z</time>
      </trkpt>
      <trkpt lat="43.65991" lon="3.82826">
        <ele>102</ele>
        <time>2021-04-24T10:31:36Z</time>
      </trkpt>
      <trkpt lat="43.65993" lon="3.82823">
        <ele>102</ele>
        <time>2021-04-24T10:31:37Z</time>
      </trkpt>
      <trkpt lat="43.65995" lon="3.8282">
        <ele>102</ele>
        <time>2021-04-24T10:31:38Z</time>
      </trkpt>
      <trkpt lat="43.65997" lon="3.82818">
        <ele>102</ele>
        <time>2021-04-24T10:31:39Z</time>
      </trkpt>
      <trkpt lat="43.65999" lon="3.82816">
        <ele>102</ele>
        <time>2021-04-24T10:31:40Z</time>
      </trkpt>
      <trkpt lat="43.66002" lon="3.82814">
        <ele>103</ele>
        <time>2021-04-24T10:31:41Z</time>
      </trkpt>
      <trkpt lat="43.66004" lon="3.82812">
        <ele>103</ele>
        <time>2021-04-24T10:31:42Z</time>
      </trkpt>
      <trkpt lat="43.66006" lon="3.8281">
        <ele>103</ele>
        <time>2021-04-24T10:31:43Z</time>
      </trkpt>
      <trkpt lat="43.66009" lon="3.82809">
        <ele>103</ele>
        <time>2021-04-24T10:31:44Z</time>
      </trkpt>
      <trkpt lat="43.66011" lon="3.82807">
        <ele>103</ele>
        <time>2021-04-24T10:31:45Z</time>
      </trkpt>
      <trkpt lat="43.66013" lon="3.82805">
        <ele>103</ele>
        <time>2021-04-24T10:31:46Z</time>
      </trkpt>
      <trkpt lat="43.66016" lon="3.82803">
        <ele>103</ele>
        <time>2021-04-24T10:31:47Z</time>
      </trkpt>
      <trkpt lat="43.66018" lon="3.828">
        <ele>103</ele>
        <time>2021-04-24T10:31:48Z</time>
      </trkpt>
      <trkpt lat="43.66021" lon="3.82798">
        <ele>103</ele>
        <time>2021-04-24T10:31:49Z</time>
      </trkpt>
      <trkpt lat="43.66024" lon="3.82795">
        <ele>103</ele>
        <time>2021-04-24T10:31:50Z</time>
      </trkpt>
      <trkpt lat="43.66027" lon="3.82792">
        <ele>104</ele>
        <time>2021-04-24T10:31:51Z</time>
      </trkpt>
      <trkpt lat="43.66029" lon="3.8279">
        <ele>104</ele>
        <time>2021-04-24T10:31:52Z</time>
      </trkpt>
      <trkpt lat="43.66033" lon="3.82787">
        <ele>104</ele>
        <time>2021-04-24T10:31:53Z</time>
      </trkpt>
      <trkpt lat="43.66036" lon="3.82784">
        <ele>104</ele>
        <time>2021-04-24T10:31:54Z</time>
      </trkpt>
      <trkpt lat="43.66039" lon="3.8278">
        <ele>104</ele>
        <time>2021-04-24T10:31:55Z</time>
      </trkpt>
      <trkpt lat="43.66042" lon="3.82777">
        <ele>104</ele>
        <time>2021-04-24T10:31:56Z</time>
      </trkpt>
      <trkpt lat="43.66044" lon="3.82773">
        <ele>104</ele>
        <time>2021-04-24T10:31:57Z</time>
      </trkpt>
      <trkpt lat="43.66047" lon="3.8277">
        <ele>104</ele>
        <time>2021-04-24T10:31:58Z</time>
      </trkpt>
      <trkpt lat="43.6605" lon="3.82765">
        <ele>104</ele>
        <time>2021-04-24T10:31:59Z</time>
      </trkpt>
      <trkpt lat="43.66053" lon="3.82761">
        <ele>104</ele>
        <time>2021-04-24T10:32:00Z</time>
      </trkpt>
      <trkpt lat="43.66056" lon="3.82756">
        <ele>103</ele>
        <time>2021-04-24T10:32:01Z</time>
      </trkpt>
      <trkpt lat="43.66059" lon="3.82751">
        <ele>103</ele>
        <time>2021-04-24T10:32:02Z</time>
      </trkpt>
      <trkpt lat="43.66062" lon="3.82747">
        <ele>103</ele>
        <time>2021-04-24T10:32:03Z</time>
      </trkpt>
      <trkpt lat="43.66065" lon="3.82742">
        <ele>103</ele>
        <time>2021-04-24T10:32:04Z</time>
      </trkpt>
      <trkpt lat="43.66069" lon="3.82737">
        <ele>103</ele>
        <time>2021-04-24T10:32:05Z</time>
      </trkpt>
      <trkpt lat="43.66072" lon="3.8273">
        <ele>103</ele>
        <time>2021-04-24T10:32:06Z</time>
      </trkpt>
      <trkpt lat="43.66075" lon="3.82724">
        <ele>103</ele>
        <time>2021-04-24T10:32:07Z</time>
      </trkpt>
      <trkpt lat="43.66079" lon="3.82717">
        <ele>103</ele>
        <time>2021-04-24T10:32:08Z</time>
      </trkpt>
      <trkpt lat="43.66082" lon="3.8271">
        <ele>103</ele>
        <time>2021-04-24T10:32:09Z</time>
      </trkpt>
      <trkpt lat="43.66088" lon="3.82705">
        <ele>103</ele>
        <time>2021-04-24T10:32:10Z</time>
      </trkpt>
      <trkpt lat="43.66094" lon="3.82699">
        <ele>103</ele>
        <time>2021-04-24T10:32:11Z</time>
      </trkpt>
      <trkpt lat="43.66099" lon="3.82694">
        <ele>103</ele>
        <time>2021-04-24T10:32:12Z</time>
      </trkpt>
      <trkpt lat="43.66105" lon="3.8269">
        <ele>103</ele>
        <time>2021-04-24T10:32:13Z</time>
      </trkpt>
      <trkpt lat="43.6611" lon="3.82687">
        <ele>103</ele>
        <time>2021-04-24T10:32:14Z</time>
      </trkpt>
      <trkpt lat="43.66115" lon="3.82685">
        <ele>103</ele>
        <time>2021-04-24T10:32:15Z</time>
      </trkpt>
      <trkpt lat="43.66119" lon="3.82684">
        <ele>103</ele>
        <time>2021-04-24T10:32:16Z</time>
      </trkpt>
      <trkpt lat="43.66123" lon="3.82684">
        <ele>103</ele>
        <time>2021-04-24T10:32:17Z</time>
      </trkpt>
      <trkpt lat="43.66127" lon="3.82684">
        <ele>103</ele>
        <time>2021-04-24T10:32:18Z</time>
      </trkpt>
      <trkpt lat="43.6613" lon="3.82685">
        <ele>103</ele>
        <time>2021-04-24T10:32:19Z</time>
      </trkpt>
      <trkpt lat="43.66133" lon="3.82685">
        <ele>103</ele>
        <time>2021-04-24T10:32:20Z</time>
      </trkpt>
      <trkpt lat="43.66136" lon="3.82685">
        <ele>102</ele>
        <time>2021-04-24T10:32:21Z</time>
      </trkpt>
      <trkpt lat="43.66138" lon="3.82686">
        <ele>102</ele>
        <time>2021-04-24T10:32:22Z</time>
      </trkpt>
      <trkpt lat="43.6614" lon="3.82686">
        <ele>102</ele>
        <time>2021-04-24T10:32:23Z</time>
      </trkpt>
      <trkpt lat="43.66142" lon="3.82687">
        <ele>102</ele>
        <time>2021-04-24T10:32:24Z</time>
      </trkpt>
      <trkpt lat="43.66144" lon="3.82687">
        <ele>102</ele>
        <time>2021-04-24T10:32:25Z</time>
      </trkpt>
      <trkpt lat="43.66147" lon="3.82687">
        <ele>102</ele>
        <time>2021-04-24T10:32:26Z</time>
      </trkpt>
      <trkpt lat="43.66149" lon="3.82688">
        <ele>102</ele>
        <time>2021-04-24T10:32:27Z</time>
      </trkpt>
      <trkpt lat="43.66151" lon="3.82689">
        <ele>102</ele>
        <time>2021-04-24T10:32:28Z</time>
      </trkpt>
      <trkpt lat="43.66153" lon="3.82691">
        <ele>102</ele>
        <time>2021-04-24T10:32:29Z</time>
      </trkpt>
      <trkpt lat="43.66154" lon="3.82692">
        <ele>102</ele>
        <time>2021-04-24T10:32:30Z</time>
      </trkpt>
      <trkpt lat="43.66156" lon="3.82694">
        <ele>102</ele>
        <time>2021-04-24T10:32:31Z</time>
      </trkpt>
      <trkpt lat="43.66158" lon="3.82695">
        <ele>102</ele>
        <time>2021-04-24T10:32:32Z</time>
      </trkpt>
      <trkpt lat="43.66159" lon="3.82697">
        <ele>102</ele>
        <time>2021-04-24T10:32:33Z</time>
      </trkpt>
      <trkpt lat="43.66161" lon="3.82698">
        <ele>102</ele>
        <time>2021-04-24T10:32:34Z</time>
      </trkpt>
      <trkpt lat="43.66163" lon="3.827">
        <ele>102</ele>
        <time>2021-04-24T10:32:35Z</time>
      </trkpt>
      <trkpt lat="43.66164" lon="3.82701">
        <ele>102</ele>
        <time>2021-04-24T10:32:36Z</time>
      </trkpt>
      <trkpt lat="43.66166" lon="3.82703">
        <ele>102</ele>
        <time>2021-04-24T10:32:37Z</time>
      </trkpt>
      <trkpt lat="43.66168" lon="3.82704">
        <ele>102</ele>
        <time>2021-04-24T10:32:38Z</time>
      </trkpt>
      <trkpt lat="43.66169" lon="3.82706">
        <ele>102</ele>
        <time>2021-04-24T10:32:39Z</time>
      </trkpt>
      <trkpt lat="43.66171" lon="3.82708">
        <ele>102</ele>
        <time>2021-04-24T10:32:40Z</time>
      </trkpt>
      <trkpt lat="43.66173" lon="3.82709">
        <ele>103</ele>
        <time>2021-04-24T10:32:41Z</time>
      </trkpt>
      <trkpt lat="43.66176" lon="3.82711">
        <ele>103</ele>
        <time>2021-04-24T10:32:42Z</time>
      </trkpt>
      <trkpt lat="43.66178" lon="3.82711">
        <ele>103</ele>
        <time>2021-04-24T10:32:43Z</time>
      </trkpt>
      <trkpt lat="43.6618" lon="3.82711">
        <ele>103</ele>
        <time>2021-04-24T10:32:44Z</time>
      </trkpt>
      <trkpt lat="43.66181" lon="3.8271">
        <ele>103</ele>
        <time>2021-04-24T10:32:45Z</time>
      </trkpt>
      <trkpt lat="43.66183" lon="3.8271">
        <ele>103</ele>
        <time>2021-04-24T10:32:46Z</time>
      </trkpt>
      <trkpt lat="43.66185" lon="3.8271">
        <ele>103</ele>
        <time>2021-04-24T10:32:47Z</time>
      </trkpt>
      <trkpt lat="43.66187" lon="3.8271">
        <ele>103</ele>
        <time>2021-04-24T10:32:48Z</time>
      </trkpt>
      <trkpt lat="43.66189" lon="3.82709">
        <ele>103</ele>
        <time>2021-04-24T10:32:49Z</time>
      </trkpt>
      <trkpt lat="43.66191" lon="3.82709">
        <ele>103</ele>
        <time>2021-04-24T10:32:51Z</time>
      </trkpt>
      <trkpt lat="43.66193" lon="3.82708">
        <ele>103</ele>
        <time>2021-04-24T10:32:52Z</time>
      </trkpt>
      <trkpt lat="43.66196" lon="3.82707">
        <ele>103</ele>
        <time>2021-04-24T10:32:53Z</time>
      </trkpt>
      <trkpt lat="43.66199" lon="3.82706">
        <ele>103</ele>
        <time>2021-04-24T10:32:54Z</time>
      </trkpt>
      <trkpt lat="43.66202" lon="3.82706">
        <ele>103</ele>
        <time>2021-04-24T10:32:55Z</time>
      </trkpt>
      <trkpt lat="43.66205" lon="3.82705">
        <ele>103</ele>
        <time>2021-04-24T10:32:56Z</time>
      </trkpt>
      <trkpt lat="43.66207" lon="3.82705">
        <ele>103</ele>
        <time>2021-04-24T10:32:57Z</time>
      </trkpt>
      <trkpt lat="43.6621" lon="3.82706">
        <ele>103</ele>
        <time>2021-04-24T10:32:58Z</time>
      </trkpt>
      <trkpt lat="43.66213" lon="3.82708">
        <ele>103</ele>
        <time>2021-04-24T10:32:59Z</time>
      </trkpt>
      <trkpt lat="43.66215" lon="3.82709">
        <ele>103</ele>
        <time>2021-04-24T10:33:00Z</time>
      </trkpt>
      <trkpt lat="43.66217" lon="3.82711">
        <ele>104</ele>
        <time>2021-04-24T10:33:01Z</time>
      </trkpt>
      <trkpt lat="43.66219" lon="3.82712">
        <ele>104</ele>
        <time>2021-04-24T10:33:02Z</time>
      </trkpt>
      <trkpt lat="43.6622" lon="3.82714">
        <ele>104</ele>
        <time>2021-04-24T10:33:03Z</time>
      </trkpt>
      <trkpt lat="43.66222" lon="3.82716">
        <ele>104</ele>
        <time>2021-04-24T10:33:04Z</time>
      </trkpt>
      <trkpt lat="43.66223" lon="3.82718">
        <ele>104</ele>
        <time>2021-04-24T10:33:05Z</time>
      </trkpt>
      <trkpt lat="43.66224" lon="3.8272">
        <ele>104</ele>
        <time>2021-04-24T10:33:06Z</time>
      </trkpt>
      <trkpt lat="43.66226" lon="3.82721">
        <ele>104</ele>
        <time>2021-04-24T10:33:07Z</time>
      </trkpt>
      <trkpt lat="43.66228" lon="3.82723">
        <ele>104</ele>
        <time>2021-04-24T10:33:08Z</time>
      </trkpt>
      <trkpt lat="43.6623" lon="3.82724">
        <ele>104</ele>
        <time>2021-04-24T10:33:09Z</time>
      </trkpt>
      <trkpt lat="43.66232" lon="3.82724">
        <ele>104</ele>
        <time>2021-04-24T10:33:10Z</time>
      </trkpt>
      <trkpt lat="43.66234" lon="3.82724">
        <ele>106</ele>
        <time>2021-04-24T10:33:11Z</time>
      </trkpt>
      <trkpt lat="43.66237" lon="3.82723">
        <ele>106</ele>
        <time>2021-04-24T10:33:13Z</time>
      </trkpt>
      <trkpt lat="43.6624" lon="3.82723">
        <ele>106</ele>
        <time>2021-04-24T10:33:15Z</time>
      </trkpt>
      <trkpt lat="43.66242" lon="3.82721">
        <ele>106</ele>
        <time>2021-04-24T10:33:16Z</time>
      </trkpt>
      <trkpt lat="43.66245" lon="3.82719">
        <ele>106</ele>
        <time>2021-04-24T10:33:17Z</time>
      </trkpt>
      <trkpt lat="43.66247" lon="3.82717">
        <ele>106</ele>
        <time>2021-04-24T10:33:18Z</time>
      </trkpt>
      <trkpt lat="43.66249" lon="3.82713">
        <ele>106</ele>
        <time>2021-04-24T10:33:19Z</time>
      </trkpt>
      <trkpt lat="43.6625" lon="3.82709">
        <ele>106</ele>
        <time>2021-04-24T10:33:20Z</time>
      </trkpt>
      <trkpt lat="43.66251" lon="3.82706">
        <ele>107</ele>
        <time>2021-04-24T10:33:21Z</time>
      </trkpt>
      <trkpt lat="43.66252" lon="3.82703">
        <ele>107</ele>
        <time>2021-04-24T10:33:22Z</time>
      </trkpt>
      <trkpt lat="43.66255" lon="3.82698">
        <ele>107</ele>
        <time>2021-04-24T10:33:24Z</time>
      </trkpt>
      <trkpt lat="43.66256" lon="3.82696">
        <ele>107</ele>
        <time>2021-04-24T10:33:25Z</time>
      </trkpt>
      <trkpt lat="43.66257" lon="3.82694">
        <ele>107</ele>
        <time>2021-04-24T10:33:26Z</time>
      </trkpt>
      <trkpt lat="43.66259" lon="3.8269">
        <ele>107</ele>
        <time>2021-04-24T10:33:28Z</time>
      </trkpt>
      <trkpt lat="43.66258" lon="3.82685">
        <ele>107</ele>
        <time>2021-04-24T10:33:30Z</time>
      </trkpt>
      <trkpt lat="43.66256" lon="3.82681">
        <ele>108</ele>
        <time>2021-04-24T10:33:31Z</time>
      </trkpt>
      <trkpt lat="43.66256" lon="3.82676">
        <ele>108</ele>
        <time>2021-04-24T10:33:32Z</time>
      </trkpt>
      <trkpt lat="43.66256" lon="3.82674">
        <ele>108</ele>
        <time>2021-04-24T10:33:33Z</time>
      </trkpt>
      <trkpt lat="43.66257" lon="3.8267">
        <ele>108</ele>
        <time>2021-04-24T10:33:35Z</time>
      </trkpt>
      <trkpt lat="43.66258" lon="3.82667">
        <ele>108</ele>
        <time>2021-04-24T10:33:36Z</time>
      </trkpt>
      <trkpt lat="43.66258" lon="3.82664">
        <ele>108</ele>
        <time>2021-04-24T10:33:37Z</time>
      </trkpt>
      <trkpt lat="43.66258" lon="3.82661">
        <ele>108</ele>
        <time>2021-04-24T10:33:38Z</time>
      </trkpt>
      <trkpt lat="43.66258" lon="3.82658">
        <ele>108</ele>
        <time>2021-04-24T10:33:39Z</time>
      </trkpt>
      <trkpt lat="43.66259" lon="3.82654">
        <ele>108</ele>
        <time>2021-04-24T10:33:40Z</time>
      </trkpt>
      <trkpt lat="43.66259" lon="3.8265">
        <ele>108</ele>
        <time>2021-04-24T10:33:41Z</time>
      </trkpt>
      <trkpt lat="43.66259" lon="3.82646">
        <ele>108</ele>
        <time>2021-04-24T10:33:42Z</time>
      </trkpt>
      <trkpt lat="43.66258" lon="3.82642">
        <ele>108</ele>
        <time>2021-04-24T10:33:43Z</time>
      </trkpt>
      <trkpt lat="43.66257" lon="3.82639">
        <ele>108</ele>
        <time>2021-04-24T10:33:44Z</time>
      </trkpt>
      <trkpt lat="43.66257" lon="3.82636">
        <ele>108</ele>
        <time>2021-04-24T10:33:45Z</time>
      </trkpt>
      <trkpt lat="43.66258" lon="3.82631">
        <ele>108</ele>
        <time>2021-04-24T10:33:47Z</time>
      </trkpt>
      <trkpt lat="43.66259" lon="3.82629">
        <ele>108</ele>
        <time>2021-04-24T10:33:48Z</time>
      </trkpt>
      <trkpt lat="43.66261" lon="3.82628">
        <ele>108</ele>
        <time>2021-04-24T10:33:49Z</time>
      </trkpt>
      <trkpt lat="43.66263" lon="3.82628">
        <ele>108</ele>
        <time>2021-04-24T10:33:50Z</time>
      </trkpt>
      <trkpt lat="43.66264" lon="3.82627">
        <ele>108</ele>
        <time>2021-04-24T10:33:51Z</time>
      </trkpt>
      <trkpt lat="43.66267" lon="3.82627">
        <ele>108</ele>
        <time>2021-04-24T10:33:52Z</time>
      </trkpt>
      <trkpt lat="43.66268" lon="3.82626">
        <ele>108</ele>
        <time>2021-04-24T10:33:53Z</time>
      </trkpt>
      <trkpt lat="43.66272" lon="3.82625">
        <ele>108</ele>
        <time>2021-04-24T10:33:55Z</time>
      </trkpt>
      <trkpt lat="43.66275" lon="3.82625">
        <ele>108</ele>
        <time>2021-04-24T10:33:57Z</time>
      </trkpt>
      <trkpt lat="43.66278" lon="3.82625">
        <ele>108</ele>
        <time>2021-04-24T10:33:59Z</time>
      </trkpt>
      <trkpt lat="43.66281" lon="3.82625">
        <ele>109</ele>
        <time>2021-04-24T10:34:01Z</time>
      </trkpt>
      <trkpt lat="43.66283" lon="3.82624">
        <ele>109</ele>
        <time>2021-04-24T10:34:03Z</time>
      </trkpt>
      <trkpt lat="43.66285" lon="3.82622">
        <ele>109</ele>
        <time>2021-04-24T10:34:05Z</time>
      </trkpt>
      <trkpt lat="43.66288" lon="3.82619">
        <ele>109</ele>
        <time>2021-04-24T10:34:07Z</time>
      </trkpt>
      <trkpt lat="43.66289" lon="3.82617">
        <ele>109</ele>
        <time>2021-04-24T10:34:08Z</time>
      </trkpt>
      <trkpt lat="43.6629" lon="3.82614">
        <ele>109</ele>
        <time>2021-04-24T10:34:09Z</time>
      </trkpt>
      <trkpt lat="43.66291" lon="3.82611">
        <ele>109</ele>
        <time>2021-04-24T10:34:10Z</time>
      </trkpt>
      <trkpt lat="43.66292" lon="3.82609">
        <ele>110</ele>
        <time>2021-04-24T10:34:11Z</time>
      </trkpt>
      <trkpt lat="43.66293" lon="3.82606">
        <ele>110</ele>
        <time>2021-04-24T10:34:12Z</time>
      </trkpt>
      <trkpt lat="43.66294" lon="3.82604">
        <ele>110</ele>
        <time>2021-04-24T10:34:13Z</time>
      </trkpt>
      <trkpt lat="43.66295" lon="3.82602">
        <ele>110</ele>
        <time>2021-04-24T10:34:14Z</time>
      </trkpt>
      <trkpt lat="43.66296" lon="3.82597">
        <ele>110</ele>
        <time>2021-04-24T10:34:16Z</time>
      </trkpt>
      <trkpt lat="43.66296" lon="3.82593">
        <ele>110</ele>
        <time>2021-04-24T10:34:17Z</time>
      </trkpt>
      <trkpt lat="43.66295" lon="3.82588">
        <ele>110</ele>
        <time>2021-04-24T10:34:18Z</time>
      </trkpt>
      <trkpt lat="43.66295" lon="3.82583">
        <ele>110</ele>
        <time>2021-04-24T10:34:19Z</time>
      </trkpt>
      <trkpt lat="43.66296" lon="3.82579">
        <ele>110</ele>
        <time>2021-04-24T10:34:20Z</time>
      </trkpt>
      <trkpt lat="43.66297" lon="3.82575">
        <ele>110</ele>
        <time>2021-04-24T10:34:21Z</time>
      </trkpt>
      <trkpt lat="43.66297" lon="3.82571">
        <ele>110</ele>
        <time>2021-04-24T10:34:22Z</time>
      </trkpt>
      <trkpt lat="43.66298" lon="3.82568">
        <ele>110</ele>
        <time>2021-04-24T10:34:23Z</time>
      </trkpt>
      <trkpt lat="43.66299" lon="3.82566">
        <ele>110</ele>
        <time>2021-04-24T10:34:24Z</time>
      </trkpt>
      <trkpt lat="43.66301" lon="3.82564">
        <ele>110</ele>
        <time>2021-04-24T10:34:25Z</time>
      </trkpt>
      <trkpt lat="43.66302" lon="3.82562">
        <ele>110</ele>
        <time>2021-04-24T10:34:26Z</time>
      </trkpt>
      <trkpt lat="43.66302" lon="3.82558">
        <ele>110</ele>
        <time>2021-04-24T10:34:27Z</time>
      </trkpt>
      <trkpt lat="43.66302" lon="3.82555">
        <ele>110</ele>
        <time>2021-04-24T10:34:28Z</time>
      </trkpt>
      <trkpt lat="43.66301" lon="3.82551">
        <ele>110</ele>
        <time>2021-04-24T10:34:29Z</time>
      </trkpt>
      <trkpt lat="43.66301" lon="3.82546">
        <ele>110</ele>
        <time>2021-04-24T10:34:30Z</time>
      </trkpt>
      <trkpt lat="43.663" lon="3.82542">
        <ele>111</ele>
        <time>2021-04-24T10:34:31Z</time>
      </trkpt>
      <trkpt lat="43.663" lon="3.82538">
        <ele>111</ele>
        <time>2021-04-24T10:34:32Z</time>
      </trkpt>
      <trkpt lat="43.663" lon="3.82535">
        <ele>111</ele>
        <time>2021-04-24T10:34:33Z</time>
      </trkpt>
      <trkpt lat="43.66299" lon="3.8253">
        <ele>111</ele>
        <time>2021-04-24T10:34:34Z</time>
      </trkpt>
      <trkpt lat="43.66299" lon="3.82526">
        <ele>111</ele>
        <time>2021-04-24T10:34:35Z</time>
      </trkpt>
      <trkpt lat="43.66299" lon="3.82522">
        <ele>111</ele>
        <time>2021-04-24T10:34:36Z</time>
      </trkpt>
      <trkpt lat="43.663" lon="3.82519">
        <ele>111</ele>
        <time>2021-04-24T10:34:37Z</time>
      </trkpt>
      <trkpt lat="43.663" lon="3.82516">
        <ele>111</ele>
        <time>2021-04-24T10:34:38Z</time>
      </trkpt>
      <trkpt lat="43.663" lon="3.82512">
        <ele>111</ele>
        <time>2021-04-24T10:34:39Z</time>
      </trkpt>
      <trkpt lat="43.663" lon="3.82507">
        <ele>111</ele>
        <time>2021-04-24T10:34:40Z</time>
      </trkpt>
      <trkpt lat="43.663" lon="3.82501">
        <ele>110</ele>
        <time>2021-04-24T10:34:41Z</time>
      </trkpt>
      <trkpt lat="43.66301" lon="3.82496">
        <ele>110</ele>
        <time>2021-04-24T10:34:42Z</time>
      </trkpt>
      <trkpt lat="43.66302" lon="3.82492">
        <ele>110</ele>
        <time>2021-04-24T10:34:43Z</time>
      </trkpt>
      <trkpt lat="43.66302" lon="3.82488">
        <ele>110</ele>
        <time>2021-04-24T10:34:44Z</time>
      </trkpt>
      <trkpt lat="43.66303" lon="3.82485">
        <ele>110</ele>
        <time>2021-04-24T10:34:45Z</time>
      </trkpt>
      <trkpt lat="43.66304" lon="3.8248">
        <ele>110</ele>
        <time>2021-04-24T10:34:46Z</time>
      </trkpt>
      <trkpt lat="43.66305" lon="3.82475">
        <ele>110</ele>
        <time>2021-04-24T10:34:47Z</time>
      </trkpt>
      <trkpt lat="43.66305" lon="3.82469">
        <ele>110</ele>
        <time>2021-04-24T10:34:48Z</time>
      </trkpt>
      <trkpt lat="43.66306" lon="3.82464">
        <ele>110</ele>
        <time>2021-04-24T10:34:49Z</time>
      </trkpt>
      <trkpt lat="43.66306" lon="3.82458">
        <ele>110</ele>
        <time>2021-04-24T10:34:50Z</time>
      </trkpt>
      <trkpt lat="43.66308" lon="3.82453">
        <ele>110</ele>
        <time>2021-04-24T10:34:51Z</time>
      </trkpt>
      <trkpt lat="43.66309" lon="3.8245">
        <ele>110</ele>
        <time>2021-04-24T10:34:52Z</time>
      </trkpt>
      <trkpt lat="43.66311" lon="3.82449">
        <ele>110</ele>
        <time>2021-04-24T10:34:53Z</time>
      </trkpt>
      <trkpt lat="43.66313" lon="3.82447">
        <ele>110</ele>
        <time>2021-04-24T10:34:54Z</time>
      </trkpt>
      <trkpt lat="43.66315" lon="3.82445">
        <ele>110</ele>
        <time>2021-04-24T10:34:55Z</time>
      </trkpt>
      <trkpt lat="43.66317" lon="3.82444">
        <ele>110</ele>
        <time>2021-04-24T10:34:56Z</time>
      </trkpt>
      <trkpt lat="43.66319" lon="3.82442">
        <ele>110</ele>
        <time>2021-04-24T10:34:57Z</time>
      </trkpt>
      <trkpt lat="43.6632" lon="3.8244">
        <ele>110</ele>
        <time>2021-04-24T10:34:58Z</time>
      </trkpt>
      <trkpt lat="43.66322" lon="3.82439">
        <ele>110</ele>
        <time>2021-04-24T10:34:59Z</time>
      </trkpt>
      <trkpt lat="43.66323" lon="3.82437">
        <ele>110</ele>
        <time>2021-04-24T10:35:00Z</time>
      </trkpt>
      <trkpt lat="43.66325" lon="3.82435">
        <ele>110</ele>
        <time>2021-04-24T10:35:01Z</time>
      </trkpt>
      <trkpt lat="43.66326" lon="3.82434">
        <ele>110</ele>
        <time>2021-04-24T10:35:02Z</time>
      </trkpt>
      <trkpt lat="43.66328" lon="3.82432">
        <ele>110</ele>
        <time>2021-04-24T10:35:03Z</time>
      </trkpt>
      <trkpt lat="43.66329" lon="3.82431">
        <ele>110</ele>
        <time>2021-04-24T10:35:04Z</time>
      </trkpt>
      <trkpt lat="43.66332" lon="3.82429">
        <ele>110</ele>
        <time>2021-04-24T10:35:06Z</time>
      </trkpt>
      <trkpt lat="43.66335" lon="3.82427">
        <ele>110</ele>
        <time>2021-04-24T10:35:08Z</time>
      </trkpt>
      <trkpt lat="43.66337" lon="3.82426">
        <ele>110</ele>
        <time>2021-04-24T10:35:10Z</time>
      </trkpt>
      <trkpt lat="43.6634" lon="3.82424">
        <ele>110</ele>
        <time>2021-04-24T10:35:12Z</time>
      </trkpt>
      <trkpt lat="43.66343" lon="3.82422">
        <ele>110</ele>
        <time>2021-04-24T10:35:14Z</time>
      </trkpt>
      <trkpt lat="43.66345" lon="3.8242">
        <ele>110</ele>
        <time>2021-04-24T10:35:16Z</time>
      </trkpt>
      <trkpt lat="43.66348" lon="3.82418">
        <ele>110</ele>
        <time>2021-04-24T10:35:18Z</time>
      </trkpt>
      <trkpt lat="43.6635" lon="3.82416">
        <ele>110</ele>
        <time>2021-04-24T10:35:20Z</time>
      </trkpt>
      <trkpt lat="43.66353" lon="3.82414">
        <ele>110</ele>
        <time>2021-04-24T10:35:22Z</time>
      </trkpt>
      <trkpt lat="43.66356" lon="3.82412">
        <ele>110</ele>
        <time>2021-04-24T10:35:24Z</time>
      </trkpt>
      <trkpt lat="43.66358" lon="3.8241">
        <ele>110</ele>
        <time>2021-04-24T10:35:26Z</time>
      </trkpt>
      <trkpt lat="43.66361" lon="3.82408">
        <ele>110</ele>
        <time>2021-04-24T10:35:28Z</time>
      </trkpt>
      <trkpt lat="43.66363" lon="3.82405">
        <ele>110</ele>
        <time>2021-04-24T10:35:30Z</time>
      </trkpt>
      <trkpt lat="43.66365" lon="3.82401">
        <ele>110</ele>
        <time>2021-04-24T10:35:32Z</time>
      </trkpt>
      <trkpt lat="43.66366" lon="3.82398">
        <ele>110</ele>
        <time>2021-04-24T10:35:33Z</time>
      </trkpt>
      <trkpt lat="43.66365" lon="3.82393">
        <ele>110</ele>
        <time>2021-04-24T10:35:35Z</time>
      </trkpt>
      <trkpt lat="43.66363" lon="3.82389">
        <ele>110</ele>
        <time>2021-04-24T10:35:36Z</time>
      </trkpt>
      <trkpt lat="43.66361" lon="3.82383">
        <ele>110</ele>
        <time>2021-04-24T10:35:37Z</time>
      </trkpt>
      <trkpt lat="43.6636" lon="3.82377">
        <ele>110</ele>
        <time>2021-04-24T10:35:38Z</time>
      </trkpt>
      <trkpt lat="43.66358" lon="3.8237">
        <ele>110</ele>
        <time>2021-04-24T10:35:39Z</time>
      </trkpt>
      <trkpt lat="43.66356" lon="3.82365">
        <ele>110</ele>
        <time>2021-04-24T10:35:40Z</time>
      </trkpt>
      <trkpt lat="43.66353" lon="3.82361">
        <ele>114</ele>
        <time>2021-04-24T10:35:41Z</time>
      </trkpt>
      <trkpt lat="43.6635" lon="3.82357">
        <ele>114</ele>
        <time>2021-04-24T10:35:42Z</time>
      </trkpt>
      <trkpt lat="43.66347" lon="3.82353">
        <ele>114</ele>
        <time>2021-04-24T10:35:43Z</time>
      </trkpt>
      <trkpt lat="43.66345" lon="3.82348">
        <ele>114</ele>
        <time>2021-04-24T10:35:44Z</time>
      </trkpt>
      <trkpt lat="43.66342" lon="3.82344">
        <ele>114</ele>
        <time>2021-04-24T10:35:45Z</time>
      </trkpt>
      <trkpt lat="43.66339" lon="3.82341">
        <ele>114</ele>
        <time>2021-04-24T10:35:46Z</time>
      </trkpt>
      <trkpt lat="43.66335" lon="3.82338">
        <ele>114</ele>
        <time>2021-04-24T10:35:47Z</time>
      </trkpt>
      <trkpt lat="43.66332" lon="3.82333">
        <ele>114</ele>
        <time>2021-04-24T10:35:48Z</time>
      </trkpt>
      <trkpt lat="43.6633" lon="3.82327">
        <ele>114</ele>
        <time>2021-04-24T10:35:49Z</time>
      </trkpt>
      <trkpt lat="43.66328" lon="3.82321">
        <ele>114</ele>
        <time>2021-04-24T10:35:50Z</time>
      </trkpt>
      <trkpt lat="43.66326" lon="3.82314">
        <ele>114</ele>
        <time>2021-04-24T10:35:51Z</time>
      </trkpt>
      <trkpt lat="43.66323" lon="3.82309">
        <ele>114</ele>
        <time>2021-04-24T10:35:52Z</time>
      </trkpt>
      <trkpt lat="43.66321" lon="3.82304">
        <ele>114</ele>
        <time>2021-04-24T10:35:53Z</time>
      </trkpt>
      <trkpt lat="43.66319" lon="3.823">
        <ele>114</ele>
        <time>2021-04-24T10:35:54Z</time>
      </trkpt>
      <trkpt lat="43.66318" lon="3.82295">
        <ele>114</ele>
        <time>2021-04-24T10:35:55Z</time>
      </trkpt>
      <trkpt lat="43.66317" lon="3.82291">
        <ele>114</ele>
        <time>2021-04-24T10:35:56Z</time>
      </trkpt>
      <trkpt lat="43.66315" lon="3.82287">
        <ele>114</ele>
        <time>2021-04-24T10:35:57Z</time>
      </trkpt>
      <trkpt lat="43.66314" lon="3.82284">
        <ele>114</ele>
        <time>2021-04-24T10:35:58Z</time>
      </trkpt>
      <trkpt lat="43.66314" lon="3.8228">
        <ele>114</ele>
        <time>2021-04-24T10:35:59Z</time>
      </trkpt>
      <trkpt lat="43.66313" lon="3.82276">
        <ele>114</ele>
        <time>2021-04-24T10:36:00Z</time>
      </trkpt>
      <trkpt lat="43.66313" lon="3.82272">
        <ele>114</ele>
        <time>2021-04-24T10:36:01Z</time>
      </trkpt>
      <trkpt lat="43.66312" lon="3.82268">
        <ele>114</ele>
        <time>2021-04-24T10:36:02Z</time>
      </trkpt>
      <trkpt lat="43.66312" lon="3.82264">
        <ele>114</ele>
        <time>2021-04-24T10:36:03Z</time>
      </trkpt>
      <trkpt lat="43.66312" lon="3.8226">
        <ele>114</ele>
        <time>2021-04-24T10:36:04Z</time>
      </trkpt>
      <trkpt lat="43.66312" lon="3.82257">
        <ele>114</ele>
        <time>2021-04-24T10:36:05Z</time>
      </trkpt>
      <trkpt lat="43.66312" lon="3.82254">
        <ele>114</ele>
        <time>2021-04-24T10:36:06Z</time>
      </trkpt>
      <trkpt lat="43.66312" lon="3.8225">
        <ele>114</ele>
        <time>2021-04-24T10:36:07Z</time>
      </trkpt>
      <trkpt lat="43.66312" lon="3.82246">
        <ele>114</ele>
        <time>2021-04-24T10:36:08Z</time>
      </trkpt>
      <trkpt lat="43.66311" lon="3.82242">
        <ele>114</ele>
        <time>2021-04-24T10:36:09Z</time>
      </trkpt>
      <trkpt lat="43.66311" lon="3.82238">
        <ele>114</ele>
        <time>2021-04-24T10:36:10Z</time>
      </trkpt>
      <trkpt lat="43.6631" lon="3.82234">
        <ele>115</ele>
        <time>2021-04-24T10:36:11Z</time>
      </trkpt>
      <trkpt lat="43.6631" lon="3.82229">
        <ele>115</ele>
        <time>2021-04-24T10:36:12Z</time>
      </trkpt>
      <trkpt lat="43.66309" lon="3.82225">
        <ele>115</ele>
        <time>2021-04-24T10:36:13Z</time>
      </trkpt>
      <trkpt lat="43.66309" lon="3.82222">
        <ele>115</ele>
        <time>2021-04-24T10:36:14Z</time>
      </trkpt>
      <trkpt lat="43.66309" lon="3.82218">
        <ele>115</ele>
        <time>2021-04-24T10:36:15Z</time>
      </trkpt>
      <trkpt lat="43.66309" lon="3.82214">
        <ele>115</ele>
        <time>2021-04-24T10:36:16Z</time>
      </trkpt>
      <trkpt lat="43.66309" lon="3.8221">
        <ele>115</ele>
        <time>2021-04-24T10:36:17Z</time>
      </trkpt>
      <trkpt lat="43.66308" lon="3.82206">
        <ele>115</ele>
        <time>2021-04-24T10:36:18Z</time>
      </trkpt>
      <trkpt lat="43.66307" lon="3.82202">
        <ele>115</ele>
        <time>2021-04-24T10:36:19Z</time>
      </trkpt>
      <trkpt lat="43.66306" lon="3.82197">
        <ele>115</ele>
        <time>2021-04-24T10:36:20Z</time>
      </trkpt>
      <trkpt lat="43.66305" lon="3.82193">
        <ele>115</ele>
        <time>2021-04-24T10:36:21Z</time>
      </trkpt>
      <trkpt lat="43.66304" lon="3.82188">
        <ele>115</ele>
        <time>2021-04-24T10:36:22Z</time>
      </trkpt>
      <trkpt lat="43.66303" lon="3.82183">
        <ele>115</ele>
        <time>2021-04-24T10:36:23Z</time>
      </trkpt>
      <trkpt lat="43.66302" lon="3.82179">
        <ele>115</ele>
        <time>2021-04-24T10:36:24Z</time>
      </trkpt>
      <trkpt lat="43.663" lon="3.82174">
        <ele>115</ele>
        <time>2021-04-24T10:36:25Z</time>
      </trkpt>
      <trkpt lat="43.66298" lon="3.82169">
        <ele>115</ele>
        <time>2021-04-24T10:36:26Z</time>
      </trkpt>
      <trkpt lat="43.66295" lon="3.82164">
        <ele>115</ele>
        <time>2021-04-24T10:36:27Z</time>
      </trkpt>
      <trkpt lat="43.66292" lon="3.8216">
        <ele>115</ele>
        <time>2021-04-24T10:36:28Z</time>
      </trkpt>
      <trkpt lat="43.66288" lon="3.82155">
        <ele>115</ele>
        <time>2021-04-24T10:36:29Z</time>
      </trkpt>
      <trkpt lat="43.66285" lon="3.8215">
        <ele>115</ele>
        <time>2021-04-24T10:36:30Z</time>
      </trkpt>
      <trkpt lat="43.66281" lon="3.82144">
        <ele>115</ele>
        <time>2021-04-24T10:36:31Z</time>
      </trkpt>
      <trkpt lat="43.66278" lon="3.82137">
        <ele>115</ele>
        <time>2021-04-24T10:36:32Z</time>
      </trkpt>
      <trkpt lat="43.66275" lon="3.82128">
        <ele>115</ele>
        <time>2021-04-24T10:36:33Z</time>
      </trkpt>
      <trkpt lat="43.66273" lon="3.8212">
        <ele>115</ele>
        <time>2021-04-24T10:36:34Z</time>
      </trkpt>
      <trkpt lat="43.6627" lon="3.82112">
        <ele>115</ele>
        <time>2021-04-24T10:36:35Z</time>
      </trkpt>
      <trkpt lat="43.66269" lon="3.82105">
        <ele>115</ele>
        <time>2021-04-24T10:36:36Z</time>
      </trkpt>
      <trkpt lat="43.66267" lon="3.82099">
        <ele>115</ele>
        <time>2021-04-24T10:36:37Z</time>
      </trkpt>
      <trkpt lat="43.66265" lon="3.82093">
        <ele>115</ele>
        <time>2021-04-24T10:36:38Z</time>
      </trkpt>
      <trkpt lat="43.66263" lon="3.82089">
        <ele>115</ele>
        <time>2021-04-24T10:36:39Z</time>
      </trkpt>
      <trkpt lat="43.66261" lon="3.82082">
        <ele>115</ele>
        <time>2021-04-24T10:36:40Z</time>
      </trkpt>
      <trkpt lat="43.66252" lon="3.82062">
        <ele>115</ele>
        <time>2021-04-24T10:36:42Z</time>
      </trkpt>
      <trkpt lat="43.66246" lon="3.82043">
        <ele>115</ele>
        <time>2021-04-24T10:36:44Z</time>
      </trkpt>
      <trkpt lat="43.66245" lon="3.82036">
        <ele>115</ele>
        <time>2021-04-24T10:36:45Z</time>
      </trkpt>
      <trkpt lat="43.66243" lon="3.82029">
        <ele>115</ele>
        <time>2021-04-24T10:36:46Z</time>
      </trkpt>
      <trkpt lat="43.66241" lon="3.82024">
        <ele>115</ele>
        <time>2021-04-24T10:36:47Z</time>
      </trkpt>
      <trkpt lat="43.66238" lon="3.82021">
        <ele>115</ele>
        <time>2021-04-24T10:36:48Z</time>
      </trkpt>
      <trkpt lat="43.66234" lon="3.82019">
        <ele>115</ele>
        <time>2021-04-24T10:36:49Z</time>
      </trkpt>
      <trkpt lat="43.6623" lon="3.82015">
        <ele>115</ele>
        <time>2021-04-24T10:36:50Z</time>
      </trkpt>
      <trkpt lat="43.66226" lon="3.82012">
        <ele>114</ele>
        <time>2021-04-24T10:36:51Z</time>
      </trkpt>
      <trkpt lat="43.66221" lon="3.82008">
        <ele>114</ele>
        <time>2021-04-24T10:36:52Z</time>
      </trkpt>
      <trkpt lat="43.66216" lon="3.82004">
        <ele>114</ele>
        <time>2021-04-24T10:36:53Z</time>
      </trkpt>
      <trkpt lat="43.6621" lon="3.82002">
        <ele>114</ele>
        <time>2021-04-24T10:36:54Z</time>
      </trkpt>
      <trkpt lat="43.66205" lon="3.81998">
        <ele>114</ele>
        <time>2021-04-24T10:36:55Z</time>
      </trkpt>
      <trkpt lat="43.66201" lon="3.81993">
        <ele>114</ele>
        <time>2021-04-24T10:36:56Z</time>
      </trkpt>
      <trkpt lat="43.662" lon="3.81987">
        <ele>114</ele>
        <time>2021-04-24T10:36:57Z</time>
      </trkpt>
      <trkpt lat="43.662" lon="3.81982">
        <ele>114</ele>
        <time>2021-04-24T10:36:58Z</time>
      </trkpt>
      <trkpt lat="43.66201" lon="3.81978">
        <ele>114</ele>
        <time>2021-04-24T10:36:59Z</time>
      </trkpt>
      <trkpt lat="43.66203" lon="3.81975">
        <ele>114</ele>
        <time>2021-04-24T10:37:00Z</time>
      </trkpt>
      <trkpt lat="43.66205" lon="3.81972">
        <ele>112</ele>
        <time>2021-04-24T10:37:01Z</time>
      </trkpt>
      <trkpt lat="43.66206" lon="3.81969">
        <ele>112</ele>
        <time>2021-04-24T10:37:02Z</time>
      </trkpt>
      <trkpt lat="43.66206" lon="3.81967">
        <ele>112</ele>
        <time>2021-04-24T10:37:03Z</time>
      </trkpt>
      <trkpt lat="43.66207" lon="3.81964">
        <ele>112</ele>
        <time>2021-04-24T10:37:04Z</time>
      </trkpt>
      <trkpt lat="43.66208" lon="3.81961">
        <ele>112</ele>
        <time>2021-04-24T10:37:05Z</time>
      </trkpt>
      <trkpt lat="43.66209" lon="3.81958">
        <ele>112</ele>
        <time>2021-04-24T10:37:06Z</time>
      </trkpt>
      <trkpt lat="43.66209" lon="3.81955">
        <ele>112</ele>
        <time>2021-04-24T10:37:07Z</time>
      </trkpt>
      <trkpt lat="43.66209" lon="3.81951">
        <ele>112</ele>
        <time>2021-04-24T10:37:08Z</time>
      </trkpt>
      <trkpt lat="43.6621" lon="3.81947">
        <ele>112</ele>
        <time>2021-04-24T10:37:09Z</time>
      </trkpt>
      <trkpt lat="43.6621" lon="3.81943">
        <ele>112</ele>
        <time>2021-04-24T10:37:10Z</time>
      </trkpt>
      <trkpt lat="43.6621" lon="3.81938">
        <ele>113</ele>
        <time>2021-04-24T10:37:11Z</time>
      </trkpt>
      <trkpt lat="43.6621" lon="3.81934">
        <ele>113</ele>
        <time>2021-04-24T10:37:12Z</time>
      </trkpt>
      <trkpt lat="43.66211" lon="3.8193">
        <ele>113</ele>
        <time>2021-04-24T10:37:13Z</time>
      </trkpt>
      <trkpt lat="43.66212" lon="3.81926">
        <ele>113</ele>
        <time>2021-04-24T10:37:14Z</time>
      </trkpt>
      <trkpt lat="43.66213" lon="3.81922">
        <ele>113</ele>
        <time>2021-04-24T10:37:15Z</time>
      </trkpt>
      <trkpt lat="43.66214" lon="3.81918">
        <ele>113</ele>
        <time>2021-04-24T10:37:16Z</time>
      </trkpt>
      <trkpt lat="43.66214" lon="3.81915">
        <ele>113</ele>
        <time>2021-04-24T10:37:17Z</time>
      </trkpt>
      <trkpt lat="43.66215" lon="3.81911">
        <ele>113</ele>
        <time>2021-04-24T10:37:18Z</time>
      </trkpt>
      <trkpt lat="43.66216" lon="3.81907">
        <ele>113</ele>
        <time>2021-04-24T10:37:19Z</time>
      </trkpt>
      <trkpt lat="43.66217" lon="3.81902">
        <ele>113</ele>
        <time>2021-04-24T10:37:20Z</time>
      </trkpt>
      <trkpt lat="43.66218" lon="3.81898">
        <ele>114</ele>
        <time>2021-04-24T10:37:21Z</time>
      </trkpt>
      <trkpt lat="43.66218" lon="3.81894">
        <ele>114</ele>
        <time>2021-04-24T10:37:22Z</time>
      </trkpt>
      <trkpt lat="43.66218" lon="3.81889">
        <ele>114</ele>
        <time>2021-04-24T10:37:23Z</time>
      </trkpt>
      <trkpt lat="43.66218" lon="3.81885">
        <ele>114</ele>
        <time>2021-04-24T10:37:24Z</time>
      </trkpt>
      <trkpt lat="43.66218" lon="3.81881">
        <ele>114</ele>
        <time>2021-04-24T10:37:25Z</time>
      </trkpt>
      <trkpt lat="43.66218" lon="3.81876">
        <ele>114</ele>
        <time>2021-04-24T10:37:26Z</time>
      </trkpt>
      <trkpt lat="43.66218" lon="3.81872">
        <ele>114</ele>
        <time>2021-04-24T10:37:27Z</time>
      </trkpt>
      <trkpt lat="43.66218" lon="3.81866">
        <ele>114</ele>
        <time>2021-04-24T10:37:28Z</time>
      </trkpt>
      <trkpt lat="43.66219" lon="3.81862">
        <ele>114</ele>
        <time>2021-04-24T10:37:29Z</time>
      </trkpt>
      <trkpt lat="43.6622" lon="3.81856">
        <ele>114</ele>
        <time>2021-04-24T10:37:30Z</time>
      </trkpt>
      <trkpt lat="43.66221" lon="3.81852">
        <ele>114</ele>
        <time>2021-04-24T10:37:31Z</time>
      </trkpt>
      <trkpt lat="43.66221" lon="3.81849">
        <ele>114</ele>
        <time>2021-04-24T10:37:32Z</time>
      </trkpt>
      <trkpt lat="43.66222" lon="3.81846">
        <ele>114</ele>
        <time>2021-04-24T10:37:33Z</time>
      </trkpt>
      <trkpt lat="43.66223" lon="3.81843">
        <ele>114</ele>
        <time>2021-04-24T10:37:34Z</time>
      </trkpt>
      <trkpt lat="43.66225" lon="3.81841">
        <ele>114</ele>
        <time>2021-04-24T10:37:35Z</time>
      </trkpt>
      <trkpt lat="43.66226" lon="3.81838">
        <ele>114</ele>
        <time>2021-04-24T10:37:36Z</time>
      </trkpt>
      <trkpt lat="43.66226" lon="3.81835">
        <ele>114</ele>
        <time>2021-04-24T10:37:37Z</time>
      </trkpt>
      <trkpt lat="43.66226" lon="3.81832">
        <ele>114</ele>
        <time>2021-04-24T10:37:38Z</time>
      </trkpt>
      <trkpt lat="43.66226" lon="3.81828">
        <ele>114</ele>
        <time>2021-04-24T10:37:39Z</time>
      </trkpt>
      <trkpt lat="43.66225" lon="3.81823">
        <ele>114</ele>
        <time>2021-04-24T10:37:40Z</time>
      </trkpt>
      <trkpt lat="43.66224" lon="3.81819">
        <ele>115</ele>
        <time>2021-04-24T10:37:41Z</time>
      </trkpt>
      <trkpt lat="43.66224" lon="3.81814">
        <ele>115</ele>
        <time>2021-04-24T10:37:42Z</time>
      </trkpt>
      <trkpt lat="43.66224" lon="3.8181">
        <ele>115</ele>
        <time>2021-04-24T10:37:43Z</time>
      </trkpt>
      <trkpt lat="43.66224" lon="3.81805">
        <ele>115</ele>
        <time>2021-04-24T10:37:44Z</time>
      </trkpt>
      <trkpt lat="43.66225" lon="3.81801">
        <ele>115</ele>
        <time>2021-04-24T10:37:45Z</time>
      </trkpt>
      <trkpt lat="43.66225" lon="3.81797">
        <ele>115</ele>
        <time>2021-04-24T10:37:46Z</time>
      </trkpt>
      <trkpt lat="43.66225" lon="3.81793">
        <ele>115</ele>
        <time>2021-04-24T10:37:47Z</time>
      </trkpt>
      <trkpt lat="43.66225" lon="3.81789">
        <ele>115</ele>
        <time>2021-04-24T10:37:48Z</time>
      </trkpt>
      <trkpt lat="43.66225" lon="3.81784">
        <ele>115</ele>
        <time>2021-04-24T10:37:49Z</time>
      </trkpt>
      <trkpt lat="43.66226" lon="3.8178">
        <ele>115</ele>
        <time>2021-04-24T10:37:50Z</time>
      </trkpt>
      <trkpt lat="43.66227" lon="3.81776">
        <ele>115</ele>
        <time>2021-04-24T10:37:51Z</time>
      </trkpt>
      <trkpt lat="43.66228" lon="3.81774">
        <ele>115</ele>
        <time>2021-04-24T10:37:52Z</time>
      </trkpt>
      <trkpt lat="43.66229" lon="3.81771">
        <ele>115</ele>
        <time>2021-04-24T10:37:53Z</time>
      </trkpt>
      <trkpt lat="43.6623" lon="3.81768">
        <ele>115</ele>
        <time>2021-04-24T10:37:54Z</time>
      </trkpt>
      <trkpt lat="43.6623" lon="3.81765">
        <ele>115</ele>
        <time>2021-04-24T10:37:55Z</time>
      </trkpt>
      <trkpt lat="43.66229" lon="3.81761">
        <ele>115</ele>
        <time>2021-04-24T10:37:56Z</time>
      </trkpt>
      <trkpt lat="43.66229" lon="3.81758">
        <ele>115</ele>
        <time>2021-04-24T10:37:57Z</time>
      </trkpt>
      <trkpt lat="43.66229" lon="3.81754">
        <ele>115</ele>
        <time>2021-04-24T10:37:58Z</time>
      </trkpt>
      <trkpt lat="43.66228" lon="3.8175">
        <ele>115</ele>
        <time>2021-04-24T10:37:59Z</time>
      </trkpt>
      <trkpt lat="43.66228" lon="3.81746">
        <ele>115</ele>
        <time>2021-04-24T10:38:00Z</time>
      </trkpt>
      <trkpt lat="43.66227" lon="3.81741">
        <ele>116</ele>
        <time>2021-04-24T10:38:01Z</time>
      </trkpt>
      <trkpt lat="43.66226" lon="3.81737">
        <ele>116</ele>
        <time>2021-04-24T10:38:02Z</time>
      </trkpt>
      <trkpt lat="43.66226" lon="3.81732">
        <ele>116</ele>
        <time>2021-04-24T10:38:03Z</time>
      </trkpt>
      <trkpt lat="43.66226" lon="3.81728">
        <ele>116</ele>
        <time>2021-04-24T10:38:04Z</time>
      </trkpt>
      <trkpt lat="43.66226" lon="3.81724">
        <ele>116</ele>
        <time>2021-04-24T10:38:05Z</time>
      </trkpt>
      <trkpt lat="43.66225" lon="3.81721">
        <ele>116</ele>
        <time>2021-04-24T10:38:06Z</time>
      </trkpt>
      <trkpt lat="43.66224" lon="3.81717">
        <ele>116</ele>
        <time>2021-04-24T10:38:07Z</time>
      </trkpt>
      <trkpt lat="43.66223" lon="3.81712">
        <ele>116</ele>
        <time>2021-04-24T10:38:08Z</time>
      </trkpt>
      <trkpt lat="43.66222" lon="3.81708">
        <ele>116</ele>
        <time>2021-04-24T10:38:09Z</time>
      </trkpt>
      <trkpt lat="43.66222" lon="3.81703">
        <ele>116</ele>
        <time>2021-04-24T10:38:10Z</time>
      </trkpt>
      <trkpt lat="43.66221" lon="3.81699">
        <ele>116</ele>
        <time>2021-04-24T10:38:11Z</time>
      </trkpt>
      <trkpt lat="43.66221" lon="3.81696">
        <ele>116</ele>
        <time>2021-04-24T10:38:12Z</time>
      </trkpt>
      <trkpt lat="43.6622" lon="3.81692">
        <ele>116</ele>
        <time>2021-04-24T10:38:13Z</time>
      </trkpt>
      <trkpt lat="43.6622" lon="3.81688">
        <ele>116</ele>
        <time>2021-04-24T10:38:14Z</time>
      </trkpt>
      <trkpt lat="43.6622" lon="3.81683">
        <ele>116</ele>
        <time>2021-04-24T10:38:15Z</time>
      </trkpt>
      <trkpt lat="43.6622" lon="3.81679">
        <ele>116</ele>
        <time>2021-04-24T10:38:16Z</time>
      </trkpt>
      <trkpt lat="43.6622" lon="3.81675">
        <ele>116</ele>
        <time>2021-04-24T10:38:17Z</time>
      </trkpt>
      <trkpt lat="43.66221" lon="3.81671">
        <ele>116</ele>
        <time>2021-04-24T10:38:18Z</time>
      </trkpt>
      <trkpt lat="43.66221" lon="3.81668">
        <ele>116</ele>
        <time>2021-04-24T10:38:19Z</time>
      </trkpt>
      <trkpt lat="43.6622" lon="3.81665">
        <ele>116</ele>
        <time>2021-04-24T10:38:20Z</time>
      </trkpt>
      <trkpt lat="43.66219" lon="3.81662">
        <ele>116</ele>
        <time>2021-04-24T10:38:21Z</time>
      </trkpt>
      <trkpt lat="43.66218" lon="3.81658">
        <ele>116</ele>
        <time>2021-04-24T10:38:22Z</time>
      </trkpt>
      <trkpt lat="43.66218" lon="3.81652">
        <ele>116</ele>
        <time>2021-04-24T10:38:23Z</time>
      </trkpt>
      <trkpt lat="43.66216" lon="3.81646">
        <ele>116</ele>
        <time>2021-04-24T10:38:24Z</time>
      </trkpt>
      <trkpt lat="43.66215" lon="3.81641">
        <ele>116</ele>
        <time>2021-04-24T10:38:25Z</time>
      </trkpt>
      <trkpt lat="43.66215" lon="3.81635">
        <ele>116</ele>
        <time>2021-04-24T10:38:26Z</time>
      </trkpt>
      <trkpt lat="43.66217" lon="3.81629">
        <ele>116</ele>
        <time>2021-04-24T10:38:27Z</time>
      </trkpt>
      <trkpt lat="43.66218" lon="3.81624">
        <ele>116</ele>
        <time>2021-04-24T10:38:28Z</time>
      </trkpt>
      <trkpt lat="43.66219" lon="3.8162">
        <ele>116</ele>
        <time>2021-04-24T10:38:29Z</time>
      </trkpt>
      <trkpt lat="43.66218" lon="3.81616">
        <ele>116</ele>
        <time>2021-04-24T10:38:30Z</time>
      </trkpt>
      <trkpt lat="43.66217" lon="3.81614">
        <ele>115</ele>
        <time>2021-04-24T10:38:31Z</time>
      </trkpt>
      <trkpt lat="43.66215" lon="3.8161">
        <ele>115</ele>
        <time>2021-04-24T10:38:32Z</time>
      </trkpt>
      <trkpt lat="43.66215" lon="3.81605">
        <ele>115</ele>
        <time>2021-04-24T10:38:33Z</time>
      </trkpt>
      <trkpt lat="43.66215" lon="3.81601">
        <ele>115</ele>
        <time>2021-04-24T10:38:34Z</time>
      </trkpt>
      <trkpt lat="43.66216" lon="3.81597">
        <ele>115</ele>
        <time>2021-04-24T10:38:35Z</time>
      </trkpt>
      <trkpt lat="43.66216" lon="3.81591">
        <ele>115</ele>
        <time>2021-04-24T10:38:36Z</time>
      </trkpt>
      <trkpt lat="43.66215" lon="3.81586">
        <ele>115</ele>
        <time>2021-04-24T10:38:37Z</time>
      </trkpt>
      <trkpt lat="43.66214" lon="3.81582">
        <ele>115</ele>
        <time>2021-04-24T10:38:38Z</time>
      </trkpt>
      <trkpt lat="43.66212" lon="3.81579">
        <ele>115</ele>
        <time>2021-04-24T10:38:39Z</time>
      </trkpt>
      <trkpt lat="43.6621" lon="3.81576">
        <ele>115</ele>
        <time>2021-04-24T10:38:40Z</time>
      </trkpt>
      <trkpt lat="43.66207" lon="3.81574">
        <ele>115</ele>
        <time>2021-04-24T10:38:41Z</time>
      </trkpt>
      <trkpt lat="43.66205" lon="3.8157">
        <ele>115</ele>
        <time>2021-04-24T10:38:42Z</time>
      </trkpt>
      <trkpt lat="43.66205" lon="3.81565">
        <ele>115</ele>
        <time>2021-04-24T10:38:43Z</time>
      </trkpt>
      <trkpt lat="43.66206" lon="3.81561">
        <ele>115</ele>
        <time>2021-04-24T10:38:44Z</time>
      </trkpt>
      <trkpt lat="43.66208" lon="3.81555">
        <ele>115</ele>
        <time>2021-04-24T10:38:45Z</time>
      </trkpt>
      <trkpt lat="43.66209" lon="3.81551">
        <ele>115</ele>
        <time>2021-04-24T10:38:46Z</time>
      </trkpt>
      <trkpt lat="43.66208" lon="3.81546">
        <ele>115</ele>
        <time>2021-04-24T10:38:47Z</time>
      </trkpt>
      <trkpt lat="43.66206" lon="3.81541">
        <ele>115</ele>
        <time>2021-04-24T10:38:48Z</time>
      </trkpt>
      <trkpt lat="43.66205" lon="3.81536">
        <ele>115</ele>
        <time>2021-04-24T10:38:49Z</time>
      </trkpt>
      <trkpt lat="43.66203" lon="3.81532">
        <ele>115</ele>
        <time>2021-04-24T10:38:50Z</time>
      </trkpt>
      <trkpt lat="43.66201" lon="3.81528">
        <ele>113</ele>
        <time>2021-04-24T10:38:51Z</time>
      </trkpt>
      <trkpt lat="43.662" lon="3.81524">
        <ele>113</ele>
        <time>2021-04-24T10:38:52Z</time>
      </trkpt>
      <trkpt lat="43.66199" lon="3.81521">
        <ele>113</ele>
        <time>2021-04-24T10:38:53Z</time>
      </trkpt>
      <trkpt lat="43.66199" lon="3.81518">
        <ele>113</ele>
        <time>2021-04-24T10:38:54Z</time>
      </trkpt>
      <trkpt lat="43.66197" lon="3.81515">
        <ele>113</ele>
        <time>2021-04-24T10:38:55Z</time>
      </trkpt>
      <trkpt lat="43.66194" lon="3.81511">
        <ele>113</ele>
        <time>2021-04-24T10:38:56Z</time>
      </trkpt>
      <trkpt lat="43.66192" lon="3.81505">
        <ele>113</ele>
        <time>2021-04-24T10:38:57Z</time>
      </trkpt>
      <trkpt lat="43.66191" lon="3.815">
        <ele>113</ele>
        <time>2021-04-24T10:38:58Z</time>
      </trkpt>
      <trkpt lat="43.66191" lon="3.81495">
        <ele>113</ele>
        <time>2021-04-24T10:38:59Z</time>
      </trkpt>
      <trkpt lat="43.66191" lon="3.8149">
        <ele>113</ele>
        <time>2021-04-24T10:39:00Z</time>
      </trkpt>
      <trkpt lat="43.6619" lon="3.81485">
        <ele>110</ele>
        <time>2021-04-24T10:39:01Z</time>
      </trkpt>
      <trkpt lat="43.66188" lon="3.81482">
        <ele>110</ele>
        <time>2021-04-24T10:39:02Z</time>
      </trkpt>
      <trkpt lat="43.66186" lon="3.81479">
        <ele>110</ele>
        <time>2021-04-24T10:39:03Z</time>
      </trkpt>
      <trkpt lat="43.66184" lon="3.81478">
        <ele>110</ele>
        <time>2021-04-24T10:39:04Z</time>
      </trkpt>
      <trkpt lat="43.6618" lon="3.81475">
        <ele>110</ele>
        <time>2021-04-24T10:39:05Z</time>
      </trkpt>
      <trkpt lat="43.66178" lon="3.81472">
        <ele>110</ele>
        <time>2021-04-24T10:39:06Z</time>
      </trkpt>
      <trkpt lat="43.66175" lon="3.81467">
        <ele>110</ele>
        <time>2021-04-24T10:39:07Z</time>
      </trkpt>
      <trkpt lat="43.66173" lon="3.81463">
        <ele>110</ele>
        <time>2021-04-24T10:39:08Z</time>
      </trkpt>
      <trkpt lat="43.6617" lon="3.8146">
        <ele>110</ele>
        <time>2021-04-24T10:39:09Z</time>
      </trkpt>
      <trkpt lat="43.66167" lon="3.81457">
        <ele>110</ele>
        <time>2021-04-24T10:39:10Z</time>
      </trkpt>
      <trkpt lat="43.66165" lon="3.81453">
        <ele>107</ele>
        <time>2021-04-24T10:39:11Z</time>
      </trkpt>
      <trkpt lat="43.66165" lon="3.81447">
        <ele>107</ele>
        <time>2021-04-24T10:39:12Z</time>
      </trkpt>
      <trkpt lat="43.66165" lon="3.81441">
        <ele>107</ele>
        <time>2021-04-24T10:39:13Z</time>
      </trkpt>
      <trkpt lat="43.66167" lon="3.81437">
        <ele>107</ele>
        <time>2021-04-24T10:39:14Z</time>
      </trkpt>
      <trkpt lat="43.66168" lon="3.81433">
        <ele>107</ele>
        <time>2021-04-24T10:39:15Z</time>
      </trkpt>
      <trkpt lat="43.66169" lon="3.81429">
        <ele>107</ele>
        <time>2021-04-24T10:39:16Z</time>
      </trkpt>
      <trkpt lat="43.66169" lon="3.81425">
        <ele>107</ele>
        <time>2021-04-24T10:39:17Z</time>
      </trkpt>
      <trkpt lat="43.66169" lon="3.81421">
        <ele>107</ele>
        <time>2021-04-24T10:39:18Z</time>
      </trkpt>
      <trkpt lat="43.66169" lon="3.81417">
        <ele>107</ele>
        <time>2021-04-24T10:39:19Z</time>
      </trkpt>
      <trkpt lat="43.66167" lon="3.81413">
        <ele>107</ele>
        <time>2021-04-24T10:39:20Z</time>
      </trkpt>
      <trkpt lat="43.66166" lon="3.81407">
        <ele>105</ele>
        <time>2021-04-24T10:39:21Z</time>
      </trkpt>
      <trkpt lat="43.66161" lon="3.81396">
        <ele>105</ele>
        <time>2021-04-24T10:39:23Z</time>
      </trkpt>
      <trkpt lat="43.66155" lon="3.81381">
        <ele>105</ele>
        <time>2021-04-24T10:39:25Z</time>
      </trkpt>
      <trkpt lat="43.66153" lon="3.81372">
        <ele>105</ele>
        <time>2021-04-24T10:39:26Z</time>
      </trkpt>
      <trkpt lat="43.6615" lon="3.81364">
        <ele>105</ele>
        <time>2021-04-24T10:39:27Z</time>
      </trkpt>
      <trkpt lat="43.66148" lon="3.81355">
        <ele>105</ele>
        <time>2021-04-24T10:39:28Z</time>
      </trkpt>
      <trkpt lat="43.66145" lon="3.81347">
        <ele>105</ele>
        <time>2021-04-24T10:39:29Z</time>
      </trkpt>
      <trkpt lat="43.66144" lon="3.81339">
        <ele>105</ele>
        <time>2021-04-24T10:39:30Z</time>
      </trkpt>
      <trkpt lat="43.66142" lon="3.81333">
        <ele>100</ele>
        <time>2021-04-24T10:39:31Z</time>
      </trkpt>
      <trkpt lat="43.66141" lon="3.81327">
        <ele>100</ele>
        <time>2021-04-24T10:39:32Z</time>
      </trkpt>
      <trkpt lat="43.66141" lon="3.81324">
        <ele>100</ele>
        <time>2021-04-24T10:39:33Z</time>
      </trkpt>
      <trkpt lat="43.66142" lon="3.81322">
        <ele>100</ele>
        <time>2021-04-24T10:39:34Z</time>
      </trkpt>
      <trkpt lat="43.66145" lon="3.81322">
        <ele>100</ele>
        <time>2021-04-24T10:39:36Z</time>
      </trkpt>
      <trkpt lat="43.66145" lon="3.81322">
        <ele>96</ele>
        <time>2021-04-24T10:39:42Z</time>
      </trkpt>
      <trkpt lat="43.66151" lon="3.81319">
        <ele>92</ele>
        <time>2021-04-24T10:41:19Z</time>
      </trkpt>
      <trkpt lat="43.66153" lon="3.81318">
        <ele>92</ele>
        <time>2021-04-24T10:41:20Z</time>
      </trkpt>
      <trkpt lat="43.66155" lon="3.81316">
        <ele>92</ele>
        <time>2021-04-24T10:41:21Z</time>
      </trkpt>
      <trkpt lat="43.66157" lon="3.81315">
        <ele>92</ele>
        <time>2021-04-24T10:41:22Z</time>
      </trkpt>
      <trkpt lat="43.66159" lon="3.81314">
        <ele>92</ele>
        <time>2021-04-24T10:41:23Z</time>
      </trkpt>
      <trkpt lat="43.66161" lon="3.81313">
        <ele>92</ele>
        <time>2021-04-24T10:41:24Z</time>
      </trkpt>
      <trkpt lat="43.66163" lon="3.81312">
        <ele>92</ele>
        <time>2021-04-24T10:41:25Z</time>
      </trkpt>
      <trkpt lat="43.66165" lon="3.8131">
        <ele>92</ele>
        <time>2021-04-24T10:41:26Z</time>
      </trkpt>
      <trkpt lat="43.66167" lon="3.81309">
        <ele>92</ele>
        <time>2021-04-24T10:41:27Z</time>
      </trkpt>
      <trkpt lat="43.66169" lon="3.81308">
        <ele>92</ele>
        <time>2021-04-24T10:41:28Z</time>
      </trkpt>
      <trkpt lat="43.66171" lon="3.81307">
        <ele>90</ele>
        <time>2021-04-24T10:41:29Z</time>
      </trkpt>
      <trkpt lat="43.66173" lon="3.81305">
        <ele>90</ele>
        <time>2021-04-24T10:41:30Z</time>
      </trkpt>
      <trkpt lat="43.66175" lon="3.81304">
        <ele>90</ele>
        <time>2021-04-24T10:41:31Z</time>
      </trkpt>
      <trkpt lat="43.66177" lon="3.81303">
        <ele>90</ele>
        <time>2021-04-24T10:41:32Z</time>
      </trkpt>
      <trkpt lat="43.66179" lon="3.81302">
        <ele>90</ele>
        <time>2021-04-24T10:41:33Z</time>
      </trkpt>
      <trkpt lat="43.66181" lon="3.813">
        <ele>90</ele>
        <time>2021-04-24T10:41:34Z</time>
      </trkpt>
      <trkpt lat="43.66183" lon="3.81299">
        <ele>90</ele>
        <time>2021-04-24T10:41:35Z</time>
      </trkpt>
      <trkpt lat="43.66185" lon="3.81298">
        <ele>90</ele>
        <time>2021-04-24T10:41:36Z</time>
      </trkpt>
      <trkpt lat="43.66187" lon="3.81297">
        <ele>90</ele>
        <time>2021-04-24T10:41:37Z</time>
      </trkpt>
      <trkpt lat="43.66189" lon="3.81295">
        <ele>90</ele>
        <time>2021-04-24T10:41:38Z</time>
      </trkpt>
      <trkpt lat="43.66193" lon="3.81293">
        <ele>89</ele>
        <time>2021-04-24T10:41:39Z</time>
      </trkpt>
      <trkpt lat="43.66195" lon="3.81292">
        <ele>89</ele>
        <time>2021-04-24T10:41:40Z</time>
      </trkpt>
      <trkpt lat="43.66199" lon="3.8129">
        <ele>89</ele>
        <time>2021-04-24T10:41:42Z</time>
      </trkpt>
      <trkpt lat="43.66201" lon="3.81289">
        <ele>89</ele>
        <time>2021-04-24T10:41:43Z</time>
      </trkpt>
      <trkpt lat="43.66203" lon="3.81288">
        <ele>89</ele>
        <time>2021-04-24T10:41:44Z</time>
      </trkpt>
      <trkpt lat="43.66205" lon="3.81287">
        <ele>89</ele>
        <time>2021-04-24T10:41:45Z</time>
      </trkpt>
      <trkpt lat="43.66206" lon="3.81286">
        <ele>89</ele>
        <time>2021-04-24T10:41:46Z</time>
      </trkpt>
      <trkpt lat="43.6621" lon="3.81285">
        <ele>89</ele>
        <time>2021-04-24T10:41:49Z</time>
      </trkpt>
      <trkpt lat="43.66213" lon="3.81283">
        <ele>89</ele>
        <time>2021-04-24T10:41:51Z</time>
      </trkpt>
      <trkpt lat="43.66215" lon="3.81282">
        <ele>89</ele>
        <time>2021-04-24T10:41:52Z</time>
      </trkpt>
      <trkpt lat="43.66218" lon="3.81281">
        <ele>89</ele>
        <time>2021-04-24T10:41:54Z</time>
      </trkpt>
      <trkpt lat="43.66221" lon="3.81279">
        <ele>89</ele>
        <time>2021-04-24T10:41:56Z</time>
      </trkpt>
      <trkpt lat="43.66225" lon="3.81278">
        <ele>89</ele>
        <time>2021-04-24T10:41:58Z</time>
      </trkpt>
      <trkpt lat="43.66228" lon="3.81277">
        <ele>89</ele>
        <time>2021-04-24T10:42:00Z</time>
      </trkpt>
      <trkpt lat="43.66231" lon="3.81276">
        <ele>89</ele>
        <time>2021-04-24T10:42:02Z</time>
      </trkpt>
      <trkpt lat="43.66235" lon="3.81275">
        <ele>89</ele>
        <time>2021-04-24T10:42:04Z</time>
      </trkpt>
      <trkpt lat="43.66238" lon="3.81274">
        <ele>89</ele>
        <time>2021-04-24T10:42:06Z</time>
      </trkpt>
      <trkpt lat="43.66241" lon="3.81273">
        <ele>89</ele>
        <time>2021-04-24T10:42:08Z</time>
      </trkpt>
      <trkpt lat="43.66244" lon="3.81272">
        <ele>89</ele>
        <time>2021-04-24T10:42:10Z</time>
      </trkpt>
      <trkpt lat="43.66248" lon="3.81271">
        <ele>89</ele>
        <time>2021-04-24T10:42:12Z</time>
      </trkpt>
      <trkpt lat="43.66251" lon="3.81271">
        <ele>89</ele>
        <time>2021-04-24T10:42:14Z</time>
      </trkpt>
      <trkpt lat="43.66255" lon="3.8127">
        <ele>89</ele>
        <time>2021-04-24T10:42:16Z</time>
      </trkpt>
      <trkpt lat="43.66257" lon="3.81269">
        <ele>89</ele>
        <time>2021-04-24T10:42:17Z</time>
      </trkpt>
      <trkpt lat="43.6626" lon="3.81268">
        <ele>91</ele>
        <time>2021-04-24T10:42:19Z</time>
      </trkpt>
      <trkpt lat="43.66263" lon="3.81267">
        <ele>91</ele>
        <time>2021-04-24T10:42:21Z</time>
      </trkpt>
      <trkpt lat="43.66267" lon="3.81266">
        <ele>91</ele>
        <time>2021-04-24T10:42:23Z</time>
      </trkpt>
      <trkpt lat="43.66268" lon="3.81265">
        <ele>91</ele>
        <time>2021-04-24T10:42:24Z</time>
      </trkpt>
      <trkpt lat="43.66272" lon="3.81263">
        <ele>91</ele>
        <time>2021-04-24T10:42:26Z</time>
      </trkpt>
      <trkpt lat="43.66275" lon="3.81261">
        <ele>91</ele>
        <time>2021-04-24T10:42:28Z</time>
      </trkpt>
      <trkpt lat="43.66278" lon="3.81259">
        <ele>91</ele>
        <time>2021-04-24T10:42:30Z</time>
      </trkpt>
      <trkpt lat="43.66281" lon="3.81257">
        <ele>91</ele>
        <time>2021-04-24T10:42:32Z</time>
      </trkpt>
      <trkpt lat="43.66282" lon="3.81256">
        <ele>91</ele>
        <time>2021-04-24T10:42:33Z</time>
      </trkpt>
      <trkpt lat="43.66285" lon="3.81254">
        <ele>91</ele>
        <time>2021-04-24T10:42:35Z</time>
      </trkpt>
      <trkpt lat="43.66288" lon="3.81251">
        <ele>91</ele>
        <time>2021-04-24T10:42:37Z</time>
      </trkpt>
      <trkpt lat="43.66291" lon="3.81249">
        <ele>95</ele>
        <time>2021-04-24T10:42:39Z</time>
      </trkpt>
      <trkpt lat="43.66294" lon="3.81248">
        <ele>95</ele>
        <time>2021-04-24T10:42:41Z</time>
      </trkpt>
      <trkpt lat="43.66297" lon="3.81246">
        <ele>95</ele>
        <time>2021-04-24T10:42:43Z</time>
      </trkpt>
      <trkpt lat="43.66299" lon="3.81246">
        <ele>95</ele>
        <time>2021-04-24T10:42:45Z</time>
      </trkpt>
      <trkpt lat="43.66302" lon="3.81245">
        <ele>95</ele>
        <time>2021-04-24T10:42:47Z</time>
      </trkpt>
      <trkpt lat="43.66305" lon="3.81244">
        <ele>96</ele>
        <time>2021-04-24T10:42:49Z</time>
      </trkpt>
      <trkpt lat="43.66308" lon="3.81244">
        <ele>96</ele>
        <time>2021-04-24T10:42:51Z</time>
      </trkpt>
      <trkpt lat="43.6631" lon="3.81243">
        <ele>96</ele>
        <time>2021-04-24T10:42:53Z</time>
      </trkpt>
      <trkpt lat="43.66313" lon="3.81242">
        <ele>96</ele>
        <time>2021-04-24T10:42:55Z</time>
      </trkpt>
      <trkpt lat="43.66315" lon="3.81243">
        <ele>96</ele>
        <time>2021-04-24T10:42:57Z</time>
      </trkpt>
      <trkpt lat="43.66317" lon="3.81242">
        <ele>98</ele>
        <time>2021-04-24T10:42:59Z</time>
      </trkpt>
      <trkpt lat="43.6632" lon="3.81243">
        <ele>98</ele>
        <time>2021-04-24T10:43:00Z</time>
      </trkpt>
      <trkpt lat="43.66322" lon="3.81242">
        <ele>98</ele>
        <time>2021-04-24T10:43:03Z</time>
      </trkpt>
      <trkpt lat="43.66325" lon="3.81241">
        <ele>98</ele>
        <time>2021-04-24T10:43:04Z</time>
      </trkpt>
      <trkpt lat="43.66327" lon="3.81242">
        <ele>98</ele>
        <time>2021-04-24T10:43:06Z</time>
      </trkpt>
      <trkpt lat="43.6633" lon="3.81241">
        <ele>100</ele>
        <time>2021-04-24T10:43:09Z</time>
      </trkpt>
      <trkpt lat="43.66332" lon="3.81241">
        <ele>100</ele>
        <time>2021-04-24T10:43:11Z</time>
      </trkpt>
      <trkpt lat="43.66335" lon="3.81241">
        <ele>100</ele>
        <time>2021-04-24T10:43:12Z</time>
      </trkpt>
      <trkpt lat="43.66337" lon="3.81241">
        <ele>100</ele>
        <time>2021-04-24T10:43:14Z</time>
      </trkpt>
      <trkpt lat="43.66339" lon="3.81241">
        <ele>100</ele>
        <time>2021-04-24T10:43:17Z</time>
      </trkpt>
      <trkpt lat="43.66341" lon="3.8124">
        <ele>102</ele>
        <time>2021-04-24T10:43:19Z</time>
      </trkpt>
      <trkpt lat="43.66343" lon="3.8124">
        <ele>102</ele>
        <time>2021-04-24T10:43:21Z</time>
      </trkpt>
      <trkpt lat="43.66346" lon="3.81239">
        <ele>102</ele>
        <time>2021-04-24T10:43:23Z</time>
      </trkpt>
      <trkpt lat="43.66348" lon="3.81238">
        <ele>102</ele>
        <time>2021-04-24T10:43:25Z</time>
      </trkpt>
      <trkpt lat="43.6635" lon="3.81239">
        <ele>102</ele>
        <time>2021-04-24T10:43:27Z</time>
      </trkpt>
      <trkpt lat="43.66353" lon="3.8124">
        <ele>104</ele>
        <time>2021-04-24T10:43:29Z</time>
      </trkpt>
      <trkpt lat="43.66355" lon="3.8124">
        <ele>104</ele>
        <time>2021-04-24T10:43:31Z</time>
      </trkpt>
      <trkpt lat="43.66357" lon="3.8124">
        <ele>104</ele>
        <time>2021-04-24T10:43:33Z</time>
      </trkpt>
      <trkpt lat="43.6636" lon="3.8124">
        <ele>104</ele>
        <time>2021-04-24T10:43:35Z</time>
      </trkpt>
      <trkpt lat="43.66362" lon="3.8124">
        <ele>104</ele>
        <time>2021-04-24T10:43:37Z</time>
      </trkpt>
      <trkpt lat="43.66365" lon="3.81241">
        <ele>105</ele>
        <time>2021-04-24T10:43:39Z</time>
      </trkpt>
      <trkpt lat="43.66368" lon="3.81242">
        <ele>105</ele>
        <time>2021-04-24T10:43:40Z</time>
      </trkpt>
      <trkpt lat="43.66371" lon="3.81242">
        <ele>105</ele>
        <time>2021-04-24T10:43:42Z</time>
      </trkpt>
      <trkpt lat="43.66374" lon="3.81242">
        <ele>105</ele>
        <time>2021-04-24T10:43:44Z</time>
      </trkpt>
      <trkpt lat="43.66377" lon="3.81242">
        <ele>105</ele>
        <time>2021-04-24T10:43:47Z</time>
      </trkpt>
      <trkpt lat="43.6638" lon="3.81243">
        <ele>106</ele>
        <time>2021-04-24T10:43:49Z</time>
      </trkpt>
      <trkpt lat="43.66383" lon="3.81243">
        <ele>106</ele>
        <time>2021-04-24T10:43:51Z</time>
      </trkpt>
      <trkpt lat="43.66387" lon="3.81243">
        <ele>106</ele>
        <time>2021-04-24T10:43:53Z</time>
      </trkpt>
      <trkpt lat="43.6639" lon="3.81242">
        <ele>106</ele>
        <time>2021-04-24T10:43:55Z</time>
      </trkpt>
      <trkpt lat="43.66393" lon="3.81243">
        <ele>106</ele>
        <time>2021-04-24T10:43:57Z</time>
      </trkpt>
      <trkpt lat="43.66396" lon="3.81243">
        <ele>108</ele>
        <time>2021-04-24T10:43:59Z</time>
      </trkpt>
      <trkpt lat="43.66399" lon="3.81243">
        <ele>108</ele>
        <time>2021-04-24T10:44:01Z</time>
      </trkpt>
      <trkpt lat="43.66403" lon="3.81243">
        <ele>108</ele>
        <time>2021-04-24T10:44:03Z</time>
      </trkpt>
      <trkpt lat="43.66406" lon="3.81243">
        <ele>108</ele>
        <time>2021-04-24T10:44:05Z</time>
      </trkpt>
      <trkpt lat="43.66409" lon="3.81243">
        <ele>108</ele>
        <time>2021-04-24T10:44:07Z</time>
      </trkpt>
      <trkpt lat="43.66412" lon="3.81243">
        <ele>109</ele>
        <time>2021-04-24T10:44:09Z</time>
      </trkpt>
      <trkpt lat="43.66415" lon="3.81243">
        <ele>109</ele>
        <time>2021-04-24T10:44:11Z</time>
      </trkpt>
      <trkpt lat="43.66417" lon="3.81242">
        <ele>109</ele>
        <time>2021-04-24T10:44:13Z</time>
      </trkpt>
      <trkpt lat="43.6642" lon="3.81242">
        <ele>109</ele>
        <time>2021-04-24T10:44:15Z</time>
      </trkpt>
      <trkpt lat="43.66423" lon="3.81242">
        <ele>109</ele>
        <time>2021-04-24T10:44:17Z</time>
      </trkpt>
      <trkpt lat="43.66425" lon="3.81241">
        <ele>111</ele>
        <time>2021-04-24T10:44:19Z</time>
      </trkpt>
      <trkpt lat="43.66428" lon="3.81241">
        <ele>111</ele>
        <time>2021-04-24T10:44:21Z</time>
      </trkpt>
      <trkpt lat="43.66431" lon="3.81241">
        <ele>111</ele>
        <time>2021-04-24T10:44:23Z</time>
      </trkpt>
      <trkpt lat="43.66434" lon="3.81241">
        <ele>111</ele>
        <time>2021-04-24T10:44:25Z</time>
      </trkpt>
      <trkpt lat="43.66436" lon="3.81241">
        <ele>111</ele>
        <time>2021-04-24T10:44:27Z</time>
      </trkpt>
      <trkpt lat="43.66439" lon="3.81241">
        <ele>112</ele>
        <time>2021-04-24T10:44:29Z</time>
      </trkpt>
      <trkpt lat="43.66442" lon="3.81241">
        <ele>112</ele>
        <time>2021-04-24T10:44:31Z</time>
      </trkpt>
      <trkpt lat="43.66445" lon="3.8124">
        <ele>112</ele>
        <time>2021-04-24T10:44:33Z</time>
      </trkpt>
      <trkpt lat="43.66447" lon="3.81241">
        <ele>112</ele>
        <time>2021-04-24T10:44:35Z</time>
      </trkpt>
      <trkpt lat="43.6645" lon="3.81241">
        <ele>112</ele>
        <time>2021-04-24T10:44:37Z</time>
      </trkpt>
      <trkpt lat="43.66453" lon="3.81241">
        <ele>114</ele>
        <time>2021-04-24T10:44:39Z</time>
      </trkpt>
      <trkpt lat="43.66456" lon="3.81242">
        <ele>114</ele>
        <time>2021-04-24T10:44:41Z</time>
      </trkpt>
      <trkpt lat="43.66459" lon="3.81242">
        <ele>114</ele>
        <time>2021-04-24T10:44:43Z</time>
      </trkpt>
      <trkpt lat="43.66462" lon="3.81242">
        <ele>114</ele>
        <time>2021-04-24T10:44:45Z</time>
      </trkpt>
      <trkpt lat="43.66465" lon="3.81242">
        <ele>114</ele>
        <time>2021-04-24T10:44:47Z</time>
      </trkpt>
      <trkpt lat="43.66468" lon="3.81243">
        <ele>115</ele>
        <time>2021-04-24T10:44:49Z</time>
      </trkpt>
      <trkpt lat="43.6647" lon="3.81243">
        <ele>115</ele>
        <time>2021-04-24T10:44:50Z</time>
      </trkpt>
      <trkpt lat="43.66473" lon="3.81242">
        <ele>115</ele>
        <time>2021-04-24T10:44:52Z</time>
      </trkpt>
      <trkpt lat="43.66476" lon="3.81243">
        <ele>115</ele>
        <time>2021-04-24T10:44:55Z</time>
      </trkpt>
      <trkpt lat="43.66479" lon="3.81243">
        <ele>115</ele>
        <time>2021-04-24T10:44:57Z</time>
      </trkpt>
      <trkpt lat="43.66481" lon="3.81243">
        <ele>117</ele>
        <time>2021-04-24T10:44:59Z</time>
      </trkpt>
      <trkpt lat="43.66484" lon="3.81242">
        <ele>117</ele>
        <time>2021-04-24T10:45:00Z</time>
      </trkpt>
      <trkpt lat="43.66487" lon="3.81242">
        <ele>117</ele>
        <time>2021-04-24T10:45:02Z</time>
      </trkpt>
      <trkpt lat="43.6649" lon="3.81242">
        <ele>117</ele>
        <time>2021-04-24T10:45:05Z</time>
      </trkpt>
      <trkpt lat="43.66493" lon="3.81242">
        <ele>117</ele>
        <time>2021-04-24T10:45:07Z</time>
      </trkpt>
      <trkpt lat="43.66495" lon="3.81242">
        <ele>119</ele>
        <time>2021-04-24T10:45:09Z</time>
      </trkpt>
      <trkpt lat="43.66498" lon="3.81243">
        <ele>119</ele>
        <time>2021-04-24T10:45:11Z</time>
      </trkpt>
      <trkpt lat="43.66501" lon="3.81243">
        <ele>119</ele>
        <time>2021-04-24T10:45:12Z</time>
      </trkpt>
      <trkpt lat="43.66503" lon="3.81243">
        <ele>119</ele>
        <time>2021-04-24T10:45:14Z</time>
      </trkpt>
      <trkpt lat="43.66506" lon="3.81243">
        <ele>119</ele>
        <time>2021-04-24T10:45:17Z</time>
      </trkpt>
      <trkpt lat="43.66508" lon="3.81243">
        <ele>121</ele>
        <time>2021-04-24T10:45:19Z</time>
      </trkpt>
      <trkpt lat="43.66511" lon="3.81243">
        <ele>121</ele>
        <time>2021-04-24T10:45:21Z</time>
      </trkpt>
      <trkpt lat="43.66513" lon="3.81243">
        <ele>121</ele>
        <time>2021-04-24T10:45:23Z</time>
      </trkpt>
      <trkpt lat="43.66516" lon="3.81243">
        <ele>121</ele>
        <time>2021-04-24T10:45:25Z</time>
      </trkpt>
      <trkpt lat="43.66518" lon="3.81243">
        <ele>121</ele>
        <time>2021-04-24T10:45:27Z</time>
      </trkpt>
      <trkpt lat="43.66521" lon="3.81244">
        <ele>122</ele>
        <time>2021-04-24T10:45:29Z</time>
      </trkpt>
      <trkpt lat="43.66523" lon="3.81244">
        <ele>122</ele>
        <time>2021-04-24T10:45:31Z</time>
      </trkpt>
      <trkpt lat="43.66525" lon="3.81244">
        <ele>122</ele>
        <time>2021-04-24T10:45:33Z</time>
      </trkpt>
      <trkpt lat="43.66528" lon="3.81244">
        <ele>122</ele>
        <time>2021-04-24T10:45:35Z</time>
      </trkpt>
      <trkpt lat="43.6653" lon="3.81243">
        <ele>122</ele>
        <time>2021-04-24T10:45:37Z</time>
      </trkpt>
      <trkpt lat="43.66533" lon="3.81243">
        <ele>124</ele>
        <time>2021-04-24T10:45:39Z</time>
      </trkpt>
      <trkpt lat="43.66535" lon="3.81244">
        <ele>124</ele>
        <time>2021-04-24T10:45:41Z</time>
      </trkpt>
      <trkpt lat="43.66537" lon="3.81243">
        <ele>124</ele>
        <time>2021-04-24T10:45:43Z</time>
      </trkpt>
      <trkpt lat="43.66539" lon="3.81243">
        <ele>124</ele>
        <time>2021-04-24T10:45:45Z</time>
      </trkpt>
      <trkpt lat="43.66541" lon="3.81243">
        <ele>124</ele>
        <time>2021-04-24T10:45:47Z</time>
      </trkpt>
      <trkpt lat="43.66544" lon="3.81242">
        <ele>126</ele>
        <time>2021-04-24T10:45:49Z</time>
      </trkpt>
      <trkpt lat="43.66546" lon="3.81242">
        <ele>126</ele>
        <time>2021-04-24T10:45:51Z</time>
      </trkpt>
      <trkpt lat="43.66548" lon="3.81242">
        <ele>126</ele>
        <time>2021-04-24T10:45:53Z</time>
      </trkpt>
      <trkpt lat="43.66551" lon="3.81242">
        <ele>126</ele>
        <time>2021-04-24T10:45:55Z</time>
      </trkpt>
      <trkpt lat="43.66553" lon="3.81241">
        <ele>126</ele>
        <time>2021-04-24T10:45:57Z</time>
      </trkpt>
      <trkpt lat="43.66556" lon="3.8124">
        <ele>128</ele>
        <time>2021-04-24T10:45:59Z</time>
      </trkpt>
      <trkpt lat="43.66558" lon="3.8124">
        <ele>128</ele>
        <time>2021-04-24T10:46:01Z</time>
      </trkpt>
      <trkpt lat="43.66561" lon="3.8124">
        <ele>128</ele>
        <time>2021-04-24T10:46:03Z</time>
      </trkpt>
      <trkpt lat="43.66563" lon="3.8124">
        <ele>128</ele>
        <time>2021-04-24T10:46:05Z</time>
      </trkpt>
      <trkpt lat="43.66565" lon="3.8124">
        <ele>128</ele>
        <time>2021-04-24T10:46:07Z</time>
      </trkpt>
      <trkpt lat="43.66567" lon="3.8124">
        <ele>130</ele>
        <time>2021-04-24T10:46:09Z</time>
      </trkpt>
      <trkpt lat="43.6657" lon="3.8124">
        <ele>130</ele>
        <time>2021-04-24T10:46:10Z</time>
      </trkpt>
      <trkpt lat="43.66572" lon="3.8124">
        <ele>130</ele>
        <time>2021-04-24T10:46:12Z</time>
      </trkpt>
      <trkpt lat="43.66574" lon="3.81241">
        <ele>130</ele>
        <time>2021-04-24T10:46:15Z</time>
      </trkpt>
      <trkpt lat="43.66577" lon="3.81241">
        <ele>130</ele>
        <time>2021-04-24T10:46:17Z</time>
      </trkpt>
      <trkpt lat="43.66579" lon="3.81241">
        <ele>132</ele>
        <time>2021-04-24T10:46:19Z</time>
      </trkpt>
      <trkpt lat="43.66581" lon="3.81242">
        <ele>132</ele>
        <time>2021-04-24T10:46:21Z</time>
      </trkpt>
      <trkpt lat="43.66583" lon="3.81242">
        <ele>132</ele>
        <time>2021-04-24T10:46:23Z</time>
      </trkpt>
      <trkpt lat="43.66586" lon="3.81242">
        <ele>132</ele>
        <time>2021-04-24T10:46:25Z</time>
      </trkpt>
      <trkpt lat="43.66589" lon="3.81243">
        <ele>132</ele>
        <time>2021-04-24T10:46:27Z</time>
      </trkpt>
      <trkpt lat="43.66591" lon="3.81243">
        <ele>134</ele>
        <time>2021-04-24T10:46:29Z</time>
      </trkpt>
      <trkpt lat="43.66594" lon="3.81242">
        <ele>134</ele>
        <time>2021-04-24T10:46:31Z</time>
      </trkpt>
      <trkpt lat="43.66597" lon="3.81242">
        <ele>134</ele>
        <time>2021-04-24T10:46:33Z</time>
      </trkpt>
      <trkpt lat="43.666" lon="3.81242">
        <ele>134</ele>
        <time>2021-04-24T10:46:35Z</time>
      </trkpt>
      <trkpt lat="43.66603" lon="3.8124">
        <ele>134</ele>
        <time>2021-04-24T10:46:37Z</time>
      </trkpt>
      <trkpt lat="43.66605" lon="3.81238">
        <ele>135</ele>
        <time>2021-04-24T10:46:39Z</time>
      </trkpt>
      <trkpt lat="43.66608" lon="3.81237">
        <ele>135</ele>
        <time>2021-04-24T10:46:40Z</time>
      </trkpt>
      <trkpt lat="43.66611" lon="3.81235">
        <ele>135</ele>
        <time>2021-04-24T10:46:43Z</time>
      </trkpt>
      <trkpt lat="43.66615" lon="3.81234">
        <ele>135</ele>
        <time>2021-04-24T10:46:44Z</time>
      </trkpt>
      <trkpt lat="43.66616" lon="3.81233">
        <ele>135</ele>
        <time>2021-04-24T10:46:46Z</time>
      </trkpt>
      <trkpt lat="43.66618" lon="3.81232">
        <ele>135</ele>
        <time>2021-04-24T10:46:47Z</time>
      </trkpt>
      <trkpt lat="43.6662" lon="3.8123">
        <ele>135</ele>
        <time>2021-04-24T10:46:48Z</time>
      </trkpt>
      <trkpt lat="43.66622" lon="3.8123">
        <ele>136</ele>
        <time>2021-04-24T10:46:49Z</time>
      </trkpt>
      <trkpt lat="43.66625" lon="3.81229">
        <ele>136</ele>
        <time>2021-04-24T10:46:50Z</time>
      </trkpt>
      <trkpt lat="43.66627" lon="3.81228">
        <ele>136</ele>
        <time>2021-04-24T10:46:51Z</time>
      </trkpt>
      <trkpt lat="43.66629" lon="3.81228">
        <ele>136</ele>
        <time>2021-04-24T10:46:52Z</time>
      </trkpt>
      <trkpt lat="43.66632" lon="3.81228">
        <ele>136</ele>
        <time>2021-04-24T10:46:53Z</time>
      </trkpt>
      <trkpt lat="43.66634" lon="3.81227">
        <ele>136</ele>
        <time>2021-04-24T10:46:54Z</time>
      </trkpt>
      <trkpt lat="43.66637" lon="3.81227">
        <ele>136</ele>
        <time>2021-04-24T10:46:55Z</time>
      </trkpt>
      <trkpt lat="43.66639" lon="3.81227">
        <ele>136</ele>
        <time>2021-04-24T10:46:56Z</time>
      </trkpt>
      <trkpt lat="43.66641" lon="3.81226">
        <ele>136</ele>
        <time>2021-04-24T10:46:57Z</time>
      </trkpt>
      <trkpt lat="43.66644" lon="3.81226">
        <ele>136</ele>
        <time>2021-04-24T10:46:58Z</time>
      </trkpt>
      <trkpt lat="43.66646" lon="3.81226">
        <ele>136</ele>
        <time>2021-04-24T10:46:59Z</time>
      </trkpt>
      <trkpt lat="43.66648" lon="3.81226">
        <ele>136</ele>
        <time>2021-04-24T10:47:00Z</time>
      </trkpt>
      <trkpt lat="43.66651" lon="3.81226">
        <ele>136</ele>
        <time>2021-04-24T10:47:01Z</time>
      </trkpt>
      <trkpt lat="43.66653" lon="3.81225">
        <ele>136</ele>
        <time>2021-04-24T10:47:02Z</time>
      </trkpt>
      <trkpt lat="43.66656" lon="3.81224">
        <ele>136</ele>
        <time>2021-04-24T10:47:03Z</time>
      </trkpt>
      <trkpt lat="43.66658" lon="3.81223">
        <ele>136</ele>
        <time>2021-04-24T10:47:04Z</time>
      </trkpt>
      <trkpt lat="43.6666" lon="3.81222">
        <ele>136</ele>
        <time>2021-04-24T10:47:05Z</time>
      </trkpt>
      <trkpt lat="43.66662" lon="3.81221">
        <ele>136</ele>
        <time>2021-04-24T10:47:06Z</time>
      </trkpt>
      <trkpt lat="43.66664" lon="3.8122">
        <ele>136</ele>
        <time>2021-04-24T10:47:07Z</time>
      </trkpt>
      <trkpt lat="43.66667" lon="3.81219">
        <ele>136</ele>
        <time>2021-04-24T10:47:08Z</time>
      </trkpt>
      <trkpt lat="43.66669" lon="3.81218">
        <ele>136</ele>
        <time>2021-04-24T10:47:09Z</time>
      </trkpt>
      <trkpt lat="43.66671" lon="3.81218">
        <ele>136</ele>
        <time>2021-04-24T10:47:10Z</time>
      </trkpt>
      <trkpt lat="43.66673" lon="3.81217">
        <ele>136</ele>
        <time>2021-04-24T10:47:11Z</time>
      </trkpt>
      <trkpt lat="43.66675" lon="3.81217">
        <ele>136</ele>
        <time>2021-04-24T10:47:12Z</time>
      </trkpt>
      <trkpt lat="43.66677" lon="3.81217">
        <ele>136</ele>
        <time>2021-04-24T10:47:13Z</time>
      </trkpt>
      <trkpt lat="43.6668" lon="3.81217">
        <ele>136</ele>
        <time>2021-04-24T10:47:14Z</time>
      </trkpt>
      <trkpt lat="43.66682" lon="3.81217">
        <ele>136</ele>
        <time>2021-04-24T10:47:15Z</time>
      </trkpt>
      <trkpt lat="43.66683" lon="3.81218">
        <ele>136</ele>
        <time>2021-04-24T10:47:16Z</time>
      </trkpt>
      <trkpt lat="43.66685" lon="3.81218">
        <ele>136</ele>
        <time>2021-04-24T10:47:17Z</time>
      </trkpt>
      <trkpt lat="43.66688" lon="3.81218">
        <ele>136</ele>
        <time>2021-04-24T10:47:18Z</time>
      </trkpt>
      <trkpt lat="43.6669" lon="3.81218">
        <ele>137</ele>
        <time>2021-04-24T10:47:19Z</time>
      </trkpt>
      <trkpt lat="43.66692" lon="3.81218">
        <ele>137</ele>
        <time>2021-04-24T10:47:20Z</time>
      </trkpt>
      <trkpt lat="43.66695" lon="3.81218">
        <ele>137</ele>
        <time>2021-04-24T10:47:21Z</time>
      </trkpt>
      <trkpt lat="43.66697" lon="3.81219">
        <ele>137</ele>
        <time>2021-04-24T10:47:22Z</time>
      </trkpt>
      <trkpt lat="43.667" lon="3.81219">
        <ele>137</ele>
        <time>2021-04-24T10:47:23Z</time>
      </trkpt>
      <trkpt lat="43.66703" lon="3.8122">
        <ele>137</ele>
        <time>2021-04-24T10:47:24Z</time>
      </trkpt>
      <trkpt lat="43.66705" lon="3.81222">
        <ele>137</ele>
        <time>2021-04-24T10:47:25Z</time>
      </trkpt>
      <trkpt lat="43.66707" lon="3.81225">
        <ele>137</ele>
        <time>2021-04-24T10:47:26Z</time>
      </trkpt>
      <trkpt lat="43.66708" lon="3.81228">
        <ele>137</ele>
        <time>2021-04-24T10:47:27Z</time>
      </trkpt>
      <trkpt lat="43.66706" lon="3.81232">
        <ele>137</ele>
        <time>2021-04-24T10:47:28Z</time>
      </trkpt>
      <trkpt lat="43.66705" lon="3.81236">
        <ele>137</ele>
        <time>2021-04-24T10:47:29Z</time>
      </trkpt>
      <trkpt lat="43.66703" lon="3.81239">
        <ele>137</ele>
        <time>2021-04-24T10:47:30Z</time>
      </trkpt>
      <trkpt lat="43.66701" lon="3.81243">
        <ele>137</ele>
        <time>2021-04-24T10:47:31Z</time>
      </trkpt>
      <trkpt lat="43.66699" lon="3.81247">
        <ele>137</ele>
        <time>2021-04-24T10:47:32Z</time>
      </trkpt>
      <trkpt lat="43.66697" lon="3.8125">
        <ele>137</ele>
        <time>2021-04-24T10:47:33Z</time>
      </trkpt>
      <trkpt lat="43.66696" lon="3.81253">
        <ele>137</ele>
        <time>2021-04-24T10:47:34Z</time>
      </trkpt>
      <trkpt lat="43.66694" lon="3.81257">
        <ele>137</ele>
        <time>2021-04-24T10:47:35Z</time>
      </trkpt>
      <trkpt lat="43.66692" lon="3.81261">
        <ele>137</ele>
        <time>2021-04-24T10:47:36Z</time>
      </trkpt>
      <trkpt lat="43.66691" lon="3.81265">
        <ele>137</ele>
        <time>2021-04-24T10:47:37Z</time>
      </trkpt>
      <trkpt lat="43.66689" lon="3.81268">
        <ele>137</ele>
        <time>2021-04-24T10:47:38Z</time>
      </trkpt>
      <trkpt lat="43.66686" lon="3.81272">
        <ele>137</ele>
        <time>2021-04-24T10:47:39Z</time>
      </trkpt>
      <trkpt lat="43.66684" lon="3.81276">
        <ele>137</ele>
        <time>2021-04-24T10:47:40Z</time>
      </trkpt>
      <trkpt lat="43.66682" lon="3.8128">
        <ele>137</ele>
        <time>2021-04-24T10:47:41Z</time>
      </trkpt>
      <trkpt lat="43.6668" lon="3.81283">
        <ele>137</ele>
        <time>2021-04-24T10:47:42Z</time>
      </trkpt>
      <trkpt lat="43.66677" lon="3.81287">
        <ele>137</ele>
        <time>2021-04-24T10:47:43Z</time>
      </trkpt>
      <trkpt lat="43.66674" lon="3.81291">
        <ele>137</ele>
        <time>2021-04-24T10:47:44Z</time>
      </trkpt>
      <trkpt lat="43.66671" lon="3.81294">
        <ele>137</ele>
        <time>2021-04-24T10:47:45Z</time>
      </trkpt>
      <trkpt lat="43.66668" lon="3.81297">
        <ele>137</ele>
        <time>2021-04-24T10:47:46Z</time>
      </trkpt>
      <trkpt lat="43.66665" lon="3.813">
        <ele>137</ele>
        <time>2021-04-24T10:47:47Z</time>
      </trkpt>
      <trkpt lat="43.66661" lon="3.81304">
        <ele>137</ele>
        <time>2021-04-24T10:47:48Z</time>
      </trkpt>
      <trkpt lat="43.66658" lon="3.81307">
        <ele>137</ele>
        <time>2021-04-24T10:47:49Z</time>
      </trkpt>
      <trkpt lat="43.66654" lon="3.8131">
        <ele>137</ele>
        <time>2021-04-24T10:47:50Z</time>
      </trkpt>
      <trkpt lat="43.66651" lon="3.81313">
        <ele>137</ele>
        <time>2021-04-24T10:47:51Z</time>
      </trkpt>
      <trkpt lat="43.66648" lon="3.81317">
        <ele>137</ele>
        <time>2021-04-24T10:47:52Z</time>
      </trkpt>
      <trkpt lat="43.66645" lon="3.8132">
        <ele>137</ele>
        <time>2021-04-24T10:47:53Z</time>
      </trkpt>
      <trkpt lat="43.66642" lon="3.81323">
        <ele>137</ele>
        <time>2021-04-24T10:47:54Z</time>
      </trkpt>
      <trkpt lat="43.66639" lon="3.81327">
        <ele>137</ele>
        <time>2021-04-24T10:47:55Z</time>
      </trkpt>
      <trkpt lat="43.66636" lon="3.81331">
        <ele>137</ele>
        <time>2021-04-24T10:47:56Z</time>
      </trkpt>
      <trkpt lat="43.66634" lon="3.81335">
        <ele>137</ele>
        <time>2021-04-24T10:47:57Z</time>
      </trkpt>
      <trkpt lat="43.66631" lon="3.81339">
        <ele>137</ele>
        <time>2021-04-24T10:47:58Z</time>
      </trkpt>
      <trkpt lat="43.66627" lon="3.81347">
        <ele>136</ele>
        <time>2021-04-24T10:47:59Z</time>
      </trkpt>
      <trkpt lat="43.66625" lon="3.81351">
        <ele>136</ele>
        <time>2021-04-24T10:48:00Z</time>
      </trkpt>
      <trkpt lat="43.66622" lon="3.81353">
        <ele>136</ele>
        <time>2021-04-24T10:48:01Z</time>
      </trkpt>
      <trkpt lat="43.66616" lon="3.81352">
        <ele>136</ele>
        <time>2021-04-24T10:48:03Z</time>
      </trkpt>
      <trkpt lat="43.66614" lon="3.81351">
        <ele>136</ele>
        <time>2021-04-24T10:48:04Z</time>
      </trkpt>
      <trkpt lat="43.66611" lon="3.8135">
        <ele>136</ele>
        <time>2021-04-24T10:48:05Z</time>
      </trkpt>
      <trkpt lat="43.66606" lon="3.81348">
        <ele>136</ele>
        <time>2021-04-24T10:48:07Z</time>
      </trkpt>
      <trkpt lat="43.66603" lon="3.81347">
        <ele>136</ele>
        <time>2021-04-24T10:48:09Z</time>
      </trkpt>
      <trkpt lat="43.66601" lon="3.81346">
        <ele>136</ele>
        <time>2021-04-24T10:48:10Z</time>
      </trkpt>
      <trkpt lat="43.66599" lon="3.81345">
        <ele>136</ele>
        <time>2021-04-24T10:48:11Z</time>
      </trkpt>
      <trkpt lat="43.66596" lon="3.81344">
        <ele>136</ele>
        <time>2021-04-24T10:48:12Z</time>
      </trkpt>
      <trkpt lat="43.66594" lon="3.81343">
        <ele>136</ele>
        <time>2021-04-24T10:48:13Z</time>
      </trkpt>
      <trkpt lat="43.66592" lon="3.81342">
        <ele>136</ele>
        <time>2021-04-24T10:48:14Z</time>
      </trkpt>
      <trkpt lat="43.66589" lon="3.81341">
        <ele>136</ele>
        <time>2021-04-24T10:48:15Z</time>
      </trkpt>
      <trkpt lat="43.66587" lon="3.81341">
        <ele>136</ele>
        <time>2021-04-24T10:48:16Z</time>
      </trkpt>
      <trkpt lat="43.66585" lon="3.8134">
        <ele>136</ele>
        <time>2021-04-24T10:48:17Z</time>
      </trkpt>
      <trkpt lat="43.66583" lon="3.8134">
        <ele>136</ele>
        <time>2021-04-24T10:48:18Z</time>
      </trkpt>
      <trkpt lat="43.6658" lon="3.81339">
        <ele>137</ele>
        <time>2021-04-24T10:48:19Z</time>
      </trkpt>
      <trkpt lat="43.66578" lon="3.81339">
        <ele>137</ele>
        <time>2021-04-24T10:48:20Z</time>
      </trkpt>
      <trkpt lat="43.66576" lon="3.81338">
        <ele>137</ele>
        <time>2021-04-24T10:48:21Z</time>
      </trkpt>
      <trkpt lat="43.66574" lon="3.81338">
        <ele>137</ele>
        <time>2021-04-24T10:48:22Z</time>
      </trkpt>
      <trkpt lat="43.66572" lon="3.81338">
        <ele>137</ele>
        <time>2021-04-24T10:48:23Z</time>
      </trkpt>
      <trkpt lat="43.6657" lon="3.81338">
        <ele>137</ele>
        <time>2021-04-24T10:48:24Z</time>
      </trkpt>
      <trkpt lat="43.66568" lon="3.81337">
        <ele>137</ele>
        <time>2021-04-24T10:48:25Z</time>
      </trkpt>
      <trkpt lat="43.66565" lon="3.81337">
        <ele>137</ele>
        <time>2021-04-24T10:48:26Z</time>
      </trkpt>
      <trkpt lat="43.66563" lon="3.81337">
        <ele>137</ele>
        <time>2021-04-24T10:48:27Z</time>
      </trkpt>
      <trkpt lat="43.66561" lon="3.81336">
        <ele>137</ele>
        <time>2021-04-24T10:48:28Z</time>
      </trkpt>
      <trkpt lat="43.66559" lon="3.81336">
        <ele>138</ele>
        <time>2021-04-24T10:48:29Z</time>
      </trkpt>
      <trkpt lat="43.66557" lon="3.81336">
        <ele>138</ele>
        <time>2021-04-24T10:48:30Z</time>
      </trkpt>
      <trkpt lat="43.66555" lon="3.81335">
        <ele>138</ele>
        <time>2021-04-24T10:48:31Z</time>
      </trkpt>
      <trkpt lat="43.66553" lon="3.81334">
        <ele>138</ele>
        <time>2021-04-24T10:48:32Z</time>
      </trkpt>
      <trkpt lat="43.66551" lon="3.81333">
        <ele>138</ele>
        <time>2021-04-24T10:48:33Z</time>
      </trkpt>
      <trkpt lat="43.66549" lon="3.81332">
        <ele>138</ele>
        <time>2021-04-24T10:48:34Z</time>
      </trkpt>
      <trkpt lat="43.66547" lon="3.81332">
        <ele>138</ele>
        <time>2021-04-24T10:48:35Z</time>
      </trkpt>
      <trkpt lat="43.66544" lon="3.81331">
        <ele>138</ele>
        <time>2021-04-24T10:48:36Z</time>
      </trkpt>
      <trkpt lat="43.66541" lon="3.8133">
        <ele>138</ele>
        <time>2021-04-24T10:48:37Z</time>
      </trkpt>
      <trkpt lat="43.66539" lon="3.8133">
        <ele>138</ele>
        <time>2021-04-24T10:48:38Z</time>
      </trkpt>
      <trkpt lat="43.66537" lon="3.81329">
        <ele>139</ele>
        <time>2021-04-24T10:48:39Z</time>
      </trkpt>
      <trkpt lat="43.66534" lon="3.81328">
        <ele>139</ele>
        <time>2021-04-24T10:48:40Z</time>
      </trkpt>
      <trkpt lat="43.66532" lon="3.81327">
        <ele>139</ele>
        <time>2021-04-24T10:48:41Z</time>
      </trkpt>
      <trkpt lat="43.66529" lon="3.81326">
        <ele>139</ele>
        <time>2021-04-24T10:48:42Z</time>
      </trkpt>
      <trkpt lat="43.66526" lon="3.81326">
        <ele>139</ele>
        <time>2021-04-24T10:48:43Z</time>
      </trkpt>
      <trkpt lat="43.66523" lon="3.81326">
        <ele>139</ele>
        <time>2021-04-24T10:48:44Z</time>
      </trkpt>
      <trkpt lat="43.6652" lon="3.81326">
        <ele>139</ele>
        <time>2021-04-24T10:48:45Z</time>
      </trkpt>
      <trkpt lat="43.66516" lon="3.81327">
        <ele>139</ele>
        <time>2021-04-24T10:48:46Z</time>
      </trkpt>
      <trkpt lat="43.66513" lon="3.81328">
        <ele>139</ele>
        <time>2021-04-24T10:48:47Z</time>
      </trkpt>
      <trkpt lat="43.6651" lon="3.8133">
        <ele>139</ele>
        <time>2021-04-24T10:48:48Z</time>
      </trkpt>
      <trkpt lat="43.66507" lon="3.81331">
        <ele>140</ele>
        <time>2021-04-24T10:48:49Z</time>
      </trkpt>
      <trkpt lat="43.66504" lon="3.81333">
        <ele>140</ele>
        <time>2021-04-24T10:48:50Z</time>
      </trkpt>
      <trkpt lat="43.66502" lon="3.81334">
        <ele>140</ele>
        <time>2021-04-24T10:48:51Z</time>
      </trkpt>
      <trkpt lat="43.66499" lon="3.81335">
        <ele>140</ele>
        <time>2021-04-24T10:48:52Z</time>
      </trkpt>
      <trkpt lat="43.66497" lon="3.81336">
        <ele>140</ele>
        <time>2021-04-24T10:48:53Z</time>
      </trkpt>
      <trkpt lat="43.66494" lon="3.81337">
        <ele>140</ele>
        <time>2021-04-24T10:48:54Z</time>
      </trkpt>
      <trkpt lat="43.66491" lon="3.81339">
        <ele>140</ele>
        <time>2021-04-24T10:48:55Z</time>
      </trkpt>
      <trkpt lat="43.66488" lon="3.8134">
        <ele>140</ele>
        <time>2021-04-24T10:48:56Z</time>
      </trkpt>
      <trkpt lat="43.66486" lon="3.8134">
        <ele>140</ele>
        <time>2021-04-24T10:48:57Z</time>
      </trkpt>
      <trkpt lat="43.66483" lon="3.81341">
        <ele>140</ele>
        <time>2021-04-24T10:48:58Z</time>
      </trkpt>
      <trkpt lat="43.6648" lon="3.81341">
        <ele>140</ele>
        <time>2021-04-24T10:48:59Z</time>
      </trkpt>
      <trkpt lat="43.66476" lon="3.8134">
        <ele>140</ele>
        <time>2021-04-24T10:49:00Z</time>
      </trkpt>
      <trkpt lat="43.66473" lon="3.8134">
        <ele>140</ele>
        <time>2021-04-24T10:49:01Z</time>
      </trkpt>
      <trkpt lat="43.6647" lon="3.8134">
        <ele>140</ele>
        <time>2021-04-24T10:49:02Z</time>
      </trkpt>
      <trkpt lat="43.66466" lon="3.81342">
        <ele>140</ele>
        <time>2021-04-24T10:49:03Z</time>
      </trkpt>
      <trkpt lat="43.66463" lon="3.81343">
        <ele>140</ele>
        <time>2021-04-24T10:49:04Z</time>
      </trkpt>
      <trkpt lat="43.6646" lon="3.81345">
        <ele>140</ele>
        <time>2021-04-24T10:49:05Z</time>
      </trkpt>
      <trkpt lat="43.66457" lon="3.81347">
        <ele>140</ele>
        <time>2021-04-24T10:49:06Z</time>
      </trkpt>
      <trkpt lat="43.66454" lon="3.81349">
        <ele>140</ele>
        <time>2021-04-24T10:49:07Z</time>
      </trkpt>
      <trkpt lat="43.66451" lon="3.8135">
        <ele>140</ele>
        <time>2021-04-24T10:49:08Z</time>
      </trkpt>
      <trkpt lat="43.66449" lon="3.81352">
        <ele>141</ele>
        <time>2021-04-24T10:49:09Z</time>
      </trkpt>
      <trkpt lat="43.66447" lon="3.81353">
        <ele>141</ele>
        <time>2021-04-24T10:49:10Z</time>
      </trkpt>
      <trkpt lat="43.66445" lon="3.81354">
        <ele>141</ele>
        <time>2021-04-24T10:49:11Z</time>
      </trkpt>
      <trkpt lat="43.66443" lon="3.81355">
        <ele>141</ele>
        <time>2021-04-24T10:49:12Z</time>
      </trkpt>
      <trkpt lat="43.66441" lon="3.81357">
        <ele>141</ele>
        <time>2021-04-24T10:49:14Z</time>
      </trkpt>
      <trkpt lat="43.66438" lon="3.81359">
        <ele>141</ele>
        <time>2021-04-24T10:49:16Z</time>
      </trkpt>
      <trkpt lat="43.66435" lon="3.81361">
        <ele>141</ele>
        <time>2021-04-24T10:49:18Z</time>
      </trkpt>
      <trkpt lat="43.66433" lon="3.81362">
        <ele>142</ele>
        <time>2021-04-24T10:49:19Z</time>
      </trkpt>
      <trkpt lat="43.66431" lon="3.81364">
        <ele>142</ele>
        <time>2021-04-24T10:49:21Z</time>
      </trkpt>
      <trkpt lat="43.66429" lon="3.81365">
        <ele>142</ele>
        <time>2021-04-24T10:49:22Z</time>
      </trkpt>
      <trkpt lat="43.66427" lon="3.81366">
        <ele>142</ele>
        <time>2021-04-24T10:49:23Z</time>
      </trkpt>
      <trkpt lat="43.66425" lon="3.81368">
        <ele>142</ele>
        <time>2021-04-24T10:49:24Z</time>
      </trkpt>
      <trkpt lat="43.66422" lon="3.8137">
        <ele>142</ele>
        <time>2021-04-24T10:49:26Z</time>
      </trkpt>
      <trkpt lat="43.66419" lon="3.81372">
        <ele>142</ele>
        <time>2021-04-24T10:49:28Z</time>
      </trkpt>
      <trkpt lat="43.66417" lon="3.81373">
        <ele>142</ele>
        <time>2021-04-24T10:49:30Z</time>
      </trkpt>
      <trkpt lat="43.66415" lon="3.81374">
        <ele>142</ele>
        <time>2021-04-24T10:49:31Z</time>
      </trkpt>
      <trkpt lat="43.66412" lon="3.81376">
        <ele>142</ele>
        <time>2021-04-24T10:49:33Z</time>
      </trkpt>
      <trkpt lat="43.6641" lon="3.81377">
        <ele>142</ele>
        <time>2021-04-24T10:49:34Z</time>
      </trkpt>
      <trkpt lat="43.66408" lon="3.81378">
        <ele>142</ele>
        <time>2021-04-24T10:49:35Z</time>
      </trkpt>
      <trkpt lat="43.66407" lon="3.81379">
        <ele>142</ele>
        <time>2021-04-24T10:49:36Z</time>
      </trkpt>
      <trkpt lat="43.66405" lon="3.8138">
        <ele>142</ele>
        <time>2021-04-24T10:49:37Z</time>
      </trkpt>
      <trkpt lat="43.66403" lon="3.81381">
        <ele>142</ele>
        <time>2021-04-24T10:49:38Z</time>
      </trkpt>
      <trkpt lat="43.66401" lon="3.81383">
        <ele>145</ele>
        <time>2021-04-24T10:49:39Z</time>
      </trkpt>
      <trkpt lat="43.66399" lon="3.81385">
        <ele>145</ele>
        <time>2021-04-24T10:49:40Z</time>
      </trkpt>
      <trkpt lat="43.66397" lon="3.81387">
        <ele>145</ele>
        <time>2021-04-24T10:49:42Z</time>
      </trkpt>
      <trkpt lat="43.66394" lon="3.81389">
        <ele>145</ele>
        <time>2021-04-24T10:49:44Z</time>
      </trkpt>
      <trkpt lat="43.66391" lon="3.81392">
        <ele>145</ele>
        <time>2021-04-24T10:49:46Z</time>
      </trkpt>
      <trkpt lat="43.66389" lon="3.81393">
        <ele>145</ele>
        <time>2021-04-24T10:49:47Z</time>
      </trkpt>
      <trkpt lat="43.66386" lon="3.81396">
        <ele>147</ele>
        <time>2021-04-24T10:49:49Z</time>
      </trkpt>
      <trkpt lat="43.66383" lon="3.81398">
        <ele>147</ele>
        <time>2021-04-24T10:49:51Z</time>
      </trkpt>
      <trkpt lat="43.66381" lon="3.814">
        <ele>147</ele>
        <time>2021-04-24T10:49:52Z</time>
      </trkpt>
      <trkpt lat="43.6638" lon="3.81401">
        <ele>147</ele>
        <time>2021-04-24T10:49:53Z</time>
      </trkpt>
      <trkpt lat="43.66378" lon="3.81403">
        <ele>147</ele>
        <time>2021-04-24T10:49:54Z</time>
      </trkpt>
      <trkpt lat="43.66376" lon="3.81406">
        <ele>147</ele>
        <time>2021-04-24T10:49:56Z</time>
      </trkpt>
      <trkpt lat="43.66374" lon="3.8141">
        <ele>147</ele>
        <time>2021-04-24T10:49:58Z</time>
      </trkpt>
      <trkpt lat="43.66371" lon="3.81414">
        <ele>147</ele>
        <time>2021-04-24T10:50:00Z</time>
      </trkpt>
      <trkpt lat="43.6637" lon="3.81416">
        <ele>147</ele>
        <time>2021-04-24T10:50:01Z</time>
      </trkpt>
      <trkpt lat="43.66368" lon="3.81418">
        <ele>147</ele>
        <time>2021-04-24T10:50:02Z</time>
      </trkpt>
      <trkpt lat="43.66367" lon="3.81419">
        <ele>147</ele>
        <time>2021-04-24T10:50:03Z</time>
      </trkpt>
      <trkpt lat="43.66366" lon="3.81421">
        <ele>147</ele>
        <time>2021-04-24T10:50:04Z</time>
      </trkpt>
      <trkpt lat="43.66365" lon="3.81423">
        <ele>147</ele>
        <time>2021-04-24T10:50:05Z</time>
      </trkpt>
      <trkpt lat="43.66362" lon="3.81426">
        <ele>147</ele>
        <time>2021-04-24T10:50:07Z</time>
      </trkpt>
      <trkpt lat="43.6636" lon="3.81428">
        <ele>147</ele>
        <time>2021-04-24T10:50:08Z</time>
      </trkpt>
      <trkpt lat="43.66358" lon="3.8143">
        <ele>147</ele>
        <time>2021-04-24T10:50:10Z</time>
      </trkpt>
      <trkpt lat="43.66355" lon="3.81433">
        <ele>147</ele>
        <time>2021-04-24T10:50:12Z</time>
      </trkpt>
      <trkpt lat="43.66353" lon="3.81434">
        <ele>147</ele>
        <time>2021-04-24T10:50:14Z</time>
      </trkpt>
      <trkpt lat="43.66351" lon="3.81437">
        <ele>147</ele>
        <time>2021-04-24T10:50:16Z</time>
      </trkpt>
      <trkpt lat="43.66349" lon="3.81439">
        <ele>147</ele>
        <time>2021-04-24T10:50:18Z</time>
      </trkpt>
      <trkpt lat="43.66348" lon="3.81442">
        <ele>151</ele>
        <time>2021-04-24T10:50:19Z</time>
      </trkpt>
      <trkpt lat="43.66347" lon="3.81446">
        <ele>151</ele>
        <time>2021-04-24T10:50:20Z</time>
      </trkpt>
      <trkpt lat="43.66346" lon="3.81449">
        <ele>151</ele>
        <time>2021-04-24T10:50:21Z</time>
      </trkpt>
      <trkpt lat="43.66346" lon="3.81453">
        <ele>151</ele>
        <time>2021-04-24T10:50:22Z</time>
      </trkpt>
      <trkpt lat="43.66346" lon="3.81457">
        <ele>151</ele>
        <time>2021-04-24T10:50:23Z</time>
      </trkpt>
      <trkpt lat="43.66346" lon="3.81461">
        <ele>151</ele>
        <time>2021-04-24T10:50:24Z</time>
      </trkpt>
      <trkpt lat="43.66347" lon="3.81464">
        <ele>151</ele>
        <time>2021-04-24T10:50:25Z</time>
      </trkpt>
      <trkpt lat="43.66348" lon="3.81468">
        <ele>151</ele>
        <time>2021-04-24T10:50:26Z</time>
      </trkpt>
      <trkpt lat="43.66349" lon="3.81472">
        <ele>151</ele>
        <time>2021-04-24T10:50:27Z</time>
      </trkpt>
      <trkpt lat="43.6635" lon="3.81475">
        <ele>151</ele>
        <time>2021-04-24T10:50:28Z</time>
      </trkpt>
      <trkpt lat="43.6635" lon="3.81478">
        <ele>152</ele>
        <time>2021-04-24T10:50:29Z</time>
      </trkpt>
      <trkpt lat="43.66351" lon="3.81482">
        <ele>152</ele>
        <time>2021-04-24T10:50:30Z</time>
      </trkpt>
      <trkpt lat="43.66352" lon="3.81485">
        <ele>152</ele>
        <time>2021-04-24T10:50:31Z</time>
      </trkpt>
      <trkpt lat="43.66352" lon="3.81489">
        <ele>152</ele>
        <time>2021-04-24T10:50:32Z</time>
      </trkpt>
      <trkpt lat="43.66352" lon="3.81493">
        <ele>152</ele>
        <time>2021-04-24T10:50:33Z</time>
      </trkpt>
      <trkpt lat="43.66353" lon="3.81498">
        <ele>152</ele>
        <time>2021-04-24T10:50:34Z</time>
      </trkpt>
      <trkpt lat="43.66353" lon="3.81503">
        <ele>152</ele>
        <time>2021-04-24T10:50:35Z</time>
      </trkpt>
      <trkpt lat="43.66353" lon="3.81507">
        <ele>152</ele>
        <time>2021-04-24T10:50:36Z</time>
      </trkpt>
      <trkpt lat="43.66353" lon="3.81511">
        <ele>152</ele>
        <time>2021-04-24T10:50:37Z</time>
      </trkpt>
      <trkpt lat="43.66353" lon="3.81515">
        <ele>152</ele>
        <time>2021-04-24T10:50:38Z</time>
      </trkpt>
      <trkpt lat="43.66353" lon="3.81519">
        <ele>154</ele>
        <time>2021-04-24T10:50:39Z</time>
      </trkpt>
      <trkpt lat="43.66354" lon="3.81523">
        <ele>154</ele>
        <time>2021-04-24T10:50:40Z</time>
      </trkpt>
      <trkpt lat="43.66354" lon="3.81527">
        <ele>154</ele>
        <time>2021-04-24T10:50:41Z</time>
      </trkpt>
      <trkpt lat="43.66355" lon="3.81531">
        <ele>154</ele>
        <time>2021-04-24T10:50:42Z</time>
      </trkpt>
      <trkpt lat="43.66356" lon="3.81535">
        <ele>154</ele>
        <time>2021-04-24T10:50:43Z</time>
      </trkpt>
      <trkpt lat="43.66356" lon="3.8154">
        <ele>154</ele>
        <time>2021-04-24T10:50:44Z</time>
      </trkpt>
      <trkpt lat="43.66354" lon="3.81544">
        <ele>154</ele>
        <time>2021-04-24T10:50:45Z</time>
      </trkpt>
      <trkpt lat="43.66351" lon="3.81547">
        <ele>154</ele>
        <time>2021-04-24T10:50:46Z</time>
      </trkpt>
      <trkpt lat="43.66349" lon="3.81549">
        <ele>154</ele>
        <time>2021-04-24T10:50:47Z</time>
      </trkpt>
      <trkpt lat="43.66346" lon="3.81551">
        <ele>154</ele>
        <time>2021-04-24T10:50:48Z</time>
      </trkpt>
      <trkpt lat="43.66343" lon="3.81553">
        <ele>155</ele>
        <time>2021-04-24T10:50:49Z</time>
      </trkpt>
      <trkpt lat="43.6634" lon="3.81555">
        <ele>155</ele>
        <time>2021-04-24T10:50:50Z</time>
      </trkpt>
      <trkpt lat="43.66337" lon="3.81557">
        <ele>155</ele>
        <time>2021-04-24T10:50:51Z</time>
      </trkpt>
      <trkpt lat="43.66335" lon="3.81559">
        <ele>155</ele>
        <time>2021-04-24T10:50:52Z</time>
      </trkpt>
      <trkpt lat="43.66333" lon="3.81561">
        <ele>155</ele>
        <time>2021-04-24T10:50:53Z</time>
      </trkpt>
      <trkpt lat="43.66331" lon="3.81564">
        <ele>155</ele>
        <time>2021-04-24T10:50:54Z</time>
      </trkpt>
      <trkpt lat="43.66329" lon="3.81566">
        <ele>155</ele>
        <time>2021-04-24T10:50:55Z</time>
      </trkpt>
      <trkpt lat="43.66327" lon="3.81569">
        <ele>155</ele>
        <time>2021-04-24T10:50:56Z</time>
      </trkpt>
      <trkpt lat="43.66325" lon="3.81574">
        <ele>155</ele>
        <time>2021-04-24T10:50:57Z</time>
      </trkpt>
      <trkpt lat="43.66325" lon="3.81581">
        <ele>155</ele>
        <time>2021-04-24T10:50:58Z</time>
      </trkpt>
      <trkpt lat="43.66326" lon="3.81586">
        <ele>155</ele>
        <time>2021-04-24T10:50:59Z</time>
      </trkpt>
      <trkpt lat="43.66327" lon="3.81591">
        <ele>155</ele>
        <time>2021-04-24T10:51:00Z</time>
      </trkpt>
      <trkpt lat="43.66329" lon="3.81596">
        <ele>155</ele>
        <time>2021-04-24T10:51:01Z</time>
      </trkpt>
      <trkpt lat="43.6633" lon="3.816">
        <ele>155</ele>
        <time>2021-04-24T10:51:02Z</time>
      </trkpt>
      <trkpt lat="43.66331" lon="3.81605">
        <ele>155</ele>
        <time>2021-04-24T10:51:03Z</time>
      </trkpt>
      <trkpt lat="43.66331" lon="3.81611">
        <ele>155</ele>
        <time>2021-04-24T10:51:04Z</time>
      </trkpt>
      <trkpt lat="43.66331" lon="3.81617">
        <ele>155</ele>
        <time>2021-04-24T10:51:05Z</time>
      </trkpt>
      <trkpt lat="43.6633" lon="3.81623">
        <ele>155</ele>
        <time>2021-04-24T10:51:06Z</time>
      </trkpt>
      <trkpt lat="43.6633" lon="3.81628">
        <ele>155</ele>
        <time>2021-04-24T10:51:07Z</time>
      </trkpt>
      <trkpt lat="43.66329" lon="3.81634">
        <ele>155</ele>
        <time>2021-04-24T10:51:08Z</time>
      </trkpt>
      <trkpt lat="43.66328" lon="3.81639">
        <ele>155</ele>
        <time>2021-04-24T10:51:09Z</time>
      </trkpt>
      <trkpt lat="43.66326" lon="3.81644">
        <ele>155</ele>
        <time>2021-04-24T10:51:10Z</time>
      </trkpt>
      <trkpt lat="43.66325" lon="3.81648">
        <ele>155</ele>
        <time>2021-04-24T10:51:11Z</time>
      </trkpt>
      <trkpt lat="43.66323" lon="3.81657">
        <ele>155</ele>
        <time>2021-04-24T10:51:12Z</time>
      </trkpt>
      <trkpt lat="43.66322" lon="3.81661">
        <ele>155</ele>
        <time>2021-04-24T10:51:13Z</time>
      </trkpt>
      <trkpt lat="43.66322" lon="3.81666">
        <ele>155</ele>
        <time>2021-04-24T10:51:14Z</time>
      </trkpt>
      <trkpt lat="43.66322" lon="3.8167">
        <ele>155</ele>
        <time>2021-04-24T10:51:15Z</time>
      </trkpt>
      <trkpt lat="43.66321" lon="3.8168">
        <ele>155</ele>
        <time>2021-04-24T10:51:17Z</time>
      </trkpt>
      <trkpt lat="43.66321" lon="3.81685">
        <ele>154</ele>
        <time>2021-04-24T10:51:19Z</time>
      </trkpt>
      <trkpt lat="43.66321" lon="3.81693">
        <ele>154</ele>
        <time>2021-04-24T10:51:21Z</time>
      </trkpt>
      <trkpt lat="43.66324" lon="3.81696">
        <ele>154</ele>
        <time>2021-04-24T10:51:23Z</time>
      </trkpt>
      <trkpt lat="43.66326" lon="3.81696">
        <ele>154</ele>
        <time>2021-04-24T10:51:24Z</time>
      </trkpt>
      <trkpt lat="43.66328" lon="3.81696">
        <ele>154</ele>
        <time>2021-04-24T10:51:25Z</time>
      </trkpt>
      <trkpt lat="43.6633" lon="3.81695">
        <ele>154</ele>
        <time>2021-04-24T10:51:26Z</time>
      </trkpt>
      <trkpt lat="43.66332" lon="3.81694">
        <ele>154</ele>
        <time>2021-04-24T10:51:27Z</time>
      </trkpt>
      <trkpt lat="43.66335" lon="3.81693">
        <ele>154</ele>
        <time>2021-04-24T10:51:28Z</time>
      </trkpt>
      <trkpt lat="43.66338" lon="3.81692">
        <ele>153</ele>
        <time>2021-04-24T10:51:29Z</time>
      </trkpt>
      <trkpt lat="43.6634" lon="3.81691">
        <ele>153</ele>
        <time>2021-04-24T10:51:30Z</time>
      </trkpt>
      <trkpt lat="43.66344" lon="3.81689">
        <ele>153</ele>
        <time>2021-04-24T10:51:31Z</time>
      </trkpt>
      <trkpt lat="43.66347" lon="3.81688">
        <ele>153</ele>
        <time>2021-04-24T10:51:32Z</time>
      </trkpt>
      <trkpt lat="43.66351" lon="3.81688">
        <ele>153</ele>
        <time>2021-04-24T10:51:33Z</time>
      </trkpt>
      <trkpt lat="43.66354" lon="3.81687">
        <ele>153</ele>
        <time>2021-04-24T10:51:34Z</time>
      </trkpt>
      <trkpt lat="43.66357" lon="3.81685">
        <ele>153</ele>
        <time>2021-04-24T10:51:35Z</time>
      </trkpt>
      <trkpt lat="43.66361" lon="3.81684">
        <ele>153</ele>
        <time>2021-04-24T10:51:36Z</time>
      </trkpt>
      <trkpt lat="43.66365" lon="3.81684">
        <ele>153</ele>
        <time>2021-04-24T10:51:37Z</time>
      </trkpt>
      <trkpt lat="43.66369" lon="3.81684">
        <ele>153</ele>
        <time>2021-04-24T10:51:38Z</time>
      </trkpt>
      <trkpt lat="43.66373" lon="3.81683">
        <ele>153</ele>
        <time>2021-04-24T10:51:39Z</time>
      </trkpt>
      <trkpt lat="43.66378" lon="3.81683">
        <ele>153</ele>
        <time>2021-04-24T10:51:40Z</time>
      </trkpt>
      <trkpt lat="43.66382" lon="3.81684">
        <ele>153</ele>
        <time>2021-04-24T10:51:41Z</time>
      </trkpt>
      <trkpt lat="43.66387" lon="3.81687">
        <ele>153</ele>
        <time>2021-04-24T10:51:42Z</time>
      </trkpt>
      <trkpt lat="43.6639" lon="3.81691">
        <ele>153</ele>
        <time>2021-04-24T10:51:43Z</time>
      </trkpt>
      <trkpt lat="43.66394" lon="3.81695">
        <ele>153</ele>
        <time>2021-04-24T10:51:44Z</time>
      </trkpt>
      <trkpt lat="43.66398" lon="3.817">
        <ele>153</ele>
        <time>2021-04-24T10:51:45Z</time>
      </trkpt>
      <trkpt lat="43.66402" lon="3.81704">
        <ele>153</ele>
        <time>2021-04-24T10:51:46Z</time>
      </trkpt>
      <trkpt lat="43.66406" lon="3.81707">
        <ele>153</ele>
        <time>2021-04-24T10:51:47Z</time>
      </trkpt>
      <trkpt lat="43.6641" lon="3.81709">
        <ele>153</ele>
        <time>2021-04-24T10:51:48Z</time>
      </trkpt>
      <trkpt lat="43.66415" lon="3.8171">
        <ele>150</ele>
        <time>2021-04-24T10:51:49Z</time>
      </trkpt>
      <trkpt lat="43.66419" lon="3.81713">
        <ele>150</ele>
        <time>2021-04-24T10:51:50Z</time>
      </trkpt>
      <trkpt lat="43.66423" lon="3.81716">
        <ele>150</ele>
        <time>2021-04-24T10:51:51Z</time>
      </trkpt>
      <trkpt lat="43.66427" lon="3.8172">
        <ele>150</ele>
        <time>2021-04-24T10:51:52Z</time>
      </trkpt>
      <trkpt lat="43.6643" lon="3.81723">
        <ele>150</ele>
        <time>2021-04-24T10:51:53Z</time>
      </trkpt>
      <trkpt lat="43.66434" lon="3.81726">
        <ele>150</ele>
        <time>2021-04-24T10:51:54Z</time>
      </trkpt>
      <trkpt lat="43.66437" lon="3.8173">
        <ele>150</ele>
        <time>2021-04-24T10:51:55Z</time>
      </trkpt>
      <trkpt lat="43.66441" lon="3.81733">
        <ele>150</ele>
        <time>2021-04-24T10:51:56Z</time>
      </trkpt>
      <trkpt lat="43.66444" lon="3.81735">
        <ele>150</ele>
        <time>2021-04-24T10:51:57Z</time>
      </trkpt>
      <trkpt lat="43.66448" lon="3.81737">
        <ele>150</ele>
        <time>2021-04-24T10:51:58Z</time>
      </trkpt>
      <trkpt lat="43.66451" lon="3.81739">
        <ele>148</ele>
        <time>2021-04-24T10:51:59Z</time>
      </trkpt>
      <trkpt lat="43.66455" lon="3.81742">
        <ele>148</ele>
        <time>2021-04-24T10:52:00Z</time>
      </trkpt>
      <trkpt lat="43.66459" lon="3.81744">
        <ele>148</ele>
        <time>2021-04-24T10:52:01Z</time>
      </trkpt>
      <trkpt lat="43.66463" lon="3.81746">
        <ele>148</ele>
        <time>2021-04-24T10:52:02Z</time>
      </trkpt>
      <trkpt lat="43.66466" lon="3.81746">
        <ele>148</ele>
        <time>2021-04-24T10:52:03Z</time>
      </trkpt>
      <trkpt lat="43.66469" lon="3.81746">
        <ele>148</ele>
        <time>2021-04-24T10:52:04Z</time>
      </trkpt>
      <trkpt lat="43.66471" lon="3.81744">
        <ele>148</ele>
        <time>2021-04-24T10:52:05Z</time>
      </trkpt>
      <trkpt lat="43.66473" lon="3.81741">
        <ele>148</ele>
        <time>2021-04-24T10:52:06Z</time>
      </trkpt>
      <trkpt lat="43.66474" lon="3.81739">
        <ele>148</ele>
        <time>2021-04-24T10:52:07Z</time>
      </trkpt>
      <trkpt lat="43.66474" lon="3.81735">
        <ele>148</ele>
        <time>2021-04-24T10:52:08Z</time>
      </trkpt>
      <trkpt lat="43.66473" lon="3.81732">
        <ele>146</ele>
        <time>2021-04-24T10:52:09Z</time>
      </trkpt>
      <trkpt lat="43.66472" lon="3.81729">
        <ele>146</ele>
        <time>2021-04-24T10:52:10Z</time>
      </trkpt>
      <trkpt lat="43.66471" lon="3.81725">
        <ele>146</ele>
        <time>2021-04-24T10:52:11Z</time>
      </trkpt>
      <trkpt lat="43.6647" lon="3.81721">
        <ele>146</ele>
        <time>2021-04-24T10:52:12Z</time>
      </trkpt>
      <trkpt lat="43.66468" lon="3.81717">
        <ele>146</ele>
        <time>2021-04-24T10:52:13Z</time>
      </trkpt>
      <trkpt lat="43.66467" lon="3.81713">
        <ele>146</ele>
        <time>2021-04-24T10:52:14Z</time>
      </trkpt>
      <trkpt lat="43.66466" lon="3.81709">
        <ele>146</ele>
        <time>2021-04-24T10:52:15Z</time>
      </trkpt>
      <trkpt lat="43.66465" lon="3.81704">
        <ele>146</ele>
        <time>2021-04-24T10:52:16Z</time>
      </trkpt>
      <trkpt lat="43.66464" lon="3.81699">
        <ele>146</ele>
        <time>2021-04-24T10:52:17Z</time>
      </trkpt>
      <trkpt lat="43.66463" lon="3.81695">
        <ele>146</ele>
        <time>2021-04-24T10:52:18Z</time>
      </trkpt>
      <trkpt lat="43.66463" lon="3.8169">
        <ele>146</ele>
        <time>2021-04-24T10:52:19Z</time>
      </trkpt>
      <trkpt lat="43.66462" lon="3.81685">
        <ele>146</ele>
        <time>2021-04-24T10:52:20Z</time>
      </trkpt>
      <trkpt lat="43.66462" lon="3.81681">
        <ele>146</ele>
        <time>2021-04-24T10:52:21Z</time>
      </trkpt>
      <trkpt lat="43.66463" lon="3.81677">
        <ele>146</ele>
        <time>2021-04-24T10:52:22Z</time>
      </trkpt>
      <trkpt lat="43.66463" lon="3.81673">
        <ele>146</ele>
        <time>2021-04-24T10:52:23Z</time>
      </trkpt>
      <trkpt lat="43.66464" lon="3.81668">
        <ele>146</ele>
        <time>2021-04-24T10:52:24Z</time>
      </trkpt>
      <trkpt lat="43.66465" lon="3.81664">
        <ele>146</ele>
        <time>2021-04-24T10:52:25Z</time>
      </trkpt>
      <trkpt lat="43.66466" lon="3.8166">
        <ele>146</ele>
        <time>2021-04-24T10:52:26Z</time>
      </trkpt>
      <trkpt lat="43.66467" lon="3.81655">
        <ele>146</ele>
        <time>2021-04-24T10:52:27Z</time>
      </trkpt>
      <trkpt lat="43.66468" lon="3.81652">
        <ele>146</ele>
        <time>2021-04-24T10:52:28Z</time>
      </trkpt>
      <trkpt lat="43.66469" lon="3.81648">
        <ele>144</ele>
        <time>2021-04-24T10:52:29Z</time>
      </trkpt>
      <trkpt lat="43.6647" lon="3.81645">
        <ele>144</ele>
        <time>2021-04-24T10:52:30Z</time>
      </trkpt>
      <trkpt lat="43.66472" lon="3.81642">
        <ele>144</ele>
        <time>2021-04-24T10:52:31Z</time>
      </trkpt>
      <trkpt lat="43.66475" lon="3.81639">
        <ele>144</ele>
        <time>2021-04-24T10:52:32Z</time>
      </trkpt>
      <trkpt lat="43.66477" lon="3.81636">
        <ele>144</ele>
        <time>2021-04-24T10:52:33Z</time>
      </trkpt>
      <trkpt lat="43.6648" lon="3.81632">
        <ele>144</ele>
        <time>2021-04-24T10:52:34Z</time>
      </trkpt>
      <trkpt lat="43.66482" lon="3.81629">
        <ele>144</ele>
        <time>2021-04-24T10:52:35Z</time>
      </trkpt>
      <trkpt lat="43.66484" lon="3.81625">
        <ele>144</ele>
        <time>2021-04-24T10:52:36Z</time>
      </trkpt>
      <trkpt lat="43.66486" lon="3.81621">
        <ele>144</ele>
        <time>2021-04-24T10:52:37Z</time>
      </trkpt>
      <trkpt lat="43.66488" lon="3.81617">
        <ele>144</ele>
        <time>2021-04-24T10:52:38Z</time>
      </trkpt>
      <trkpt lat="43.6649" lon="3.81613">
        <ele>144</ele>
        <time>2021-04-24T10:52:39Z</time>
      </trkpt>
      <trkpt lat="43.66491" lon="3.81609">
        <ele>144</ele>
        <time>2021-04-24T10:52:40Z</time>
      </trkpt>
      <trkpt lat="43.66492" lon="3.81604">
        <ele>144</ele>
        <time>2021-04-24T10:52:41Z</time>
      </trkpt>
      <trkpt lat="43.66493" lon="3.816">
        <ele>144</ele>
        <time>2021-04-24T10:52:42Z</time>
      </trkpt>
      <trkpt lat="43.66494" lon="3.81594">
        <ele>144</ele>
        <time>2021-04-24T10:52:43Z</time>
      </trkpt>
      <trkpt lat="43.66496" lon="3.81589">
        <ele>144</ele>
        <time>2021-04-24T10:52:44Z</time>
      </trkpt>
      <trkpt lat="43.66497" lon="3.81584">
        <ele>144</ele>
        <time>2021-04-24T10:52:45Z</time>
      </trkpt>
      <trkpt lat="43.66497" lon="3.81579">
        <ele>144</ele>
        <time>2021-04-24T10:52:46Z</time>
      </trkpt>
      <trkpt lat="43.66498" lon="3.81574">
        <ele>144</ele>
        <time>2021-04-24T10:52:47Z</time>
      </trkpt>
      <trkpt lat="43.66499" lon="3.81569">
        <ele>144</ele>
        <time>2021-04-24T10:52:48Z</time>
      </trkpt>
      <trkpt lat="43.665" lon="3.81564">
        <ele>144</ele>
        <time>2021-04-24T10:52:49Z</time>
      </trkpt>
      <trkpt lat="43.66501" lon="3.81559">
        <ele>144</ele>
        <time>2021-04-24T10:52:50Z</time>
      </trkpt>
      <trkpt lat="43.66502" lon="3.81553">
        <ele>144</ele>
        <time>2021-04-24T10:52:51Z</time>
      </trkpt>
      <trkpt lat="43.66504" lon="3.81547">
        <ele>144</ele>
        <time>2021-04-24T10:52:52Z</time>
      </trkpt>
      <trkpt lat="43.66505" lon="3.81542">
        <ele>144</ele>
        <time>2021-04-24T10:52:53Z</time>
      </trkpt>
      <trkpt lat="43.66506" lon="3.81537">
        <ele>144</ele>
        <time>2021-04-24T10:52:54Z</time>
      </trkpt>
      <trkpt lat="43.66507" lon="3.81532">
        <ele>144</ele>
        <time>2021-04-24T10:52:55Z</time>
      </trkpt>
      <trkpt lat="43.66509" lon="3.81527">
        <ele>144</ele>
        <time>2021-04-24T10:52:56Z</time>
      </trkpt>
      <trkpt lat="43.6651" lon="3.81522">
        <ele>144</ele>
        <time>2021-04-24T10:52:57Z</time>
      </trkpt>
      <trkpt lat="43.66511" lon="3.81516">
        <ele>144</ele>
        <time>2021-04-24T10:52:58Z</time>
      </trkpt>
      <trkpt lat="43.66512" lon="3.81511">
        <ele>144</ele>
        <time>2021-04-24T10:52:59Z</time>
      </trkpt>
      <trkpt lat="43.66513" lon="3.81505">
        <ele>144</ele>
        <time>2021-04-24T10:53:00Z</time>
      </trkpt>
      <trkpt lat="43.66516" lon="3.815">
        <ele>144</ele>
        <time>2021-04-24T10:53:01Z</time>
      </trkpt>
      <trkpt lat="43.66519" lon="3.81496">
        <ele>144</ele>
        <time>2021-04-24T10:53:02Z</time>
      </trkpt>
      <trkpt lat="43.66523" lon="3.81493">
        <ele>144</ele>
        <time>2021-04-24T10:53:03Z</time>
      </trkpt>
      <trkpt lat="43.66528" lon="3.81491">
        <ele>144</ele>
        <time>2021-04-24T10:53:04Z</time>
      </trkpt>
      <trkpt lat="43.66533" lon="3.8149">
        <ele>144</ele>
        <time>2021-04-24T10:53:05Z</time>
      </trkpt>
      <trkpt lat="43.66539" lon="3.81488">
        <ele>144</ele>
        <time>2021-04-24T10:53:06Z</time>
      </trkpt>
      <trkpt lat="43.66544" lon="3.81485">
        <ele>144</ele>
        <time>2021-04-24T10:53:07Z</time>
      </trkpt>
      <trkpt lat="43.6655" lon="3.81481">
        <ele>144</ele>
        <time>2021-04-24T10:53:08Z</time>
      </trkpt>
      <trkpt lat="43.66556" lon="3.81477">
        <ele>142</ele>
        <time>2021-04-24T10:53:09Z</time>
      </trkpt>
      <trkpt lat="43.66562" lon="3.8147">
        <ele>142</ele>
        <time>2021-04-24T10:53:10Z</time>
      </trkpt>
      <trkpt lat="43.66567" lon="3.81462">
        <ele>142</ele>
        <time>2021-04-24T10:53:11Z</time>
      </trkpt>
      <trkpt lat="43.66573" lon="3.81454">
        <ele>142</ele>
        <time>2021-04-24T10:53:12Z</time>
      </trkpt>
      <trkpt lat="43.6658" lon="3.81446">
        <ele>142</ele>
        <time>2021-04-24T10:53:13Z</time>
      </trkpt>
      <trkpt lat="43.66585" lon="3.81437">
        <ele>142</ele>
        <time>2021-04-24T10:53:14Z</time>
      </trkpt>
      <trkpt lat="43.66591" lon="3.81428">
        <ele>142</ele>
        <time>2021-04-24T10:53:15Z</time>
      </trkpt>
      <trkpt lat="43.66597" lon="3.81419">
        <ele>142</ele>
        <time>2021-04-24T10:53:16Z</time>
      </trkpt>
      <trkpt lat="43.66602" lon="3.8141">
        <ele>142</ele>
        <time>2021-04-24T10:53:17Z</time>
      </trkpt>
      <trkpt lat="43.66606" lon="3.814">
        <ele>142</ele>
        <time>2021-04-24T10:53:18Z</time>
      </trkpt>
      <trkpt lat="43.6661" lon="3.81391">
        <ele>140</ele>
        <time>2021-04-24T10:53:19Z</time>
      </trkpt>
      <trkpt lat="43.66614" lon="3.81382">
        <ele>140</ele>
        <time>2021-04-24T10:53:20Z</time>
      </trkpt>
      <trkpt lat="43.66618" lon="3.81374">
        <ele>140</ele>
        <time>2021-04-24T10:53:21Z</time>
      </trkpt>
      <trkpt lat="43.66621" lon="3.81366">
        <ele>140</ele>
        <time>2021-04-24T10:53:22Z</time>
      </trkpt>
      <trkpt lat="43.66624" lon="3.81358">
        <ele>140</ele>
        <time>2021-04-24T10:53:23Z</time>
      </trkpt>
      <trkpt lat="43.66626" lon="3.81351">
        <ele>140</ele>
        <time>2021-04-24T10:53:24Z</time>
      </trkpt>
      <trkpt lat="43.66628" lon="3.81345">
        <ele>140</ele>
        <time>2021-04-24T10:53:25Z</time>
      </trkpt>
      <trkpt lat="43.6663" lon="3.81339">
        <ele>140</ele>
        <time>2021-04-24T10:53:26Z</time>
      </trkpt>
      <trkpt lat="43.66633" lon="3.81334">
        <ele>140</ele>
        <time>2021-04-24T10:53:27Z</time>
      </trkpt>
      <trkpt lat="43.66635" lon="3.81329">
        <ele>140</ele>
        <time>2021-04-24T10:53:28Z</time>
      </trkpt>
      <trkpt lat="43.66638" lon="3.81324">
        <ele>137</ele>
        <time>2021-04-24T10:53:29Z</time>
      </trkpt>
      <trkpt lat="43.66641" lon="3.8132">
        <ele>137</ele>
        <time>2021-04-24T10:53:30Z</time>
      </trkpt>
      <trkpt lat="43.66644" lon="3.81316">
        <ele>137</ele>
        <time>2021-04-24T10:53:31Z</time>
      </trkpt>
      <trkpt lat="43.66648" lon="3.81313">
        <ele>137</ele>
        <time>2021-04-24T10:53:32Z</time>
      </trkpt>
      <trkpt lat="43.66651" lon="3.81309">
        <ele>137</ele>
        <time>2021-04-24T10:53:33Z</time>
      </trkpt>
      <trkpt lat="43.66655" lon="3.81306">
        <ele>137</ele>
        <time>2021-04-24T10:53:34Z</time>
      </trkpt>
      <trkpt lat="43.66658" lon="3.81303">
        <ele>137</ele>
        <time>2021-04-24T10:53:35Z</time>
      </trkpt>
      <trkpt lat="43.6666" lon="3.81299">
        <ele>137</ele>
        <time>2021-04-24T10:53:36Z</time>
      </trkpt>
      <trkpt lat="43.66663" lon="3.81296">
        <ele>137</ele>
        <time>2021-04-24T10:53:37Z</time>
      </trkpt>
      <trkpt lat="43.66666" lon="3.81293">
        <ele>137</ele>
        <time>2021-04-24T10:53:38Z</time>
      </trkpt>
      <trkpt lat="43.66668" lon="3.8129">
        <ele>137</ele>
        <time>2021-04-24T10:53:39Z</time>
      </trkpt>
      <trkpt lat="43.66671" lon="3.81288">
        <ele>137</ele>
        <time>2021-04-24T10:53:40Z</time>
      </trkpt>
      <trkpt lat="43.66673" lon="3.81285">
        <ele>137</ele>
        <time>2021-04-24T10:53:41Z</time>
      </trkpt>
      <trkpt lat="43.66675" lon="3.81282">
        <ele>137</ele>
        <time>2021-04-24T10:53:42Z</time>
      </trkpt>
      <trkpt lat="43.66677" lon="3.81279">
        <ele>137</ele>
        <time>2021-04-24T10:53:43Z</time>
      </trkpt>
      <trkpt lat="43.6668" lon="3.81276">
        <ele>137</ele>
        <time>2021-04-24T10:53:44Z</time>
      </trkpt>
      <trkpt lat="43.66682" lon="3.81273">
        <ele>137</ele>
        <time>2021-04-24T10:53:45Z</time>
      </trkpt>
      <trkpt lat="43.66684" lon="3.8127">
        <ele>137</ele>
        <time>2021-04-24T10:53:46Z</time>
      </trkpt>
      <trkpt lat="43.66686" lon="3.81266">
        <ele>137</ele>
        <time>2021-04-24T10:53:47Z</time>
      </trkpt>
      <trkpt lat="43.66688" lon="3.81262">
        <ele>137</ele>
        <time>2021-04-24T10:53:48Z</time>
      </trkpt>
      <trkpt lat="43.6669" lon="3.81259">
        <ele>137</ele>
        <time>2021-04-24T10:53:49Z</time>
      </trkpt>
      <trkpt lat="43.66692" lon="3.81255">
        <ele>137</ele>
        <time>2021-04-24T10:53:50Z</time>
      </trkpt>
      <trkpt lat="43.66694" lon="3.81251">
        <ele>137</ele>
        <time>2021-04-24T10:53:51Z</time>
      </trkpt>
      <trkpt lat="43.66696" lon="3.81248">
        <ele>137</ele>
        <time>2021-04-24T10:53:52Z</time>
      </trkpt>
      <trkpt lat="43.66698" lon="3.81245">
        <ele>137</ele>
        <time>2021-04-24T10:53:53Z</time>
      </trkpt>
      <trkpt lat="43.667" lon="3.81242">
        <ele>137</ele>
        <time>2021-04-24T10:53:54Z</time>
      </trkpt>
      <trkpt lat="43.66701" lon="3.8124">
        <ele>137</ele>
        <time>2021-04-24T10:53:55Z</time>
      </trkpt>
      <trkpt lat="43.66703" lon="3.81237">
        <ele>137</ele>
        <time>2021-04-24T10:53:57Z</time>
      </trkpt>
      <trkpt lat="43.66708" lon="3.81227">
        <ele>137</ele>
        <time>2021-04-24T10:54:24Z</time>
      </trkpt>
      <trkpt lat="43.66709" lon="3.81224">
        <ele>137</ele>
        <time>2021-04-24T10:54:25Z</time>
      </trkpt>
      <trkpt lat="43.66711" lon="3.81222">
        <ele>137</ele>
        <time>2021-04-24T10:54:26Z</time>
      </trkpt>
      <trkpt lat="43.66714" lon="3.8122">
        <ele>137</ele>
        <time>2021-04-24T10:54:27Z</time>
      </trkpt>
      <trkpt lat="43.66717" lon="3.81218">
        <ele>137</ele>
        <time>2021-04-24T10:54:28Z</time>
      </trkpt>
      <trkpt lat="43.6672" lon="3.81217">
        <ele>137</ele>
        <time>2021-04-24T10:54:29Z</time>
      </trkpt>
      <trkpt lat="43.66723" lon="3.81216">
        <ele>137</ele>
        <time>2021-04-24T10:54:30Z</time>
      </trkpt>
      <trkpt lat="43.66726" lon="3.81216">
        <ele>137</ele>
        <time>2021-04-24T10:54:31Z</time>
      </trkpt>
      <trkpt lat="43.6673" lon="3.81216">
        <ele>137</ele>
        <time>2021-04-24T10:54:32Z</time>
      </trkpt>
      <trkpt lat="43.66733" lon="3.81217">
        <ele>137</ele>
        <time>2021-04-24T10:54:33Z</time>
      </trkpt>
      <trkpt lat="43.66741" lon="3.81222">
        <ele>136</ele>
        <time>2021-04-24T10:54:34Z</time>
      </trkpt>
      <trkpt lat="43.66745" lon="3.81224">
        <ele>136</ele>
        <time>2021-04-24T10:54:36Z</time>
      </trkpt>
      <trkpt lat="43.66749" lon="3.81224">
        <ele>136</ele>
        <time>2021-04-24T10:54:37Z</time>
      </trkpt>
      <trkpt lat="43.66753" lon="3.81222">
        <ele>136</ele>
        <time>2021-04-24T10:54:38Z</time>
      </trkpt>
      <trkpt lat="43.66756" lon="3.81219">
        <ele>136</ele>
        <time>2021-04-24T10:54:39Z</time>
      </trkpt>
      <trkpt lat="43.66757" lon="3.81215">
        <ele>136</ele>
        <time>2021-04-24T10:54:40Z</time>
      </trkpt>
      <trkpt lat="43.66759" lon="3.81212">
        <ele>136</ele>
        <time>2021-04-24T10:54:41Z</time>
      </trkpt>
      <trkpt lat="43.66762" lon="3.8121">
        <ele>136</ele>
        <time>2021-04-24T10:54:42Z</time>
      </trkpt>
      <trkpt lat="43.66765" lon="3.81209">
        <ele>136</ele>
        <time>2021-04-24T10:54:43Z</time>
      </trkpt>
      <trkpt lat="43.6677" lon="3.81204">
        <ele>136</ele>
        <time>2021-04-24T10:54:44Z</time>
      </trkpt>
      <trkpt lat="43.66772" lon="3.81201">
        <ele>136</ele>
        <time>2021-04-24T10:54:45Z</time>
      </trkpt>
      <trkpt lat="43.66774" lon="3.81197">
        <ele>136</ele>
        <time>2021-04-24T10:54:46Z</time>
      </trkpt>
      <trkpt lat="43.66775" lon="3.81193">
        <ele>136</ele>
        <time>2021-04-24T10:54:47Z</time>
      </trkpt>
      <trkpt lat="43.66776" lon="3.81188">
        <ele>136</ele>
        <time>2021-04-24T10:54:49Z</time>
      </trkpt>
      <trkpt lat="43.66776" lon="3.81176">
        <ele>136</ele>
        <time>2021-04-24T10:54:50Z</time>
      </trkpt>
      <trkpt lat="43.66776" lon="3.8117">
        <ele>136</ele>
        <time>2021-04-24T10:54:51Z</time>
      </trkpt>
      <trkpt lat="43.66777" lon="3.81165">
        <ele>136</ele>
        <time>2021-04-24T10:54:52Z</time>
      </trkpt>
      <trkpt lat="43.6678" lon="3.81162">
        <ele>136</ele>
        <time>2021-04-24T10:54:54Z</time>
      </trkpt>
      <trkpt lat="43.66785" lon="3.81162">
        <ele>136</ele>
        <time>2021-04-24T10:54:55Z</time>
      </trkpt>
      <trkpt lat="43.6679" lon="3.81164">
        <ele>136</ele>
        <time>2021-04-24T10:54:56Z</time>
      </trkpt>
      <trkpt lat="43.66795" lon="3.81166">
        <ele>136</ele>
        <time>2021-04-24T10:54:57Z</time>
      </trkpt>
      <trkpt lat="43.66799" lon="3.81167">
        <ele>136</ele>
        <time>2021-04-24T10:54:58Z</time>
      </trkpt>
      <trkpt lat="43.66802" lon="3.81167">
        <ele>136</ele>
        <time>2021-04-24T10:54:59Z</time>
      </trkpt>
      <trkpt lat="43.66806" lon="3.81167">
        <ele>136</ele>
        <time>2021-04-24T10:55:00Z</time>
      </trkpt>
      <trkpt lat="43.66808" lon="3.81165">
        <ele>136</ele>
        <time>2021-04-24T10:55:01Z</time>
      </trkpt>
      <trkpt lat="43.6681" lon="3.81163">
        <ele>136</ele>
        <time>2021-04-24T10:55:02Z</time>
      </trkpt>
      <trkpt lat="43.66811" lon="3.8116">
        <ele>136</ele>
        <time>2021-04-24T10:55:03Z</time>
      </trkpt>
      <trkpt lat="43.66812" lon="3.81156">
        <ele>135</ele>
        <time>2021-04-24T10:55:04Z</time>
      </trkpt>
      <trkpt lat="43.66812" lon="3.81142">
        <ele>135</ele>
        <time>2021-04-24T10:55:08Z</time>
      </trkpt>
      <trkpt lat="43.66817" lon="3.81133">
        <ele>135</ele>
        <time>2021-04-24T10:55:11Z</time>
      </trkpt>
      <trkpt lat="43.66818" lon="3.81131">
        <ele>135</ele>
        <time>2021-04-24T10:55:13Z</time>
      </trkpt>
      <trkpt lat="43.66819" lon="3.81128">
        <ele>135</ele>
        <time>2021-04-24T10:55:14Z</time>
      </trkpt>
      <trkpt lat="43.6682" lon="3.81125">
        <ele>135</ele>
        <time>2021-04-24T10:55:15Z</time>
      </trkpt>
      <trkpt lat="43.66822" lon="3.81121">
        <ele>135</ele>
        <time>2021-04-24T10:55:16Z</time>
      </trkpt>
      <trkpt lat="43.66825" lon="3.81116">
        <ele>135</ele>
        <time>2021-04-24T10:55:17Z</time>
      </trkpt>
      <trkpt lat="43.66827" lon="3.8111">
        <ele>135</ele>
        <time>2021-04-24T10:55:18Z</time>
      </trkpt>
      <trkpt lat="43.6683" lon="3.81103">
        <ele>135</ele>
        <time>2021-04-24T10:55:19Z</time>
      </trkpt>
      <trkpt lat="43.66833" lon="3.81097">
        <ele>135</ele>
        <time>2021-04-24T10:55:20Z</time>
      </trkpt>
      <trkpt lat="43.66837" lon="3.81094">
        <ele>135</ele>
        <time>2021-04-24T10:55:21Z</time>
      </trkpt>
      <trkpt lat="43.66841" lon="3.81092">
        <ele>135</ele>
        <time>2021-04-24T10:55:22Z</time>
      </trkpt>
      <trkpt lat="43.66847" lon="3.81091">
        <ele>135</ele>
        <time>2021-04-24T10:55:23Z</time>
      </trkpt>
      <trkpt lat="43.66857" lon="3.8109">
        <ele>130</ele>
        <time>2021-04-24T10:55:24Z</time>
      </trkpt>
      <trkpt lat="43.66862" lon="3.81091">
        <ele>130</ele>
        <time>2021-04-24T10:55:25Z</time>
      </trkpt>
      <trkpt lat="43.66867" lon="3.81091">
        <ele>130</ele>
        <time>2021-04-24T10:55:26Z</time>
      </trkpt>
      <trkpt lat="43.66876" lon="3.81089">
        <ele>130</ele>
        <time>2021-04-24T10:55:28Z</time>
      </trkpt>
      <trkpt lat="43.66886" lon="3.81087">
        <ele>130</ele>
        <time>2021-04-24T10:55:30Z</time>
      </trkpt>
      <trkpt lat="43.66891" lon="3.81087">
        <ele>130</ele>
        <time>2021-04-24T10:55:31Z</time>
      </trkpt>
      <trkpt lat="43.66895" lon="3.81087">
        <ele>130</ele>
        <time>2021-04-24T10:55:33Z</time>
      </trkpt>
      <trkpt lat="43.669" lon="3.81088">
        <ele>127</ele>
        <time>2021-04-24T10:55:34Z</time>
      </trkpt>
      <trkpt lat="43.66903" lon="3.81087">
        <ele>127</ele>
        <time>2021-04-24T10:55:35Z</time>
      </trkpt>
      <trkpt lat="43.66912" lon="3.81081">
        <ele>127</ele>
        <time>2021-04-24T10:55:38Z</time>
      </trkpt>
      <trkpt lat="43.66913" lon="3.81077">
        <ele>127</ele>
        <time>2021-04-24T10:55:39Z</time>
      </trkpt>
      <trkpt lat="43.66915" lon="3.81074">
        <ele>127</ele>
        <time>2021-04-24T10:55:40Z</time>
      </trkpt>
      <trkpt lat="43.66918" lon="3.81072">
        <ele>127</ele>
        <time>2021-04-24T10:55:41Z</time>
      </trkpt>
      <trkpt lat="43.66922" lon="3.81072">
        <ele>127</ele>
        <time>2021-04-24T10:55:42Z</time>
      </trkpt>
      <trkpt lat="43.66925" lon="3.8107">
        <ele>127</ele>
        <time>2021-04-24T10:55:43Z</time>
      </trkpt>
      <trkpt lat="43.66928" lon="3.81067">
        <ele>124</ele>
        <time>2021-04-24T10:55:44Z</time>
      </trkpt>
      <trkpt lat="43.66931" lon="3.81063">
        <ele>124</ele>
        <time>2021-04-24T10:55:45Z</time>
      </trkpt>
      <trkpt lat="43.66935" lon="3.8106">
        <ele>124</ele>
        <time>2021-04-24T10:55:46Z</time>
      </trkpt>
      <trkpt lat="43.66939" lon="3.81057">
        <ele>124</ele>
        <time>2021-04-24T10:55:47Z</time>
      </trkpt>
      <trkpt lat="43.66943" lon="3.81054">
        <ele>124</ele>
        <time>2021-04-24T10:55:48Z</time>
      </trkpt>
      <trkpt lat="43.66947" lon="3.81053">
        <ele>124</ele>
        <time>2021-04-24T10:55:49Z</time>
      </trkpt>
      <trkpt lat="43.66951" lon="3.8105">
        <ele>124</ele>
        <time>2021-04-24T10:55:50Z</time>
      </trkpt>
      <trkpt lat="43.66954" lon="3.81048">
        <ele>124</ele>
        <time>2021-04-24T10:55:51Z</time>
      </trkpt>
      <trkpt lat="43.66958" lon="3.81046">
        <ele>124</ele>
        <time>2021-04-24T10:55:52Z</time>
      </trkpt>
      <trkpt lat="43.66962" lon="3.81045">
        <ele>124</ele>
        <time>2021-04-24T10:55:53Z</time>
      </trkpt>
      <trkpt lat="43.66965" lon="3.81044">
        <ele>121</ele>
        <time>2021-04-24T10:55:54Z</time>
      </trkpt>
      <trkpt lat="43.66968" lon="3.81042">
        <ele>121</ele>
        <time>2021-04-24T10:55:55Z</time>
      </trkpt>
      <trkpt lat="43.6697" lon="3.8104">
        <ele>121</ele>
        <time>2021-04-24T10:55:56Z</time>
      </trkpt>
      <trkpt lat="43.66972" lon="3.81038">
        <ele>121</ele>
        <time>2021-04-24T10:55:57Z</time>
      </trkpt>
      <trkpt lat="43.66975" lon="3.81037">
        <ele>121</ele>
        <time>2021-04-24T10:55:58Z</time>
      </trkpt>
      <trkpt lat="43.66978" lon="3.81036">
        <ele>121</ele>
        <time>2021-04-24T10:55:59Z</time>
      </trkpt>
      <trkpt lat="43.6698" lon="3.81037">
        <ele>121</ele>
        <time>2021-04-24T10:56:00Z</time>
      </trkpt>
      <trkpt lat="43.66983" lon="3.81037">
        <ele>121</ele>
        <time>2021-04-24T10:56:01Z</time>
      </trkpt>
      <trkpt lat="43.66984" lon="3.81039">
        <ele>121</ele>
        <time>2021-04-24T10:56:02Z</time>
      </trkpt>
      <trkpt lat="43.66987" lon="3.8104">
        <ele>121</ele>
        <time>2021-04-24T10:56:04Z</time>
      </trkpt>
      <trkpt lat="43.6699" lon="3.8104">
        <ele>121</ele>
        <time>2021-04-24T10:56:05Z</time>
      </trkpt>
      <trkpt lat="43.66993" lon="3.81041">
        <ele>121</ele>
        <time>2021-04-24T10:56:06Z</time>
      </trkpt>
      <trkpt lat="43.66995" lon="3.81043">
        <ele>121</ele>
        <time>2021-04-24T10:56:07Z</time>
      </trkpt>
      <trkpt lat="43.66998" lon="3.81044">
        <ele>121</ele>
        <time>2021-04-24T10:56:08Z</time>
      </trkpt>
      <trkpt lat="43.67001" lon="3.81046">
        <ele>121</ele>
        <time>2021-04-24T10:56:09Z</time>
      </trkpt>
      <trkpt lat="43.67004" lon="3.81047">
        <ele>121</ele>
        <time>2021-04-24T10:56:10Z</time>
      </trkpt>
      <trkpt lat="43.67007" lon="3.81049">
        <ele>121</ele>
        <time>2021-04-24T10:56:11Z</time>
      </trkpt>
      <trkpt lat="43.6701" lon="3.81051">
        <ele>121</ele>
        <time>2021-04-24T10:56:12Z</time>
      </trkpt>
      <trkpt lat="43.67012" lon="3.81052">
        <ele>121</ele>
        <time>2021-04-24T10:56:13Z</time>
      </trkpt>
      <trkpt lat="43.67015" lon="3.81051">
        <ele>121</ele>
        <time>2021-04-24T10:56:14Z</time>
      </trkpt>
      <trkpt lat="43.67018" lon="3.81051">
        <ele>121</ele>
        <time>2021-04-24T10:56:15Z</time>
      </trkpt>
      <trkpt lat="43.67021" lon="3.81052">
        <ele>121</ele>
        <time>2021-04-24T10:56:16Z</time>
      </trkpt>
      <trkpt lat="43.67025" lon="3.81053">
        <ele>121</ele>
        <time>2021-04-24T10:56:17Z</time>
      </trkpt>
      <trkpt lat="43.67028" lon="3.81054">
        <ele>121</ele>
        <time>2021-04-24T10:56:18Z</time>
      </trkpt>
      <trkpt lat="43.67031" lon="3.81057">
        <ele>121</ele>
        <time>2021-04-24T10:56:19Z</time>
      </trkpt>
      <trkpt lat="43.67033" lon="3.81058">
        <ele>121</ele>
        <time>2021-04-24T10:56:20Z</time>
      </trkpt>
      <trkpt lat="43.67036" lon="3.81058">
        <ele>121</ele>
        <time>2021-04-24T10:56:21Z</time>
      </trkpt>
      <trkpt lat="43.67039" lon="3.81059">
        <ele>121</ele>
        <time>2021-04-24T10:56:22Z</time>
      </trkpt>
      <trkpt lat="43.67043" lon="3.81059">
        <ele>121</ele>
        <time>2021-04-24T10:56:23Z</time>
      </trkpt>
      <trkpt lat="43.67046" lon="3.8106">
        <ele>121</ele>
        <time>2021-04-24T10:56:24Z</time>
      </trkpt>
      <trkpt lat="43.6705" lon="3.81062">
        <ele>121</ele>
        <time>2021-04-24T10:56:25Z</time>
      </trkpt>
      <trkpt lat="43.67055" lon="3.81063">
        <ele>121</ele>
        <time>2021-04-24T10:56:26Z</time>
      </trkpt>
      <trkpt lat="43.67059" lon="3.81064">
        <ele>121</ele>
        <time>2021-04-24T10:56:27Z</time>
      </trkpt>
      <trkpt lat="43.67063" lon="3.81064">
        <ele>121</ele>
        <time>2021-04-24T10:56:28Z</time>
      </trkpt>
      <trkpt lat="43.67067" lon="3.81065">
        <ele>121</ele>
        <time>2021-04-24T10:56:29Z</time>
      </trkpt>
      <trkpt lat="43.6707" lon="3.81066">
        <ele>121</ele>
        <time>2021-04-24T10:56:30Z</time>
      </trkpt>
      <trkpt lat="43.67073" lon="3.81065">
        <ele>121</ele>
        <time>2021-04-24T10:56:31Z</time>
      </trkpt>
      <trkpt lat="43.67077" lon="3.81064">
        <ele>121</ele>
        <time>2021-04-24T10:56:32Z</time>
      </trkpt>
      <trkpt lat="43.6708" lon="3.81065">
        <ele>121</ele>
        <time>2021-04-24T10:56:33Z</time>
      </trkpt>
      <trkpt lat="43.67082" lon="3.81066">
        <ele>120</ele>
        <time>2021-04-24T10:56:34Z</time>
      </trkpt>
      <trkpt lat="43.67084" lon="3.81066">
        <ele>120</ele>
        <time>2021-04-24T10:56:35Z</time>
      </trkpt>
      <trkpt lat="43.67086" lon="3.81066">
        <ele>120</ele>
        <time>2021-04-24T10:56:36Z</time>
      </trkpt>
      <trkpt lat="43.67088" lon="3.81067">
        <ele>120</ele>
        <time>2021-04-24T10:56:37Z</time>
      </trkpt>
      <trkpt lat="43.67091" lon="3.81067">
        <ele>120</ele>
        <time>2021-04-24T10:56:38Z</time>
      </trkpt>
      <trkpt lat="43.67094" lon="3.81067">
        <ele>120</ele>
        <time>2021-04-24T10:56:39Z</time>
      </trkpt>
      <trkpt lat="43.67097" lon="3.81068">
        <ele>120</ele>
        <time>2021-04-24T10:56:40Z</time>
      </trkpt>
      <trkpt lat="43.671" lon="3.81068">
        <ele>120</ele>
        <time>2021-04-24T10:56:41Z</time>
      </trkpt>
      <trkpt lat="43.67103" lon="3.81069">
        <ele>120</ele>
        <time>2021-04-24T10:56:42Z</time>
      </trkpt>
      <trkpt lat="43.67106" lon="3.8107">
        <ele>120</ele>
        <time>2021-04-24T10:56:43Z</time>
      </trkpt>
      <trkpt lat="43.67109" lon="3.81071">
        <ele>119</ele>
        <time>2021-04-24T10:56:44Z</time>
      </trkpt>
      <trkpt lat="43.67112" lon="3.81072">
        <ele>119</ele>
        <time>2021-04-24T10:56:45Z</time>
      </trkpt>
      <trkpt lat="43.67114" lon="3.81073">
        <ele>119</ele>
        <time>2021-04-24T10:56:46Z</time>
      </trkpt>
      <trkpt lat="43.67117" lon="3.81074">
        <ele>119</ele>
        <time>2021-04-24T10:56:47Z</time>
      </trkpt>
      <trkpt lat="43.6712" lon="3.81075">
        <ele>119</ele>
        <time>2021-04-24T10:56:48Z</time>
      </trkpt>
      <trkpt lat="43.67123" lon="3.81077">
        <ele>119</ele>
        <time>2021-04-24T10:56:49Z</time>
      </trkpt>
      <trkpt lat="43.67125" lon="3.81079">
        <ele>119</ele>
        <time>2021-04-24T10:56:50Z</time>
      </trkpt>
      <trkpt lat="43.67128" lon="3.81081">
        <ele>119</ele>
        <time>2021-04-24T10:56:51Z</time>
      </trkpt>
      <trkpt lat="43.67131" lon="3.81082">
        <ele>119</ele>
        <time>2021-04-24T10:56:52Z</time>
      </trkpt>
      <trkpt lat="43.67133" lon="3.81083">
        <ele>119</ele>
        <time>2021-04-24T10:56:53Z</time>
      </trkpt>
      <trkpt lat="43.67138" lon="3.81084">
        <ele>119</ele>
        <time>2021-04-24T10:56:54Z</time>
      </trkpt>
      <trkpt lat="43.67141" lon="3.81083">
        <ele>119</ele>
        <time>2021-04-24T10:56:55Z</time>
      </trkpt>
      <trkpt lat="43.67144" lon="3.81082">
        <ele>119</ele>
        <time>2021-04-24T10:56:57Z</time>
      </trkpt>
      <trkpt lat="43.67146" lon="3.81081">
        <ele>119</ele>
        <time>2021-04-24T10:56:58Z</time>
      </trkpt>
      <trkpt lat="43.67149" lon="3.8108">
        <ele>119</ele>
        <time>2021-04-24T10:56:59Z</time>
      </trkpt>
      <trkpt lat="43.67152" lon="3.81079">
        <ele>119</ele>
        <time>2021-04-24T10:57:00Z</time>
      </trkpt>
      <trkpt lat="43.67153" lon="3.81077">
        <ele>119</ele>
        <time>2021-04-24T10:57:01Z</time>
      </trkpt>
      <trkpt lat="43.67155" lon="3.81076">
        <ele>119</ele>
        <time>2021-04-24T10:57:02Z</time>
      </trkpt>
      <trkpt lat="43.67157" lon="3.81074">
        <ele>119</ele>
        <time>2021-04-24T10:57:03Z</time>
      </trkpt>
      <trkpt lat="43.67159" lon="3.81072">
        <ele>119</ele>
        <time>2021-04-24T10:57:04Z</time>
      </trkpt>
      <trkpt lat="43.67161" lon="3.8107">
        <ele>119</ele>
        <time>2021-04-24T10:57:05Z</time>
      </trkpt>
      <trkpt lat="43.67163" lon="3.81067">
        <ele>119</ele>
        <time>2021-04-24T10:57:06Z</time>
      </trkpt>
      <trkpt lat="43.67165" lon="3.81065">
        <ele>119</ele>
        <time>2021-04-24T10:57:07Z</time>
      </trkpt>
      <trkpt lat="43.67167" lon="3.81063">
        <ele>119</ele>
        <time>2021-04-24T10:57:08Z</time>
      </trkpt>
      <trkpt lat="43.67169" lon="3.81061">
        <ele>119</ele>
        <time>2021-04-24T10:57:09Z</time>
      </trkpt>
      <trkpt lat="43.67171" lon="3.81058">
        <ele>119</ele>
        <time>2021-04-24T10:57:10Z</time>
      </trkpt>
      <trkpt lat="43.67173" lon="3.81056">
        <ele>119</ele>
        <time>2021-04-24T10:57:11Z</time>
      </trkpt>
      <trkpt lat="43.67175" lon="3.81054">
        <ele>119</ele>
        <time>2021-04-24T10:57:12Z</time>
      </trkpt>
      <trkpt lat="43.67178" lon="3.81051">
        <ele>119</ele>
        <time>2021-04-24T10:57:13Z</time>
      </trkpt>
      <trkpt lat="43.67181" lon="3.81049">
        <ele>119</ele>
        <time>2021-04-24T10:57:14Z</time>
      </trkpt>
      <trkpt lat="43.67183" lon="3.81047">
        <ele>119</ele>
        <time>2021-04-24T10:57:15Z</time>
      </trkpt>
      <trkpt lat="43.67186" lon="3.81044">
        <ele>119</ele>
        <time>2021-04-24T10:57:16Z</time>
      </trkpt>
      <trkpt lat="43.67189" lon="3.81042">
        <ele>119</ele>
        <time>2021-04-24T10:57:17Z</time>
      </trkpt>
      <trkpt lat="43.67193" lon="3.8104">
        <ele>119</ele>
        <time>2021-04-24T10:57:18Z</time>
      </trkpt>
      <trkpt lat="43.67196" lon="3.81038">
        <ele>119</ele>
        <time>2021-04-24T10:57:19Z</time>
      </trkpt>
      <trkpt lat="43.67199" lon="3.81038">
        <ele>119</ele>
        <time>2021-04-24T10:57:20Z</time>
      </trkpt>
      <trkpt lat="43.67203" lon="3.81038">
        <ele>119</ele>
        <time>2021-04-24T10:57:21Z</time>
      </trkpt>
      <trkpt lat="43.67206" lon="3.81038">
        <ele>119</ele>
        <time>2021-04-24T10:57:22Z</time>
      </trkpt>
      <trkpt lat="43.67209" lon="3.81038">
        <ele>119</ele>
        <time>2021-04-24T10:57:23Z</time>
      </trkpt>
      <trkpt lat="43.67212" lon="3.81038">
        <ele>119</ele>
        <time>2021-04-24T10:57:24Z</time>
      </trkpt>
      <trkpt lat="43.67216" lon="3.81039">
        <ele>119</ele>
        <time>2021-04-24T10:57:25Z</time>
      </trkpt>
      <trkpt lat="43.67219" lon="3.81039">
        <ele>119</ele>
        <time>2021-04-24T10:57:26Z</time>
      </trkpt>
      <trkpt lat="43.67223" lon="3.8104">
        <ele>119</ele>
        <time>2021-04-24T10:57:27Z</time>
      </trkpt>
      <trkpt lat="43.67227" lon="3.81041">
        <ele>119</ele>
        <time>2021-04-24T10:57:28Z</time>
      </trkpt>
      <trkpt lat="43.67231" lon="3.81043">
        <ele>119</ele>
        <time>2021-04-24T10:57:29Z</time>
      </trkpt>
      <trkpt lat="43.67234" lon="3.81045">
        <ele>119</ele>
        <time>2021-04-24T10:57:30Z</time>
      </trkpt>
      <trkpt lat="43.67236" lon="3.81049">
        <ele>119</ele>
        <time>2021-04-24T10:57:31Z</time>
      </trkpt>
      <trkpt lat="43.67237" lon="3.81054">
        <ele>119</ele>
        <time>2021-04-24T10:57:32Z</time>
      </trkpt>
      <trkpt lat="43.67238" lon="3.8106">
        <ele>119</ele>
        <time>2021-04-24T10:57:33Z</time>
      </trkpt>
      <trkpt lat="43.67238" lon="3.81067">
        <ele>118</ele>
        <time>2021-04-24T10:57:34Z</time>
      </trkpt>
      <trkpt lat="43.67238" lon="3.81073">
        <ele>118</ele>
        <time>2021-04-24T10:57:35Z</time>
      </trkpt>
      <trkpt lat="43.67238" lon="3.81078">
        <ele>118</ele>
        <time>2021-04-24T10:57:36Z</time>
      </trkpt>
      <trkpt lat="43.67238" lon="3.81081">
        <ele>118</ele>
        <time>2021-04-24T10:57:37Z</time>
      </trkpt>
      <trkpt lat="43.67239" lon="3.81084">
        <ele>118</ele>
        <time>2021-04-24T10:57:38Z</time>
      </trkpt>
      <trkpt lat="43.6724" lon="3.81086">
        <ele>118</ele>
        <time>2021-04-24T10:57:39Z</time>
      </trkpt>
      <trkpt lat="43.67242" lon="3.81089">
        <ele>118</ele>
        <time>2021-04-24T10:57:40Z</time>
      </trkpt>
      <trkpt lat="43.67245" lon="3.81092">
        <ele>118</ele>
        <time>2021-04-24T10:57:41Z</time>
      </trkpt>
      <trkpt lat="43.67248" lon="3.81096">
        <ele>118</ele>
        <time>2021-04-24T10:57:42Z</time>
      </trkpt>
      <trkpt lat="43.67251" lon="3.81101">
        <ele>118</ele>
        <time>2021-04-24T10:57:43Z</time>
      </trkpt>
      <trkpt lat="43.67255" lon="3.81104">
        <ele>118</ele>
        <time>2021-04-24T10:57:44Z</time>
      </trkpt>
      <trkpt lat="43.67259" lon="3.81104">
        <ele>118</ele>
        <time>2021-04-24T10:57:45Z</time>
      </trkpt>
      <trkpt lat="43.67262" lon="3.81102">
        <ele>118</ele>
        <time>2021-04-24T10:57:46Z</time>
      </trkpt>
      <trkpt lat="43.67266" lon="3.81101">
        <ele>118</ele>
        <time>2021-04-24T10:57:47Z</time>
      </trkpt>
      <trkpt lat="43.6727" lon="3.811">
        <ele>118</ele>
        <time>2021-04-24T10:57:48Z</time>
      </trkpt>
      <trkpt lat="43.67274" lon="3.81098">
        <ele>118</ele>
        <time>2021-04-24T10:57:49Z</time>
      </trkpt>
      <trkpt lat="43.67279" lon="3.81092">
        <ele>118</ele>
        <time>2021-04-24T10:57:51Z</time>
      </trkpt>
      <trkpt lat="43.6728" lon="3.81089">
        <ele>118</ele>
        <time>2021-04-24T10:57:52Z</time>
      </trkpt>
      <trkpt lat="43.67281" lon="3.81086">
        <ele>118</ele>
        <time>2021-04-24T10:57:53Z</time>
      </trkpt>
      <trkpt lat="43.67283" lon="3.81084">
        <ele>116</ele>
        <time>2021-04-24T10:57:54Z</time>
      </trkpt>
      <trkpt lat="43.67285" lon="3.81081">
        <ele>116</ele>
        <time>2021-04-24T10:57:55Z</time>
      </trkpt>
      <trkpt lat="43.67286" lon="3.81078">
        <ele>116</ele>
        <time>2021-04-24T10:57:56Z</time>
      </trkpt>
      <trkpt lat="43.67287" lon="3.81075">
        <ele>116</ele>
        <time>2021-04-24T10:57:57Z</time>
      </trkpt>
      <trkpt lat="43.67288" lon="3.81072">
        <ele>116</ele>
        <time>2021-04-24T10:57:58Z</time>
      </trkpt>
      <trkpt lat="43.67289" lon="3.81069">
        <ele>116</ele>
        <time>2021-04-24T10:57:59Z</time>
      </trkpt>
      <trkpt lat="43.6729" lon="3.81066">
        <ele>116</ele>
        <time>2021-04-24T10:58:00Z</time>
      </trkpt>
      <trkpt lat="43.6729" lon="3.81063">
        <ele>116</ele>
        <time>2021-04-24T10:58:01Z</time>
      </trkpt>
      <trkpt lat="43.67291" lon="3.8106">
        <ele>116</ele>
        <time>2021-04-24T10:58:02Z</time>
      </trkpt>
      <trkpt lat="43.67293" lon="3.81058">
        <ele>116</ele>
        <time>2021-04-24T10:58:03Z</time>
      </trkpt>
      <trkpt lat="43.67295" lon="3.81057">
        <ele>116</ele>
        <time>2021-04-24T10:58:04Z</time>
      </trkpt>
      <trkpt lat="43.67298" lon="3.81058">
        <ele>116</ele>
        <time>2021-04-24T10:58:05Z</time>
      </trkpt>
      <trkpt lat="43.67301" lon="3.81058">
        <ele>116</ele>
        <time>2021-04-24T10:58:06Z</time>
      </trkpt>
      <trkpt lat="43.67304" lon="3.81059">
        <ele>116</ele>
        <time>2021-04-24T10:58:07Z</time>
      </trkpt>
      <trkpt lat="43.67308" lon="3.81059">
        <ele>116</ele>
        <time>2021-04-24T10:58:08Z</time>
      </trkpt>
      <trkpt lat="43.67311" lon="3.8106">
        <ele>116</ele>
        <time>2021-04-24T10:58:09Z</time>
      </trkpt>
      <trkpt lat="43.67314" lon="3.81059">
        <ele>116</ele>
        <time>2021-04-24T10:58:10Z</time>
      </trkpt>
      <trkpt lat="43.67317" lon="3.81059">
        <ele>116</ele>
        <time>2021-04-24T10:58:11Z</time>
      </trkpt>
      <trkpt lat="43.6732" lon="3.81058">
        <ele>116</ele>
        <time>2021-04-24T10:58:12Z</time>
      </trkpt>
      <trkpt lat="43.67323" lon="3.81056">
        <ele>116</ele>
        <time>2021-04-24T10:58:13Z</time>
      </trkpt>
      <trkpt lat="43.67326" lon="3.81054">
        <ele>115</ele>
        <time>2021-04-24T10:58:14Z</time>
      </trkpt>
      <trkpt lat="43.67329" lon="3.81053">
        <ele>115</ele>
        <time>2021-04-24T10:58:15Z</time>
      </trkpt>
      <trkpt lat="43.67332" lon="3.81053">
        <ele>115</ele>
        <time>2021-04-24T10:58:16Z</time>
      </trkpt>
      <trkpt lat="43.67335" lon="3.81054">
        <ele>115</ele>
        <time>2021-04-24T10:58:17Z</time>
      </trkpt>
      <trkpt lat="43.67338" lon="3.81057">
        <ele>115</ele>
        <time>2021-04-24T10:58:18Z</time>
      </trkpt>
      <trkpt lat="43.67339" lon="3.81062">
        <ele>115</ele>
        <time>2021-04-24T10:58:19Z</time>
      </trkpt>
      <trkpt lat="43.6734" lon="3.81066">
        <ele>115</ele>
        <time>2021-04-24T10:58:20Z</time>
      </trkpt>
      <trkpt lat="43.67342" lon="3.8107">
        <ele>115</ele>
        <time>2021-04-24T10:58:21Z</time>
      </trkpt>
      <trkpt lat="43.67344" lon="3.81074">
        <ele>115</ele>
        <time>2021-04-24T10:58:22Z</time>
      </trkpt>
      <trkpt lat="43.67347" lon="3.81079">
        <ele>115</ele>
        <time>2021-04-24T10:58:23Z</time>
      </trkpt>
      <trkpt lat="43.67351" lon="3.81083">
        <ele>114</ele>
        <time>2021-04-24T10:58:24Z</time>
      </trkpt>
      <trkpt lat="43.67355" lon="3.81086">
        <ele>114</ele>
        <time>2021-04-24T10:58:25Z</time>
      </trkpt>
      <trkpt lat="43.67359" lon="3.81091">
        <ele>114</ele>
        <time>2021-04-24T10:58:26Z</time>
      </trkpt>
      <trkpt lat="43.67362" lon="3.81095">
        <ele>114</ele>
        <time>2021-04-24T10:58:27Z</time>
      </trkpt>
      <trkpt lat="43.67365" lon="3.811">
        <ele>114</ele>
        <time>2021-04-24T10:58:28Z</time>
      </trkpt>
      <trkpt lat="43.67366" lon="3.81106">
        <ele>114</ele>
        <time>2021-04-24T10:58:29Z</time>
      </trkpt>
      <trkpt lat="43.67367" lon="3.81111">
        <ele>114</ele>
        <time>2021-04-24T10:58:30Z</time>
      </trkpt>
      <trkpt lat="43.67369" lon="3.81115">
        <ele>114</ele>
        <time>2021-04-24T10:58:31Z</time>
      </trkpt>
      <trkpt lat="43.6737" lon="3.81119">
        <ele>114</ele>
        <time>2021-04-24T10:58:32Z</time>
      </trkpt>
      <trkpt lat="43.67371" lon="3.81122">
        <ele>114</ele>
        <time>2021-04-24T10:58:33Z</time>
      </trkpt>
      <trkpt lat="43.67372" lon="3.81126">
        <ele>113</ele>
        <time>2021-04-24T10:58:34Z</time>
      </trkpt>
      <trkpt lat="43.67374" lon="3.81131">
        <ele>113</ele>
        <time>2021-04-24T10:58:35Z</time>
      </trkpt>
      <trkpt lat="43.67377" lon="3.81136">
        <ele>113</ele>
        <time>2021-04-24T10:58:36Z</time>
      </trkpt>
      <trkpt lat="43.67382" lon="3.81148">
        <ele>113</ele>
        <time>2021-04-24T10:58:39Z</time>
      </trkpt>
      <trkpt lat="43.67385" lon="3.81162">
        <ele>111</ele>
        <time>2021-04-24T10:58:44Z</time>
      </trkpt>
      <trkpt lat="43.6739" lon="3.81176">
        <ele>111</ele>
        <time>2021-04-24T10:58:48Z</time>
      </trkpt>
      <trkpt lat="43.67399" lon="3.81172">
        <ele>111</ele>
        <time>2021-04-24T10:58:52Z</time>
      </trkpt>
      <trkpt lat="43.67401" lon="3.81171">
        <ele>111</ele>
        <time>2021-04-24T10:58:53Z</time>
      </trkpt>
      <trkpt lat="43.67403" lon="3.81171">
        <ele>109</ele>
        <time>2021-04-24T10:58:54Z</time>
      </trkpt>
      <trkpt lat="43.67405" lon="3.8117">
        <ele>109</ele>
        <time>2021-04-24T10:58:55Z</time>
      </trkpt>
      <trkpt lat="43.67407" lon="3.8117">
        <ele>109</ele>
        <time>2021-04-24T10:58:56Z</time>
      </trkpt>
      <trkpt lat="43.6741" lon="3.8117">
        <ele>109</ele>
        <time>2021-04-24T10:58:57Z</time>
      </trkpt>
      <trkpt lat="43.67412" lon="3.81169">
        <ele>109</ele>
        <time>2021-04-24T10:58:58Z</time>
      </trkpt>
      <trkpt lat="43.67415" lon="3.81169">
        <ele>109</ele>
        <time>2021-04-24T10:58:59Z</time>
      </trkpt>
      <trkpt lat="43.67418" lon="3.81169">
        <ele>109</ele>
        <time>2021-04-24T10:59:00Z</time>
      </trkpt>
      <trkpt lat="43.67421" lon="3.81169">
        <ele>109</ele>
        <time>2021-04-24T10:59:01Z</time>
      </trkpt>
      <trkpt lat="43.67424" lon="3.81169">
        <ele>109</ele>
        <time>2021-04-24T10:59:02Z</time>
      </trkpt>
      <trkpt lat="43.67427" lon="3.81169">
        <ele>109</ele>
        <time>2021-04-24T10:59:03Z</time>
      </trkpt>
      <trkpt lat="43.67429" lon="3.81169">
        <ele>106</ele>
        <time>2021-04-24T10:59:04Z</time>
      </trkpt>
      <trkpt lat="43.67431" lon="3.81169">
        <ele>106</ele>
        <time>2021-04-24T10:59:05Z</time>
      </trkpt>
      <trkpt lat="43.67434" lon="3.81169">
        <ele>106</ele>
        <time>2021-04-24T10:59:06Z</time>
      </trkpt>
      <trkpt lat="43.67437" lon="3.81169">
        <ele>106</ele>
        <time>2021-04-24T10:59:07Z</time>
      </trkpt>
      <trkpt lat="43.67439" lon="3.8117">
        <ele>106</ele>
        <time>2021-04-24T10:59:08Z</time>
      </trkpt>
      <trkpt lat="43.67442" lon="3.81171">
        <ele>106</ele>
        <time>2021-04-24T10:59:09Z</time>
      </trkpt>
      <trkpt lat="43.67445" lon="3.81172">
        <ele>106</ele>
        <time>2021-04-24T10:59:10Z</time>
      </trkpt>
      <trkpt lat="43.67447" lon="3.81172">
        <ele>106</ele>
        <time>2021-04-24T10:59:11Z</time>
      </trkpt>
      <trkpt lat="43.67449" lon="3.81172">
        <ele>106</ele>
        <time>2021-04-24T10:59:12Z</time>
      </trkpt>
      <trkpt lat="43.67451" lon="3.81169">
        <ele>106</ele>
        <time>2021-04-24T10:59:13Z</time>
      </trkpt>
      <trkpt lat="43.67455" lon="3.81167">
        <ele>104</ele>
        <time>2021-04-24T10:59:14Z</time>
      </trkpt>
      <trkpt lat="43.67458" lon="3.81164">
        <ele>104</ele>
        <time>2021-04-24T10:59:15Z</time>
      </trkpt>
      <trkpt lat="43.67462" lon="3.81161">
        <ele>104</ele>
        <time>2021-04-24T10:59:16Z</time>
      </trkpt>
      <trkpt lat="43.67465" lon="3.81158">
        <ele>104</ele>
        <time>2021-04-24T10:59:17Z</time>
      </trkpt>
      <trkpt lat="43.67468" lon="3.81153">
        <ele>104</ele>
        <time>2021-04-24T10:59:18Z</time>
      </trkpt>
      <trkpt lat="43.67471" lon="3.81148">
        <ele>104</ele>
        <time>2021-04-24T10:59:19Z</time>
      </trkpt>
      <trkpt lat="43.67474" lon="3.81142">
        <ele>104</ele>
        <time>2021-04-24T10:59:20Z</time>
      </trkpt>
      <trkpt lat="43.67476" lon="3.81136">
        <ele>104</ele>
        <time>2021-04-24T10:59:21Z</time>
      </trkpt>
      <trkpt lat="43.67479" lon="3.81129">
        <ele>104</ele>
        <time>2021-04-24T10:59:22Z</time>
      </trkpt>
      <trkpt lat="43.67482" lon="3.81123">
        <ele>104</ele>
        <time>2021-04-24T10:59:23Z</time>
      </trkpt>
      <trkpt lat="43.67485" lon="3.81117">
        <ele>103</ele>
        <time>2021-04-24T10:59:24Z</time>
      </trkpt>
      <trkpt lat="43.67488" lon="3.8111">
        <ele>103</ele>
        <time>2021-04-24T10:59:25Z</time>
      </trkpt>
      <trkpt lat="43.67491" lon="3.81104">
        <ele>103</ele>
        <time>2021-04-24T10:59:26Z</time>
      </trkpt>
      <trkpt lat="43.67495" lon="3.81099">
        <ele>103</ele>
        <time>2021-04-24T10:59:27Z</time>
      </trkpt>
      <trkpt lat="43.67499" lon="3.81095">
        <ele>103</ele>
        <time>2021-04-24T10:59:28Z</time>
      </trkpt>
      <trkpt lat="43.67503" lon="3.81091">
        <ele>103</ele>
        <time>2021-04-24T10:59:29Z</time>
      </trkpt>
      <trkpt lat="43.67507" lon="3.81088">
        <ele>103</ele>
        <time>2021-04-24T10:59:30Z</time>
      </trkpt>
      <trkpt lat="43.67511" lon="3.81084">
        <ele>103</ele>
        <time>2021-04-24T10:59:31Z</time>
      </trkpt>
      <trkpt lat="43.67515" lon="3.81081">
        <ele>103</ele>
        <time>2021-04-24T10:59:32Z</time>
      </trkpt>
      <trkpt lat="43.67518" lon="3.81077">
        <ele>103</ele>
        <time>2021-04-24T10:59:33Z</time>
      </trkpt>
      <trkpt lat="43.67522" lon="3.81074">
        <ele>103</ele>
        <time>2021-04-24T10:59:34Z</time>
      </trkpt>
      <trkpt lat="43.67526" lon="3.8107">
        <ele>103</ele>
        <time>2021-04-24T10:59:35Z</time>
      </trkpt>
      <trkpt lat="43.6753" lon="3.81066">
        <ele>103</ele>
        <time>2021-04-24T10:59:36Z</time>
      </trkpt>
      <trkpt lat="43.67534" lon="3.81063">
        <ele>103</ele>
        <time>2021-04-24T10:59:37Z</time>
      </trkpt>
      <trkpt lat="43.67538" lon="3.81059">
        <ele>103</ele>
        <time>2021-04-24T10:59:38Z</time>
      </trkpt>
      <trkpt lat="43.67542" lon="3.81056">
        <ele>103</ele>
        <time>2021-04-24T10:59:39Z</time>
      </trkpt>
      <trkpt lat="43.67545" lon="3.81052">
        <ele>103</ele>
        <time>2021-04-24T10:59:40Z</time>
      </trkpt>
      <trkpt lat="43.67547" lon="3.81049">
        <ele>103</ele>
        <time>2021-04-24T10:59:41Z</time>
      </trkpt>
      <trkpt lat="43.6755" lon="3.81045">
        <ele>103</ele>
        <time>2021-04-24T10:59:42Z</time>
      </trkpt>
      <trkpt lat="43.67551" lon="3.81041">
        <ele>103</ele>
        <time>2021-04-24T10:59:43Z</time>
      </trkpt>
      <trkpt lat="43.67553" lon="3.81037">
        <ele>101</ele>
        <time>2021-04-24T10:59:44Z</time>
      </trkpt>
      <trkpt lat="43.67554" lon="3.81033">
        <ele>101</ele>
        <time>2021-04-24T10:59:45Z</time>
      </trkpt>
      <trkpt lat="43.67555" lon="3.81029">
        <ele>101</ele>
        <time>2021-04-24T10:59:46Z</time>
      </trkpt>
      <trkpt lat="43.67556" lon="3.81025">
        <ele>101</ele>
        <time>2021-04-24T10:59:47Z</time>
      </trkpt>
      <trkpt lat="43.67557" lon="3.81021">
        <ele>101</ele>
        <time>2021-04-24T10:59:48Z</time>
      </trkpt>
      <trkpt lat="43.67557" lon="3.81017">
        <ele>101</ele>
        <time>2021-04-24T10:59:49Z</time>
      </trkpt>
      <trkpt lat="43.67558" lon="3.81013">
        <ele>101</ele>
        <time>2021-04-24T10:59:50Z</time>
      </trkpt>
      <trkpt lat="43.67559" lon="3.81008">
        <ele>101</ele>
        <time>2021-04-24T10:59:51Z</time>
      </trkpt>
      <trkpt lat="43.6756" lon="3.81004">
        <ele>101</ele>
        <time>2021-04-24T10:59:52Z</time>
      </trkpt>
      <trkpt lat="43.67561" lon="3.80998">
        <ele>101</ele>
        <time>2021-04-24T10:59:53Z</time>
      </trkpt>
      <trkpt lat="43.67562" lon="3.80992">
        <ele>98</ele>
        <time>2021-04-24T10:59:54Z</time>
      </trkpt>
      <trkpt lat="43.67564" lon="3.80985">
        <ele>98</ele>
        <time>2021-04-24T10:59:55Z</time>
      </trkpt>
      <trkpt lat="43.67566" lon="3.80979">
        <ele>98</ele>
        <time>2021-04-24T10:59:56Z</time>
      </trkpt>
      <trkpt lat="43.67568" lon="3.80972">
        <ele>98</ele>
        <time>2021-04-24T10:59:57Z</time>
      </trkpt>
      <trkpt lat="43.67571" lon="3.80965">
        <ele>98</ele>
        <time>2021-04-24T10:59:58Z</time>
      </trkpt>
      <trkpt lat="43.67573" lon="3.80957">
        <ele>98</ele>
        <time>2021-04-24T10:59:59Z</time>
      </trkpt>
      <trkpt lat="43.67578" lon="3.80942">
        <ele>98</ele>
        <time>2021-04-24T11:00:01Z</time>
      </trkpt>
      <trkpt lat="43.67582" lon="3.80925">
        <ele>98</ele>
        <time>2021-04-24T11:00:03Z</time>
      </trkpt>
      <trkpt lat="43.67584" lon="3.80917">
        <ele>97</ele>
        <time>2021-04-24T11:00:04Z</time>
      </trkpt>
      <trkpt lat="43.67588" lon="3.80901">
        <ele>97</ele>
        <time>2021-04-24T11:00:06Z</time>
      </trkpt>
      <trkpt lat="43.6759" lon="3.80893">
        <ele>97</ele>
        <time>2021-04-24T11:00:07Z</time>
      </trkpt>
      <trkpt lat="43.67592" lon="3.80884">
        <ele>97</ele>
        <time>2021-04-24T11:00:08Z</time>
      </trkpt>
      <trkpt lat="43.67594" lon="3.80876">
        <ele>97</ele>
        <time>2021-04-24T11:00:09Z</time>
      </trkpt>
      <trkpt lat="43.67596" lon="3.80868">
        <ele>97</ele>
        <time>2021-04-24T11:00:10Z</time>
      </trkpt>
      <trkpt lat="43.67598" lon="3.8086">
        <ele>97</ele>
        <time>2021-04-24T11:00:11Z</time>
      </trkpt>
      <trkpt lat="43.676" lon="3.80852">
        <ele>97</ele>
        <time>2021-04-24T11:00:12Z</time>
      </trkpt>
      <trkpt lat="43.67601" lon="3.80844">
        <ele>97</ele>
        <time>2021-04-24T11:00:13Z</time>
      </trkpt>
      <trkpt lat="43.67603" lon="3.80837">
        <ele>95</ele>
        <time>2021-04-24T11:00:14Z</time>
      </trkpt>
      <trkpt lat="43.67605" lon="3.8083">
        <ele>95</ele>
        <time>2021-04-24T11:00:15Z</time>
      </trkpt>
      <trkpt lat="43.67607" lon="3.80822">
        <ele>95</ele>
        <time>2021-04-24T11:00:16Z</time>
      </trkpt>
      <trkpt lat="43.67609" lon="3.80815">
        <ele>95</ele>
        <time>2021-04-24T11:00:17Z</time>
      </trkpt>
      <trkpt lat="43.6761" lon="3.80808">
        <ele>95</ele>
        <time>2021-04-24T11:00:18Z</time>
      </trkpt>
      <trkpt lat="43.67611" lon="3.80801">
        <ele>95</ele>
        <time>2021-04-24T11:00:19Z</time>
      </trkpt>
      <trkpt lat="43.67613" lon="3.80794">
        <ele>95</ele>
        <time>2021-04-24T11:00:20Z</time>
      </trkpt>
      <trkpt lat="43.67614" lon="3.80787">
        <ele>95</ele>
        <time>2021-04-24T11:00:21Z</time>
      </trkpt>
      <trkpt lat="43.67616" lon="3.80781">
        <ele>95</ele>
        <time>2021-04-24T11:00:22Z</time>
      </trkpt>
      <trkpt lat="43.67618" lon="3.80777">
        <ele>95</ele>
        <time>2021-04-24T11:00:23Z</time>
      </trkpt>
      <trkpt lat="43.67619" lon="3.80773">
        <ele>92</ele>
        <time>2021-04-24T11:00:24Z</time>
      </trkpt>
      <trkpt lat="43.67619" lon="3.8077">
        <ele>92</ele>
        <time>2021-04-24T11:00:25Z</time>
      </trkpt>
      <trkpt lat="43.67619" lon="3.80768">
        <ele>92</ele>
        <time>2021-04-24T11:00:26Z</time>
      </trkpt>
      <trkpt lat="43.67618" lon="3.80766">
        <ele>92</ele>
        <time>2021-04-24T11:00:27Z</time>
      </trkpt>
      <trkpt lat="43.67616" lon="3.80764">
        <ele>92</ele>
        <time>2021-04-24T11:00:28Z</time>
      </trkpt>
      <trkpt lat="43.67614" lon="3.80762">
        <ele>92</ele>
        <time>2021-04-24T11:00:29Z</time>
      </trkpt>
      <trkpt lat="43.67611" lon="3.8076">
        <ele>92</ele>
        <time>2021-04-24T11:00:30Z</time>
      </trkpt>
      <trkpt lat="43.67609" lon="3.80759">
        <ele>92</ele>
        <time>2021-04-24T11:00:31Z</time>
      </trkpt>
      <trkpt lat="43.67607" lon="3.80757">
        <ele>92</ele>
        <time>2021-04-24T11:00:32Z</time>
      </trkpt>
      <trkpt lat="43.67605" lon="3.80756">
        <ele>92</ele>
        <time>2021-04-24T11:00:33Z</time>
      </trkpt>
      <trkpt lat="43.67605" lon="3.80752">
        <ele>92</ele>
        <time>2021-04-24T11:00:35Z</time>
      </trkpt>
      <trkpt lat="43.67607" lon="3.8075">
        <ele>92</ele>
        <time>2021-04-24T11:00:36Z</time>
      </trkpt>
      <trkpt lat="43.6761" lon="3.80747">
        <ele>92</ele>
        <time>2021-04-24T11:00:37Z</time>
      </trkpt>
      <trkpt lat="43.67612" lon="3.80744">
        <ele>92</ele>
        <time>2021-04-24T11:00:38Z</time>
      </trkpt>
      <trkpt lat="43.67614" lon="3.8074">
        <ele>92</ele>
        <time>2021-04-24T11:00:39Z</time>
      </trkpt>
      <trkpt lat="43.67617" lon="3.80736">
        <ele>92</ele>
        <time>2021-04-24T11:00:40Z</time>
      </trkpt>
      <trkpt lat="43.6762" lon="3.80731">
        <ele>92</ele>
        <time>2021-04-24T11:00:41Z</time>
      </trkpt>
      <trkpt lat="43.67623" lon="3.80727">
        <ele>92</ele>
        <time>2021-04-24T11:00:42Z</time>
      </trkpt>
      <trkpt lat="43.67626" lon="3.80723">
        <ele>92</ele>
        <time>2021-04-24T11:00:43Z</time>
      </trkpt>
      <trkpt lat="43.67629" lon="3.80719">
        <ele>89</ele>
        <time>2021-04-24T11:00:44Z</time>
      </trkpt>
      <trkpt lat="43.67632" lon="3.80715">
        <ele>89</ele>
        <time>2021-04-24T11:00:45Z</time>
      </trkpt>
      <trkpt lat="43.67635" lon="3.80711">
        <ele>89</ele>
        <time>2021-04-24T11:00:46Z</time>
      </trkpt>
      <trkpt lat="43.67637" lon="3.80706">
        <ele>89</ele>
        <time>2021-04-24T11:00:47Z</time>
      </trkpt>
      <trkpt lat="43.6764" lon="3.80702">
        <ele>89</ele>
        <time>2021-04-24T11:00:48Z</time>
      </trkpt>
      <trkpt lat="43.67643" lon="3.80698">
        <ele>89</ele>
        <time>2021-04-24T11:00:49Z</time>
      </trkpt>
      <trkpt lat="43.67646" lon="3.80693">
        <ele>89</ele>
        <time>2021-04-24T11:00:50Z</time>
      </trkpt>
      <trkpt lat="43.67649" lon="3.80689">
        <ele>89</ele>
        <time>2021-04-24T11:00:51Z</time>
      </trkpt>
      <trkpt lat="43.67652" lon="3.80685">
        <ele>89</ele>
        <time>2021-04-24T11:00:52Z</time>
      </trkpt>
      <trkpt lat="43.67655" lon="3.80682">
        <ele>89</ele>
        <time>2021-04-24T11:00:53Z</time>
      </trkpt>
      <trkpt lat="43.67658" lon="3.80678">
        <ele>89</ele>
        <time>2021-04-24T11:00:54Z</time>
      </trkpt>
      <trkpt lat="43.6766" lon="3.80674">
        <ele>89</ele>
        <time>2021-04-24T11:00:55Z</time>
      </trkpt>
      <trkpt lat="43.67663" lon="3.8067">
        <ele>89</ele>
        <time>2021-04-24T11:00:56Z</time>
      </trkpt>
      <trkpt lat="43.67666" lon="3.80667">
        <ele>89</ele>
        <time>2021-04-24T11:00:57Z</time>
      </trkpt>
      <trkpt lat="43.67669" lon="3.80664">
        <ele>89</ele>
        <time>2021-04-24T11:00:58Z</time>
      </trkpt>
      <trkpt lat="43.67671" lon="3.8066">
        <ele>89</ele>
        <time>2021-04-24T11:00:59Z</time>
      </trkpt>
      <trkpt lat="43.67673" lon="3.80656">
        <ele>89</ele>
        <time>2021-04-24T11:01:00Z</time>
      </trkpt>
      <trkpt lat="43.67675" lon="3.80652">
        <ele>89</ele>
        <time>2021-04-24T11:01:01Z</time>
      </trkpt>
      <trkpt lat="43.67675" lon="3.80649">
        <ele>89</ele>
        <time>2021-04-24T11:01:02Z</time>
      </trkpt>
      <trkpt lat="43.67675" lon="3.80646">
        <ele>89</ele>
        <time>2021-04-24T11:01:03Z</time>
      </trkpt>
      <trkpt lat="43.67675" lon="3.80643">
        <ele>89</ele>
        <time>2021-04-24T11:01:04Z</time>
      </trkpt>
      <trkpt lat="43.67674" lon="3.8064">
        <ele>89</ele>
        <time>2021-04-24T11:01:05Z</time>
      </trkpt>
      <trkpt lat="43.67674" lon="3.80636">
        <ele>89</ele>
        <time>2021-04-24T11:01:06Z</time>
      </trkpt>
      <trkpt lat="43.67674" lon="3.80633">
        <ele>89</ele>
        <time>2021-04-24T11:01:07Z</time>
      </trkpt>
      <trkpt lat="43.67674" lon="3.80629">
        <ele>89</ele>
        <time>2021-04-24T11:01:08Z</time>
      </trkpt>
      <trkpt lat="43.67673" lon="3.80626">
        <ele>89</ele>
        <time>2021-04-24T11:01:09Z</time>
      </trkpt>
      <trkpt lat="43.67671" lon="3.80623">
        <ele>89</ele>
        <time>2021-04-24T11:01:11Z</time>
      </trkpt>
      <trkpt lat="43.67669" lon="3.80619">
        <ele>89</ele>
        <time>2021-04-24T11:01:12Z</time>
      </trkpt>
      <trkpt lat="43.67666" lon="3.80616">
        <ele>89</ele>
        <time>2021-04-24T11:01:15Z</time>
      </trkpt>
      <trkpt lat="43.67664" lon="3.80614">
        <ele>89</ele>
        <time>2021-04-24T11:01:17Z</time>
      </trkpt>
      <trkpt lat="43.67662" lon="3.80611">
        <ele>89</ele>
        <time>2021-04-24T11:01:19Z</time>
      </trkpt>
      <trkpt lat="43.6766" lon="3.80608">
        <ele>89</ele>
        <time>2021-04-24T11:01:21Z</time>
      </trkpt>
      <trkpt lat="43.67657" lon="3.80605">
        <ele>89</ele>
        <time>2021-04-24T11:01:23Z</time>
      </trkpt>
      <trkpt lat="43.67655" lon="3.80602">
        <ele>89</ele>
        <time>2021-04-24T11:01:25Z</time>
      </trkpt>
      <trkpt lat="43.67653" lon="3.80598">
        <ele>89</ele>
        <time>2021-04-24T11:01:27Z</time>
      </trkpt>
      <trkpt lat="43.67651" lon="3.80595">
        <ele>89</ele>
        <time>2021-04-24T11:01:29Z</time>
      </trkpt>
      <trkpt lat="43.6765" lon="3.80592">
        <ele>89</ele>
        <time>2021-04-24T11:01:30Z</time>
      </trkpt>
      <trkpt lat="43.67649" lon="3.8059">
        <ele>89</ele>
        <time>2021-04-24T11:01:31Z</time>
      </trkpt>
      <trkpt lat="43.67648" lon="3.80588">
        <ele>89</ele>
        <time>2021-04-24T11:01:32Z</time>
      </trkpt>
      <trkpt lat="43.67647" lon="3.80585">
        <ele>89</ele>
        <time>2021-04-24T11:01:33Z</time>
      </trkpt>
      <trkpt lat="43.67646" lon="3.80582">
        <ele>93</ele>
        <time>2021-04-24T11:01:34Z</time>
      </trkpt>
      <trkpt lat="43.67644" lon="3.80579">
        <ele>93</ele>
        <time>2021-04-24T11:01:35Z</time>
      </trkpt>
      <trkpt lat="43.67642" lon="3.80576">
        <ele>93</ele>
        <time>2021-04-24T11:01:36Z</time>
      </trkpt>
      <trkpt lat="43.67641" lon="3.80572">
        <ele>93</ele>
        <time>2021-04-24T11:01:37Z</time>
      </trkpt>
      <trkpt lat="43.67639" lon="3.80569">
        <ele>93</ele>
        <time>2021-04-24T11:01:38Z</time>
      </trkpt>
      <trkpt lat="43.67637" lon="3.80565">
        <ele>93</ele>
        <time>2021-04-24T11:01:39Z</time>
      </trkpt>
      <trkpt lat="43.67635" lon="3.80562">
        <ele>93</ele>
        <time>2021-04-24T11:01:40Z</time>
      </trkpt>
      <trkpt lat="43.67634" lon="3.80558">
        <ele>93</ele>
        <time>2021-04-24T11:01:41Z</time>
      </trkpt>
      <trkpt lat="43.67632" lon="3.80554">
        <ele>93</ele>
        <time>2021-04-24T11:01:42Z</time>
      </trkpt>
      <trkpt lat="43.6763" lon="3.80551">
        <ele>93</ele>
        <time>2021-04-24T11:01:43Z</time>
      </trkpt>
      <trkpt lat="43.67629" lon="3.80547">
        <ele>94</ele>
        <time>2021-04-24T11:01:44Z</time>
      </trkpt>
      <trkpt lat="43.67627" lon="3.80543">
        <ele>94</ele>
        <time>2021-04-24T11:01:45Z</time>
      </trkpt>
      <trkpt lat="43.67625" lon="3.80539">
        <ele>94</ele>
        <time>2021-04-24T11:01:46Z</time>
      </trkpt>
      <trkpt lat="43.67624" lon="3.80536">
        <ele>94</ele>
        <time>2021-04-24T11:01:47Z</time>
      </trkpt>
      <trkpt lat="43.67622" lon="3.80532">
        <ele>94</ele>
        <time>2021-04-24T11:01:48Z</time>
      </trkpt>
      <trkpt lat="43.6762" lon="3.80529">
        <ele>94</ele>
        <time>2021-04-24T11:01:49Z</time>
      </trkpt>
      <trkpt lat="43.67619" lon="3.80525">
        <ele>94</ele>
        <time>2021-04-24T11:01:50Z</time>
      </trkpt>
      <trkpt lat="43.67617" lon="3.80521">
        <ele>94</ele>
        <time>2021-04-24T11:01:51Z</time>
      </trkpt>
      <trkpt lat="43.67615" lon="3.80518">
        <ele>94</ele>
        <time>2021-04-24T11:01:52Z</time>
      </trkpt>
      <trkpt lat="43.67613" lon="3.80514">
        <ele>94</ele>
        <time>2021-04-24T11:01:53Z</time>
      </trkpt>
      <trkpt lat="43.67611" lon="3.8051">
        <ele>95</ele>
        <time>2021-04-24T11:01:54Z</time>
      </trkpt>
      <trkpt lat="43.67609" lon="3.80507">
        <ele>95</ele>
        <time>2021-04-24T11:01:55Z</time>
      </trkpt>
      <trkpt lat="43.67607" lon="3.80503">
        <ele>95</ele>
        <time>2021-04-24T11:01:56Z</time>
      </trkpt>
      <trkpt lat="43.67605" lon="3.80499">
        <ele>95</ele>
        <time>2021-04-24T11:01:57Z</time>
      </trkpt>
      <trkpt lat="43.67603" lon="3.80495">
        <ele>95</ele>
        <time>2021-04-24T11:01:58Z</time>
      </trkpt>
      <trkpt lat="43.67601" lon="3.80491">
        <ele>95</ele>
        <time>2021-04-24T11:01:59Z</time>
      </trkpt>
      <trkpt lat="43.67599" lon="3.80487">
        <ele>95</ele>
        <time>2021-04-24T11:02:00Z</time>
      </trkpt>
      <trkpt lat="43.67597" lon="3.80482">
        <ele>95</ele>
        <time>2021-04-24T11:02:01Z</time>
      </trkpt>
      <trkpt lat="43.67595" lon="3.80477">
        <ele>95</ele>
        <time>2021-04-24T11:02:02Z</time>
      </trkpt>
      <trkpt lat="43.67593" lon="3.80471">
        <ele>95</ele>
        <time>2021-04-24T11:02:03Z</time>
      </trkpt>
      <trkpt lat="43.67588" lon="3.80458">
        <ele>95</ele>
        <time>2021-04-24T11:02:04Z</time>
      </trkpt>
      <trkpt lat="43.67586" lon="3.80452">
        <ele>95</ele>
        <time>2021-04-24T11:02:05Z</time>
      </trkpt>
      <trkpt lat="43.67584" lon="3.80445">
        <ele>95</ele>
        <time>2021-04-24T11:02:06Z</time>
      </trkpt>
      <trkpt lat="43.67582" lon="3.80437">
        <ele>95</ele>
        <time>2021-04-24T11:02:08Z</time>
      </trkpt>
      <trkpt lat="43.67581" lon="3.80429">
        <ele>95</ele>
        <time>2021-04-24T11:02:09Z</time>
      </trkpt>
      <trkpt lat="43.67579" lon="3.80421">
        <ele>95</ele>
        <time>2021-04-24T11:02:10Z</time>
      </trkpt>
      <trkpt lat="43.67576" lon="3.80414">
        <ele>95</ele>
        <time>2021-04-24T11:02:11Z</time>
      </trkpt>
      <trkpt lat="43.67573" lon="3.80409">
        <ele>95</ele>
        <time>2021-04-24T11:02:12Z</time>
      </trkpt>
      <trkpt lat="43.6757" lon="3.80406">
        <ele>95</ele>
        <time>2021-04-24T11:02:13Z</time>
      </trkpt>
      <trkpt lat="43.67567" lon="3.80404">
        <ele>95</ele>
        <time>2021-04-24T11:02:14Z</time>
      </trkpt>
      <trkpt lat="43.67565" lon="3.80403">
        <ele>95</ele>
        <time>2021-04-24T11:02:15Z</time>
      </trkpt>
      <trkpt lat="43.67563" lon="3.80404">
        <ele>95</ele>
        <time>2021-04-24T11:02:16Z</time>
      </trkpt>
      <trkpt lat="43.67561" lon="3.80405">
        <ele>95</ele>
        <time>2021-04-24T11:02:17Z</time>
      </trkpt>
      <trkpt lat="43.67559" lon="3.80406">
        <ele>95</ele>
        <time>2021-04-24T11:02:18Z</time>
      </trkpt>
      <trkpt lat="43.67558" lon="3.80408">
        <ele>95</ele>
        <time>2021-04-24T11:02:19Z</time>
      </trkpt>
      <trkpt lat="43.67557" lon="3.8041">
        <ele>95</ele>
        <time>2021-04-24T11:02:20Z</time>
      </trkpt>
      <trkpt lat="43.67555" lon="3.80413">
        <ele>95</ele>
        <time>2021-04-24T11:02:22Z</time>
      </trkpt>
      <trkpt lat="43.67554" lon="3.80416">
        <ele>95</ele>
        <time>2021-04-24T11:02:23Z</time>
      </trkpt>
      <trkpt lat="43.67552" lon="3.80419">
        <ele>95</ele>
        <time>2021-04-24T11:02:25Z</time>
      </trkpt>
      <trkpt lat="43.67551" lon="3.80423">
        <ele>95</ele>
        <time>2021-04-24T11:02:27Z</time>
      </trkpt>
      <trkpt lat="43.67549" lon="3.80426">
        <ele>95</ele>
        <time>2021-04-24T11:02:29Z</time>
      </trkpt>
      <trkpt lat="43.67548" lon="3.8043">
        <ele>95</ele>
        <time>2021-04-24T11:02:31Z</time>
      </trkpt>
      <trkpt lat="43.67547" lon="3.80433">
        <ele>95</ele>
        <time>2021-04-24T11:02:33Z</time>
      </trkpt>
      <trkpt lat="43.67545" lon="3.80436">
        <ele>95</ele>
        <time>2021-04-24T11:02:35Z</time>
      </trkpt>
      <trkpt lat="43.67544" lon="3.80439">
        <ele>95</ele>
        <time>2021-04-24T11:02:37Z</time>
      </trkpt>
      <trkpt lat="43.67543" lon="3.80443">
        <ele>95</ele>
        <time>2021-04-24T11:02:39Z</time>
      </trkpt>
      <trkpt lat="43.67541" lon="3.80446">
        <ele>95</ele>
        <time>2021-04-24T11:02:41Z</time>
      </trkpt>
      <trkpt lat="43.6754" lon="3.80449">
        <ele>95</ele>
        <time>2021-04-24T11:02:43Z</time>
      </trkpt>
      <trkpt lat="43.6754" lon="3.80453">
        <ele>95</ele>
        <time>2021-04-24T11:02:45Z</time>
      </trkpt>
      <trkpt lat="43.67539" lon="3.80456">
        <ele>95</ele>
        <time>2021-04-24T11:02:47Z</time>
      </trkpt>
      <trkpt lat="43.67538" lon="3.80459">
        <ele>95</ele>
        <time>2021-04-24T11:02:49Z</time>
      </trkpt>
      <trkpt lat="43.67537" lon="3.80461">
        <ele>95</ele>
        <time>2021-04-24T11:02:51Z</time>
      </trkpt>
      <trkpt lat="43.67536" lon="3.80464">
        <ele>95</ele>
        <time>2021-04-24T11:02:53Z</time>
      </trkpt>
      <trkpt lat="43.67535" lon="3.80468">
        <ele>95</ele>
        <time>2021-04-24T11:02:55Z</time>
      </trkpt>
      <trkpt lat="43.67533" lon="3.80471">
        <ele>95</ele>
        <time>2021-04-24T11:02:57Z</time>
      </trkpt>
      <trkpt lat="43.67532" lon="3.80473">
        <ele>95</ele>
        <time>2021-04-24T11:03:00Z</time>
      </trkpt>
      <trkpt lat="43.6753" lon="3.80476">
        <ele>95</ele>
        <time>2021-04-24T11:03:02Z</time>
      </trkpt>
      <trkpt lat="43.67528" lon="3.80479">
        <ele>100</ele>
        <time>2021-04-24T11:03:04Z</time>
      </trkpt>
      <trkpt lat="43.67526" lon="3.80482">
        <ele>100</ele>
        <time>2021-04-24T11:03:06Z</time>
      </trkpt>
      <trkpt lat="43.67524" lon="3.80484">
        <ele>100</ele>
        <time>2021-04-24T11:03:07Z</time>
      </trkpt>
      <trkpt lat="43.67521" lon="3.80485">
        <ele>100</ele>
        <time>2021-04-24T11:03:09Z</time>
      </trkpt>
      <trkpt lat="43.67519" lon="3.80487">
        <ele>100</ele>
        <time>2021-04-24T11:03:11Z</time>
      </trkpt>
      <trkpt lat="43.67516" lon="3.80488">
        <ele>102</ele>
        <time>2021-04-24T11:03:14Z</time>
      </trkpt>
      <trkpt lat="43.67514" lon="3.80488">
        <ele>102</ele>
        <time>2021-04-24T11:03:16Z</time>
      </trkpt>
      <trkpt lat="43.67511" lon="3.80489">
        <ele>102</ele>
        <time>2021-04-24T11:03:18Z</time>
      </trkpt>
      <trkpt lat="43.67509" lon="3.80489">
        <ele>102</ele>
        <time>2021-04-24T11:03:20Z</time>
      </trkpt>
      <trkpt lat="43.67506" lon="3.8049">
        <ele>102</ele>
        <time>2021-04-24T11:03:22Z</time>
      </trkpt>
      <trkpt lat="43.67504" lon="3.8049">
        <ele>103</ele>
        <time>2021-04-24T11:03:24Z</time>
      </trkpt>
      <trkpt lat="43.67501" lon="3.8049">
        <ele>103</ele>
        <time>2021-04-24T11:03:26Z</time>
      </trkpt>
      <trkpt lat="43.67498" lon="3.8049">
        <ele>103</ele>
        <time>2021-04-24T11:03:28Z</time>
      </trkpt>
      <trkpt lat="43.67496" lon="3.8049">
        <ele>103</ele>
        <time>2021-04-24T11:03:30Z</time>
      </trkpt>
      <trkpt lat="43.67493" lon="3.80491">
        <ele>103</ele>
        <time>2021-04-24T11:03:32Z</time>
      </trkpt>
      <trkpt lat="43.67491" lon="3.80491">
        <ele>105</ele>
        <time>2021-04-24T11:03:34Z</time>
      </trkpt>
      <trkpt lat="43.67488" lon="3.80492">
        <ele>105</ele>
        <time>2021-04-24T11:03:36Z</time>
      </trkpt>
      <trkpt lat="43.67486" lon="3.80492">
        <ele>105</ele>
        <time>2021-04-24T11:03:37Z</time>
      </trkpt>
      <trkpt lat="43.67483" lon="3.80494">
        <ele>105</ele>
        <time>2021-04-24T11:03:39Z</time>
      </trkpt>
      <trkpt lat="43.67481" lon="3.80495">
        <ele>105</ele>
        <time>2021-04-24T11:03:42Z</time>
      </trkpt>
      <trkpt lat="43.67479" lon="3.80497">
        <ele>107</ele>
        <time>2021-04-24T11:03:44Z</time>
      </trkpt>
      <trkpt lat="43.67477" lon="3.80498">
        <ele>107</ele>
        <time>2021-04-24T11:03:46Z</time>
      </trkpt>
      <trkpt lat="43.67474" lon="3.80498">
        <ele>107</ele>
        <time>2021-04-24T11:03:48Z</time>
      </trkpt>
      <trkpt lat="43.67472" lon="3.805">
        <ele>107</ele>
        <time>2021-04-24T11:03:50Z</time>
      </trkpt>
      <trkpt lat="43.67469" lon="3.80501">
        <ele>107</ele>
        <time>2021-04-24T11:03:52Z</time>
      </trkpt>
      <trkpt lat="43.67466" lon="3.80503">
        <ele>109</ele>
        <time>2021-04-24T11:03:54Z</time>
      </trkpt>
      <trkpt lat="43.67464" lon="3.80504">
        <ele>109</ele>
        <time>2021-04-24T11:03:56Z</time>
      </trkpt>
      <trkpt lat="43.67461" lon="3.80505">
        <ele>109</ele>
        <time>2021-04-24T11:03:58Z</time>
      </trkpt>
      <trkpt lat="43.67459" lon="3.80507">
        <ele>109</ele>
        <time>2021-04-24T11:04:00Z</time>
      </trkpt>
      <trkpt lat="43.67456" lon="3.80508">
        <ele>109</ele>
        <time>2021-04-24T11:04:02Z</time>
      </trkpt>
      <trkpt lat="43.67453" lon="3.8051">
        <ele>110</ele>
        <time>2021-04-24T11:04:04Z</time>
      </trkpt>
      <trkpt lat="43.67451" lon="3.80512">
        <ele>110</ele>
        <time>2021-04-24T11:04:06Z</time>
      </trkpt>
      <trkpt lat="43.67448" lon="3.80513">
        <ele>110</ele>
        <time>2021-04-24T11:04:08Z</time>
      </trkpt>
      <trkpt lat="43.67446" lon="3.80515">
        <ele>110</ele>
        <time>2021-04-24T11:04:10Z</time>
      </trkpt>
      <trkpt lat="43.67443" lon="3.80516">
        <ele>110</ele>
        <time>2021-04-24T11:04:12Z</time>
      </trkpt>
      <trkpt lat="43.67441" lon="3.80518">
        <ele>112</ele>
        <time>2021-04-24T11:04:14Z</time>
      </trkpt>
      <trkpt lat="43.67438" lon="3.80519">
        <ele>112</ele>
        <time>2021-04-24T11:04:16Z</time>
      </trkpt>
      <trkpt lat="43.67436" lon="3.80521">
        <ele>112</ele>
        <time>2021-04-24T11:04:18Z</time>
      </trkpt>
      <trkpt lat="43.67434" lon="3.80523">
        <ele>112</ele>
        <time>2021-04-24T11:04:20Z</time>
      </trkpt>
      <trkpt lat="43.67431" lon="3.80525">
        <ele>112</ele>
        <time>2021-04-24T11:04:22Z</time>
      </trkpt>
      <trkpt lat="43.67429" lon="3.80526">
        <ele>114</ele>
        <time>2021-04-24T11:04:24Z</time>
      </trkpt>
      <trkpt lat="43.67426" lon="3.80528">
        <ele>114</ele>
        <time>2021-04-24T11:04:26Z</time>
      </trkpt>
      <trkpt lat="43.67423" lon="3.8053">
        <ele>114</ele>
        <time>2021-04-24T11:04:28Z</time>
      </trkpt>
      <trkpt lat="43.67421" lon="3.80531">
        <ele>114</ele>
        <time>2021-04-24T11:04:30Z</time>
      </trkpt>
      <trkpt lat="43.67418" lon="3.80533">
        <ele>114</ele>
        <time>2021-04-24T11:04:32Z</time>
      </trkpt>
      <trkpt lat="43.67414" lon="3.80536">
        <ele>115</ele>
        <time>2021-04-24T11:04:34Z</time>
      </trkpt>
      <trkpt lat="43.67413" lon="3.80537">
        <ele>115</ele>
        <time>2021-04-24T11:04:35Z</time>
      </trkpt>
      <trkpt lat="43.6741" lon="3.80538">
        <ele>115</ele>
        <time>2021-04-24T11:04:37Z</time>
      </trkpt>
      <trkpt lat="43.67407" lon="3.80541">
        <ele>115</ele>
        <time>2021-04-24T11:04:39Z</time>
      </trkpt>
      <trkpt lat="43.67405" lon="3.80542">
        <ele>115</ele>
        <time>2021-04-24T11:04:40Z</time>
      </trkpt>
      <trkpt lat="43.67401" lon="3.80546">
        <ele>115</ele>
        <time>2021-04-24T11:04:42Z</time>
      </trkpt>
      <trkpt lat="43.67398" lon="3.80549">
        <ele>115</ele>
        <time>2021-04-24T11:04:45Z</time>
      </trkpt>
      <trkpt lat="43.67395" lon="3.80551">
        <ele>115</ele>
        <time>2021-04-24T11:04:47Z</time>
      </trkpt>
      <trkpt lat="43.67392" lon="3.80553">
        <ele>115</ele>
        <time>2021-04-24T11:04:49Z</time>
      </trkpt>
      <trkpt lat="43.67391" lon="3.80554">
        <ele>115</ele>
        <time>2021-04-24T11:04:50Z</time>
      </trkpt>
      <trkpt lat="43.67389" lon="3.80556">
        <ele>115</ele>
        <time>2021-04-24T11:04:51Z</time>
      </trkpt>
      <trkpt lat="43.67387" lon="3.80557">
        <ele>115</ele>
        <time>2021-04-24T11:04:52Z</time>
      </trkpt>
      <trkpt lat="43.67386" lon="3.80559">
        <ele>115</ele>
        <time>2021-04-24T11:04:53Z</time>
      </trkpt>
      <trkpt lat="43.67384" lon="3.80561">
        <ele>117</ele>
        <time>2021-04-24T11:04:54Z</time>
      </trkpt>
      <trkpt lat="43.67381" lon="3.80562">
        <ele>117</ele>
        <time>2021-04-24T11:04:55Z</time>
      </trkpt>
      <trkpt lat="43.67379" lon="3.80563">
        <ele>117</ele>
        <time>2021-04-24T11:04:56Z</time>
      </trkpt>
      <trkpt lat="43.67376" lon="3.80563">
        <ele>117</ele>
        <time>2021-04-24T11:04:57Z</time>
      </trkpt>
      <trkpt lat="43.67373" lon="3.80563">
        <ele>117</ele>
        <time>2021-04-24T11:04:58Z</time>
      </trkpt>
      <trkpt lat="43.67371" lon="3.80562">
        <ele>117</ele>
        <time>2021-04-24T11:04:59Z</time>
      </trkpt>
      <trkpt lat="43.67369" lon="3.80561">
        <ele>117</ele>
        <time>2021-04-24T11:05:00Z</time>
      </trkpt>
      <trkpt lat="43.67366" lon="3.8056">
        <ele>117</ele>
        <time>2021-04-24T11:05:01Z</time>
      </trkpt>
      <trkpt lat="43.67364" lon="3.80558">
        <ele>117</ele>
        <time>2021-04-24T11:05:02Z</time>
      </trkpt>
      <trkpt lat="43.67362" lon="3.80556">
        <ele>117</ele>
        <time>2021-04-24T11:05:03Z</time>
      </trkpt>
      <trkpt lat="43.6736" lon="3.80555">
        <ele>118</ele>
        <time>2021-04-24T11:05:04Z</time>
      </trkpt>
      <trkpt lat="43.67358" lon="3.80554">
        <ele>118</ele>
        <time>2021-04-24T11:05:05Z</time>
      </trkpt>
      <trkpt lat="43.67356" lon="3.80553">
        <ele>118</ele>
        <time>2021-04-24T11:05:06Z</time>
      </trkpt>
      <trkpt lat="43.67353" lon="3.80551">
        <ele>118</ele>
        <time>2021-04-24T11:05:07Z</time>
      </trkpt>
      <trkpt lat="43.67351" lon="3.80549">
        <ele>118</ele>
        <time>2021-04-24T11:05:08Z</time>
      </trkpt>
      <trkpt lat="43.67348" lon="3.80547">
        <ele>118</ele>
        <time>2021-04-24T11:05:09Z</time>
      </trkpt>
      <trkpt lat="43.67346" lon="3.80545">
        <ele>118</ele>
        <time>2021-04-24T11:05:10Z</time>
      </trkpt>
      <trkpt lat="43.67343" lon="3.80544">
        <ele>118</ele>
        <time>2021-04-24T11:05:11Z</time>
      </trkpt>
      <trkpt lat="43.67341" lon="3.80543">
        <ele>118</ele>
        <time>2021-04-24T11:05:12Z</time>
      </trkpt>
      <trkpt lat="43.67338" lon="3.80541">
        <ele>118</ele>
        <time>2021-04-24T11:05:13Z</time>
      </trkpt>
      <trkpt lat="43.67334" lon="3.80539">
        <ele>118</ele>
        <time>2021-04-24T11:05:14Z</time>
      </trkpt>
      <trkpt lat="43.67331" lon="3.80537">
        <ele>118</ele>
        <time>2021-04-24T11:05:15Z</time>
      </trkpt>
      <trkpt lat="43.67328" lon="3.80535">
        <ele>118</ele>
        <time>2021-04-24T11:05:16Z</time>
      </trkpt>
      <trkpt lat="43.67324" lon="3.80533">
        <ele>118</ele>
        <time>2021-04-24T11:05:17Z</time>
      </trkpt>
      <trkpt lat="43.6732" lon="3.8053">
        <ele>118</ele>
        <time>2021-04-24T11:05:18Z</time>
      </trkpt>
      <trkpt lat="43.67317" lon="3.80528">
        <ele>118</ele>
        <time>2021-04-24T11:05:19Z</time>
      </trkpt>
      <trkpt lat="43.67313" lon="3.80525">
        <ele>118</ele>
        <time>2021-04-24T11:05:20Z</time>
      </trkpt>
      <trkpt lat="43.67309" lon="3.80523">
        <ele>118</ele>
        <time>2021-04-24T11:05:21Z</time>
      </trkpt>
      <trkpt lat="43.67305" lon="3.8052">
        <ele>118</ele>
        <time>2021-04-24T11:05:22Z</time>
      </trkpt>
      <trkpt lat="43.67301" lon="3.80518">
        <ele>118</ele>
        <time>2021-04-24T11:05:23Z</time>
      </trkpt>
      <trkpt lat="43.67298" lon="3.80515">
        <ele>117</ele>
        <time>2021-04-24T11:05:24Z</time>
      </trkpt>
      <trkpt lat="43.67294" lon="3.80514">
        <ele>117</ele>
        <time>2021-04-24T11:05:25Z</time>
      </trkpt>
      <trkpt lat="43.6729" lon="3.80513">
        <ele>117</ele>
        <time>2021-04-24T11:05:26Z</time>
      </trkpt>
      <trkpt lat="43.67286" lon="3.80513">
        <ele>117</ele>
        <time>2021-04-24T11:05:27Z</time>
      </trkpt>
      <trkpt lat="43.67283" lon="3.80513">
        <ele>117</ele>
        <time>2021-04-24T11:05:28Z</time>
      </trkpt>
      <trkpt lat="43.6728" lon="3.80514">
        <ele>117</ele>
        <time>2021-04-24T11:05:29Z</time>
      </trkpt>
      <trkpt lat="43.67276" lon="3.80515">
        <ele>117</ele>
        <time>2021-04-24T11:05:30Z</time>
      </trkpt>
      <trkpt lat="43.67273" lon="3.80515">
        <ele>117</ele>
        <time>2021-04-24T11:05:31Z</time>
      </trkpt>
      <trkpt lat="43.6727" lon="3.80516">
        <ele>117</ele>
        <time>2021-04-24T11:05:32Z</time>
      </trkpt>
      <trkpt lat="43.67267" lon="3.80516">
        <ele>117</ele>
        <time>2021-04-24T11:05:33Z</time>
      </trkpt>
      <trkpt lat="43.67264" lon="3.80516">
        <ele>117</ele>
        <time>2021-04-24T11:05:34Z</time>
      </trkpt>
      <trkpt lat="43.67262" lon="3.80516">
        <ele>117</ele>
        <time>2021-04-24T11:05:35Z</time>
      </trkpt>
      <trkpt lat="43.67259" lon="3.80516">
        <ele>117</ele>
        <time>2021-04-24T11:05:37Z</time>
      </trkpt>
      <trkpt lat="43.67261" lon="3.80514">
        <ele>117</ele>
        <time>2021-04-24T11:05:41Z</time>
      </trkpt>
      <trkpt lat="43.67263" lon="3.80514">
        <ele>118</ele>
        <time>2021-04-24T11:05:51Z</time>
      </trkpt>
      <trkpt lat="43.67262" lon="3.80518">
        <ele>118</ele>
        <time>2021-04-24T11:06:46Z</time>
      </trkpt>
      <trkpt lat="43.67259" lon="3.80515">
        <ele>118</ele>
        <time>2021-04-24T11:07:08Z</time>
      </trkpt>
      <trkpt lat="43.67258" lon="3.80514">
        <ele>118</ele>
        <time>2021-04-24T11:07:15Z</time>
      </trkpt>
      <trkpt lat="43.67256" lon="3.80525">
        <ele>119</ele>
        <time>2021-04-24T11:12:10Z</time>
      </trkpt>
      <trkpt lat="43.67253" lon="3.80527">
        <ele>119</ele>
        <time>2021-04-24T11:12:11Z</time>
      </trkpt>
      <trkpt lat="43.6725" lon="3.80526">
        <ele>119</ele>
        <time>2021-04-24T11:12:12Z</time>
      </trkpt>
      <trkpt lat="43.67248" lon="3.80525">
        <ele>119</ele>
        <time>2021-04-24T11:12:13Z</time>
      </trkpt>
      <trkpt lat="43.67246" lon="3.80524">
        <ele>119</ele>
        <time>2021-04-24T11:12:14Z</time>
      </trkpt>
      <trkpt lat="43.67243" lon="3.80524">
        <ele>119</ele>
        <time>2021-04-24T11:12:16Z</time>
      </trkpt>
      <trkpt lat="43.6724" lon="3.80524">
        <ele>119</ele>
        <time>2021-04-24T11:12:17Z</time>
      </trkpt>
      <trkpt lat="43.67237" lon="3.80524">
        <ele>119</ele>
        <time>2021-04-24T11:12:18Z</time>
      </trkpt>
      <trkpt lat="43.67234" lon="3.80524">
        <ele>119</ele>
        <time>2021-04-24T11:12:19Z</time>
      </trkpt>
      <trkpt lat="43.67232" lon="3.80523">
        <ele>118</ele>
        <time>2021-04-24T11:12:20Z</time>
      </trkpt>
      <trkpt lat="43.6723" lon="3.80521">
        <ele>118</ele>
        <time>2021-04-24T11:12:21Z</time>
      </trkpt>
      <trkpt lat="43.67228" lon="3.8052">
        <ele>118</ele>
        <time>2021-04-24T11:12:22Z</time>
      </trkpt>
      <trkpt lat="43.67225" lon="3.80519">
        <ele>118</ele>
        <time>2021-04-24T11:12:24Z</time>
      </trkpt>
      <trkpt lat="43.67222" lon="3.80518">
        <ele>118</ele>
        <time>2021-04-24T11:12:25Z</time>
      </trkpt>
      <trkpt lat="43.67219" lon="3.80517">
        <ele>118</ele>
        <time>2021-04-24T11:12:26Z</time>
      </trkpt>
      <trkpt lat="43.67216" lon="3.80516">
        <ele>118</ele>
        <time>2021-04-24T11:12:27Z</time>
      </trkpt>
      <trkpt lat="43.67212" lon="3.80515">
        <ele>118</ele>
        <time>2021-04-24T11:12:28Z</time>
      </trkpt>
      <trkpt lat="43.6721" lon="3.80514">
        <ele>118</ele>
        <time>2021-04-24T11:12:29Z</time>
      </trkpt>
      <trkpt lat="43.67207" lon="3.80512">
        <ele>119</ele>
        <time>2021-04-24T11:12:30Z</time>
      </trkpt>
      <trkpt lat="43.67205" lon="3.80511">
        <ele>119</ele>
        <time>2021-04-24T11:12:31Z</time>
      </trkpt>
      <trkpt lat="43.67202" lon="3.80508">
        <ele>119</ele>
        <time>2021-04-24T11:12:32Z</time>
      </trkpt>
      <trkpt lat="43.672" lon="3.80505">
        <ele>119</ele>
        <time>2021-04-24T11:12:33Z</time>
      </trkpt>
      <trkpt lat="43.67198" lon="3.80502">
        <ele>119</ele>
        <time>2021-04-24T11:12:34Z</time>
      </trkpt>
      <trkpt lat="43.67196" lon="3.80498">
        <ele>119</ele>
        <time>2021-04-24T11:12:35Z</time>
      </trkpt>
      <trkpt lat="43.67195" lon="3.80495">
        <ele>119</ele>
        <time>2021-04-24T11:12:36Z</time>
      </trkpt>
      <trkpt lat="43.67194" lon="3.80491">
        <ele>119</ele>
        <time>2021-04-24T11:12:37Z</time>
      </trkpt>
      <trkpt lat="43.67193" lon="3.80488">
        <ele>119</ele>
        <time>2021-04-24T11:12:38Z</time>
      </trkpt>
      <trkpt lat="43.67191" lon="3.80485">
        <ele>119</ele>
        <time>2021-04-24T11:12:39Z</time>
      </trkpt>
      <trkpt lat="43.6719" lon="3.80482">
        <ele>118</ele>
        <time>2021-04-24T11:12:40Z</time>
      </trkpt>
      <trkpt lat="43.67187" lon="3.80479">
        <ele>118</ele>
        <time>2021-04-24T11:12:41Z</time>
      </trkpt>
      <trkpt lat="43.67185" lon="3.80478">
        <ele>118</ele>
        <time>2021-04-24T11:12:42Z</time>
      </trkpt>
      <trkpt lat="43.67182" lon="3.80476">
        <ele>118</ele>
        <time>2021-04-24T11:12:43Z</time>
      </trkpt>
      <trkpt lat="43.67178" lon="3.80473">
        <ele>118</ele>
        <time>2021-04-24T11:12:44Z</time>
      </trkpt>
      <trkpt lat="43.67174" lon="3.80471">
        <ele>118</ele>
        <time>2021-04-24T11:12:45Z</time>
      </trkpt>
      <trkpt lat="43.67171" lon="3.80468">
        <ele>118</ele>
        <time>2021-04-24T11:12:46Z</time>
      </trkpt>
      <trkpt lat="43.67168" lon="3.80464">
        <ele>118</ele>
        <time>2021-04-24T11:12:47Z</time>
      </trkpt>
      <trkpt lat="43.67164" lon="3.80461">
        <ele>118</ele>
        <time>2021-04-24T11:12:48Z</time>
      </trkpt>
      <trkpt lat="43.6716" lon="3.80457">
        <ele>118</ele>
        <time>2021-04-24T11:12:49Z</time>
      </trkpt>
      <trkpt lat="43.67156" lon="3.80454">
        <ele>116</ele>
        <time>2021-04-24T11:12:50Z</time>
      </trkpt>
      <trkpt lat="43.67151" lon="3.80452">
        <ele>116</ele>
        <time>2021-04-24T11:12:51Z</time>
      </trkpt>
      <trkpt lat="43.67146" lon="3.8045">
        <ele>116</ele>
        <time>2021-04-24T11:12:52Z</time>
      </trkpt>
      <trkpt lat="43.67141" lon="3.80448">
        <ele>116</ele>
        <time>2021-04-24T11:12:53Z</time>
      </trkpt>
      <trkpt lat="43.67136" lon="3.80446">
        <ele>116</ele>
        <time>2021-04-24T11:12:54Z</time>
      </trkpt>
      <trkpt lat="43.67131" lon="3.80444">
        <ele>116</ele>
        <time>2021-04-24T11:12:55Z</time>
      </trkpt>
      <trkpt lat="43.67125" lon="3.80441">
        <ele>116</ele>
        <time>2021-04-24T11:12:56Z</time>
      </trkpt>
      <trkpt lat="43.6712" lon="3.80437">
        <ele>116</ele>
        <time>2021-04-24T11:12:57Z</time>
      </trkpt>
      <trkpt lat="43.67114" lon="3.80432">
        <ele>116</ele>
        <time>2021-04-24T11:12:58Z</time>
      </trkpt>
      <trkpt lat="43.6711" lon="3.80428">
        <ele>116</ele>
        <time>2021-04-24T11:12:59Z</time>
      </trkpt>
      <trkpt lat="43.67105" lon="3.80423">
        <ele>113</ele>
        <time>2021-04-24T11:13:00Z</time>
      </trkpt>
      <trkpt lat="43.67101" lon="3.80418">
        <ele>113</ele>
        <time>2021-04-24T11:13:01Z</time>
      </trkpt>
      <trkpt lat="43.67096" lon="3.80412">
        <ele>113</ele>
        <time>2021-04-24T11:13:02Z</time>
      </trkpt>
      <trkpt lat="43.67092" lon="3.80405">
        <ele>113</ele>
        <time>2021-04-24T11:13:03Z</time>
      </trkpt>
      <trkpt lat="43.67088" lon="3.80398">
        <ele>113</ele>
        <time>2021-04-24T11:13:04Z</time>
      </trkpt>
      <trkpt lat="43.67085" lon="3.80393">
        <ele>113</ele>
        <time>2021-04-24T11:13:05Z</time>
      </trkpt>
      <trkpt lat="43.67081" lon="3.8039">
        <ele>113</ele>
        <time>2021-04-24T11:13:06Z</time>
      </trkpt>
      <trkpt lat="43.67076" lon="3.80392">
        <ele>113</ele>
        <time>2021-04-24T11:13:08Z</time>
      </trkpt>
      <trkpt lat="43.67072" lon="3.80395">
        <ele>113</ele>
        <time>2021-04-24T11:13:09Z</time>
      </trkpt>
      <trkpt lat="43.67069" lon="3.80398">
        <ele>109</ele>
        <time>2021-04-24T11:13:10Z</time>
      </trkpt>
      <trkpt lat="43.67065" lon="3.804">
        <ele>109</ele>
        <time>2021-04-24T11:13:11Z</time>
      </trkpt>
      <trkpt lat="43.67062" lon="3.80402">
        <ele>109</ele>
        <time>2021-04-24T11:13:12Z</time>
      </trkpt>
      <trkpt lat="43.67058" lon="3.80406">
        <ele>109</ele>
        <time>2021-04-24T11:13:13Z</time>
      </trkpt>
      <trkpt lat="43.67054" lon="3.80409">
        <ele>109</ele>
        <time>2021-04-24T11:13:14Z</time>
      </trkpt>
      <trkpt lat="43.6705" lon="3.80413">
        <ele>109</ele>
        <time>2021-04-24T11:13:15Z</time>
      </trkpt>
      <trkpt lat="43.67047" lon="3.80416">
        <ele>109</ele>
        <time>2021-04-24T11:13:16Z</time>
      </trkpt>
      <trkpt lat="43.67043" lon="3.80418">
        <ele>109</ele>
        <time>2021-04-24T11:13:17Z</time>
      </trkpt>
      <trkpt lat="43.67039" lon="3.80419">
        <ele>109</ele>
        <time>2021-04-24T11:13:18Z</time>
      </trkpt>
      <trkpt lat="43.67036" lon="3.8042">
        <ele>109</ele>
        <time>2021-04-24T11:13:19Z</time>
      </trkpt>
      <trkpt lat="43.67034" lon="3.80421">
        <ele>108</ele>
        <time>2021-04-24T11:13:20Z</time>
      </trkpt>
      <trkpt lat="43.67031" lon="3.80423">
        <ele>108</ele>
        <time>2021-04-24T11:13:21Z</time>
      </trkpt>
      <trkpt lat="43.6703" lon="3.80424">
        <ele>108</ele>
        <time>2021-04-24T11:13:22Z</time>
      </trkpt>
      <trkpt lat="43.67027" lon="3.80427">
        <ele>108</ele>
        <time>2021-04-24T11:13:24Z</time>
      </trkpt>
      <trkpt lat="43.67025" lon="3.80429">
        <ele>108</ele>
        <time>2021-04-24T11:13:25Z</time>
      </trkpt>
      <trkpt lat="43.67023" lon="3.80432">
        <ele>108</ele>
        <time>2021-04-24T11:13:27Z</time>
      </trkpt>
      <trkpt lat="43.67021" lon="3.80433">
        <ele>108</ele>
        <time>2021-04-24T11:13:28Z</time>
      </trkpt>
      <trkpt lat="43.6702" lon="3.80435">
        <ele>108</ele>
        <time>2021-04-24T11:13:29Z</time>
      </trkpt>
      <trkpt lat="43.67017" lon="3.80435">
        <ele>107</ele>
        <time>2021-04-24T11:13:30Z</time>
      </trkpt>
      <trkpt lat="43.67015" lon="3.80435">
        <ele>107</ele>
        <time>2021-04-24T11:13:31Z</time>
      </trkpt>
      <trkpt lat="43.67012" lon="3.80435">
        <ele>107</ele>
        <time>2021-04-24T11:13:33Z</time>
      </trkpt>
      <trkpt lat="43.67011" lon="3.80436">
        <ele>107</ele>
        <time>2021-04-24T11:13:35Z</time>
      </trkpt>
      <trkpt lat="43.67008" lon="3.80437">
        <ele>107</ele>
        <time>2021-04-24T11:13:37Z</time>
      </trkpt>
      <trkpt lat="43.67005" lon="3.80438">
        <ele>107</ele>
        <time>2021-04-24T11:13:39Z</time>
      </trkpt>
      <trkpt lat="43.67001" lon="3.80438">
        <ele>107</ele>
        <time>2021-04-24T11:13:41Z</time>
      </trkpt>
      <trkpt lat="43.66999" lon="3.80438">
        <ele>107</ele>
        <time>2021-04-24T11:13:43Z</time>
      </trkpt>
      <trkpt lat="43.66996" lon="3.80438">
        <ele>107</ele>
        <time>2021-04-24T11:13:45Z</time>
      </trkpt>
      <trkpt lat="43.66993" lon="3.80438">
        <ele>107</ele>
        <time>2021-04-24T11:13:47Z</time>
      </trkpt>
      <trkpt lat="43.6699" lon="3.80438">
        <ele>107</ele>
        <time>2021-04-24T11:13:49Z</time>
      </trkpt>
      <trkpt lat="43.66987" lon="3.80439">
        <ele>107</ele>
        <time>2021-04-24T11:13:51Z</time>
      </trkpt>
      <trkpt lat="43.66984" lon="3.8044">
        <ele>107</ele>
        <time>2021-04-24T11:13:53Z</time>
      </trkpt>
      <trkpt lat="43.66981" lon="3.80442">
        <ele>107</ele>
        <time>2021-04-24T11:13:55Z</time>
      </trkpt>
      <trkpt lat="43.66978" lon="3.80443">
        <ele>107</ele>
        <time>2021-04-24T11:13:57Z</time>
      </trkpt>
      <trkpt lat="43.66975" lon="3.80444">
        <ele>107</ele>
        <time>2021-04-24T11:13:59Z</time>
      </trkpt>
      <trkpt lat="43.66972" lon="3.80444">
        <ele>107</ele>
        <time>2021-04-24T11:14:01Z</time>
      </trkpt>
      <trkpt lat="43.6697" lon="3.80443">
        <ele>107</ele>
        <time>2021-04-24T11:14:03Z</time>
      </trkpt>
      <trkpt lat="43.66966" lon="3.80443">
        <ele>107</ele>
        <time>2021-04-24T11:14:05Z</time>
      </trkpt>
      <trkpt lat="43.66964" lon="3.80442">
        <ele>107</ele>
        <time>2021-04-24T11:14:07Z</time>
      </trkpt>
      <trkpt lat="43.66961" lon="3.80441">
        <ele>107</ele>
        <time>2021-04-24T11:14:09Z</time>
      </trkpt>
      <trkpt lat="43.66958" lon="3.8044">
        <ele>107</ele>
        <time>2021-04-24T11:14:11Z</time>
      </trkpt>
      <trkpt lat="43.66956" lon="3.80439">
        <ele>107</ele>
        <time>2021-04-24T11:14:12Z</time>
      </trkpt>
      <trkpt lat="43.66954" lon="3.80436">
        <ele>107</ele>
        <time>2021-04-24T11:14:13Z</time>
      </trkpt>
      <trkpt lat="43.66953" lon="3.80434">
        <ele>107</ele>
        <time>2021-04-24T11:14:15Z</time>
      </trkpt>
      <trkpt lat="43.66951" lon="3.80432">
        <ele>107</ele>
        <time>2021-04-24T11:14:16Z</time>
      </trkpt>
      <trkpt lat="43.66949" lon="3.80429">
        <ele>107</ele>
        <time>2021-04-24T11:14:18Z</time>
      </trkpt>
      <trkpt lat="43.66948" lon="3.80427">
        <ele>107</ele>
        <time>2021-04-24T11:14:19Z</time>
      </trkpt>
      <trkpt lat="43.66945" lon="3.80423">
        <ele>107</ele>
        <time>2021-04-24T11:14:22Z</time>
      </trkpt>
      <trkpt lat="43.66943" lon="3.80422">
        <ele>107</ele>
        <time>2021-04-24T11:14:24Z</time>
      </trkpt>
      <trkpt lat="43.66941" lon="3.80419">
        <ele>107</ele>
        <time>2021-04-24T11:14:26Z</time>
      </trkpt>
      <trkpt lat="43.66939" lon="3.80417">
        <ele>107</ele>
        <time>2021-04-24T11:14:28Z</time>
      </trkpt>
      <trkpt lat="43.66938" lon="3.80414">
        <ele>107</ele>
        <time>2021-04-24T11:14:31Z</time>
      </trkpt>
      <trkpt lat="43.66939" lon="3.80412">
        <ele>107</ele>
        <time>2021-04-24T11:14:34Z</time>
      </trkpt>
      <trkpt lat="43.66936" lon="3.80413">
        <ele>107</ele>
        <time>2021-04-24T11:14:39Z</time>
      </trkpt>
      <trkpt lat="43.66937" lon="3.80415">
        <ele>117</ele>
        <time>2021-04-24T11:14:48Z</time>
      </trkpt>
      <trkpt lat="43.66934" lon="3.80412">
        <ele>120</ele>
        <time>2021-04-24T11:15:13Z</time>
      </trkpt>
      <trkpt lat="43.66932" lon="3.80407">
        <ele>123</ele>
        <time>2021-04-24T11:15:37Z</time>
      </trkpt>
      <trkpt lat="43.66933" lon="3.80404">
        <ele>123</ele>
        <time>2021-04-24T11:15:38Z</time>
      </trkpt>
      <trkpt lat="43.66933" lon="3.80401">
        <ele>123</ele>
        <time>2021-04-24T11:15:40Z</time>
      </trkpt>
      <trkpt lat="43.66934" lon="3.80396">
        <ele>123</ele>
        <time>2021-04-24T11:15:42Z</time>
      </trkpt>
      <trkpt lat="43.66934" lon="3.80392">
        <ele>123</ele>
        <time>2021-04-24T11:15:44Z</time>
      </trkpt>
      <trkpt lat="43.66934" lon="3.80388">
        <ele>123</ele>
        <time>2021-04-24T11:15:46Z</time>
      </trkpt>
      <trkpt lat="43.66935" lon="3.80383">
        <ele>123</ele>
        <time>2021-04-24T11:15:48Z</time>
      </trkpt>
      <trkpt lat="43.66935" lon="3.80379">
        <ele>123</ele>
        <time>2021-04-24T11:15:50Z</time>
      </trkpt>
      <trkpt lat="43.66937" lon="3.80375">
        <ele>123</ele>
        <time>2021-04-24T11:15:52Z</time>
      </trkpt>
      <trkpt lat="43.66938" lon="3.80372">
        <ele>123</ele>
        <time>2021-04-24T11:15:53Z</time>
      </trkpt>
      <trkpt lat="43.66939" lon="3.8037">
        <ele>123</ele>
        <time>2021-04-24T11:15:54Z</time>
      </trkpt>
      <trkpt lat="43.6694" lon="3.80367">
        <ele>123</ele>
        <time>2021-04-24T11:15:55Z</time>
      </trkpt>
      <trkpt lat="43.66941" lon="3.80363">
        <ele>126</ele>
        <time>2021-04-24T11:15:57Z</time>
      </trkpt>
      <trkpt lat="43.66943" lon="3.80361">
        <ele>126</ele>
        <time>2021-04-24T11:15:58Z</time>
      </trkpt>
      <trkpt lat="43.66944" lon="3.80359">
        <ele>126</ele>
        <time>2021-04-24T11:15:59Z</time>
      </trkpt>
      <trkpt lat="43.66945" lon="3.80357">
        <ele>126</ele>
        <time>2021-04-24T11:16:00Z</time>
      </trkpt>
      <trkpt lat="43.66947" lon="3.80356">
        <ele>126</ele>
        <time>2021-04-24T11:16:01Z</time>
      </trkpt>
      <trkpt lat="43.66949" lon="3.80354">
        <ele>126</ele>
        <time>2021-04-24T11:16:02Z</time>
      </trkpt>
      <trkpt lat="43.66952" lon="3.80352">
        <ele>126</ele>
        <time>2021-04-24T11:16:03Z</time>
      </trkpt>
      <trkpt lat="43.66954" lon="3.80351">
        <ele>126</ele>
        <time>2021-04-24T11:16:04Z</time>
      </trkpt>
      <trkpt lat="43.66956" lon="3.80349">
        <ele>126</ele>
        <time>2021-04-24T11:16:05Z</time>
      </trkpt>
      <trkpt lat="43.66957" lon="3.80348">
        <ele>126</ele>
        <time>2021-04-24T11:16:07Z</time>
      </trkpt>
      <trkpt lat="43.66959" lon="3.80347">
        <ele>126</ele>
        <time>2021-04-24T11:16:08Z</time>
      </trkpt>
      <trkpt lat="43.66961" lon="3.80345">
        <ele>126</ele>
        <time>2021-04-24T11:16:09Z</time>
      </trkpt>
      <trkpt lat="43.66963" lon="3.80344">
        <ele>126</ele>
        <time>2021-04-24T11:16:10Z</time>
      </trkpt>
      <trkpt lat="43.66965" lon="3.80344">
        <ele>126</ele>
        <time>2021-04-24T11:16:11Z</time>
      </trkpt>
      <trkpt lat="43.66966" lon="3.80343">
        <ele>126</ele>
        <time>2021-04-24T11:16:12Z</time>
      </trkpt>
      <trkpt lat="43.6697" lon="3.80342">
        <ele>126</ele>
        <time>2021-04-24T11:16:14Z</time>
      </trkpt>
      <trkpt lat="43.66971" lon="3.8034">
        <ele>126</ele>
        <time>2021-04-24T11:16:15Z</time>
      </trkpt>
      <trkpt lat="43.66973" lon="3.80339">
        <ele>126</ele>
        <time>2021-04-24T11:16:16Z</time>
      </trkpt>
      <trkpt lat="43.66975" lon="3.80337">
        <ele>127</ele>
        <time>2021-04-24T11:16:17Z</time>
      </trkpt>
      <trkpt lat="43.66976" lon="3.80335">
        <ele>127</ele>
        <time>2021-04-24T11:16:18Z</time>
      </trkpt>
      <trkpt lat="43.66977" lon="3.80333">
        <ele>127</ele>
        <time>2021-04-24T11:16:19Z</time>
      </trkpt>
      <trkpt lat="43.66978" lon="3.8033">
        <ele>127</ele>
        <time>2021-04-24T11:16:20Z</time>
      </trkpt>
      <trkpt lat="43.6698" lon="3.80328">
        <ele>127</ele>
        <time>2021-04-24T11:16:21Z</time>
      </trkpt>
      <trkpt lat="43.6698" lon="3.80325">
        <ele>127</ele>
        <time>2021-04-24T11:16:22Z</time>
      </trkpt>
      <trkpt lat="43.66981" lon="3.80323">
        <ele>127</ele>
        <time>2021-04-24T11:16:23Z</time>
      </trkpt>
      <trkpt lat="43.66981" lon="3.8032">
        <ele>127</ele>
        <time>2021-04-24T11:16:24Z</time>
      </trkpt>
      <trkpt lat="43.6698" lon="3.80317">
        <ele>127</ele>
        <time>2021-04-24T11:16:25Z</time>
      </trkpt>
      <trkpt lat="43.6698" lon="3.80313">
        <ele>127</ele>
        <time>2021-04-24T11:16:26Z</time>
      </trkpt>
      <trkpt lat="43.66979" lon="3.80311">
        <ele>126</ele>
        <time>2021-04-24T11:16:27Z</time>
      </trkpt>
      <trkpt lat="43.66978" lon="3.80308">
        <ele>126</ele>
        <time>2021-04-24T11:16:28Z</time>
      </trkpt>
      <trkpt lat="43.66978" lon="3.80306">
        <ele>126</ele>
        <time>2021-04-24T11:16:29Z</time>
      </trkpt>
      <trkpt lat="43.66977" lon="3.80303">
        <ele>126</ele>
        <time>2021-04-24T11:16:30Z</time>
      </trkpt>
      <trkpt lat="43.66975" lon="3.80301">
        <ele>126</ele>
        <time>2021-04-24T11:16:31Z</time>
      </trkpt>
      <trkpt lat="43.66974" lon="3.80299">
        <ele>126</ele>
        <time>2021-04-24T11:16:32Z</time>
      </trkpt>
      <trkpt lat="43.66973" lon="3.80296">
        <ele>126</ele>
        <time>2021-04-24T11:16:33Z</time>
      </trkpt>
      <trkpt lat="43.66972" lon="3.80294">
        <ele>126</ele>
        <time>2021-04-24T11:16:34Z</time>
      </trkpt>
      <trkpt lat="43.6697" lon="3.80292">
        <ele>126</ele>
        <time>2021-04-24T11:16:35Z</time>
      </trkpt>
      <trkpt lat="43.66969" lon="3.80289">
        <ele>126</ele>
        <time>2021-04-24T11:16:36Z</time>
      </trkpt>
      <trkpt lat="43.66967" lon="3.80287">
        <ele>125</ele>
        <time>2021-04-24T11:16:37Z</time>
      </trkpt>
      <trkpt lat="43.66965" lon="3.80285">
        <ele>125</ele>
        <time>2021-04-24T11:16:38Z</time>
      </trkpt>
      <trkpt lat="43.66964" lon="3.80283">
        <ele>125</ele>
        <time>2021-04-24T11:16:39Z</time>
      </trkpt>
      <trkpt lat="43.66962" lon="3.80281">
        <ele>125</ele>
        <time>2021-04-24T11:16:40Z</time>
      </trkpt>
      <trkpt lat="43.6696" lon="3.80279">
        <ele>125</ele>
        <time>2021-04-24T11:16:41Z</time>
      </trkpt>
      <trkpt lat="43.66958" lon="3.80278">
        <ele>125</ele>
        <time>2021-04-24T11:16:42Z</time>
      </trkpt>
      <trkpt lat="43.66957" lon="3.80276">
        <ele>125</ele>
        <time>2021-04-24T11:16:43Z</time>
      </trkpt>
      <trkpt lat="43.66955" lon="3.80275">
        <ele>125</ele>
        <time>2021-04-24T11:16:44Z</time>
      </trkpt>
      <trkpt lat="43.66953" lon="3.80273">
        <ele>125</ele>
        <time>2021-04-24T11:16:45Z</time>
      </trkpt>
      <trkpt lat="43.66952" lon="3.80271">
        <ele>125</ele>
        <time>2021-04-24T11:16:46Z</time>
      </trkpt>
      <trkpt lat="43.6695" lon="3.8027">
        <ele>125</ele>
        <time>2021-04-24T11:16:47Z</time>
      </trkpt>
      <trkpt lat="43.66948" lon="3.80269">
        <ele>125</ele>
        <time>2021-04-24T11:16:48Z</time>
      </trkpt>
      <trkpt lat="43.66946" lon="3.80268">
        <ele>125</ele>
        <time>2021-04-24T11:16:49Z</time>
      </trkpt>
      <trkpt lat="43.66945" lon="3.80267">
        <ele>125</ele>
        <time>2021-04-24T11:16:50Z</time>
      </trkpt>
      <trkpt lat="43.66943" lon="3.80266">
        <ele>125</ele>
        <time>2021-04-24T11:16:51Z</time>
      </trkpt>
      <trkpt lat="43.66941" lon="3.80265">
        <ele>125</ele>
        <time>2021-04-24T11:16:52Z</time>
      </trkpt>
      <trkpt lat="43.66939" lon="3.80264">
        <ele>125</ele>
        <time>2021-04-24T11:16:53Z</time>
      </trkpt>
      <trkpt lat="43.66936" lon="3.80264">
        <ele>125</ele>
        <time>2021-04-24T11:16:54Z</time>
      </trkpt>
      <trkpt lat="43.66934" lon="3.80263">
        <ele>125</ele>
        <time>2021-04-24T11:16:55Z</time>
      </trkpt>
      <trkpt lat="43.66933" lon="3.80262">
        <ele>125</ele>
        <time>2021-04-24T11:16:56Z</time>
      </trkpt>
      <trkpt lat="43.66931" lon="3.80261">
        <ele>126</ele>
        <time>2021-04-24T11:16:57Z</time>
      </trkpt>
      <trkpt lat="43.66928" lon="3.8026">
        <ele>126</ele>
        <time>2021-04-24T11:16:59Z</time>
      </trkpt>
      <trkpt lat="43.66925" lon="3.8026">
        <ele>126</ele>
        <time>2021-04-24T11:17:01Z</time>
      </trkpt>
      <trkpt lat="43.66924" lon="3.80261">
        <ele>127</ele>
        <time>2021-04-24T11:17:07Z</time>
      </trkpt>
      <trkpt lat="43.66922" lon="3.80261">
        <ele>127</ele>
        <time>2021-04-24T11:17:09Z</time>
      </trkpt>
      <trkpt lat="43.66919" lon="3.8026">
        <ele>127</ele>
        <time>2021-04-24T11:17:11Z</time>
      </trkpt>
      <trkpt lat="43.66916" lon="3.80259">
        <ele>127</ele>
        <time>2021-04-24T11:17:13Z</time>
      </trkpt>
      <trkpt lat="43.66914" lon="3.80259">
        <ele>127</ele>
        <time>2021-04-24T11:17:14Z</time>
      </trkpt>
      <trkpt lat="43.66912" lon="3.80259">
        <ele>127</ele>
        <time>2021-04-24T11:17:16Z</time>
      </trkpt>
      <trkpt lat="43.66913" lon="3.80256">
        <ele>127</ele>
        <time>2021-04-24T11:17:27Z</time>
      </trkpt>
      <trkpt lat="43.66914" lon="3.80255">
        <ele>127</ele>
        <time>2021-04-24T11:17:31Z</time>
      </trkpt>
      <trkpt lat="43.66907" lon="3.80251">
        <ele>128</ele>
        <time>2021-04-24T11:17:43Z</time>
      </trkpt>
      <trkpt lat="43.66905" lon="3.8025">
        <ele>128</ele>
        <time>2021-04-24T11:17:44Z</time>
      </trkpt>
      <trkpt lat="43.66903" lon="3.80249">
        <ele>128</ele>
        <time>2021-04-24T11:17:45Z</time>
      </trkpt>
      <trkpt lat="43.669" lon="3.80248">
        <ele>128</ele>
        <time>2021-04-24T11:17:46Z</time>
      </trkpt>
      <trkpt lat="43.66898" lon="3.80247">
        <ele>128</ele>
        <time>2021-04-24T11:17:47Z</time>
      </trkpt>
      <trkpt lat="43.66896" lon="3.80246">
        <ele>128</ele>
        <time>2021-04-24T11:17:48Z</time>
      </trkpt>
      <trkpt lat="43.66894" lon="3.80246">
        <ele>128</ele>
        <time>2021-04-24T11:17:49Z</time>
      </trkpt>
      <trkpt lat="43.66892" lon="3.80245">
        <ele>128</ele>
        <time>2021-04-24T11:17:50Z</time>
      </trkpt>
      <trkpt lat="43.66889" lon="3.80245">
        <ele>128</ele>
        <time>2021-04-24T11:17:51Z</time>
      </trkpt>
      <trkpt lat="43.66888" lon="3.80245">
        <ele>128</ele>
        <time>2021-04-24T11:17:52Z</time>
      </trkpt>
      <trkpt lat="43.66885" lon="3.80245">
        <ele>128</ele>
        <time>2021-04-24T11:17:53Z</time>
      </trkpt>
      <trkpt lat="43.66883" lon="3.80244">
        <ele>128</ele>
        <time>2021-04-24T11:17:54Z</time>
      </trkpt>
      <trkpt lat="43.66881" lon="3.80243">
        <ele>128</ele>
        <time>2021-04-24T11:17:55Z</time>
      </trkpt>
      <trkpt lat="43.66879" lon="3.80243">
        <ele>128</ele>
        <time>2021-04-24T11:17:56Z</time>
      </trkpt>
      <trkpt lat="43.66877" lon="3.80243">
        <ele>128</ele>
        <time>2021-04-24T11:17:57Z</time>
      </trkpt>
      <trkpt lat="43.66874" lon="3.80242">
        <ele>128</ele>
        <time>2021-04-24T11:17:58Z</time>
      </trkpt>
      <trkpt lat="43.66872" lon="3.80242">
        <ele>128</ele>
        <time>2021-04-24T11:17:59Z</time>
      </trkpt>
      <trkpt lat="43.66869" lon="3.80242">
        <ele>128</ele>
        <time>2021-04-24T11:18:00Z</time>
      </trkpt>
      <trkpt lat="43.66867" lon="3.80243">
        <ele>128</ele>
        <time>2021-04-24T11:18:01Z</time>
      </trkpt>
      <trkpt lat="43.66864" lon="3.80243">
        <ele>128</ele>
        <time>2021-04-24T11:18:02Z</time>
      </trkpt>
      <trkpt lat="43.66862" lon="3.80244">
        <ele>129</ele>
        <time>2021-04-24T11:18:03Z</time>
      </trkpt>
      <trkpt lat="43.6686" lon="3.80245">
        <ele>129</ele>
        <time>2021-04-24T11:18:04Z</time>
      </trkpt>
      <trkpt lat="43.66857" lon="3.80246">
        <ele>129</ele>
        <time>2021-04-24T11:18:05Z</time>
      </trkpt>
      <trkpt lat="43.66855" lon="3.80247">
        <ele>129</ele>
        <time>2021-04-24T11:18:06Z</time>
      </trkpt>
      <trkpt lat="43.66852" lon="3.80249">
        <ele>129</ele>
        <time>2021-04-24T11:18:07Z</time>
      </trkpt>
      <trkpt lat="43.6685" lon="3.8025">
        <ele>129</ele>
        <time>2021-04-24T11:18:08Z</time>
      </trkpt>
      <trkpt lat="43.66847" lon="3.80253">
        <ele>129</ele>
        <time>2021-04-24T11:18:09Z</time>
      </trkpt>
      <trkpt lat="43.66844" lon="3.80255">
        <ele>129</ele>
        <time>2021-04-24T11:18:10Z</time>
      </trkpt>
      <trkpt lat="43.66842" lon="3.80258">
        <ele>129</ele>
        <time>2021-04-24T11:18:11Z</time>
      </trkpt>
      <trkpt lat="43.66839" lon="3.80261">
        <ele>129</ele>
        <time>2021-04-24T11:18:12Z</time>
      </trkpt>
      <trkpt lat="43.66836" lon="3.80263">
        <ele>130</ele>
        <time>2021-04-24T11:18:13Z</time>
      </trkpt>
      <trkpt lat="43.66833" lon="3.80265">
        <ele>130</ele>
        <time>2021-04-24T11:18:14Z</time>
      </trkpt>
      <trkpt lat="43.66831" lon="3.80266">
        <ele>130</ele>
        <time>2021-04-24T11:18:15Z</time>
      </trkpt>
      <trkpt lat="43.66829" lon="3.80267">
        <ele>130</ele>
        <time>2021-04-24T11:18:16Z</time>
      </trkpt>
      <trkpt lat="43.66825" lon="3.80268">
        <ele>130</ele>
        <time>2021-04-24T11:18:17Z</time>
      </trkpt>
      <trkpt lat="43.66823" lon="3.8027">
        <ele>130</ele>
        <time>2021-04-24T11:18:18Z</time>
      </trkpt>
      <trkpt lat="43.6682" lon="3.80271">
        <ele>130</ele>
        <time>2021-04-24T11:18:19Z</time>
      </trkpt>
      <trkpt lat="43.66818" lon="3.80272">
        <ele>130</ele>
        <time>2021-04-24T11:18:20Z</time>
      </trkpt>
      <trkpt lat="43.66815" lon="3.80273">
        <ele>130</ele>
        <time>2021-04-24T11:18:21Z</time>
      </trkpt>
      <trkpt lat="43.66812" lon="3.80274">
        <ele>130</ele>
        <time>2021-04-24T11:18:22Z</time>
      </trkpt>
      <trkpt lat="43.6681" lon="3.80275">
        <ele>131</ele>
        <time>2021-04-24T11:18:23Z</time>
      </trkpt>
      <trkpt lat="43.66807" lon="3.80275">
        <ele>131</ele>
        <time>2021-04-24T11:18:24Z</time>
      </trkpt>
      <trkpt lat="43.66805" lon="3.80276">
        <ele>131</ele>
        <time>2021-04-24T11:18:25Z</time>
      </trkpt>
      <trkpt lat="43.66802" lon="3.80276">
        <ele>131</ele>
        <time>2021-04-24T11:18:26Z</time>
      </trkpt>
      <trkpt lat="43.66799" lon="3.80276">
        <ele>131</ele>
        <time>2021-04-24T11:18:27Z</time>
      </trkpt>
      <trkpt lat="43.66795" lon="3.80276">
        <ele>131</ele>
        <time>2021-04-24T11:18:28Z</time>
      </trkpt>
      <trkpt lat="43.66793" lon="3.80275">
        <ele>131</ele>
        <time>2021-04-24T11:18:29Z</time>
      </trkpt>
      <trkpt lat="43.6679" lon="3.80275">
        <ele>131</ele>
        <time>2021-04-24T11:18:30Z</time>
      </trkpt>
      <trkpt lat="43.66787" lon="3.80276">
        <ele>131</ele>
        <time>2021-04-24T11:18:31Z</time>
      </trkpt>
      <trkpt lat="43.66785" lon="3.80276">
        <ele>131</ele>
        <time>2021-04-24T11:18:32Z</time>
      </trkpt>
      <trkpt lat="43.66782" lon="3.80276">
        <ele>131</ele>
        <time>2021-04-24T11:18:33Z</time>
      </trkpt>
      <trkpt lat="43.6678" lon="3.80276">
        <ele>131</ele>
        <time>2021-04-24T11:18:34Z</time>
      </trkpt>
      <trkpt lat="43.66777" lon="3.80275">
        <ele>131</ele>
        <time>2021-04-24T11:18:35Z</time>
      </trkpt>
      <trkpt lat="43.66775" lon="3.80275">
        <ele>131</ele>
        <time>2021-04-24T11:18:36Z</time>
      </trkpt>
      <trkpt lat="43.66772" lon="3.80274">
        <ele>131</ele>
        <time>2021-04-24T11:18:37Z</time>
      </trkpt>
      <trkpt lat="43.6677" lon="3.80274">
        <ele>131</ele>
        <time>2021-04-24T11:18:38Z</time>
      </trkpt>
      <trkpt lat="43.66768" lon="3.80275">
        <ele>131</ele>
        <time>2021-04-24T11:18:39Z</time>
      </trkpt>
      <trkpt lat="43.66764" lon="3.80275">
        <ele>131</ele>
        <time>2021-04-24T11:18:40Z</time>
      </trkpt>
      <trkpt lat="43.66761" lon="3.80275">
        <ele>131</ele>
        <time>2021-04-24T11:18:41Z</time>
      </trkpt>
      <trkpt lat="43.66758" lon="3.80275">
        <ele>131</ele>
        <time>2021-04-24T11:18:42Z</time>
      </trkpt>
      <trkpt lat="43.66755" lon="3.80274">
        <ele>131</ele>
        <time>2021-04-24T11:18:43Z</time>
      </trkpt>
      <trkpt lat="43.66752" lon="3.80274">
        <ele>131</ele>
        <time>2021-04-24T11:18:44Z</time>
      </trkpt>
      <trkpt lat="43.66749" lon="3.80275">
        <ele>131</ele>
        <time>2021-04-24T11:18:45Z</time>
      </trkpt>
      <trkpt lat="43.66746" lon="3.80275">
        <ele>131</ele>
        <time>2021-04-24T11:18:46Z</time>
      </trkpt>
      <trkpt lat="43.66743" lon="3.80275">
        <ele>131</ele>
        <time>2021-04-24T11:18:47Z</time>
      </trkpt>
      <trkpt lat="43.6674" lon="3.80275">
        <ele>131</ele>
        <time>2021-04-24T11:18:48Z</time>
      </trkpt>
      <trkpt lat="43.66737" lon="3.80275">
        <ele>131</ele>
        <time>2021-04-24T11:18:49Z</time>
      </trkpt>
      <trkpt lat="43.66735" lon="3.80275">
        <ele>131</ele>
        <time>2021-04-24T11:18:50Z</time>
      </trkpt>
      <trkpt lat="43.66732" lon="3.80275">
        <ele>131</ele>
        <time>2021-04-24T11:18:51Z</time>
      </trkpt>
      <trkpt lat="43.66729" lon="3.80275">
        <ele>131</ele>
        <time>2021-04-24T11:18:52Z</time>
      </trkpt>
      <trkpt lat="43.66726" lon="3.80275">
        <ele>132</ele>
        <time>2021-04-24T11:18:53Z</time>
      </trkpt>
      <trkpt lat="43.66724" lon="3.80275">
        <ele>132</ele>
        <time>2021-04-24T11:18:54Z</time>
      </trkpt>
      <trkpt lat="43.66722" lon="3.80275">
        <ele>132</ele>
        <time>2021-04-24T11:18:55Z</time>
      </trkpt>
      <trkpt lat="43.66719" lon="3.80274">
        <ele>132</ele>
        <time>2021-04-24T11:18:56Z</time>
      </trkpt>
      <trkpt lat="43.66717" lon="3.80275">
        <ele>132</ele>
        <time>2021-04-24T11:18:57Z</time>
      </trkpt>
      <trkpt lat="43.66715" lon="3.80274">
        <ele>132</ele>
        <time>2021-04-24T11:18:58Z</time>
      </trkpt>
      <trkpt lat="43.66712" lon="3.80275">
        <ele>132</ele>
        <time>2021-04-24T11:19:00Z</time>
      </trkpt>
      <trkpt lat="43.6671" lon="3.80275">
        <ele>132</ele>
        <time>2021-04-24T11:19:01Z</time>
      </trkpt>
      <trkpt lat="43.66708" lon="3.80275">
        <ele>132</ele>
        <time>2021-04-24T11:19:02Z</time>
      </trkpt>
      <trkpt lat="43.66705" lon="3.80276">
        <ele>133</ele>
        <time>2021-04-24T11:19:03Z</time>
      </trkpt>
      <trkpt lat="43.66703" lon="3.80276">
        <ele>133</ele>
        <time>2021-04-24T11:19:04Z</time>
      </trkpt>
      <trkpt lat="43.66701" lon="3.80277">
        <ele>133</ele>
        <time>2021-04-24T11:19:05Z</time>
      </trkpt>
      <trkpt lat="43.66699" lon="3.80277">
        <ele>133</ele>
        <time>2021-04-24T11:19:06Z</time>
      </trkpt>
      <trkpt lat="43.66697" lon="3.80278">
        <ele>133</ele>
        <time>2021-04-24T11:19:07Z</time>
      </trkpt>
      <trkpt lat="43.66694" lon="3.80278">
        <ele>133</ele>
        <time>2021-04-24T11:19:08Z</time>
      </trkpt>
      <trkpt lat="43.66692" lon="3.80277">
        <ele>133</ele>
        <time>2021-04-24T11:19:09Z</time>
      </trkpt>
      <trkpt lat="43.6669" lon="3.80277">
        <ele>133</ele>
        <time>2021-04-24T11:19:10Z</time>
      </trkpt>
      <trkpt lat="43.66687" lon="3.80277">
        <ele>133</ele>
        <time>2021-04-24T11:19:11Z</time>
      </trkpt>
      <trkpt lat="43.66684" lon="3.80277">
        <ele>133</ele>
        <time>2021-04-24T11:19:12Z</time>
      </trkpt>
      <trkpt lat="43.66681" lon="3.80276">
        <ele>134</ele>
        <time>2021-04-24T11:19:13Z</time>
      </trkpt>
      <trkpt lat="43.66679" lon="3.80276">
        <ele>134</ele>
        <time>2021-04-24T11:19:14Z</time>
      </trkpt>
      <trkpt lat="43.66676" lon="3.80275">
        <ele>134</ele>
        <time>2021-04-24T11:19:15Z</time>
      </trkpt>
      <trkpt lat="43.66673" lon="3.80275">
        <ele>134</ele>
        <time>2021-04-24T11:19:16Z</time>
      </trkpt>
      <trkpt lat="43.6667" lon="3.80275">
        <ele>134</ele>
        <time>2021-04-24T11:19:17Z</time>
      </trkpt>
      <trkpt lat="43.66666" lon="3.80274">
        <ele>134</ele>
        <time>2021-04-24T11:19:18Z</time>
      </trkpt>
      <trkpt lat="43.66664" lon="3.80274">
        <ele>134</ele>
        <time>2021-04-24T11:19:19Z</time>
      </trkpt>
      <trkpt lat="43.66661" lon="3.80273">
        <ele>134</ele>
        <time>2021-04-24T11:19:20Z</time>
      </trkpt>
      <trkpt lat="43.66658" lon="3.80273">
        <ele>134</ele>
        <time>2021-04-24T11:19:21Z</time>
      </trkpt>
      <trkpt lat="43.66655" lon="3.80273">
        <ele>134</ele>
        <time>2021-04-24T11:19:22Z</time>
      </trkpt>
      <trkpt lat="43.66652" lon="3.80273">
        <ele>133</ele>
        <time>2021-04-24T11:19:23Z</time>
      </trkpt>
      <trkpt lat="43.66649" lon="3.80273">
        <ele>133</ele>
        <time>2021-04-24T11:19:24Z</time>
      </trkpt>
      <trkpt lat="43.66646" lon="3.80273">
        <ele>133</ele>
        <time>2021-04-24T11:19:25Z</time>
      </trkpt>
      <trkpt lat="43.66643" lon="3.80272">
        <ele>133</ele>
        <time>2021-04-24T11:19:26Z</time>
      </trkpt>
      <trkpt lat="43.66641" lon="3.80272">
        <ele>133</ele>
        <time>2021-04-24T11:19:27Z</time>
      </trkpt>
      <trkpt lat="43.66638" lon="3.80272">
        <ele>133</ele>
        <time>2021-04-24T11:19:28Z</time>
      </trkpt>
      <trkpt lat="43.66635" lon="3.80272">
        <ele>133</ele>
        <time>2021-04-24T11:19:29Z</time>
      </trkpt>
      <trkpt lat="43.66632" lon="3.80272">
        <ele>133</ele>
        <time>2021-04-24T11:19:30Z</time>
      </trkpt>
      <trkpt lat="43.66629" lon="3.80272">
        <ele>133</ele>
        <time>2021-04-24T11:19:31Z</time>
      </trkpt>
      <trkpt lat="43.66627" lon="3.80273">
        <ele>133</ele>
        <time>2021-04-24T11:19:32Z</time>
      </trkpt>
      <trkpt lat="43.66624" lon="3.80273">
        <ele>134</ele>
        <time>2021-04-24T11:19:33Z</time>
      </trkpt>
      <trkpt lat="43.66622" lon="3.80274">
        <ele>134</ele>
        <time>2021-04-24T11:19:34Z</time>
      </trkpt>
      <trkpt lat="43.66619" lon="3.80275">
        <ele>134</ele>
        <time>2021-04-24T11:19:35Z</time>
      </trkpt>
      <trkpt lat="43.66616" lon="3.80276">
        <ele>134</ele>
        <time>2021-04-24T11:19:36Z</time>
      </trkpt>
      <trkpt lat="43.66613" lon="3.80276">
        <ele>134</ele>
        <time>2021-04-24T11:19:37Z</time>
      </trkpt>
      <trkpt lat="43.66611" lon="3.80277">
        <ele>134</ele>
        <time>2021-04-24T11:19:38Z</time>
      </trkpt>
      <trkpt lat="43.66608" lon="3.80278">
        <ele>134</ele>
        <time>2021-04-24T11:19:39Z</time>
      </trkpt>
      <trkpt lat="43.66605" lon="3.80279">
        <ele>134</ele>
        <time>2021-04-24T11:19:40Z</time>
      </trkpt>
      <trkpt lat="43.66602" lon="3.8028">
        <ele>134</ele>
        <time>2021-04-24T11:19:41Z</time>
      </trkpt>
      <trkpt lat="43.666" lon="3.80281">
        <ele>134</ele>
        <time>2021-04-24T11:19:42Z</time>
      </trkpt>
      <trkpt lat="43.66597" lon="3.80282">
        <ele>135</ele>
        <time>2021-04-24T11:19:43Z</time>
      </trkpt>
      <trkpt lat="43.66595" lon="3.80283">
        <ele>135</ele>
        <time>2021-04-24T11:19:44Z</time>
      </trkpt>
      <trkpt lat="43.66593" lon="3.80285">
        <ele>135</ele>
        <time>2021-04-24T11:19:45Z</time>
      </trkpt>
      <trkpt lat="43.66591" lon="3.80287">
        <ele>135</ele>
        <time>2021-04-24T11:19:46Z</time>
      </trkpt>
      <trkpt lat="43.6659" lon="3.80289">
        <ele>135</ele>
        <time>2021-04-24T11:19:47Z</time>
      </trkpt>
      <trkpt lat="43.66587" lon="3.80292">
        <ele>135</ele>
        <time>2021-04-24T11:19:49Z</time>
      </trkpt>
      <trkpt lat="43.66584" lon="3.80295">
        <ele>135</ele>
        <time>2021-04-24T11:19:51Z</time>
      </trkpt>
      <trkpt lat="43.66581" lon="3.80297">
        <ele>136</ele>
        <time>2021-04-24T11:19:53Z</time>
      </trkpt>
      <trkpt lat="43.6658" lon="3.80298">
        <ele>136</ele>
        <time>2021-04-24T11:19:54Z</time>
      </trkpt>
      <trkpt lat="43.66578" lon="3.80299">
        <ele>136</ele>
        <time>2021-04-24T11:19:55Z</time>
      </trkpt>
      <trkpt lat="43.66576" lon="3.803">
        <ele>136</ele>
        <time>2021-04-24T11:19:56Z</time>
      </trkpt>
      <trkpt lat="43.66574" lon="3.80302">
        <ele>136</ele>
        <time>2021-04-24T11:19:58Z</time>
      </trkpt>
      <trkpt lat="43.66571" lon="3.80304">
        <ele>136</ele>
        <time>2021-04-24T11:20:00Z</time>
      </trkpt>
      <trkpt lat="43.66569" lon="3.80305">
        <ele>136</ele>
        <time>2021-04-24T11:20:02Z</time>
      </trkpt>
      <trkpt lat="43.66567" lon="3.80307">
        <ele>136</ele>
        <time>2021-04-24T11:20:04Z</time>
      </trkpt>
      <trkpt lat="43.66565" lon="3.8031">
        <ele>136</ele>
        <time>2021-04-24T11:20:06Z</time>
      </trkpt>
      <trkpt lat="43.66563" lon="3.80312">
        <ele>136</ele>
        <time>2021-04-24T11:20:08Z</time>
      </trkpt>
      <trkpt lat="43.66561" lon="3.80314">
        <ele>136</ele>
        <time>2021-04-24T11:20:10Z</time>
      </trkpt>
      <trkpt lat="43.66559" lon="3.80316">
        <ele>136</ele>
        <time>2021-04-24T11:20:12Z</time>
      </trkpt>
      <trkpt lat="43.66557" lon="3.80319">
        <ele>136</ele>
        <time>2021-04-24T11:20:14Z</time>
      </trkpt>
      <trkpt lat="43.66555" lon="3.80322">
        <ele>136</ele>
        <time>2021-04-24T11:20:16Z</time>
      </trkpt>
      <trkpt lat="43.66553" lon="3.80323">
        <ele>136</ele>
        <time>2021-04-24T11:20:18Z</time>
      </trkpt>
      <trkpt lat="43.66551" lon="3.80324">
        <ele>136</ele>
        <time>2021-04-24T11:20:20Z</time>
      </trkpt>
      <trkpt lat="43.66549" lon="3.80326">
        <ele>136</ele>
        <time>2021-04-24T11:20:22Z</time>
      </trkpt>
      <trkpt lat="43.66547" lon="3.80328">
        <ele>136</ele>
        <time>2021-04-24T11:20:24Z</time>
      </trkpt>
      <trkpt lat="43.66546" lon="3.8033">
        <ele>136</ele>
        <time>2021-04-24T11:20:26Z</time>
      </trkpt>
      <trkpt lat="43.66545" lon="3.80332">
        <ele>136</ele>
        <time>2021-04-24T11:20:28Z</time>
      </trkpt>
      <trkpt lat="43.66543" lon="3.80334">
        <ele>136</ele>
        <time>2021-04-24T11:20:30Z</time>
      </trkpt>
      <trkpt lat="43.66541" lon="3.80336">
        <ele>136</ele>
        <time>2021-04-24T11:20:32Z</time>
      </trkpt>
      <trkpt lat="43.66539" lon="3.80337">
        <ele>136</ele>
        <time>2021-04-24T11:20:34Z</time>
      </trkpt>
      <trkpt lat="43.66537" lon="3.80338">
        <ele>136</ele>
        <time>2021-04-24T11:20:36Z</time>
      </trkpt>
      <trkpt lat="43.66536" lon="3.80341">
        <ele>136</ele>
        <time>2021-04-24T11:20:38Z</time>
      </trkpt>
      <trkpt lat="43.66533" lon="3.80343">
        <ele>136</ele>
        <time>2021-04-24T11:20:40Z</time>
      </trkpt>
      <trkpt lat="43.66531" lon="3.80345">
        <ele>136</ele>
        <time>2021-04-24T11:20:42Z</time>
      </trkpt>
      <trkpt lat="43.66529" lon="3.80347">
        <ele>136</ele>
        <time>2021-04-24T11:20:44Z</time>
      </trkpt>
      <trkpt lat="43.66527" lon="3.80348">
        <ele>136</ele>
        <time>2021-04-24T11:20:46Z</time>
      </trkpt>
      <trkpt lat="43.66525" lon="3.80351">
        <ele>136</ele>
        <time>2021-04-24T11:20:48Z</time>
      </trkpt>
      <trkpt lat="43.66522" lon="3.80354">
        <ele>136</ele>
        <time>2021-04-24T11:20:50Z</time>
      </trkpt>
      <trkpt lat="43.66521" lon="3.80356">
        <ele>136</ele>
        <time>2021-04-24T11:20:51Z</time>
      </trkpt>
      <trkpt lat="43.66519" lon="3.80357">
        <ele>136</ele>
        <time>2021-04-24T11:20:52Z</time>
      </trkpt>
      <trkpt lat="43.66518" lon="3.80359">
        <ele>145</ele>
        <time>2021-04-24T11:20:53Z</time>
      </trkpt>
      <trkpt lat="43.66516" lon="3.80363">
        <ele>145</ele>
        <time>2021-04-24T11:20:55Z</time>
      </trkpt>
      <trkpt lat="43.66513" lon="3.80367">
        <ele>145</ele>
        <time>2021-04-24T11:20:57Z</time>
      </trkpt>
      <trkpt lat="43.66512" lon="3.80368">
        <ele>145</ele>
        <time>2021-04-24T11:20:58Z</time>
      </trkpt>
      <trkpt lat="43.6651" lon="3.80372">
        <ele>145</ele>
        <time>2021-04-24T11:21:00Z</time>
      </trkpt>
      <trkpt lat="43.66508" lon="3.80377">
        <ele>145</ele>
        <time>2021-04-24T11:21:02Z</time>
      </trkpt>
      <trkpt lat="43.66507" lon="3.80381">
        <ele>145</ele>
        <time>2021-04-24T11:21:04Z</time>
      </trkpt>
      <trkpt lat="43.66505" lon="3.80386">
        <ele>145</ele>
        <time>2021-04-24T11:21:06Z</time>
      </trkpt>
      <trkpt lat="43.66505" lon="3.80388">
        <ele>145</ele>
        <time>2021-04-24T11:21:07Z</time>
      </trkpt>
      <trkpt lat="43.66504" lon="3.8039">
        <ele>145</ele>
        <time>2021-04-24T11:21:08Z</time>
      </trkpt>
      <trkpt lat="43.66503" lon="3.80393">
        <ele>145</ele>
        <time>2021-04-24T11:21:09Z</time>
      </trkpt>
      <trkpt lat="43.66501" lon="3.80397">
        <ele>145</ele>
        <time>2021-04-24T11:21:11Z</time>
      </trkpt>
      <trkpt lat="43.66499" lon="3.80399">
        <ele>145</ele>
        <time>2021-04-24T11:21:12Z</time>
      </trkpt>
      <trkpt lat="43.66498" lon="3.804">
        <ele>148</ele>
        <time>2021-04-24T11:21:13Z</time>
      </trkpt>
      <trkpt lat="43.66494" lon="3.804">
        <ele>148</ele>
        <time>2021-04-24T11:21:15Z</time>
      </trkpt>
      <trkpt lat="43.6649" lon="3.80402">
        <ele>148</ele>
        <time>2021-04-24T11:21:16Z</time>
      </trkpt>
      <trkpt lat="43.66484" lon="3.80407">
        <ele>148</ele>
        <time>2021-04-24T11:21:18Z</time>
      </trkpt>
      <trkpt lat="43.66482" lon="3.80409">
        <ele>148</ele>
        <time>2021-04-24T11:21:20Z</time>
      </trkpt>
      <trkpt lat="43.66479" lon="3.80411">
        <ele>148</ele>
        <time>2021-04-24T11:21:21Z</time>
      </trkpt>
      <trkpt lat="43.66477" lon="3.80413">
        <ele>148</ele>
        <time>2021-04-24T11:21:22Z</time>
      </trkpt>
      <trkpt lat="43.66474" lon="3.80415">
        <ele>150</ele>
        <time>2021-04-24T11:21:23Z</time>
      </trkpt>
      <trkpt lat="43.66472" lon="3.80417">
        <ele>150</ele>
        <time>2021-04-24T11:21:24Z</time>
      </trkpt>
      <trkpt lat="43.66469" lon="3.80419">
        <ele>150</ele>
        <time>2021-04-24T11:21:25Z</time>
      </trkpt>
      <trkpt lat="43.66466" lon="3.80421">
        <ele>150</ele>
        <time>2021-04-24T11:21:26Z</time>
      </trkpt>
      <trkpt lat="43.66463" lon="3.80422">
        <ele>150</ele>
        <time>2021-04-24T11:21:27Z</time>
      </trkpt>
      <trkpt lat="43.6646" lon="3.80424">
        <ele>150</ele>
        <time>2021-04-24T11:21:28Z</time>
      </trkpt>
      <trkpt lat="43.66456" lon="3.80424">
        <ele>150</ele>
        <time>2021-04-24T11:21:29Z</time>
      </trkpt>
      <trkpt lat="43.66454" lon="3.80425">
        <ele>150</ele>
        <time>2021-04-24T11:21:30Z</time>
      </trkpt>
      <trkpt lat="43.66452" lon="3.80426">
        <ele>150</ele>
        <time>2021-04-24T11:21:31Z</time>
      </trkpt>
      <trkpt lat="43.6645" lon="3.80428">
        <ele>150</ele>
        <time>2021-04-24T11:21:32Z</time>
      </trkpt>
      <trkpt lat="43.66448" lon="3.8043">
        <ele>151</ele>
        <time>2021-04-24T11:21:33Z</time>
      </trkpt>
      <trkpt lat="43.66446" lon="3.80432">
        <ele>151</ele>
        <time>2021-04-24T11:21:34Z</time>
      </trkpt>
      <trkpt lat="43.66437" lon="3.80439">
        <ele>151</ele>
        <time>2021-04-24T11:21:38Z</time>
      </trkpt>
      <trkpt lat="43.6643" lon="3.80449">
        <ele>151</ele>
        <time>2021-04-24T11:21:42Z</time>
      </trkpt>
      <trkpt lat="43.66418" lon="3.80454">
        <ele>151</ele>
        <time>2021-04-24T11:21:45Z</time>
      </trkpt>
      <trkpt lat="43.66415" lon="3.80455">
        <ele>151</ele>
        <time>2021-04-24T11:21:46Z</time>
      </trkpt>
      <trkpt lat="43.66411" lon="3.80455">
        <ele>151</ele>
        <time>2021-04-24T11:21:47Z</time>
      </trkpt>
      <trkpt lat="43.66408" lon="3.80455">
        <ele>151</ele>
        <time>2021-04-24T11:21:48Z</time>
      </trkpt>
      <trkpt lat="43.66405" lon="3.80454">
        <ele>151</ele>
        <time>2021-04-24T11:21:49Z</time>
      </trkpt>
      <trkpt lat="43.66401" lon="3.80452">
        <ele>151</ele>
        <time>2021-04-24T11:21:50Z</time>
      </trkpt>
      <trkpt lat="43.66398" lon="3.8045">
        <ele>151</ele>
        <time>2021-04-24T11:21:51Z</time>
      </trkpt>
      <trkpt lat="43.66394" lon="3.80448">
        <ele>151</ele>
        <time>2021-04-24T11:21:52Z</time>
      </trkpt>
      <trkpt lat="43.66388" lon="3.80443">
        <ele>151</ele>
        <time>2021-04-24T11:21:54Z</time>
      </trkpt>
      <trkpt lat="43.66384" lon="3.80441">
        <ele>151</ele>
        <time>2021-04-24T11:21:55Z</time>
      </trkpt>
      <trkpt lat="43.66381" lon="3.80439">
        <ele>151</ele>
        <time>2021-04-24T11:21:56Z</time>
      </trkpt>
      <trkpt lat="43.66377" lon="3.80436">
        <ele>151</ele>
        <time>2021-04-24T11:21:57Z</time>
      </trkpt>
      <trkpt lat="43.66374" lon="3.80434">
        <ele>151</ele>
        <time>2021-04-24T11:21:58Z</time>
      </trkpt>
      <trkpt lat="43.66371" lon="3.80432">
        <ele>151</ele>
        <time>2021-04-24T11:21:59Z</time>
      </trkpt>
      <trkpt lat="43.66368" lon="3.80429">
        <ele>151</ele>
        <time>2021-04-24T11:22:00Z</time>
      </trkpt>
      <trkpt lat="43.66365" lon="3.80427">
        <ele>151</ele>
        <time>2021-04-24T11:22:01Z</time>
      </trkpt>
      <trkpt lat="43.66363" lon="3.80425">
        <ele>151</ele>
        <time>2021-04-24T11:22:02Z</time>
      </trkpt>
      <trkpt lat="43.6636" lon="3.80423">
        <ele>150</ele>
        <time>2021-04-24T11:22:03Z</time>
      </trkpt>
      <trkpt lat="43.66357" lon="3.8042">
        <ele>150</ele>
        <time>2021-04-24T11:22:04Z</time>
      </trkpt>
      <trkpt lat="43.66354" lon="3.80418">
        <ele>150</ele>
        <time>2021-04-24T11:22:05Z</time>
      </trkpt>
      <trkpt lat="43.66351" lon="3.80415">
        <ele>150</ele>
        <time>2021-04-24T11:22:06Z</time>
      </trkpt>
      <trkpt lat="43.66348" lon="3.80413">
        <ele>150</ele>
        <time>2021-04-24T11:22:07Z</time>
      </trkpt>
      <trkpt lat="43.66344" lon="3.80411">
        <ele>150</ele>
        <time>2021-04-24T11:22:08Z</time>
      </trkpt>
      <trkpt lat="43.66341" lon="3.80408">
        <ele>150</ele>
        <time>2021-04-24T11:22:09Z</time>
      </trkpt>
      <trkpt lat="43.66338" lon="3.80405">
        <ele>150</ele>
        <time>2021-04-24T11:22:10Z</time>
      </trkpt>
      <trkpt lat="43.66335" lon="3.80403">
        <ele>150</ele>
        <time>2021-04-24T11:22:11Z</time>
      </trkpt>
      <trkpt lat="43.66332" lon="3.804">
        <ele>150</ele>
        <time>2021-04-24T11:22:12Z</time>
      </trkpt>
      <trkpt lat="43.6633" lon="3.80398">
        <ele>149</ele>
        <time>2021-04-24T11:22:13Z</time>
      </trkpt>
      <trkpt lat="43.66327" lon="3.80395">
        <ele>149</ele>
        <time>2021-04-24T11:22:14Z</time>
      </trkpt>
      <trkpt lat="43.66324" lon="3.80393">
        <ele>149</ele>
        <time>2021-04-24T11:22:15Z</time>
      </trkpt>
      <trkpt lat="43.66322" lon="3.8039">
        <ele>149</ele>
        <time>2021-04-24T11:22:16Z</time>
      </trkpt>
      <trkpt lat="43.66318" lon="3.80387">
        <ele>149</ele>
        <time>2021-04-24T11:22:17Z</time>
      </trkpt>
      <trkpt lat="43.66315" lon="3.80385">
        <ele>149</ele>
        <time>2021-04-24T11:22:18Z</time>
      </trkpt>
      <trkpt lat="43.66311" lon="3.80382">
        <ele>149</ele>
        <time>2021-04-24T11:22:19Z</time>
      </trkpt>
      <trkpt lat="43.66307" lon="3.80379">
        <ele>149</ele>
        <time>2021-04-24T11:22:20Z</time>
      </trkpt>
      <trkpt lat="43.66304" lon="3.80375">
        <ele>149</ele>
        <time>2021-04-24T11:22:21Z</time>
      </trkpt>
      <trkpt lat="43.66301" lon="3.80372">
        <ele>149</ele>
        <time>2021-04-24T11:22:22Z</time>
      </trkpt>
      <trkpt lat="43.66297" lon="3.80369">
        <ele>149</ele>
        <time>2021-04-24T11:22:23Z</time>
      </trkpt>
      <trkpt lat="43.66294" lon="3.80366">
        <ele>149</ele>
        <time>2021-04-24T11:22:24Z</time>
      </trkpt>
      <trkpt lat="43.66291" lon="3.80363">
        <ele>149</ele>
        <time>2021-04-24T11:22:25Z</time>
      </trkpt>
      <trkpt lat="43.66287" lon="3.80359">
        <ele>149</ele>
        <time>2021-04-24T11:22:26Z</time>
      </trkpt>
      <trkpt lat="43.66284" lon="3.80356">
        <ele>149</ele>
        <time>2021-04-24T11:22:27Z</time>
      </trkpt>
      <trkpt lat="43.66281" lon="3.80353">
        <ele>149</ele>
        <time>2021-04-24T11:22:28Z</time>
      </trkpt>
      <trkpt lat="43.66278" lon="3.8035">
        <ele>149</ele>
        <time>2021-04-24T11:22:29Z</time>
      </trkpt>
      <trkpt lat="43.66274" lon="3.80347">
        <ele>149</ele>
        <time>2021-04-24T11:22:30Z</time>
      </trkpt>
      <trkpt lat="43.66271" lon="3.80344">
        <ele>149</ele>
        <time>2021-04-24T11:22:31Z</time>
      </trkpt>
      <trkpt lat="43.66268" lon="3.80341">
        <ele>149</ele>
        <time>2021-04-24T11:22:32Z</time>
      </trkpt>
      <trkpt lat="43.66265" lon="3.80338">
        <ele>149</ele>
        <time>2021-04-24T11:22:33Z</time>
      </trkpt>
      <trkpt lat="43.66261" lon="3.80336">
        <ele>149</ele>
        <time>2021-04-24T11:22:34Z</time>
      </trkpt>
      <trkpt lat="43.66258" lon="3.80333">
        <ele>149</ele>
        <time>2021-04-24T11:22:35Z</time>
      </trkpt>
      <trkpt lat="43.66255" lon="3.8033">
        <ele>149</ele>
        <time>2021-04-24T11:22:36Z</time>
      </trkpt>
      <trkpt lat="43.66251" lon="3.80327">
        <ele>149</ele>
        <time>2021-04-24T11:22:37Z</time>
      </trkpt>
      <trkpt lat="43.66248" lon="3.80323">
        <ele>149</ele>
        <time>2021-04-24T11:22:38Z</time>
      </trkpt>
      <trkpt lat="43.66245" lon="3.8032">
        <ele>149</ele>
        <time>2021-04-24T11:22:39Z</time>
      </trkpt>
      <trkpt lat="43.66241" lon="3.80317">
        <ele>149</ele>
        <time>2021-04-24T11:22:40Z</time>
      </trkpt>
      <trkpt lat="43.66237" lon="3.80314">
        <ele>149</ele>
        <time>2021-04-24T11:22:41Z</time>
      </trkpt>
      <trkpt lat="43.66233" lon="3.80311">
        <ele>149</ele>
        <time>2021-04-24T11:22:42Z</time>
      </trkpt>
      <trkpt lat="43.66229" lon="3.80308">
        <ele>149</ele>
        <time>2021-04-24T11:22:43Z</time>
      </trkpt>
      <trkpt lat="43.66225" lon="3.80304">
        <ele>149</ele>
        <time>2021-04-24T11:22:44Z</time>
      </trkpt>
      <trkpt lat="43.66221" lon="3.80301">
        <ele>149</ele>
        <time>2021-04-24T11:22:45Z</time>
      </trkpt>
      <trkpt lat="43.66217" lon="3.80298">
        <ele>149</ele>
        <time>2021-04-24T11:22:46Z</time>
      </trkpt>
      <trkpt lat="43.66213" lon="3.80295">
        <ele>149</ele>
        <time>2021-04-24T11:22:47Z</time>
      </trkpt>
      <trkpt lat="43.66209" lon="3.80292">
        <ele>149</ele>
        <time>2021-04-24T11:22:48Z</time>
      </trkpt>
      <trkpt lat="43.66205" lon="3.80288">
        <ele>149</ele>
        <time>2021-04-24T11:22:49Z</time>
      </trkpt>
      <trkpt lat="43.662" lon="3.80285">
        <ele>149</ele>
        <time>2021-04-24T11:22:50Z</time>
      </trkpt>
      <trkpt lat="43.66196" lon="3.80282">
        <ele>149</ele>
        <time>2021-04-24T11:22:51Z</time>
      </trkpt>
      <trkpt lat="43.66192" lon="3.80279">
        <ele>149</ele>
        <time>2021-04-24T11:22:52Z</time>
      </trkpt>
      <trkpt lat="43.66188" lon="3.80276">
        <ele>148</ele>
        <time>2021-04-24T11:22:53Z</time>
      </trkpt>
      <trkpt lat="43.66184" lon="3.80272">
        <ele>148</ele>
        <time>2021-04-24T11:22:54Z</time>
      </trkpt>
      <trkpt lat="43.6618" lon="3.80269">
        <ele>148</ele>
        <time>2021-04-24T11:22:55Z</time>
      </trkpt>
      <trkpt lat="43.66176" lon="3.80266">
        <ele>148</ele>
        <time>2021-04-24T11:22:56Z</time>
      </trkpt>
      <trkpt lat="43.66172" lon="3.80263">
        <ele>148</ele>
        <time>2021-04-24T11:22:57Z</time>
      </trkpt>
      <trkpt lat="43.66169" lon="3.8026">
        <ele>148</ele>
        <time>2021-04-24T11:22:58Z</time>
      </trkpt>
      <trkpt lat="43.66165" lon="3.80257">
        <ele>148</ele>
        <time>2021-04-24T11:22:59Z</time>
      </trkpt>
      <trkpt lat="43.66162" lon="3.80254">
        <ele>148</ele>
        <time>2021-04-24T11:23:00Z</time>
      </trkpt>
      <trkpt lat="43.66158" lon="3.80251">
        <ele>148</ele>
        <time>2021-04-24T11:23:01Z</time>
      </trkpt>
      <trkpt lat="43.66154" lon="3.80249">
        <ele>148</ele>
        <time>2021-04-24T11:23:02Z</time>
      </trkpt>
      <trkpt lat="43.6615" lon="3.80246">
        <ele>148</ele>
        <time>2021-04-24T11:23:03Z</time>
      </trkpt>
      <trkpt lat="43.66147" lon="3.80244">
        <ele>148</ele>
        <time>2021-04-24T11:23:04Z</time>
      </trkpt>
      <trkpt lat="43.66143" lon="3.80241">
        <ele>148</ele>
        <time>2021-04-24T11:23:05Z</time>
      </trkpt>
      <trkpt lat="43.6614" lon="3.80237">
        <ele>148</ele>
        <time>2021-04-24T11:23:06Z</time>
      </trkpt>
      <trkpt lat="43.66137" lon="3.80235">
        <ele>148</ele>
        <time>2021-04-24T11:23:07Z</time>
      </trkpt>
      <trkpt lat="43.66133" lon="3.80232">
        <ele>148</ele>
        <time>2021-04-24T11:23:08Z</time>
      </trkpt>
      <trkpt lat="43.6613" lon="3.80229">
        <ele>148</ele>
        <time>2021-04-24T11:23:09Z</time>
      </trkpt>
      <trkpt lat="43.66126" lon="3.80227">
        <ele>148</ele>
        <time>2021-04-24T11:23:10Z</time>
      </trkpt>
      <trkpt lat="43.66122" lon="3.80224">
        <ele>148</ele>
        <time>2021-04-24T11:23:11Z</time>
      </trkpt>
      <trkpt lat="43.66118" lon="3.80222">
        <ele>148</ele>
        <time>2021-04-24T11:23:12Z</time>
      </trkpt>
      <trkpt lat="43.66115" lon="3.8022">
        <ele>149</ele>
        <time>2021-04-24T11:23:13Z</time>
      </trkpt>
      <trkpt lat="43.66111" lon="3.80218">
        <ele>149</ele>
        <time>2021-04-24T11:23:14Z</time>
      </trkpt>
      <trkpt lat="43.66106" lon="3.80217">
        <ele>149</ele>
        <time>2021-04-24T11:23:15Z</time>
      </trkpt>
      <trkpt lat="43.66102" lon="3.80216">
        <ele>149</ele>
        <time>2021-04-24T11:23:16Z</time>
      </trkpt>
      <trkpt lat="43.66098" lon="3.80215">
        <ele>149</ele>
        <time>2021-04-24T11:23:17Z</time>
      </trkpt>
      <trkpt lat="43.66094" lon="3.80216">
        <ele>149</ele>
        <time>2021-04-24T11:23:18Z</time>
      </trkpt>
      <trkpt lat="43.66091" lon="3.80217">
        <ele>149</ele>
        <time>2021-04-24T11:23:19Z</time>
      </trkpt>
      <trkpt lat="43.66087" lon="3.80219">
        <ele>149</ele>
        <time>2021-04-24T11:23:20Z</time>
      </trkpt>
      <trkpt lat="43.66084" lon="3.80222">
        <ele>149</ele>
        <time>2021-04-24T11:23:21Z</time>
      </trkpt>
      <trkpt lat="43.6608" lon="3.80224">
        <ele>149</ele>
        <time>2021-04-24T11:23:22Z</time>
      </trkpt>
      <trkpt lat="43.66076" lon="3.80227">
        <ele>148</ele>
        <time>2021-04-24T11:23:23Z</time>
      </trkpt>
      <trkpt lat="43.66072" lon="3.8023">
        <ele>148</ele>
        <time>2021-04-24T11:23:24Z</time>
      </trkpt>
      <trkpt lat="43.66068" lon="3.80232">
        <ele>148</ele>
        <time>2021-04-24T11:23:25Z</time>
      </trkpt>
      <trkpt lat="43.66064" lon="3.80234">
        <ele>148</ele>
        <time>2021-04-24T11:23:26Z</time>
      </trkpt>
      <trkpt lat="43.6606" lon="3.80235">
        <ele>148</ele>
        <time>2021-04-24T11:23:27Z</time>
      </trkpt>
      <trkpt lat="43.66056" lon="3.80236">
        <ele>148</ele>
        <time>2021-04-24T11:23:28Z</time>
      </trkpt>
      <trkpt lat="43.66052" lon="3.80237">
        <ele>148</ele>
        <time>2021-04-24T11:23:29Z</time>
      </trkpt>
      <trkpt lat="43.66048" lon="3.80238">
        <ele>148</ele>
        <time>2021-04-24T11:23:30Z</time>
      </trkpt>
      <trkpt lat="43.66045" lon="3.80238">
        <ele>148</ele>
        <time>2021-04-24T11:23:31Z</time>
      </trkpt>
      <trkpt lat="43.66041" lon="3.80239">
        <ele>148</ele>
        <time>2021-04-24T11:23:32Z</time>
      </trkpt>
      <trkpt lat="43.66037" lon="3.80239">
        <ele>147</ele>
        <time>2021-04-24T11:23:33Z</time>
      </trkpt>
      <trkpt lat="43.66033" lon="3.8024">
        <ele>147</ele>
        <time>2021-04-24T11:23:34Z</time>
      </trkpt>
      <trkpt lat="43.66029" lon="3.8024">
        <ele>147</ele>
        <time>2021-04-24T11:23:35Z</time>
      </trkpt>
      <trkpt lat="43.66024" lon="3.80241">
        <ele>147</ele>
        <time>2021-04-24T11:23:36Z</time>
      </trkpt>
      <trkpt lat="43.6602" lon="3.80241">
        <ele>147</ele>
        <time>2021-04-24T11:23:37Z</time>
      </trkpt>
      <trkpt lat="43.66016" lon="3.80241">
        <ele>147</ele>
        <time>2021-04-24T11:23:38Z</time>
      </trkpt>
      <trkpt lat="43.66012" lon="3.80241">
        <ele>147</ele>
        <time>2021-04-24T11:23:39Z</time>
      </trkpt>
      <trkpt lat="43.66007" lon="3.80241">
        <ele>147</ele>
        <time>2021-04-24T11:23:40Z</time>
      </trkpt>
      <trkpt lat="43.66003" lon="3.80241">
        <ele>147</ele>
        <time>2021-04-24T11:23:41Z</time>
      </trkpt>
      <trkpt lat="43.65999" lon="3.8024">
        <ele>147</ele>
        <time>2021-04-24T11:23:42Z</time>
      </trkpt>
      <trkpt lat="43.65994" lon="3.8024">
        <ele>146</ele>
        <time>2021-04-24T11:23:43Z</time>
      </trkpt>
      <trkpt lat="43.6599" lon="3.80239">
        <ele>146</ele>
        <time>2021-04-24T11:23:44Z</time>
      </trkpt>
      <trkpt lat="43.65986" lon="3.80237">
        <ele>146</ele>
        <time>2021-04-24T11:23:45Z</time>
      </trkpt>
      <trkpt lat="43.65982" lon="3.80236">
        <ele>146</ele>
        <time>2021-04-24T11:23:46Z</time>
      </trkpt>
      <trkpt lat="43.65977" lon="3.80234">
        <ele>146</ele>
        <time>2021-04-24T11:23:47Z</time>
      </trkpt>
      <trkpt lat="43.65973" lon="3.80232">
        <ele>146</ele>
        <time>2021-04-24T11:23:48Z</time>
      </trkpt>
      <trkpt lat="43.65969" lon="3.8023">
        <ele>146</ele>
        <time>2021-04-24T11:23:49Z</time>
      </trkpt>
      <trkpt lat="43.65964" lon="3.80228">
        <ele>146</ele>
        <time>2021-04-24T11:23:50Z</time>
      </trkpt>
      <trkpt lat="43.6596" lon="3.80229">
        <ele>146</ele>
        <time>2021-04-24T11:23:51Z</time>
      </trkpt>
      <trkpt lat="43.65957" lon="3.80232">
        <ele>146</ele>
        <time>2021-04-24T11:23:52Z</time>
      </trkpt>
      <trkpt lat="43.65955" lon="3.80237">
        <ele>145</ele>
        <time>2021-04-24T11:23:53Z</time>
      </trkpt>
      <trkpt lat="43.65953" lon="3.80243">
        <ele>145</ele>
        <time>2021-04-24T11:23:54Z</time>
      </trkpt>
      <trkpt lat="43.65952" lon="3.80248">
        <ele>145</ele>
        <time>2021-04-24T11:23:55Z</time>
      </trkpt>
      <trkpt lat="43.65951" lon="3.80254">
        <ele>145</ele>
        <time>2021-04-24T11:23:56Z</time>
      </trkpt>
      <trkpt lat="43.6595" lon="3.8026">
        <ele>145</ele>
        <time>2021-04-24T11:23:57Z</time>
      </trkpt>
      <trkpt lat="43.65949" lon="3.80265">
        <ele>145</ele>
        <time>2021-04-24T11:23:58Z</time>
      </trkpt>
      <trkpt lat="43.65948" lon="3.80269">
        <ele>145</ele>
        <time>2021-04-24T11:23:59Z</time>
      </trkpt>
      <trkpt lat="43.65946" lon="3.80272">
        <ele>145</ele>
        <time>2021-04-24T11:24:00Z</time>
      </trkpt>
      <trkpt lat="43.65944" lon="3.80274">
        <ele>145</ele>
        <time>2021-04-24T11:24:01Z</time>
      </trkpt>
      <trkpt lat="43.65942" lon="3.80277">
        <ele>145</ele>
        <time>2021-04-24T11:24:03Z</time>
      </trkpt>
      <trkpt lat="43.6594" lon="3.80279">
        <ele>145</ele>
        <time>2021-04-24T11:24:05Z</time>
      </trkpt>
      <trkpt lat="43.65939" lon="3.80276">
        <ele>145</ele>
        <time>2021-04-24T11:24:07Z</time>
      </trkpt>
      <trkpt lat="43.65942" lon="3.80276">
        <ele>145</ele>
        <time>2021-04-24T11:24:09Z</time>
      </trkpt>
      <trkpt lat="43.65944" lon="3.80277">
        <ele>145</ele>
        <time>2021-04-24T11:24:10Z</time>
      </trkpt>
      <trkpt lat="43.65945" lon="3.80278">
        <ele>145</ele>
        <time>2021-04-24T11:24:11Z</time>
      </trkpt>
      <trkpt lat="43.65947" lon="3.8028">
        <ele>145</ele>
        <time>2021-04-24T11:24:12Z</time>
      </trkpt>
      <trkpt lat="43.65948" lon="3.80282">
        <ele>145</ele>
        <time>2021-04-24T11:24:13Z</time>
      </trkpt>
      <trkpt lat="43.65949" lon="3.80283">
        <ele>145</ele>
        <time>2021-04-24T11:24:20Z</time>
      </trkpt>
      <trkpt lat="43.65948" lon="3.80291">
        <ele>144</ele>
        <time>2021-04-24T11:34:07Z</time>
      </trkpt>
      <trkpt lat="43.65947" lon="3.80295">
        <ele>144</ele>
        <time>2021-04-24T11:34:08Z</time>
      </trkpt>
      <trkpt lat="43.65946" lon="3.80299">
        <ele>144</ele>
        <time>2021-04-24T11:34:09Z</time>
      </trkpt>
      <trkpt lat="43.65945" lon="3.80303">
        <ele>144</ele>
        <time>2021-04-24T11:34:10Z</time>
      </trkpt>
      <trkpt lat="43.65945" lon="3.80307">
        <ele>144</ele>
        <time>2021-04-24T11:34:11Z</time>
      </trkpt>
      <trkpt lat="43.65944" lon="3.80311">
        <ele>144</ele>
        <time>2021-04-24T11:34:12Z</time>
      </trkpt>
      <trkpt lat="43.65944" lon="3.80316">
        <ele>144</ele>
        <time>2021-04-24T11:34:13Z</time>
      </trkpt>
      <trkpt lat="43.65944" lon="3.80321">
        <ele>144</ele>
        <time>2021-04-24T11:34:14Z</time>
      </trkpt>
      <trkpt lat="43.65943" lon="3.80326">
        <ele>144</ele>
        <time>2021-04-24T11:34:15Z</time>
      </trkpt>
      <trkpt lat="43.65942" lon="3.80331">
        <ele>144</ele>
        <time>2021-04-24T11:34:16Z</time>
      </trkpt>
      <trkpt lat="43.65942" lon="3.80335">
        <ele>143</ele>
        <time>2021-04-24T11:34:17Z</time>
      </trkpt>
      <trkpt lat="43.65941" lon="3.8034">
        <ele>143</ele>
        <time>2021-04-24T11:34:18Z</time>
      </trkpt>
      <trkpt lat="43.65941" lon="3.80345">
        <ele>143</ele>
        <time>2021-04-24T11:34:19Z</time>
      </trkpt>
      <trkpt lat="43.6594" lon="3.8035">
        <ele>143</ele>
        <time>2021-04-24T11:34:20Z</time>
      </trkpt>
      <trkpt lat="43.6594" lon="3.80355">
        <ele>143</ele>
        <time>2021-04-24T11:34:21Z</time>
      </trkpt>
      <trkpt lat="43.65939" lon="3.80359">
        <ele>143</ele>
        <time>2021-04-24T11:34:22Z</time>
      </trkpt>
      <trkpt lat="43.65939" lon="3.80364">
        <ele>143</ele>
        <time>2021-04-24T11:34:23Z</time>
      </trkpt>
      <trkpt lat="43.65938" lon="3.80369">
        <ele>143</ele>
        <time>2021-04-24T11:34:24Z</time>
      </trkpt>
      <trkpt lat="43.65938" lon="3.80374">
        <ele>143</ele>
        <time>2021-04-24T11:34:25Z</time>
      </trkpt>
      <trkpt lat="43.65936" lon="3.80377">
        <ele>143</ele>
        <time>2021-04-24T11:34:26Z</time>
      </trkpt>
      <trkpt lat="43.65933" lon="3.8038">
        <ele>143</ele>
        <time>2021-04-24T11:34:27Z</time>
      </trkpt>
      <trkpt lat="43.65931" lon="3.80382">
        <ele>143</ele>
        <time>2021-04-24T11:34:28Z</time>
      </trkpt>
      <trkpt lat="43.65929" lon="3.80383">
        <ele>143</ele>
        <time>2021-04-24T11:34:29Z</time>
      </trkpt>
      <trkpt lat="43.65926" lon="3.80383">
        <ele>143</ele>
        <time>2021-04-24T11:34:30Z</time>
      </trkpt>
      <trkpt lat="43.65924" lon="3.8038">
        <ele>143</ele>
        <time>2021-04-24T11:34:31Z</time>
      </trkpt>
      <trkpt lat="43.65923" lon="3.80376">
        <ele>143</ele>
        <time>2021-04-24T11:34:32Z</time>
      </trkpt>
      <trkpt lat="43.65921" lon="3.80371">
        <ele>143</ele>
        <time>2021-04-24T11:34:33Z</time>
      </trkpt>
      <trkpt lat="43.6592" lon="3.80367">
        <ele>143</ele>
        <time>2021-04-24T11:34:34Z</time>
      </trkpt>
      <trkpt lat="43.65918" lon="3.80362">
        <ele>143</ele>
        <time>2021-04-24T11:34:35Z</time>
      </trkpt>
      <trkpt lat="43.65917" lon="3.80356">
        <ele>143</ele>
        <time>2021-04-24T11:34:36Z</time>
      </trkpt>
      <trkpt lat="43.65916" lon="3.80351">
        <ele>143</ele>
        <time>2021-04-24T11:34:37Z</time>
      </trkpt>
      <trkpt lat="43.65915" lon="3.80347">
        <ele>143</ele>
        <time>2021-04-24T11:34:38Z</time>
      </trkpt>
      <trkpt lat="43.65913" lon="3.80342">
        <ele>143</ele>
        <time>2021-04-24T11:34:39Z</time>
      </trkpt>
      <trkpt lat="43.65911" lon="3.80337">
        <ele>143</ele>
        <time>2021-04-24T11:34:40Z</time>
      </trkpt>
      <trkpt lat="43.65908" lon="3.80333">
        <ele>143</ele>
        <time>2021-04-24T11:34:41Z</time>
      </trkpt>
      <trkpt lat="43.65906" lon="3.80328">
        <ele>143</ele>
        <time>2021-04-24T11:34:42Z</time>
      </trkpt>
      <trkpt lat="43.65903" lon="3.80324">
        <ele>143</ele>
        <time>2021-04-24T11:34:43Z</time>
      </trkpt>
      <trkpt lat="43.659" lon="3.8032">
        <ele>143</ele>
        <time>2021-04-24T11:34:44Z</time>
      </trkpt>
      <trkpt lat="43.65897" lon="3.80317">
        <ele>143</ele>
        <time>2021-04-24T11:34:45Z</time>
      </trkpt>
      <trkpt lat="43.65894" lon="3.80313">
        <ele>143</ele>
        <time>2021-04-24T11:34:46Z</time>
      </trkpt>
      <trkpt lat="43.65891" lon="3.80309">
        <ele>144</ele>
        <time>2021-04-24T11:34:47Z</time>
      </trkpt>
      <trkpt lat="43.65888" lon="3.80306">
        <ele>144</ele>
        <time>2021-04-24T11:34:48Z</time>
      </trkpt>
      <trkpt lat="43.65884" lon="3.80303">
        <ele>144</ele>
        <time>2021-04-24T11:34:49Z</time>
      </trkpt>
      <trkpt lat="43.65881" lon="3.80299">
        <ele>144</ele>
        <time>2021-04-24T11:34:50Z</time>
      </trkpt>
      <trkpt lat="43.65877" lon="3.80296">
        <ele>144</ele>
        <time>2021-04-24T11:34:51Z</time>
      </trkpt>
      <trkpt lat="43.65873" lon="3.80293">
        <ele>144</ele>
        <time>2021-04-24T11:34:52Z</time>
      </trkpt>
      <trkpt lat="43.6587" lon="3.8029">
        <ele>144</ele>
        <time>2021-04-24T11:34:53Z</time>
      </trkpt>
      <trkpt lat="43.65866" lon="3.80287">
        <ele>144</ele>
        <time>2021-04-24T11:34:54Z</time>
      </trkpt>
      <trkpt lat="43.65863" lon="3.80284">
        <ele>144</ele>
        <time>2021-04-24T11:34:55Z</time>
      </trkpt>
      <trkpt lat="43.65859" lon="3.80281">
        <ele>144</ele>
        <time>2021-04-24T11:34:56Z</time>
      </trkpt>
      <trkpt lat="43.65855" lon="3.80278">
        <ele>144</ele>
        <time>2021-04-24T11:34:57Z</time>
      </trkpt>
      <trkpt lat="43.65852" lon="3.80276">
        <ele>144</ele>
        <time>2021-04-24T11:34:58Z</time>
      </trkpt>
      <trkpt lat="43.65848" lon="3.80274">
        <ele>144</ele>
        <time>2021-04-24T11:34:59Z</time>
      </trkpt>
      <trkpt lat="43.65844" lon="3.80271">
        <ele>144</ele>
        <time>2021-04-24T11:35:00Z</time>
      </trkpt>
      <trkpt lat="43.6584" lon="3.80269">
        <ele>144</ele>
        <time>2021-04-24T11:35:01Z</time>
      </trkpt>
      <trkpt lat="43.65836" lon="3.80267">
        <ele>144</ele>
        <time>2021-04-24T11:35:02Z</time>
      </trkpt>
      <trkpt lat="43.65832" lon="3.80264">
        <ele>144</ele>
        <time>2021-04-24T11:35:03Z</time>
      </trkpt>
      <trkpt lat="43.65828" lon="3.80262">
        <ele>144</ele>
        <time>2021-04-24T11:35:04Z</time>
      </trkpt>
      <trkpt lat="43.65824" lon="3.80259">
        <ele>144</ele>
        <time>2021-04-24T11:35:05Z</time>
      </trkpt>
      <trkpt lat="43.6582" lon="3.80257">
        <ele>144</ele>
        <time>2021-04-24T11:35:06Z</time>
      </trkpt>
      <trkpt lat="43.65817" lon="3.80255">
        <ele>145</ele>
        <time>2021-04-24T11:35:07Z</time>
      </trkpt>
      <trkpt lat="43.65813" lon="3.80253">
        <ele>145</ele>
        <time>2021-04-24T11:35:08Z</time>
      </trkpt>
      <trkpt lat="43.65809" lon="3.80251">
        <ele>145</ele>
        <time>2021-04-24T11:35:09Z</time>
      </trkpt>
      <trkpt lat="43.65805" lon="3.8025">
        <ele>145</ele>
        <time>2021-04-24T11:35:10Z</time>
      </trkpt>
      <trkpt lat="43.65801" lon="3.80248">
        <ele>145</ele>
        <time>2021-04-24T11:35:11Z</time>
      </trkpt>
      <trkpt lat="43.65797" lon="3.80246">
        <ele>145</ele>
        <time>2021-04-24T11:35:12Z</time>
      </trkpt>
      <trkpt lat="43.65793" lon="3.80244">
        <ele>145</ele>
        <time>2021-04-24T11:35:13Z</time>
      </trkpt>
      <trkpt lat="43.6579" lon="3.80243">
        <ele>145</ele>
        <time>2021-04-24T11:35:14Z</time>
      </trkpt>
      <trkpt lat="43.65786" lon="3.80241">
        <ele>145</ele>
        <time>2021-04-24T11:35:15Z</time>
      </trkpt>
      <trkpt lat="43.65782" lon="3.80239">
        <ele>145</ele>
        <time>2021-04-24T11:35:16Z</time>
      </trkpt>
      <trkpt lat="43.65778" lon="3.80238">
        <ele>146</ele>
        <time>2021-04-24T11:35:17Z</time>
      </trkpt>
      <trkpt lat="43.65775" lon="3.80236">
        <ele>146</ele>
        <time>2021-04-24T11:35:18Z</time>
      </trkpt>
      <trkpt lat="43.65772" lon="3.80234">
        <ele>146</ele>
        <time>2021-04-24T11:35:19Z</time>
      </trkpt>
      <trkpt lat="43.65768" lon="3.80233">
        <ele>146</ele>
        <time>2021-04-24T11:35:20Z</time>
      </trkpt>
      <trkpt lat="43.65765" lon="3.80231">
        <ele>146</ele>
        <time>2021-04-24T11:35:21Z</time>
      </trkpt>
      <trkpt lat="43.65761" lon="3.80229">
        <ele>146</ele>
        <time>2021-04-24T11:35:22Z</time>
      </trkpt>
      <trkpt lat="43.65757" lon="3.80227">
        <ele>146</ele>
        <time>2021-04-24T11:35:23Z</time>
      </trkpt>
      <trkpt lat="43.65754" lon="3.80225">
        <ele>146</ele>
        <time>2021-04-24T11:35:24Z</time>
      </trkpt>
      <trkpt lat="43.6575" lon="3.80224">
        <ele>146</ele>
        <time>2021-04-24T11:35:25Z</time>
      </trkpt>
      <trkpt lat="43.65746" lon="3.80222">
        <ele>146</ele>
        <time>2021-04-24T11:35:26Z</time>
      </trkpt>
      <trkpt lat="43.65742" lon="3.8022">
        <ele>147</ele>
        <time>2021-04-24T11:35:27Z</time>
      </trkpt>
      <trkpt lat="43.65739" lon="3.80218">
        <ele>147</ele>
        <time>2021-04-24T11:35:28Z</time>
      </trkpt>
      <trkpt lat="43.65735" lon="3.80217">
        <ele>147</ele>
        <time>2021-04-24T11:35:29Z</time>
      </trkpt>
      <trkpt lat="43.65731" lon="3.80215">
        <ele>147</ele>
        <time>2021-04-24T11:35:30Z</time>
      </trkpt>
      <trkpt lat="43.65727" lon="3.80214">
        <ele>147</ele>
        <time>2021-04-24T11:35:31Z</time>
      </trkpt>
      <trkpt lat="43.65723" lon="3.80213">
        <ele>147</ele>
        <time>2021-04-24T11:35:32Z</time>
      </trkpt>
      <trkpt lat="43.65719" lon="3.80212">
        <ele>147</ele>
        <time>2021-04-24T11:35:33Z</time>
      </trkpt>
      <trkpt lat="43.65715" lon="3.80212">
        <ele>147</ele>
        <time>2021-04-24T11:35:34Z</time>
      </trkpt>
      <trkpt lat="43.6571" lon="3.80211">
        <ele>147</ele>
        <time>2021-04-24T11:35:35Z</time>
      </trkpt>
      <trkpt lat="43.65706" lon="3.80211">
        <ele>147</ele>
        <time>2021-04-24T11:35:36Z</time>
      </trkpt>
      <trkpt lat="43.65702" lon="3.8021">
        <ele>146</ele>
        <time>2021-04-24T11:35:37Z</time>
      </trkpt>
      <trkpt lat="43.65698" lon="3.80209">
        <ele>146</ele>
        <time>2021-04-24T11:35:38Z</time>
      </trkpt>
      <trkpt lat="43.65694" lon="3.80209">
        <ele>146</ele>
        <time>2021-04-24T11:35:39Z</time>
      </trkpt>
      <trkpt lat="43.6569" lon="3.80208">
        <ele>146</ele>
        <time>2021-04-24T11:35:40Z</time>
      </trkpt>
      <trkpt lat="43.65686" lon="3.80207">
        <ele>146</ele>
        <time>2021-04-24T11:35:41Z</time>
      </trkpt>
      <trkpt lat="43.65682" lon="3.80207">
        <ele>146</ele>
        <time>2021-04-24T11:35:42Z</time>
      </trkpt>
      <trkpt lat="43.65679" lon="3.80206">
        <ele>146</ele>
        <time>2021-04-24T11:35:43Z</time>
      </trkpt>
      <trkpt lat="43.65675" lon="3.80207">
        <ele>146</ele>
        <time>2021-04-24T11:35:44Z</time>
      </trkpt>
      <trkpt lat="43.65671" lon="3.80206">
        <ele>146</ele>
        <time>2021-04-24T11:35:45Z</time>
      </trkpt>
      <trkpt lat="43.65667" lon="3.80206">
        <ele>146</ele>
        <time>2021-04-24T11:35:46Z</time>
      </trkpt>
      <trkpt lat="43.65662" lon="3.80206">
        <ele>146</ele>
        <time>2021-04-24T11:35:47Z</time>
      </trkpt>
      <trkpt lat="43.65658" lon="3.80205">
        <ele>146</ele>
        <time>2021-04-24T11:35:48Z</time>
      </trkpt>
      <trkpt lat="43.65654" lon="3.80204">
        <ele>146</ele>
        <time>2021-04-24T11:35:49Z</time>
      </trkpt>
      <trkpt lat="43.65649" lon="3.80203">
        <ele>146</ele>
        <time>2021-04-24T11:35:50Z</time>
      </trkpt>
      <trkpt lat="43.65645" lon="3.80203">
        <ele>146</ele>
        <time>2021-04-24T11:35:51Z</time>
      </trkpt>
      <trkpt lat="43.6564" lon="3.80202">
        <ele>146</ele>
        <time>2021-04-24T11:35:52Z</time>
      </trkpt>
      <trkpt lat="43.65635" lon="3.80202">
        <ele>146</ele>
        <time>2021-04-24T11:35:53Z</time>
      </trkpt>
      <trkpt lat="43.65631" lon="3.80201">
        <ele>146</ele>
        <time>2021-04-24T11:35:54Z</time>
      </trkpt>
      <trkpt lat="43.65626" lon="3.802">
        <ele>146</ele>
        <time>2021-04-24T11:35:55Z</time>
      </trkpt>
      <trkpt lat="43.65621" lon="3.802">
        <ele>146</ele>
        <time>2021-04-24T11:35:56Z</time>
      </trkpt>
      <trkpt lat="43.65616" lon="3.80199">
        <ele>145</ele>
        <time>2021-04-24T11:35:57Z</time>
      </trkpt>
      <trkpt lat="43.65612" lon="3.80198">
        <ele>145</ele>
        <time>2021-04-24T11:35:58Z</time>
      </trkpt>
      <trkpt lat="43.65608" lon="3.80197">
        <ele>145</ele>
        <time>2021-04-24T11:35:59Z</time>
      </trkpt>
      <trkpt lat="43.65604" lon="3.80196">
        <ele>145</ele>
        <time>2021-04-24T11:36:00Z</time>
      </trkpt>
      <trkpt lat="43.656" lon="3.80195">
        <ele>145</ele>
        <time>2021-04-24T11:36:01Z</time>
      </trkpt>
      <trkpt lat="43.65597" lon="3.80194">
        <ele>145</ele>
        <time>2021-04-24T11:36:02Z</time>
      </trkpt>
      <trkpt lat="43.65593" lon="3.80192">
        <ele>145</ele>
        <time>2021-04-24T11:36:03Z</time>
      </trkpt>
      <trkpt lat="43.6559" lon="3.80191">
        <ele>145</ele>
        <time>2021-04-24T11:36:04Z</time>
      </trkpt>
      <trkpt lat="43.65586" lon="3.8019">
        <ele>145</ele>
        <time>2021-04-24T11:36:05Z</time>
      </trkpt>
      <trkpt lat="43.65583" lon="3.80188">
        <ele>145</ele>
        <time>2021-04-24T11:36:06Z</time>
      </trkpt>
      <trkpt lat="43.65581" lon="3.80185">
        <ele>145</ele>
        <time>2021-04-24T11:36:07Z</time>
      </trkpt>
      <trkpt lat="43.65578" lon="3.80182">
        <ele>145</ele>
        <time>2021-04-24T11:36:08Z</time>
      </trkpt>
      <trkpt lat="43.65577" lon="3.80178">
        <ele>145</ele>
        <time>2021-04-24T11:36:09Z</time>
      </trkpt>
      <trkpt lat="43.65575" lon="3.80175">
        <ele>145</ele>
        <time>2021-04-24T11:36:10Z</time>
      </trkpt>
      <trkpt lat="43.65574" lon="3.80171">
        <ele>145</ele>
        <time>2021-04-24T11:36:11Z</time>
      </trkpt>
      <trkpt lat="43.65573" lon="3.80167">
        <ele>145</ele>
        <time>2021-04-24T11:36:12Z</time>
      </trkpt>
      <trkpt lat="43.65572" lon="3.80164">
        <ele>145</ele>
        <time>2021-04-24T11:36:13Z</time>
      </trkpt>
      <trkpt lat="43.65571" lon="3.8016">
        <ele>145</ele>
        <time>2021-04-24T11:36:14Z</time>
      </trkpt>
      <trkpt lat="43.6557" lon="3.80157">
        <ele>145</ele>
        <time>2021-04-24T11:36:15Z</time>
      </trkpt>
      <trkpt lat="43.6557" lon="3.80154">
        <ele>145</ele>
        <time>2021-04-24T11:36:16Z</time>
      </trkpt>
      <trkpt lat="43.65569" lon="3.80152">
        <ele>146</ele>
        <time>2021-04-24T11:36:17Z</time>
      </trkpt>
      <trkpt lat="43.65567" lon="3.8015">
        <ele>146</ele>
        <time>2021-04-24T11:36:18Z</time>
      </trkpt>
      <trkpt lat="43.65565" lon="3.8015">
        <ele>146</ele>
        <time>2021-04-24T11:36:19Z</time>
      </trkpt>
      <trkpt lat="43.65563" lon="3.8015">
        <ele>146</ele>
        <time>2021-04-24T11:36:20Z</time>
      </trkpt>
      <trkpt lat="43.65561" lon="3.80152">
        <ele>146</ele>
        <time>2021-04-24T11:36:21Z</time>
      </trkpt>
      <trkpt lat="43.6556" lon="3.80155">
        <ele>146</ele>
        <time>2021-04-24T11:36:22Z</time>
      </trkpt>
      <trkpt lat="43.65558" lon="3.80158">
        <ele>146</ele>
        <time>2021-04-24T11:36:23Z</time>
      </trkpt>
      <trkpt lat="43.65555" lon="3.8016">
        <ele>146</ele>
        <time>2021-04-24T11:36:24Z</time>
      </trkpt>
      <trkpt lat="43.65552" lon="3.8016">
        <ele>146</ele>
        <time>2021-04-24T11:36:25Z</time>
      </trkpt>
      <trkpt lat="43.65549" lon="3.80158">
        <ele>146</ele>
        <time>2021-04-24T11:36:26Z</time>
      </trkpt>
      <trkpt lat="43.65547" lon="3.80156">
        <ele>146</ele>
        <time>2021-04-24T11:36:27Z</time>
      </trkpt>
      <trkpt lat="43.65544" lon="3.80153">
        <ele>146</ele>
        <time>2021-04-24T11:36:28Z</time>
      </trkpt>
      <trkpt lat="43.65541" lon="3.80152">
        <ele>146</ele>
        <time>2021-04-24T11:36:29Z</time>
      </trkpt>
      <trkpt lat="43.65537" lon="3.80151">
        <ele>146</ele>
        <time>2021-04-24T11:36:30Z</time>
      </trkpt>
      <trkpt lat="43.65533" lon="3.80149">
        <ele>146</ele>
        <time>2021-04-24T11:36:31Z</time>
      </trkpt>
      <trkpt lat="43.65528" lon="3.80148">
        <ele>146</ele>
        <time>2021-04-24T11:36:32Z</time>
      </trkpt>
      <trkpt lat="43.65523" lon="3.80148">
        <ele>146</ele>
        <time>2021-04-24T11:36:33Z</time>
      </trkpt>
      <trkpt lat="43.65519" lon="3.80146">
        <ele>146</ele>
        <time>2021-04-24T11:36:34Z</time>
      </trkpt>
      <trkpt lat="43.65515" lon="3.80144">
        <ele>146</ele>
        <time>2021-04-24T11:36:35Z</time>
      </trkpt>
      <trkpt lat="43.65512" lon="3.80141">
        <ele>146</ele>
        <time>2021-04-24T11:36:36Z</time>
      </trkpt>
      <trkpt lat="43.6551" lon="3.80138">
        <ele>146</ele>
        <time>2021-04-24T11:36:37Z</time>
      </trkpt>
      <trkpt lat="43.65509" lon="3.80136">
        <ele>146</ele>
        <time>2021-04-24T11:36:38Z</time>
      </trkpt>
      <trkpt lat="43.65507" lon="3.80134">
        <ele>146</ele>
        <time>2021-04-24T11:36:39Z</time>
      </trkpt>
      <trkpt lat="43.65505" lon="3.80133">
        <ele>146</ele>
        <time>2021-04-24T11:36:40Z</time>
      </trkpt>
      <trkpt lat="43.65502" lon="3.80131">
        <ele>146</ele>
        <time>2021-04-24T11:36:41Z</time>
      </trkpt>
      <trkpt lat="43.65499" lon="3.80128">
        <ele>146</ele>
        <time>2021-04-24T11:36:42Z</time>
      </trkpt>
      <trkpt lat="43.65496" lon="3.80126">
        <ele>146</ele>
        <time>2021-04-24T11:36:43Z</time>
      </trkpt>
      <trkpt lat="43.65493" lon="3.80123">
        <ele>146</ele>
        <time>2021-04-24T11:36:44Z</time>
      </trkpt>
      <trkpt lat="43.6549" lon="3.8012">
        <ele>146</ele>
        <time>2021-04-24T11:36:45Z</time>
      </trkpt>
      <trkpt lat="43.65487" lon="3.80118">
        <ele>146</ele>
        <time>2021-04-24T11:36:46Z</time>
      </trkpt>
      <trkpt lat="43.65485" lon="3.80115">
        <ele>146</ele>
        <time>2021-04-24T11:36:47Z</time>
      </trkpt>
      <trkpt lat="43.65482" lon="3.80111">
        <ele>146</ele>
        <time>2021-04-24T11:36:48Z</time>
      </trkpt>
      <trkpt lat="43.6548" lon="3.80108">
        <ele>146</ele>
        <time>2021-04-24T11:36:49Z</time>
      </trkpt>
      <trkpt lat="43.65477" lon="3.80104">
        <ele>146</ele>
        <time>2021-04-24T11:36:50Z</time>
      </trkpt>
      <trkpt lat="43.65475" lon="3.80101">
        <ele>146</ele>
        <time>2021-04-24T11:36:51Z</time>
      </trkpt>
      <trkpt lat="43.65472" lon="3.80098">
        <ele>146</ele>
        <time>2021-04-24T11:36:52Z</time>
      </trkpt>
      <trkpt lat="43.6547" lon="3.80095">
        <ele>146</ele>
        <time>2021-04-24T11:36:53Z</time>
      </trkpt>
      <trkpt lat="43.65468" lon="3.80092">
        <ele>146</ele>
        <time>2021-04-24T11:36:54Z</time>
      </trkpt>
      <trkpt lat="43.65466" lon="3.8009">
        <ele>146</ele>
        <time>2021-04-24T11:36:55Z</time>
      </trkpt>
      <trkpt lat="43.65465" lon="3.80086">
        <ele>146</ele>
        <time>2021-04-24T11:36:56Z</time>
      </trkpt>
      <trkpt lat="43.65466" lon="3.80081">
        <ele>147</ele>
        <time>2021-04-24T11:36:57Z</time>
      </trkpt>
      <trkpt lat="43.65467" lon="3.80077">
        <ele>147</ele>
        <time>2021-04-24T11:36:58Z</time>
      </trkpt>
      <trkpt lat="43.65468" lon="3.80073">
        <ele>147</ele>
        <time>2021-04-24T11:36:59Z</time>
      </trkpt>
      <trkpt lat="43.6547" lon="3.80069">
        <ele>147</ele>
        <time>2021-04-24T11:37:00Z</time>
      </trkpt>
      <trkpt lat="43.65472" lon="3.80066">
        <ele>147</ele>
        <time>2021-04-24T11:37:01Z</time>
      </trkpt>
      <trkpt lat="43.65474" lon="3.80063">
        <ele>147</ele>
        <time>2021-04-24T11:37:02Z</time>
      </trkpt>
      <trkpt lat="43.65477" lon="3.8006">
        <ele>147</ele>
        <time>2021-04-24T11:37:03Z</time>
      </trkpt>
      <trkpt lat="43.6548" lon="3.80058">
        <ele>147</ele>
        <time>2021-04-24T11:37:04Z</time>
      </trkpt>
      <trkpt lat="43.65483" lon="3.80055">
        <ele>147</ele>
        <time>2021-04-24T11:37:05Z</time>
      </trkpt>
      <trkpt lat="43.65487" lon="3.80053">
        <ele>147</ele>
        <time>2021-04-24T11:37:06Z</time>
      </trkpt>
      <trkpt lat="43.65491" lon="3.8005">
        <ele>147</ele>
        <time>2021-04-24T11:37:07Z</time>
      </trkpt>
      <trkpt lat="43.65494" lon="3.80048">
        <ele>147</ele>
        <time>2021-04-24T11:37:08Z</time>
      </trkpt>
      <trkpt lat="43.65498" lon="3.80045">
        <ele>147</ele>
        <time>2021-04-24T11:37:09Z</time>
      </trkpt>
      <trkpt lat="43.65501" lon="3.80041">
        <ele>147</ele>
        <time>2021-04-24T11:37:10Z</time>
      </trkpt>
      <trkpt lat="43.65504" lon="3.80038">
        <ele>147</ele>
        <time>2021-04-24T11:37:11Z</time>
      </trkpt>
      <trkpt lat="43.65506" lon="3.80034">
        <ele>147</ele>
        <time>2021-04-24T11:37:12Z</time>
      </trkpt>
      <trkpt lat="43.65509" lon="3.80031">
        <ele>147</ele>
        <time>2021-04-24T11:37:13Z</time>
      </trkpt>
      <trkpt lat="43.65511" lon="3.80027">
        <ele>147</ele>
        <time>2021-04-24T11:37:14Z</time>
      </trkpt>
      <trkpt lat="43.65514" lon="3.80023">
        <ele>147</ele>
        <time>2021-04-24T11:37:15Z</time>
      </trkpt>
      <trkpt lat="43.65515" lon="3.80019">
        <ele>147</ele>
        <time>2021-04-24T11:37:16Z</time>
      </trkpt>
      <trkpt lat="43.65516" lon="3.80016">
        <ele>148</ele>
        <time>2021-04-24T11:37:17Z</time>
      </trkpt>
      <trkpt lat="43.65517" lon="3.80012">
        <ele>148</ele>
        <time>2021-04-24T11:37:18Z</time>
      </trkpt>
      <trkpt lat="43.65516" lon="3.80009">
        <ele>148</ele>
        <time>2021-04-24T11:37:19Z</time>
      </trkpt>
      <trkpt lat="43.65515" lon="3.80006">
        <ele>148</ele>
        <time>2021-04-24T11:37:20Z</time>
      </trkpt>
      <trkpt lat="43.65513" lon="3.80003">
        <ele>148</ele>
        <time>2021-04-24T11:37:21Z</time>
      </trkpt>
      <trkpt lat="43.65511" lon="3.8">
        <ele>148</ele>
        <time>2021-04-24T11:37:22Z</time>
      </trkpt>
      <trkpt lat="43.65509" lon="3.79997">
        <ele>148</ele>
        <time>2021-04-24T11:37:23Z</time>
      </trkpt>
      <trkpt lat="43.65507" lon="3.79993">
        <ele>148</ele>
        <time>2021-04-24T11:37:24Z</time>
      </trkpt>
      <trkpt lat="43.65505" lon="3.7999">
        <ele>148</ele>
        <time>2021-04-24T11:37:25Z</time>
      </trkpt>
      <trkpt lat="43.65503" lon="3.79987">
        <ele>148</ele>
        <time>2021-04-24T11:37:26Z</time>
      </trkpt>
      <trkpt lat="43.65501" lon="3.79983">
        <ele>149</ele>
        <time>2021-04-24T11:37:27Z</time>
      </trkpt>
      <trkpt lat="43.65498" lon="3.7998">
        <ele>149</ele>
        <time>2021-04-24T11:37:28Z</time>
      </trkpt>
      <trkpt lat="43.65496" lon="3.79976">
        <ele>149</ele>
        <time>2021-04-24T11:37:29Z</time>
      </trkpt>
      <trkpt lat="43.65493" lon="3.79973">
        <ele>149</ele>
        <time>2021-04-24T11:37:30Z</time>
      </trkpt>
      <trkpt lat="43.65491" lon="3.79969">
        <ele>149</ele>
        <time>2021-04-24T11:37:31Z</time>
      </trkpt>
      <trkpt lat="43.65488" lon="3.79965">
        <ele>149</ele>
        <time>2021-04-24T11:37:32Z</time>
      </trkpt>
      <trkpt lat="43.65486" lon="3.79961">
        <ele>149</ele>
        <time>2021-04-24T11:37:33Z</time>
      </trkpt>
      <trkpt lat="43.65483" lon="3.79957">
        <ele>149</ele>
        <time>2021-04-24T11:37:34Z</time>
      </trkpt>
      <trkpt lat="43.6548" lon="3.79954">
        <ele>149</ele>
        <time>2021-04-24T11:37:35Z</time>
      </trkpt>
      <trkpt lat="43.65477" lon="3.7995">
        <ele>149</ele>
        <time>2021-04-24T11:37:36Z</time>
      </trkpt>
      <trkpt lat="43.65475" lon="3.79946">
        <ele>149</ele>
        <time>2021-04-24T11:37:37Z</time>
      </trkpt>
      <trkpt lat="43.65472" lon="3.79942">
        <ele>149</ele>
        <time>2021-04-24T11:37:38Z</time>
      </trkpt>
      <trkpt lat="43.65469" lon="3.79938">
        <ele>149</ele>
        <time>2021-04-24T11:37:39Z</time>
      </trkpt>
      <trkpt lat="43.65466" lon="3.79935">
        <ele>149</ele>
        <time>2021-04-24T11:37:40Z</time>
      </trkpt>
      <trkpt lat="43.65464" lon="3.79931">
        <ele>149</ele>
        <time>2021-04-24T11:37:41Z</time>
      </trkpt>
      <trkpt lat="43.65461" lon="3.79927">
        <ele>149</ele>
        <time>2021-04-24T11:37:42Z</time>
      </trkpt>
      <trkpt lat="43.65458" lon="3.79923">
        <ele>149</ele>
        <time>2021-04-24T11:37:43Z</time>
      </trkpt>
      <trkpt lat="43.65455" lon="3.79919">
        <ele>149</ele>
        <time>2021-04-24T11:37:44Z</time>
      </trkpt>
      <trkpt lat="43.65451" lon="3.79915">
        <ele>149</ele>
        <time>2021-04-24T11:37:45Z</time>
      </trkpt>
      <trkpt lat="43.65448" lon="3.79911">
        <ele>149</ele>
        <time>2021-04-24T11:37:46Z</time>
      </trkpt>
      <trkpt lat="43.65444" lon="3.79907">
        <ele>149</ele>
        <time>2021-04-24T11:37:47Z</time>
      </trkpt>
      <trkpt lat="43.65441" lon="3.79904">
        <ele>149</ele>
        <time>2021-04-24T11:37:48Z</time>
      </trkpt>
      <trkpt lat="43.65438" lon="3.799">
        <ele>149</ele>
        <time>2021-04-24T11:37:49Z</time>
      </trkpt>
      <trkpt lat="43.65434" lon="3.79897">
        <ele>149</ele>
        <time>2021-04-24T11:37:50Z</time>
      </trkpt>
      <trkpt lat="43.65431" lon="3.79894">
        <ele>149</ele>
        <time>2021-04-24T11:37:51Z</time>
      </trkpt>
      <trkpt lat="43.65427" lon="3.79891">
        <ele>149</ele>
        <time>2021-04-24T11:37:52Z</time>
      </trkpt>
      <trkpt lat="43.65424" lon="3.79888">
        <ele>149</ele>
        <time>2021-04-24T11:37:53Z</time>
      </trkpt>
      <trkpt lat="43.65421" lon="3.79885">
        <ele>149</ele>
        <time>2021-04-24T11:37:54Z</time>
      </trkpt>
      <trkpt lat="43.65417" lon="3.79883">
        <ele>149</ele>
        <time>2021-04-24T11:37:55Z</time>
      </trkpt>
      <trkpt lat="43.65414" lon="3.7988">
        <ele>149</ele>
        <time>2021-04-24T11:37:56Z</time>
      </trkpt>
      <trkpt lat="43.65411" lon="3.79877">
        <ele>149</ele>
        <time>2021-04-24T11:37:57Z</time>
      </trkpt>
      <trkpt lat="43.65408" lon="3.79875">
        <ele>149</ele>
        <time>2021-04-24T11:37:58Z</time>
      </trkpt>
      <trkpt lat="43.65405" lon="3.79872">
        <ele>149</ele>
        <time>2021-04-24T11:37:59Z</time>
      </trkpt>
      <trkpt lat="43.65402" lon="3.79869">
        <ele>149</ele>
        <time>2021-04-24T11:38:00Z</time>
      </trkpt>
      <trkpt lat="43.65398" lon="3.79867">
        <ele>149</ele>
        <time>2021-04-24T11:38:01Z</time>
      </trkpt>
      <trkpt lat="43.65395" lon="3.79864">
        <ele>149</ele>
        <time>2021-04-24T11:38:02Z</time>
      </trkpt>
      <trkpt lat="43.65392" lon="3.79861">
        <ele>149</ele>
        <time>2021-04-24T11:38:03Z</time>
      </trkpt>
      <trkpt lat="43.65389" lon="3.79858">
        <ele>149</ele>
        <time>2021-04-24T11:38:04Z</time>
      </trkpt>
      <trkpt lat="43.65386" lon="3.79855">
        <ele>149</ele>
        <time>2021-04-24T11:38:05Z</time>
      </trkpt>
      <trkpt lat="43.65384" lon="3.79853">
        <ele>149</ele>
        <time>2021-04-24T11:38:06Z</time>
      </trkpt>
      <trkpt lat="43.65381" lon="3.79851">
        <ele>150</ele>
        <time>2021-04-24T11:38:07Z</time>
      </trkpt>
      <trkpt lat="43.65378" lon="3.79848">
        <ele>150</ele>
        <time>2021-04-24T11:38:08Z</time>
      </trkpt>
      <trkpt lat="43.65375" lon="3.79846">
        <ele>150</ele>
        <time>2021-04-24T11:38:09Z</time>
      </trkpt>
      <trkpt lat="43.65372" lon="3.79844">
        <ele>150</ele>
        <time>2021-04-24T11:38:10Z</time>
      </trkpt>
      <trkpt lat="43.65369" lon="3.79841">
        <ele>150</ele>
        <time>2021-04-24T11:38:11Z</time>
      </trkpt>
      <trkpt lat="43.65367" lon="3.79839">
        <ele>150</ele>
        <time>2021-04-24T11:38:12Z</time>
      </trkpt>
      <trkpt lat="43.65364" lon="3.79837">
        <ele>150</ele>
        <time>2021-04-24T11:38:13Z</time>
      </trkpt>
      <trkpt lat="43.65362" lon="3.79835">
        <ele>150</ele>
        <time>2021-04-24T11:38:14Z</time>
      </trkpt>
      <trkpt lat="43.65359" lon="3.79832">
        <ele>150</ele>
        <time>2021-04-24T11:38:15Z</time>
      </trkpt>
      <trkpt lat="43.65356" lon="3.7983">
        <ele>150</ele>
        <time>2021-04-24T11:38:16Z</time>
      </trkpt>
      <trkpt lat="43.65354" lon="3.79828">
        <ele>150</ele>
        <time>2021-04-24T11:38:17Z</time>
      </trkpt>
      <trkpt lat="43.65351" lon="3.79825">
        <ele>150</ele>
        <time>2021-04-24T11:38:18Z</time>
      </trkpt>
      <trkpt lat="43.65349" lon="3.79823">
        <ele>150</ele>
        <time>2021-04-24T11:38:19Z</time>
      </trkpt>
      <trkpt lat="43.65346" lon="3.79821">
        <ele>150</ele>
        <time>2021-04-24T11:38:20Z</time>
      </trkpt>
      <trkpt lat="43.65343" lon="3.7982">
        <ele>150</ele>
        <time>2021-04-24T11:38:21Z</time>
      </trkpt>
      <trkpt lat="43.6534" lon="3.79817">
        <ele>150</ele>
        <time>2021-04-24T11:38:22Z</time>
      </trkpt>
      <trkpt lat="43.65337" lon="3.79815">
        <ele>150</ele>
        <time>2021-04-24T11:38:23Z</time>
      </trkpt>
      <trkpt lat="43.65334" lon="3.79812">
        <ele>150</ele>
        <time>2021-04-24T11:38:24Z</time>
      </trkpt>
      <trkpt lat="43.65331" lon="3.79809">
        <ele>150</ele>
        <time>2021-04-24T11:38:25Z</time>
      </trkpt>
      <trkpt lat="43.65327" lon="3.79805">
        <ele>150</ele>
        <time>2021-04-24T11:38:26Z</time>
      </trkpt>
      <trkpt lat="43.65324" lon="3.79802">
        <ele>149</ele>
        <time>2021-04-24T11:38:27Z</time>
      </trkpt>
      <trkpt lat="43.6532" lon="3.79799">
        <ele>149</ele>
        <time>2021-04-24T11:38:28Z</time>
      </trkpt>
      <trkpt lat="43.65315" lon="3.79795">
        <ele>149</ele>
        <time>2021-04-24T11:38:29Z</time>
      </trkpt>
      <trkpt lat="43.65311" lon="3.79792">
        <ele>149</ele>
        <time>2021-04-24T11:38:30Z</time>
      </trkpt>
      <trkpt lat="43.65307" lon="3.79788">
        <ele>149</ele>
        <time>2021-04-24T11:38:31Z</time>
      </trkpt>
      <trkpt lat="43.65303" lon="3.79785">
        <ele>149</ele>
        <time>2021-04-24T11:38:32Z</time>
      </trkpt>
      <trkpt lat="43.653" lon="3.79781">
        <ele>149</ele>
        <time>2021-04-24T11:38:33Z</time>
      </trkpt>
      <trkpt lat="43.65296" lon="3.79776">
        <ele>149</ele>
        <time>2021-04-24T11:38:34Z</time>
      </trkpt>
      <trkpt lat="43.65291" lon="3.79772">
        <ele>149</ele>
        <time>2021-04-24T11:38:35Z</time>
      </trkpt>
      <trkpt lat="43.65287" lon="3.79769">
        <ele>149</ele>
        <time>2021-04-24T11:38:36Z</time>
      </trkpt>
      <trkpt lat="43.65282" lon="3.79765">
        <ele>146</ele>
        <time>2021-04-24T11:38:37Z</time>
      </trkpt>
      <trkpt lat="43.65278" lon="3.79762">
        <ele>146</ele>
        <time>2021-04-24T11:38:38Z</time>
      </trkpt>
      <trkpt lat="43.65274" lon="3.79758">
        <ele>146</ele>
        <time>2021-04-24T11:38:39Z</time>
      </trkpt>
      <trkpt lat="43.65271" lon="3.79755">
        <ele>146</ele>
        <time>2021-04-24T11:38:40Z</time>
      </trkpt>
      <trkpt lat="43.65268" lon="3.79751">
        <ele>146</ele>
        <time>2021-04-24T11:38:41Z</time>
      </trkpt>
      <trkpt lat="43.65266" lon="3.79745">
        <ele>146</ele>
        <time>2021-04-24T11:38:42Z</time>
      </trkpt>
      <trkpt lat="43.65264" lon="3.79739">
        <ele>146</ele>
        <time>2021-04-24T11:38:43Z</time>
      </trkpt>
      <trkpt lat="43.65262" lon="3.79733">
        <ele>146</ele>
        <time>2021-04-24T11:38:44Z</time>
      </trkpt>
      <trkpt lat="43.65259" lon="3.79727">
        <ele>146</ele>
        <time>2021-04-24T11:38:45Z</time>
      </trkpt>
      <trkpt lat="43.65255" lon="3.79722">
        <ele>146</ele>
        <time>2021-04-24T11:38:46Z</time>
      </trkpt>
      <trkpt lat="43.6525" lon="3.79718">
        <ele>142</ele>
        <time>2021-04-24T11:38:47Z</time>
      </trkpt>
      <trkpt lat="43.65245" lon="3.79713">
        <ele>142</ele>
        <time>2021-04-24T11:38:48Z</time>
      </trkpt>
      <trkpt lat="43.6524" lon="3.79707">
        <ele>142</ele>
        <time>2021-04-24T11:38:49Z</time>
      </trkpt>
      <trkpt lat="43.65235" lon="3.79701">
        <ele>142</ele>
        <time>2021-04-24T11:38:50Z</time>
      </trkpt>
      <trkpt lat="43.65231" lon="3.79696">
        <ele>142</ele>
        <time>2021-04-24T11:38:51Z</time>
      </trkpt>
      <trkpt lat="43.65226" lon="3.79691">
        <ele>142</ele>
        <time>2021-04-24T11:38:52Z</time>
      </trkpt>
      <trkpt lat="43.65221" lon="3.79686">
        <ele>142</ele>
        <time>2021-04-24T11:38:53Z</time>
      </trkpt>
      <trkpt lat="43.65218" lon="3.79682">
        <ele>142</ele>
        <time>2021-04-24T11:38:54Z</time>
      </trkpt>
      <trkpt lat="43.65214" lon="3.79677">
        <ele>142</ele>
        <time>2021-04-24T11:38:55Z</time>
      </trkpt>
      <trkpt lat="43.65211" lon="3.79672">
        <ele>142</ele>
        <time>2021-04-24T11:38:56Z</time>
      </trkpt>
      <trkpt lat="43.65209" lon="3.79667">
        <ele>135</ele>
        <time>2021-04-24T11:38:57Z</time>
      </trkpt>
      <trkpt lat="43.65206" lon="3.79662">
        <ele>135</ele>
        <time>2021-04-24T11:38:58Z</time>
      </trkpt>
      <trkpt lat="43.65206" lon="3.79655">
        <ele>135</ele>
        <time>2021-04-24T11:38:59Z</time>
      </trkpt>
      <trkpt lat="43.65206" lon="3.79647">
        <ele>135</ele>
        <time>2021-04-24T11:39:00Z</time>
      </trkpt>
      <trkpt lat="43.65207" lon="3.79639">
        <ele>135</ele>
        <time>2021-04-24T11:39:01Z</time>
      </trkpt>
      <trkpt lat="43.65207" lon="3.79631">
        <ele>135</ele>
        <time>2021-04-24T11:39:02Z</time>
      </trkpt>
      <trkpt lat="43.65207" lon="3.79624">
        <ele>135</ele>
        <time>2021-04-24T11:39:03Z</time>
      </trkpt>
      <trkpt lat="43.65205" lon="3.79616">
        <ele>135</ele>
        <time>2021-04-24T11:39:04Z</time>
      </trkpt>
      <trkpt lat="43.65205" lon="3.79609">
        <ele>135</ele>
        <time>2021-04-24T11:39:05Z</time>
      </trkpt>
      <trkpt lat="43.65204" lon="3.79604">
        <ele>135</ele>
        <time>2021-04-24T11:39:06Z</time>
      </trkpt>
      <trkpt lat="43.65201" lon="3.79601">
        <ele>130</ele>
        <time>2021-04-24T11:39:07Z</time>
      </trkpt>
      <trkpt lat="43.65197" lon="3.79599">
        <ele>130</ele>
        <time>2021-04-24T11:39:08Z</time>
      </trkpt>
      <trkpt lat="43.65193" lon="3.79598">
        <ele>130</ele>
        <time>2021-04-24T11:39:09Z</time>
      </trkpt>
      <trkpt lat="43.65188" lon="3.79596">
        <ele>130</ele>
        <time>2021-04-24T11:39:10Z</time>
      </trkpt>
      <trkpt lat="43.65182" lon="3.79593">
        <ele>130</ele>
        <time>2021-04-24T11:39:11Z</time>
      </trkpt>
      <trkpt lat="43.65177" lon="3.79591">
        <ele>130</ele>
        <time>2021-04-24T11:39:12Z</time>
      </trkpt>
      <trkpt lat="43.65173" lon="3.79588">
        <ele>130</ele>
        <time>2021-04-24T11:39:13Z</time>
      </trkpt>
      <trkpt lat="43.65169" lon="3.79585">
        <ele>130</ele>
        <time>2021-04-24T11:39:14Z</time>
      </trkpt>
      <trkpt lat="43.65166" lon="3.7958">
        <ele>130</ele>
        <time>2021-04-24T11:39:15Z</time>
      </trkpt>
      <trkpt lat="43.65163" lon="3.79576">
        <ele>130</ele>
        <time>2021-04-24T11:39:16Z</time>
      </trkpt>
      <trkpt lat="43.6516" lon="3.79571">
        <ele>125</ele>
        <time>2021-04-24T11:39:17Z</time>
      </trkpt>
      <trkpt lat="43.65158" lon="3.79565">
        <ele>125</ele>
        <time>2021-04-24T11:39:18Z</time>
      </trkpt>
      <trkpt lat="43.65156" lon="3.79559">
        <ele>125</ele>
        <time>2021-04-24T11:39:19Z</time>
      </trkpt>
      <trkpt lat="43.65154" lon="3.79553">
        <ele>125</ele>
        <time>2021-04-24T11:39:20Z</time>
      </trkpt>
      <trkpt lat="43.65153" lon="3.79547">
        <ele>125</ele>
        <time>2021-04-24T11:39:21Z</time>
      </trkpt>
      <trkpt lat="43.6515" lon="3.79543">
        <ele>125</ele>
        <time>2021-04-24T11:39:22Z</time>
      </trkpt>
      <trkpt lat="43.65147" lon="3.79539">
        <ele>125</ele>
        <time>2021-04-24T11:39:23Z</time>
      </trkpt>
      <trkpt lat="43.65143" lon="3.79535">
        <ele>125</ele>
        <time>2021-04-24T11:39:24Z</time>
      </trkpt>
      <trkpt lat="43.65139" lon="3.79532">
        <ele>125</ele>
        <time>2021-04-24T11:39:25Z</time>
      </trkpt>
      <trkpt lat="43.65135" lon="3.79529">
        <ele>125</ele>
        <time>2021-04-24T11:39:26Z</time>
      </trkpt>
      <trkpt lat="43.65132" lon="3.79524">
        <ele>122</ele>
        <time>2021-04-24T11:39:27Z</time>
      </trkpt>
      <trkpt lat="43.65128" lon="3.79519">
        <ele>122</ele>
        <time>2021-04-24T11:39:28Z</time>
      </trkpt>
      <trkpt lat="43.65124" lon="3.79513">
        <ele>122</ele>
        <time>2021-04-24T11:39:29Z</time>
      </trkpt>
      <trkpt lat="43.65121" lon="3.795">
        <ele>122</ele>
        <time>2021-04-24T11:39:31Z</time>
      </trkpt>
      <trkpt lat="43.65117" lon="3.79485">
        <ele>122</ele>
        <time>2021-04-24T11:39:33Z</time>
      </trkpt>
      <trkpt lat="43.65113" lon="3.79469">
        <ele>122</ele>
        <time>2021-04-24T11:39:35Z</time>
      </trkpt>
      <trkpt lat="43.65108" lon="3.79452">
        <ele>120</ele>
        <time>2021-04-24T11:39:37Z</time>
      </trkpt>
      <trkpt lat="43.65106" lon="3.79443">
        <ele>120</ele>
        <time>2021-04-24T11:39:38Z</time>
      </trkpt>
      <trkpt lat="43.65104" lon="3.79434">
        <ele>120</ele>
        <time>2021-04-24T11:39:39Z</time>
      </trkpt>
      <trkpt lat="43.65102" lon="3.79425">
        <ele>120</ele>
        <time>2021-04-24T11:39:40Z</time>
      </trkpt>
      <trkpt lat="43.65101" lon="3.79417">
        <ele>120</ele>
        <time>2021-04-24T11:39:41Z</time>
      </trkpt>
      <trkpt lat="43.65101" lon="3.79409">
        <ele>120</ele>
        <time>2021-04-24T11:39:42Z</time>
      </trkpt>
      <trkpt lat="43.65102" lon="3.79401">
        <ele>120</ele>
        <time>2021-04-24T11:39:43Z</time>
      </trkpt>
      <trkpt lat="43.65103" lon="3.79395">
        <ele>120</ele>
        <time>2021-04-24T11:39:44Z</time>
      </trkpt>
      <trkpt lat="43.65104" lon="3.7939">
        <ele>120</ele>
        <time>2021-04-24T11:39:45Z</time>
      </trkpt>
      <trkpt lat="43.65106" lon="3.79385">
        <ele>120</ele>
        <time>2021-04-24T11:39:46Z</time>
      </trkpt>
      <trkpt lat="43.6511" lon="3.7937">
        <ele>120</ele>
        <time>2021-04-24T11:39:50Z</time>
      </trkpt>
      <trkpt lat="43.65111" lon="3.79364">
        <ele>120</ele>
        <time>2021-04-24T11:39:51Z</time>
      </trkpt>
      <trkpt lat="43.65111" lon="3.79359">
        <ele>120</ele>
        <time>2021-04-24T11:39:52Z</time>
      </trkpt>
      <trkpt lat="43.65112" lon="3.79355">
        <ele>120</ele>
        <time>2021-04-24T11:39:53Z</time>
      </trkpt>
      <trkpt lat="43.65113" lon="3.79351">
        <ele>120</ele>
        <time>2021-04-24T11:39:54Z</time>
      </trkpt>
      <trkpt lat="43.65115" lon="3.79348">
        <ele>120</ele>
        <time>2021-04-24T11:39:55Z</time>
      </trkpt>
      <trkpt lat="43.65118" lon="3.79349">
        <ele>116</ele>
        <time>2021-04-24T11:39:57Z</time>
      </trkpt>
      <trkpt lat="43.65119" lon="3.79351">
        <ele>116</ele>
        <time>2021-04-24T11:39:58Z</time>
      </trkpt>
      <trkpt lat="43.65121" lon="3.79353">
        <ele>116</ele>
        <time>2021-04-24T11:39:59Z</time>
      </trkpt>
      <trkpt lat="43.65122" lon="3.79355">
        <ele>116</ele>
        <time>2021-04-24T11:40:00Z</time>
      </trkpt>
      <trkpt lat="43.65124" lon="3.79359">
        <ele>116</ele>
        <time>2021-04-24T11:40:02Z</time>
      </trkpt>
      <trkpt lat="43.65125" lon="3.79363">
        <ele>116</ele>
        <time>2021-04-24T11:40:04Z</time>
      </trkpt>
      <trkpt lat="43.65126" lon="3.79365">
        <ele>116</ele>
        <time>2021-04-24T11:40:05Z</time>
      </trkpt>
      <trkpt lat="43.65127" lon="3.79367">
        <ele>116</ele>
        <time>2021-04-24T11:40:06Z</time>
      </trkpt>
      <trkpt lat="43.65128" lon="3.7937">
        <ele>117</ele>
        <time>2021-04-24T11:40:07Z</time>
      </trkpt>
      <trkpt lat="43.6513" lon="3.79372">
        <ele>117</ele>
        <time>2021-04-24T11:40:08Z</time>
      </trkpt>
      <trkpt lat="43.65131" lon="3.79376">
        <ele>117</ele>
        <time>2021-04-24T11:40:10Z</time>
      </trkpt>
      <trkpt lat="43.65131" lon="3.7938">
        <ele>117</ele>
        <time>2021-04-24T11:40:12Z</time>
      </trkpt>
      <trkpt lat="43.65133" lon="3.79383">
        <ele>117</ele>
        <time>2021-04-24T11:40:14Z</time>
      </trkpt>
      <trkpt lat="43.65133" lon="3.79388">
        <ele>117</ele>
        <time>2021-04-24T11:40:16Z</time>
      </trkpt>
      <trkpt lat="43.65134" lon="3.79392">
        <ele>117</ele>
        <time>2021-04-24T11:40:18Z</time>
      </trkpt>
      <trkpt lat="43.65135" lon="3.79394">
        <ele>117</ele>
        <time>2021-04-24T11:40:19Z</time>
      </trkpt>
      <trkpt lat="43.65136" lon="3.79396">
        <ele>117</ele>
        <time>2021-04-24T11:40:20Z</time>
      </trkpt>
      <trkpt lat="43.65138" lon="3.794">
        <ele>117</ele>
        <time>2021-04-24T11:40:22Z</time>
      </trkpt>
      <trkpt lat="43.65139" lon="3.79403">
        <ele>117</ele>
        <time>2021-04-24T11:40:24Z</time>
      </trkpt>
      <trkpt lat="43.65142" lon="3.79406">
        <ele>117</ele>
        <time>2021-04-24T11:40:26Z</time>
      </trkpt>
      <trkpt lat="43.65144" lon="3.79409">
        <ele>117</ele>
        <time>2021-04-24T11:40:28Z</time>
      </trkpt>
      <trkpt lat="43.65146" lon="3.79413">
        <ele>117</ele>
        <time>2021-04-24T11:40:30Z</time>
      </trkpt>
      <trkpt lat="43.65147" lon="3.79415">
        <ele>117</ele>
        <time>2021-04-24T11:40:31Z</time>
      </trkpt>
      <trkpt lat="43.65148" lon="3.79417">
        <ele>117</ele>
        <time>2021-04-24T11:40:32Z</time>
      </trkpt>
      <trkpt lat="43.65149" lon="3.79419">
        <ele>117</ele>
        <time>2021-04-24T11:40:33Z</time>
      </trkpt>
      <trkpt lat="43.6515" lon="3.79422">
        <ele>117</ele>
        <time>2021-04-24T11:40:34Z</time>
      </trkpt>
      <trkpt lat="43.65151" lon="3.79424">
        <ele>117</ele>
        <time>2021-04-24T11:40:35Z</time>
      </trkpt>
      <trkpt lat="43.65151" lon="3.79427">
        <ele>117</ele>
        <time>2021-04-24T11:40:36Z</time>
      </trkpt>
      <trkpt lat="43.65152" lon="3.7943">
        <ele>120</ele>
        <time>2021-04-24T11:40:37Z</time>
      </trkpt>
      <trkpt lat="43.65153" lon="3.79433">
        <ele>120</ele>
        <time>2021-04-24T11:40:38Z</time>
      </trkpt>
      <trkpt lat="43.65155" lon="3.79435">
        <ele>120</ele>
        <time>2021-04-24T11:40:39Z</time>
      </trkpt>
      <trkpt lat="43.65156" lon="3.79438">
        <ele>120</ele>
        <time>2021-04-24T11:40:40Z</time>
      </trkpt>
      <trkpt lat="43.65157" lon="3.79441">
        <ele>120</ele>
        <time>2021-04-24T11:40:41Z</time>
      </trkpt>
      <trkpt lat="43.65158" lon="3.79444">
        <ele>120</ele>
        <time>2021-04-24T11:40:42Z</time>
      </trkpt>
      <trkpt lat="43.65159" lon="3.79446">
        <ele>120</ele>
        <time>2021-04-24T11:40:43Z</time>
      </trkpt>
      <trkpt lat="43.6516" lon="3.79449">
        <ele>120</ele>
        <time>2021-04-24T11:40:44Z</time>
      </trkpt>
      <trkpt lat="43.65162" lon="3.79451">
        <ele>120</ele>
        <time>2021-04-24T11:40:45Z</time>
      </trkpt>
      <trkpt lat="43.65163" lon="3.79454">
        <ele>120</ele>
        <time>2021-04-24T11:40:46Z</time>
      </trkpt>
      <trkpt lat="43.65163" lon="3.79457">
        <ele>120</ele>
        <time>2021-04-24T11:40:47Z</time>
      </trkpt>
      <trkpt lat="43.65164" lon="3.79459">
        <ele>120</ele>
        <time>2021-04-24T11:40:48Z</time>
      </trkpt>
      <trkpt lat="43.65165" lon="3.79462">
        <ele>120</ele>
        <time>2021-04-24T11:40:49Z</time>
      </trkpt>
      <trkpt lat="43.65166" lon="3.79464">
        <ele>120</ele>
        <time>2021-04-24T11:40:50Z</time>
      </trkpt>
      <trkpt lat="43.65167" lon="3.79467">
        <ele>120</ele>
        <time>2021-04-24T11:40:51Z</time>
      </trkpt>
      <trkpt lat="43.65168" lon="3.79469">
        <ele>120</ele>
        <time>2021-04-24T11:40:52Z</time>
      </trkpt>
      <trkpt lat="43.65169" lon="3.79471">
        <ele>120</ele>
        <time>2021-04-24T11:40:53Z</time>
      </trkpt>
      <trkpt lat="43.6517" lon="3.79474">
        <ele>120</ele>
        <time>2021-04-24T11:40:54Z</time>
      </trkpt>
      <trkpt lat="43.65171" lon="3.79478">
        <ele>120</ele>
        <time>2021-04-24T11:40:56Z</time>
      </trkpt>
      <trkpt lat="43.65172" lon="3.79483">
        <ele>120</ele>
        <time>2021-04-24T11:40:58Z</time>
      </trkpt>
      <trkpt lat="43.65172" lon="3.79487">
        <ele>120</ele>
        <time>2021-04-24T11:41:00Z</time>
      </trkpt>
      <trkpt lat="43.65174" lon="3.7949">
        <ele>120</ele>
        <time>2021-04-24T11:41:01Z</time>
      </trkpt>
      <trkpt lat="43.65176" lon="3.79493">
        <ele>120</ele>
        <time>2021-04-24T11:41:02Z</time>
      </trkpt>
      <trkpt lat="43.65178" lon="3.79495">
        <ele>120</ele>
        <time>2021-04-24T11:41:03Z</time>
      </trkpt>
      <trkpt lat="43.65181" lon="3.79497">
        <ele>120</ele>
        <time>2021-04-24T11:41:04Z</time>
      </trkpt>
      <trkpt lat="43.65183" lon="3.79498">
        <ele>120</ele>
        <time>2021-04-24T11:41:05Z</time>
      </trkpt>
      <trkpt lat="43.65185" lon="3.79499">
        <ele>120</ele>
        <time>2021-04-24T11:41:06Z</time>
      </trkpt>
      <trkpt lat="43.65188" lon="3.79501">
        <ele>120</ele>
        <time>2021-04-24T11:41:08Z</time>
      </trkpt>
      <trkpt lat="43.65191" lon="3.79503">
        <ele>120</ele>
        <time>2021-04-24T11:41:09Z</time>
      </trkpt>
      <trkpt lat="43.65193" lon="3.79504">
        <ele>120</ele>
        <time>2021-04-24T11:41:10Z</time>
      </trkpt>
      <trkpt lat="43.65195" lon="3.79505">
        <ele>120</ele>
        <time>2021-04-24T11:41:11Z</time>
      </trkpt>
      <trkpt lat="43.65197" lon="3.79507">
        <ele>120</ele>
        <time>2021-04-24T11:41:12Z</time>
      </trkpt>
      <trkpt lat="43.65199" lon="3.79508">
        <ele>120</ele>
        <time>2021-04-24T11:41:13Z</time>
      </trkpt>
      <trkpt lat="43.65201" lon="3.79509">
        <ele>120</ele>
        <time>2021-04-24T11:41:14Z</time>
      </trkpt>
      <trkpt lat="43.65203" lon="3.79511">
        <ele>120</ele>
        <time>2021-04-24T11:41:15Z</time>
      </trkpt>
      <trkpt lat="43.65205" lon="3.79512">
        <ele>120</ele>
        <time>2021-04-24T11:41:16Z</time>
      </trkpt>
      <trkpt lat="43.65207" lon="3.79513">
        <ele>122</ele>
        <time>2021-04-24T11:41:17Z</time>
      </trkpt>
      <trkpt lat="43.65209" lon="3.79515">
        <ele>122</ele>
        <time>2021-04-24T11:41:18Z</time>
      </trkpt>
      <trkpt lat="43.6521" lon="3.79516">
        <ele>122</ele>
        <time>2021-04-24T11:41:19Z</time>
      </trkpt>
      <trkpt lat="43.65212" lon="3.79517">
        <ele>122</ele>
        <time>2021-04-24T11:41:20Z</time>
      </trkpt>
      <trkpt lat="43.65214" lon="3.79517">
        <ele>122</ele>
        <time>2021-04-24T11:41:21Z</time>
      </trkpt>
      <trkpt lat="43.65216" lon="3.79518">
        <ele>122</ele>
        <time>2021-04-24T11:41:22Z</time>
      </trkpt>
      <trkpt lat="43.65218" lon="3.79518">
        <ele>122</ele>
        <time>2021-04-24T11:41:23Z</time>
      </trkpt>
      <trkpt lat="43.6522" lon="3.79519">
        <ele>122</ele>
        <time>2021-04-24T11:41:24Z</time>
      </trkpt>
      <trkpt lat="43.65222" lon="3.79519">
        <ele>122</ele>
        <time>2021-04-24T11:41:25Z</time>
      </trkpt>
      <trkpt lat="43.65224" lon="3.79519">
        <ele>122</ele>
        <time>2021-04-24T11:41:26Z</time>
      </trkpt>
      <trkpt lat="43.65226" lon="3.79518">
        <ele>124</ele>
        <time>2021-04-24T11:41:27Z</time>
      </trkpt>
      <trkpt lat="43.65229" lon="3.79518">
        <ele>124</ele>
        <time>2021-04-24T11:41:29Z</time>
      </trkpt>
      <trkpt lat="43.65233" lon="3.79519">
        <ele>124</ele>
        <time>2021-04-24T11:41:31Z</time>
      </trkpt>
      <trkpt lat="43.65236" lon="3.79519">
        <ele>124</ele>
        <time>2021-04-24T11:41:33Z</time>
      </trkpt>
      <trkpt lat="43.6524" lon="3.79518">
        <ele>124</ele>
        <time>2021-04-24T11:41:35Z</time>
      </trkpt>
      <trkpt lat="43.65242" lon="3.79518">
        <ele>124</ele>
        <time>2021-04-24T11:41:36Z</time>
      </trkpt>
      <trkpt lat="43.65244" lon="3.79518">
        <ele>126</ele>
        <time>2021-04-24T11:41:37Z</time>
      </trkpt>
      <trkpt lat="43.65246" lon="3.79518">
        <ele>126</ele>
        <time>2021-04-24T11:41:38Z</time>
      </trkpt>
      <trkpt lat="43.65248" lon="3.79518">
        <ele>126</ele>
        <time>2021-04-24T11:41:39Z</time>
      </trkpt>
      <trkpt lat="43.6525" lon="3.79517">
        <ele>126</ele>
        <time>2021-04-24T11:41:40Z</time>
      </trkpt>
      <trkpt lat="43.65252" lon="3.79517">
        <ele>126</ele>
        <time>2021-04-24T11:41:41Z</time>
      </trkpt>
      <trkpt lat="43.65254" lon="3.79516">
        <ele>126</ele>
        <time>2021-04-24T11:41:42Z</time>
      </trkpt>
      <trkpt lat="43.65258" lon="3.79515">
        <ele>126</ele>
        <time>2021-04-24T11:41:44Z</time>
      </trkpt>
      <trkpt lat="43.6526" lon="3.79515">
        <ele>126</ele>
        <time>2021-04-24T11:41:45Z</time>
      </trkpt>
      <trkpt lat="43.65262" lon="3.79515">
        <ele>126</ele>
        <time>2021-04-24T11:41:46Z</time>
      </trkpt>
      <trkpt lat="43.65265" lon="3.79515">
        <ele>127</ele>
        <time>2021-04-24T11:41:47Z</time>
      </trkpt>
      <trkpt lat="43.65267" lon="3.79515">
        <ele>127</ele>
        <time>2021-04-24T11:41:48Z</time>
      </trkpt>
      <trkpt lat="43.65269" lon="3.79515">
        <ele>127</ele>
        <time>2021-04-24T11:41:49Z</time>
      </trkpt>
      <trkpt lat="43.65271" lon="3.79515">
        <ele>127</ele>
        <time>2021-04-24T11:41:50Z</time>
      </trkpt>
      <trkpt lat="43.65273" lon="3.79514">
        <ele>127</ele>
        <time>2021-04-24T11:41:51Z</time>
      </trkpt>
      <trkpt lat="43.65277" lon="3.79514">
        <ele>127</ele>
        <time>2021-04-24T11:41:53Z</time>
      </trkpt>
      <trkpt lat="43.65279" lon="3.79514">
        <ele>127</ele>
        <time>2021-04-24T11:41:54Z</time>
      </trkpt>
      <trkpt lat="43.65281" lon="3.79514">
        <ele>127</ele>
        <time>2021-04-24T11:41:55Z</time>
      </trkpt>
      <trkpt lat="43.65283" lon="3.79513">
        <ele>127</ele>
        <time>2021-04-24T11:41:56Z</time>
      </trkpt>
      <trkpt lat="43.65285" lon="3.79513">
        <ele>129</ele>
        <time>2021-04-24T11:41:57Z</time>
      </trkpt>
      <trkpt lat="43.65287" lon="3.79512">
        <ele>129</ele>
        <time>2021-04-24T11:41:58Z</time>
      </trkpt>
      <trkpt lat="43.65289" lon="3.7951">
        <ele>129</ele>
        <time>2021-04-24T11:41:59Z</time>
      </trkpt>
      <trkpt lat="43.65292" lon="3.79508">
        <ele>129</ele>
        <time>2021-04-24T11:42:00Z</time>
      </trkpt>
      <trkpt lat="43.65294" lon="3.79506">
        <ele>129</ele>
        <time>2021-04-24T11:42:01Z</time>
      </trkpt>
      <trkpt lat="43.65297" lon="3.79505">
        <ele>129</ele>
        <time>2021-04-24T11:42:02Z</time>
      </trkpt>
      <trkpt lat="43.653" lon="3.79503">
        <ele>129</ele>
        <time>2021-04-24T11:42:03Z</time>
      </trkpt>
      <trkpt lat="43.65302" lon="3.79501">
        <ele>129</ele>
        <time>2021-04-24T11:42:04Z</time>
      </trkpt>
      <trkpt lat="43.65305" lon="3.79499">
        <ele>129</ele>
        <time>2021-04-24T11:42:05Z</time>
      </trkpt>
      <trkpt lat="43.65307" lon="3.79497">
        <ele>129</ele>
        <time>2021-04-24T11:42:06Z</time>
      </trkpt>
      <trkpt lat="43.65309" lon="3.79496">
        <ele>130</ele>
        <time>2021-04-24T11:42:07Z</time>
      </trkpt>
      <trkpt lat="43.65311" lon="3.79493">
        <ele>130</ele>
        <time>2021-04-24T11:42:08Z</time>
      </trkpt>
      <trkpt lat="43.65314" lon="3.7949">
        <ele>130</ele>
        <time>2021-04-24T11:42:09Z</time>
      </trkpt>
      <trkpt lat="43.65316" lon="3.79486">
        <ele>130</ele>
        <time>2021-04-24T11:42:10Z</time>
      </trkpt>
      <trkpt lat="43.65318" lon="3.79483">
        <ele>130</ele>
        <time>2021-04-24T11:42:11Z</time>
      </trkpt>
      <trkpt lat="43.6532" lon="3.79479">
        <ele>130</ele>
        <time>2021-04-24T11:42:12Z</time>
      </trkpt>
      <trkpt lat="43.65322" lon="3.79476">
        <ele>130</ele>
        <time>2021-04-24T11:42:13Z</time>
      </trkpt>
      <trkpt lat="43.65324" lon="3.79471">
        <ele>130</ele>
        <time>2021-04-24T11:42:14Z</time>
      </trkpt>
      <trkpt lat="43.65326" lon="3.79468">
        <ele>130</ele>
        <time>2021-04-24T11:42:15Z</time>
      </trkpt>
      <trkpt lat="43.65328" lon="3.79464">
        <ele>130</ele>
        <time>2021-04-24T11:42:16Z</time>
      </trkpt>
      <trkpt lat="43.65331" lon="3.7946">
        <ele>131</ele>
        <time>2021-04-24T11:42:17Z</time>
      </trkpt>
      <trkpt lat="43.65334" lon="3.79456">
        <ele>131</ele>
        <time>2021-04-24T11:42:18Z</time>
      </trkpt>
      <trkpt lat="43.65336" lon="3.79452">
        <ele>131</ele>
        <time>2021-04-24T11:42:19Z</time>
      </trkpt>
      <trkpt lat="43.65338" lon="3.79448">
        <ele>131</ele>
        <time>2021-04-24T11:42:20Z</time>
      </trkpt>
      <trkpt lat="43.6534" lon="3.79443">
        <ele>131</ele>
        <time>2021-04-24T11:42:21Z</time>
      </trkpt>
      <trkpt lat="43.65342" lon="3.79438">
        <ele>131</ele>
        <time>2021-04-24T11:42:22Z</time>
      </trkpt>
      <trkpt lat="43.65345" lon="3.79433">
        <ele>131</ele>
        <time>2021-04-24T11:42:23Z</time>
      </trkpt>
      <trkpt lat="43.65347" lon="3.79428">
        <ele>131</ele>
        <time>2021-04-24T11:42:24Z</time>
      </trkpt>
      <trkpt lat="43.6535" lon="3.79424">
        <ele>131</ele>
        <time>2021-04-24T11:42:25Z</time>
      </trkpt>
      <trkpt lat="43.65352" lon="3.79418">
        <ele>131</ele>
        <time>2021-04-24T11:42:26Z</time>
      </trkpt>
      <trkpt lat="43.65354" lon="3.79413">
        <ele>131</ele>
        <time>2021-04-24T11:42:27Z</time>
      </trkpt>
      <trkpt lat="43.65356" lon="3.79407">
        <ele>131</ele>
        <time>2021-04-24T11:42:28Z</time>
      </trkpt>
      <trkpt lat="43.65358" lon="3.79403">
        <ele>131</ele>
        <time>2021-04-24T11:42:29Z</time>
      </trkpt>
      <trkpt lat="43.65359" lon="3.79399">
        <ele>131</ele>
        <time>2021-04-24T11:42:30Z</time>
      </trkpt>
      <trkpt lat="43.65361" lon="3.79394">
        <ele>131</ele>
        <time>2021-04-24T11:42:31Z</time>
      </trkpt>
      <trkpt lat="43.65363" lon="3.79386">
        <ele>131</ele>
        <time>2021-04-24T11:42:32Z</time>
      </trkpt>
      <trkpt lat="43.65366" lon="3.79378">
        <ele>131</ele>
        <time>2021-04-24T11:42:33Z</time>
      </trkpt>
      <trkpt lat="43.65367" lon="3.79369">
        <ele>131</ele>
        <time>2021-04-24T11:42:34Z</time>
      </trkpt>
      <trkpt lat="43.6537" lon="3.7936">
        <ele>131</ele>
        <time>2021-04-24T11:42:35Z</time>
      </trkpt>
      <trkpt lat="43.65373" lon="3.79352">
        <ele>131</ele>
        <time>2021-04-24T11:42:36Z</time>
      </trkpt>
      <trkpt lat="43.65377" lon="3.79344">
        <ele>129</ele>
        <time>2021-04-24T11:42:37Z</time>
      </trkpt>
      <trkpt lat="43.65382" lon="3.79336">
        <ele>129</ele>
        <time>2021-04-24T11:42:38Z</time>
      </trkpt>
      <trkpt lat="43.65386" lon="3.79329">
        <ele>129</ele>
        <time>2021-04-24T11:42:39Z</time>
      </trkpt>
      <trkpt lat="43.65391" lon="3.79322">
        <ele>129</ele>
        <time>2021-04-24T11:42:40Z</time>
      </trkpt>
      <trkpt lat="43.65396" lon="3.79316">
        <ele>129</ele>
        <time>2021-04-24T11:42:41Z</time>
      </trkpt>
      <trkpt lat="43.654" lon="3.79311">
        <ele>129</ele>
        <time>2021-04-24T11:42:42Z</time>
      </trkpt>
      <trkpt lat="43.65403" lon="3.79304">
        <ele>129</ele>
        <time>2021-04-24T11:42:43Z</time>
      </trkpt>
      <trkpt lat="43.65406" lon="3.79299">
        <ele>129</ele>
        <time>2021-04-24T11:42:44Z</time>
      </trkpt>
      <trkpt lat="43.65409" lon="3.79294">
        <ele>129</ele>
        <time>2021-04-24T11:42:45Z</time>
      </trkpt>
      <trkpt lat="43.65411" lon="3.79288">
        <ele>129</ele>
        <time>2021-04-24T11:42:46Z</time>
      </trkpt>
      <trkpt lat="43.65414" lon="3.79282">
        <ele>126</ele>
        <time>2021-04-24T11:42:47Z</time>
      </trkpt>
      <trkpt lat="43.65415" lon="3.79276">
        <ele>126</ele>
        <time>2021-04-24T11:42:48Z</time>
      </trkpt>
      <trkpt lat="43.65418" lon="3.79272">
        <ele>126</ele>
        <time>2021-04-24T11:42:49Z</time>
      </trkpt>
      <trkpt lat="43.65419" lon="3.79267">
        <ele>126</ele>
        <time>2021-04-24T11:42:50Z</time>
      </trkpt>
      <trkpt lat="43.65421" lon="3.79263">
        <ele>126</ele>
        <time>2021-04-24T11:42:51Z</time>
      </trkpt>
      <trkpt lat="43.65422" lon="3.79259">
        <ele>126</ele>
        <time>2021-04-24T11:42:52Z</time>
      </trkpt>
      <trkpt lat="43.65424" lon="3.79255">
        <ele>126</ele>
        <time>2021-04-24T11:42:53Z</time>
      </trkpt>
      <trkpt lat="43.65424" lon="3.79251">
        <ele>126</ele>
        <time>2021-04-24T11:42:54Z</time>
      </trkpt>
      <trkpt lat="43.65426" lon="3.79249">
        <ele>126</ele>
        <time>2021-04-24T11:42:55Z</time>
      </trkpt>
      <trkpt lat="43.65427" lon="3.79246">
        <ele>126</ele>
        <time>2021-04-24T11:42:56Z</time>
      </trkpt>
      <trkpt lat="43.65428" lon="3.79242">
        <ele>119</ele>
        <time>2021-04-24T11:42:57Z</time>
      </trkpt>
      <trkpt lat="43.6543" lon="3.7924">
        <ele>119</ele>
        <time>2021-04-24T11:42:58Z</time>
      </trkpt>
      <trkpt lat="43.65432" lon="3.79237">
        <ele>119</ele>
        <time>2021-04-24T11:42:59Z</time>
      </trkpt>
      <trkpt lat="43.65434" lon="3.79234">
        <ele>119</ele>
        <time>2021-04-24T11:43:00Z</time>
      </trkpt>
      <trkpt lat="43.65436" lon="3.79232">
        <ele>119</ele>
        <time>2021-04-24T11:43:01Z</time>
      </trkpt>
      <trkpt lat="43.65437" lon="3.79229">
        <ele>119</ele>
        <time>2021-04-24T11:43:02Z</time>
      </trkpt>
      <trkpt lat="43.65439" lon="3.79227">
        <ele>119</ele>
        <time>2021-04-24T11:43:03Z</time>
      </trkpt>
      <trkpt lat="43.65441" lon="3.79224">
        <ele>119</ele>
        <time>2021-04-24T11:43:04Z</time>
      </trkpt>
      <trkpt lat="43.65443" lon="3.79222">
        <ele>119</ele>
        <time>2021-04-24T11:43:05Z</time>
      </trkpt>
      <trkpt lat="43.65444" lon="3.79219">
        <ele>119</ele>
        <time>2021-04-24T11:43:06Z</time>
      </trkpt>
      <trkpt lat="43.65445" lon="3.79217">
        <ele>106</ele>
        <time>2021-04-24T11:43:07Z</time>
      </trkpt>
      <trkpt lat="43.65446" lon="3.79213">
        <ele>106</ele>
        <time>2021-04-24T11:43:08Z</time>
      </trkpt>
      <trkpt lat="43.65446" lon="3.7921">
        <ele>106</ele>
        <time>2021-04-24T11:43:09Z</time>
      </trkpt>
      <trkpt lat="43.65447" lon="3.79206">
        <ele>106</ele>
        <time>2021-04-24T11:43:10Z</time>
      </trkpt>
      <trkpt lat="43.65447" lon="3.79203">
        <ele>106</ele>
        <time>2021-04-24T11:43:11Z</time>
      </trkpt>
      <trkpt lat="43.65449" lon="3.79201">
        <ele>106</ele>
        <time>2021-04-24T11:43:12Z</time>
      </trkpt>
      <trkpt lat="43.6545" lon="3.79198">
        <ele>106</ele>
        <time>2021-04-24T11:43:13Z</time>
      </trkpt>
      <trkpt lat="43.6545" lon="3.79194">
        <ele>106</ele>
        <time>2021-04-24T11:43:15Z</time>
      </trkpt>
      <trkpt lat="43.65447" lon="3.7919">
        <ele>97</ele>
        <time>2021-04-24T11:43:17Z</time>
      </trkpt>
      <trkpt lat="43.65446" lon="3.79188">
        <ele>97</ele>
        <time>2021-04-24T11:43:18Z</time>
      </trkpt>
      <trkpt lat="43.65444" lon="3.79186">
        <ele>97</ele>
        <time>2021-04-24T11:43:19Z</time>
      </trkpt>
      <trkpt lat="43.65443" lon="3.79184">
        <ele>97</ele>
        <time>2021-04-24T11:43:20Z</time>
      </trkpt>
      <trkpt lat="43.65442" lon="3.79181">
        <ele>97</ele>
        <time>2021-04-24T11:43:21Z</time>
      </trkpt>
      <trkpt lat="43.65441" lon="3.79178">
        <ele>97</ele>
        <time>2021-04-24T11:43:22Z</time>
      </trkpt>
      <trkpt lat="43.6544" lon="3.79173">
        <ele>97</ele>
        <time>2021-04-24T11:43:23Z</time>
      </trkpt>
      <trkpt lat="43.65439" lon="3.79168">
        <ele>97</ele>
        <time>2021-04-24T11:43:24Z</time>
      </trkpt>
      <trkpt lat="43.65438" lon="3.79162">
        <ele>97</ele>
        <time>2021-04-24T11:43:25Z</time>
      </trkpt>
      <trkpt lat="43.65437" lon="3.79157">
        <ele>97</ele>
        <time>2021-04-24T11:43:26Z</time>
      </trkpt>
      <trkpt lat="43.65437" lon="3.79153">
        <ele>94</ele>
        <time>2021-04-24T11:43:27Z</time>
      </trkpt>
      <trkpt lat="43.65436" lon="3.7915">
        <ele>94</ele>
        <time>2021-04-24T11:43:28Z</time>
      </trkpt>
      <trkpt lat="43.65434" lon="3.79147">
        <ele>94</ele>
        <time>2021-04-24T11:43:30Z</time>
      </trkpt>
      <trkpt lat="43.65431" lon="3.79146">
        <ele>94</ele>
        <time>2021-04-24T11:43:32Z</time>
      </trkpt>
      <trkpt lat="43.65429" lon="3.79146">
        <ele>94</ele>
        <time>2021-04-24T11:43:33Z</time>
      </trkpt>
      <trkpt lat="43.65426" lon="3.79146">
        <ele>94</ele>
        <time>2021-04-24T11:43:34Z</time>
      </trkpt>
      <trkpt lat="43.65424" lon="3.79145">
        <ele>94</ele>
        <time>2021-04-24T11:43:35Z</time>
      </trkpt>
      <trkpt lat="43.65421" lon="3.79145">
        <ele>94</ele>
        <time>2021-04-24T11:43:36Z</time>
      </trkpt>
      <trkpt lat="43.65418" lon="3.79145">
        <ele>90</ele>
        <time>2021-04-24T11:43:37Z</time>
      </trkpt>
      <trkpt lat="43.65415" lon="3.79145">
        <ele>90</ele>
        <time>2021-04-24T11:43:38Z</time>
      </trkpt>
      <trkpt lat="43.65412" lon="3.79144">
        <ele>90</ele>
        <time>2021-04-24T11:43:39Z</time>
      </trkpt>
      <trkpt lat="43.65409" lon="3.79144">
        <ele>90</ele>
        <time>2021-04-24T11:43:40Z</time>
      </trkpt>
      <trkpt lat="43.65405" lon="3.79143">
        <ele>90</ele>
        <time>2021-04-24T11:43:41Z</time>
      </trkpt>
      <trkpt lat="43.65402" lon="3.79143">
        <ele>90</ele>
        <time>2021-04-24T11:43:42Z</time>
      </trkpt>
      <trkpt lat="43.65398" lon="3.79142">
        <ele>90</ele>
        <time>2021-04-24T11:43:43Z</time>
      </trkpt>
      <trkpt lat="43.65395" lon="3.79141">
        <ele>90</ele>
        <time>2021-04-24T11:43:44Z</time>
      </trkpt>
      <trkpt lat="43.65392" lon="3.7914">
        <ele>90</ele>
        <time>2021-04-24T11:43:45Z</time>
      </trkpt>
      <trkpt lat="43.65389" lon="3.7914">
        <ele>90</ele>
        <time>2021-04-24T11:43:46Z</time>
      </trkpt>
      <trkpt lat="43.65386" lon="3.7914">
        <ele>86</ele>
        <time>2021-04-24T11:43:47Z</time>
      </trkpt>
      <trkpt lat="43.65383" lon="3.79139">
        <ele>86</ele>
        <time>2021-04-24T11:43:48Z</time>
      </trkpt>
      <trkpt lat="43.65381" lon="3.79138">
        <ele>86</ele>
        <time>2021-04-24T11:43:49Z</time>
      </trkpt>
      <trkpt lat="43.65378" lon="3.79138">
        <ele>86</ele>
        <time>2021-04-24T11:43:50Z</time>
      </trkpt>
      <trkpt lat="43.65375" lon="3.79138">
        <ele>86</ele>
        <time>2021-04-24T11:43:51Z</time>
      </trkpt>
      <trkpt lat="43.65372" lon="3.79138">
        <ele>86</ele>
        <time>2021-04-24T11:43:52Z</time>
      </trkpt>
      <trkpt lat="43.65369" lon="3.79138">
        <ele>86</ele>
        <time>2021-04-24T11:43:53Z</time>
      </trkpt>
      <trkpt lat="43.65365" lon="3.79138">
        <ele>86</ele>
        <time>2021-04-24T11:43:54Z</time>
      </trkpt>
      <trkpt lat="43.65362" lon="3.79137">
        <ele>86</ele>
        <time>2021-04-24T11:43:55Z</time>
      </trkpt>
      <trkpt lat="43.65359" lon="3.79137">
        <ele>86</ele>
        <time>2021-04-24T11:43:56Z</time>
      </trkpt>
      <trkpt lat="43.65356" lon="3.79136">
        <ele>86</ele>
        <time>2021-04-24T11:43:57Z</time>
      </trkpt>
      <trkpt lat="43.6535" lon="3.79137">
        <ele>86</ele>
        <time>2021-04-24T11:43:58Z</time>
      </trkpt>
      <trkpt lat="43.65347" lon="3.79137">
        <ele>86</ele>
        <time>2021-04-24T11:43:59Z</time>
      </trkpt>
      <trkpt lat="43.65344" lon="3.79136">
        <ele>86</ele>
        <time>2021-04-24T11:44:01Z</time>
      </trkpt>
      <trkpt lat="43.65341" lon="3.79136">
        <ele>86</ele>
        <time>2021-04-24T11:44:02Z</time>
      </trkpt>
      <trkpt lat="43.65338" lon="3.79135">
        <ele>86</ele>
        <time>2021-04-24T11:44:03Z</time>
      </trkpt>
      <trkpt lat="43.65335" lon="3.79135">
        <ele>86</ele>
        <time>2021-04-24T11:44:04Z</time>
      </trkpt>
      <trkpt lat="43.65332" lon="3.79134">
        <ele>86</ele>
        <time>2021-04-24T11:44:05Z</time>
      </trkpt>
      <trkpt lat="43.65329" lon="3.79131">
        <ele>86</ele>
        <time>2021-04-24T11:44:06Z</time>
      </trkpt>
      <trkpt lat="43.65326" lon="3.79129">
        <ele>84</ele>
        <time>2021-04-24T11:44:07Z</time>
      </trkpt>
      <trkpt lat="43.65322" lon="3.79126">
        <ele>84</ele>
        <time>2021-04-24T11:44:08Z</time>
      </trkpt>
      <trkpt lat="43.6532" lon="3.79122">
        <ele>84</ele>
        <time>2021-04-24T11:44:09Z</time>
      </trkpt>
      <trkpt lat="43.65313" lon="3.79116">
        <ele>84</ele>
        <time>2021-04-24T11:44:10Z</time>
      </trkpt>
      <trkpt lat="43.65309" lon="3.79114">
        <ele>84</ele>
        <time>2021-04-24T11:44:12Z</time>
      </trkpt>
      <trkpt lat="43.65304" lon="3.79111">
        <ele>84</ele>
        <time>2021-04-24T11:44:13Z</time>
      </trkpt>
      <trkpt lat="43.653" lon="3.79108">
        <ele>84</ele>
        <time>2021-04-24T11:44:14Z</time>
      </trkpt>
      <trkpt lat="43.65295" lon="3.79107">
        <ele>84</ele>
        <time>2021-04-24T11:44:15Z</time>
      </trkpt>
      <trkpt lat="43.6529" lon="3.79106">
        <ele>84</ele>
        <time>2021-04-24T11:44:16Z</time>
      </trkpt>
      <trkpt lat="43.65284" lon="3.79106">
        <ele>82</ele>
        <time>2021-04-24T11:44:17Z</time>
      </trkpt>
      <trkpt lat="43.65278" lon="3.79107">
        <ele>82</ele>
        <time>2021-04-24T11:44:18Z</time>
      </trkpt>
      <trkpt lat="43.65271" lon="3.79108">
        <ele>82</ele>
        <time>2021-04-24T11:44:19Z</time>
      </trkpt>
      <trkpt lat="43.65264" lon="3.79109">
        <ele>82</ele>
        <time>2021-04-24T11:44:20Z</time>
      </trkpt>
      <trkpt lat="43.65258" lon="3.79107">
        <ele>82</ele>
        <time>2021-04-24T11:44:21Z</time>
      </trkpt>
      <trkpt lat="43.65254" lon="3.79102">
        <ele>82</ele>
        <time>2021-04-24T11:44:22Z</time>
      </trkpt>
      <trkpt lat="43.65249" lon="3.79096">
        <ele>82</ele>
        <time>2021-04-24T11:44:23Z</time>
      </trkpt>
      <trkpt lat="43.65245" lon="3.79091">
        <ele>82</ele>
        <time>2021-04-24T11:44:24Z</time>
      </trkpt>
      <trkpt lat="43.65239" lon="3.79086">
        <ele>82</ele>
        <time>2021-04-24T11:44:25Z</time>
      </trkpt>
      <trkpt lat="43.65234" lon="3.79081">
        <ele>82</ele>
        <time>2021-04-24T11:44:26Z</time>
      </trkpt>
      <trkpt lat="43.65228" lon="3.79077">
        <ele>79</ele>
        <time>2021-04-24T11:44:27Z</time>
      </trkpt>
      <trkpt lat="43.65224" lon="3.79076">
        <ele>79</ele>
        <time>2021-04-24T11:44:28Z</time>
      </trkpt>
      <trkpt lat="43.65219" lon="3.79076">
        <ele>79</ele>
        <time>2021-04-24T11:44:29Z</time>
      </trkpt>
      <trkpt lat="43.65215" lon="3.79074">
        <ele>79</ele>
        <time>2021-04-24T11:44:30Z</time>
      </trkpt>
      <trkpt lat="43.65212" lon="3.79072">
        <ele>79</ele>
        <time>2021-04-24T11:44:31Z</time>
      </trkpt>
      <trkpt lat="43.65208" lon="3.7907">
        <ele>79</ele>
        <time>2021-04-24T11:44:32Z</time>
      </trkpt>
      <trkpt lat="43.65205" lon="3.79069">
        <ele>79</ele>
        <time>2021-04-24T11:44:33Z</time>
      </trkpt>
      <trkpt lat="43.65202" lon="3.79068">
        <ele>79</ele>
        <time>2021-04-24T11:44:34Z</time>
      </trkpt>
      <trkpt lat="43.65198" lon="3.79067">
        <ele>79</ele>
        <time>2021-04-24T11:44:35Z</time>
      </trkpt>
      <trkpt lat="43.65195" lon="3.79065">
        <ele>79</ele>
        <time>2021-04-24T11:44:36Z</time>
      </trkpt>
      <trkpt lat="43.65193" lon="3.79061">
        <ele>76</ele>
        <time>2021-04-24T11:44:37Z</time>
      </trkpt>
      <trkpt lat="43.65192" lon="3.79056">
        <ele>76</ele>
        <time>2021-04-24T11:44:38Z</time>
      </trkpt>
      <trkpt lat="43.65191" lon="3.79052">
        <ele>76</ele>
        <time>2021-04-24T11:44:39Z</time>
      </trkpt>
      <trkpt lat="43.6519" lon="3.79048">
        <ele>76</ele>
        <time>2021-04-24T11:44:40Z</time>
      </trkpt>
      <trkpt lat="43.65187" lon="3.79047">
        <ele>76</ele>
        <time>2021-04-24T11:44:41Z</time>
      </trkpt>
      <trkpt lat="43.65184" lon="3.79047">
        <ele>76</ele>
        <time>2021-04-24T11:44:42Z</time>
      </trkpt>
      <trkpt lat="43.65181" lon="3.79048">
        <ele>76</ele>
        <time>2021-04-24T11:44:43Z</time>
      </trkpt>
      <trkpt lat="43.65178" lon="3.79048">
        <ele>76</ele>
        <time>2021-04-24T11:44:44Z</time>
      </trkpt>
      <trkpt lat="43.65175" lon="3.79048">
        <ele>76</ele>
        <time>2021-04-24T11:44:45Z</time>
      </trkpt>
      <trkpt lat="43.65172" lon="3.79048">
        <ele>76</ele>
        <time>2021-04-24T11:44:46Z</time>
      </trkpt>
      <trkpt lat="43.65169" lon="3.79048">
        <ele>72</ele>
        <time>2021-04-24T11:44:47Z</time>
      </trkpt>
      <trkpt lat="43.65166" lon="3.79047">
        <ele>72</ele>
        <time>2021-04-24T11:44:48Z</time>
      </trkpt>
      <trkpt lat="43.65163" lon="3.79048">
        <ele>72</ele>
        <time>2021-04-24T11:44:49Z</time>
      </trkpt>
      <trkpt lat="43.65161" lon="3.79048">
        <ele>72</ele>
        <time>2021-04-24T11:44:50Z</time>
      </trkpt>
      <trkpt lat="43.65158" lon="3.79048">
        <ele>72</ele>
        <time>2021-04-24T11:44:51Z</time>
      </trkpt>
      <trkpt lat="43.65156" lon="3.79048">
        <ele>72</ele>
        <time>2021-04-24T11:44:52Z</time>
      </trkpt>
      <trkpt lat="43.65154" lon="3.79048">
        <ele>72</ele>
        <time>2021-04-24T11:44:53Z</time>
      </trkpt>
      <trkpt lat="43.65152" lon="3.79048">
        <ele>72</ele>
        <time>2021-04-24T11:44:54Z</time>
      </trkpt>
      <trkpt lat="43.65149" lon="3.79047">
        <ele>72</ele>
        <time>2021-04-24T11:44:56Z</time>
      </trkpt>
      <trkpt lat="43.65146" lon="3.79049">
        <ele>72</ele>
        <time>2021-04-24T11:44:58Z</time>
      </trkpt>
      <trkpt lat="43.65143" lon="3.7905">
        <ele>72</ele>
        <time>2021-04-24T11:45:00Z</time>
      </trkpt>
      <trkpt lat="43.6514" lon="3.79051">
        <ele>72</ele>
        <time>2021-04-24T11:45:02Z</time>
      </trkpt>
      <trkpt lat="43.65138" lon="3.79051">
        <ele>72</ele>
        <time>2021-04-24T11:45:03Z</time>
      </trkpt>
      <trkpt lat="43.65136" lon="3.79051">
        <ele>72</ele>
        <time>2021-04-24T11:45:04Z</time>
      </trkpt>
      <trkpt lat="43.65134" lon="3.79052">
        <ele>72</ele>
        <time>2021-04-24T11:45:05Z</time>
      </trkpt>
      <trkpt lat="43.65131" lon="3.79052">
        <ele>70</ele>
        <time>2021-04-24T11:45:07Z</time>
      </trkpt>
      <trkpt lat="43.65129" lon="3.79054">
        <ele>70</ele>
        <time>2021-04-24T11:45:09Z</time>
      </trkpt>
      <trkpt lat="43.65127" lon="3.79054">
        <ele>70</ele>
        <time>2021-04-24T11:45:11Z</time>
      </trkpt>
      <trkpt lat="43.65125" lon="3.79055">
        <ele>70</ele>
        <time>2021-04-24T11:45:13Z</time>
      </trkpt>
      <trkpt lat="43.65122" lon="3.79057">
        <ele>70</ele>
        <time>2021-04-24T11:45:15Z</time>
      </trkpt>
      <trkpt lat="43.6512" lon="3.79058">
        <ele>70</ele>
        <time>2021-04-24T11:45:16Z</time>
      </trkpt>
      <trkpt lat="43.65119" lon="3.79059">
        <ele>68</ele>
        <time>2021-04-24T11:45:17Z</time>
      </trkpt>
      <trkpt lat="43.65117" lon="3.7906">
        <ele>68</ele>
        <time>2021-04-24T11:45:18Z</time>
      </trkpt>
      <trkpt lat="43.65115" lon="3.79062">
        <ele>68</ele>
        <time>2021-04-24T11:45:19Z</time>
      </trkpt>
      <trkpt lat="43.65112" lon="3.79064">
        <ele>68</ele>
        <time>2021-04-24T11:45:21Z</time>
      </trkpt>
      <trkpt lat="43.6511" lon="3.79065">
        <ele>68</ele>
        <time>2021-04-24T11:45:22Z</time>
      </trkpt>
      <trkpt lat="43.65108" lon="3.79067">
        <ele>68</ele>
        <time>2021-04-24T11:45:23Z</time>
      </trkpt>
      <trkpt lat="43.65106" lon="3.79069">
        <ele>68</ele>
        <time>2021-04-24T11:45:24Z</time>
      </trkpt>
      <trkpt lat="43.65104" lon="3.79071">
        <ele>68</ele>
        <time>2021-04-24T11:45:25Z</time>
      </trkpt>
      <trkpt lat="43.65101" lon="3.79073">
        <ele>68</ele>
        <time>2021-04-24T11:45:26Z</time>
      </trkpt>
      <trkpt lat="43.65098" lon="3.79075">
        <ele>67</ele>
        <time>2021-04-24T11:45:27Z</time>
      </trkpt>
      <trkpt lat="43.65094" lon="3.79077">
        <ele>67</ele>
        <time>2021-04-24T11:45:28Z</time>
      </trkpt>
      <trkpt lat="43.65091" lon="3.79079">
        <ele>67</ele>
        <time>2021-04-24T11:45:29Z</time>
      </trkpt>
      <trkpt lat="43.65088" lon="3.79081">
        <ele>67</ele>
        <time>2021-04-24T11:45:30Z</time>
      </trkpt>
      <trkpt lat="43.65085" lon="3.79084">
        <ele>67</ele>
        <time>2021-04-24T11:45:31Z</time>
      </trkpt>
      <trkpt lat="43.65082" lon="3.79086">
        <ele>67</ele>
        <time>2021-04-24T11:45:32Z</time>
      </trkpt>
      <trkpt lat="43.65078" lon="3.79087">
        <ele>67</ele>
        <time>2021-04-24T11:45:33Z</time>
      </trkpt>
      <trkpt lat="43.65075" lon="3.79086">
        <ele>67</ele>
        <time>2021-04-24T11:45:34Z</time>
      </trkpt>
      <trkpt lat="43.65071" lon="3.79084">
        <ele>67</ele>
        <time>2021-04-24T11:45:35Z</time>
      </trkpt>
      <trkpt lat="43.65068" lon="3.7908">
        <ele>67</ele>
        <time>2021-04-24T11:45:36Z</time>
      </trkpt>
      <trkpt lat="43.65067" lon="3.79076">
        <ele>67</ele>
        <time>2021-04-24T11:45:37Z</time>
      </trkpt>
      <trkpt lat="43.65068" lon="3.79071">
        <ele>67</ele>
        <time>2021-04-24T11:45:38Z</time>
      </trkpt>
      <trkpt lat="43.65069" lon="3.79066">
        <ele>67</ele>
        <time>2021-04-24T11:45:39Z</time>
      </trkpt>
      <trkpt lat="43.65072" lon="3.79062">
        <ele>67</ele>
        <time>2021-04-24T11:45:40Z</time>
      </trkpt>
      <trkpt lat="43.65077" lon="3.79058">
        <ele>67</ele>
        <time>2021-04-24T11:45:41Z</time>
      </trkpt>
      <trkpt lat="43.65082" lon="3.79054">
        <ele>67</ele>
        <time>2021-04-24T11:45:42Z</time>
      </trkpt>
      <trkpt lat="43.65087" lon="3.79048">
        <ele>67</ele>
        <time>2021-04-24T11:45:43Z</time>
      </trkpt>
      <trkpt lat="43.6509" lon="3.79042">
        <ele>67</ele>
        <time>2021-04-24T11:45:44Z</time>
      </trkpt>
      <trkpt lat="43.65092" lon="3.79034">
        <ele>67</ele>
        <time>2021-04-24T11:45:45Z</time>
      </trkpt>
      <trkpt lat="43.65095" lon="3.79027">
        <ele>67</ele>
        <time>2021-04-24T11:45:46Z</time>
      </trkpt>
      <trkpt lat="43.65096" lon="3.79019">
        <ele>64</ele>
        <time>2021-04-24T11:45:47Z</time>
      </trkpt>
      <trkpt lat="43.65096" lon="3.79012">
        <ele>64</ele>
        <time>2021-04-24T11:45:48Z</time>
      </trkpt>
      <trkpt lat="43.65095" lon="3.79006">
        <ele>64</ele>
        <time>2021-04-24T11:45:49Z</time>
      </trkpt>
      <trkpt lat="43.65093" lon="3.78994">
        <ele>64</ele>
        <time>2021-04-24T11:45:51Z</time>
      </trkpt>
      <trkpt lat="43.65092" lon="3.78988">
        <ele>64</ele>
        <time>2021-04-24T11:45:52Z</time>
      </trkpt>
      <trkpt lat="43.65092" lon="3.78983">
        <ele>64</ele>
        <time>2021-04-24T11:45:53Z</time>
      </trkpt>
      <trkpt lat="43.65092" lon="3.78978">
        <ele>64</ele>
        <time>2021-04-24T11:45:54Z</time>
      </trkpt>
      <trkpt lat="43.65092" lon="3.78973">
        <ele>64</ele>
        <time>2021-04-24T11:45:55Z</time>
      </trkpt>
      <trkpt lat="43.65089" lon="3.78962">
        <ele>64</ele>
        <time>2021-04-24T11:45:57Z</time>
      </trkpt>
      <trkpt lat="43.65087" lon="3.78957">
        <ele>64</ele>
        <time>2021-04-24T11:45:58Z</time>
      </trkpt>
      <trkpt lat="43.65085" lon="3.78952">
        <ele>64</ele>
        <time>2021-04-24T11:45:59Z</time>
      </trkpt>
      <trkpt lat="43.65084" lon="3.78947">
        <ele>64</ele>
        <time>2021-04-24T11:46:00Z</time>
      </trkpt>
      <trkpt lat="43.65083" lon="3.78943">
        <ele>64</ele>
        <time>2021-04-24T11:46:01Z</time>
      </trkpt>
      <trkpt lat="43.65082" lon="3.78938">
        <ele>64</ele>
        <time>2021-04-24T11:46:02Z</time>
      </trkpt>
      <trkpt lat="43.6508" lon="3.78933">
        <ele>64</ele>
        <time>2021-04-24T11:46:03Z</time>
      </trkpt>
      <trkpt lat="43.65078" lon="3.78929">
        <ele>64</ele>
        <time>2021-04-24T11:46:04Z</time>
      </trkpt>
      <trkpt lat="43.65074" lon="3.78916">
        <ele>64</ele>
        <time>2021-04-24T11:46:07Z</time>
      </trkpt>
      <trkpt lat="43.65068" lon="3.78905">
        <ele>64</ele>
        <time>2021-04-24T11:46:10Z</time>
      </trkpt>
      <trkpt lat="43.65066" lon="3.78901">
        <ele>64</ele>
        <time>2021-04-24T11:46:11Z</time>
      </trkpt>
      <trkpt lat="43.65066" lon="3.78897">
        <ele>64</ele>
        <time>2021-04-24T11:46:12Z</time>
      </trkpt>
      <trkpt lat="43.65065" lon="3.78893">
        <ele>64</ele>
        <time>2021-04-24T11:46:13Z</time>
      </trkpt>
      <trkpt lat="43.65063" lon="3.78894">
        <ele>64</ele>
        <time>2021-04-24T11:46:15Z</time>
      </trkpt>
      <trkpt lat="43.65061" lon="3.78898">
        <ele>64</ele>
        <time>2021-04-24T11:46:16Z</time>
      </trkpt>
      <trkpt lat="43.65061" lon="3.78904">
        <ele>63</ele>
        <time>2021-04-24T11:46:17Z</time>
      </trkpt>
      <trkpt lat="43.65062" lon="3.7891">
        <ele>63</ele>
        <time>2021-04-24T11:46:18Z</time>
      </trkpt>
      <trkpt lat="43.65064" lon="3.78917">
        <ele>63</ele>
        <time>2021-04-24T11:46:19Z</time>
      </trkpt>
      <trkpt lat="43.65064" lon="3.78923">
        <ele>63</ele>
        <time>2021-04-24T11:46:20Z</time>
      </trkpt>
      <trkpt lat="43.65064" lon="3.78929">
        <ele>63</ele>
        <time>2021-04-24T11:46:21Z</time>
      </trkpt>
      <trkpt lat="43.65063" lon="3.78934">
        <ele>63</ele>
        <time>2021-04-24T11:46:22Z</time>
      </trkpt>
      <trkpt lat="43.65063" lon="3.78939">
        <ele>63</ele>
        <time>2021-04-24T11:46:23Z</time>
      </trkpt>
      <trkpt lat="43.65069" lon="3.78953">
        <ele>63</ele>
        <time>2021-04-24T11:46:26Z</time>
      </trkpt>
      <trkpt lat="43.65078" lon="3.78943">
        <ele>63</ele>
        <time>2021-04-24T11:46:30Z</time>
      </trkpt>
      <trkpt lat="43.65085" lon="3.78939">
        <ele>63</ele>
        <time>2021-04-24T11:46:32Z</time>
      </trkpt>
      <trkpt lat="43.65094" lon="3.78931">
        <ele>63</ele>
        <time>2021-04-24T11:46:35Z</time>
      </trkpt>
      <trkpt lat="43.65102" lon="3.78923">
        <ele>61</ele>
        <time>2021-04-24T11:46:37Z</time>
      </trkpt>
      <trkpt lat="43.65106" lon="3.7892">
        <ele>61</ele>
        <time>2021-04-24T11:46:38Z</time>
      </trkpt>
      <trkpt lat="43.65116" lon="3.78908">
        <ele>61</ele>
        <time>2021-04-24T11:46:41Z</time>
      </trkpt>
      <trkpt lat="43.65125" lon="3.78901">
        <ele>61</ele>
        <time>2021-04-24T11:46:44Z</time>
      </trkpt>
      <trkpt lat="43.65135" lon="3.78892">
        <ele>61</ele>
        <time>2021-04-24T11:46:47Z</time>
      </trkpt>
      <trkpt lat="43.65141" lon="3.78883">
        <ele>61</ele>
        <time>2021-04-24T11:46:50Z</time>
      </trkpt>
      <trkpt lat="43.65143" lon="3.78881">
        <ele>61</ele>
        <time>2021-04-24T11:46:51Z</time>
      </trkpt>
      <trkpt lat="43.65144" lon="3.78878">
        <ele>61</ele>
        <time>2021-04-24T11:46:52Z</time>
      </trkpt>
      <trkpt lat="43.65145" lon="3.78874">
        <ele>61</ele>
        <time>2021-04-24T11:46:53Z</time>
      </trkpt>
      <trkpt lat="43.65145" lon="3.78863">
        <ele>61</ele>
        <time>2021-04-24T11:46:57Z</time>
      </trkpt>
      <trkpt lat="43.65145" lon="3.7886">
        <ele>61</ele>
        <time>2021-04-24T11:46:58Z</time>
      </trkpt>
      <trkpt lat="43.65146" lon="3.78852">
        <ele>61</ele>
        <time>2021-04-24T11:47:01Z</time>
      </trkpt>
      <trkpt lat="43.65147" lon="3.78849">
        <ele>61</ele>
        <time>2021-04-24T11:47:02Z</time>
      </trkpt>
      <trkpt lat="43.65147" lon="3.78846">
        <ele>61</ele>
        <time>2021-04-24T11:47:03Z</time>
      </trkpt>
      <trkpt lat="43.65146" lon="3.78844">
        <ele>61</ele>
        <time>2021-04-24T11:47:04Z</time>
      </trkpt>
      <trkpt lat="43.65146" lon="3.78841">
        <ele>61</ele>
        <time>2021-04-24T11:47:05Z</time>
      </trkpt>
      <trkpt lat="43.65146" lon="3.78838">
        <ele>61</ele>
        <time>2021-04-24T11:47:06Z</time>
      </trkpt>
      <trkpt lat="43.65146" lon="3.78835">
        <ele>61</ele>
        <time>2021-04-24T11:47:07Z</time>
      </trkpt>
      <trkpt lat="43.65146" lon="3.78829">
        <ele>61</ele>
        <time>2021-04-24T11:47:08Z</time>
      </trkpt>
      <trkpt lat="43.65146" lon="3.78827">
        <ele>61</ele>
        <time>2021-04-24T11:47:09Z</time>
      </trkpt>
      <trkpt lat="43.65146" lon="3.78824">
        <ele>61</ele>
        <time>2021-04-24T11:47:10Z</time>
      </trkpt>
      <trkpt lat="43.65146" lon="3.78821">
        <ele>61</ele>
        <time>2021-04-24T11:47:12Z</time>
      </trkpt>
      <trkpt lat="43.65146" lon="3.78818">
        <ele>61</ele>
        <time>2021-04-24T11:47:13Z</time>
      </trkpt>
      <trkpt lat="43.65147" lon="3.78815">
        <ele>61</ele>
        <time>2021-04-24T11:47:14Z</time>
      </trkpt>
      <trkpt lat="43.65147" lon="3.78812">
        <ele>61</ele>
        <time>2021-04-24T11:47:15Z</time>
      </trkpt>
      <trkpt lat="43.65149" lon="3.78809">
        <ele>61</ele>
        <time>2021-04-24T11:47:16Z</time>
      </trkpt>
      <trkpt lat="43.65154" lon="3.78806">
        <ele>64</ele>
        <time>2021-04-24T11:47:17Z</time>
      </trkpt>
      <trkpt lat="43.65157" lon="3.78803">
        <ele>64</ele>
        <time>2021-04-24T11:47:18Z</time>
      </trkpt>
      <trkpt lat="43.65159" lon="3.78801">
        <ele>64</ele>
        <time>2021-04-24T11:47:19Z</time>
      </trkpt>
      <trkpt lat="43.65162" lon="3.78798">
        <ele>64</ele>
        <time>2021-04-24T11:47:21Z</time>
      </trkpt>
      <trkpt lat="43.65164" lon="3.78795">
        <ele>64</ele>
        <time>2021-04-24T11:47:22Z</time>
      </trkpt>
      <trkpt lat="43.65167" lon="3.78794">
        <ele>64</ele>
        <time>2021-04-24T11:47:23Z</time>
      </trkpt>
      <trkpt lat="43.6517" lon="3.78792">
        <ele>64</ele>
        <time>2021-04-24T11:47:24Z</time>
      </trkpt>
      <trkpt lat="43.65173" lon="3.7879">
        <ele>64</ele>
        <time>2021-04-24T11:47:25Z</time>
      </trkpt>
      <trkpt lat="43.65175" lon="3.78788">
        <ele>64</ele>
        <time>2021-04-24T11:47:26Z</time>
      </trkpt>
      <trkpt lat="43.65178" lon="3.78786">
        <ele>67</ele>
        <time>2021-04-24T11:47:27Z</time>
      </trkpt>
      <trkpt lat="43.65181" lon="3.78784">
        <ele>67</ele>
        <time>2021-04-24T11:47:28Z</time>
      </trkpt>
      <trkpt lat="43.65184" lon="3.78782">
        <ele>67</ele>
        <time>2021-04-24T11:47:29Z</time>
      </trkpt>
      <trkpt lat="43.65186" lon="3.7878">
        <ele>67</ele>
        <time>2021-04-24T11:47:30Z</time>
      </trkpt>
      <trkpt lat="43.65189" lon="3.78778">
        <ele>67</ele>
        <time>2021-04-24T11:47:31Z</time>
      </trkpt>
      <trkpt lat="43.65191" lon="3.78776">
        <ele>67</ele>
        <time>2021-04-24T11:47:32Z</time>
      </trkpt>
      <trkpt lat="43.65194" lon="3.78774">
        <ele>67</ele>
        <time>2021-04-24T11:47:33Z</time>
      </trkpt>
      <trkpt lat="43.65197" lon="3.78772">
        <ele>67</ele>
        <time>2021-04-24T11:47:34Z</time>
      </trkpt>
      <trkpt lat="43.65199" lon="3.78769">
        <ele>67</ele>
        <time>2021-04-24T11:47:35Z</time>
      </trkpt>
      <trkpt lat="43.65202" lon="3.78766">
        <ele>67</ele>
        <time>2021-04-24T11:47:36Z</time>
      </trkpt>
      <trkpt lat="43.65204" lon="3.78764">
        <ele>69</ele>
        <time>2021-04-24T11:47:37Z</time>
      </trkpt>
      <trkpt lat="43.65206" lon="3.78762">
        <ele>69</ele>
        <time>2021-04-24T11:47:38Z</time>
      </trkpt>
      <trkpt lat="43.65209" lon="3.7876">
        <ele>69</ele>
        <time>2021-04-24T11:47:39Z</time>
      </trkpt>
      <trkpt lat="43.65212" lon="3.78757">
        <ele>69</ele>
        <time>2021-04-24T11:47:40Z</time>
      </trkpt>
      <trkpt lat="43.65214" lon="3.78754">
        <ele>69</ele>
        <time>2021-04-24T11:47:41Z</time>
      </trkpt>
      <trkpt lat="43.65216" lon="3.78751">
        <ele>69</ele>
        <time>2021-04-24T11:47:42Z</time>
      </trkpt>
      <trkpt lat="43.65217" lon="3.78747">
        <ele>69</ele>
        <time>2021-04-24T11:47:43Z</time>
      </trkpt>
      <trkpt lat="43.65218" lon="3.78744">
        <ele>69</ele>
        <time>2021-04-24T11:47:44Z</time>
      </trkpt>
      <trkpt lat="43.65219" lon="3.7874">
        <ele>69</ele>
        <time>2021-04-24T11:47:45Z</time>
      </trkpt>
      <trkpt lat="43.65222" lon="3.78737">
        <ele>69</ele>
        <time>2021-04-24T11:47:46Z</time>
      </trkpt>
      <trkpt lat="43.65225" lon="3.78735">
        <ele>68</ele>
        <time>2021-04-24T11:47:47Z</time>
      </trkpt>
      <trkpt lat="43.65228" lon="3.78733">
        <ele>68</ele>
        <time>2021-04-24T11:47:48Z</time>
      </trkpt>
      <trkpt lat="43.65232" lon="3.78732">
        <ele>68</ele>
        <time>2021-04-24T11:47:49Z</time>
      </trkpt>
      <trkpt lat="43.65235" lon="3.7873">
        <ele>68</ele>
        <time>2021-04-24T11:47:50Z</time>
      </trkpt>
      <trkpt lat="43.65238" lon="3.78729">
        <ele>68</ele>
        <time>2021-04-24T11:47:51Z</time>
      </trkpt>
      <trkpt lat="43.65241" lon="3.78728">
        <ele>68</ele>
        <time>2021-04-24T11:47:52Z</time>
      </trkpt>
      <trkpt lat="43.65245" lon="3.78727">
        <ele>68</ele>
        <time>2021-04-24T11:47:53Z</time>
      </trkpt>
      <trkpt lat="43.65248" lon="3.78726">
        <ele>68</ele>
        <time>2021-04-24T11:47:54Z</time>
      </trkpt>
      <trkpt lat="43.65251" lon="3.78725">
        <ele>68</ele>
        <time>2021-04-24T11:47:55Z</time>
      </trkpt>
      <trkpt lat="43.65254" lon="3.78723">
        <ele>68</ele>
        <time>2021-04-24T11:47:56Z</time>
      </trkpt>
      <trkpt lat="43.65257" lon="3.78722">
        <ele>68</ele>
        <time>2021-04-24T11:47:57Z</time>
      </trkpt>
      <trkpt lat="43.6526" lon="3.78721">
        <ele>68</ele>
        <time>2021-04-24T11:47:58Z</time>
      </trkpt>
      <trkpt lat="43.65263" lon="3.78719">
        <ele>68</ele>
        <time>2021-04-24T11:47:59Z</time>
      </trkpt>
      <trkpt lat="43.65266" lon="3.78718">
        <ele>68</ele>
        <time>2021-04-24T11:48:00Z</time>
      </trkpt>
      <trkpt lat="43.65269" lon="3.78716">
        <ele>68</ele>
        <time>2021-04-24T11:48:01Z</time>
      </trkpt>
      <trkpt lat="43.6527" lon="3.78714">
        <ele>68</ele>
        <time>2021-04-24T11:48:02Z</time>
      </trkpt>
      <trkpt lat="43.6527" lon="3.78712">
        <ele>68</ele>
        <time>2021-04-24T11:48:03Z</time>
      </trkpt>
      <trkpt lat="43.6527" lon="3.78709">
        <ele>68</ele>
        <time>2021-04-24T11:48:09Z</time>
      </trkpt>
      <trkpt lat="43.65276" lon="3.78704">
        <ele>71</ele>
        <time>2021-04-24T11:48:41Z</time>
      </trkpt>
      <trkpt lat="43.65278" lon="3.78701">
        <ele>71</ele>
        <time>2021-04-24T11:48:42Z</time>
      </trkpt>
      <trkpt lat="43.6528" lon="3.78698">
        <ele>71</ele>
        <time>2021-04-24T11:48:45Z</time>
      </trkpt>
      <trkpt lat="43.65282" lon="3.78697">
        <ele>71</ele>
        <time>2021-04-24T11:48:47Z</time>
      </trkpt>
      <trkpt lat="43.65285" lon="3.78697">
        <ele>71</ele>
        <time>2021-04-24T11:48:49Z</time>
      </trkpt>
      <trkpt lat="43.65288" lon="3.78694">
        <ele>69</ele>
        <time>2021-04-24T11:48:51Z</time>
      </trkpt>
      <trkpt lat="43.65289" lon="3.78692">
        <ele>69</ele>
        <time>2021-04-24T11:48:52Z</time>
      </trkpt>
      <trkpt lat="43.6529" lon="3.78689">
        <ele>69</ele>
        <time>2021-04-24T11:48:53Z</time>
      </trkpt>
      <trkpt lat="43.65291" lon="3.78687">
        <ele>69</ele>
        <time>2021-04-24T11:48:54Z</time>
      </trkpt>
      <trkpt lat="43.65292" lon="3.78684">
        <ele>69</ele>
        <time>2021-04-24T11:48:55Z</time>
      </trkpt>
      <trkpt lat="43.65293" lon="3.78682">
        <ele>69</ele>
        <time>2021-04-24T11:48:56Z</time>
      </trkpt>
      <trkpt lat="43.65294" lon="3.78679">
        <ele>69</ele>
        <time>2021-04-24T11:48:57Z</time>
      </trkpt>
      <trkpt lat="43.65295" lon="3.78677">
        <ele>69</ele>
        <time>2021-04-24T11:48:58Z</time>
      </trkpt>
      <trkpt lat="43.65295" lon="3.78674">
        <ele>69</ele>
        <time>2021-04-24T11:48:59Z</time>
      </trkpt>
      <trkpt lat="43.65295" lon="3.7867">
        <ele>70</ele>
        <time>2021-04-24T11:49:01Z</time>
      </trkpt>
      <trkpt lat="43.65293" lon="3.78667">
        <ele>70</ele>
        <time>2021-04-24T11:49:02Z</time>
      </trkpt>
      <trkpt lat="43.65292" lon="3.7866">
        <ele>70</ele>
        <time>2021-04-24T11:49:04Z</time>
      </trkpt>
      <trkpt lat="43.65291" lon="3.78657">
        <ele>70</ele>
        <time>2021-04-24T11:49:05Z</time>
      </trkpt>
      <trkpt lat="43.65291" lon="3.78654">
        <ele>70</ele>
        <time>2021-04-24T11:49:06Z</time>
      </trkpt>
      <trkpt lat="43.6529" lon="3.78652">
        <ele>70</ele>
        <time>2021-04-24T11:49:08Z</time>
      </trkpt>
      <trkpt lat="43.65288" lon="3.78649">
        <ele>70</ele>
        <time>2021-04-24T11:49:09Z</time>
      </trkpt>
      <trkpt lat="43.65286" lon="3.78646">
        <ele>70</ele>
        <time>2021-04-24T11:49:10Z</time>
      </trkpt>
      <trkpt lat="43.65285" lon="3.78643">
        <ele>70</ele>
        <time>2021-04-24T11:49:11Z</time>
      </trkpt>
      <trkpt lat="43.65284" lon="3.7864">
        <ele>70</ele>
        <time>2021-04-24T11:49:12Z</time>
      </trkpt>
      <trkpt lat="43.65283" lon="3.78637">
        <ele>70</ele>
        <time>2021-04-24T11:49:13Z</time>
      </trkpt>
      <trkpt lat="43.65282" lon="3.78635">
        <ele>70</ele>
        <time>2021-04-24T11:49:14Z</time>
      </trkpt>
      <trkpt lat="43.65281" lon="3.78632">
        <ele>70</ele>
        <time>2021-04-24T11:49:15Z</time>
      </trkpt>
      <trkpt lat="43.65281" lon="3.78629">
        <ele>70</ele>
        <time>2021-04-24T11:49:16Z</time>
      </trkpt>
      <trkpt lat="43.65281" lon="3.78626">
        <ele>70</ele>
        <time>2021-04-24T11:49:17Z</time>
      </trkpt>
      <trkpt lat="43.6528" lon="3.78622">
        <ele>70</ele>
        <time>2021-04-24T11:49:18Z</time>
      </trkpt>
      <trkpt lat="43.65281" lon="3.78619">
        <ele>70</ele>
        <time>2021-04-24T11:49:19Z</time>
      </trkpt>
      <trkpt lat="43.65282" lon="3.78616">
        <ele>70</ele>
        <time>2021-04-24T11:49:20Z</time>
      </trkpt>
      <trkpt lat="43.65284" lon="3.78614">
        <ele>72</ele>
        <time>2021-04-24T11:49:21Z</time>
      </trkpt>
      <trkpt lat="43.65286" lon="3.78611">
        <ele>72</ele>
        <time>2021-04-24T11:49:22Z</time>
      </trkpt>
      <trkpt lat="43.65287" lon="3.78608">
        <ele>72</ele>
        <time>2021-04-24T11:49:23Z</time>
      </trkpt>
      <trkpt lat="43.65288" lon="3.78605">
        <ele>72</ele>
        <time>2021-04-24T11:49:24Z</time>
      </trkpt>
      <trkpt lat="43.6529" lon="3.78602">
        <ele>72</ele>
        <time>2021-04-24T11:49:25Z</time>
      </trkpt>
      <trkpt lat="43.65291" lon="3.78599">
        <ele>72</ele>
        <time>2021-04-24T11:49:26Z</time>
      </trkpt>
      <trkpt lat="43.65292" lon="3.78595">
        <ele>72</ele>
        <time>2021-04-24T11:49:27Z</time>
      </trkpt>
      <trkpt lat="43.65292" lon="3.78592">
        <ele>72</ele>
        <time>2021-04-24T11:49:28Z</time>
      </trkpt>
      <trkpt lat="43.65293" lon="3.78588">
        <ele>72</ele>
        <time>2021-04-24T11:49:29Z</time>
      </trkpt>
      <trkpt lat="43.65294" lon="3.78585">
        <ele>72</ele>
        <time>2021-04-24T11:49:30Z</time>
      </trkpt>
      <trkpt lat="43.65295" lon="3.78581">
        <ele>72</ele>
        <time>2021-04-24T11:49:31Z</time>
      </trkpt>
      <trkpt lat="43.65296" lon="3.78578">
        <ele>72</ele>
        <time>2021-04-24T11:49:32Z</time>
      </trkpt>
      <trkpt lat="43.65297" lon="3.78575">
        <ele>72</ele>
        <time>2021-04-24T11:49:33Z</time>
      </trkpt>
      <trkpt lat="43.65298" lon="3.78571">
        <ele>72</ele>
        <time>2021-04-24T11:49:34Z</time>
      </trkpt>
      <trkpt lat="43.65299" lon="3.78568">
        <ele>72</ele>
        <time>2021-04-24T11:49:35Z</time>
      </trkpt>
      <trkpt lat="43.653" lon="3.78564">
        <ele>72</ele>
        <time>2021-04-24T11:49:36Z</time>
      </trkpt>
      <trkpt lat="43.653" lon="3.7856">
        <ele>72</ele>
        <time>2021-04-24T11:49:37Z</time>
      </trkpt>
      <trkpt lat="43.65301" lon="3.78557">
        <ele>72</ele>
        <time>2021-04-24T11:49:38Z</time>
      </trkpt>
      <trkpt lat="43.65301" lon="3.78553">
        <ele>72</ele>
        <time>2021-04-24T11:49:39Z</time>
      </trkpt>
      <trkpt lat="43.65301" lon="3.78549">
        <ele>72</ele>
        <time>2021-04-24T11:49:40Z</time>
      </trkpt>
      <trkpt lat="43.65302" lon="3.78546">
        <ele>73</ele>
        <time>2021-04-24T11:49:41Z</time>
      </trkpt>
      <trkpt lat="43.65302" lon="3.78542">
        <ele>73</ele>
        <time>2021-04-24T11:49:42Z</time>
      </trkpt>
      <trkpt lat="43.65303" lon="3.78538">
        <ele>73</ele>
        <time>2021-04-24T11:49:43Z</time>
      </trkpt>
      <trkpt lat="43.65303" lon="3.78535">
        <ele>73</ele>
        <time>2021-04-24T11:49:44Z</time>
      </trkpt>
      <trkpt lat="43.65304" lon="3.78531">
        <ele>73</ele>
        <time>2021-04-24T11:49:45Z</time>
      </trkpt>
      <trkpt lat="43.65305" lon="3.78527">
        <ele>73</ele>
        <time>2021-04-24T11:49:46Z</time>
      </trkpt>
      <trkpt lat="43.65306" lon="3.78524">
        <ele>73</ele>
        <time>2021-04-24T11:49:47Z</time>
      </trkpt>
      <trkpt lat="43.65306" lon="3.7852">
        <ele>73</ele>
        <time>2021-04-24T11:49:48Z</time>
      </trkpt>
      <trkpt lat="43.65307" lon="3.78517">
        <ele>73</ele>
        <time>2021-04-24T11:49:49Z</time>
      </trkpt>
      <trkpt lat="43.65308" lon="3.78513">
        <ele>73</ele>
        <time>2021-04-24T11:49:50Z</time>
      </trkpt>
      <trkpt lat="43.65308" lon="3.7851">
        <ele>73</ele>
        <time>2021-04-24T11:49:51Z</time>
      </trkpt>
      <trkpt lat="43.65309" lon="3.78506">
        <ele>73</ele>
        <time>2021-04-24T11:49:52Z</time>
      </trkpt>
      <trkpt lat="43.6531" lon="3.78502">
        <ele>73</ele>
        <time>2021-04-24T11:49:53Z</time>
      </trkpt>
      <trkpt lat="43.65311" lon="3.78499">
        <ele>73</ele>
        <time>2021-04-24T11:49:54Z</time>
      </trkpt>
      <trkpt lat="43.65311" lon="3.78495">
        <ele>73</ele>
        <time>2021-04-24T11:49:55Z</time>
      </trkpt>
      <trkpt lat="43.65311" lon="3.78491">
        <ele>73</ele>
        <time>2021-04-24T11:49:56Z</time>
      </trkpt>
      <trkpt lat="43.65312" lon="3.78488">
        <ele>73</ele>
        <time>2021-04-24T11:49:57Z</time>
      </trkpt>
      <trkpt lat="43.65313" lon="3.78484">
        <ele>73</ele>
        <time>2021-04-24T11:49:58Z</time>
      </trkpt>
      <trkpt lat="43.65314" lon="3.7848">
        <ele>73</ele>
        <time>2021-04-24T11:49:59Z</time>
      </trkpt>
      <trkpt lat="43.65314" lon="3.78477">
        <ele>73</ele>
        <time>2021-04-24T11:50:00Z</time>
      </trkpt>
      <trkpt lat="43.65315" lon="3.78473">
        <ele>74</ele>
        <time>2021-04-24T11:50:01Z</time>
      </trkpt>
      <trkpt lat="43.65315" lon="3.78469">
        <ele>74</ele>
        <time>2021-04-24T11:50:02Z</time>
      </trkpt>
      <trkpt lat="43.65316" lon="3.78465">
        <ele>74</ele>
        <time>2021-04-24T11:50:03Z</time>
      </trkpt>
      <trkpt lat="43.65316" lon="3.78462">
        <ele>74</ele>
        <time>2021-04-24T11:50:04Z</time>
      </trkpt>
      <trkpt lat="43.65317" lon="3.78458">
        <ele>74</ele>
        <time>2021-04-24T11:50:05Z</time>
      </trkpt>
      <trkpt lat="43.65317" lon="3.78454">
        <ele>74</ele>
        <time>2021-04-24T11:50:06Z</time>
      </trkpt>
      <trkpt lat="43.65317" lon="3.7845">
        <ele>74</ele>
        <time>2021-04-24T11:50:07Z</time>
      </trkpt>
      <trkpt lat="43.65318" lon="3.78446">
        <ele>74</ele>
        <time>2021-04-24T11:50:08Z</time>
      </trkpt>
      <trkpt lat="43.65318" lon="3.78442">
        <ele>74</ele>
        <time>2021-04-24T11:50:09Z</time>
      </trkpt>
      <trkpt lat="43.65318" lon="3.78438">
        <ele>74</ele>
        <time>2021-04-24T11:50:10Z</time>
      </trkpt>
      <trkpt lat="43.65318" lon="3.78434">
        <ele>74</ele>
        <time>2021-04-24T11:50:11Z</time>
      </trkpt>
      <trkpt lat="43.65319" lon="3.78429">
        <ele>74</ele>
        <time>2021-04-24T11:50:12Z</time>
      </trkpt>
      <trkpt lat="43.65319" lon="3.78425">
        <ele>74</ele>
        <time>2021-04-24T11:50:13Z</time>
      </trkpt>
      <trkpt lat="43.65319" lon="3.78421">
        <ele>74</ele>
        <time>2021-04-24T11:50:14Z</time>
      </trkpt>
      <trkpt lat="43.6532" lon="3.78417">
        <ele>74</ele>
        <time>2021-04-24T11:50:15Z</time>
      </trkpt>
      <trkpt lat="43.65321" lon="3.78413">
        <ele>74</ele>
        <time>2021-04-24T11:50:16Z</time>
      </trkpt>
      <trkpt lat="43.65322" lon="3.7841">
        <ele>74</ele>
        <time>2021-04-24T11:50:17Z</time>
      </trkpt>
      <trkpt lat="43.65323" lon="3.78406">
        <ele>74</ele>
        <time>2021-04-24T11:50:18Z</time>
      </trkpt>
      <trkpt lat="43.65324" lon="3.78402">
        <ele>74</ele>
        <time>2021-04-24T11:50:19Z</time>
      </trkpt>
      <trkpt lat="43.65327" lon="3.78396">
        <ele>75</ele>
        <time>2021-04-24T11:50:21Z</time>
      </trkpt>
      <trkpt lat="43.65328" lon="3.78392">
        <ele>75</ele>
        <time>2021-04-24T11:50:22Z</time>
      </trkpt>
      <trkpt lat="43.65331" lon="3.78381">
        <ele>75</ele>
        <time>2021-04-24T11:50:25Z</time>
      </trkpt>
      <trkpt lat="43.65331" lon="3.78377">
        <ele>75</ele>
        <time>2021-04-24T11:50:26Z</time>
      </trkpt>
      <trkpt lat="43.65332" lon="3.78373">
        <ele>75</ele>
        <time>2021-04-24T11:50:27Z</time>
      </trkpt>
      <trkpt lat="43.65332" lon="3.78368">
        <ele>75</ele>
        <time>2021-04-24T11:50:28Z</time>
      </trkpt>
      <trkpt lat="43.65332" lon="3.78364">
        <ele>75</ele>
        <time>2021-04-24T11:50:29Z</time>
      </trkpt>
      <trkpt lat="43.65332" lon="3.78361">
        <ele>75</ele>
        <time>2021-04-24T11:50:30Z</time>
      </trkpt>
      <trkpt lat="43.65332" lon="3.78358">
        <ele>75</ele>
        <time>2021-04-24T11:50:31Z</time>
      </trkpt>
      <trkpt lat="43.65332" lon="3.78354">
        <ele>75</ele>
        <time>2021-04-24T11:50:32Z</time>
      </trkpt>
      <trkpt lat="43.65333" lon="3.78351">
        <ele>75</ele>
        <time>2021-04-24T11:50:33Z</time>
      </trkpt>
      <trkpt lat="43.65333" lon="3.78347">
        <ele>75</ele>
        <time>2021-04-24T11:50:34Z</time>
      </trkpt>
      <trkpt lat="43.65334" lon="3.78344">
        <ele>75</ele>
        <time>2021-04-24T11:50:35Z</time>
      </trkpt>
      <trkpt lat="43.65335" lon="3.7834">
        <ele>75</ele>
        <time>2021-04-24T11:50:36Z</time>
      </trkpt>
      <trkpt lat="43.65337" lon="3.78337">
        <ele>75</ele>
        <time>2021-04-24T11:50:37Z</time>
      </trkpt>
      <trkpt lat="43.65339" lon="3.78333">
        <ele>75</ele>
        <time>2021-04-24T11:50:38Z</time>
      </trkpt>
      <trkpt lat="43.6534" lon="3.7833">
        <ele>75</ele>
        <time>2021-04-24T11:50:39Z</time>
      </trkpt>
      <trkpt lat="43.65342" lon="3.78327">
        <ele>75</ele>
        <time>2021-04-24T11:50:40Z</time>
      </trkpt>
      <trkpt lat="43.65344" lon="3.78323">
        <ele>75</ele>
        <time>2021-04-24T11:50:41Z</time>
      </trkpt>
      <trkpt lat="43.65346" lon="3.7832">
        <ele>75</ele>
        <time>2021-04-24T11:50:42Z</time>
      </trkpt>
      <trkpt lat="43.65347" lon="3.78316">
        <ele>75</ele>
        <time>2021-04-24T11:50:43Z</time>
      </trkpt>
      <trkpt lat="43.65349" lon="3.78313">
        <ele>75</ele>
        <time>2021-04-24T11:50:44Z</time>
      </trkpt>
      <trkpt lat="43.6535" lon="3.7831">
        <ele>75</ele>
        <time>2021-04-24T11:50:45Z</time>
      </trkpt>
      <trkpt lat="43.65352" lon="3.78307">
        <ele>75</ele>
        <time>2021-04-24T11:50:46Z</time>
      </trkpt>
      <trkpt lat="43.65353" lon="3.78304">
        <ele>75</ele>
        <time>2021-04-24T11:50:47Z</time>
      </trkpt>
      <trkpt lat="43.65354" lon="3.78301">
        <ele>75</ele>
        <time>2021-04-24T11:50:48Z</time>
      </trkpt>
      <trkpt lat="43.65355" lon="3.78298">
        <ele>75</ele>
        <time>2021-04-24T11:50:49Z</time>
      </trkpt>
      <trkpt lat="43.65357" lon="3.78296">
        <ele>75</ele>
        <time>2021-04-24T11:50:50Z</time>
      </trkpt>
      <trkpt lat="43.65358" lon="3.78293">
        <ele>76</ele>
        <time>2021-04-24T11:50:51Z</time>
      </trkpt>
      <trkpt lat="43.65359" lon="3.78291">
        <ele>76</ele>
        <time>2021-04-24T11:50:52Z</time>
      </trkpt>
      <trkpt lat="43.6536" lon="3.78289">
        <ele>76</ele>
        <time>2021-04-24T11:50:53Z</time>
      </trkpt>
      <trkpt lat="43.65361" lon="3.78286">
        <ele>76</ele>
        <time>2021-04-24T11:50:54Z</time>
      </trkpt>
      <trkpt lat="43.65362" lon="3.78284">
        <ele>76</ele>
        <time>2021-04-24T11:50:55Z</time>
      </trkpt>
      <trkpt lat="43.65363" lon="3.78281">
        <ele>76</ele>
        <time>2021-04-24T11:50:56Z</time>
      </trkpt>
      <trkpt lat="43.65364" lon="3.78278">
        <ele>76</ele>
        <time>2021-04-24T11:50:57Z</time>
      </trkpt>
      <trkpt lat="43.65365" lon="3.78275">
        <ele>76</ele>
        <time>2021-04-24T11:50:58Z</time>
      </trkpt>
      <trkpt lat="43.65366" lon="3.78272">
        <ele>76</ele>
        <time>2021-04-24T11:50:59Z</time>
      </trkpt>
      <trkpt lat="43.65368" lon="3.78268">
        <ele>76</ele>
        <time>2021-04-24T11:51:00Z</time>
      </trkpt>
      <trkpt lat="43.65369" lon="3.78265">
        <ele>76</ele>
        <time>2021-04-24T11:51:01Z</time>
      </trkpt>
      <trkpt lat="43.65371" lon="3.78262">
        <ele>76</ele>
        <time>2021-04-24T11:51:02Z</time>
      </trkpt>
      <trkpt lat="43.65372" lon="3.78258">
        <ele>76</ele>
        <time>2021-04-24T11:51:03Z</time>
      </trkpt>
      <trkpt lat="43.65374" lon="3.78254">
        <ele>76</ele>
        <time>2021-04-24T11:51:04Z</time>
      </trkpt>
      <trkpt lat="43.65376" lon="3.78251">
        <ele>76</ele>
        <time>2021-04-24T11:51:05Z</time>
      </trkpt>
      <trkpt lat="43.65379" lon="3.78247">
        <ele>76</ele>
        <time>2021-04-24T11:51:06Z</time>
      </trkpt>
      <trkpt lat="43.65381" lon="3.78243">
        <ele>76</ele>
        <time>2021-04-24T11:51:07Z</time>
      </trkpt>
      <trkpt lat="43.65384" lon="3.78239">
        <ele>76</ele>
        <time>2021-04-24T11:51:08Z</time>
      </trkpt>
      <trkpt lat="43.65387" lon="3.78234">
        <ele>76</ele>
        <time>2021-04-24T11:51:09Z</time>
      </trkpt>
      <trkpt lat="43.6539" lon="3.78231">
        <ele>76</ele>
        <time>2021-04-24T11:51:10Z</time>
      </trkpt>
      <trkpt lat="43.65392" lon="3.78229">
        <ele>75</ele>
        <time>2021-04-24T11:51:11Z</time>
      </trkpt>
      <trkpt lat="43.65396" lon="3.7823">
        <ele>75</ele>
        <time>2021-04-24T11:51:12Z</time>
      </trkpt>
      <trkpt lat="43.65399" lon="3.78231">
        <ele>75</ele>
        <time>2021-04-24T11:51:13Z</time>
      </trkpt>
      <trkpt lat="43.65402" lon="3.78234">
        <ele>75</ele>
        <time>2021-04-24T11:51:14Z</time>
      </trkpt>
      <trkpt lat="43.65405" lon="3.78237">
        <ele>75</ele>
        <time>2021-04-24T11:51:15Z</time>
      </trkpt>
      <trkpt lat="43.65407" lon="3.7824">
        <ele>75</ele>
        <time>2021-04-24T11:51:16Z</time>
      </trkpt>
      <trkpt lat="43.65409" lon="3.78243">
        <ele>75</ele>
        <time>2021-04-24T11:51:17Z</time>
      </trkpt>
      <trkpt lat="43.65411" lon="3.78246">
        <ele>75</ele>
        <time>2021-04-24T11:51:18Z</time>
      </trkpt>
      <trkpt lat="43.65414" lon="3.78249">
        <ele>75</ele>
        <time>2021-04-24T11:51:19Z</time>
      </trkpt>
      <trkpt lat="43.65415" lon="3.78253">
        <ele>75</ele>
        <time>2021-04-24T11:51:20Z</time>
      </trkpt>
      <trkpt lat="43.65416" lon="3.78256">
        <ele>74</ele>
        <time>2021-04-24T11:51:21Z</time>
      </trkpt>
      <trkpt lat="43.65417" lon="3.78258">
        <ele>74</ele>
        <time>2021-04-24T11:51:22Z</time>
      </trkpt>
      <trkpt lat="43.65419" lon="3.7826">
        <ele>74</ele>
        <time>2021-04-24T11:51:23Z</time>
      </trkpt>
      <trkpt lat="43.65421" lon="3.78262">
        <ele>74</ele>
        <time>2021-04-24T11:51:24Z</time>
      </trkpt>
      <trkpt lat="43.65424" lon="3.78262">
        <ele>74</ele>
        <time>2021-04-24T11:51:26Z</time>
      </trkpt>
      <trkpt lat="43.65426" lon="3.78263">
        <ele>74</ele>
        <time>2021-04-24T11:51:28Z</time>
      </trkpt>
      <trkpt lat="43.65427" lon="3.78267">
        <ele>74</ele>
        <time>2021-04-24T11:51:30Z</time>
      </trkpt>
      <trkpt lat="43.65427" lon="3.7827">
        <ele>74</ele>
        <time>2021-04-24T11:51:32Z</time>
      </trkpt>
      <trkpt lat="43.65426" lon="3.7827">
        <ele>73</ele>
        <time>2021-04-24T11:51:38Z</time>
      </trkpt>
      <trkpt lat="43.65422" lon="3.78268">
        <ele>73</ele>
        <time>2021-04-24T11:51:43Z</time>
      </trkpt>
      <trkpt lat="43.65419" lon="3.78266">
        <ele>73</ele>
        <time>2021-04-24T11:51:44Z</time>
      </trkpt>
      <trkpt lat="43.65418" lon="3.78263">
        <ele>73</ele>
        <time>2021-04-24T11:51:45Z</time>
      </trkpt>
      <trkpt lat="43.65417" lon="3.7826">
        <ele>73</ele>
        <time>2021-04-24T11:51:46Z</time>
      </trkpt>
      <trkpt lat="43.65416" lon="3.78256">
        <ele>73</ele>
        <time>2021-04-24T11:51:47Z</time>
      </trkpt>
      <trkpt lat="43.65415" lon="3.78253">
        <ele>73</ele>
        <time>2021-04-24T11:51:48Z</time>
      </trkpt>
      <trkpt lat="43.65414" lon="3.78249">
        <ele>73</ele>
        <time>2021-04-24T11:51:49Z</time>
      </trkpt>
      <trkpt lat="43.65412" lon="3.78246">
        <ele>73</ele>
        <time>2021-04-24T11:51:50Z</time>
      </trkpt>
      <trkpt lat="43.6541" lon="3.78242">
        <ele>73</ele>
        <time>2021-04-24T11:51:51Z</time>
      </trkpt>
      <trkpt lat="43.65408" lon="3.7824">
        <ele>73</ele>
        <time>2021-04-24T11:51:52Z</time>
      </trkpt>
      <trkpt lat="43.65407" lon="3.78238">
        <ele>73</ele>
        <time>2021-04-24T11:51:53Z</time>
      </trkpt>
      <trkpt lat="43.65404" lon="3.78236">
        <ele>73</ele>
        <time>2021-04-24T11:51:54Z</time>
      </trkpt>
      <trkpt lat="43.65402" lon="3.78235">
        <ele>73</ele>
        <time>2021-04-24T11:51:55Z</time>
      </trkpt>
      <trkpt lat="43.654" lon="3.78233">
        <ele>73</ele>
        <time>2021-04-24T11:51:56Z</time>
      </trkpt>
      <trkpt lat="43.65398" lon="3.78232">
        <ele>73</ele>
        <time>2021-04-24T11:51:57Z</time>
      </trkpt>
      <trkpt lat="43.65395" lon="3.78231">
        <ele>73</ele>
        <time>2021-04-24T11:51:58Z</time>
      </trkpt>
      <trkpt lat="43.65392" lon="3.78232">
        <ele>73</ele>
        <time>2021-04-24T11:51:59Z</time>
      </trkpt>
      <trkpt lat="43.65389" lon="3.78235">
        <ele>73</ele>
        <time>2021-04-24T11:52:00Z</time>
      </trkpt>
      <trkpt lat="43.65387" lon="3.78238">
        <ele>73</ele>
        <time>2021-04-24T11:52:01Z</time>
      </trkpt>
      <trkpt lat="43.65385" lon="3.78241">
        <ele>73</ele>
        <time>2021-04-24T11:52:02Z</time>
      </trkpt>
      <trkpt lat="43.65384" lon="3.78244">
        <ele>74</ele>
        <time>2021-04-24T11:52:03Z</time>
      </trkpt>
      <trkpt lat="43.65382" lon="3.78247">
        <ele>74</ele>
        <time>2021-04-24T11:52:04Z</time>
      </trkpt>
      <trkpt lat="43.65381" lon="3.7825">
        <ele>74</ele>
        <time>2021-04-24T11:52:05Z</time>
      </trkpt>
      <trkpt lat="43.6538" lon="3.78253">
        <ele>74</ele>
        <time>2021-04-24T11:52:06Z</time>
      </trkpt>
      <trkpt lat="43.65379" lon="3.78256">
        <ele>74</ele>
        <time>2021-04-24T11:52:07Z</time>
      </trkpt>
      <trkpt lat="43.65377" lon="3.78259">
        <ele>74</ele>
        <time>2021-04-24T11:52:08Z</time>
      </trkpt>
      <trkpt lat="43.65376" lon="3.78261">
        <ele>74</ele>
        <time>2021-04-24T11:52:09Z</time>
      </trkpt>
      <trkpt lat="43.65374" lon="3.78264">
        <ele>74</ele>
        <time>2021-04-24T11:52:10Z</time>
      </trkpt>
      <trkpt lat="43.65373" lon="3.78267">
        <ele>74</ele>
        <time>2021-04-24T11:52:11Z</time>
      </trkpt>
      <trkpt lat="43.65372" lon="3.7827">
        <ele>74</ele>
        <time>2021-04-24T11:52:12Z</time>
      </trkpt>
      <trkpt lat="43.65371" lon="3.78273">
        <ele>74</ele>
        <time>2021-04-24T11:52:13Z</time>
      </trkpt>
      <trkpt lat="43.65369" lon="3.78276">
        <ele>74</ele>
        <time>2021-04-24T11:52:14Z</time>
      </trkpt>
      <trkpt lat="43.65368" lon="3.78278">
        <ele>74</ele>
        <time>2021-04-24T11:52:15Z</time>
      </trkpt>
      <trkpt lat="43.65366" lon="3.78282">
        <ele>74</ele>
        <time>2021-04-24T11:52:16Z</time>
      </trkpt>
      <trkpt lat="43.65365" lon="3.78285">
        <ele>74</ele>
        <time>2021-04-24T11:52:17Z</time>
      </trkpt>
      <trkpt lat="43.65363" lon="3.78288">
        <ele>74</ele>
        <time>2021-04-24T11:52:18Z</time>
      </trkpt>
      <trkpt lat="43.65361" lon="3.78291">
        <ele>74</ele>
        <time>2021-04-24T11:52:19Z</time>
      </trkpt>
      <trkpt lat="43.6536" lon="3.78295">
        <ele>74</ele>
        <time>2021-04-24T11:52:20Z</time>
      </trkpt>
      <trkpt lat="43.65358" lon="3.78299">
        <ele>74</ele>
        <time>2021-04-24T11:52:21Z</time>
      </trkpt>
      <trkpt lat="43.65357" lon="3.78302">
        <ele>74</ele>
        <time>2021-04-24T11:52:22Z</time>
      </trkpt>
      <trkpt lat="43.65355" lon="3.78306">
        <ele>75</ele>
        <time>2021-04-24T11:52:23Z</time>
      </trkpt>
      <trkpt lat="43.65354" lon="3.7831">
        <ele>75</ele>
        <time>2021-04-24T11:52:24Z</time>
      </trkpt>
      <trkpt lat="43.65353" lon="3.78313">
        <ele>75</ele>
        <time>2021-04-24T11:52:25Z</time>
      </trkpt>
      <trkpt lat="43.65351" lon="3.78316">
        <ele>75</ele>
        <time>2021-04-24T11:52:26Z</time>
      </trkpt>
      <trkpt lat="43.65349" lon="3.78319">
        <ele>75</ele>
        <time>2021-04-24T11:52:27Z</time>
      </trkpt>
      <trkpt lat="43.65347" lon="3.78322">
        <ele>75</ele>
        <time>2021-04-24T11:52:28Z</time>
      </trkpt>
      <trkpt lat="43.65345" lon="3.78326">
        <ele>75</ele>
        <time>2021-04-24T11:52:29Z</time>
      </trkpt>
      <trkpt lat="43.65343" lon="3.78329">
        <ele>75</ele>
        <time>2021-04-24T11:52:30Z</time>
      </trkpt>
      <trkpt lat="43.65341" lon="3.78332">
        <ele>75</ele>
        <time>2021-04-24T11:52:31Z</time>
      </trkpt>
      <trkpt lat="43.65339" lon="3.78335">
        <ele>75</ele>
        <time>2021-04-24T11:52:32Z</time>
      </trkpt>
      <trkpt lat="43.65337" lon="3.78338">
        <ele>76</ele>
        <time>2021-04-24T11:52:33Z</time>
      </trkpt>
      <trkpt lat="43.65336" lon="3.78341">
        <ele>76</ele>
        <time>2021-04-24T11:52:34Z</time>
      </trkpt>
      <trkpt lat="43.65334" lon="3.78343">
        <ele>76</ele>
        <time>2021-04-24T11:52:35Z</time>
      </trkpt>
      <trkpt lat="43.65333" lon="3.78346">
        <ele>76</ele>
        <time>2021-04-24T11:52:36Z</time>
      </trkpt>
      <trkpt lat="43.65333" lon="3.78349">
        <ele>76</ele>
        <time>2021-04-24T11:52:37Z</time>
      </trkpt>
      <trkpt lat="43.65332" lon="3.78352">
        <ele>76</ele>
        <time>2021-04-24T11:52:38Z</time>
      </trkpt>
      <trkpt lat="43.65332" lon="3.78355">
        <ele>76</ele>
        <time>2021-04-24T11:52:39Z</time>
      </trkpt>
      <trkpt lat="43.65332" lon="3.78359">
        <ele>76</ele>
        <time>2021-04-24T11:52:40Z</time>
      </trkpt>
      <trkpt lat="43.65333" lon="3.78363">
        <ele>76</ele>
        <time>2021-04-24T11:52:41Z</time>
      </trkpt>
      <trkpt lat="43.65334" lon="3.78368">
        <ele>76</ele>
        <time>2021-04-24T11:52:42Z</time>
      </trkpt>
      <trkpt lat="43.65334" lon="3.78373">
        <ele>76</ele>
        <time>2021-04-24T11:52:43Z</time>
      </trkpt>
      <trkpt lat="43.65334" lon="3.78379">
        <ele>76</ele>
        <time>2021-04-24T11:52:44Z</time>
      </trkpt>
      <trkpt lat="43.65334" lon="3.78384">
        <ele>76</ele>
        <time>2021-04-24T11:52:45Z</time>
      </trkpt>
      <trkpt lat="43.65334" lon="3.7839">
        <ele>76</ele>
        <time>2021-04-24T11:52:46Z</time>
      </trkpt>
      <trkpt lat="43.65333" lon="3.78395">
        <ele>76</ele>
        <time>2021-04-24T11:52:47Z</time>
      </trkpt>
      <trkpt lat="43.65332" lon="3.78401">
        <ele>76</ele>
        <time>2021-04-24T11:52:48Z</time>
      </trkpt>
      <trkpt lat="43.65331" lon="3.78406">
        <ele>76</ele>
        <time>2021-04-24T11:52:49Z</time>
      </trkpt>
      <trkpt lat="43.6533" lon="3.78411">
        <ele>76</ele>
        <time>2021-04-24T11:52:50Z</time>
      </trkpt>
      <trkpt lat="43.65329" lon="3.78415">
        <ele>76</ele>
        <time>2021-04-24T11:52:51Z</time>
      </trkpt>
      <trkpt lat="43.65327" lon="3.7842">
        <ele>76</ele>
        <time>2021-04-24T11:52:52Z</time>
      </trkpt>
      <trkpt lat="43.65327" lon="3.78424">
        <ele>75</ele>
        <time>2021-04-24T11:52:53Z</time>
      </trkpt>
      <trkpt lat="43.65327" lon="3.78428">
        <ele>75</ele>
        <time>2021-04-24T11:52:54Z</time>
      </trkpt>
      <trkpt lat="43.65326" lon="3.78431">
        <ele>75</ele>
        <time>2021-04-24T11:52:55Z</time>
      </trkpt>
      <trkpt lat="43.65325" lon="3.78435">
        <ele>75</ele>
        <time>2021-04-24T11:52:56Z</time>
      </trkpt>
      <trkpt lat="43.65325" lon="3.78439">
        <ele>75</ele>
        <time>2021-04-24T11:52:57Z</time>
      </trkpt>
      <trkpt lat="43.65324" lon="3.78443">
        <ele>75</ele>
        <time>2021-04-24T11:52:58Z</time>
      </trkpt>
      <trkpt lat="43.65324" lon="3.78447">
        <ele>75</ele>
        <time>2021-04-24T11:52:59Z</time>
      </trkpt>
      <trkpt lat="43.65323" lon="3.7845">
        <ele>75</ele>
        <time>2021-04-24T11:53:00Z</time>
      </trkpt>
      <trkpt lat="43.65323" lon="3.78454">
        <ele>75</ele>
        <time>2021-04-24T11:53:01Z</time>
      </trkpt>
      <trkpt lat="43.65322" lon="3.78458">
        <ele>75</ele>
        <time>2021-04-24T11:53:02Z</time>
      </trkpt>
      <trkpt lat="43.65322" lon="3.78462">
        <ele>74</ele>
        <time>2021-04-24T11:53:03Z</time>
      </trkpt>
      <trkpt lat="43.65321" lon="3.78465">
        <ele>74</ele>
        <time>2021-04-24T11:53:04Z</time>
      </trkpt>
      <trkpt lat="43.6532" lon="3.78468">
        <ele>74</ele>
        <time>2021-04-24T11:53:05Z</time>
      </trkpt>
      <trkpt lat="43.65318" lon="3.7847">
        <ele>74</ele>
        <time>2021-04-24T11:53:06Z</time>
      </trkpt>
      <trkpt lat="43.65317" lon="3.78472">
        <ele>74</ele>
        <time>2021-04-24T11:53:07Z</time>
      </trkpt>
      <trkpt lat="43.65316" lon="3.78475">
        <ele>74</ele>
        <time>2021-04-24T11:53:08Z</time>
      </trkpt>
      <trkpt lat="43.65315" lon="3.78479">
        <ele>74</ele>
        <time>2021-04-24T11:53:09Z</time>
      </trkpt>
      <trkpt lat="43.65313" lon="3.78483">
        <ele>74</ele>
        <time>2021-04-24T11:53:10Z</time>
      </trkpt>
      <trkpt lat="43.65312" lon="3.78488">
        <ele>74</ele>
        <time>2021-04-24T11:53:11Z</time>
      </trkpt>
      <trkpt lat="43.65311" lon="3.78492">
        <ele>74</ele>
        <time>2021-04-24T11:53:12Z</time>
      </trkpt>
      <trkpt lat="43.6531" lon="3.78497">
        <ele>74</ele>
        <time>2021-04-24T11:53:13Z</time>
      </trkpt>
      <trkpt lat="43.65309" lon="3.78502">
        <ele>74</ele>
        <time>2021-04-24T11:53:14Z</time>
      </trkpt>
      <trkpt lat="43.65308" lon="3.78506">
        <ele>74</ele>
        <time>2021-04-24T11:53:15Z</time>
      </trkpt>
      <trkpt lat="43.65307" lon="3.78511">
        <ele>74</ele>
        <time>2021-04-24T11:53:16Z</time>
      </trkpt>
      <trkpt lat="43.65306" lon="3.78517">
        <ele>74</ele>
        <time>2021-04-24T11:53:17Z</time>
      </trkpt>
      <trkpt lat="43.65305" lon="3.78522">
        <ele>74</ele>
        <time>2021-04-24T11:53:18Z</time>
      </trkpt>
      <trkpt lat="43.65304" lon="3.78527">
        <ele>74</ele>
        <time>2021-04-24T11:53:19Z</time>
      </trkpt>
      <trkpt lat="43.65303" lon="3.78532">
        <ele>74</ele>
        <time>2021-04-24T11:53:20Z</time>
      </trkpt>
      <trkpt lat="43.65302" lon="3.78538">
        <ele>74</ele>
        <time>2021-04-24T11:53:21Z</time>
      </trkpt>
      <trkpt lat="43.65301" lon="3.78543">
        <ele>74</ele>
        <time>2021-04-24T11:53:22Z</time>
      </trkpt>
      <trkpt lat="43.65301" lon="3.78549">
        <ele>73</ele>
        <time>2021-04-24T11:53:23Z</time>
      </trkpt>
      <trkpt lat="43.653" lon="3.78555">
        <ele>73</ele>
        <time>2021-04-24T11:53:24Z</time>
      </trkpt>
      <trkpt lat="43.65299" lon="3.78561">
        <ele>73</ele>
        <time>2021-04-24T11:53:25Z</time>
      </trkpt>
      <trkpt lat="43.65298" lon="3.78567">
        <ele>73</ele>
        <time>2021-04-24T11:53:26Z</time>
      </trkpt>
      <trkpt lat="43.65298" lon="3.78572">
        <ele>73</ele>
        <time>2021-04-24T11:53:27Z</time>
      </trkpt>
      <trkpt lat="43.65297" lon="3.78578">
        <ele>73</ele>
        <time>2021-04-24T11:53:28Z</time>
      </trkpt>
      <trkpt lat="43.65297" lon="3.78584">
        <ele>73</ele>
        <time>2021-04-24T11:53:29Z</time>
      </trkpt>
      <trkpt lat="43.65296" lon="3.78589">
        <ele>73</ele>
        <time>2021-04-24T11:53:30Z</time>
      </trkpt>
      <trkpt lat="43.65295" lon="3.78594">
        <ele>73</ele>
        <time>2021-04-24T11:53:31Z</time>
      </trkpt>
      <trkpt lat="43.65294" lon="3.78599">
        <ele>73</ele>
        <time>2021-04-24T11:53:32Z</time>
      </trkpt>
      <trkpt lat="43.65292" lon="3.78603">
        <ele>72</ele>
        <time>2021-04-24T11:53:33Z</time>
      </trkpt>
      <trkpt lat="43.6529" lon="3.78607">
        <ele>72</ele>
        <time>2021-04-24T11:53:34Z</time>
      </trkpt>
      <trkpt lat="43.65288" lon="3.7861">
        <ele>72</ele>
        <time>2021-04-24T11:53:35Z</time>
      </trkpt>
      <trkpt lat="43.65287" lon="3.78614">
        <ele>72</ele>
        <time>2021-04-24T11:53:36Z</time>
      </trkpt>
      <trkpt lat="43.65285" lon="3.78617">
        <ele>72</ele>
        <time>2021-04-24T11:53:37Z</time>
      </trkpt>
      <trkpt lat="43.65284" lon="3.78621">
        <ele>72</ele>
        <time>2021-04-24T11:53:38Z</time>
      </trkpt>
      <trkpt lat="43.65282" lon="3.78625">
        <ele>72</ele>
        <time>2021-04-24T11:53:39Z</time>
      </trkpt>
      <trkpt lat="43.6528" lon="3.78629">
        <ele>72</ele>
        <time>2021-04-24T11:53:40Z</time>
      </trkpt>
      <trkpt lat="43.6528" lon="3.78635">
        <ele>72</ele>
        <time>2021-04-24T11:53:41Z</time>
      </trkpt>
      <trkpt lat="43.65281" lon="3.7864">
        <ele>72</ele>
        <time>2021-04-24T11:53:42Z</time>
      </trkpt>
      <trkpt lat="43.65282" lon="3.78646">
        <ele>72</ele>
        <time>2021-04-24T11:53:43Z</time>
      </trkpt>
      <trkpt lat="43.65283" lon="3.78652">
        <ele>72</ele>
        <time>2021-04-24T11:53:44Z</time>
      </trkpt>
      <trkpt lat="43.65285" lon="3.78658">
        <ele>72</ele>
        <time>2021-04-24T11:53:45Z</time>
      </trkpt>
      <trkpt lat="43.65286" lon="3.78664">
        <ele>72</ele>
        <time>2021-04-24T11:53:46Z</time>
      </trkpt>
      <trkpt lat="43.65288" lon="3.7867">
        <ele>72</ele>
        <time>2021-04-24T11:53:47Z</time>
      </trkpt>
      <trkpt lat="43.65289" lon="3.78676">
        <ele>72</ele>
        <time>2021-04-24T11:53:48Z</time>
      </trkpt>
      <trkpt lat="43.65289" lon="3.78682">
        <ele>72</ele>
        <time>2021-04-24T11:53:49Z</time>
      </trkpt>
      <trkpt lat="43.65288" lon="3.78688">
        <ele>72</ele>
        <time>2021-04-24T11:53:50Z</time>
      </trkpt>
      <trkpt lat="43.65285" lon="3.78694">
        <ele>72</ele>
        <time>2021-04-24T11:53:51Z</time>
      </trkpt>
      <trkpt lat="43.65281" lon="3.78698">
        <ele>72</ele>
        <time>2021-04-24T11:53:52Z</time>
      </trkpt>
      <trkpt lat="43.6528" lon="3.78703">
        <ele>70</ele>
        <time>2021-04-24T11:53:53Z</time>
      </trkpt>
      <trkpt lat="43.65278" lon="3.78706">
        <ele>70</ele>
        <time>2021-04-24T11:53:54Z</time>
      </trkpt>
      <trkpt lat="43.65277" lon="3.78709">
        <ele>70</ele>
        <time>2021-04-24T11:53:55Z</time>
      </trkpt>
      <trkpt lat="43.65277" lon="3.78711">
        <ele>70</ele>
        <time>2021-04-24T11:53:56Z</time>
      </trkpt>
      <trkpt lat="43.65279" lon="3.78712">
        <ele>70</ele>
        <time>2021-04-24T11:53:58Z</time>
      </trkpt>
      <trkpt lat="43.65283" lon="3.78711">
        <ele>70</ele>
        <time>2021-04-24T11:53:59Z</time>
      </trkpt>
      <trkpt lat="43.65288" lon="3.78709">
        <ele>70</ele>
        <time>2021-04-24T11:54:00Z</time>
      </trkpt>
      <trkpt lat="43.65292" lon="3.78706">
        <ele>70</ele>
        <time>2021-04-24T11:54:01Z</time>
      </trkpt>
      <trkpt lat="43.65296" lon="3.78704">
        <ele>70</ele>
        <time>2021-04-24T11:54:02Z</time>
      </trkpt>
      <trkpt lat="43.653" lon="3.78701">
        <ele>68</ele>
        <time>2021-04-24T11:54:03Z</time>
      </trkpt>
      <trkpt lat="43.65304" lon="3.78699">
        <ele>68</ele>
        <time>2021-04-24T11:54:04Z</time>
      </trkpt>
      <trkpt lat="43.65308" lon="3.78696">
        <ele>68</ele>
        <time>2021-04-24T11:54:05Z</time>
      </trkpt>
      <trkpt lat="43.65312" lon="3.78694">
        <ele>68</ele>
        <time>2021-04-24T11:54:06Z</time>
      </trkpt>
      <trkpt lat="43.65315" lon="3.78692">
        <ele>68</ele>
        <time>2021-04-24T11:54:07Z</time>
      </trkpt>
      <trkpt lat="43.65319" lon="3.78689">
        <ele>68</ele>
        <time>2021-04-24T11:54:08Z</time>
      </trkpt>
      <trkpt lat="43.65323" lon="3.78686">
        <ele>68</ele>
        <time>2021-04-24T11:54:09Z</time>
      </trkpt>
      <trkpt lat="43.65326" lon="3.78683">
        <ele>68</ele>
        <time>2021-04-24T11:54:10Z</time>
      </trkpt>
      <trkpt lat="43.6533" lon="3.7868">
        <ele>68</ele>
        <time>2021-04-24T11:54:11Z</time>
      </trkpt>
      <trkpt lat="43.65334" lon="3.78676">
        <ele>68</ele>
        <time>2021-04-24T11:54:12Z</time>
      </trkpt>
      <trkpt lat="43.65338" lon="3.78672">
        <ele>68</ele>
        <time>2021-04-24T11:54:13Z</time>
      </trkpt>
      <trkpt lat="43.65342" lon="3.78669">
        <ele>68</ele>
        <time>2021-04-24T11:54:14Z</time>
      </trkpt>
      <trkpt lat="43.65346" lon="3.78665">
        <ele>68</ele>
        <time>2021-04-24T11:54:15Z</time>
      </trkpt>
      <trkpt lat="43.65351" lon="3.78661">
        <ele>68</ele>
        <time>2021-04-24T11:54:16Z</time>
      </trkpt>
      <trkpt lat="43.65356" lon="3.78657">
        <ele>68</ele>
        <time>2021-04-24T11:54:17Z</time>
      </trkpt>
      <trkpt lat="43.65361" lon="3.78654">
        <ele>68</ele>
        <time>2021-04-24T11:54:18Z</time>
      </trkpt>
      <trkpt lat="43.65367" lon="3.78651">
        <ele>68</ele>
        <time>2021-04-24T11:54:19Z</time>
      </trkpt>
      <trkpt lat="43.65373" lon="3.78648">
        <ele>68</ele>
        <time>2021-04-24T11:54:20Z</time>
      </trkpt>
      <trkpt lat="43.6538" lon="3.78644">
        <ele>68</ele>
        <time>2021-04-24T11:54:21Z</time>
      </trkpt>
      <trkpt lat="43.65387" lon="3.7864">
        <ele>68</ele>
        <time>2021-04-24T11:54:22Z</time>
      </trkpt>
      <trkpt lat="43.65394" lon="3.78636">
        <ele>67</ele>
        <time>2021-04-24T11:54:23Z</time>
      </trkpt>
      <trkpt lat="43.65401" lon="3.78632">
        <ele>67</ele>
        <time>2021-04-24T11:54:24Z</time>
      </trkpt>
      <trkpt lat="43.65409" lon="3.78628">
        <ele>67</ele>
        <time>2021-04-24T11:54:25Z</time>
      </trkpt>
      <trkpt lat="43.65415" lon="3.78624">
        <ele>67</ele>
        <time>2021-04-24T11:54:26Z</time>
      </trkpt>
      <trkpt lat="43.65422" lon="3.7862">
        <ele>67</ele>
        <time>2021-04-24T11:54:27Z</time>
      </trkpt>
      <trkpt lat="43.65427" lon="3.78614">
        <ele>67</ele>
        <time>2021-04-24T11:54:28Z</time>
      </trkpt>
      <trkpt lat="43.65431" lon="3.78606">
        <ele>67</ele>
        <time>2021-04-24T11:54:29Z</time>
      </trkpt>
      <trkpt lat="43.65434" lon="3.78599">
        <ele>67</ele>
        <time>2021-04-24T11:54:30Z</time>
      </trkpt>
      <trkpt lat="43.65435" lon="3.78591">
        <ele>67</ele>
        <time>2021-04-24T11:54:31Z</time>
      </trkpt>
      <trkpt lat="43.65436" lon="3.78583">
        <ele>67</ele>
        <time>2021-04-24T11:54:32Z</time>
      </trkpt>
      <trkpt lat="43.65435" lon="3.78575">
        <ele>66</ele>
        <time>2021-04-24T11:54:33Z</time>
      </trkpt>
      <trkpt lat="43.65435" lon="3.78568">
        <ele>66</ele>
        <time>2021-04-24T11:54:34Z</time>
      </trkpt>
      <trkpt lat="43.65435" lon="3.78562">
        <ele>66</ele>
        <time>2021-04-24T11:54:35Z</time>
      </trkpt>
      <trkpt lat="43.65435" lon="3.78556">
        <ele>66</ele>
        <time>2021-04-24T11:54:36Z</time>
      </trkpt>
      <trkpt lat="43.65434" lon="3.7855">
        <ele>66</ele>
        <time>2021-04-24T11:54:37Z</time>
      </trkpt>
      <trkpt lat="43.65434" lon="3.78544">
        <ele>66</ele>
        <time>2021-04-24T11:54:38Z</time>
      </trkpt>
      <trkpt lat="43.65433" lon="3.78538">
        <ele>66</ele>
        <time>2021-04-24T11:54:39Z</time>
      </trkpt>
      <trkpt lat="43.65433" lon="3.78532">
        <ele>66</ele>
        <time>2021-04-24T11:54:40Z</time>
      </trkpt>
      <trkpt lat="43.65432" lon="3.78526">
        <ele>66</ele>
        <time>2021-04-24T11:54:41Z</time>
      </trkpt>
      <trkpt lat="43.65432" lon="3.7852">
        <ele>66</ele>
        <time>2021-04-24T11:54:42Z</time>
      </trkpt>
      <trkpt lat="43.65432" lon="3.78514">
        <ele>67</ele>
        <time>2021-04-24T11:54:43Z</time>
      </trkpt>
      <trkpt lat="43.65433" lon="3.78508">
        <ele>67</ele>
        <time>2021-04-24T11:54:44Z</time>
      </trkpt>
      <trkpt lat="43.65434" lon="3.78502">
        <ele>67</ele>
        <time>2021-04-24T11:54:45Z</time>
      </trkpt>
      <trkpt lat="43.65435" lon="3.78497">
        <ele>67</ele>
        <time>2021-04-24T11:54:46Z</time>
      </trkpt>
      <trkpt lat="43.65436" lon="3.78491">
        <ele>67</ele>
        <time>2021-04-24T11:54:47Z</time>
      </trkpt>
      <trkpt lat="43.65438" lon="3.78486">
        <ele>67</ele>
        <time>2021-04-24T11:54:48Z</time>
      </trkpt>
      <trkpt lat="43.6544" lon="3.78481">
        <ele>67</ele>
        <time>2021-04-24T11:54:49Z</time>
      </trkpt>
      <trkpt lat="43.65442" lon="3.78476">
        <ele>67</ele>
        <time>2021-04-24T11:54:50Z</time>
      </trkpt>
      <trkpt lat="43.65444" lon="3.78471">
        <ele>67</ele>
        <time>2021-04-24T11:54:51Z</time>
      </trkpt>
      <trkpt lat="43.65446" lon="3.78466">
        <ele>67</ele>
        <time>2021-04-24T11:54:52Z</time>
      </trkpt>
      <trkpt lat="43.65448" lon="3.78461">
        <ele>68</ele>
        <time>2021-04-24T11:54:53Z</time>
      </trkpt>
      <trkpt lat="43.65449" lon="3.78456">
        <ele>68</ele>
        <time>2021-04-24T11:54:54Z</time>
      </trkpt>
      <trkpt lat="43.65451" lon="3.78451">
        <ele>68</ele>
        <time>2021-04-24T11:54:55Z</time>
      </trkpt>
      <trkpt lat="43.65453" lon="3.78446">
        <ele>68</ele>
        <time>2021-04-24T11:54:56Z</time>
      </trkpt>
      <trkpt lat="43.65455" lon="3.78442">
        <ele>68</ele>
        <time>2021-04-24T11:54:57Z</time>
      </trkpt>
      <trkpt lat="43.65458" lon="3.78438">
        <ele>68</ele>
        <time>2021-04-24T11:54:58Z</time>
      </trkpt>
      <trkpt lat="43.6546" lon="3.78434">
        <ele>68</ele>
        <time>2021-04-24T11:54:59Z</time>
      </trkpt>
      <trkpt lat="43.65462" lon="3.78429">
        <ele>68</ele>
        <time>2021-04-24T11:55:00Z</time>
      </trkpt>
      <trkpt lat="43.65464" lon="3.78425">
        <ele>68</ele>
        <time>2021-04-24T11:55:01Z</time>
      </trkpt>
      <trkpt lat="43.65465" lon="3.78421">
        <ele>68</ele>
        <time>2021-04-24T11:55:02Z</time>
      </trkpt>
      <trkpt lat="43.65467" lon="3.78417">
        <ele>70</ele>
        <time>2021-04-24T11:55:03Z</time>
      </trkpt>
      <trkpt lat="43.65469" lon="3.78414">
        <ele>70</ele>
        <time>2021-04-24T11:55:04Z</time>
      </trkpt>
      <trkpt lat="43.65471" lon="3.78411">
        <ele>70</ele>
        <time>2021-04-24T11:55:05Z</time>
      </trkpt>
      <trkpt lat="43.65473" lon="3.78407">
        <ele>70</ele>
        <time>2021-04-24T11:55:06Z</time>
      </trkpt>
      <trkpt lat="43.65475" lon="3.78404">
        <ele>70</ele>
        <time>2021-04-24T11:55:07Z</time>
      </trkpt>
      <trkpt lat="43.65477" lon="3.78401">
        <ele>70</ele>
        <time>2021-04-24T11:55:08Z</time>
      </trkpt>
      <trkpt lat="43.65478" lon="3.78399">
        <ele>70</ele>
        <time>2021-04-24T11:55:09Z</time>
      </trkpt>
      <trkpt lat="43.6548" lon="3.78396">
        <ele>70</ele>
        <time>2021-04-24T11:55:10Z</time>
      </trkpt>
      <trkpt lat="43.65483" lon="3.78393">
        <ele>70</ele>
        <time>2021-04-24T11:55:11Z</time>
      </trkpt>
      <trkpt lat="43.65484" lon="3.78391">
        <ele>70</ele>
        <time>2021-04-24T11:55:12Z</time>
      </trkpt>
      <trkpt lat="43.65486" lon="3.78388">
        <ele>71</ele>
        <time>2021-04-24T11:55:13Z</time>
      </trkpt>
      <trkpt lat="43.65488" lon="3.78386">
        <ele>71</ele>
        <time>2021-04-24T11:55:14Z</time>
      </trkpt>
      <trkpt lat="43.6549" lon="3.78384">
        <ele>71</ele>
        <time>2021-04-24T11:55:15Z</time>
      </trkpt>
      <trkpt lat="43.65492" lon="3.78382">
        <ele>71</ele>
        <time>2021-04-24T11:55:16Z</time>
      </trkpt>
      <trkpt lat="43.65493" lon="3.78379">
        <ele>71</ele>
        <time>2021-04-24T11:55:17Z</time>
      </trkpt>
      <trkpt lat="43.65495" lon="3.78377">
        <ele>71</ele>
        <time>2021-04-24T11:55:18Z</time>
      </trkpt>
      <trkpt lat="43.65496" lon="3.78375">
        <ele>71</ele>
        <time>2021-04-24T11:55:19Z</time>
      </trkpt>
      <trkpt lat="43.65499" lon="3.7837">
        <ele>71</ele>
        <time>2021-04-24T11:55:20Z</time>
      </trkpt>
      <trkpt lat="43.65501" lon="3.78368">
        <ele>71</ele>
        <time>2021-04-24T11:55:21Z</time>
      </trkpt>
      <trkpt lat="43.65502" lon="3.78366">
        <ele>73</ele>
        <time>2021-04-24T11:55:23Z</time>
      </trkpt>
      <trkpt lat="43.65504" lon="3.78364">
        <ele>73</ele>
        <time>2021-04-24T11:55:24Z</time>
      </trkpt>
      <trkpt lat="43.65506" lon="3.78361">
        <ele>73</ele>
        <time>2021-04-24T11:55:25Z</time>
      </trkpt>
      <trkpt lat="43.65508" lon="3.78359">
        <ele>73</ele>
        <time>2021-04-24T11:55:26Z</time>
      </trkpt>
      <trkpt lat="43.6551" lon="3.78357">
        <ele>73</ele>
        <time>2021-04-24T11:55:27Z</time>
      </trkpt>
      <trkpt lat="43.65512" lon="3.78356">
        <ele>73</ele>
        <time>2021-04-24T11:55:28Z</time>
      </trkpt>
      <trkpt lat="43.65514" lon="3.78355">
        <ele>73</ele>
        <time>2021-04-24T11:55:29Z</time>
      </trkpt>
      <trkpt lat="43.65516" lon="3.78354">
        <ele>73</ele>
        <time>2021-04-24T11:55:30Z</time>
      </trkpt>
      <trkpt lat="43.65518" lon="3.78353">
        <ele>73</ele>
        <time>2021-04-24T11:55:31Z</time>
      </trkpt>
      <trkpt lat="43.6552" lon="3.78352">
        <ele>73</ele>
        <time>2021-04-24T11:55:32Z</time>
      </trkpt>
      <trkpt lat="43.65522" lon="3.7835">
        <ele>74</ele>
        <time>2021-04-24T11:55:33Z</time>
      </trkpt>
      <trkpt lat="43.65525" lon="3.78349">
        <ele>74</ele>
        <time>2021-04-24T11:55:35Z</time>
      </trkpt>
      <trkpt lat="43.65528" lon="3.78348">
        <ele>74</ele>
        <time>2021-04-24T11:55:37Z</time>
      </trkpt>
      <trkpt lat="43.65531" lon="3.78345">
        <ele>74</ele>
        <time>2021-04-24T11:55:39Z</time>
      </trkpt>
      <trkpt lat="43.65532" lon="3.78343">
        <ele>74</ele>
        <time>2021-04-24T11:55:40Z</time>
      </trkpt>
      <trkpt lat="43.65532" lon="3.7834">
        <ele>74</ele>
        <time>2021-04-24T11:55:41Z</time>
      </trkpt>
      <trkpt lat="43.65533" lon="3.78337">
        <ele>74</ele>
        <time>2021-04-24T11:55:42Z</time>
      </trkpt>
      <trkpt lat="43.65534" lon="3.78334">
        <ele>75</ele>
        <time>2021-04-24T11:55:43Z</time>
      </trkpt>
      <trkpt lat="43.65535" lon="3.78331">
        <ele>75</ele>
        <time>2021-04-24T11:55:44Z</time>
      </trkpt>
      <trkpt lat="43.65536" lon="3.78328">
        <ele>75</ele>
        <time>2021-04-24T11:55:45Z</time>
      </trkpt>
      <trkpt lat="43.65538" lon="3.78325">
        <ele>75</ele>
        <time>2021-04-24T11:55:46Z</time>
      </trkpt>
      <trkpt lat="43.65539" lon="3.78322">
        <ele>75</ele>
        <time>2021-04-24T11:55:47Z</time>
      </trkpt>
      <trkpt lat="43.65541" lon="3.78319">
        <ele>75</ele>
        <time>2021-04-24T11:55:48Z</time>
      </trkpt>
      <trkpt lat="43.65542" lon="3.78316">
        <ele>75</ele>
        <time>2021-04-24T11:55:49Z</time>
      </trkpt>
      <trkpt lat="43.65544" lon="3.78313">
        <ele>75</ele>
        <time>2021-04-24T11:55:50Z</time>
      </trkpt>
      <trkpt lat="43.65545" lon="3.7831">
        <ele>75</ele>
        <time>2021-04-24T11:55:51Z</time>
      </trkpt>
      <trkpt lat="43.65547" lon="3.78307">
        <ele>75</ele>
        <time>2021-04-24T11:55:52Z</time>
      </trkpt>
      <trkpt lat="43.65549" lon="3.78305">
        <ele>76</ele>
        <time>2021-04-24T11:55:53Z</time>
      </trkpt>
      <trkpt lat="43.6555" lon="3.78302">
        <ele>76</ele>
        <time>2021-04-24T11:55:54Z</time>
      </trkpt>
      <trkpt lat="43.65552" lon="3.78298">
        <ele>76</ele>
        <time>2021-04-24T11:55:55Z</time>
      </trkpt>
      <trkpt lat="43.65554" lon="3.78295">
        <ele>76</ele>
        <time>2021-04-24T11:55:56Z</time>
      </trkpt>
      <trkpt lat="43.65556" lon="3.78292">
        <ele>76</ele>
        <time>2021-04-24T11:55:57Z</time>
      </trkpt>
      <trkpt lat="43.65558" lon="3.7829">
        <ele>76</ele>
        <time>2021-04-24T11:55:58Z</time>
      </trkpt>
      <trkpt lat="43.6556" lon="3.78287">
        <ele>76</ele>
        <time>2021-04-24T11:55:59Z</time>
      </trkpt>
      <trkpt lat="43.65562" lon="3.78284">
        <ele>76</ele>
        <time>2021-04-24T11:56:00Z</time>
      </trkpt>
      <trkpt lat="43.65563" lon="3.7828">
        <ele>76</ele>
        <time>2021-04-24T11:56:01Z</time>
      </trkpt>
      <trkpt lat="43.65564" lon="3.78277">
        <ele>76</ele>
        <time>2021-04-24T11:56:02Z</time>
      </trkpt>
      <trkpt lat="43.65566" lon="3.78273">
        <ele>76</ele>
        <time>2021-04-24T11:56:03Z</time>
      </trkpt>
      <trkpt lat="43.65567" lon="3.7827">
        <ele>76</ele>
        <time>2021-04-24T11:56:04Z</time>
      </trkpt>
      <trkpt lat="43.65568" lon="3.78266">
        <ele>76</ele>
        <time>2021-04-24T11:56:05Z</time>
      </trkpt>
      <trkpt lat="43.65568" lon="3.78263">
        <ele>76</ele>
        <time>2021-04-24T11:56:06Z</time>
      </trkpt>
      <trkpt lat="43.65568" lon="3.78259">
        <ele>76</ele>
        <time>2021-04-24T11:56:07Z</time>
      </trkpt>
      <trkpt lat="43.65569" lon="3.78256">
        <ele>76</ele>
        <time>2021-04-24T11:56:08Z</time>
      </trkpt>
      <trkpt lat="43.65569" lon="3.78251">
        <ele>76</ele>
        <time>2021-04-24T11:56:09Z</time>
      </trkpt>
      <trkpt lat="43.6557" lon="3.78248">
        <ele>76</ele>
        <time>2021-04-24T11:56:10Z</time>
      </trkpt>
      <trkpt lat="43.6557" lon="3.78244">
        <ele>76</ele>
        <time>2021-04-24T11:56:11Z</time>
      </trkpt>
      <trkpt lat="43.6557" lon="3.7824">
        <ele>76</ele>
        <time>2021-04-24T11:56:12Z</time>
      </trkpt>
      <trkpt lat="43.65571" lon="3.78236">
        <ele>79</ele>
        <time>2021-04-24T11:56:13Z</time>
      </trkpt>
      <trkpt lat="43.65571" lon="3.78232">
        <ele>79</ele>
        <time>2021-04-24T11:56:14Z</time>
      </trkpt>
      <trkpt lat="43.6557" lon="3.78228">
        <ele>79</ele>
        <time>2021-04-24T11:56:15Z</time>
      </trkpt>
      <trkpt lat="43.6557" lon="3.78224">
        <ele>79</ele>
        <time>2021-04-24T11:56:16Z</time>
      </trkpt>
      <trkpt lat="43.6557" lon="3.7822">
        <ele>79</ele>
        <time>2021-04-24T11:56:17Z</time>
      </trkpt>
      <trkpt lat="43.6557" lon="3.78217">
        <ele>79</ele>
        <time>2021-04-24T11:56:18Z</time>
      </trkpt>
      <trkpt lat="43.6557" lon="3.78213">
        <ele>79</ele>
        <time>2021-04-24T11:56:19Z</time>
      </trkpt>
      <trkpt lat="43.6557" lon="3.7821">
        <ele>79</ele>
        <time>2021-04-24T11:56:20Z</time>
      </trkpt>
      <trkpt lat="43.65569" lon="3.78206">
        <ele>79</ele>
        <time>2021-04-24T11:56:21Z</time>
      </trkpt>
      <trkpt lat="43.65569" lon="3.78202">
        <ele>79</ele>
        <time>2021-04-24T11:56:22Z</time>
      </trkpt>
      <trkpt lat="43.65569" lon="3.78198">
        <ele>80</ele>
        <time>2021-04-24T11:56:23Z</time>
      </trkpt>
      <trkpt lat="43.65569" lon="3.78194">
        <ele>80</ele>
        <time>2021-04-24T11:56:24Z</time>
      </trkpt>
      <trkpt lat="43.65568" lon="3.7819">
        <ele>80</ele>
        <time>2021-04-24T11:56:25Z</time>
      </trkpt>
      <trkpt lat="43.65567" lon="3.78186">
        <ele>80</ele>
        <time>2021-04-24T11:56:26Z</time>
      </trkpt>
      <trkpt lat="43.65566" lon="3.78182">
        <ele>80</ele>
        <time>2021-04-24T11:56:27Z</time>
      </trkpt>
      <trkpt lat="43.65565" lon="3.78178">
        <ele>80</ele>
        <time>2021-04-24T11:56:28Z</time>
      </trkpt>
      <trkpt lat="43.65564" lon="3.78174">
        <ele>80</ele>
        <time>2021-04-24T11:56:29Z</time>
      </trkpt>
      <trkpt lat="43.65563" lon="3.78171">
        <ele>80</ele>
        <time>2021-04-24T11:56:30Z</time>
      </trkpt>
      <trkpt lat="43.65562" lon="3.78167">
        <ele>80</ele>
        <time>2021-04-24T11:56:31Z</time>
      </trkpt>
      <trkpt lat="43.6556" lon="3.78164">
        <ele>80</ele>
        <time>2021-04-24T11:56:32Z</time>
      </trkpt>
      <trkpt lat="43.65558" lon="3.78161">
        <ele>81</ele>
        <time>2021-04-24T11:56:33Z</time>
      </trkpt>
      <trkpt lat="43.65555" lon="3.78157">
        <ele>81</ele>
        <time>2021-04-24T11:56:34Z</time>
      </trkpt>
      <trkpt lat="43.65553" lon="3.78154">
        <ele>81</ele>
        <time>2021-04-24T11:56:35Z</time>
      </trkpt>
      <trkpt lat="43.65551" lon="3.78151">
        <ele>81</ele>
        <time>2021-04-24T11:56:36Z</time>
      </trkpt>
      <trkpt lat="43.65548" lon="3.78148">
        <ele>81</ele>
        <time>2021-04-24T11:56:37Z</time>
      </trkpt>
      <trkpt lat="43.65547" lon="3.78145">
        <ele>81</ele>
        <time>2021-04-24T11:56:38Z</time>
      </trkpt>
      <trkpt lat="43.65545" lon="3.78142">
        <ele>81</ele>
        <time>2021-04-24T11:56:39Z</time>
      </trkpt>
      <trkpt lat="43.65544" lon="3.78139">
        <ele>81</ele>
        <time>2021-04-24T11:56:40Z</time>
      </trkpt>
      <trkpt lat="43.65542" lon="3.78136">
        <ele>81</ele>
        <time>2021-04-24T11:56:41Z</time>
      </trkpt>
      <trkpt lat="43.65541" lon="3.78133">
        <ele>81</ele>
        <time>2021-04-24T11:56:42Z</time>
      </trkpt>
      <trkpt lat="43.65541" lon="3.7813">
        <ele>83</ele>
        <time>2021-04-24T11:56:43Z</time>
      </trkpt>
      <trkpt lat="43.6554" lon="3.78127">
        <ele>83</ele>
        <time>2021-04-24T11:56:44Z</time>
      </trkpt>
      <trkpt lat="43.65539" lon="3.78123">
        <ele>83</ele>
        <time>2021-04-24T11:56:45Z</time>
      </trkpt>
      <trkpt lat="43.65538" lon="3.78119">
        <ele>83</ele>
        <time>2021-04-24T11:56:46Z</time>
      </trkpt>
      <trkpt lat="43.65537" lon="3.78115">
        <ele>83</ele>
        <time>2021-04-24T11:56:47Z</time>
      </trkpt>
      <trkpt lat="43.65535" lon="3.78111">
        <ele>83</ele>
        <time>2021-04-24T11:56:48Z</time>
      </trkpt>
      <trkpt lat="43.65534" lon="3.78106">
        <ele>83</ele>
        <time>2021-04-24T11:56:49Z</time>
      </trkpt>
      <trkpt lat="43.65534" lon="3.78101">
        <ele>83</ele>
        <time>2021-04-24T11:56:50Z</time>
      </trkpt>
      <trkpt lat="43.65534" lon="3.78094">
        <ele>83</ele>
        <time>2021-04-24T11:56:51Z</time>
      </trkpt>
      <trkpt lat="43.65534" lon="3.78088">
        <ele>83</ele>
        <time>2021-04-24T11:56:52Z</time>
      </trkpt>
      <trkpt lat="43.65534" lon="3.78073">
        <ele>83</ele>
        <time>2021-04-24T11:56:54Z</time>
      </trkpt>
      <trkpt lat="43.65534" lon="3.78066">
        <ele>83</ele>
        <time>2021-04-24T11:56:55Z</time>
      </trkpt>
      <trkpt lat="43.65534" lon="3.78059">
        <ele>83</ele>
        <time>2021-04-24T11:56:56Z</time>
      </trkpt>
      <trkpt lat="43.65533" lon="3.78051">
        <ele>83</ele>
        <time>2021-04-24T11:56:57Z</time>
      </trkpt>
      <trkpt lat="43.65532" lon="3.78044">
        <ele>83</ele>
        <time>2021-04-24T11:56:58Z</time>
      </trkpt>
      <trkpt lat="43.6553" lon="3.78037">
        <ele>83</ele>
        <time>2021-04-24T11:56:59Z</time>
      </trkpt>
      <trkpt lat="43.65529" lon="3.7803">
        <ele>83</ele>
        <time>2021-04-24T11:57:00Z</time>
      </trkpt>
      <trkpt lat="43.65527" lon="3.78023">
        <ele>83</ele>
        <time>2021-04-24T11:57:01Z</time>
      </trkpt>
      <trkpt lat="43.65525" lon="3.78017">
        <ele>83</ele>
        <time>2021-04-24T11:57:02Z</time>
      </trkpt>
      <trkpt lat="43.65523" lon="3.78012">
        <ele>80</ele>
        <time>2021-04-24T11:57:03Z</time>
      </trkpt>
      <trkpt lat="43.65521" lon="3.78007">
        <ele>80</ele>
        <time>2021-04-24T11:57:04Z</time>
      </trkpt>
      <trkpt lat="43.65519" lon="3.78002">
        <ele>80</ele>
        <time>2021-04-24T11:57:05Z</time>
      </trkpt>
      <trkpt lat="43.65518" lon="3.77997">
        <ele>80</ele>
        <time>2021-04-24T11:57:06Z</time>
      </trkpt>
      <trkpt lat="43.65517" lon="3.77992">
        <ele>80</ele>
        <time>2021-04-24T11:57:07Z</time>
      </trkpt>
      <trkpt lat="43.65515" lon="3.77986">
        <ele>80</ele>
        <time>2021-04-24T11:57:08Z</time>
      </trkpt>
      <trkpt lat="43.65513" lon="3.7798">
        <ele>80</ele>
        <time>2021-04-24T11:57:09Z</time>
      </trkpt>
      <trkpt lat="43.6551" lon="3.77976">
        <ele>80</ele>
        <time>2021-04-24T11:57:10Z</time>
      </trkpt>
      <trkpt lat="43.65506" lon="3.77973">
        <ele>80</ele>
        <time>2021-04-24T11:57:11Z</time>
      </trkpt>
      <trkpt lat="43.65502" lon="3.77973">
        <ele>80</ele>
        <time>2021-04-24T11:57:12Z</time>
      </trkpt>
      <trkpt lat="43.65498" lon="3.77972">
        <ele>78</ele>
        <time>2021-04-24T11:57:13Z</time>
      </trkpt>
      <trkpt lat="43.65493" lon="3.77969">
        <ele>78</ele>
        <time>2021-04-24T11:57:14Z</time>
      </trkpt>
      <trkpt lat="43.6549" lon="3.77966">
        <ele>78</ele>
        <time>2021-04-24T11:57:15Z</time>
      </trkpt>
      <trkpt lat="43.65488" lon="3.77961">
        <ele>78</ele>
        <time>2021-04-24T11:57:16Z</time>
      </trkpt>
      <trkpt lat="43.65485" lon="3.77955">
        <ele>78</ele>
        <time>2021-04-24T11:57:17Z</time>
      </trkpt>
      <trkpt lat="43.65483" lon="3.77949">
        <ele>78</ele>
        <time>2021-04-24T11:57:18Z</time>
      </trkpt>
      <trkpt lat="43.65483" lon="3.77942">
        <ele>78</ele>
        <time>2021-04-24T11:57:19Z</time>
      </trkpt>
      <trkpt lat="43.65482" lon="3.77935">
        <ele>78</ele>
        <time>2021-04-24T11:57:20Z</time>
      </trkpt>
      <trkpt lat="43.65482" lon="3.77929">
        <ele>78</ele>
        <time>2021-04-24T11:57:21Z</time>
      </trkpt>
      <trkpt lat="43.65483" lon="3.77923">
        <ele>78</ele>
        <time>2021-04-24T11:57:22Z</time>
      </trkpt>
      <trkpt lat="43.65484" lon="3.77917">
        <ele>77</ele>
        <time>2021-04-24T11:57:23Z</time>
      </trkpt>
      <trkpt lat="43.65485" lon="3.77912">
        <ele>77</ele>
        <time>2021-04-24T11:57:24Z</time>
      </trkpt>
      <trkpt lat="43.65487" lon="3.77906">
        <ele>77</ele>
        <time>2021-04-24T11:57:25Z</time>
      </trkpt>
      <trkpt lat="43.65488" lon="3.77901">
        <ele>77</ele>
        <time>2021-04-24T11:57:26Z</time>
      </trkpt>
      <trkpt lat="43.6549" lon="3.77897">
        <ele>77</ele>
        <time>2021-04-24T11:57:27Z</time>
      </trkpt>
      <trkpt lat="43.65492" lon="3.77892">
        <ele>77</ele>
        <time>2021-04-24T11:57:28Z</time>
      </trkpt>
      <trkpt lat="43.65493" lon="3.77887">
        <ele>77</ele>
        <time>2021-04-24T11:57:29Z</time>
      </trkpt>
      <trkpt lat="43.65494" lon="3.77882">
        <ele>77</ele>
        <time>2021-04-24T11:57:30Z</time>
      </trkpt>
      <trkpt lat="43.65494" lon="3.77877">
        <ele>77</ele>
        <time>2021-04-24T11:57:31Z</time>
      </trkpt>
      <trkpt lat="43.65495" lon="3.77872">
        <ele>77</ele>
        <time>2021-04-24T11:57:32Z</time>
      </trkpt>
      <trkpt lat="43.65496" lon="3.77867">
        <ele>77</ele>
        <time>2021-04-24T11:57:33Z</time>
      </trkpt>
      <trkpt lat="43.65497" lon="3.77862">
        <ele>77</ele>
        <time>2021-04-24T11:57:34Z</time>
      </trkpt>
      <trkpt lat="43.65498" lon="3.77857">
        <ele>77</ele>
        <time>2021-04-24T11:57:35Z</time>
      </trkpt>
      <trkpt lat="43.655" lon="3.77853">
        <ele>77</ele>
        <time>2021-04-24T11:57:36Z</time>
      </trkpt>
      <trkpt lat="43.65501" lon="3.77848">
        <ele>77</ele>
        <time>2021-04-24T11:57:37Z</time>
      </trkpt>
      <trkpt lat="43.65502" lon="3.77844">
        <ele>77</ele>
        <time>2021-04-24T11:57:38Z</time>
      </trkpt>
      <trkpt lat="43.65503" lon="3.77839">
        <ele>77</ele>
        <time>2021-04-24T11:57:39Z</time>
      </trkpt>
      <trkpt lat="43.65504" lon="3.77835">
        <ele>77</ele>
        <time>2021-04-24T11:57:40Z</time>
      </trkpt>
      <trkpt lat="43.65506" lon="3.77831">
        <ele>77</ele>
        <time>2021-04-24T11:57:41Z</time>
      </trkpt>
      <trkpt lat="43.65507" lon="3.77827">
        <ele>77</ele>
        <time>2021-04-24T11:57:42Z</time>
      </trkpt>
      <trkpt lat="43.65509" lon="3.77823">
        <ele>77</ele>
        <time>2021-04-24T11:57:43Z</time>
      </trkpt>
      <trkpt lat="43.6551" lon="3.77818">
        <ele>77</ele>
        <time>2021-04-24T11:57:44Z</time>
      </trkpt>
      <trkpt lat="43.6551" lon="3.77813">
        <ele>77</ele>
        <time>2021-04-24T11:57:45Z</time>
      </trkpt>
      <trkpt lat="43.65511" lon="3.77808">
        <ele>77</ele>
        <time>2021-04-24T11:57:46Z</time>
      </trkpt>
      <trkpt lat="43.65511" lon="3.77802">
        <ele>77</ele>
        <time>2021-04-24T11:57:47Z</time>
      </trkpt>
      <trkpt lat="43.65511" lon="3.77796">
        <ele>77</ele>
        <time>2021-04-24T11:57:48Z</time>
      </trkpt>
      <trkpt lat="43.65511" lon="3.77791">
        <ele>77</ele>
        <time>2021-04-24T11:57:49Z</time>
      </trkpt>
      <trkpt lat="43.65512" lon="3.77785">
        <ele>77</ele>
        <time>2021-04-24T11:57:50Z</time>
      </trkpt>
      <trkpt lat="43.65512" lon="3.77779">
        <ele>77</ele>
        <time>2021-04-24T11:57:51Z</time>
      </trkpt>
      <trkpt lat="43.65511" lon="3.77773">
        <ele>77</ele>
        <time>2021-04-24T11:57:52Z</time>
      </trkpt>
      <trkpt lat="43.65511" lon="3.77767">
        <ele>77</ele>
        <time>2021-04-24T11:57:53Z</time>
      </trkpt>
      <trkpt lat="43.65511" lon="3.77762">
        <ele>77</ele>
        <time>2021-04-24T11:57:54Z</time>
      </trkpt>
      <trkpt lat="43.6551" lon="3.77757">
        <ele>77</ele>
        <time>2021-04-24T11:57:55Z</time>
      </trkpt>
      <trkpt lat="43.65508" lon="3.77752">
        <ele>77</ele>
        <time>2021-04-24T11:57:56Z</time>
      </trkpt>
      <trkpt lat="43.65508" lon="3.77747">
        <ele>77</ele>
        <time>2021-04-24T11:57:57Z</time>
      </trkpt>
      <trkpt lat="43.65508" lon="3.77742">
        <ele>77</ele>
        <time>2021-04-24T11:57:58Z</time>
      </trkpt>
      <trkpt lat="43.65507" lon="3.77737">
        <ele>77</ele>
        <time>2021-04-24T11:57:59Z</time>
      </trkpt>
      <trkpt lat="43.65506" lon="3.77732">
        <ele>77</ele>
        <time>2021-04-24T11:58:00Z</time>
      </trkpt>
      <trkpt lat="43.65505" lon="3.77728">
        <ele>77</ele>
        <time>2021-04-24T11:58:01Z</time>
      </trkpt>
      <trkpt lat="43.65503" lon="3.77722">
        <ele>77</ele>
        <time>2021-04-24T11:58:02Z</time>
      </trkpt>
      <trkpt lat="43.65502" lon="3.77716">
        <ele>77</ele>
        <time>2021-04-24T11:58:03Z</time>
      </trkpt>
      <trkpt lat="43.65501" lon="3.77711">
        <ele>77</ele>
        <time>2021-04-24T11:58:04Z</time>
      </trkpt>
      <trkpt lat="43.655" lon="3.77706">
        <ele>77</ele>
        <time>2021-04-24T11:58:05Z</time>
      </trkpt>
      <trkpt lat="43.65499" lon="3.77701">
        <ele>77</ele>
        <time>2021-04-24T11:58:06Z</time>
      </trkpt>
      <trkpt lat="43.65498" lon="3.77698">
        <ele>77</ele>
        <time>2021-04-24T11:58:07Z</time>
      </trkpt>
      <trkpt lat="43.65496" lon="3.77696">
        <ele>77</ele>
        <time>2021-04-24T11:58:08Z</time>
      </trkpt>
      <trkpt lat="43.65494" lon="3.77693">
        <ele>77</ele>
        <time>2021-04-24T11:58:09Z</time>
      </trkpt>
      <trkpt lat="43.65493" lon="3.7769">
        <ele>77</ele>
        <time>2021-04-24T11:58:10Z</time>
      </trkpt>
      <trkpt lat="43.65491" lon="3.77687">
        <ele>77</ele>
        <time>2021-04-24T11:58:11Z</time>
      </trkpt>
      <trkpt lat="43.65491" lon="3.77683">
        <ele>77</ele>
        <time>2021-04-24T11:58:12Z</time>
      </trkpt>
      <trkpt lat="43.65491" lon="3.77679">
        <ele>76</ele>
        <time>2021-04-24T11:58:13Z</time>
      </trkpt>
      <trkpt lat="43.65492" lon="3.77675">
        <ele>76</ele>
        <time>2021-04-24T11:58:14Z</time>
      </trkpt>
      <trkpt lat="43.65492" lon="3.77671">
        <ele>76</ele>
        <time>2021-04-24T11:58:15Z</time>
      </trkpt>
      <trkpt lat="43.65492" lon="3.77667">
        <ele>76</ele>
        <time>2021-04-24T11:58:16Z</time>
      </trkpt>
      <trkpt lat="43.65492" lon="3.77663">
        <ele>76</ele>
        <time>2021-04-24T11:58:17Z</time>
      </trkpt>
      <trkpt lat="43.65492" lon="3.77659">
        <ele>76</ele>
        <time>2021-04-24T11:58:18Z</time>
      </trkpt>
      <trkpt lat="43.65492" lon="3.77655">
        <ele>76</ele>
        <time>2021-04-24T11:58:19Z</time>
      </trkpt>
      <trkpt lat="43.65492" lon="3.77651">
        <ele>76</ele>
        <time>2021-04-24T11:58:20Z</time>
      </trkpt>
      <trkpt lat="43.65492" lon="3.77647">
        <ele>76</ele>
        <time>2021-04-24T11:58:21Z</time>
      </trkpt>
      <trkpt lat="43.65491" lon="3.77644">
        <ele>76</ele>
        <time>2021-04-24T11:58:22Z</time>
      </trkpt>
      <trkpt lat="43.6549" lon="3.77641">
        <ele>76</ele>
        <time>2021-04-24T11:58:23Z</time>
      </trkpt>
      <trkpt lat="43.65489" lon="3.77637">
        <ele>76</ele>
        <time>2021-04-24T11:58:24Z</time>
      </trkpt>
      <trkpt lat="43.65489" lon="3.77634">
        <ele>76</ele>
        <time>2021-04-24T11:58:25Z</time>
      </trkpt>
      <trkpt lat="43.65489" lon="3.77631">
        <ele>76</ele>
        <time>2021-04-24T11:58:26Z</time>
      </trkpt>
      <trkpt lat="43.6549" lon="3.77628">
        <ele>76</ele>
        <time>2021-04-24T11:58:27Z</time>
      </trkpt>
      <trkpt lat="43.6549" lon="3.77625">
        <ele>76</ele>
        <time>2021-04-24T11:58:28Z</time>
      </trkpt>
      <trkpt lat="43.6549" lon="3.77622">
        <ele>76</ele>
        <time>2021-04-24T11:58:29Z</time>
      </trkpt>
      <trkpt lat="43.6549" lon="3.77619">
        <ele>76</ele>
        <time>2021-04-24T11:58:30Z</time>
      </trkpt>
      <trkpt lat="43.6549" lon="3.77616">
        <ele>76</ele>
        <time>2021-04-24T11:58:31Z</time>
      </trkpt>
      <trkpt lat="43.65491" lon="3.77612">
        <ele>76</ele>
        <time>2021-04-24T11:58:32Z</time>
      </trkpt>
      <trkpt lat="43.65491" lon="3.77609">
        <ele>78</ele>
        <time>2021-04-24T11:58:33Z</time>
      </trkpt>
      <trkpt lat="43.65492" lon="3.77605">
        <ele>78</ele>
        <time>2021-04-24T11:58:34Z</time>
      </trkpt>
      <trkpt lat="43.65493" lon="3.77602">
        <ele>78</ele>
        <time>2021-04-24T11:58:35Z</time>
      </trkpt>
      <trkpt lat="43.65493" lon="3.77598">
        <ele>78</ele>
        <time>2021-04-24T11:58:36Z</time>
      </trkpt>
      <trkpt lat="43.65493" lon="3.77595">
        <ele>78</ele>
        <time>2021-04-24T11:58:37Z</time>
      </trkpt>
      <trkpt lat="43.65493" lon="3.77591">
        <ele>78</ele>
        <time>2021-04-24T11:58:38Z</time>
      </trkpt>
      <trkpt lat="43.65494" lon="3.77587">
        <ele>78</ele>
        <time>2021-04-24T11:58:39Z</time>
      </trkpt>
      <trkpt lat="43.65494" lon="3.77584">
        <ele>78</ele>
        <time>2021-04-24T11:58:40Z</time>
      </trkpt>
      <trkpt lat="43.65495" lon="3.7758">
        <ele>78</ele>
        <time>2021-04-24T11:58:41Z</time>
      </trkpt>
      <trkpt lat="43.65495" lon="3.77576">
        <ele>78</ele>
        <time>2021-04-24T11:58:42Z</time>
      </trkpt>
      <trkpt lat="43.65496" lon="3.77572">
        <ele>80</ele>
        <time>2021-04-24T11:58:43Z</time>
      </trkpt>
      <trkpt lat="43.65496" lon="3.77569">
        <ele>80</ele>
        <time>2021-04-24T11:58:44Z</time>
      </trkpt>
      <trkpt lat="43.65496" lon="3.77565">
        <ele>80</ele>
        <time>2021-04-24T11:58:45Z</time>
      </trkpt>
      <trkpt lat="43.65496" lon="3.77562">
        <ele>80</ele>
        <time>2021-04-24T11:58:46Z</time>
      </trkpt>
      <trkpt lat="43.65496" lon="3.77559">
        <ele>80</ele>
        <time>2021-04-24T11:58:47Z</time>
      </trkpt>
      <trkpt lat="43.65496" lon="3.77555">
        <ele>80</ele>
        <time>2021-04-24T11:58:48Z</time>
      </trkpt>
      <trkpt lat="43.65498" lon="3.77553">
        <ele>80</ele>
        <time>2021-04-24T11:58:49Z</time>
      </trkpt>
      <trkpt lat="43.65499" lon="3.7755">
        <ele>80</ele>
        <time>2021-04-24T11:58:50Z</time>
      </trkpt>
      <trkpt lat="43.655" lon="3.77547">
        <ele>80</ele>
        <time>2021-04-24T11:58:51Z</time>
      </trkpt>
      <trkpt lat="43.65501" lon="3.77545">
        <ele>80</ele>
        <time>2021-04-24T11:58:52Z</time>
      </trkpt>
      <trkpt lat="43.65502" lon="3.77542">
        <ele>80</ele>
        <time>2021-04-24T11:58:53Z</time>
      </trkpt>
      <trkpt lat="43.65504" lon="3.77539">
        <ele>80</ele>
        <time>2021-04-24T11:58:54Z</time>
      </trkpt>
      <trkpt lat="43.65505" lon="3.77535">
        <ele>80</ele>
        <time>2021-04-24T11:58:55Z</time>
      </trkpt>
      <trkpt lat="43.65506" lon="3.77532">
        <ele>80</ele>
        <time>2021-04-24T11:58:56Z</time>
      </trkpt>
      <trkpt lat="43.65506" lon="3.77528">
        <ele>80</ele>
        <time>2021-04-24T11:58:57Z</time>
      </trkpt>
      <trkpt lat="43.65507" lon="3.77525">
        <ele>80</ele>
        <time>2021-04-24T11:58:58Z</time>
      </trkpt>
      <trkpt lat="43.65508" lon="3.77521">
        <ele>80</ele>
        <time>2021-04-24T11:58:59Z</time>
      </trkpt>
      <trkpt lat="43.65508" lon="3.77518">
        <ele>80</ele>
        <time>2021-04-24T11:59:00Z</time>
      </trkpt>
      <trkpt lat="43.65508" lon="3.77514">
        <ele>80</ele>
        <time>2021-04-24T11:59:01Z</time>
      </trkpt>
      <trkpt lat="43.65509" lon="3.77511">
        <ele>80</ele>
        <time>2021-04-24T11:59:02Z</time>
      </trkpt>
      <trkpt lat="43.65509" lon="3.77507">
        <ele>82</ele>
        <time>2021-04-24T11:59:03Z</time>
      </trkpt>
      <trkpt lat="43.6551" lon="3.77503">
        <ele>82</ele>
        <time>2021-04-24T11:59:04Z</time>
      </trkpt>
      <trkpt lat="43.65511" lon="3.775">
        <ele>82</ele>
        <time>2021-04-24T11:59:05Z</time>
      </trkpt>
      <trkpt lat="43.65512" lon="3.77496">
        <ele>82</ele>
        <time>2021-04-24T11:59:06Z</time>
      </trkpt>
      <trkpt lat="43.65513" lon="3.77492">
        <ele>82</ele>
        <time>2021-04-24T11:59:07Z</time>
      </trkpt>
      <trkpt lat="43.65514" lon="3.77488">
        <ele>82</ele>
        <time>2021-04-24T11:59:08Z</time>
      </trkpt>
      <trkpt lat="43.65515" lon="3.77484">
        <ele>82</ele>
        <time>2021-04-24T11:59:09Z</time>
      </trkpt>
      <trkpt lat="43.65517" lon="3.77479">
        <ele>82</ele>
        <time>2021-04-24T11:59:10Z</time>
      </trkpt>
      <trkpt lat="43.65518" lon="3.77474">
        <ele>82</ele>
        <time>2021-04-24T11:59:11Z</time>
      </trkpt>
      <trkpt lat="43.6552" lon="3.77469">
        <ele>82</ele>
        <time>2021-04-24T11:59:12Z</time>
      </trkpt>
      <trkpt lat="43.65521" lon="3.77464">
        <ele>82</ele>
        <time>2021-04-24T11:59:13Z</time>
      </trkpt>
      <trkpt lat="43.65523" lon="3.77459">
        <ele>82</ele>
        <time>2021-04-24T11:59:14Z</time>
      </trkpt>
      <trkpt lat="43.65525" lon="3.77453">
        <ele>82</ele>
        <time>2021-04-24T11:59:15Z</time>
      </trkpt>
      <trkpt lat="43.65527" lon="3.77448">
        <ele>82</ele>
        <time>2021-04-24T11:59:16Z</time>
      </trkpt>
      <trkpt lat="43.65529" lon="3.77443">
        <ele>82</ele>
        <time>2021-04-24T11:59:17Z</time>
      </trkpt>
      <trkpt lat="43.65531" lon="3.77438">
        <ele>82</ele>
        <time>2021-04-24T11:59:18Z</time>
      </trkpt>
      <trkpt lat="43.65533" lon="3.77434">
        <ele>82</ele>
        <time>2021-04-24T11:59:19Z</time>
      </trkpt>
      <trkpt lat="43.65535" lon="3.77431">
        <ele>82</ele>
        <time>2021-04-24T11:59:20Z</time>
      </trkpt>
      <trkpt lat="43.65537" lon="3.77427">
        <ele>82</ele>
        <time>2021-04-24T11:59:21Z</time>
      </trkpt>
      <trkpt lat="43.65539" lon="3.77423">
        <ele>82</ele>
        <time>2021-04-24T11:59:22Z</time>
      </trkpt>
      <trkpt lat="43.65542" lon="3.7742">
        <ele>83</ele>
        <time>2021-04-24T11:59:23Z</time>
      </trkpt>
      <trkpt lat="43.65544" lon="3.77417">
        <ele>83</ele>
        <time>2021-04-24T11:59:24Z</time>
      </trkpt>
      <trkpt lat="43.65546" lon="3.77413">
        <ele>83</ele>
        <time>2021-04-24T11:59:25Z</time>
      </trkpt>
      <trkpt lat="43.65548" lon="3.7741">
        <ele>83</ele>
        <time>2021-04-24T11:59:26Z</time>
      </trkpt>
      <trkpt lat="43.65551" lon="3.77407">
        <ele>83</ele>
        <time>2021-04-24T11:59:27Z</time>
      </trkpt>
      <trkpt lat="43.65553" lon="3.77403">
        <ele>83</ele>
        <time>2021-04-24T11:59:28Z</time>
      </trkpt>
      <trkpt lat="43.65555" lon="3.774">
        <ele>83</ele>
        <time>2021-04-24T11:59:29Z</time>
      </trkpt>
      <trkpt lat="43.65557" lon="3.77397">
        <ele>83</ele>
        <time>2021-04-24T11:59:30Z</time>
      </trkpt>
      <trkpt lat="43.65559" lon="3.77394">
        <ele>83</ele>
        <time>2021-04-24T11:59:31Z</time>
      </trkpt>
      <trkpt lat="43.65561" lon="3.77392">
        <ele>83</ele>
        <time>2021-04-24T11:59:32Z</time>
      </trkpt>
      <trkpt lat="43.65563" lon="3.77388">
        <ele>84</ele>
        <time>2021-04-24T11:59:33Z</time>
      </trkpt>
      <trkpt lat="43.65565" lon="3.77385">
        <ele>84</ele>
        <time>2021-04-24T11:59:34Z</time>
      </trkpt>
      <trkpt lat="43.65566" lon="3.77382">
        <ele>84</ele>
        <time>2021-04-24T11:59:35Z</time>
      </trkpt>
      <trkpt lat="43.65567" lon="3.77378">
        <ele>84</ele>
        <time>2021-04-24T11:59:36Z</time>
      </trkpt>
      <trkpt lat="43.65569" lon="3.77374">
        <ele>84</ele>
        <time>2021-04-24T11:59:37Z</time>
      </trkpt>
      <trkpt lat="43.6557" lon="3.77371">
        <ele>84</ele>
        <time>2021-04-24T11:59:38Z</time>
      </trkpt>
      <trkpt lat="43.65572" lon="3.77368">
        <ele>84</ele>
        <time>2021-04-24T11:59:39Z</time>
      </trkpt>
      <trkpt lat="43.65573" lon="3.77365">
        <ele>84</ele>
        <time>2021-04-24T11:59:40Z</time>
      </trkpt>
      <trkpt lat="43.65575" lon="3.77361">
        <ele>84</ele>
        <time>2021-04-24T11:59:41Z</time>
      </trkpt>
      <trkpt lat="43.65576" lon="3.77357">
        <ele>84</ele>
        <time>2021-04-24T11:59:42Z</time>
      </trkpt>
      <trkpt lat="43.65577" lon="3.77353">
        <ele>85</ele>
        <time>2021-04-24T11:59:43Z</time>
      </trkpt>
      <trkpt lat="43.65578" lon="3.77349">
        <ele>85</ele>
        <time>2021-04-24T11:59:44Z</time>
      </trkpt>
      <trkpt lat="43.65579" lon="3.77345">
        <ele>85</ele>
        <time>2021-04-24T11:59:45Z</time>
      </trkpt>
      <trkpt lat="43.6558" lon="3.77341">
        <ele>85</ele>
        <time>2021-04-24T11:59:46Z</time>
      </trkpt>
      <trkpt lat="43.65581" lon="3.77337">
        <ele>85</ele>
        <time>2021-04-24T11:59:47Z</time>
      </trkpt>
      <trkpt lat="43.65582" lon="3.77334">
        <ele>85</ele>
        <time>2021-04-24T11:59:48Z</time>
      </trkpt>
      <trkpt lat="43.65582" lon="3.7733">
        <ele>85</ele>
        <time>2021-04-24T11:59:49Z</time>
      </trkpt>
      <trkpt lat="43.65582" lon="3.77327">
        <ele>85</ele>
        <time>2021-04-24T11:59:50Z</time>
      </trkpt>
      <trkpt lat="43.65583" lon="3.77323">
        <ele>85</ele>
        <time>2021-04-24T11:59:51Z</time>
      </trkpt>
      <trkpt lat="43.65584" lon="3.7732">
        <ele>85</ele>
        <time>2021-04-24T11:59:52Z</time>
      </trkpt>
      <trkpt lat="43.65584" lon="3.77317">
        <ele>87</ele>
        <time>2021-04-24T11:59:53Z</time>
      </trkpt>
      <trkpt lat="43.65583" lon="3.77313">
        <ele>87</ele>
        <time>2021-04-24T11:59:54Z</time>
      </trkpt>
      <trkpt lat="43.65583" lon="3.7731">
        <ele>87</ele>
        <time>2021-04-24T11:59:55Z</time>
      </trkpt>
      <trkpt lat="43.65582" lon="3.77307">
        <ele>87</ele>
        <time>2021-04-24T11:59:56Z</time>
      </trkpt>
      <trkpt lat="43.65581" lon="3.77304">
        <ele>87</ele>
        <time>2021-04-24T11:59:57Z</time>
      </trkpt>
      <trkpt lat="43.6558" lon="3.773">
        <ele>87</ele>
        <time>2021-04-24T11:59:58Z</time>
      </trkpt>
      <trkpt lat="43.65579" lon="3.77296">
        <ele>87</ele>
        <time>2021-04-24T11:59:59Z</time>
      </trkpt>
      <trkpt lat="43.65579" lon="3.77292">
        <ele>87</ele>
        <time>2021-04-24T12:00:00Z</time>
      </trkpt>
      <trkpt lat="43.65579" lon="3.77288">
        <ele>87</ele>
        <time>2021-04-24T12:00:01Z</time>
      </trkpt>
      <trkpt lat="43.65579" lon="3.77284">
        <ele>87</ele>
        <time>2021-04-24T12:00:02Z</time>
      </trkpt>
      <trkpt lat="43.65579" lon="3.77281">
        <ele>86</ele>
        <time>2021-04-24T12:00:03Z</time>
      </trkpt>
      <trkpt lat="43.65579" lon="3.77277">
        <ele>86</ele>
        <time>2021-04-24T12:00:04Z</time>
      </trkpt>
      <trkpt lat="43.6558" lon="3.77273">
        <ele>86</ele>
        <time>2021-04-24T12:00:05Z</time>
      </trkpt>
      <trkpt lat="43.65581" lon="3.77269">
        <ele>86</ele>
        <time>2021-04-24T12:00:06Z</time>
      </trkpt>
      <trkpt lat="43.65581" lon="3.77265">
        <ele>86</ele>
        <time>2021-04-24T12:00:07Z</time>
      </trkpt>
      <trkpt lat="43.65581" lon="3.77261">
        <ele>86</ele>
        <time>2021-04-24T12:00:08Z</time>
      </trkpt>
      <trkpt lat="43.65581" lon="3.77258">
        <ele>86</ele>
        <time>2021-04-24T12:00:09Z</time>
      </trkpt>
      <trkpt lat="43.65581" lon="3.77253">
        <ele>86</ele>
        <time>2021-04-24T12:00:10Z</time>
      </trkpt>
      <trkpt lat="43.65581" lon="3.77249">
        <ele>86</ele>
        <time>2021-04-24T12:00:11Z</time>
      </trkpt>
      <trkpt lat="43.6558" lon="3.77245">
        <ele>86</ele>
        <time>2021-04-24T12:00:12Z</time>
      </trkpt>
      <trkpt lat="43.6558" lon="3.77241">
        <ele>86</ele>
        <time>2021-04-24T12:00:13Z</time>
      </trkpt>
      <trkpt lat="43.6558" lon="3.77238">
        <ele>86</ele>
        <time>2021-04-24T12:00:14Z</time>
      </trkpt>
      <trkpt lat="43.65579" lon="3.77235">
        <ele>86</ele>
        <time>2021-04-24T12:00:15Z</time>
      </trkpt>
      <trkpt lat="43.65579" lon="3.77231">
        <ele>86</ele>
        <time>2021-04-24T12:00:16Z</time>
      </trkpt>
      <trkpt lat="43.65578" lon="3.77228">
        <ele>86</ele>
        <time>2021-04-24T12:00:17Z</time>
      </trkpt>
      <trkpt lat="43.65577" lon="3.77224">
        <ele>86</ele>
        <time>2021-04-24T12:00:18Z</time>
      </trkpt>
      <trkpt lat="43.65577" lon="3.77221">
        <ele>86</ele>
        <time>2021-04-24T12:00:19Z</time>
      </trkpt>
      <trkpt lat="43.65577" lon="3.77217">
        <ele>86</ele>
        <time>2021-04-24T12:00:20Z</time>
      </trkpt>
      <trkpt lat="43.65577" lon="3.77213">
        <ele>86</ele>
        <time>2021-04-24T12:00:21Z</time>
      </trkpt>
      <trkpt lat="43.65578" lon="3.77209">
        <ele>86</ele>
        <time>2021-04-24T12:00:22Z</time>
      </trkpt>
      <trkpt lat="43.65578" lon="3.77205">
        <ele>86</ele>
        <time>2021-04-24T12:00:23Z</time>
      </trkpt>
      <trkpt lat="43.65578" lon="3.77201">
        <ele>86</ele>
        <time>2021-04-24T12:00:24Z</time>
      </trkpt>
      <trkpt lat="43.65578" lon="3.77198">
        <ele>86</ele>
        <time>2021-04-24T12:00:25Z</time>
      </trkpt>
      <trkpt lat="43.65578" lon="3.77193">
        <ele>86</ele>
        <time>2021-04-24T12:00:26Z</time>
      </trkpt>
      <trkpt lat="43.65578" lon="3.7719">
        <ele>86</ele>
        <time>2021-04-24T12:00:27Z</time>
      </trkpt>
      <trkpt lat="43.65578" lon="3.77186">
        <ele>86</ele>
        <time>2021-04-24T12:00:28Z</time>
      </trkpt>
      <trkpt lat="43.65579" lon="3.77182">
        <ele>86</ele>
        <time>2021-04-24T12:00:29Z</time>
      </trkpt>
      <trkpt lat="43.65579" lon="3.77178">
        <ele>86</ele>
        <time>2021-04-24T12:00:30Z</time>
      </trkpt>
      <trkpt lat="43.6558" lon="3.77175">
        <ele>86</ele>
        <time>2021-04-24T12:00:31Z</time>
      </trkpt>
      <trkpt lat="43.6558" lon="3.77171">
        <ele>86</ele>
        <time>2021-04-24T12:00:32Z</time>
      </trkpt>
      <trkpt lat="43.6558" lon="3.77168">
        <ele>88</ele>
        <time>2021-04-24T12:00:33Z</time>
      </trkpt>
      <trkpt lat="43.6558" lon="3.77165">
        <ele>88</ele>
        <time>2021-04-24T12:00:34Z</time>
      </trkpt>
      <trkpt lat="43.65581" lon="3.77161">
        <ele>88</ele>
        <time>2021-04-24T12:00:35Z</time>
      </trkpt>
      <trkpt lat="43.65581" lon="3.77157">
        <ele>88</ele>
        <time>2021-04-24T12:00:36Z</time>
      </trkpt>
      <trkpt lat="43.65582" lon="3.77154">
        <ele>88</ele>
        <time>2021-04-24T12:00:37Z</time>
      </trkpt>
      <trkpt lat="43.65582" lon="3.7715">
        <ele>88</ele>
        <time>2021-04-24T12:00:38Z</time>
      </trkpt>
      <trkpt lat="43.65582" lon="3.77147">
        <ele>88</ele>
        <time>2021-04-24T12:00:39Z</time>
      </trkpt>
      <trkpt lat="43.65583" lon="3.77143">
        <ele>88</ele>
        <time>2021-04-24T12:00:40Z</time>
      </trkpt>
      <trkpt lat="43.65583" lon="3.7714">
        <ele>88</ele>
        <time>2021-04-24T12:00:41Z</time>
      </trkpt>
      <trkpt lat="43.65583" lon="3.77136">
        <ele>88</ele>
        <time>2021-04-24T12:00:42Z</time>
      </trkpt>
      <trkpt lat="43.65583" lon="3.77133">
        <ele>88</ele>
        <time>2021-04-24T12:00:43Z</time>
      </trkpt>
      <trkpt lat="43.65583" lon="3.77129">
        <ele>88</ele>
        <time>2021-04-24T12:00:44Z</time>
      </trkpt>
      <trkpt lat="43.65582" lon="3.77125">
        <ele>88</ele>
        <time>2021-04-24T12:00:45Z</time>
      </trkpt>
      <trkpt lat="43.65582" lon="3.77121">
        <ele>88</ele>
        <time>2021-04-24T12:00:46Z</time>
      </trkpt>
      <trkpt lat="43.65582" lon="3.77117">
        <ele>88</ele>
        <time>2021-04-24T12:00:47Z</time>
      </trkpt>
      <trkpt lat="43.65581" lon="3.77113">
        <ele>88</ele>
        <time>2021-04-24T12:00:48Z</time>
      </trkpt>
      <trkpt lat="43.65581" lon="3.77108">
        <ele>88</ele>
        <time>2021-04-24T12:00:49Z</time>
      </trkpt>
      <trkpt lat="43.65582" lon="3.77104">
        <ele>88</ele>
        <time>2021-04-24T12:00:50Z</time>
      </trkpt>
      <trkpt lat="43.65582" lon="3.771">
        <ele>88</ele>
        <time>2021-04-24T12:00:51Z</time>
      </trkpt>
      <trkpt lat="43.65582" lon="3.77097">
        <ele>88</ele>
        <time>2021-04-24T12:00:52Z</time>
      </trkpt>
      <trkpt lat="43.65583" lon="3.77093">
        <ele>90</ele>
        <time>2021-04-24T12:00:53Z</time>
      </trkpt>
      <trkpt lat="43.65583" lon="3.7709">
        <ele>90</ele>
        <time>2021-04-24T12:00:54Z</time>
      </trkpt>
      <trkpt lat="43.65584" lon="3.77086">
        <ele>90</ele>
        <time>2021-04-24T12:00:55Z</time>
      </trkpt>
      <trkpt lat="43.65584" lon="3.77081">
        <ele>90</ele>
        <time>2021-04-24T12:00:56Z</time>
      </trkpt>
      <trkpt lat="43.65584" lon="3.77077">
        <ele>90</ele>
        <time>2021-04-24T12:00:57Z</time>
      </trkpt>
      <trkpt lat="43.65585" lon="3.77074">
        <ele>90</ele>
        <time>2021-04-24T12:00:58Z</time>
      </trkpt>
      <trkpt lat="43.65586" lon="3.7707">
        <ele>90</ele>
        <time>2021-04-24T12:00:59Z</time>
      </trkpt>
      <trkpt lat="43.65587" lon="3.77067">
        <ele>90</ele>
        <time>2021-04-24T12:01:00Z</time>
      </trkpt>
      <trkpt lat="43.65588" lon="3.77063">
        <ele>90</ele>
        <time>2021-04-24T12:01:01Z</time>
      </trkpt>
      <trkpt lat="43.65588" lon="3.7706">
        <ele>90</ele>
        <time>2021-04-24T12:01:02Z</time>
      </trkpt>
      <trkpt lat="43.65588" lon="3.77056">
        <ele>91</ele>
        <time>2021-04-24T12:01:03Z</time>
      </trkpt>
      <trkpt lat="43.65589" lon="3.77053">
        <ele>91</ele>
        <time>2021-04-24T12:01:04Z</time>
      </trkpt>
      <trkpt lat="43.65589" lon="3.77049">
        <ele>91</ele>
        <time>2021-04-24T12:01:05Z</time>
      </trkpt>
      <trkpt lat="43.6559" lon="3.77045">
        <ele>91</ele>
        <time>2021-04-24T12:01:06Z</time>
      </trkpt>
      <trkpt lat="43.6559" lon="3.77042">
        <ele>91</ele>
        <time>2021-04-24T12:01:07Z</time>
      </trkpt>
      <trkpt lat="43.6559" lon="3.77038">
        <ele>91</ele>
        <time>2021-04-24T12:01:08Z</time>
      </trkpt>
      <trkpt lat="43.65591" lon="3.77034">
        <ele>91</ele>
        <time>2021-04-24T12:01:09Z</time>
      </trkpt>
      <trkpt lat="43.65591" lon="3.7703">
        <ele>91</ele>
        <time>2021-04-24T12:01:10Z</time>
      </trkpt>
      <trkpt lat="43.65592" lon="3.77026">
        <ele>91</ele>
        <time>2021-04-24T12:01:11Z</time>
      </trkpt>
      <trkpt lat="43.65592" lon="3.77023">
        <ele>91</ele>
        <time>2021-04-24T12:01:12Z</time>
      </trkpt>
      <trkpt lat="43.65593" lon="3.77019">
        <ele>91</ele>
        <time>2021-04-24T12:01:13Z</time>
      </trkpt>
      <trkpt lat="43.65593" lon="3.77016">
        <ele>91</ele>
        <time>2021-04-24T12:01:14Z</time>
      </trkpt>
      <trkpt lat="43.65594" lon="3.77012">
        <ele>91</ele>
        <time>2021-04-24T12:01:15Z</time>
      </trkpt>
      <trkpt lat="43.65594" lon="3.77009">
        <ele>91</ele>
        <time>2021-04-24T12:01:16Z</time>
      </trkpt>
      <trkpt lat="43.65594" lon="3.77005">
        <ele>91</ele>
        <time>2021-04-24T12:01:17Z</time>
      </trkpt>
      <trkpt lat="43.65595" lon="3.77001">
        <ele>91</ele>
        <time>2021-04-24T12:01:18Z</time>
      </trkpt>
      <trkpt lat="43.65595" lon="3.76998">
        <ele>91</ele>
        <time>2021-04-24T12:01:19Z</time>
      </trkpt>
      <trkpt lat="43.65596" lon="3.76994">
        <ele>91</ele>
        <time>2021-04-24T12:01:20Z</time>
      </trkpt>
      <trkpt lat="43.65596" lon="3.76991">
        <ele>91</ele>
        <time>2021-04-24T12:01:21Z</time>
      </trkpt>
      <trkpt lat="43.65596" lon="3.76987">
        <ele>91</ele>
        <time>2021-04-24T12:01:22Z</time>
      </trkpt>
      <trkpt lat="43.65596" lon="3.76983">
        <ele>92</ele>
        <time>2021-04-24T12:01:23Z</time>
      </trkpt>
      <trkpt lat="43.65596" lon="3.7698">
        <ele>92</ele>
        <time>2021-04-24T12:01:24Z</time>
      </trkpt>
      <trkpt lat="43.65596" lon="3.76976">
        <ele>92</ele>
        <time>2021-04-24T12:01:25Z</time>
      </trkpt>
      <trkpt lat="43.65596" lon="3.76972">
        <ele>92</ele>
        <time>2021-04-24T12:01:26Z</time>
      </trkpt>
      <trkpt lat="43.65596" lon="3.76969">
        <ele>92</ele>
        <time>2021-04-24T12:01:27Z</time>
      </trkpt>
      <trkpt lat="43.65596" lon="3.76966">
        <ele>92</ele>
        <time>2021-04-24T12:01:28Z</time>
      </trkpt>
      <trkpt lat="43.65597" lon="3.76963">
        <ele>92</ele>
        <time>2021-04-24T12:01:29Z</time>
      </trkpt>
      <trkpt lat="43.65597" lon="3.76959">
        <ele>92</ele>
        <time>2021-04-24T12:01:30Z</time>
      </trkpt>
      <trkpt lat="43.65597" lon="3.76956">
        <ele>92</ele>
        <time>2021-04-24T12:01:31Z</time>
      </trkpt>
      <trkpt lat="43.65597" lon="3.76953">
        <ele>92</ele>
        <time>2021-04-24T12:01:32Z</time>
      </trkpt>
      <trkpt lat="43.65597" lon="3.7695">
        <ele>93</ele>
        <time>2021-04-24T12:01:33Z</time>
      </trkpt>
      <trkpt lat="43.65597" lon="3.76946">
        <ele>93</ele>
        <time>2021-04-24T12:01:34Z</time>
      </trkpt>
      <trkpt lat="43.65597" lon="3.76943">
        <ele>93</ele>
        <time>2021-04-24T12:01:35Z</time>
      </trkpt>
      <trkpt lat="43.65597" lon="3.76939">
        <ele>93</ele>
        <time>2021-04-24T12:01:36Z</time>
      </trkpt>
      <trkpt lat="43.65598" lon="3.76936">
        <ele>93</ele>
        <time>2021-04-24T12:01:37Z</time>
      </trkpt>
      <trkpt lat="43.65599" lon="3.76933">
        <ele>93</ele>
        <time>2021-04-24T12:01:38Z</time>
      </trkpt>
      <trkpt lat="43.65599" lon="3.7693">
        <ele>93</ele>
        <time>2021-04-24T12:01:39Z</time>
      </trkpt>
      <trkpt lat="43.65599" lon="3.76922">
        <ele>93</ele>
        <time>2021-04-24T12:01:41Z</time>
      </trkpt>
      <trkpt lat="43.656" lon="3.76919">
        <ele>94</ele>
        <time>2021-04-24T12:01:43Z</time>
      </trkpt>
      <trkpt lat="43.656" lon="3.76916">
        <ele>94</ele>
        <time>2021-04-24T12:01:44Z</time>
      </trkpt>
      <trkpt lat="43.65601" lon="3.76913">
        <ele>94</ele>
        <time>2021-04-24T12:01:45Z</time>
      </trkpt>
      <trkpt lat="43.65601" lon="3.7691">
        <ele>94</ele>
        <time>2021-04-24T12:01:46Z</time>
      </trkpt>
      <trkpt lat="43.65601" lon="3.76907">
        <ele>94</ele>
        <time>2021-04-24T12:01:47Z</time>
      </trkpt>
      <trkpt lat="43.65602" lon="3.76904">
        <ele>94</ele>
        <time>2021-04-24T12:01:48Z</time>
      </trkpt>
      <trkpt lat="43.65603" lon="3.76901">
        <ele>94</ele>
        <time>2021-04-24T12:01:49Z</time>
      </trkpt>
      <trkpt lat="43.65604" lon="3.76898">
        <ele>94</ele>
        <time>2021-04-24T12:01:50Z</time>
      </trkpt>
      <trkpt lat="43.65605" lon="3.76895">
        <ele>94</ele>
        <time>2021-04-24T12:01:51Z</time>
      </trkpt>
      <trkpt lat="43.65606" lon="3.76892">
        <ele>94</ele>
        <time>2021-04-24T12:01:52Z</time>
      </trkpt>
      <trkpt lat="43.65606" lon="3.76887">
        <ele>94</ele>
        <time>2021-04-24T12:01:54Z</time>
      </trkpt>
      <trkpt lat="43.65607" lon="3.76883">
        <ele>94</ele>
        <time>2021-04-24T12:01:56Z</time>
      </trkpt>
      <trkpt lat="43.65608" lon="3.7688">
        <ele>94</ele>
        <time>2021-04-24T12:01:58Z</time>
      </trkpt>
      <trkpt lat="43.65609" lon="3.76877">
        <ele>94</ele>
        <time>2021-04-24T12:02:00Z</time>
      </trkpt>
      <trkpt lat="43.65608" lon="3.76875">
        <ele>94</ele>
        <time>2021-04-24T12:02:02Z</time>
      </trkpt>
      <trkpt lat="43.65606" lon="3.76876">
        <ele>94</ele>
        <time>2021-04-24T12:02:04Z</time>
      </trkpt>
      <trkpt lat="43.65606" lon="3.76881">
        <ele>94</ele>
        <time>2021-04-24T12:02:06Z</time>
      </trkpt>
      <trkpt lat="43.65606" lon="3.76885">
        <ele>94</ele>
        <time>2021-04-24T12:02:07Z</time>
      </trkpt>
      <trkpt lat="43.65606" lon="3.76888">
        <ele>94</ele>
        <time>2021-04-24T12:02:08Z</time>
      </trkpt>
      <trkpt lat="43.65606" lon="3.7689">
        <ele>94</ele>
        <time>2021-04-24T12:02:09Z</time>
      </trkpt>
      <trkpt lat="43.65606" lon="3.76894">
        <ele>94</ele>
        <time>2021-04-24T12:02:11Z</time>
      </trkpt>
      <trkpt lat="43.65607" lon="3.76898">
        <ele>94</ele>
        <time>2021-04-24T12:02:13Z</time>
      </trkpt>
      <trkpt lat="43.65609" lon="3.76897">
        <ele>94</ele>
        <time>2021-04-24T12:02:16Z</time>
      </trkpt>
      <trkpt lat="43.6561" lon="3.76896">
        <ele>94</ele>
        <time>2021-04-24T12:02:18Z</time>
      </trkpt>
      <trkpt lat="43.65611" lon="3.76897">
        <ele>94</ele>
        <time>2021-04-24T12:02:25Z</time>
      </trkpt>
      <trkpt lat="43.65615" lon="3.76886">
        <ele>94</ele>
        <time>2021-04-24T12:02:30Z</time>
      </trkpt>
      <trkpt lat="43.65617" lon="3.76883">
        <ele>94</ele>
        <time>2021-04-24T12:02:31Z</time>
      </trkpt>
      <trkpt lat="43.65618" lon="3.7688">
        <ele>94</ele>
        <time>2021-04-24T12:02:32Z</time>
      </trkpt>
      <trkpt lat="43.6562" lon="3.76877">
        <ele>94</ele>
        <time>2021-04-24T12:02:33Z</time>
      </trkpt>
      <trkpt lat="43.65621" lon="3.76874">
        <ele>94</ele>
        <time>2021-04-24T12:02:34Z</time>
      </trkpt>
      <trkpt lat="43.65623" lon="3.76872">
        <ele>94</ele>
        <time>2021-04-24T12:02:35Z</time>
      </trkpt>
      <trkpt lat="43.65625" lon="3.76869">
        <ele>94</ele>
        <time>2021-04-24T12:02:36Z</time>
      </trkpt>
      <trkpt lat="43.65627" lon="3.76866">
        <ele>94</ele>
        <time>2021-04-24T12:02:37Z</time>
      </trkpt>
      <trkpt lat="43.65629" lon="3.76863">
        <ele>94</ele>
        <time>2021-04-24T12:02:38Z</time>
      </trkpt>
      <trkpt lat="43.65632" lon="3.76859">
        <ele>94</ele>
        <time>2021-04-24T12:02:39Z</time>
      </trkpt>
      <trkpt lat="43.65635" lon="3.76855">
        <ele>95</ele>
        <time>2021-04-24T12:02:40Z</time>
      </trkpt>
      <trkpt lat="43.65637" lon="3.76852">
        <ele>95</ele>
        <time>2021-04-24T12:02:41Z</time>
      </trkpt>
      <trkpt lat="43.6564" lon="3.76847">
        <ele>95</ele>
        <time>2021-04-24T12:02:42Z</time>
      </trkpt>
      <trkpt lat="43.65641" lon="3.76843">
        <ele>95</ele>
        <time>2021-04-24T12:02:43Z</time>
      </trkpt>
      <trkpt lat="43.65643" lon="3.76839">
        <ele>95</ele>
        <time>2021-04-24T12:02:44Z</time>
      </trkpt>
      <trkpt lat="43.65645" lon="3.76835">
        <ele>95</ele>
        <time>2021-04-24T12:02:45Z</time>
      </trkpt>
      <trkpt lat="43.65647" lon="3.76831">
        <ele>95</ele>
        <time>2021-04-24T12:02:46Z</time>
      </trkpt>
      <trkpt lat="43.65648" lon="3.76826">
        <ele>95</ele>
        <time>2021-04-24T12:02:47Z</time>
      </trkpt>
      <trkpt lat="43.65649" lon="3.76822">
        <ele>95</ele>
        <time>2021-04-24T12:02:48Z</time>
      </trkpt>
      <trkpt lat="43.65651" lon="3.76817">
        <ele>95</ele>
        <time>2021-04-24T12:02:49Z</time>
      </trkpt>
      <trkpt lat="43.65652" lon="3.76812">
        <ele>95</ele>
        <time>2021-04-24T12:02:50Z</time>
      </trkpt>
      <trkpt lat="43.65654" lon="3.76808">
        <ele>95</ele>
        <time>2021-04-24T12:02:51Z</time>
      </trkpt>
      <trkpt lat="43.65655" lon="3.76803">
        <ele>95</ele>
        <time>2021-04-24T12:02:52Z</time>
      </trkpt>
      <trkpt lat="43.65658" lon="3.76799">
        <ele>95</ele>
        <time>2021-04-24T12:02:53Z</time>
      </trkpt>
      <trkpt lat="43.65661" lon="3.76795">
        <ele>95</ele>
        <time>2021-04-24T12:02:54Z</time>
      </trkpt>
      <trkpt lat="43.65664" lon="3.76791">
        <ele>95</ele>
        <time>2021-04-24T12:02:55Z</time>
      </trkpt>
      <trkpt lat="43.65667" lon="3.76787">
        <ele>95</ele>
        <time>2021-04-24T12:02:56Z</time>
      </trkpt>
      <trkpt lat="43.65669" lon="3.76783">
        <ele>95</ele>
        <time>2021-04-24T12:02:57Z</time>
      </trkpt>
      <trkpt lat="43.65671" lon="3.76779">
        <ele>95</ele>
        <time>2021-04-24T12:02:58Z</time>
      </trkpt>
      <trkpt lat="43.65674" lon="3.76775">
        <ele>95</ele>
        <time>2021-04-24T12:02:59Z</time>
      </trkpt>
      <trkpt lat="43.65677" lon="3.76771">
        <ele>94</ele>
        <time>2021-04-24T12:03:00Z</time>
      </trkpt>
      <trkpt lat="43.6568" lon="3.76766">
        <ele>94</ele>
        <time>2021-04-24T12:03:01Z</time>
      </trkpt>
      <trkpt lat="43.65681" lon="3.76762">
        <ele>94</ele>
        <time>2021-04-24T12:03:02Z</time>
      </trkpt>
      <trkpt lat="43.65684" lon="3.76757">
        <ele>94</ele>
        <time>2021-04-24T12:03:03Z</time>
      </trkpt>
      <trkpt lat="43.65687" lon="3.76752">
        <ele>94</ele>
        <time>2021-04-24T12:03:04Z</time>
      </trkpt>
      <trkpt lat="43.6569" lon="3.76747">
        <ele>94</ele>
        <time>2021-04-24T12:03:05Z</time>
      </trkpt>
      <trkpt lat="43.65693" lon="3.76742">
        <ele>94</ele>
        <time>2021-04-24T12:03:06Z</time>
      </trkpt>
      <trkpt lat="43.65697" lon="3.76737">
        <ele>94</ele>
        <time>2021-04-24T12:03:07Z</time>
      </trkpt>
      <trkpt lat="43.657" lon="3.76732">
        <ele>94</ele>
        <time>2021-04-24T12:03:08Z</time>
      </trkpt>
      <trkpt lat="43.65704" lon="3.76728">
        <ele>94</ele>
        <time>2021-04-24T12:03:09Z</time>
      </trkpt>
      <trkpt lat="43.65708" lon="3.76725">
        <ele>93</ele>
        <time>2021-04-24T12:03:10Z</time>
      </trkpt>
      <trkpt lat="43.65712" lon="3.76725">
        <ele>93</ele>
        <time>2021-04-24T12:03:11Z</time>
      </trkpt>
      <trkpt lat="43.65716" lon="3.76726">
        <ele>93</ele>
        <time>2021-04-24T12:03:12Z</time>
      </trkpt>
      <trkpt lat="43.65719" lon="3.76728">
        <ele>93</ele>
        <time>2021-04-24T12:03:13Z</time>
      </trkpt>
      <trkpt lat="43.65723" lon="3.76731">
        <ele>93</ele>
        <time>2021-04-24T12:03:14Z</time>
      </trkpt>
      <trkpt lat="43.65725" lon="3.76734">
        <ele>93</ele>
        <time>2021-04-24T12:03:15Z</time>
      </trkpt>
      <trkpt lat="43.65729" lon="3.76736">
        <ele>93</ele>
        <time>2021-04-24T12:03:16Z</time>
      </trkpt>
      <trkpt lat="43.65732" lon="3.76738">
        <ele>93</ele>
        <time>2021-04-24T12:03:17Z</time>
      </trkpt>
      <trkpt lat="43.65736" lon="3.7674">
        <ele>93</ele>
        <time>2021-04-24T12:03:19Z</time>
      </trkpt>
      <trkpt lat="43.65738" lon="3.76742">
        <ele>93</ele>
        <time>2021-04-24T12:03:21Z</time>
      </trkpt>
      <trkpt lat="43.65736" lon="3.76746">
        <ele>93</ele>
        <time>2021-04-24T12:03:23Z</time>
      </trkpt>
      <trkpt lat="43.65735" lon="3.76744">
        <ele>93</ele>
        <time>2021-04-24T12:03:25Z</time>
      </trkpt>
      <trkpt lat="43.65733" lon="3.76741">
        <ele>93</ele>
        <time>2021-04-24T12:03:28Z</time>
      </trkpt>
      <trkpt lat="43.6573" lon="3.76739">
        <ele>93</ele>
        <time>2021-04-24T12:03:30Z</time>
      </trkpt>
      <trkpt lat="43.65727" lon="3.76736">
        <ele>93</ele>
        <time>2021-04-24T12:03:31Z</time>
      </trkpt>
      <trkpt lat="43.65724" lon="3.76734">
        <ele>93</ele>
        <time>2021-04-24T12:03:32Z</time>
      </trkpt>
      <trkpt lat="43.65721" lon="3.76732">
        <ele>93</ele>
        <time>2021-04-24T12:03:33Z</time>
      </trkpt>
      <trkpt lat="43.65718" lon="3.76731">
        <ele>93</ele>
        <time>2021-04-24T12:03:34Z</time>
      </trkpt>
      <trkpt lat="43.65714" lon="3.7673">
        <ele>93</ele>
        <time>2021-04-24T12:03:35Z</time>
      </trkpt>
      <trkpt lat="43.65712" lon="3.76728">
        <ele>93</ele>
        <time>2021-04-24T12:03:36Z</time>
      </trkpt>
      <trkpt lat="43.6571" lon="3.76726">
        <ele>93</ele>
        <time>2021-04-24T12:03:37Z</time>
      </trkpt>
      <trkpt lat="43.65709" lon="3.76724">
        <ele>93</ele>
        <time>2021-04-24T12:03:38Z</time>
      </trkpt>
      <trkpt lat="43.65708" lon="3.76721">
        <ele>93</ele>
        <time>2021-04-24T12:03:39Z</time>
      </trkpt>
      <trkpt lat="43.65708" lon="3.76717">
        <ele>92</ele>
        <time>2021-04-24T12:03:40Z</time>
      </trkpt>
      <trkpt lat="43.65707" lon="3.76713">
        <ele>92</ele>
        <time>2021-04-24T12:03:41Z</time>
      </trkpt>
      <trkpt lat="43.65705" lon="3.76708">
        <ele>92</ele>
        <time>2021-04-24T12:03:42Z</time>
      </trkpt>
      <trkpt lat="43.65703" lon="3.76705">
        <ele>92</ele>
        <time>2021-04-24T12:03:43Z</time>
      </trkpt>
      <trkpt lat="43.65701" lon="3.76702">
        <ele>92</ele>
        <time>2021-04-24T12:03:44Z</time>
      </trkpt>
      <trkpt lat="43.65699" lon="3.76699">
        <ele>92</ele>
        <time>2021-04-24T12:03:45Z</time>
      </trkpt>
      <trkpt lat="43.65698" lon="3.76697">
        <ele>92</ele>
        <time>2021-04-24T12:03:47Z</time>
      </trkpt>
      <trkpt lat="43.65697" lon="3.76694">
        <ele>92</ele>
        <time>2021-04-24T12:03:55Z</time>
      </trkpt>
      <trkpt lat="43.65692" lon="3.7669">
        <ele>92</ele>
        <time>2021-04-24T12:03:58Z</time>
      </trkpt>
      <trkpt lat="43.6569" lon="3.7669">
        <ele>92</ele>
        <time>2021-04-24T12:03:59Z</time>
      </trkpt>
      <trkpt lat="43.65687" lon="3.76689">
        <ele>92</ele>
        <time>2021-04-24T12:04:00Z</time>
      </trkpt>
      <trkpt lat="43.65685" lon="3.76687">
        <ele>92</ele>
        <time>2021-04-24T12:04:01Z</time>
      </trkpt>
      <trkpt lat="43.65683" lon="3.76684">
        <ele>92</ele>
        <time>2021-04-24T12:04:02Z</time>
      </trkpt>
      <trkpt lat="43.65681" lon="3.7668">
        <ele>92</ele>
        <time>2021-04-24T12:04:03Z</time>
      </trkpt>
      <trkpt lat="43.6568" lon="3.76678">
        <ele>92</ele>
        <time>2021-04-24T12:04:04Z</time>
      </trkpt>
      <trkpt lat="43.65677" lon="3.76676">
        <ele>92</ele>
        <time>2021-04-24T12:04:05Z</time>
      </trkpt>
      <trkpt lat="43.65675" lon="3.76675">
        <ele>92</ele>
        <time>2021-04-24T12:04:06Z</time>
      </trkpt>
      <trkpt lat="43.65673" lon="3.76673">
        <ele>92</ele>
        <time>2021-04-24T12:04:07Z</time>
      </trkpt>
      <trkpt lat="43.65672" lon="3.76669">
        <ele>91</ele>
        <time>2021-04-24T12:04:08Z</time>
      </trkpt>
      <trkpt lat="43.65672" lon="3.76665">
        <ele>91</ele>
        <time>2021-04-24T12:04:09Z</time>
      </trkpt>
      <trkpt lat="43.65671" lon="3.76661">
        <ele>91</ele>
        <time>2021-04-24T12:04:10Z</time>
      </trkpt>
      <trkpt lat="43.6567" lon="3.76656">
        <ele>91</ele>
        <time>2021-04-24T12:04:11Z</time>
      </trkpt>
      <trkpt lat="43.6567" lon="3.76651">
        <ele>91</ele>
        <time>2021-04-24T12:04:12Z</time>
      </trkpt>
      <trkpt lat="43.6567" lon="3.76645">
        <ele>91</ele>
        <time>2021-04-24T12:04:13Z</time>
      </trkpt>
      <trkpt lat="43.65669" lon="3.7664">
        <ele>91</ele>
        <time>2021-04-24T12:04:14Z</time>
      </trkpt>
      <trkpt lat="43.65669" lon="3.76634">
        <ele>91</ele>
        <time>2021-04-24T12:04:15Z</time>
      </trkpt>
      <trkpt lat="43.65667" lon="3.76629">
        <ele>91</ele>
        <time>2021-04-24T12:04:16Z</time>
      </trkpt>
      <trkpt lat="43.65665" lon="3.76624">
        <ele>91</ele>
        <time>2021-04-24T12:04:17Z</time>
      </trkpt>
      <trkpt lat="43.65663" lon="3.7662">
        <ele>90</ele>
        <time>2021-04-24T12:04:18Z</time>
      </trkpt>
      <trkpt lat="43.65661" lon="3.76615">
        <ele>90</ele>
        <time>2021-04-24T12:04:19Z</time>
      </trkpt>
      <trkpt lat="43.65658" lon="3.76611">
        <ele>90</ele>
        <time>2021-04-24T12:04:20Z</time>
      </trkpt>
      <trkpt lat="43.65656" lon="3.76606">
        <ele>90</ele>
        <time>2021-04-24T12:04:21Z</time>
      </trkpt>
      <trkpt lat="43.65654" lon="3.76602">
        <ele>90</ele>
        <time>2021-04-24T12:04:22Z</time>
      </trkpt>
      <trkpt lat="43.65652" lon="3.76598">
        <ele>90</ele>
        <time>2021-04-24T12:04:23Z</time>
      </trkpt>
      <trkpt lat="43.65649" lon="3.76595">
        <ele>90</ele>
        <time>2021-04-24T12:04:24Z</time>
      </trkpt>
      <trkpt lat="43.65647" lon="3.76591">
        <ele>90</ele>
        <time>2021-04-24T12:04:25Z</time>
      </trkpt>
      <trkpt lat="43.65645" lon="3.76588">
        <ele>90</ele>
        <time>2021-04-24T12:04:26Z</time>
      </trkpt>
      <trkpt lat="43.65643" lon="3.76586">
        <ele>90</ele>
        <time>2021-04-24T12:04:27Z</time>
      </trkpt>
      <trkpt lat="43.6564" lon="3.76584">
        <ele>90</ele>
        <time>2021-04-24T12:04:28Z</time>
      </trkpt>
      <trkpt lat="43.65638" lon="3.76582">
        <ele>90</ele>
        <time>2021-04-24T12:04:29Z</time>
      </trkpt>
      <trkpt lat="43.65635" lon="3.76581">
        <ele>90</ele>
        <time>2021-04-24T12:04:30Z</time>
      </trkpt>
      <trkpt lat="43.65632" lon="3.76581">
        <ele>90</ele>
        <time>2021-04-24T12:04:31Z</time>
      </trkpt>
      <trkpt lat="43.6563" lon="3.76581">
        <ele>90</ele>
        <time>2021-04-24T12:04:32Z</time>
      </trkpt>
      <trkpt lat="43.65628" lon="3.7658">
        <ele>90</ele>
        <time>2021-04-24T12:04:33Z</time>
      </trkpt>
      <trkpt lat="43.65625" lon="3.7658">
        <ele>90</ele>
        <time>2021-04-24T12:04:34Z</time>
      </trkpt>
      <trkpt lat="43.65623" lon="3.7658">
        <ele>90</ele>
        <time>2021-04-24T12:04:35Z</time>
      </trkpt>
      <trkpt lat="43.65621" lon="3.7658">
        <ele>90</ele>
        <time>2021-04-24T12:04:36Z</time>
      </trkpt>
      <trkpt lat="43.65619" lon="3.7658">
        <ele>90</ele>
        <time>2021-04-24T12:04:37Z</time>
      </trkpt>
      <trkpt lat="43.65617" lon="3.76579">
        <ele>90</ele>
        <time>2021-04-24T12:04:38Z</time>
      </trkpt>
      <trkpt lat="43.65615" lon="3.76577">
        <ele>90</ele>
        <time>2021-04-24T12:04:39Z</time>
      </trkpt>
      <trkpt lat="43.65614" lon="3.76575">
        <ele>90</ele>
        <time>2021-04-24T12:04:40Z</time>
      </trkpt>
      <trkpt lat="43.65612" lon="3.76572">
        <ele>90</ele>
        <time>2021-04-24T12:04:42Z</time>
      </trkpt>
      <trkpt lat="43.6561" lon="3.76572">
        <ele>90</ele>
        <time>2021-04-24T12:04:45Z</time>
      </trkpt>
      <trkpt lat="43.65607" lon="3.76573">
        <ele>90</ele>
        <time>2021-04-24T12:04:47Z</time>
      </trkpt>
      <trkpt lat="43.65604" lon="3.76574">
        <ele>90</ele>
        <time>2021-04-24T12:04:49Z</time>
      </trkpt>
      <trkpt lat="43.65601" lon="3.76575">
        <ele>90</ele>
        <time>2021-04-24T12:04:51Z</time>
      </trkpt>
      <trkpt lat="43.65598" lon="3.76576">
        <ele>90</ele>
        <time>2021-04-24T12:04:53Z</time>
      </trkpt>
      <trkpt lat="43.65594" lon="3.76578">
        <ele>90</ele>
        <time>2021-04-24T12:04:55Z</time>
      </trkpt>
      <trkpt lat="43.65591" lon="3.76578">
        <ele>90</ele>
        <time>2021-04-24T12:04:57Z</time>
      </trkpt>
      <trkpt lat="43.65588" lon="3.76579">
        <ele>90</ele>
        <time>2021-04-24T12:04:59Z</time>
      </trkpt>
      <trkpt lat="43.65585" lon="3.7658">
        <ele>90</ele>
        <time>2021-04-24T12:05:01Z</time>
      </trkpt>
      <trkpt lat="43.65583" lon="3.76582">
        <ele>90</ele>
        <time>2021-04-24T12:05:03Z</time>
      </trkpt>
      <trkpt lat="43.6558" lon="3.76582">
        <ele>90</ele>
        <time>2021-04-24T12:05:05Z</time>
      </trkpt>
      <trkpt lat="43.65577" lon="3.76582">
        <ele>90</ele>
        <time>2021-04-24T12:05:07Z</time>
      </trkpt>
      <trkpt lat="43.65574" lon="3.7658">
        <ele>90</ele>
        <time>2021-04-24T12:05:09Z</time>
      </trkpt>
      <trkpt lat="43.65572" lon="3.76576">
        <ele>90</ele>
        <time>2021-04-24T12:05:11Z</time>
      </trkpt>
      <trkpt lat="43.65571" lon="3.76572">
        <ele>90</ele>
        <time>2021-04-24T12:05:13Z</time>
      </trkpt>
      <trkpt lat="43.6557" lon="3.76567">
        <ele>90</ele>
        <time>2021-04-24T12:05:15Z</time>
      </trkpt>
      <trkpt lat="43.65569" lon="3.76562">
        <ele>90</ele>
        <time>2021-04-24T12:05:17Z</time>
      </trkpt>
      <trkpt lat="43.65568" lon="3.7656">
        <ele>95</ele>
        <time>2021-04-24T12:05:18Z</time>
      </trkpt>
      <trkpt lat="43.65566" lon="3.76554">
        <ele>95</ele>
        <time>2021-04-24T12:05:20Z</time>
      </trkpt>
      <trkpt lat="43.65565" lon="3.76551">
        <ele>95</ele>
        <time>2021-04-24T12:05:21Z</time>
      </trkpt>
      <trkpt lat="43.65564" lon="3.76547">
        <ele>95</ele>
        <time>2021-04-24T12:05:22Z</time>
      </trkpt>
      <trkpt lat="43.65563" lon="3.76543">
        <ele>95</ele>
        <time>2021-04-24T12:05:23Z</time>
      </trkpt>
      <trkpt lat="43.65561" lon="3.76538">
        <ele>95</ele>
        <time>2021-04-24T12:05:24Z</time>
      </trkpt>
      <trkpt lat="43.6556" lon="3.76534">
        <ele>95</ele>
        <time>2021-04-24T12:05:25Z</time>
      </trkpt>
      <trkpt lat="43.65559" lon="3.76529">
        <ele>95</ele>
        <time>2021-04-24T12:05:26Z</time>
      </trkpt>
      <trkpt lat="43.65557" lon="3.76525">
        <ele>95</ele>
        <time>2021-04-24T12:05:27Z</time>
      </trkpt>
      <trkpt lat="43.65556" lon="3.7652">
        <ele>96</ele>
        <time>2021-04-24T12:05:28Z</time>
      </trkpt>
      <trkpt lat="43.65555" lon="3.76515">
        <ele>96</ele>
        <time>2021-04-24T12:05:29Z</time>
      </trkpt>
      <trkpt lat="43.65554" lon="3.7651">
        <ele>96</ele>
        <time>2021-04-24T12:05:30Z</time>
      </trkpt>
      <trkpt lat="43.65552" lon="3.76505">
        <ele>96</ele>
        <time>2021-04-24T12:05:31Z</time>
      </trkpt>
      <trkpt lat="43.65552" lon="3.76501">
        <ele>96</ele>
        <time>2021-04-24T12:05:32Z</time>
      </trkpt>
      <trkpt lat="43.65551" lon="3.76496">
        <ele>96</ele>
        <time>2021-04-24T12:05:33Z</time>
      </trkpt>
      <trkpt lat="43.6555" lon="3.76491">
        <ele>96</ele>
        <time>2021-04-24T12:05:34Z</time>
      </trkpt>
      <trkpt lat="43.6555" lon="3.76487">
        <ele>96</ele>
        <time>2021-04-24T12:05:35Z</time>
      </trkpt>
      <trkpt lat="43.6555" lon="3.76483">
        <ele>96</ele>
        <time>2021-04-24T12:05:36Z</time>
      </trkpt>
      <trkpt lat="43.6555" lon="3.7648">
        <ele>96</ele>
        <time>2021-04-24T12:05:37Z</time>
      </trkpt>
      <trkpt lat="43.65551" lon="3.76477">
        <ele>96</ele>
        <time>2021-04-24T12:05:39Z</time>
      </trkpt>
      <trkpt lat="43.65553" lon="3.76476">
        <ele>96</ele>
        <time>2021-04-24T12:05:42Z</time>
      </trkpt>
      <trkpt lat="43.65555" lon="3.76477">
        <ele>96</ele>
        <time>2021-04-24T12:05:47Z</time>
      </trkpt>
      <trkpt lat="43.65556" lon="3.76476">
        <ele>100</ele>
        <time>2021-04-24T12:05:49Z</time>
      </trkpt>
      <trkpt lat="43.65561" lon="3.76468">
        <ele>100</ele>
        <time>2021-04-24T12:06:02Z</time>
      </trkpt>
      <trkpt lat="43.65564" lon="3.76464">
        <ele>100</ele>
        <time>2021-04-24T12:06:03Z</time>
      </trkpt>
      <trkpt lat="43.65566" lon="3.7646">
        <ele>100</ele>
        <time>2021-04-24T12:06:04Z</time>
      </trkpt>
      <trkpt lat="43.65569" lon="3.76455">
        <ele>100</ele>
        <time>2021-04-24T12:06:05Z</time>
      </trkpt>
      <trkpt lat="43.65572" lon="3.7645">
        <ele>100</ele>
        <time>2021-04-24T12:06:06Z</time>
      </trkpt>
      <trkpt lat="43.65573" lon="3.76445">
        <ele>100</ele>
        <time>2021-04-24T12:06:07Z</time>
      </trkpt>
      <trkpt lat="43.65572" lon="3.76441">
        <ele>100</ele>
        <time>2021-04-24T12:06:08Z</time>
      </trkpt>
      <trkpt lat="43.65571" lon="3.76437">
        <ele>100</ele>
        <time>2021-04-24T12:06:09Z</time>
      </trkpt>
      <trkpt lat="43.65569" lon="3.76434">
        <ele>100</ele>
        <time>2021-04-24T12:06:10Z</time>
      </trkpt>
      <trkpt lat="43.65566" lon="3.7643">
        <ele>100</ele>
        <time>2021-04-24T12:06:11Z</time>
      </trkpt>
      <trkpt lat="43.65564" lon="3.76427">
        <ele>99</ele>
        <time>2021-04-24T12:06:12Z</time>
      </trkpt>
      <trkpt lat="43.65563" lon="3.76423">
        <ele>99</ele>
        <time>2021-04-24T12:06:13Z</time>
      </trkpt>
      <trkpt lat="43.65562" lon="3.76419">
        <ele>99</ele>
        <time>2021-04-24T12:06:14Z</time>
      </trkpt>
      <trkpt lat="43.65561" lon="3.76414">
        <ele>99</ele>
        <time>2021-04-24T12:06:15Z</time>
      </trkpt>
      <trkpt lat="43.65559" lon="3.7641">
        <ele>99</ele>
        <time>2021-04-24T12:06:16Z</time>
      </trkpt>
      <trkpt lat="43.65558" lon="3.76405">
        <ele>99</ele>
        <time>2021-04-24T12:06:17Z</time>
      </trkpt>
      <trkpt lat="43.65556" lon="3.764">
        <ele>99</ele>
        <time>2021-04-24T12:06:18Z</time>
      </trkpt>
      <trkpt lat="43.65555" lon="3.76395">
        <ele>99</ele>
        <time>2021-04-24T12:06:19Z</time>
      </trkpt>
      <trkpt lat="43.65553" lon="3.7639">
        <ele>99</ele>
        <time>2021-04-24T12:06:20Z</time>
      </trkpt>
      <trkpt lat="43.65552" lon="3.76385">
        <ele>99</ele>
        <time>2021-04-24T12:06:21Z</time>
      </trkpt>
      <trkpt lat="43.65551" lon="3.7638">
        <ele>99</ele>
        <time>2021-04-24T12:06:22Z</time>
      </trkpt>
      <trkpt lat="43.65551" lon="3.76375">
        <ele>99</ele>
        <time>2021-04-24T12:06:23Z</time>
      </trkpt>
      <trkpt lat="43.65552" lon="3.7637">
        <ele>99</ele>
        <time>2021-04-24T12:06:24Z</time>
      </trkpt>
      <trkpt lat="43.65554" lon="3.76365">
        <ele>99</ele>
        <time>2021-04-24T12:06:25Z</time>
      </trkpt>
      <trkpt lat="43.65554" lon="3.7636">
        <ele>99</ele>
        <time>2021-04-24T12:06:26Z</time>
      </trkpt>
      <trkpt lat="43.65556" lon="3.76355">
        <ele>99</ele>
        <time>2021-04-24T12:06:27Z</time>
      </trkpt>
      <trkpt lat="43.65557" lon="3.7635">
        <ele>99</ele>
        <time>2021-04-24T12:06:28Z</time>
      </trkpt>
      <trkpt lat="43.65558" lon="3.76345">
        <ele>99</ele>
        <time>2021-04-24T12:06:29Z</time>
      </trkpt>
      <trkpt lat="43.65559" lon="3.7634">
        <ele>99</ele>
        <time>2021-04-24T12:06:30Z</time>
      </trkpt>
      <trkpt lat="43.65558" lon="3.76336">
        <ele>99</ele>
        <time>2021-04-24T12:06:31Z</time>
      </trkpt>
      <trkpt lat="43.65557" lon="3.76332">
        <ele>98</ele>
        <time>2021-04-24T12:06:32Z</time>
      </trkpt>
      <trkpt lat="43.65557" lon="3.76329">
        <ele>98</ele>
        <time>2021-04-24T12:06:33Z</time>
      </trkpt>
      <trkpt lat="43.65556" lon="3.76327">
        <ele>98</ele>
        <time>2021-04-24T12:06:34Z</time>
      </trkpt>
      <trkpt lat="43.65555" lon="3.76324">
        <ele>98</ele>
        <time>2021-04-24T12:06:36Z</time>
      </trkpt>
      <trkpt lat="43.65556" lon="3.76328">
        <ele>97</ele>
        <time>2021-04-24T12:06:42Z</time>
      </trkpt>
      <trkpt lat="43.65557" lon="3.76332">
        <ele>97</ele>
        <time>2021-04-24T12:06:44Z</time>
      </trkpt>
      <trkpt lat="43.65558" lon="3.76336">
        <ele>97</ele>
        <time>2021-04-24T12:06:45Z</time>
      </trkpt>
      <trkpt lat="43.65559" lon="3.76339">
        <ele>97</ele>
        <time>2021-04-24T12:06:46Z</time>
      </trkpt>
      <trkpt lat="43.6556" lon="3.76341">
        <ele>97</ele>
        <time>2021-04-24T12:06:47Z</time>
      </trkpt>
      <trkpt lat="43.6556" lon="3.76344">
        <ele>97</ele>
        <time>2021-04-24T12:06:48Z</time>
      </trkpt>
      <trkpt lat="43.65559" lon="3.76346">
        <ele>97</ele>
        <time>2021-04-24T12:06:49Z</time>
      </trkpt>
      <trkpt lat="43.65556" lon="3.76347">
        <ele>97</ele>
        <time>2021-04-24T12:06:51Z</time>
      </trkpt>
      <trkpt lat="43.65554" lon="3.76345">
        <ele>95</ele>
        <time>2021-04-24T12:06:52Z</time>
      </trkpt>
      <trkpt lat="43.65552" lon="3.76343">
        <ele>95</ele>
        <time>2021-04-24T12:06:53Z</time>
      </trkpt>
      <trkpt lat="43.65549" lon="3.76341">
        <ele>95</ele>
        <time>2021-04-24T12:06:54Z</time>
      </trkpt>
      <trkpt lat="43.65547" lon="3.76338">
        <ele>95</ele>
        <time>2021-04-24T12:06:55Z</time>
      </trkpt>
      <trkpt lat="43.65545" lon="3.76335">
        <ele>95</ele>
        <time>2021-04-24T12:06:56Z</time>
      </trkpt>
      <trkpt lat="43.65543" lon="3.76332">
        <ele>95</ele>
        <time>2021-04-24T12:06:57Z</time>
      </trkpt>
      <trkpt lat="43.65541" lon="3.76329">
        <ele>95</ele>
        <time>2021-04-24T12:06:58Z</time>
      </trkpt>
      <trkpt lat="43.6554" lon="3.76324">
        <ele>95</ele>
        <time>2021-04-24T12:06:59Z</time>
      </trkpt>
      <trkpt lat="43.65538" lon="3.76319">
        <ele>95</ele>
        <time>2021-04-24T12:07:00Z</time>
      </trkpt>
      <trkpt lat="43.65536" lon="3.76314">
        <ele>95</ele>
        <time>2021-04-24T12:07:01Z</time>
      </trkpt>
      <trkpt lat="43.65534" lon="3.76309">
        <ele>95</ele>
        <time>2021-04-24T12:07:02Z</time>
      </trkpt>
      <trkpt lat="43.65532" lon="3.76304">
        <ele>95</ele>
        <time>2021-04-24T12:07:03Z</time>
      </trkpt>
      <trkpt lat="43.6553" lon="3.76298">
        <ele>95</ele>
        <time>2021-04-24T12:07:04Z</time>
      </trkpt>
      <trkpt lat="43.65529" lon="3.76292">
        <ele>95</ele>
        <time>2021-04-24T12:07:05Z</time>
      </trkpt>
      <trkpt lat="43.65527" lon="3.76286">
        <ele>95</ele>
        <time>2021-04-24T12:07:06Z</time>
      </trkpt>
      <trkpt lat="43.65526" lon="3.76281">
        <ele>95</ele>
        <time>2021-04-24T12:07:07Z</time>
      </trkpt>
      <trkpt lat="43.65524" lon="3.76276">
        <ele>95</ele>
        <time>2021-04-24T12:07:08Z</time>
      </trkpt>
      <trkpt lat="43.65521" lon="3.76273">
        <ele>95</ele>
        <time>2021-04-24T12:07:09Z</time>
      </trkpt>
      <trkpt lat="43.65519" lon="3.76268">
        <ele>95</ele>
        <time>2021-04-24T12:07:10Z</time>
      </trkpt>
      <trkpt lat="43.65517" lon="3.76262">
        <ele>95</ele>
        <time>2021-04-24T12:07:11Z</time>
      </trkpt>
      <trkpt lat="43.65515" lon="3.76256">
        <ele>96</ele>
        <time>2021-04-24T12:07:12Z</time>
      </trkpt>
      <trkpt lat="43.65512" lon="3.7625">
        <ele>96</ele>
        <time>2021-04-24T12:07:13Z</time>
      </trkpt>
      <trkpt lat="43.6551" lon="3.76245">
        <ele>96</ele>
        <time>2021-04-24T12:07:14Z</time>
      </trkpt>
      <trkpt lat="43.65506" lon="3.7624">
        <ele>96</ele>
        <time>2021-04-24T12:07:15Z</time>
      </trkpt>
      <trkpt lat="43.65503" lon="3.76236">
        <ele>96</ele>
        <time>2021-04-24T12:07:16Z</time>
      </trkpt>
      <trkpt lat="43.655" lon="3.76232">
        <ele>96</ele>
        <time>2021-04-24T12:07:17Z</time>
      </trkpt>
      <trkpt lat="43.65497" lon="3.76228">
        <ele>96</ele>
        <time>2021-04-24T12:07:18Z</time>
      </trkpt>
      <trkpt lat="43.65493" lon="3.76225">
        <ele>96</ele>
        <time>2021-04-24T12:07:19Z</time>
      </trkpt>
      <trkpt lat="43.6549" lon="3.76222">
        <ele>96</ele>
        <time>2021-04-24T12:07:20Z</time>
      </trkpt>
      <trkpt lat="43.65486" lon="3.76219">
        <ele>96</ele>
        <time>2021-04-24T12:07:21Z</time>
      </trkpt>
      <trkpt lat="43.65483" lon="3.76216">
        <ele>96</ele>
        <time>2021-04-24T12:07:22Z</time>
      </trkpt>
      <trkpt lat="43.6548" lon="3.76213">
        <ele>96</ele>
        <time>2021-04-24T12:07:23Z</time>
      </trkpt>
      <trkpt lat="43.65477" lon="3.76209">
        <ele>96</ele>
        <time>2021-04-24T12:07:24Z</time>
      </trkpt>
      <trkpt lat="43.65475" lon="3.76206">
        <ele>96</ele>
        <time>2021-04-24T12:07:25Z</time>
      </trkpt>
      <trkpt lat="43.65472" lon="3.76203">
        <ele>96</ele>
        <time>2021-04-24T12:07:26Z</time>
      </trkpt>
      <trkpt lat="43.6547" lon="3.76199">
        <ele>96</ele>
        <time>2021-04-24T12:07:27Z</time>
      </trkpt>
      <trkpt lat="43.65468" lon="3.76196">
        <ele>96</ele>
        <time>2021-04-24T12:07:28Z</time>
      </trkpt>
      <trkpt lat="43.65466" lon="3.76193">
        <ele>96</ele>
        <time>2021-04-24T12:07:29Z</time>
      </trkpt>
      <trkpt lat="43.65463" lon="3.76191">
        <ele>96</ele>
        <time>2021-04-24T12:07:30Z</time>
      </trkpt>
      <trkpt lat="43.65461" lon="3.76191">
        <ele>96</ele>
        <time>2021-04-24T12:07:31Z</time>
      </trkpt>
      <trkpt lat="43.65459" lon="3.76191">
        <ele>96</ele>
        <time>2021-04-24T12:07:32Z</time>
      </trkpt>
      <trkpt lat="43.65457" lon="3.76192">
        <ele>96</ele>
        <time>2021-04-24T12:07:34Z</time>
      </trkpt>
      <trkpt lat="43.65455" lon="3.76194">
        <ele>96</ele>
        <time>2021-04-24T12:07:37Z</time>
      </trkpt>
      <trkpt lat="43.65452" lon="3.76193">
        <ele>96</ele>
        <time>2021-04-24T12:07:40Z</time>
      </trkpt>
      <trkpt lat="43.6545" lon="3.76192">
        <ele>98</ele>
        <time>2021-04-24T12:07:42Z</time>
      </trkpt>
      <trkpt lat="43.65448" lon="3.7619">
        <ele>98</ele>
        <time>2021-04-24T12:07:44Z</time>
      </trkpt>
      <trkpt lat="43.65445" lon="3.76187">
        <ele>98</ele>
        <time>2021-04-24T12:07:46Z</time>
      </trkpt>
      <trkpt lat="43.65443" lon="3.76186">
        <ele>98</ele>
        <time>2021-04-24T12:07:47Z</time>
      </trkpt>
      <trkpt lat="43.65441" lon="3.76185">
        <ele>98</ele>
        <time>2021-04-24T12:07:48Z</time>
      </trkpt>
      <trkpt lat="43.65439" lon="3.76183">
        <ele>98</ele>
        <time>2021-04-24T12:07:49Z</time>
      </trkpt>
      <trkpt lat="43.65437" lon="3.76182">
        <ele>98</ele>
        <time>2021-04-24T12:07:50Z</time>
      </trkpt>
      <trkpt lat="43.65434" lon="3.76181">
        <ele>98</ele>
        <time>2021-04-24T12:07:51Z</time>
      </trkpt>
      <trkpt lat="43.65431" lon="3.76179">
        <ele>98</ele>
        <time>2021-04-24T12:07:52Z</time>
      </trkpt>
      <trkpt lat="43.65428" lon="3.76178">
        <ele>98</ele>
        <time>2021-04-24T12:07:53Z</time>
      </trkpt>
      <trkpt lat="43.65425" lon="3.76177">
        <ele>98</ele>
        <time>2021-04-24T12:07:54Z</time>
      </trkpt>
      <trkpt lat="43.65422" lon="3.76176">
        <ele>98</ele>
        <time>2021-04-24T12:07:55Z</time>
      </trkpt>
      <trkpt lat="43.65418" lon="3.76176">
        <ele>98</ele>
        <time>2021-04-24T12:07:56Z</time>
      </trkpt>
      <trkpt lat="43.65415" lon="3.76174">
        <ele>98</ele>
        <time>2021-04-24T12:07:57Z</time>
      </trkpt>
      <trkpt lat="43.65411" lon="3.76173">
        <ele>98</ele>
        <time>2021-04-24T12:07:58Z</time>
      </trkpt>
      <trkpt lat="43.65407" lon="3.7617">
        <ele>98</ele>
        <time>2021-04-24T12:07:59Z</time>
      </trkpt>
      <trkpt lat="43.65403" lon="3.76167">
        <ele>98</ele>
        <time>2021-04-24T12:08:00Z</time>
      </trkpt>
      <trkpt lat="43.654" lon="3.76163">
        <ele>98</ele>
        <time>2021-04-24T12:08:01Z</time>
      </trkpt>
      <trkpt lat="43.65396" lon="3.7616">
        <ele>97</ele>
        <time>2021-04-24T12:08:02Z</time>
      </trkpt>
      <trkpt lat="43.65393" lon="3.76157">
        <ele>97</ele>
        <time>2021-04-24T12:08:03Z</time>
      </trkpt>
      <trkpt lat="43.6539" lon="3.76154">
        <ele>97</ele>
        <time>2021-04-24T12:08:04Z</time>
      </trkpt>
      <trkpt lat="43.65387" lon="3.76151">
        <ele>97</ele>
        <time>2021-04-24T12:08:05Z</time>
      </trkpt>
      <trkpt lat="43.65385" lon="3.76146">
        <ele>97</ele>
        <time>2021-04-24T12:08:06Z</time>
      </trkpt>
      <trkpt lat="43.65383" lon="3.76141">
        <ele>97</ele>
        <time>2021-04-24T12:08:07Z</time>
      </trkpt>
      <trkpt lat="43.65381" lon="3.76135">
        <ele>97</ele>
        <time>2021-04-24T12:08:08Z</time>
      </trkpt>
      <trkpt lat="43.65379" lon="3.7613">
        <ele>97</ele>
        <time>2021-04-24T12:08:09Z</time>
      </trkpt>
      <trkpt lat="43.65377" lon="3.76125">
        <ele>97</ele>
        <time>2021-04-24T12:08:10Z</time>
      </trkpt>
      <trkpt lat="43.65375" lon="3.76121">
        <ele>97</ele>
        <time>2021-04-24T12:08:11Z</time>
      </trkpt>
      <trkpt lat="43.65373" lon="3.76117">
        <ele>98</ele>
        <time>2021-04-24T12:08:12Z</time>
      </trkpt>
      <trkpt lat="43.65371" lon="3.76112">
        <ele>98</ele>
        <time>2021-04-24T12:08:13Z</time>
      </trkpt>
      <trkpt lat="43.6537" lon="3.76108">
        <ele>98</ele>
        <time>2021-04-24T12:08:14Z</time>
      </trkpt>
      <trkpt lat="43.65369" lon="3.76103">
        <ele>98</ele>
        <time>2021-04-24T12:08:15Z</time>
      </trkpt>
      <trkpt lat="43.65368" lon="3.76098">
        <ele>98</ele>
        <time>2021-04-24T12:08:16Z</time>
      </trkpt>
      <trkpt lat="43.65368" lon="3.76093">
        <ele>98</ele>
        <time>2021-04-24T12:08:17Z</time>
      </trkpt>
      <trkpt lat="43.65367" lon="3.76087">
        <ele>98</ele>
        <time>2021-04-24T12:08:18Z</time>
      </trkpt>
      <trkpt lat="43.65366" lon="3.76081">
        <ele>98</ele>
        <time>2021-04-24T12:08:19Z</time>
      </trkpt>
      <trkpt lat="43.65364" lon="3.76076">
        <ele>98</ele>
        <time>2021-04-24T12:08:20Z</time>
      </trkpt>
      <trkpt lat="43.65362" lon="3.76071">
        <ele>98</ele>
        <time>2021-04-24T12:08:21Z</time>
      </trkpt>
      <trkpt lat="43.65359" lon="3.76066">
        <ele>98</ele>
        <time>2021-04-24T12:08:22Z</time>
      </trkpt>
      <trkpt lat="43.65355" lon="3.76061">
        <ele>98</ele>
        <time>2021-04-24T12:08:23Z</time>
      </trkpt>
      <trkpt lat="43.65352" lon="3.76057">
        <ele>98</ele>
        <time>2021-04-24T12:08:24Z</time>
      </trkpt>
      <trkpt lat="43.65348" lon="3.76056">
        <ele>98</ele>
        <time>2021-04-24T12:08:25Z</time>
      </trkpt>
      <trkpt lat="43.65345" lon="3.76055">
        <ele>98</ele>
        <time>2021-04-24T12:08:26Z</time>
      </trkpt>
      <trkpt lat="43.65342" lon="3.76054">
        <ele>98</ele>
        <time>2021-04-24T12:08:27Z</time>
      </trkpt>
      <trkpt lat="43.65339" lon="3.76053">
        <ele>98</ele>
        <time>2021-04-24T12:08:28Z</time>
      </trkpt>
      <trkpt lat="43.65337" lon="3.76051">
        <ele>98</ele>
        <time>2021-04-24T12:08:29Z</time>
      </trkpt>
      <trkpt lat="43.65334" lon="3.7605">
        <ele>98</ele>
        <time>2021-04-24T12:08:30Z</time>
      </trkpt>
      <trkpt lat="43.65332" lon="3.7605">
        <ele>98</ele>
        <time>2021-04-24T12:08:31Z</time>
      </trkpt>
      <trkpt lat="43.6533" lon="3.76049">
        <ele>99</ele>
        <time>2021-04-24T12:08:32Z</time>
      </trkpt>
      <trkpt lat="43.65328" lon="3.76049">
        <ele>99</ele>
        <time>2021-04-24T12:08:33Z</time>
      </trkpt>
      <trkpt lat="43.65326" lon="3.76048">
        <ele>99</ele>
        <time>2021-04-24T12:08:34Z</time>
      </trkpt>
      <trkpt lat="43.65324" lon="3.76047">
        <ele>99</ele>
        <time>2021-04-24T12:08:35Z</time>
      </trkpt>
      <trkpt lat="43.65322" lon="3.76046">
        <ele>99</ele>
        <time>2021-04-24T12:08:36Z</time>
      </trkpt>
      <trkpt lat="43.65322" lon="3.76046">
        <ele>100</ele>
        <time>2021-04-24T12:08:45Z</time>
      </trkpt>
      <trkpt lat="43.65314" lon="3.76042">
        <ele>100</ele>
        <time>2021-04-24T12:08:50Z</time>
      </trkpt>
      <trkpt lat="43.65312" lon="3.76041">
        <ele>100</ele>
        <time>2021-04-24T12:08:51Z</time>
      </trkpt>
      <trkpt lat="43.6531" lon="3.7604">
        <ele>100</ele>
        <time>2021-04-24T12:08:52Z</time>
      </trkpt>
      <trkpt lat="43.65307" lon="3.76038">
        <ele>100</ele>
        <time>2021-04-24T12:08:53Z</time>
      </trkpt>
      <trkpt lat="43.65305" lon="3.76037">
        <ele>100</ele>
        <time>2021-04-24T12:08:54Z</time>
      </trkpt>
      <trkpt lat="43.65303" lon="3.76036">
        <ele>100</ele>
        <time>2021-04-24T12:08:55Z</time>
      </trkpt>
      <trkpt lat="43.653" lon="3.76035">
        <ele>100</ele>
        <time>2021-04-24T12:08:56Z</time>
      </trkpt>
      <trkpt lat="43.65298" lon="3.76033">
        <ele>100</ele>
        <time>2021-04-24T12:08:57Z</time>
      </trkpt>
      <trkpt lat="43.65296" lon="3.76032">
        <ele>100</ele>
        <time>2021-04-24T12:08:58Z</time>
      </trkpt>
      <trkpt lat="43.65294" lon="3.76031">
        <ele>100</ele>
        <time>2021-04-24T12:08:59Z</time>
      </trkpt>
      <trkpt lat="43.65292" lon="3.76029">
        <ele>101</ele>
        <time>2021-04-24T12:09:00Z</time>
      </trkpt>
      <trkpt lat="43.6529" lon="3.76027">
        <ele>101</ele>
        <time>2021-04-24T12:09:01Z</time>
      </trkpt>
      <trkpt lat="43.65287" lon="3.76026">
        <ele>101</ele>
        <time>2021-04-24T12:09:02Z</time>
      </trkpt>
      <trkpt lat="43.65285" lon="3.76024">
        <ele>101</ele>
        <time>2021-04-24T12:09:03Z</time>
      </trkpt>
      <trkpt lat="43.65283" lon="3.76022">
        <ele>101</ele>
        <time>2021-04-24T12:09:04Z</time>
      </trkpt>
      <trkpt lat="43.65282" lon="3.76021">
        <ele>101</ele>
        <time>2021-04-24T12:09:05Z</time>
      </trkpt>
      <trkpt lat="43.6528" lon="3.76018">
        <ele>101</ele>
        <time>2021-04-24T12:09:06Z</time>
      </trkpt>
      <trkpt lat="43.65278" lon="3.76015">
        <ele>101</ele>
        <time>2021-04-24T12:09:07Z</time>
      </trkpt>
      <trkpt lat="43.65276" lon="3.76012">
        <ele>101</ele>
        <time>2021-04-24T12:09:08Z</time>
      </trkpt>
      <trkpt lat="43.65274" lon="3.76009">
        <ele>101</ele>
        <time>2021-04-24T12:09:09Z</time>
      </trkpt>
      <trkpt lat="43.65272" lon="3.76006">
        <ele>101</ele>
        <time>2021-04-24T12:09:10Z</time>
      </trkpt>
      <trkpt lat="43.6527" lon="3.76003">
        <ele>101</ele>
        <time>2021-04-24T12:09:11Z</time>
      </trkpt>
      <trkpt lat="43.65268" lon="3.76">
        <ele>101</ele>
        <time>2021-04-24T12:09:12Z</time>
      </trkpt>
      <trkpt lat="43.65266" lon="3.75997">
        <ele>101</ele>
        <time>2021-04-24T12:09:13Z</time>
      </trkpt>
      <trkpt lat="43.65264" lon="3.75995">
        <ele>101</ele>
        <time>2021-04-24T12:09:14Z</time>
      </trkpt>
      <trkpt lat="43.65263" lon="3.75992">
        <ele>101</ele>
        <time>2021-04-24T12:09:15Z</time>
      </trkpt>
      <trkpt lat="43.65261" lon="3.75989">
        <ele>101</ele>
        <time>2021-04-24T12:09:16Z</time>
      </trkpt>
      <trkpt lat="43.65259" lon="3.75986">
        <ele>101</ele>
        <time>2021-04-24T12:09:17Z</time>
      </trkpt>
      <trkpt lat="43.65257" lon="3.75982">
        <ele>101</ele>
        <time>2021-04-24T12:09:18Z</time>
      </trkpt>
      <trkpt lat="43.65256" lon="3.75978">
        <ele>101</ele>
        <time>2021-04-24T12:09:19Z</time>
      </trkpt>
      <trkpt lat="43.65254" lon="3.75973">
        <ele>101</ele>
        <time>2021-04-24T12:09:20Z</time>
      </trkpt>
      <trkpt lat="43.65251" lon="3.7597">
        <ele>101</ele>
        <time>2021-04-24T12:09:21Z</time>
      </trkpt>
      <trkpt lat="43.65248" lon="3.75968">
        <ele>101</ele>
        <time>2021-04-24T12:09:22Z</time>
      </trkpt>
      <trkpt lat="43.65247" lon="3.75968">
        <ele>101</ele>
        <time>2021-04-24T12:09:23Z</time>
      </trkpt>
      <trkpt lat="43.65244" lon="3.75971">
        <ele>101</ele>
        <time>2021-04-24T12:09:25Z</time>
      </trkpt>
      <trkpt lat="43.65242" lon="3.75974">
        <ele>101</ele>
        <time>2021-04-24T12:09:26Z</time>
      </trkpt>
      <trkpt lat="43.6524" lon="3.75977">
        <ele>101</ele>
        <time>2021-04-24T12:09:27Z</time>
      </trkpt>
      <trkpt lat="43.65238" lon="3.75979">
        <ele>101</ele>
        <time>2021-04-24T12:09:28Z</time>
      </trkpt>
      <trkpt lat="43.65236" lon="3.75982">
        <ele>101</ele>
        <time>2021-04-24T12:09:29Z</time>
      </trkpt>
      <trkpt lat="43.65235" lon="3.75984">
        <ele>101</ele>
        <time>2021-04-24T12:09:30Z</time>
      </trkpt>
      <trkpt lat="43.65233" lon="3.75987">
        <ele>101</ele>
        <time>2021-04-24T12:09:31Z</time>
      </trkpt>
      <trkpt lat="43.65231" lon="3.7599">
        <ele>101</ele>
        <time>2021-04-24T12:09:32Z</time>
      </trkpt>
      <trkpt lat="43.6523" lon="3.75993">
        <ele>101</ele>
        <time>2021-04-24T12:09:33Z</time>
      </trkpt>
      <trkpt lat="43.65228" lon="3.75996">
        <ele>101</ele>
        <time>2021-04-24T12:09:34Z</time>
      </trkpt>
      <trkpt lat="43.65226" lon="3.75999">
        <ele>101</ele>
        <time>2021-04-24T12:09:35Z</time>
      </trkpt>
      <trkpt lat="43.65224" lon="3.76001">
        <ele>101</ele>
        <time>2021-04-24T12:09:36Z</time>
      </trkpt>
      <trkpt lat="43.65223" lon="3.76004">
        <ele>101</ele>
        <time>2021-04-24T12:09:37Z</time>
      </trkpt>
      <trkpt lat="43.65221" lon="3.76006">
        <ele>101</ele>
        <time>2021-04-24T12:09:38Z</time>
      </trkpt>
      <trkpt lat="43.65219" lon="3.76009">
        <ele>101</ele>
        <time>2021-04-24T12:09:39Z</time>
      </trkpt>
      <trkpt lat="43.65218" lon="3.76011">
        <ele>103</ele>
        <time>2021-04-24T12:09:40Z</time>
      </trkpt>
      <trkpt lat="43.65217" lon="3.76014">
        <ele>103</ele>
        <time>2021-04-24T12:09:41Z</time>
      </trkpt>
      <trkpt lat="43.65216" lon="3.76017">
        <ele>103</ele>
        <time>2021-04-24T12:09:42Z</time>
      </trkpt>
      <trkpt lat="43.65215" lon="3.7602">
        <ele>103</ele>
        <time>2021-04-24T12:09:43Z</time>
      </trkpt>
      <trkpt lat="43.65214" lon="3.76022">
        <ele>103</ele>
        <time>2021-04-24T12:09:44Z</time>
      </trkpt>
      <trkpt lat="43.65212" lon="3.76026">
        <ele>103</ele>
        <time>2021-04-24T12:09:46Z</time>
      </trkpt>
      <trkpt lat="43.6521" lon="3.76027">
        <ele>103</ele>
        <time>2021-04-24T12:09:48Z</time>
      </trkpt>
      <trkpt lat="43.65209" lon="3.76024">
        <ele>105</ele>
        <time>2021-04-24T12:09:50Z</time>
      </trkpt>
      <trkpt lat="43.65206" lon="3.76021">
        <ele>105</ele>
        <time>2021-04-24T12:09:52Z</time>
      </trkpt>
      <trkpt lat="43.65205" lon="3.7602">
        <ele>105</ele>
        <time>2021-04-24T12:09:53Z</time>
      </trkpt>
      <trkpt lat="43.65203" lon="3.76018">
        <ele>105</ele>
        <time>2021-04-24T12:09:54Z</time>
      </trkpt>
      <trkpt lat="43.65201" lon="3.76017">
        <ele>105</ele>
        <time>2021-04-24T12:09:55Z</time>
      </trkpt>
      <trkpt lat="43.65199" lon="3.76013">
        <ele>105</ele>
        <time>2021-04-24T12:09:57Z</time>
      </trkpt>
      <trkpt lat="43.65198" lon="3.76012">
        <ele>105</ele>
        <time>2021-04-24T12:09:58Z</time>
      </trkpt>
      <trkpt lat="43.65196" lon="3.7601">
        <ele>105</ele>
        <time>2021-04-24T12:09:59Z</time>
      </trkpt>
      <trkpt lat="43.65195" lon="3.76008">
        <ele>107</ele>
        <time>2021-04-24T12:10:00Z</time>
      </trkpt>
      <trkpt lat="43.65193" lon="3.76006">
        <ele>107</ele>
        <time>2021-04-24T12:10:01Z</time>
      </trkpt>
      <trkpt lat="43.65192" lon="3.76005">
        <ele>107</ele>
        <time>2021-04-24T12:10:02Z</time>
      </trkpt>
      <trkpt lat="43.6519" lon="3.76003">
        <ele>107</ele>
        <time>2021-04-24T12:10:03Z</time>
      </trkpt>
      <trkpt lat="43.65188" lon="3.76002">
        <ele>107</ele>
        <time>2021-04-24T12:10:04Z</time>
      </trkpt>
      <trkpt lat="43.65186" lon="3.76">
        <ele>107</ele>
        <time>2021-04-24T12:10:05Z</time>
      </trkpt>
      <trkpt lat="43.65184" lon="3.75999">
        <ele>107</ele>
        <time>2021-04-24T12:10:06Z</time>
      </trkpt>
      <trkpt lat="43.65181" lon="3.75998">
        <ele>107</ele>
        <time>2021-04-24T12:10:07Z</time>
      </trkpt>
      <trkpt lat="43.6518" lon="3.75997">
        <ele>107</ele>
        <time>2021-04-24T12:10:08Z</time>
      </trkpt>
      <trkpt lat="43.65178" lon="3.75995">
        <ele>107</ele>
        <time>2021-04-24T12:10:09Z</time>
      </trkpt>
      <trkpt lat="43.65176" lon="3.75994">
        <ele>109</ele>
        <time>2021-04-24T12:10:10Z</time>
      </trkpt>
      <trkpt lat="43.65174" lon="3.75992">
        <ele>109</ele>
        <time>2021-04-24T12:10:11Z</time>
      </trkpt>
      <trkpt lat="43.65171" lon="3.75989">
        <ele>109</ele>
        <time>2021-04-24T12:10:12Z</time>
      </trkpt>
      <trkpt lat="43.65169" lon="3.75987">
        <ele>109</ele>
        <time>2021-04-24T12:10:13Z</time>
      </trkpt>
      <trkpt lat="43.65167" lon="3.75985">
        <ele>109</ele>
        <time>2021-04-24T12:10:14Z</time>
      </trkpt>
      <trkpt lat="43.65164" lon="3.75982">
        <ele>109</ele>
        <time>2021-04-24T12:10:15Z</time>
      </trkpt>
      <trkpt lat="43.65161" lon="3.75979">
        <ele>109</ele>
        <time>2021-04-24T12:10:16Z</time>
      </trkpt>
      <trkpt lat="43.65158" lon="3.75976">
        <ele>109</ele>
        <time>2021-04-24T12:10:17Z</time>
      </trkpt>
      <trkpt lat="43.65155" lon="3.75973">
        <ele>109</ele>
        <time>2021-04-24T12:10:18Z</time>
      </trkpt>
      <trkpt lat="43.65152" lon="3.7597">
        <ele>109</ele>
        <time>2021-04-24T12:10:19Z</time>
      </trkpt>
      <trkpt lat="43.6515" lon="3.75967">
        <ele>110</ele>
        <time>2021-04-24T12:10:20Z</time>
      </trkpt>
      <trkpt lat="43.65147" lon="3.75964">
        <ele>110</ele>
        <time>2021-04-24T12:10:21Z</time>
      </trkpt>
      <trkpt lat="43.65145" lon="3.75961">
        <ele>110</ele>
        <time>2021-04-24T12:10:22Z</time>
      </trkpt>
      <trkpt lat="43.65142" lon="3.75957">
        <ele>110</ele>
        <time>2021-04-24T12:10:23Z</time>
      </trkpt>
      <trkpt lat="43.6514" lon="3.75954">
        <ele>110</ele>
        <time>2021-04-24T12:10:24Z</time>
      </trkpt>
      <trkpt lat="43.65138" lon="3.75951">
        <ele>110</ele>
        <time>2021-04-24T12:10:25Z</time>
      </trkpt>
      <trkpt lat="43.65135" lon="3.75948">
        <ele>110</ele>
        <time>2021-04-24T12:10:26Z</time>
      </trkpt>
      <trkpt lat="43.65133" lon="3.75945">
        <ele>110</ele>
        <time>2021-04-24T12:10:27Z</time>
      </trkpt>
      <trkpt lat="43.6513" lon="3.75942">
        <ele>110</ele>
        <time>2021-04-24T12:10:28Z</time>
      </trkpt>
      <trkpt lat="43.65128" lon="3.7594">
        <ele>110</ele>
        <time>2021-04-24T12:10:29Z</time>
      </trkpt>
      <trkpt lat="43.65126" lon="3.75937">
        <ele>112</ele>
        <time>2021-04-24T12:10:30Z</time>
      </trkpt>
      <trkpt lat="43.65123" lon="3.75935">
        <ele>112</ele>
        <time>2021-04-24T12:10:31Z</time>
      </trkpt>
      <trkpt lat="43.65121" lon="3.75932">
        <ele>112</ele>
        <time>2021-04-24T12:10:32Z</time>
      </trkpt>
      <trkpt lat="43.65118" lon="3.75929">
        <ele>112</ele>
        <time>2021-04-24T12:10:33Z</time>
      </trkpt>
      <trkpt lat="43.65116" lon="3.75927">
        <ele>112</ele>
        <time>2021-04-24T12:10:34Z</time>
      </trkpt>
      <trkpt lat="43.65114" lon="3.75924">
        <ele>112</ele>
        <time>2021-04-24T12:10:35Z</time>
      </trkpt>
      <trkpt lat="43.65112" lon="3.75921">
        <ele>112</ele>
        <time>2021-04-24T12:10:36Z</time>
      </trkpt>
      <trkpt lat="43.6511" lon="3.75918">
        <ele>112</ele>
        <time>2021-04-24T12:10:37Z</time>
      </trkpt>
      <trkpt lat="43.65107" lon="3.75914">
        <ele>112</ele>
        <time>2021-04-24T12:10:38Z</time>
      </trkpt>
      <trkpt lat="43.65105" lon="3.75911">
        <ele>112</ele>
        <time>2021-04-24T12:10:39Z</time>
      </trkpt>
      <trkpt lat="43.65103" lon="3.75906">
        <ele>112</ele>
        <time>2021-04-24T12:10:40Z</time>
      </trkpt>
      <trkpt lat="43.65102" lon="3.75901">
        <ele>112</ele>
        <time>2021-04-24T12:10:41Z</time>
      </trkpt>
      <trkpt lat="43.65102" lon="3.75897">
        <ele>112</ele>
        <time>2021-04-24T12:10:42Z</time>
      </trkpt>
      <trkpt lat="43.65104" lon="3.75893">
        <ele>112</ele>
        <time>2021-04-24T12:10:43Z</time>
      </trkpt>
      <trkpt lat="43.65106" lon="3.7589">
        <ele>112</ele>
        <time>2021-04-24T12:10:44Z</time>
      </trkpt>
      <trkpt lat="43.6511" lon="3.75887">
        <ele>112</ele>
        <time>2021-04-24T12:10:45Z</time>
      </trkpt>
      <trkpt lat="43.65113" lon="3.75883">
        <ele>112</ele>
        <time>2021-04-24T12:10:46Z</time>
      </trkpt>
      <trkpt lat="43.65117" lon="3.7588">
        <ele>112</ele>
        <time>2021-04-24T12:10:47Z</time>
      </trkpt>
      <trkpt lat="43.6512" lon="3.75878">
        <ele>112</ele>
        <time>2021-04-24T12:10:48Z</time>
      </trkpt>
      <trkpt lat="43.65121" lon="3.75875">
        <ele>112</ele>
        <time>2021-04-24T12:10:49Z</time>
      </trkpt>
      <trkpt lat="43.65122" lon="3.75873">
        <ele>112</ele>
        <time>2021-04-24T12:10:51Z</time>
      </trkpt>
      <trkpt lat="43.6512" lon="3.75874">
        <ele>112</ele>
        <time>2021-04-24T12:10:56Z</time>
      </trkpt>
      <trkpt lat="43.6512" lon="3.75874">
        <ele>110</ele>
        <time>2021-04-24T12:10:59Z</time>
      </trkpt>
      <trkpt lat="43.6513" lon="3.75874">
        <ele>111</ele>
        <time>2021-04-24T12:11:34Z</time>
      </trkpt>
      <trkpt lat="43.65134" lon="3.75874">
        <ele>111</ele>
        <time>2021-04-24T12:11:35Z</time>
      </trkpt>
      <trkpt lat="43.65138" lon="3.75873">
        <ele>111</ele>
        <time>2021-04-24T12:11:36Z</time>
      </trkpt>
      <trkpt lat="43.65142" lon="3.75873">
        <ele>111</ele>
        <time>2021-04-24T12:11:37Z</time>
      </trkpt>
      <trkpt lat="43.65146" lon="3.75874">
        <ele>111</ele>
        <time>2021-04-24T12:11:38Z</time>
      </trkpt>
      <trkpt lat="43.65151" lon="3.75875">
        <ele>111</ele>
        <time>2021-04-24T12:11:39Z</time>
      </trkpt>
      <trkpt lat="43.65155" lon="3.75877">
        <ele>111</ele>
        <time>2021-04-24T12:11:40Z</time>
      </trkpt>
      <trkpt lat="43.65158" lon="3.75878">
        <ele>111</ele>
        <time>2021-04-24T12:11:41Z</time>
      </trkpt>
      <trkpt lat="43.65162" lon="3.75879">
        <ele>111</ele>
        <time>2021-04-24T12:11:42Z</time>
      </trkpt>
      <trkpt lat="43.65166" lon="3.75881">
        <ele>111</ele>
        <time>2021-04-24T12:11:43Z</time>
      </trkpt>
      <trkpt lat="43.6517" lon="3.75883">
        <ele>107</ele>
        <time>2021-04-24T12:11:44Z</time>
      </trkpt>
      <trkpt lat="43.65173" lon="3.75884">
        <ele>107</ele>
        <time>2021-04-24T12:11:45Z</time>
      </trkpt>
      <trkpt lat="43.65176" lon="3.75885">
        <ele>107</ele>
        <time>2021-04-24T12:11:46Z</time>
      </trkpt>
      <trkpt lat="43.6518" lon="3.75887">
        <ele>107</ele>
        <time>2021-04-24T12:11:47Z</time>
      </trkpt>
      <trkpt lat="43.65184" lon="3.75888">
        <ele>107</ele>
        <time>2021-04-24T12:11:48Z</time>
      </trkpt>
      <trkpt lat="43.65187" lon="3.7589">
        <ele>107</ele>
        <time>2021-04-24T12:11:49Z</time>
      </trkpt>
      <trkpt lat="43.65191" lon="3.75891">
        <ele>107</ele>
        <time>2021-04-24T12:11:50Z</time>
      </trkpt>
      <trkpt lat="43.65194" lon="3.75893">
        <ele>107</ele>
        <time>2021-04-24T12:11:51Z</time>
      </trkpt>
      <trkpt lat="43.65197" lon="3.75895">
        <ele>107</ele>
        <time>2021-04-24T12:11:52Z</time>
      </trkpt>
      <trkpt lat="43.652" lon="3.75897">
        <ele>107</ele>
        <time>2021-04-24T12:11:53Z</time>
      </trkpt>
      <trkpt lat="43.65203" lon="3.759">
        <ele>106</ele>
        <time>2021-04-24T12:11:54Z</time>
      </trkpt>
      <trkpt lat="43.65205" lon="3.75903">
        <ele>106</ele>
        <time>2021-04-24T12:11:55Z</time>
      </trkpt>
      <trkpt lat="43.65208" lon="3.75906">
        <ele>106</ele>
        <time>2021-04-24T12:11:56Z</time>
      </trkpt>
      <trkpt lat="43.65211" lon="3.75909">
        <ele>106</ele>
        <time>2021-04-24T12:11:57Z</time>
      </trkpt>
      <trkpt lat="43.65213" lon="3.75913">
        <ele>106</ele>
        <time>2021-04-24T12:11:58Z</time>
      </trkpt>
      <trkpt lat="43.65216" lon="3.75917">
        <ele>106</ele>
        <time>2021-04-24T12:11:59Z</time>
      </trkpt>
      <trkpt lat="43.65219" lon="3.75921">
        <ele>106</ele>
        <time>2021-04-24T12:12:00Z</time>
      </trkpt>
      <trkpt lat="43.65222" lon="3.75924">
        <ele>106</ele>
        <time>2021-04-24T12:12:01Z</time>
      </trkpt>
      <trkpt lat="43.65225" lon="3.75928">
        <ele>106</ele>
        <time>2021-04-24T12:12:02Z</time>
      </trkpt>
      <trkpt lat="43.65228" lon="3.75932">
        <ele>106</ele>
        <time>2021-04-24T12:12:03Z</time>
      </trkpt>
      <trkpt lat="43.6523" lon="3.75936">
        <ele>105</ele>
        <time>2021-04-24T12:12:04Z</time>
      </trkpt>
      <trkpt lat="43.65233" lon="3.7594">
        <ele>105</ele>
        <time>2021-04-24T12:12:05Z</time>
      </trkpt>
      <trkpt lat="43.65235" lon="3.75944">
        <ele>105</ele>
        <time>2021-04-24T12:12:06Z</time>
      </trkpt>
      <trkpt lat="43.65238" lon="3.75947">
        <ele>105</ele>
        <time>2021-04-24T12:12:07Z</time>
      </trkpt>
      <trkpt lat="43.6524" lon="3.75951">
        <ele>105</ele>
        <time>2021-04-24T12:12:08Z</time>
      </trkpt>
      <trkpt lat="43.65242" lon="3.75955">
        <ele>105</ele>
        <time>2021-04-24T12:12:09Z</time>
      </trkpt>
      <trkpt lat="43.65244" lon="3.75958">
        <ele>105</ele>
        <time>2021-04-24T12:12:10Z</time>
      </trkpt>
      <trkpt lat="43.65246" lon="3.75961">
        <ele>105</ele>
        <time>2021-04-24T12:12:11Z</time>
      </trkpt>
      <trkpt lat="43.65248" lon="3.75963">
        <ele>105</ele>
        <time>2021-04-24T12:12:12Z</time>
      </trkpt>
      <trkpt lat="43.6525" lon="3.75965">
        <ele>105</ele>
        <time>2021-04-24T12:12:13Z</time>
      </trkpt>
      <trkpt lat="43.65251" lon="3.75967">
        <ele>105</ele>
        <time>2021-04-24T12:12:15Z</time>
      </trkpt>
      <trkpt lat="43.65243" lon="3.75975">
        <ele>106</ele>
        <time>2021-04-24T12:12:32Z</time>
      </trkpt>
      <trkpt lat="43.65242" lon="3.75977">
        <ele>106</ele>
        <time>2021-04-24T12:12:33Z</time>
      </trkpt>
      <trkpt lat="43.65239" lon="3.75979">
        <ele>106</ele>
        <time>2021-04-24T12:12:34Z</time>
      </trkpt>
      <trkpt lat="43.65237" lon="3.75982">
        <ele>106</ele>
        <time>2021-04-24T12:12:35Z</time>
      </trkpt>
      <trkpt lat="43.65235" lon="3.75985">
        <ele>106</ele>
        <time>2021-04-24T12:12:36Z</time>
      </trkpt>
      <trkpt lat="43.65233" lon="3.75988">
        <ele>106</ele>
        <time>2021-04-24T12:12:37Z</time>
      </trkpt>
      <trkpt lat="43.65232" lon="3.75991">
        <ele>106</ele>
        <time>2021-04-24T12:12:38Z</time>
      </trkpt>
      <trkpt lat="43.6523" lon="3.75994">
        <ele>106</ele>
        <time>2021-04-24T12:12:39Z</time>
      </trkpt>
      <trkpt lat="43.65228" lon="3.75997">
        <ele>106</ele>
        <time>2021-04-24T12:12:40Z</time>
      </trkpt>
      <trkpt lat="43.65226" lon="3.76">
        <ele>106</ele>
        <time>2021-04-24T12:12:41Z</time>
      </trkpt>
      <trkpt lat="43.65224" lon="3.76003">
        <ele>106</ele>
        <time>2021-04-24T12:12:42Z</time>
      </trkpt>
      <trkpt lat="43.65222" lon="3.76006">
        <ele>106</ele>
        <time>2021-04-24T12:12:43Z</time>
      </trkpt>
      <trkpt lat="43.6522" lon="3.76008">
        <ele>106</ele>
        <time>2021-04-24T12:12:44Z</time>
      </trkpt>
      <trkpt lat="43.65218" lon="3.76011">
        <ele>106</ele>
        <time>2021-04-24T12:12:45Z</time>
      </trkpt>
      <trkpt lat="43.65217" lon="3.76015">
        <ele>106</ele>
        <time>2021-04-24T12:12:46Z</time>
      </trkpt>
      <trkpt lat="43.65215" lon="3.76018">
        <ele>106</ele>
        <time>2021-04-24T12:12:47Z</time>
      </trkpt>
      <trkpt lat="43.65214" lon="3.76022">
        <ele>106</ele>
        <time>2021-04-24T12:12:48Z</time>
      </trkpt>
      <trkpt lat="43.65213" lon="3.76026">
        <ele>106</ele>
        <time>2021-04-24T12:12:49Z</time>
      </trkpt>
      <trkpt lat="43.65211" lon="3.76029">
        <ele>106</ele>
        <time>2021-04-24T12:12:50Z</time>
      </trkpt>
      <trkpt lat="43.65211" lon="3.76032">
        <ele>106</ele>
        <time>2021-04-24T12:12:51Z</time>
      </trkpt>
      <trkpt lat="43.6521" lon="3.76035">
        <ele>106</ele>
        <time>2021-04-24T12:12:52Z</time>
      </trkpt>
      <trkpt lat="43.6521" lon="3.76037">
        <ele>106</ele>
        <time>2021-04-24T12:12:53Z</time>
      </trkpt>
      <trkpt lat="43.6521" lon="3.7604">
        <ele>106</ele>
        <time>2021-04-24T12:12:54Z</time>
      </trkpt>
      <trkpt lat="43.6521" lon="3.76043">
        <ele>106</ele>
        <time>2021-04-24T12:12:55Z</time>
      </trkpt>
      <trkpt lat="43.65209" lon="3.76046">
        <ele>106</ele>
        <time>2021-04-24T12:12:56Z</time>
      </trkpt>
      <trkpt lat="43.65209" lon="3.76049">
        <ele>106</ele>
        <time>2021-04-24T12:12:57Z</time>
      </trkpt>
      <trkpt lat="43.65208" lon="3.76053">
        <ele>106</ele>
        <time>2021-04-24T12:12:59Z</time>
      </trkpt>
      <trkpt lat="43.65208" lon="3.76055">
        <ele>106</ele>
        <time>2021-04-24T12:13:01Z</time>
      </trkpt>
      <trkpt lat="43.65209" lon="3.76058">
        <ele>106</ele>
        <time>2021-04-24T12:13:04Z</time>
      </trkpt>
      <trkpt lat="43.65213" lon="3.76066">
        <ele>109</ele>
        <time>2021-04-24T12:13:16Z</time>
      </trkpt>
      <trkpt lat="43.65214" lon="3.76068">
        <ele>109</ele>
        <time>2021-04-24T12:13:17Z</time>
      </trkpt>
      <trkpt lat="43.65215" lon="3.7607">
        <ele>109</ele>
        <time>2021-04-24T12:13:18Z</time>
      </trkpt>
      <trkpt lat="43.65217" lon="3.76071">
        <ele>109</ele>
        <time>2021-04-24T12:13:19Z</time>
      </trkpt>
      <trkpt lat="43.65219" lon="3.76075">
        <ele>109</ele>
        <time>2021-04-24T12:13:21Z</time>
      </trkpt>
      <trkpt lat="43.65221" lon="3.76077">
        <ele>109</ele>
        <time>2021-04-24T12:13:22Z</time>
      </trkpt>
      <trkpt lat="43.65222" lon="3.76079">
        <ele>109</ele>
        <time>2021-04-24T12:13:23Z</time>
      </trkpt>
      <trkpt lat="43.65224" lon="3.76081">
        <ele>109</ele>
        <time>2021-04-24T12:13:24Z</time>
      </trkpt>
      <trkpt lat="43.65226" lon="3.76082">
        <ele>109</ele>
        <time>2021-04-24T12:13:25Z</time>
      </trkpt>
      <trkpt lat="43.65228" lon="3.76086">
        <ele>109</ele>
        <time>2021-04-24T12:13:27Z</time>
      </trkpt>
      <trkpt lat="43.6523" lon="3.76088">
        <ele>109</ele>
        <time>2021-04-24T12:13:29Z</time>
      </trkpt>
      <trkpt lat="43.65232" lon="3.76091">
        <ele>109</ele>
        <time>2021-04-24T12:13:31Z</time>
      </trkpt>
      <trkpt lat="43.65235" lon="3.76094">
        <ele>109</ele>
        <time>2021-04-24T12:13:33Z</time>
      </trkpt>
      <trkpt lat="43.65237" lon="3.76097">
        <ele>109</ele>
        <time>2021-04-24T12:13:35Z</time>
      </trkpt>
      <trkpt lat="43.6524" lon="3.76099">
        <ele>109</ele>
        <time>2021-04-24T12:13:37Z</time>
      </trkpt>
      <trkpt lat="43.65241" lon="3.761">
        <ele>109</ele>
        <time>2021-04-24T12:13:38Z</time>
      </trkpt>
      <trkpt lat="43.65244" lon="3.76101">
        <ele>109</ele>
        <time>2021-04-24T12:13:40Z</time>
      </trkpt>
      <trkpt lat="43.65246" lon="3.76103">
        <ele>109</ele>
        <time>2021-04-24T12:13:42Z</time>
      </trkpt>
      <trkpt lat="43.65248" lon="3.76105">
        <ele>109</ele>
        <time>2021-04-24T12:13:44Z</time>
      </trkpt>
      <trkpt lat="43.65251" lon="3.76106">
        <ele>115</ele>
        <time>2021-04-24T12:13:46Z</time>
      </trkpt>
      <trkpt lat="43.65253" lon="3.76109">
        <ele>115</ele>
        <time>2021-04-24T12:13:48Z</time>
      </trkpt>
      <trkpt lat="43.65255" lon="3.76111">
        <ele>115</ele>
        <time>2021-04-24T12:13:50Z</time>
      </trkpt>
      <trkpt lat="43.65257" lon="3.76115">
        <ele>115</ele>
        <time>2021-04-24T12:13:52Z</time>
      </trkpt>
      <trkpt lat="43.65258" lon="3.76118">
        <ele>115</ele>
        <time>2021-04-24T12:13:54Z</time>
      </trkpt>
      <trkpt lat="43.65259" lon="3.76123">
        <ele>117</ele>
        <time>2021-04-24T12:13:56Z</time>
      </trkpt>
      <trkpt lat="43.65259" lon="3.76125">
        <ele>117</ele>
        <time>2021-04-24T12:13:57Z</time>
      </trkpt>
      <trkpt lat="43.6526" lon="3.76128">
        <ele>117</ele>
        <time>2021-04-24T12:13:58Z</time>
      </trkpt>
      <trkpt lat="43.65262" lon="3.7613">
        <ele>117</ele>
        <time>2021-04-24T12:14:00Z</time>
      </trkpt>
      <trkpt lat="43.65264" lon="3.76133">
        <ele>117</ele>
        <time>2021-04-24T12:14:02Z</time>
      </trkpt>
      <trkpt lat="43.65266" lon="3.76132">
        <ele>117</ele>
        <time>2021-04-24T12:14:08Z</time>
      </trkpt>
      <trkpt lat="43.65271" lon="3.76138">
        <ele>118</ele>
        <time>2021-04-24T12:14:16Z</time>
      </trkpt>
      <trkpt lat="43.65275" lon="3.76143">
        <ele>118</ele>
        <time>2021-04-24T12:14:17Z</time>
      </trkpt>
      <trkpt lat="43.65278" lon="3.76146">
        <ele>118</ele>
        <time>2021-04-24T12:14:18Z</time>
      </trkpt>
      <trkpt lat="43.6528" lon="3.76148">
        <ele>118</ele>
        <time>2021-04-24T12:14:19Z</time>
      </trkpt>
      <trkpt lat="43.65281" lon="3.76152">
        <ele>118</ele>
        <time>2021-04-24T12:14:20Z</time>
      </trkpt>
      <trkpt lat="43.65282" lon="3.76156">
        <ele>118</ele>
        <time>2021-04-24T12:14:21Z</time>
      </trkpt>
      <trkpt lat="43.65285" lon="3.76161">
        <ele>118</ele>
        <time>2021-04-24T12:14:22Z</time>
      </trkpt>
      <trkpt lat="43.65288" lon="3.76165">
        <ele>118</ele>
        <time>2021-04-24T12:14:23Z</time>
      </trkpt>
      <trkpt lat="43.65292" lon="3.76169">
        <ele>118</ele>
        <time>2021-04-24T12:14:24Z</time>
      </trkpt>
      <trkpt lat="43.65297" lon="3.76173">
        <ele>118</ele>
        <time>2021-04-24T12:14:25Z</time>
      </trkpt>
      <trkpt lat="43.653" lon="3.76176">
        <ele>119</ele>
        <time>2021-04-24T12:14:26Z</time>
      </trkpt>
      <trkpt lat="43.65303" lon="3.76179">
        <ele>119</ele>
        <time>2021-04-24T12:14:27Z</time>
      </trkpt>
      <trkpt lat="43.65305" lon="3.76182">
        <ele>119</ele>
        <time>2021-04-24T12:14:28Z</time>
      </trkpt>
      <trkpt lat="43.65306" lon="3.76185">
        <ele>119</ele>
        <time>2021-04-24T12:14:29Z</time>
      </trkpt>
      <trkpt lat="43.65307" lon="3.76187">
        <ele>119</ele>
        <time>2021-04-24T12:14:30Z</time>
      </trkpt>
      <trkpt lat="43.65307" lon="3.7619">
        <ele>119</ele>
        <time>2021-04-24T12:14:31Z</time>
      </trkpt>
      <trkpt lat="43.65307" lon="3.76192">
        <ele>119</ele>
        <time>2021-04-24T12:14:32Z</time>
      </trkpt>
      <trkpt lat="43.65307" lon="3.76197">
        <ele>119</ele>
        <time>2021-04-24T12:14:34Z</time>
      </trkpt>
      <trkpt lat="43.65308" lon="3.76202">
        <ele>120</ele>
        <time>2021-04-24T12:14:36Z</time>
      </trkpt>
      <trkpt lat="43.65309" lon="3.76205">
        <ele>120</ele>
        <time>2021-04-24T12:14:37Z</time>
      </trkpt>
      <trkpt lat="43.6531" lon="3.76207">
        <ele>120</ele>
        <time>2021-04-24T12:14:38Z</time>
      </trkpt>
      <trkpt lat="43.6531" lon="3.76209">
        <ele>120</ele>
        <time>2021-04-24T12:14:39Z</time>
      </trkpt>
      <trkpt lat="43.65309" lon="3.76214">
        <ele>120</ele>
        <time>2021-04-24T12:14:41Z</time>
      </trkpt>
      <trkpt lat="43.65308" lon="3.76217">
        <ele>120</ele>
        <time>2021-04-24T12:14:43Z</time>
      </trkpt>
      <trkpt lat="43.65307" lon="3.76221">
        <ele>120</ele>
        <time>2021-04-24T12:14:45Z</time>
      </trkpt>
      <trkpt lat="43.65306" lon="3.76223">
        <ele>122</ele>
        <time>2021-04-24T12:14:46Z</time>
      </trkpt>
      <trkpt lat="43.65305" lon="3.76226">
        <ele>122</ele>
        <time>2021-04-24T12:14:47Z</time>
      </trkpt>
      <trkpt lat="43.65303" lon="3.76229">
        <ele>122</ele>
        <time>2021-04-24T12:14:48Z</time>
      </trkpt>
      <trkpt lat="43.65301" lon="3.76232">
        <ele>122</ele>
        <time>2021-04-24T12:14:50Z</time>
      </trkpt>
      <trkpt lat="43.653" lon="3.76236">
        <ele>122</ele>
        <time>2021-04-24T12:14:52Z</time>
      </trkpt>
      <trkpt lat="43.65301" lon="3.76239">
        <ele>122</ele>
        <time>2021-04-24T12:14:55Z</time>
      </trkpt>
      <trkpt lat="43.65303" lon="3.76241">
        <ele>122</ele>
        <time>2021-04-24T12:14:58Z</time>
      </trkpt>
      <trkpt lat="43.65306" lon="3.76243">
        <ele>122</ele>
        <time>2021-04-24T12:15:00Z</time>
      </trkpt>
      <trkpt lat="43.65308" lon="3.76244">
        <ele>122</ele>
        <time>2021-04-24T12:15:02Z</time>
      </trkpt>
      <trkpt lat="43.65311" lon="3.76246">
        <ele>122</ele>
        <time>2021-04-24T12:15:04Z</time>
      </trkpt>
      <trkpt lat="43.65313" lon="3.76248">
        <ele>122</ele>
        <time>2021-04-24T12:15:05Z</time>
      </trkpt>
      <trkpt lat="43.65316" lon="3.7625">
        <ele>123</ele>
        <time>2021-04-24T12:15:06Z</time>
      </trkpt>
      <trkpt lat="43.65318" lon="3.76254">
        <ele>123</ele>
        <time>2021-04-24T12:15:07Z</time>
      </trkpt>
      <trkpt lat="43.65319" lon="3.76259">
        <ele>123</ele>
        <time>2021-04-24T12:15:08Z</time>
      </trkpt>
      <trkpt lat="43.6532" lon="3.76263">
        <ele>123</ele>
        <time>2021-04-24T12:15:09Z</time>
      </trkpt>
      <trkpt lat="43.6532" lon="3.76268">
        <ele>123</ele>
        <time>2021-04-24T12:15:10Z</time>
      </trkpt>
      <trkpt lat="43.6532" lon="3.76272">
        <ele>123</ele>
        <time>2021-04-24T12:15:11Z</time>
      </trkpt>
      <trkpt lat="43.65321" lon="3.76278">
        <ele>123</ele>
        <time>2021-04-24T12:15:12Z</time>
      </trkpt>
      <trkpt lat="43.65321" lon="3.76284">
        <ele>123</ele>
        <time>2021-04-24T12:15:13Z</time>
      </trkpt>
      <trkpt lat="43.65322" lon="3.7629">
        <ele>123</ele>
        <time>2021-04-24T12:15:14Z</time>
      </trkpt>
      <trkpt lat="43.65324" lon="3.76296">
        <ele>123</ele>
        <time>2021-04-24T12:15:15Z</time>
      </trkpt>
      <trkpt lat="43.65326" lon="3.76302">
        <ele>123</ele>
        <time>2021-04-24T12:15:16Z</time>
      </trkpt>
      <trkpt lat="43.65328" lon="3.76307">
        <ele>123</ele>
        <time>2021-04-24T12:15:17Z</time>
      </trkpt>
      <trkpt lat="43.65332" lon="3.76313">
        <ele>123</ele>
        <time>2021-04-24T12:15:18Z</time>
      </trkpt>
      <trkpt lat="43.65336" lon="3.76319">
        <ele>123</ele>
        <time>2021-04-24T12:15:19Z</time>
      </trkpt>
      <trkpt lat="43.6534" lon="3.76323">
        <ele>123</ele>
        <time>2021-04-24T12:15:20Z</time>
      </trkpt>
      <trkpt lat="43.65345" lon="3.76327">
        <ele>123</ele>
        <time>2021-04-24T12:15:21Z</time>
      </trkpt>
      <trkpt lat="43.65349" lon="3.7633">
        <ele>123</ele>
        <time>2021-04-24T12:15:22Z</time>
      </trkpt>
      <trkpt lat="43.65354" lon="3.76333">
        <ele>123</ele>
        <time>2021-04-24T12:15:23Z</time>
      </trkpt>
      <trkpt lat="43.65358" lon="3.76335">
        <ele>123</ele>
        <time>2021-04-24T12:15:24Z</time>
      </trkpt>
      <trkpt lat="43.65362" lon="3.76336">
        <ele>123</ele>
        <time>2021-04-24T12:15:25Z</time>
      </trkpt>
      <trkpt lat="43.65366" lon="3.76338">
        <ele>121</ele>
        <time>2021-04-24T12:15:26Z</time>
      </trkpt>
      <trkpt lat="43.6537" lon="3.76339">
        <ele>121</ele>
        <time>2021-04-24T12:15:27Z</time>
      </trkpt>
      <trkpt lat="43.65374" lon="3.76341">
        <ele>121</ele>
        <time>2021-04-24T12:15:28Z</time>
      </trkpt>
      <trkpt lat="43.65376" lon="3.76343">
        <ele>121</ele>
        <time>2021-04-24T12:15:29Z</time>
      </trkpt>
      <trkpt lat="43.65378" lon="3.76345">
        <ele>121</ele>
        <time>2021-04-24T12:15:30Z</time>
      </trkpt>
      <trkpt lat="43.6538" lon="3.76347">
        <ele>121</ele>
        <time>2021-04-24T12:15:31Z</time>
      </trkpt>
      <trkpt lat="43.65383" lon="3.7635">
        <ele>121</ele>
        <time>2021-04-24T12:15:33Z</time>
      </trkpt>
      <trkpt lat="43.65386" lon="3.76351">
        <ele>121</ele>
        <time>2021-04-24T12:15:35Z</time>
      </trkpt>
      <trkpt lat="43.65388" lon="3.76351">
        <ele>119</ele>
        <time>2021-04-24T12:15:36Z</time>
      </trkpt>
      <trkpt lat="43.6539" lon="3.76351">
        <ele>119</ele>
        <time>2021-04-24T12:15:37Z</time>
      </trkpt>
      <trkpt lat="43.65393" lon="3.76351">
        <ele>119</ele>
        <time>2021-04-24T12:15:38Z</time>
      </trkpt>
      <trkpt lat="43.65395" lon="3.76351">
        <ele>119</ele>
        <time>2021-04-24T12:15:39Z</time>
      </trkpt>
      <trkpt lat="43.65397" lon="3.76351">
        <ele>119</ele>
        <time>2021-04-24T12:15:40Z</time>
      </trkpt>
      <trkpt lat="43.65399" lon="3.76352">
        <ele>119</ele>
        <time>2021-04-24T12:15:41Z</time>
      </trkpt>
      <trkpt lat="43.65401" lon="3.76352">
        <ele>119</ele>
        <time>2021-04-24T12:15:42Z</time>
      </trkpt>
      <trkpt lat="43.65404" lon="3.76352">
        <ele>119</ele>
        <time>2021-04-24T12:15:43Z</time>
      </trkpt>
      <trkpt lat="43.65406" lon="3.76353">
        <ele>119</ele>
        <time>2021-04-24T12:15:44Z</time>
      </trkpt>
      <trkpt lat="43.65408" lon="3.76353">
        <ele>119</ele>
        <time>2021-04-24T12:15:45Z</time>
      </trkpt>
      <trkpt lat="43.6541" lon="3.76355">
        <ele>119</ele>
        <time>2021-04-24T12:15:47Z</time>
      </trkpt>
      <trkpt lat="43.65414" lon="3.76355">
        <ele>119</ele>
        <time>2021-04-24T12:15:49Z</time>
      </trkpt>
      <trkpt lat="43.65417" lon="3.76356">
        <ele>119</ele>
        <time>2021-04-24T12:15:50Z</time>
      </trkpt>
      <trkpt lat="43.65419" lon="3.76357">
        <ele>119</ele>
        <time>2021-04-24T12:15:51Z</time>
      </trkpt>
      <trkpt lat="43.65422" lon="3.76359">
        <ele>119</ele>
        <time>2021-04-24T12:15:52Z</time>
      </trkpt>
      <trkpt lat="43.65425" lon="3.76361">
        <ele>119</ele>
        <time>2021-04-24T12:15:53Z</time>
      </trkpt>
      <trkpt lat="43.65427" lon="3.76365">
        <ele>119</ele>
        <time>2021-04-24T12:15:54Z</time>
      </trkpt>
      <trkpt lat="43.65429" lon="3.76368">
        <ele>119</ele>
        <time>2021-04-24T12:15:55Z</time>
      </trkpt>
      <trkpt lat="43.65431" lon="3.76371">
        <ele>119</ele>
        <time>2021-04-24T12:15:56Z</time>
      </trkpt>
      <trkpt lat="43.65434" lon="3.76377">
        <ele>119</ele>
        <time>2021-04-24T12:15:57Z</time>
      </trkpt>
      <trkpt lat="43.65434" lon="3.76386">
        <ele>119</ele>
        <time>2021-04-24T12:15:58Z</time>
      </trkpt>
      <trkpt lat="43.65434" lon="3.76394">
        <ele>119</ele>
        <time>2021-04-24T12:15:59Z</time>
      </trkpt>
      <trkpt lat="43.65433" lon="3.76402">
        <ele>119</ele>
        <time>2021-04-24T12:16:00Z</time>
      </trkpt>
      <trkpt lat="43.65432" lon="3.76408">
        <ele>119</ele>
        <time>2021-04-24T12:16:01Z</time>
      </trkpt>
      <trkpt lat="43.65431" lon="3.76413">
        <ele>119</ele>
        <time>2021-04-24T12:16:02Z</time>
      </trkpt>
      <trkpt lat="43.6543" lon="3.76417">
        <ele>119</ele>
        <time>2021-04-24T12:16:03Z</time>
      </trkpt>
      <trkpt lat="43.65428" lon="3.76421">
        <ele>119</ele>
        <time>2021-04-24T12:16:04Z</time>
      </trkpt>
      <trkpt lat="43.65427" lon="3.76425">
        <ele>119</ele>
        <time>2021-04-24T12:16:05Z</time>
      </trkpt>
      <trkpt lat="43.65426" lon="3.76429">
        <ele>119</ele>
        <time>2021-04-24T12:16:06Z</time>
      </trkpt>
      <trkpt lat="43.65425" lon="3.76433">
        <ele>119</ele>
        <time>2021-04-24T12:16:07Z</time>
      </trkpt>
      <trkpt lat="43.65424" lon="3.76438">
        <ele>119</ele>
        <time>2021-04-24T12:16:08Z</time>
      </trkpt>
      <trkpt lat="43.65423" lon="3.76441">
        <ele>119</ele>
        <time>2021-04-24T12:16:09Z</time>
      </trkpt>
      <trkpt lat="43.65422" lon="3.76444">
        <ele>119</ele>
        <time>2021-04-24T12:16:10Z</time>
      </trkpt>
      <trkpt lat="43.65422" lon="3.76447">
        <ele>119</ele>
        <time>2021-04-24T12:16:11Z</time>
      </trkpt>
      <trkpt lat="43.65421" lon="3.76449">
        <ele>119</ele>
        <time>2021-04-24T12:16:12Z</time>
      </trkpt>
      <trkpt lat="43.65421" lon="3.76454">
        <ele>119</ele>
        <time>2021-04-24T12:16:14Z</time>
      </trkpt>
      <trkpt lat="43.65422" lon="3.76457">
        <ele>119</ele>
        <time>2021-04-24T12:16:15Z</time>
      </trkpt>
      <trkpt lat="43.65422" lon="3.76459">
        <ele>120</ele>
        <time>2021-04-24T12:16:16Z</time>
      </trkpt>
      <trkpt lat="43.65423" lon="3.76463">
        <ele>120</ele>
        <time>2021-04-24T12:16:18Z</time>
      </trkpt>
      <trkpt lat="43.65424" lon="3.76467">
        <ele>120</ele>
        <time>2021-04-24T12:16:20Z</time>
      </trkpt>
      <trkpt lat="43.65424" lon="3.76471">
        <ele>120</ele>
        <time>2021-04-24T12:16:22Z</time>
      </trkpt>
      <trkpt lat="43.65424" lon="3.76475">
        <ele>120</ele>
        <time>2021-04-24T12:16:24Z</time>
      </trkpt>
      <trkpt lat="43.65424" lon="3.76479">
        <ele>122</ele>
        <time>2021-04-24T12:16:26Z</time>
      </trkpt>
      <trkpt lat="43.65425" lon="3.76482">
        <ele>122</ele>
        <time>2021-04-24T12:16:28Z</time>
      </trkpt>
      <trkpt lat="43.65426" lon="3.76485">
        <ele>122</ele>
        <time>2021-04-24T12:16:30Z</time>
      </trkpt>
      <trkpt lat="43.65428" lon="3.76489">
        <ele>122</ele>
        <time>2021-04-24T12:16:32Z</time>
      </trkpt>
      <trkpt lat="43.65429" lon="3.76492">
        <ele>122</ele>
        <time>2021-04-24T12:16:34Z</time>
      </trkpt>
      <trkpt lat="43.6543" lon="3.76495">
        <ele>124</ele>
        <time>2021-04-24T12:16:36Z</time>
      </trkpt>
      <trkpt lat="43.65431" lon="3.76499">
        <ele>124</ele>
        <time>2021-04-24T12:16:38Z</time>
      </trkpt>
      <trkpt lat="43.65432" lon="3.76503">
        <ele>124</ele>
        <time>2021-04-24T12:16:40Z</time>
      </trkpt>
      <trkpt lat="43.65432" lon="3.76507">
        <ele>124</ele>
        <time>2021-04-24T12:16:42Z</time>
      </trkpt>
      <trkpt lat="43.65432" lon="3.76512">
        <ele>124</ele>
        <time>2021-04-24T12:16:44Z</time>
      </trkpt>
      <trkpt lat="43.65431" lon="3.76517">
        <ele>125</ele>
        <time>2021-04-24T12:16:46Z</time>
      </trkpt>
      <trkpt lat="43.65431" lon="3.7652">
        <ele>125</ele>
        <time>2021-04-24T12:16:48Z</time>
      </trkpt>
      <trkpt lat="43.6543" lon="3.76523">
        <ele>125</ele>
        <time>2021-04-24T12:16:50Z</time>
      </trkpt>
      <trkpt lat="43.65428" lon="3.76527">
        <ele>125</ele>
        <time>2021-04-24T12:16:52Z</time>
      </trkpt>
      <trkpt lat="43.65427" lon="3.76531">
        <ele>125</ele>
        <time>2021-04-24T12:16:54Z</time>
      </trkpt>
      <trkpt lat="43.65427" lon="3.76536">
        <ele>125</ele>
        <time>2021-04-24T12:16:56Z</time>
      </trkpt>
      <trkpt lat="43.65427" lon="3.76539">
        <ele>125</ele>
        <time>2021-04-24T12:16:58Z</time>
      </trkpt>
      <trkpt lat="43.65427" lon="3.76539">
        <ele>125</ele>
        <time>2021-04-24T12:17:03Z</time>
      </trkpt>
      <trkpt lat="43.65426" lon="3.76556">
        <ele>127</ele>
        <time>2021-04-24T12:17:14Z</time>
      </trkpt>
      <trkpt lat="43.65426" lon="3.76561">
        <ele>127</ele>
        <time>2021-04-24T12:17:15Z</time>
      </trkpt>
      <trkpt lat="43.65426" lon="3.76566">
        <ele>127</ele>
        <time>2021-04-24T12:17:16Z</time>
      </trkpt>
      <trkpt lat="43.65425" lon="3.76572">
        <ele>127</ele>
        <time>2021-04-24T12:17:17Z</time>
      </trkpt>
      <trkpt lat="43.65424" lon="3.76579">
        <ele>127</ele>
        <time>2021-04-24T12:17:18Z</time>
      </trkpt>
      <trkpt lat="43.65422" lon="3.76585">
        <ele>127</ele>
        <time>2021-04-24T12:17:19Z</time>
      </trkpt>
      <trkpt lat="43.65421" lon="3.76592">
        <ele>127</ele>
        <time>2021-04-24T12:17:20Z</time>
      </trkpt>
      <trkpt lat="43.6542" lon="3.76599">
        <ele>127</ele>
        <time>2021-04-24T12:17:21Z</time>
      </trkpt>
      <trkpt lat="43.65419" lon="3.76606">
        <ele>127</ele>
        <time>2021-04-24T12:17:22Z</time>
      </trkpt>
      <trkpt lat="43.65419" lon="3.76613">
        <ele>127</ele>
        <time>2021-04-24T12:17:23Z</time>
      </trkpt>
      <trkpt lat="43.65419" lon="3.7662">
        <ele>126</ele>
        <time>2021-04-24T12:17:24Z</time>
      </trkpt>
      <trkpt lat="43.65419" lon="3.76627">
        <ele>126</ele>
        <time>2021-04-24T12:17:25Z</time>
      </trkpt>
      <trkpt lat="43.65418" lon="3.76636">
        <ele>126</ele>
        <time>2021-04-24T12:17:26Z</time>
      </trkpt>
      <trkpt lat="43.65418" lon="3.76644">
        <ele>126</ele>
        <time>2021-04-24T12:17:27Z</time>
      </trkpt>
      <trkpt lat="43.65419" lon="3.76652">
        <ele>126</ele>
        <time>2021-04-24T12:17:28Z</time>
      </trkpt>
      <trkpt lat="43.65418" lon="3.76659">
        <ele>126</ele>
        <time>2021-04-24T12:17:29Z</time>
      </trkpt>
      <trkpt lat="43.65417" lon="3.76666">
        <ele>126</ele>
        <time>2021-04-24T12:17:30Z</time>
      </trkpt>
      <trkpt lat="43.65415" lon="3.76672">
        <ele>126</ele>
        <time>2021-04-24T12:17:31Z</time>
      </trkpt>
      <trkpt lat="43.65414" lon="3.76678">
        <ele>126</ele>
        <time>2021-04-24T12:17:32Z</time>
      </trkpt>
      <trkpt lat="43.65413" lon="3.76683">
        <ele>126</ele>
        <time>2021-04-24T12:17:33Z</time>
      </trkpt>
      <trkpt lat="43.65411" lon="3.76689">
        <ele>123</ele>
        <time>2021-04-24T12:17:34Z</time>
      </trkpt>
      <trkpt lat="43.6541" lon="3.76695">
        <ele>123</ele>
        <time>2021-04-24T12:17:35Z</time>
      </trkpt>
      <trkpt lat="43.65409" lon="3.76702">
        <ele>123</ele>
        <time>2021-04-24T12:17:36Z</time>
      </trkpt>
      <trkpt lat="43.65406" lon="3.76708">
        <ele>123</ele>
        <time>2021-04-24T12:17:37Z</time>
      </trkpt>
      <trkpt lat="43.65404" lon="3.76715">
        <ele>123</ele>
        <time>2021-04-24T12:17:38Z</time>
      </trkpt>
      <trkpt lat="43.65402" lon="3.76723">
        <ele>123</ele>
        <time>2021-04-24T12:17:39Z</time>
      </trkpt>
      <trkpt lat="43.65399" lon="3.7673">
        <ele>123</ele>
        <time>2021-04-24T12:17:40Z</time>
      </trkpt>
      <trkpt lat="43.65397" lon="3.76736">
        <ele>123</ele>
        <time>2021-04-24T12:17:41Z</time>
      </trkpt>
      <trkpt lat="43.65395" lon="3.76743">
        <ele>123</ele>
        <time>2021-04-24T12:17:42Z</time>
      </trkpt>
      <trkpt lat="43.65393" lon="3.76748">
        <ele>123</ele>
        <time>2021-04-24T12:17:43Z</time>
      </trkpt>
      <trkpt lat="43.65393" lon="3.76751">
        <ele>120</ele>
        <time>2021-04-24T12:17:44Z</time>
      </trkpt>
      <trkpt lat="43.65393" lon="3.76748">
        <ele>120</ele>
        <time>2021-04-24T12:17:48Z</time>
      </trkpt>
      <trkpt lat="43.65393" lon="3.76746">
        <ele>120</ele>
        <time>2021-04-24T12:17:50Z</time>
      </trkpt>
      <trkpt lat="43.65394" lon="3.76748">
        <ele>120</ele>
        <time>2021-04-24T12:17:55Z</time>
      </trkpt>
      <trkpt lat="43.65391" lon="3.76752">
        <ele>120</ele>
        <time>2021-04-24T12:17:57Z</time>
      </trkpt>
      <trkpt lat="43.6539" lon="3.76755">
        <ele>120</ele>
        <time>2021-04-24T12:17:58Z</time>
      </trkpt>
      <trkpt lat="43.65388" lon="3.76758">
        <ele>120</ele>
        <time>2021-04-24T12:17:59Z</time>
      </trkpt>
      <trkpt lat="43.65385" lon="3.76761">
        <ele>120</ele>
        <time>2021-04-24T12:18:00Z</time>
      </trkpt>
      <trkpt lat="43.65382" lon="3.76763">
        <ele>120</ele>
        <time>2021-04-24T12:18:01Z</time>
      </trkpt>
      <trkpt lat="43.65379" lon="3.76765">
        <ele>120</ele>
        <time>2021-04-24T12:18:02Z</time>
      </trkpt>
      <trkpt lat="43.65377" lon="3.76766">
        <ele>120</ele>
        <time>2021-04-24T12:18:03Z</time>
      </trkpt>
      <trkpt lat="43.65374" lon="3.76767">
        <ele>118</ele>
        <time>2021-04-24T12:18:04Z</time>
      </trkpt>
      <trkpt lat="43.65372" lon="3.76769">
        <ele>118</ele>
        <time>2021-04-24T12:18:05Z</time>
      </trkpt>
      <trkpt lat="43.65369" lon="3.76771">
        <ele>118</ele>
        <time>2021-04-24T12:18:06Z</time>
      </trkpt>
      <trkpt lat="43.65368" lon="3.76775">
        <ele>118</ele>
        <time>2021-04-24T12:18:07Z</time>
      </trkpt>
      <trkpt lat="43.65367" lon="3.7678">
        <ele>118</ele>
        <time>2021-04-24T12:18:08Z</time>
      </trkpt>
      <trkpt lat="43.65367" lon="3.76786">
        <ele>118</ele>
        <time>2021-04-24T12:18:09Z</time>
      </trkpt>
      <trkpt lat="43.65369" lon="3.76791">
        <ele>118</ele>
        <time>2021-04-24T12:18:10Z</time>
      </trkpt>
      <trkpt lat="43.65371" lon="3.76796">
        <ele>118</ele>
        <time>2021-04-24T12:18:11Z</time>
      </trkpt>
      <trkpt lat="43.65374" lon="3.76801">
        <ele>118</ele>
        <time>2021-04-24T12:18:12Z</time>
      </trkpt>
      <trkpt lat="43.65377" lon="3.76807">
        <ele>118</ele>
        <time>2021-04-24T12:18:13Z</time>
      </trkpt>
      <trkpt lat="43.6538" lon="3.76813">
        <ele>116</ele>
        <time>2021-04-24T12:18:14Z</time>
      </trkpt>
      <trkpt lat="43.65384" lon="3.76819">
        <ele>116</ele>
        <time>2021-04-24T12:18:15Z</time>
      </trkpt>
      <trkpt lat="43.65387" lon="3.76826">
        <ele>116</ele>
        <time>2021-04-24T12:18:16Z</time>
      </trkpt>
      <trkpt lat="43.65389" lon="3.76834">
        <ele>116</ele>
        <time>2021-04-24T12:18:17Z</time>
      </trkpt>
      <trkpt lat="43.65389" lon="3.76841">
        <ele>116</ele>
        <time>2021-04-24T12:18:18Z</time>
      </trkpt>
      <trkpt lat="43.65389" lon="3.76849">
        <ele>116</ele>
        <time>2021-04-24T12:18:19Z</time>
      </trkpt>
      <trkpt lat="43.65389" lon="3.76858">
        <ele>116</ele>
        <time>2021-04-24T12:18:20Z</time>
      </trkpt>
      <trkpt lat="43.65389" lon="3.76867">
        <ele>116</ele>
        <time>2021-04-24T12:18:21Z</time>
      </trkpt>
      <trkpt lat="43.65389" lon="3.76875">
        <ele>116</ele>
        <time>2021-04-24T12:18:22Z</time>
      </trkpt>
      <trkpt lat="43.65388" lon="3.76884">
        <ele>116</ele>
        <time>2021-04-24T12:18:23Z</time>
      </trkpt>
      <trkpt lat="43.65386" lon="3.76892">
        <ele>113</ele>
        <time>2021-04-24T12:18:24Z</time>
      </trkpt>
      <trkpt lat="43.65385" lon="3.76899">
        <ele>113</ele>
        <time>2021-04-24T12:18:25Z</time>
      </trkpt>
      <trkpt lat="43.65384" lon="3.76905">
        <ele>113</ele>
        <time>2021-04-24T12:18:26Z</time>
      </trkpt>
      <trkpt lat="43.65385" lon="3.76911">
        <ele>113</ele>
        <time>2021-04-24T12:18:27Z</time>
      </trkpt>
      <trkpt lat="43.65387" lon="3.76915">
        <ele>113</ele>
        <time>2021-04-24T12:18:28Z</time>
      </trkpt>
      <trkpt lat="43.6539" lon="3.76919">
        <ele>113</ele>
        <time>2021-04-24T12:18:29Z</time>
      </trkpt>
      <trkpt lat="43.65393" lon="3.76921">
        <ele>113</ele>
        <time>2021-04-24T12:18:30Z</time>
      </trkpt>
      <trkpt lat="43.65398" lon="3.76922">
        <ele>113</ele>
        <time>2021-04-24T12:18:31Z</time>
      </trkpt>
      <trkpt lat="43.65402" lon="3.76923">
        <ele>113</ele>
        <time>2021-04-24T12:18:32Z</time>
      </trkpt>
      <trkpt lat="43.65407" lon="3.76923">
        <ele>113</ele>
        <time>2021-04-24T12:18:33Z</time>
      </trkpt>
      <trkpt lat="43.65413" lon="3.76924">
        <ele>108</ele>
        <time>2021-04-24T12:18:34Z</time>
      </trkpt>
      <trkpt lat="43.65418" lon="3.76925">
        <ele>108</ele>
        <time>2021-04-24T12:18:35Z</time>
      </trkpt>
      <trkpt lat="43.65424" lon="3.76926">
        <ele>108</ele>
        <time>2021-04-24T12:18:36Z</time>
      </trkpt>
      <trkpt lat="43.65429" lon="3.76927">
        <ele>108</ele>
        <time>2021-04-24T12:18:37Z</time>
      </trkpt>
      <trkpt lat="43.65435" lon="3.76927">
        <ele>108</ele>
        <time>2021-04-24T12:18:38Z</time>
      </trkpt>
      <trkpt lat="43.65441" lon="3.76926">
        <ele>108</ele>
        <time>2021-04-24T12:18:39Z</time>
      </trkpt>
      <trkpt lat="43.65446" lon="3.76924">
        <ele>108</ele>
        <time>2021-04-24T12:18:40Z</time>
      </trkpt>
      <trkpt lat="43.65451" lon="3.76921">
        <ele>108</ele>
        <time>2021-04-24T12:18:41Z</time>
      </trkpt>
      <trkpt lat="43.65456" lon="3.76918">
        <ele>108</ele>
        <time>2021-04-24T12:18:42Z</time>
      </trkpt>
      <trkpt lat="43.65461" lon="3.76914">
        <ele>108</ele>
        <time>2021-04-24T12:18:43Z</time>
      </trkpt>
      <trkpt lat="43.65464" lon="3.76911">
        <ele>103</ele>
        <time>2021-04-24T12:18:44Z</time>
      </trkpt>
      <trkpt lat="43.65467" lon="3.7691">
        <ele>103</ele>
        <time>2021-04-24T12:18:45Z</time>
      </trkpt>
      <trkpt lat="43.6547" lon="3.76911">
        <ele>103</ele>
        <time>2021-04-24T12:18:46Z</time>
      </trkpt>
      <trkpt lat="43.65472" lon="3.76913">
        <ele>103</ele>
        <time>2021-04-24T12:18:47Z</time>
      </trkpt>
      <trkpt lat="43.65474" lon="3.76916">
        <ele>103</ele>
        <time>2021-04-24T12:18:48Z</time>
      </trkpt>
      <trkpt lat="43.65475" lon="3.76919">
        <ele>103</ele>
        <time>2021-04-24T12:18:49Z</time>
      </trkpt>
      <trkpt lat="43.65477" lon="3.76921">
        <ele>103</ele>
        <time>2021-04-24T12:18:50Z</time>
      </trkpt>
      <trkpt lat="43.65479" lon="3.76922">
        <ele>103</ele>
        <time>2021-04-24T12:18:51Z</time>
      </trkpt>
      <trkpt lat="43.65482" lon="3.76923">
        <ele>103</ele>
        <time>2021-04-24T12:18:52Z</time>
      </trkpt>
      <trkpt lat="43.65485" lon="3.76923">
        <ele>103</ele>
        <time>2021-04-24T12:18:53Z</time>
      </trkpt>
      <trkpt lat="43.65488" lon="3.76924">
        <ele>101</ele>
        <time>2021-04-24T12:18:54Z</time>
      </trkpt>
      <trkpt lat="43.65492" lon="3.76925">
        <ele>101</ele>
        <time>2021-04-24T12:18:55Z</time>
      </trkpt>
      <trkpt lat="43.65495" lon="3.76926">
        <ele>101</ele>
        <time>2021-04-24T12:18:56Z</time>
      </trkpt>
      <trkpt lat="43.65498" lon="3.76928">
        <ele>101</ele>
        <time>2021-04-24T12:18:57Z</time>
      </trkpt>
      <trkpt lat="43.65501" lon="3.7693">
        <ele>101</ele>
        <time>2021-04-24T12:18:58Z</time>
      </trkpt>
      <trkpt lat="43.65504" lon="3.76931">
        <ele>101</ele>
        <time>2021-04-24T12:18:59Z</time>
      </trkpt>
      <trkpt lat="43.65508" lon="3.76932">
        <ele>101</ele>
        <time>2021-04-24T12:19:00Z</time>
      </trkpt>
      <trkpt lat="43.65511" lon="3.76933">
        <ele>101</ele>
        <time>2021-04-24T12:19:01Z</time>
      </trkpt>
      <trkpt lat="43.65515" lon="3.76935">
        <ele>101</ele>
        <time>2021-04-24T12:19:02Z</time>
      </trkpt>
      <trkpt lat="43.65519" lon="3.76936">
        <ele>101</ele>
        <time>2021-04-24T12:19:03Z</time>
      </trkpt>
      <trkpt lat="43.65523" lon="3.76937">
        <ele>97</ele>
        <time>2021-04-24T12:19:04Z</time>
      </trkpt>
      <trkpt lat="43.65526" lon="3.76939">
        <ele>97</ele>
        <time>2021-04-24T12:19:05Z</time>
      </trkpt>
      <trkpt lat="43.6553" lon="3.76941">
        <ele>97</ele>
        <time>2021-04-24T12:19:06Z</time>
      </trkpt>
      <trkpt lat="43.65533" lon="3.76943">
        <ele>97</ele>
        <time>2021-04-24T12:19:07Z</time>
      </trkpt>
      <trkpt lat="43.65536" lon="3.76944">
        <ele>97</ele>
        <time>2021-04-24T12:19:08Z</time>
      </trkpt>
      <trkpt lat="43.6554" lon="3.76946">
        <ele>97</ele>
        <time>2021-04-24T12:19:09Z</time>
      </trkpt>
      <trkpt lat="43.65543" lon="3.76947">
        <ele>97</ele>
        <time>2021-04-24T12:19:10Z</time>
      </trkpt>
      <trkpt lat="43.65547" lon="3.76948">
        <ele>97</ele>
        <time>2021-04-24T12:19:11Z</time>
      </trkpt>
      <trkpt lat="43.6555" lon="3.76948">
        <ele>97</ele>
        <time>2021-04-24T12:19:12Z</time>
      </trkpt>
      <trkpt lat="43.65554" lon="3.76948">
        <ele>97</ele>
        <time>2021-04-24T12:19:13Z</time>
      </trkpt>
      <trkpt lat="43.65557" lon="3.76948">
        <ele>95</ele>
        <time>2021-04-24T12:19:14Z</time>
      </trkpt>
      <trkpt lat="43.6556" lon="3.76947">
        <ele>95</ele>
        <time>2021-04-24T12:19:15Z</time>
      </trkpt>
      <trkpt lat="43.65563" lon="3.76945">
        <ele>95</ele>
        <time>2021-04-24T12:19:16Z</time>
      </trkpt>
      <trkpt lat="43.65567" lon="3.76944">
        <ele>95</ele>
        <time>2021-04-24T12:19:17Z</time>
      </trkpt>
      <trkpt lat="43.6557" lon="3.76943">
        <ele>95</ele>
        <time>2021-04-24T12:19:18Z</time>
      </trkpt>
      <trkpt lat="43.65573" lon="3.7694">
        <ele>95</ele>
        <time>2021-04-24T12:19:19Z</time>
      </trkpt>
      <trkpt lat="43.65577" lon="3.76938">
        <ele>95</ele>
        <time>2021-04-24T12:19:20Z</time>
      </trkpt>
      <trkpt lat="43.65581" lon="3.76936">
        <ele>95</ele>
        <time>2021-04-24T12:19:21Z</time>
      </trkpt>
      <trkpt lat="43.65586" lon="3.76935">
        <ele>95</ele>
        <time>2021-04-24T12:19:22Z</time>
      </trkpt>
      <trkpt lat="43.6559" lon="3.76935">
        <ele>95</ele>
        <time>2021-04-24T12:19:23Z</time>
      </trkpt>
      <trkpt lat="43.65594" lon="3.76936">
        <ele>94</ele>
        <time>2021-04-24T12:19:24Z</time>
      </trkpt>
      <trkpt lat="43.65598" lon="3.76937">
        <ele>94</ele>
        <time>2021-04-24T12:19:25Z</time>
      </trkpt>
      <trkpt lat="43.65601" lon="3.76938">
        <ele>94</ele>
        <time>2021-04-24T12:19:26Z</time>
      </trkpt>
      <trkpt lat="43.65603" lon="3.76936">
        <ele>94</ele>
        <time>2021-04-24T12:19:27Z</time>
      </trkpt>
      <trkpt lat="43.65605" lon="3.76934">
        <ele>94</ele>
        <time>2021-04-24T12:19:28Z</time>
      </trkpt>
      <trkpt lat="43.65607" lon="3.76931">
        <ele>94</ele>
        <time>2021-04-24T12:19:29Z</time>
      </trkpt>
      <trkpt lat="43.65609" lon="3.76928">
        <ele>94</ele>
        <time>2021-04-24T12:19:30Z</time>
      </trkpt>
      <trkpt lat="43.65612" lon="3.76925">
        <ele>94</ele>
        <time>2021-04-24T12:19:31Z</time>
      </trkpt>
      <trkpt lat="43.65615" lon="3.76923">
        <ele>94</ele>
        <time>2021-04-24T12:19:32Z</time>
      </trkpt>
      <trkpt lat="43.65618" lon="3.76922">
        <ele>94</ele>
        <time>2021-04-24T12:19:33Z</time>
      </trkpt>
      <trkpt lat="43.65621" lon="3.76921">
        <ele>95</ele>
        <time>2021-04-24T12:19:34Z</time>
      </trkpt>
      <trkpt lat="43.65624" lon="3.7692">
        <ele>95</ele>
        <time>2021-04-24T12:19:35Z</time>
      </trkpt>
      <trkpt lat="43.65628" lon="3.7692">
        <ele>95</ele>
        <time>2021-04-24T12:19:36Z</time>
      </trkpt>
      <trkpt lat="43.65631" lon="3.7692">
        <ele>95</ele>
        <time>2021-04-24T12:19:37Z</time>
      </trkpt>
      <trkpt lat="43.65634" lon="3.7692">
        <ele>95</ele>
        <time>2021-04-24T12:19:38Z</time>
      </trkpt>
      <trkpt lat="43.65637" lon="3.7692">
        <ele>95</ele>
        <time>2021-04-24T12:19:39Z</time>
      </trkpt>
      <trkpt lat="43.6564" lon="3.7692">
        <ele>95</ele>
        <time>2021-04-24T12:19:40Z</time>
      </trkpt>
      <trkpt lat="43.65643" lon="3.76921">
        <ele>95</ele>
        <time>2021-04-24T12:19:41Z</time>
      </trkpt>
      <trkpt lat="43.65646" lon="3.76921">
        <ele>95</ele>
        <time>2021-04-24T12:19:42Z</time>
      </trkpt>
      <trkpt lat="43.65648" lon="3.76921">
        <ele>95</ele>
        <time>2021-04-24T12:19:43Z</time>
      </trkpt>
      <trkpt lat="43.65651" lon="3.7692">
        <ele>96</ele>
        <time>2021-04-24T12:19:44Z</time>
      </trkpt>
      <trkpt lat="43.65653" lon="3.76919">
        <ele>96</ele>
        <time>2021-04-24T12:19:45Z</time>
      </trkpt>
      <trkpt lat="43.65656" lon="3.76918">
        <ele>96</ele>
        <time>2021-04-24T12:19:46Z</time>
      </trkpt>
      <trkpt lat="43.65658" lon="3.76916">
        <ele>96</ele>
        <time>2021-04-24T12:19:47Z</time>
      </trkpt>
      <trkpt lat="43.65661" lon="3.76914">
        <ele>96</ele>
        <time>2021-04-24T12:19:48Z</time>
      </trkpt>
      <trkpt lat="43.65663" lon="3.76911">
        <ele>96</ele>
        <time>2021-04-24T12:19:49Z</time>
      </trkpt>
      <trkpt lat="43.65665" lon="3.76908">
        <ele>96</ele>
        <time>2021-04-24T12:19:50Z</time>
      </trkpt>
      <trkpt lat="43.65668" lon="3.76906">
        <ele>96</ele>
        <time>2021-04-24T12:19:51Z</time>
      </trkpt>
      <trkpt lat="43.65671" lon="3.76904">
        <ele>96</ele>
        <time>2021-04-24T12:19:52Z</time>
      </trkpt>
      <trkpt lat="43.65673" lon="3.76903">
        <ele>96</ele>
        <time>2021-04-24T12:19:53Z</time>
      </trkpt>
      <trkpt lat="43.65676" lon="3.76901">
        <ele>98</ele>
        <time>2021-04-24T12:19:54Z</time>
      </trkpt>
      <trkpt lat="43.65679" lon="3.76901">
        <ele>98</ele>
        <time>2021-04-24T12:19:55Z</time>
      </trkpt>
      <trkpt lat="43.65681" lon="3.76903">
        <ele>98</ele>
        <time>2021-04-24T12:19:56Z</time>
      </trkpt>
      <trkpt lat="43.65683" lon="3.76905">
        <ele>98</ele>
        <time>2021-04-24T12:19:57Z</time>
      </trkpt>
      <trkpt lat="43.65684" lon="3.76907">
        <ele>98</ele>
        <time>2021-04-24T12:19:58Z</time>
      </trkpt>
      <trkpt lat="43.65685" lon="3.76909">
        <ele>98</ele>
        <time>2021-04-24T12:19:59Z</time>
      </trkpt>
      <trkpt lat="43.65687" lon="3.76912">
        <ele>98</ele>
        <time>2021-04-24T12:20:01Z</time>
      </trkpt>
      <trkpt lat="43.65689" lon="3.76913">
        <ele>98</ele>
        <time>2021-04-24T12:20:03Z</time>
      </trkpt>
      <trkpt lat="43.65692" lon="3.76913">
        <ele>98</ele>
        <time>2021-04-24T12:20:05Z</time>
      </trkpt>
      <trkpt lat="43.65695" lon="3.76912">
        <ele>98</ele>
        <time>2021-04-24T12:20:07Z</time>
      </trkpt>
      <trkpt lat="43.65698" lon="3.76911">
        <ele>98</ele>
        <time>2021-04-24T12:20:09Z</time>
      </trkpt>
      <trkpt lat="43.65701" lon="3.76911">
        <ele>98</ele>
        <time>2021-04-24T12:20:11Z</time>
      </trkpt>
      <trkpt lat="43.65704" lon="3.76912">
        <ele>98</ele>
        <time>2021-04-24T12:20:13Z</time>
      </trkpt>
      <trkpt lat="43.65707" lon="3.76913">
        <ele>98</ele>
        <time>2021-04-24T12:20:15Z</time>
      </trkpt>
      <trkpt lat="43.6571" lon="3.76914">
        <ele>98</ele>
        <time>2021-04-24T12:20:17Z</time>
      </trkpt>
      <trkpt lat="43.65712" lon="3.76915">
        <ele>98</ele>
        <time>2021-04-24T12:20:19Z</time>
      </trkpt>
      <trkpt lat="43.65715" lon="3.76916">
        <ele>98</ele>
        <time>2021-04-24T12:20:21Z</time>
      </trkpt>
      <trkpt lat="43.65717" lon="3.76917">
        <ele>98</ele>
        <time>2021-04-24T12:20:22Z</time>
      </trkpt>
      <trkpt lat="43.65719" lon="3.76918">
        <ele>98</ele>
        <time>2021-04-24T12:20:23Z</time>
      </trkpt>
      <trkpt lat="43.65721" lon="3.76919">
        <ele>104</ele>
        <time>2021-04-24T12:20:24Z</time>
      </trkpt>
      <trkpt lat="43.65724" lon="3.7692">
        <ele>104</ele>
        <time>2021-04-24T12:20:25Z</time>
      </trkpt>
      <trkpt lat="43.65727" lon="3.76921">
        <ele>104</ele>
        <time>2021-04-24T12:20:26Z</time>
      </trkpt>
      <trkpt lat="43.6573" lon="3.76922">
        <ele>104</ele>
        <time>2021-04-24T12:20:27Z</time>
      </trkpt>
      <trkpt lat="43.65732" lon="3.76922">
        <ele>104</ele>
        <time>2021-04-24T12:20:28Z</time>
      </trkpt>
      <trkpt lat="43.65735" lon="3.76923">
        <ele>104</ele>
        <time>2021-04-24T12:20:30Z</time>
      </trkpt>
      <trkpt lat="43.65738" lon="3.76924">
        <ele>104</ele>
        <time>2021-04-24T12:20:32Z</time>
      </trkpt>
      <trkpt lat="43.6574" lon="3.76926">
        <ele>104</ele>
        <time>2021-04-24T12:20:33Z</time>
      </trkpt>
      <trkpt lat="43.65742" lon="3.76927">
        <ele>105</ele>
        <time>2021-04-24T12:20:34Z</time>
      </trkpt>
      <trkpt lat="43.65745" lon="3.76929">
        <ele>105</ele>
        <time>2021-04-24T12:20:35Z</time>
      </trkpt>
      <trkpt lat="43.65747" lon="3.76931">
        <ele>105</ele>
        <time>2021-04-24T12:20:36Z</time>
      </trkpt>
      <trkpt lat="43.6575" lon="3.76933">
        <ele>105</ele>
        <time>2021-04-24T12:20:37Z</time>
      </trkpt>
      <trkpt lat="43.65752" lon="3.76935">
        <ele>105</ele>
        <time>2021-04-24T12:20:38Z</time>
      </trkpt>
      <trkpt lat="43.65754" lon="3.76937">
        <ele>105</ele>
        <time>2021-04-24T12:20:39Z</time>
      </trkpt>
      <trkpt lat="43.65756" lon="3.76939">
        <ele>105</ele>
        <time>2021-04-24T12:20:40Z</time>
      </trkpt>
      <trkpt lat="43.65759" lon="3.76941">
        <ele>105</ele>
        <time>2021-04-24T12:20:41Z</time>
      </trkpt>
      <trkpt lat="43.65761" lon="3.76944">
        <ele>105</ele>
        <time>2021-04-24T12:20:42Z</time>
      </trkpt>
      <trkpt lat="43.65763" lon="3.76946">
        <ele>105</ele>
        <time>2021-04-24T12:20:43Z</time>
      </trkpt>
      <trkpt lat="43.65766" lon="3.76947">
        <ele>105</ele>
        <time>2021-04-24T12:20:44Z</time>
      </trkpt>
      <trkpt lat="43.65768" lon="3.76949">
        <ele>105</ele>
        <time>2021-04-24T12:20:45Z</time>
      </trkpt>
      <trkpt lat="43.6577" lon="3.7695">
        <ele>105</ele>
        <time>2021-04-24T12:20:46Z</time>
      </trkpt>
      <trkpt lat="43.65772" lon="3.76951">
        <ele>105</ele>
        <time>2021-04-24T12:20:47Z</time>
      </trkpt>
      <trkpt lat="43.65775" lon="3.76953">
        <ele>105</ele>
        <time>2021-04-24T12:20:49Z</time>
      </trkpt>
      <trkpt lat="43.65777" lon="3.76955">
        <ele>105</ele>
        <time>2021-04-24T12:20:51Z</time>
      </trkpt>
      <trkpt lat="43.65781" lon="3.76956">
        <ele>105</ele>
        <time>2021-04-24T12:20:53Z</time>
      </trkpt>
      <trkpt lat="43.65782" lon="3.76958">
        <ele>106</ele>
        <time>2021-04-24T12:20:54Z</time>
      </trkpt>
      <trkpt lat="43.65785" lon="3.7696">
        <ele>106</ele>
        <time>2021-04-24T12:20:56Z</time>
      </trkpt>
      <trkpt lat="43.65788" lon="3.76963">
        <ele>106</ele>
        <time>2021-04-24T12:20:58Z</time>
      </trkpt>
      <trkpt lat="43.6579" lon="3.76966">
        <ele>106</ele>
        <time>2021-04-24T12:21:00Z</time>
      </trkpt>
      <trkpt lat="43.65792" lon="3.76967">
        <ele>106</ele>
        <time>2021-04-24T12:21:01Z</time>
      </trkpt>
      <trkpt lat="43.65793" lon="3.76969">
        <ele>106</ele>
        <time>2021-04-24T12:21:02Z</time>
      </trkpt>
      <trkpt lat="43.65795" lon="3.76972">
        <ele>107</ele>
        <time>2021-04-24T12:21:04Z</time>
      </trkpt>
      <trkpt lat="43.65797" lon="3.76976">
        <ele>107</ele>
        <time>2021-04-24T12:21:06Z</time>
      </trkpt>
      <trkpt lat="43.65798" lon="3.7698">
        <ele>107</ele>
        <time>2021-04-24T12:21:08Z</time>
      </trkpt>
      <trkpt lat="43.658" lon="3.76984">
        <ele>107</ele>
        <time>2021-04-24T12:21:10Z</time>
      </trkpt>
      <trkpt lat="43.65801" lon="3.76987">
        <ele>107</ele>
        <time>2021-04-24T12:21:12Z</time>
      </trkpt>
      <trkpt lat="43.65802" lon="3.76991">
        <ele>108</ele>
        <time>2021-04-24T12:21:14Z</time>
      </trkpt>
      <trkpt lat="43.65803" lon="3.76995">
        <ele>108</ele>
        <time>2021-04-24T12:21:16Z</time>
      </trkpt>
      <trkpt lat="43.65803" lon="3.77">
        <ele>108</ele>
        <time>2021-04-24T12:21:18Z</time>
      </trkpt>
      <trkpt lat="43.65803" lon="3.77004">
        <ele>108</ele>
        <time>2021-04-24T12:21:20Z</time>
      </trkpt>
      <trkpt lat="43.65803" lon="3.77009">
        <ele>108</ele>
        <time>2021-04-24T12:21:22Z</time>
      </trkpt>
      <trkpt lat="43.65803" lon="3.77013">
        <ele>110</ele>
        <time>2021-04-24T12:21:24Z</time>
      </trkpt>
      <trkpt lat="43.65803" lon="3.77018">
        <ele>110</ele>
        <time>2021-04-24T12:21:26Z</time>
      </trkpt>
      <trkpt lat="43.65803" lon="3.7702">
        <ele>110</ele>
        <time>2021-04-24T12:21:27Z</time>
      </trkpt>
      <trkpt lat="43.65803" lon="3.77023">
        <ele>110</ele>
        <time>2021-04-24T12:21:28Z</time>
      </trkpt>
      <trkpt lat="43.65803" lon="3.77026">
        <ele>110</ele>
        <time>2021-04-24T12:21:29Z</time>
      </trkpt>
      <trkpt lat="43.65803" lon="3.77029">
        <ele>110</ele>
        <time>2021-04-24T12:21:30Z</time>
      </trkpt>
      <trkpt lat="43.65803" lon="3.77032">
        <ele>110</ele>
        <time>2021-04-24T12:21:31Z</time>
      </trkpt>
      <trkpt lat="43.65803" lon="3.77035">
        <ele>110</ele>
        <time>2021-04-24T12:21:32Z</time>
      </trkpt>
      <trkpt lat="43.65803" lon="3.77038">
        <ele>110</ele>
        <time>2021-04-24T12:21:33Z</time>
      </trkpt>
      <trkpt lat="43.65804" lon="3.77041">
        <ele>111</ele>
        <time>2021-04-24T12:21:34Z</time>
      </trkpt>
      <trkpt lat="43.65804" lon="3.77044">
        <ele>111</ele>
        <time>2021-04-24T12:21:35Z</time>
      </trkpt>
      <trkpt lat="43.65805" lon="3.77048">
        <ele>111</ele>
        <time>2021-04-24T12:21:36Z</time>
      </trkpt>
      <trkpt lat="43.65805" lon="3.77051">
        <ele>111</ele>
        <time>2021-04-24T12:21:37Z</time>
      </trkpt>
      <trkpt lat="43.65806" lon="3.77054">
        <ele>111</ele>
        <time>2021-04-24T12:21:38Z</time>
      </trkpt>
      <trkpt lat="43.65807" lon="3.77057">
        <ele>111</ele>
        <time>2021-04-24T12:21:39Z</time>
      </trkpt>
      <trkpt lat="43.65807" lon="3.7706">
        <ele>111</ele>
        <time>2021-04-24T12:21:40Z</time>
      </trkpt>
      <trkpt lat="43.65807" lon="3.77063">
        <ele>111</ele>
        <time>2021-04-24T12:21:41Z</time>
      </trkpt>
      <trkpt lat="43.65807" lon="3.77067">
        <ele>111</ele>
        <time>2021-04-24T12:21:42Z</time>
      </trkpt>
      <trkpt lat="43.65808" lon="3.7707">
        <ele>111</ele>
        <time>2021-04-24T12:21:43Z</time>
      </trkpt>
      <trkpt lat="43.65808" lon="3.77074">
        <ele>110</ele>
        <time>2021-04-24T12:21:44Z</time>
      </trkpt>
      <trkpt lat="43.65808" lon="3.77078">
        <ele>110</ele>
        <time>2021-04-24T12:21:45Z</time>
      </trkpt>
      <trkpt lat="43.65808" lon="3.77082">
        <ele>110</ele>
        <time>2021-04-24T12:21:46Z</time>
      </trkpt>
      <trkpt lat="43.65808" lon="3.77086">
        <ele>110</ele>
        <time>2021-04-24T12:21:47Z</time>
      </trkpt>
      <trkpt lat="43.65808" lon="3.7709">
        <ele>110</ele>
        <time>2021-04-24T12:21:48Z</time>
      </trkpt>
      <trkpt lat="43.65808" lon="3.77094">
        <ele>110</ele>
        <time>2021-04-24T12:21:49Z</time>
      </trkpt>
      <trkpt lat="43.65809" lon="3.77099">
        <ele>110</ele>
        <time>2021-04-24T12:21:50Z</time>
      </trkpt>
      <trkpt lat="43.65809" lon="3.77103">
        <ele>110</ele>
        <time>2021-04-24T12:21:51Z</time>
      </trkpt>
      <trkpt lat="43.6581" lon="3.77108">
        <ele>110</ele>
        <time>2021-04-24T12:21:52Z</time>
      </trkpt>
      <trkpt lat="43.65811" lon="3.77112">
        <ele>110</ele>
        <time>2021-04-24T12:21:53Z</time>
      </trkpt>
      <trkpt lat="43.65812" lon="3.77117">
        <ele>110</ele>
        <time>2021-04-24T12:21:54Z</time>
      </trkpt>
      <trkpt lat="43.65813" lon="3.77122">
        <ele>110</ele>
        <time>2021-04-24T12:21:55Z</time>
      </trkpt>
      <trkpt lat="43.65814" lon="3.77126">
        <ele>110</ele>
        <time>2021-04-24T12:21:56Z</time>
      </trkpt>
      <trkpt lat="43.65815" lon="3.77131">
        <ele>110</ele>
        <time>2021-04-24T12:21:57Z</time>
      </trkpt>
      <trkpt lat="43.65815" lon="3.77135">
        <ele>110</ele>
        <time>2021-04-24T12:21:58Z</time>
      </trkpt>
      <trkpt lat="43.65816" lon="3.7714">
        <ele>110</ele>
        <time>2021-04-24T12:21:59Z</time>
      </trkpt>
      <trkpt lat="43.65816" lon="3.77145">
        <ele>110</ele>
        <time>2021-04-24T12:22:00Z</time>
      </trkpt>
      <trkpt lat="43.65816" lon="3.7715">
        <ele>110</ele>
        <time>2021-04-24T12:22:01Z</time>
      </trkpt>
      <trkpt lat="43.65816" lon="3.77154">
        <ele>110</ele>
        <time>2021-04-24T12:22:02Z</time>
      </trkpt>
      <trkpt lat="43.65816" lon="3.77158">
        <ele>110</ele>
        <time>2021-04-24T12:22:03Z</time>
      </trkpt>
      <trkpt lat="43.65815" lon="3.77162">
        <ele>110</ele>
        <time>2021-04-24T12:22:04Z</time>
      </trkpt>
      <trkpt lat="43.65815" lon="3.77166">
        <ele>110</ele>
        <time>2021-04-24T12:22:05Z</time>
      </trkpt>
      <trkpt lat="43.65814" lon="3.7717">
        <ele>110</ele>
        <time>2021-04-24T12:22:06Z</time>
      </trkpt>
      <trkpt lat="43.65814" lon="3.77174">
        <ele>110</ele>
        <time>2021-04-24T12:22:07Z</time>
      </trkpt>
      <trkpt lat="43.65813" lon="3.77178">
        <ele>110</ele>
        <time>2021-04-24T12:22:08Z</time>
      </trkpt>
      <trkpt lat="43.65813" lon="3.77183">
        <ele>110</ele>
        <time>2021-04-24T12:22:09Z</time>
      </trkpt>
      <trkpt lat="43.65812" lon="3.77188">
        <ele>110</ele>
        <time>2021-04-24T12:22:10Z</time>
      </trkpt>
      <trkpt lat="43.65811" lon="3.77192">
        <ele>110</ele>
        <time>2021-04-24T12:22:11Z</time>
      </trkpt>
      <trkpt lat="43.65811" lon="3.77197">
        <ele>110</ele>
        <time>2021-04-24T12:22:12Z</time>
      </trkpt>
      <trkpt lat="43.65811" lon="3.77202">
        <ele>110</ele>
        <time>2021-04-24T12:22:13Z</time>
      </trkpt>
      <trkpt lat="43.65811" lon="3.77207">
        <ele>109</ele>
        <time>2021-04-24T12:22:14Z</time>
      </trkpt>
      <trkpt lat="43.65812" lon="3.77213">
        <ele>109</ele>
        <time>2021-04-24T12:22:15Z</time>
      </trkpt>
      <trkpt lat="43.65813" lon="3.77218">
        <ele>109</ele>
        <time>2021-04-24T12:22:16Z</time>
      </trkpt>
      <trkpt lat="43.65816" lon="3.77224">
        <ele>109</ele>
        <time>2021-04-24T12:22:17Z</time>
      </trkpt>
      <trkpt lat="43.65818" lon="3.77229">
        <ele>109</ele>
        <time>2021-04-24T12:22:18Z</time>
      </trkpt>
      <trkpt lat="43.65821" lon="3.77234">
        <ele>109</ele>
        <time>2021-04-24T12:22:19Z</time>
      </trkpt>
      <trkpt lat="43.65823" lon="3.77239">
        <ele>109</ele>
        <time>2021-04-24T12:22:20Z</time>
      </trkpt>
      <trkpt lat="43.65826" lon="3.77243">
        <ele>109</ele>
        <time>2021-04-24T12:22:21Z</time>
      </trkpt>
      <trkpt lat="43.65829" lon="3.77247">
        <ele>109</ele>
        <time>2021-04-24T12:22:22Z</time>
      </trkpt>
      <trkpt lat="43.65832" lon="3.7725">
        <ele>109</ele>
        <time>2021-04-24T12:22:23Z</time>
      </trkpt>
      <trkpt lat="43.65835" lon="3.77252">
        <ele>107</ele>
        <time>2021-04-24T12:22:24Z</time>
      </trkpt>
      <trkpt lat="43.65837" lon="3.77256">
        <ele>107</ele>
        <time>2021-04-24T12:22:25Z</time>
      </trkpt>
      <trkpt lat="43.65838" lon="3.7726">
        <ele>107</ele>
        <time>2021-04-24T12:22:26Z</time>
      </trkpt>
      <trkpt lat="43.65837" lon="3.77265">
        <ele>107</ele>
        <time>2021-04-24T12:22:27Z</time>
      </trkpt>
      <trkpt lat="43.65835" lon="3.7727">
        <ele>107</ele>
        <time>2021-04-24T12:22:28Z</time>
      </trkpt>
      <trkpt lat="43.65833" lon="3.77274">
        <ele>107</ele>
        <time>2021-04-24T12:22:29Z</time>
      </trkpt>
      <trkpt lat="43.65832" lon="3.77279">
        <ele>107</ele>
        <time>2021-04-24T12:22:30Z</time>
      </trkpt>
      <trkpt lat="43.6583" lon="3.77284">
        <ele>107</ele>
        <time>2021-04-24T12:22:31Z</time>
      </trkpt>
      <trkpt lat="43.65828" lon="3.7729">
        <ele>107</ele>
        <time>2021-04-24T12:22:32Z</time>
      </trkpt>
      <trkpt lat="43.65827" lon="3.77296">
        <ele>107</ele>
        <time>2021-04-24T12:22:33Z</time>
      </trkpt>
      <trkpt lat="43.65825" lon="3.77301">
        <ele>107</ele>
        <time>2021-04-24T12:22:34Z</time>
      </trkpt>
      <trkpt lat="43.65823" lon="3.77307">
        <ele>107</ele>
        <time>2021-04-24T12:22:35Z</time>
      </trkpt>
      <trkpt lat="43.65822" lon="3.77313">
        <ele>107</ele>
        <time>2021-04-24T12:22:36Z</time>
      </trkpt>
      <trkpt lat="43.65821" lon="3.77319">
        <ele>107</ele>
        <time>2021-04-24T12:22:37Z</time>
      </trkpt>
      <trkpt lat="43.65821" lon="3.77324">
        <ele>107</ele>
        <time>2021-04-24T12:22:38Z</time>
      </trkpt>
      <trkpt lat="43.65821" lon="3.7733">
        <ele>107</ele>
        <time>2021-04-24T12:22:39Z</time>
      </trkpt>
      <trkpt lat="43.65821" lon="3.77335">
        <ele>107</ele>
        <time>2021-04-24T12:22:40Z</time>
      </trkpt>
      <trkpt lat="43.65821" lon="3.7734">
        <ele>107</ele>
        <time>2021-04-24T12:22:41Z</time>
      </trkpt>
      <trkpt lat="43.65821" lon="3.77346">
        <ele>107</ele>
        <time>2021-04-24T12:22:42Z</time>
      </trkpt>
      <trkpt lat="43.6582" lon="3.77354">
        <ele>107</ele>
        <time>2021-04-24T12:22:43Z</time>
      </trkpt>
      <trkpt lat="43.6582" lon="3.77361">
        <ele>107</ele>
        <time>2021-04-24T12:22:44Z</time>
      </trkpt>
      <trkpt lat="43.65819" lon="3.77368">
        <ele>107</ele>
        <time>2021-04-24T12:22:45Z</time>
      </trkpt>
      <trkpt lat="43.65818" lon="3.77374">
        <ele>107</ele>
        <time>2021-04-24T12:22:46Z</time>
      </trkpt>
      <trkpt lat="43.65818" lon="3.7738">
        <ele>107</ele>
        <time>2021-04-24T12:22:47Z</time>
      </trkpt>
      <trkpt lat="43.65816" lon="3.77386">
        <ele>107</ele>
        <time>2021-04-24T12:22:48Z</time>
      </trkpt>
      <trkpt lat="43.65815" lon="3.77392">
        <ele>107</ele>
        <time>2021-04-24T12:22:49Z</time>
      </trkpt>
      <trkpt lat="43.65814" lon="3.77398">
        <ele>107</ele>
        <time>2021-04-24T12:22:50Z</time>
      </trkpt>
      <trkpt lat="43.65812" lon="3.77405">
        <ele>107</ele>
        <time>2021-04-24T12:22:51Z</time>
      </trkpt>
      <trkpt lat="43.6581" lon="3.7741">
        <ele>107</ele>
        <time>2021-04-24T12:22:52Z</time>
      </trkpt>
      <trkpt lat="43.65808" lon="3.77416">
        <ele>107</ele>
        <time>2021-04-24T12:22:53Z</time>
      </trkpt>
      <trkpt lat="43.65805" lon="3.77421">
        <ele>106</ele>
        <time>2021-04-24T12:22:54Z</time>
      </trkpt>
      <trkpt lat="43.65802" lon="3.77428">
        <ele>106</ele>
        <time>2021-04-24T12:22:55Z</time>
      </trkpt>
      <trkpt lat="43.658" lon="3.77434">
        <ele>106</ele>
        <time>2021-04-24T12:22:56Z</time>
      </trkpt>
      <trkpt lat="43.65797" lon="3.77441">
        <ele>106</ele>
        <time>2021-04-24T12:22:57Z</time>
      </trkpt>
      <trkpt lat="43.65796" lon="3.77448">
        <ele>106</ele>
        <time>2021-04-24T12:22:58Z</time>
      </trkpt>
      <trkpt lat="43.65795" lon="3.77454">
        <ele>106</ele>
        <time>2021-04-24T12:22:59Z</time>
      </trkpt>
      <trkpt lat="43.65795" lon="3.7746">
        <ele>106</ele>
        <time>2021-04-24T12:23:00Z</time>
      </trkpt>
      <trkpt lat="43.65795" lon="3.77465">
        <ele>106</ele>
        <time>2021-04-24T12:23:01Z</time>
      </trkpt>
      <trkpt lat="43.65794" lon="3.77471">
        <ele>106</ele>
        <time>2021-04-24T12:23:02Z</time>
      </trkpt>
      <trkpt lat="43.65791" lon="3.77473">
        <ele>106</ele>
        <time>2021-04-24T12:23:03Z</time>
      </trkpt>
      <trkpt lat="43.65788" lon="3.77474">
        <ele>106</ele>
        <time>2021-04-24T12:23:04Z</time>
      </trkpt>
      <trkpt lat="43.65784" lon="3.77474">
        <ele>106</ele>
        <time>2021-04-24T12:23:05Z</time>
      </trkpt>
      <trkpt lat="43.6578" lon="3.77475">
        <ele>106</ele>
        <time>2021-04-24T12:23:06Z</time>
      </trkpt>
      <trkpt lat="43.65775" lon="3.77476">
        <ele>106</ele>
        <time>2021-04-24T12:23:07Z</time>
      </trkpt>
      <trkpt lat="43.65769" lon="3.77477">
        <ele>106</ele>
        <time>2021-04-24T12:23:08Z</time>
      </trkpt>
      <trkpt lat="43.65763" lon="3.77479">
        <ele>106</ele>
        <time>2021-04-24T12:23:09Z</time>
      </trkpt>
      <trkpt lat="43.65757" lon="3.77481">
        <ele>106</ele>
        <time>2021-04-24T12:23:10Z</time>
      </trkpt>
      <trkpt lat="43.65752" lon="3.77485">
        <ele>106</ele>
        <time>2021-04-24T12:23:11Z</time>
      </trkpt>
      <trkpt lat="43.65747" lon="3.77489">
        <ele>106</ele>
        <time>2021-04-24T12:23:12Z</time>
      </trkpt>
      <trkpt lat="43.65742" lon="3.77495">
        <ele>106</ele>
        <time>2021-04-24T12:23:13Z</time>
      </trkpt>
      <trkpt lat="43.65738" lon="3.77502">
        <ele>104</ele>
        <time>2021-04-24T12:23:14Z</time>
      </trkpt>
      <trkpt lat="43.65735" lon="3.7751">
        <ele>104</ele>
        <time>2021-04-24T12:23:15Z</time>
      </trkpt>
      <trkpt lat="43.65732" lon="3.77518">
        <ele>104</ele>
        <time>2021-04-24T12:23:16Z</time>
      </trkpt>
      <trkpt lat="43.65731" lon="3.77526">
        <ele>104</ele>
        <time>2021-04-24T12:23:17Z</time>
      </trkpt>
      <trkpt lat="43.65728" lon="3.77535">
        <ele>104</ele>
        <time>2021-04-24T12:23:18Z</time>
      </trkpt>
      <trkpt lat="43.65725" lon="3.77542">
        <ele>104</ele>
        <time>2021-04-24T12:23:19Z</time>
      </trkpt>
      <trkpt lat="43.65722" lon="3.7755">
        <ele>104</ele>
        <time>2021-04-24T12:23:20Z</time>
      </trkpt>
      <trkpt lat="43.65718" lon="3.77557">
        <ele>104</ele>
        <time>2021-04-24T12:23:21Z</time>
      </trkpt>
      <trkpt lat="43.65715" lon="3.77564">
        <ele>104</ele>
        <time>2021-04-24T12:23:22Z</time>
      </trkpt>
      <trkpt lat="43.65712" lon="3.77571">
        <ele>104</ele>
        <time>2021-04-24T12:23:23Z</time>
      </trkpt>
      <trkpt lat="43.6571" lon="3.77578">
        <ele>100</ele>
        <time>2021-04-24T12:23:24Z</time>
      </trkpt>
      <trkpt lat="43.65708" lon="3.77585">
        <ele>100</ele>
        <time>2021-04-24T12:23:25Z</time>
      </trkpt>
      <trkpt lat="43.65705" lon="3.77591">
        <ele>100</ele>
        <time>2021-04-24T12:23:26Z</time>
      </trkpt>
      <trkpt lat="43.65703" lon="3.77598">
        <ele>100</ele>
        <time>2021-04-24T12:23:27Z</time>
      </trkpt>
      <trkpt lat="43.65701" lon="3.77605">
        <ele>100</ele>
        <time>2021-04-24T12:23:28Z</time>
      </trkpt>
      <trkpt lat="43.65699" lon="3.77612">
        <ele>100</ele>
        <time>2021-04-24T12:23:29Z</time>
      </trkpt>
      <trkpt lat="43.65698" lon="3.77619">
        <ele>100</ele>
        <time>2021-04-24T12:23:30Z</time>
      </trkpt>
      <trkpt lat="43.65698" lon="3.77626">
        <ele>100</ele>
        <time>2021-04-24T12:23:31Z</time>
      </trkpt>
      <trkpt lat="43.65698" lon="3.77632">
        <ele>100</ele>
        <time>2021-04-24T12:23:32Z</time>
      </trkpt>
      <trkpt lat="43.65698" lon="3.7764">
        <ele>100</ele>
        <time>2021-04-24T12:23:33Z</time>
      </trkpt>
      <trkpt lat="43.65698" lon="3.77647">
        <ele>97</ele>
        <time>2021-04-24T12:23:34Z</time>
      </trkpt>
      <trkpt lat="43.65699" lon="3.77653">
        <ele>97</ele>
        <time>2021-04-24T12:23:35Z</time>
      </trkpt>
      <trkpt lat="43.657" lon="3.77659">
        <ele>97</ele>
        <time>2021-04-24T12:23:36Z</time>
      </trkpt>
      <trkpt lat="43.657" lon="3.77665">
        <ele>97</ele>
        <time>2021-04-24T12:23:37Z</time>
      </trkpt>
      <trkpt lat="43.65701" lon="3.77671">
        <ele>97</ele>
        <time>2021-04-24T12:23:38Z</time>
      </trkpt>
      <trkpt lat="43.65702" lon="3.77676">
        <ele>97</ele>
        <time>2021-04-24T12:23:39Z</time>
      </trkpt>
      <trkpt lat="43.65702" lon="3.77682">
        <ele>97</ele>
        <time>2021-04-24T12:23:40Z</time>
      </trkpt>
      <trkpt lat="43.65703" lon="3.77687">
        <ele>97</ele>
        <time>2021-04-24T12:23:41Z</time>
      </trkpt>
      <trkpt lat="43.65705" lon="3.77693">
        <ele>97</ele>
        <time>2021-04-24T12:23:42Z</time>
      </trkpt>
      <trkpt lat="43.65706" lon="3.77699">
        <ele>97</ele>
        <time>2021-04-24T12:23:43Z</time>
      </trkpt>
      <trkpt lat="43.65707" lon="3.77704">
        <ele>92</ele>
        <time>2021-04-24T12:23:44Z</time>
      </trkpt>
      <trkpt lat="43.65708" lon="3.77711">
        <ele>92</ele>
        <time>2021-04-24T12:23:45Z</time>
      </trkpt>
      <trkpt lat="43.65709" lon="3.77719">
        <ele>92</ele>
        <time>2021-04-24T12:23:46Z</time>
      </trkpt>
      <trkpt lat="43.65708" lon="3.77726">
        <ele>92</ele>
        <time>2021-04-24T12:23:47Z</time>
      </trkpt>
      <trkpt lat="43.65708" lon="3.77734">
        <ele>92</ele>
        <time>2021-04-24T12:23:48Z</time>
      </trkpt>
      <trkpt lat="43.65708" lon="3.77742">
        <ele>92</ele>
        <time>2021-04-24T12:23:49Z</time>
      </trkpt>
      <trkpt lat="43.65709" lon="3.77749">
        <ele>92</ele>
        <time>2021-04-24T12:23:50Z</time>
      </trkpt>
      <trkpt lat="43.65709" lon="3.77756">
        <ele>92</ele>
        <time>2021-04-24T12:23:51Z</time>
      </trkpt>
      <trkpt lat="43.6571" lon="3.77763">
        <ele>92</ele>
        <time>2021-04-24T12:23:52Z</time>
      </trkpt>
      <trkpt lat="43.65711" lon="3.77769">
        <ele>92</ele>
        <time>2021-04-24T12:23:53Z</time>
      </trkpt>
      <trkpt lat="43.65713" lon="3.77774">
        <ele>91</ele>
        <time>2021-04-24T12:23:54Z</time>
      </trkpt>
      <trkpt lat="43.65716" lon="3.77778">
        <ele>91</ele>
        <time>2021-04-24T12:23:55Z</time>
      </trkpt>
      <trkpt lat="43.65719" lon="3.77781">
        <ele>91</ele>
        <time>2021-04-24T12:23:56Z</time>
      </trkpt>
      <trkpt lat="43.65722" lon="3.77783">
        <ele>91</ele>
        <time>2021-04-24T12:23:57Z</time>
      </trkpt>
      <trkpt lat="43.65725" lon="3.77784">
        <ele>91</ele>
        <time>2021-04-24T12:23:58Z</time>
      </trkpt>
      <trkpt lat="43.65729" lon="3.77785">
        <ele>91</ele>
        <time>2021-04-24T12:23:59Z</time>
      </trkpt>
      <trkpt lat="43.65732" lon="3.77787">
        <ele>91</ele>
        <time>2021-04-24T12:24:00Z</time>
      </trkpt>
      <trkpt lat="43.65735" lon="3.77788">
        <ele>91</ele>
        <time>2021-04-24T12:24:01Z</time>
      </trkpt>
      <trkpt lat="43.65737" lon="3.77789">
        <ele>91</ele>
        <time>2021-04-24T12:24:02Z</time>
      </trkpt>
      <trkpt lat="43.65739" lon="3.7779">
        <ele>91</ele>
        <time>2021-04-24T12:24:03Z</time>
      </trkpt>
      <trkpt lat="43.65741" lon="3.77791">
        <ele>91</ele>
        <time>2021-04-24T12:24:04Z</time>
      </trkpt>
      <trkpt lat="43.65744" lon="3.77794">
        <ele>91</ele>
        <time>2021-04-24T12:24:06Z</time>
      </trkpt>
      <trkpt lat="43.65745" lon="3.77796">
        <ele>91</ele>
        <time>2021-04-24T12:24:07Z</time>
      </trkpt>
      <trkpt lat="43.65747" lon="3.77798">
        <ele>91</ele>
        <time>2021-04-24T12:24:08Z</time>
      </trkpt>
      <trkpt lat="43.65749" lon="3.77799">
        <ele>91</ele>
        <time>2021-04-24T12:24:09Z</time>
      </trkpt>
      <trkpt lat="43.6575" lon="3.77801">
        <ele>91</ele>
        <time>2021-04-24T12:24:10Z</time>
      </trkpt>
      <trkpt lat="43.65752" lon="3.77802">
        <ele>91</ele>
        <time>2021-04-24T12:24:11Z</time>
      </trkpt>
      <trkpt lat="43.65754" lon="3.77804">
        <ele>91</ele>
        <time>2021-04-24T12:24:12Z</time>
      </trkpt>
      <trkpt lat="43.65755" lon="3.77806">
        <ele>91</ele>
        <time>2021-04-24T12:24:13Z</time>
      </trkpt>
      <trkpt lat="43.65757" lon="3.77807">
        <ele>92</ele>
        <time>2021-04-24T12:24:14Z</time>
      </trkpt>
      <trkpt lat="43.65758" lon="3.77809">
        <ele>92</ele>
        <time>2021-04-24T12:24:15Z</time>
      </trkpt>
      <trkpt lat="43.6576" lon="3.77811">
        <ele>92</ele>
        <time>2021-04-24T12:24:16Z</time>
      </trkpt>
      <trkpt lat="43.65762" lon="3.77813">
        <ele>92</ele>
        <time>2021-04-24T12:24:17Z</time>
      </trkpt>
      <trkpt lat="43.65763" lon="3.77814">
        <ele>92</ele>
        <time>2021-04-24T12:24:18Z</time>
      </trkpt>
      <trkpt lat="43.65766" lon="3.77817">
        <ele>92</ele>
        <time>2021-04-24T12:24:20Z</time>
      </trkpt>
      <trkpt lat="43.65769" lon="3.7782">
        <ele>92</ele>
        <time>2021-04-24T12:24:22Z</time>
      </trkpt>
      <trkpt lat="43.65771" lon="3.77823">
        <ele>93</ele>
        <time>2021-04-24T12:24:24Z</time>
      </trkpt>
      <trkpt lat="43.65774" lon="3.77825">
        <ele>93</ele>
        <time>2021-04-24T12:24:26Z</time>
      </trkpt>
      <trkpt lat="43.65776" lon="3.77826">
        <ele>93</ele>
        <time>2021-04-24T12:24:28Z</time>
      </trkpt>
      <trkpt lat="43.65779" lon="3.77827">
        <ele>93</ele>
        <time>2021-04-24T12:24:30Z</time>
      </trkpt>
      <trkpt lat="43.65782" lon="3.77828">
        <ele>93</ele>
        <time>2021-04-24T12:24:32Z</time>
      </trkpt>
      <trkpt lat="43.65785" lon="3.77829">
        <ele>94</ele>
        <time>2021-04-24T12:24:34Z</time>
      </trkpt>
      <trkpt lat="43.65787" lon="3.77831">
        <ele>94</ele>
        <time>2021-04-24T12:24:36Z</time>
      </trkpt>
      <trkpt lat="43.6579" lon="3.77833">
        <ele>94</ele>
        <time>2021-04-24T12:24:38Z</time>
      </trkpt>
      <trkpt lat="43.65793" lon="3.77833">
        <ele>94</ele>
        <time>2021-04-24T12:24:40Z</time>
      </trkpt>
      <trkpt lat="43.65796" lon="3.77833">
        <ele>94</ele>
        <time>2021-04-24T12:24:42Z</time>
      </trkpt>
      <trkpt lat="43.65799" lon="3.77832">
        <ele>95</ele>
        <time>2021-04-24T12:24:44Z</time>
      </trkpt>
      <trkpt lat="43.65801" lon="3.7783">
        <ele>95</ele>
        <time>2021-04-24T12:24:46Z</time>
      </trkpt>
      <trkpt lat="43.65803" lon="3.77827">
        <ele>95</ele>
        <time>2021-04-24T12:24:48Z</time>
      </trkpt>
      <trkpt lat="43.65806" lon="3.77825">
        <ele>95</ele>
        <time>2021-04-24T12:24:50Z</time>
      </trkpt>
      <trkpt lat="43.65808" lon="3.77823">
        <ele>95</ele>
        <time>2021-04-24T12:24:52Z</time>
      </trkpt>
      <trkpt lat="43.6581" lon="3.77823">
        <ele>97</ele>
        <time>2021-04-24T12:24:54Z</time>
      </trkpt>
      <trkpt lat="43.65814" lon="3.77825">
        <ele>97</ele>
        <time>2021-04-24T12:24:56Z</time>
      </trkpt>
      <trkpt lat="43.65816" lon="3.77826">
        <ele>97</ele>
        <time>2021-04-24T12:24:57Z</time>
      </trkpt>
      <trkpt lat="43.65818" lon="3.77829">
        <ele>97</ele>
        <time>2021-04-24T12:24:58Z</time>
      </trkpt>
      <trkpt lat="43.6582" lon="3.77832">
        <ele>97</ele>
        <time>2021-04-24T12:24:59Z</time>
      </trkpt>
      <trkpt lat="43.65823" lon="3.77835">
        <ele>97</ele>
        <time>2021-04-24T12:25:00Z</time>
      </trkpt>
      <trkpt lat="43.65827" lon="3.77839">
        <ele>97</ele>
        <time>2021-04-24T12:25:01Z</time>
      </trkpt>
      <trkpt lat="43.6583" lon="3.77844">
        <ele>97</ele>
        <time>2021-04-24T12:25:02Z</time>
      </trkpt>
      <trkpt lat="43.65835" lon="3.77849">
        <ele>97</ele>
        <time>2021-04-24T12:25:03Z</time>
      </trkpt>
      <trkpt lat="43.6584" lon="3.77855">
        <ele>97</ele>
        <time>2021-04-24T12:25:04Z</time>
      </trkpt>
      <trkpt lat="43.65847" lon="3.77862">
        <ele>97</ele>
        <time>2021-04-24T12:25:05Z</time>
      </trkpt>
      <trkpt lat="43.65853" lon="3.77868">
        <ele>97</ele>
        <time>2021-04-24T12:25:06Z</time>
      </trkpt>
      <trkpt lat="43.65859" lon="3.77875">
        <ele>97</ele>
        <time>2021-04-24T12:25:07Z</time>
      </trkpt>
      <trkpt lat="43.65863" lon="3.77883">
        <ele>97</ele>
        <time>2021-04-24T12:25:08Z</time>
      </trkpt>
      <trkpt lat="43.65865" lon="3.77891">
        <ele>97</ele>
        <time>2021-04-24T12:25:09Z</time>
      </trkpt>
      <trkpt lat="43.65868" lon="3.77899">
        <ele>97</ele>
        <time>2021-04-24T12:25:10Z</time>
      </trkpt>
      <trkpt lat="43.65869" lon="3.77906">
        <ele>97</ele>
        <time>2021-04-24T12:25:11Z</time>
      </trkpt>
      <trkpt lat="43.65872" lon="3.77911">
        <ele>97</ele>
        <time>2021-04-24T12:25:12Z</time>
      </trkpt>
      <trkpt lat="43.65874" lon="3.77916">
        <ele>97</ele>
        <time>2021-04-24T12:25:13Z</time>
      </trkpt>
      <trkpt lat="43.65876" lon="3.77921">
        <ele>96</ele>
        <time>2021-04-24T12:25:14Z</time>
      </trkpt>
      <trkpt lat="43.65878" lon="3.77926">
        <ele>96</ele>
        <time>2021-04-24T12:25:15Z</time>
      </trkpt>
      <trkpt lat="43.65879" lon="3.77931">
        <ele>96</ele>
        <time>2021-04-24T12:25:16Z</time>
      </trkpt>
      <trkpt lat="43.6588" lon="3.77936">
        <ele>96</ele>
        <time>2021-04-24T12:25:17Z</time>
      </trkpt>
      <trkpt lat="43.6588" lon="3.7794">
        <ele>96</ele>
        <time>2021-04-24T12:25:18Z</time>
      </trkpt>
      <trkpt lat="43.65879" lon="3.77943">
        <ele>96</ele>
        <time>2021-04-24T12:25:19Z</time>
      </trkpt>
      <trkpt lat="43.65878" lon="3.77946">
        <ele>96</ele>
        <time>2021-04-24T12:25:20Z</time>
      </trkpt>
      <trkpt lat="43.65876" lon="3.77949">
        <ele>96</ele>
        <time>2021-04-24T12:25:21Z</time>
      </trkpt>
      <trkpt lat="43.65875" lon="3.77951">
        <ele>96</ele>
        <time>2021-04-24T12:25:22Z</time>
      </trkpt>
      <trkpt lat="43.65873" lon="3.77954">
        <ele>96</ele>
        <time>2021-04-24T12:25:23Z</time>
      </trkpt>
      <trkpt lat="43.65871" lon="3.77958">
        <ele>94</ele>
        <time>2021-04-24T12:25:24Z</time>
      </trkpt>
      <trkpt lat="43.65868" lon="3.77961">
        <ele>94</ele>
        <time>2021-04-24T12:25:25Z</time>
      </trkpt>
      <trkpt lat="43.65865" lon="3.77964">
        <ele>94</ele>
        <time>2021-04-24T12:25:26Z</time>
      </trkpt>
      <trkpt lat="43.65862" lon="3.77966">
        <ele>94</ele>
        <time>2021-04-24T12:25:27Z</time>
      </trkpt>
      <trkpt lat="43.65859" lon="3.77968">
        <ele>94</ele>
        <time>2021-04-24T12:25:28Z</time>
      </trkpt>
      <trkpt lat="43.65856" lon="3.7797">
        <ele>94</ele>
        <time>2021-04-24T12:25:29Z</time>
      </trkpt>
      <trkpt lat="43.65854" lon="3.77973">
        <ele>94</ele>
        <time>2021-04-24T12:25:30Z</time>
      </trkpt>
      <trkpt lat="43.65852" lon="3.77975">
        <ele>94</ele>
        <time>2021-04-24T12:25:31Z</time>
      </trkpt>
      <trkpt lat="43.65849" lon="3.77978">
        <ele>94</ele>
        <time>2021-04-24T12:25:32Z</time>
      </trkpt>
      <trkpt lat="43.65847" lon="3.7798">
        <ele>94</ele>
        <time>2021-04-24T12:25:33Z</time>
      </trkpt>
      <trkpt lat="43.65845" lon="3.77982">
        <ele>93</ele>
        <time>2021-04-24T12:25:34Z</time>
      </trkpt>
      <trkpt lat="43.65843" lon="3.77984">
        <ele>93</ele>
        <time>2021-04-24T12:25:35Z</time>
      </trkpt>
      <trkpt lat="43.65841" lon="3.77987">
        <ele>93</ele>
        <time>2021-04-24T12:25:36Z</time>
      </trkpt>
      <trkpt lat="43.65839" lon="3.77989">
        <ele>93</ele>
        <time>2021-04-24T12:25:37Z</time>
      </trkpt>
      <trkpt lat="43.65837" lon="3.77991">
        <ele>93</ele>
        <time>2021-04-24T12:25:38Z</time>
      </trkpt>
      <trkpt lat="43.65836" lon="3.77994">
        <ele>93</ele>
        <time>2021-04-24T12:25:39Z</time>
      </trkpt>
      <trkpt lat="43.65835" lon="3.77997">
        <ele>93</ele>
        <time>2021-04-24T12:25:40Z</time>
      </trkpt>
      <trkpt lat="43.65834" lon="3.78002">
        <ele>93</ele>
        <time>2021-04-24T12:25:41Z</time>
      </trkpt>
      <trkpt lat="43.65832" lon="3.78007">
        <ele>93</ele>
        <time>2021-04-24T12:25:42Z</time>
      </trkpt>
      <trkpt lat="43.6583" lon="3.78011">
        <ele>93</ele>
        <time>2021-04-24T12:25:43Z</time>
      </trkpt>
      <trkpt lat="43.65828" lon="3.78014">
        <ele>92</ele>
        <time>2021-04-24T12:25:44Z</time>
      </trkpt>
      <trkpt lat="43.65825" lon="3.78017">
        <ele>92</ele>
        <time>2021-04-24T12:25:45Z</time>
      </trkpt>
      <trkpt lat="43.65824" lon="3.78022">
        <ele>92</ele>
        <time>2021-04-24T12:25:46Z</time>
      </trkpt>
      <trkpt lat="43.65822" lon="3.78028">
        <ele>92</ele>
        <time>2021-04-24T12:25:47Z</time>
      </trkpt>
      <trkpt lat="43.6582" lon="3.78034">
        <ele>92</ele>
        <time>2021-04-24T12:25:48Z</time>
      </trkpt>
      <trkpt lat="43.65819" lon="3.7804">
        <ele>92</ele>
        <time>2021-04-24T12:25:49Z</time>
      </trkpt>
      <trkpt lat="43.65816" lon="3.78046">
        <ele>92</ele>
        <time>2021-04-24T12:25:50Z</time>
      </trkpt>
      <trkpt lat="43.65813" lon="3.78052">
        <ele>92</ele>
        <time>2021-04-24T12:25:51Z</time>
      </trkpt>
      <trkpt lat="43.6581" lon="3.78057">
        <ele>92</ele>
        <time>2021-04-24T12:25:52Z</time>
      </trkpt>
      <trkpt lat="43.65807" lon="3.78062">
        <ele>92</ele>
        <time>2021-04-24T12:25:53Z</time>
      </trkpt>
      <trkpt lat="43.65804" lon="3.78067">
        <ele>91</ele>
        <time>2021-04-24T12:25:54Z</time>
      </trkpt>
      <trkpt lat="43.65801" lon="3.78072">
        <ele>91</ele>
        <time>2021-04-24T12:25:55Z</time>
      </trkpt>
      <trkpt lat="43.65798" lon="3.78076">
        <ele>91</ele>
        <time>2021-04-24T12:25:56Z</time>
      </trkpt>
      <trkpt lat="43.65795" lon="3.78081">
        <ele>91</ele>
        <time>2021-04-24T12:25:57Z</time>
      </trkpt>
      <trkpt lat="43.65792" lon="3.78086">
        <ele>91</ele>
        <time>2021-04-24T12:25:58Z</time>
      </trkpt>
      <trkpt lat="43.65789" lon="3.78092">
        <ele>91</ele>
        <time>2021-04-24T12:25:59Z</time>
      </trkpt>
      <trkpt lat="43.65785" lon="3.78098">
        <ele>91</ele>
        <time>2021-04-24T12:26:00Z</time>
      </trkpt>
      <trkpt lat="43.65782" lon="3.78103">
        <ele>91</ele>
        <time>2021-04-24T12:26:01Z</time>
      </trkpt>
      <trkpt lat="43.6578" lon="3.78109">
        <ele>91</ele>
        <time>2021-04-24T12:26:02Z</time>
      </trkpt>
      <trkpt lat="43.65777" lon="3.78114">
        <ele>91</ele>
        <time>2021-04-24T12:26:03Z</time>
      </trkpt>
      <trkpt lat="43.65774" lon="3.78117">
        <ele>91</ele>
        <time>2021-04-24T12:26:04Z</time>
      </trkpt>
      <trkpt lat="43.65772" lon="3.7812">
        <ele>91</ele>
        <time>2021-04-24T12:26:05Z</time>
      </trkpt>
      <trkpt lat="43.65769" lon="3.78123">
        <ele>91</ele>
        <time>2021-04-24T12:26:06Z</time>
      </trkpt>
      <trkpt lat="43.65766" lon="3.78127">
        <ele>91</ele>
        <time>2021-04-24T12:26:07Z</time>
      </trkpt>
      <trkpt lat="43.65763" lon="3.78132">
        <ele>91</ele>
        <time>2021-04-24T12:26:08Z</time>
      </trkpt>
      <trkpt lat="43.6576" lon="3.78137">
        <ele>91</ele>
        <time>2021-04-24T12:26:09Z</time>
      </trkpt>
      <trkpt lat="43.65757" lon="3.78142">
        <ele>91</ele>
        <time>2021-04-24T12:26:10Z</time>
      </trkpt>
      <trkpt lat="43.65755" lon="3.78147">
        <ele>91</ele>
        <time>2021-04-24T12:26:11Z</time>
      </trkpt>
      <trkpt lat="43.65753" lon="3.78151">
        <ele>91</ele>
        <time>2021-04-24T12:26:12Z</time>
      </trkpt>
      <trkpt lat="43.65751" lon="3.78156">
        <ele>91</ele>
        <time>2021-04-24T12:26:13Z</time>
      </trkpt>
      <trkpt lat="43.6575" lon="3.78161">
        <ele>90</ele>
        <time>2021-04-24T12:26:14Z</time>
      </trkpt>
      <trkpt lat="43.65748" lon="3.78165">
        <ele>90</ele>
        <time>2021-04-24T12:26:15Z</time>
      </trkpt>
      <trkpt lat="43.65745" lon="3.78168">
        <ele>90</ele>
        <time>2021-04-24T12:26:16Z</time>
      </trkpt>
      <trkpt lat="43.65741" lon="3.78171">
        <ele>90</ele>
        <time>2021-04-24T12:26:17Z</time>
      </trkpt>
      <trkpt lat="43.65738" lon="3.78173">
        <ele>90</ele>
        <time>2021-04-24T12:26:18Z</time>
      </trkpt>
      <trkpt lat="43.65734" lon="3.78176">
        <ele>90</ele>
        <time>2021-04-24T12:26:19Z</time>
      </trkpt>
      <trkpt lat="43.6573" lon="3.78178">
        <ele>90</ele>
        <time>2021-04-24T12:26:20Z</time>
      </trkpt>
      <trkpt lat="43.65727" lon="3.78181">
        <ele>90</ele>
        <time>2021-04-24T12:26:21Z</time>
      </trkpt>
      <trkpt lat="43.65723" lon="3.78183">
        <ele>90</ele>
        <time>2021-04-24T12:26:22Z</time>
      </trkpt>
      <trkpt lat="43.65719" lon="3.78185">
        <ele>90</ele>
        <time>2021-04-24T12:26:23Z</time>
      </trkpt>
      <trkpt lat="43.65716" lon="3.78188">
        <ele>87</ele>
        <time>2021-04-24T12:26:24Z</time>
      </trkpt>
      <trkpt lat="43.65712" lon="3.78191">
        <ele>87</ele>
        <time>2021-04-24T12:26:25Z</time>
      </trkpt>
      <trkpt lat="43.65709" lon="3.78194">
        <ele>87</ele>
        <time>2021-04-24T12:26:26Z</time>
      </trkpt>
      <trkpt lat="43.65705" lon="3.78198">
        <ele>87</ele>
        <time>2021-04-24T12:26:27Z</time>
      </trkpt>
      <trkpt lat="43.65702" lon="3.78201">
        <ele>87</ele>
        <time>2021-04-24T12:26:28Z</time>
      </trkpt>
      <trkpt lat="43.65699" lon="3.78205">
        <ele>87</ele>
        <time>2021-04-24T12:26:29Z</time>
      </trkpt>
      <trkpt lat="43.65695" lon="3.78209">
        <ele>87</ele>
        <time>2021-04-24T12:26:30Z</time>
      </trkpt>
      <trkpt lat="43.65692" lon="3.78213">
        <ele>87</ele>
        <time>2021-04-24T12:26:31Z</time>
      </trkpt>
      <trkpt lat="43.65689" lon="3.78218">
        <ele>87</ele>
        <time>2021-04-24T12:26:32Z</time>
      </trkpt>
      <trkpt lat="43.65687" lon="3.78222">
        <ele>87</ele>
        <time>2021-04-24T12:26:33Z</time>
      </trkpt>
      <trkpt lat="43.65684" lon="3.78227">
        <ele>85</ele>
        <time>2021-04-24T12:26:34Z</time>
      </trkpt>
      <trkpt lat="43.65682" lon="3.78232">
        <ele>85</ele>
        <time>2021-04-24T12:26:35Z</time>
      </trkpt>
      <trkpt lat="43.65679" lon="3.78236">
        <ele>85</ele>
        <time>2021-04-24T12:26:36Z</time>
      </trkpt>
      <trkpt lat="43.65676" lon="3.78241">
        <ele>85</ele>
        <time>2021-04-24T12:26:37Z</time>
      </trkpt>
      <trkpt lat="43.65674" lon="3.78246">
        <ele>85</ele>
        <time>2021-04-24T12:26:38Z</time>
      </trkpt>
      <trkpt lat="43.65672" lon="3.78251">
        <ele>85</ele>
        <time>2021-04-24T12:26:39Z</time>
      </trkpt>
      <trkpt lat="43.6567" lon="3.78255">
        <ele>85</ele>
        <time>2021-04-24T12:26:40Z</time>
      </trkpt>
      <trkpt lat="43.65668" lon="3.7826">
        <ele>85</ele>
        <time>2021-04-24T12:26:41Z</time>
      </trkpt>
      <trkpt lat="43.65666" lon="3.78264">
        <ele>85</ele>
        <time>2021-04-24T12:26:42Z</time>
      </trkpt>
      <trkpt lat="43.65664" lon="3.78268">
        <ele>85</ele>
        <time>2021-04-24T12:26:43Z</time>
      </trkpt>
      <trkpt lat="43.65662" lon="3.78272">
        <ele>84</ele>
        <time>2021-04-24T12:26:44Z</time>
      </trkpt>
      <trkpt lat="43.6566" lon="3.78276">
        <ele>84</ele>
        <time>2021-04-24T12:26:45Z</time>
      </trkpt>
      <trkpt lat="43.65658" lon="3.78279">
        <ele>84</ele>
        <time>2021-04-24T12:26:46Z</time>
      </trkpt>
      <trkpt lat="43.65656" lon="3.78283">
        <ele>84</ele>
        <time>2021-04-24T12:26:47Z</time>
      </trkpt>
      <trkpt lat="43.65654" lon="3.78286">
        <ele>84</ele>
        <time>2021-04-24T12:26:48Z</time>
      </trkpt>
      <trkpt lat="43.65652" lon="3.78288">
        <ele>84</ele>
        <time>2021-04-24T12:26:49Z</time>
      </trkpt>
      <trkpt lat="43.65649" lon="3.78291">
        <ele>84</ele>
        <time>2021-04-24T12:26:50Z</time>
      </trkpt>
      <trkpt lat="43.65647" lon="3.78294">
        <ele>84</ele>
        <time>2021-04-24T12:26:51Z</time>
      </trkpt>
      <trkpt lat="43.65644" lon="3.78297">
        <ele>84</ele>
        <time>2021-04-24T12:26:52Z</time>
      </trkpt>
      <trkpt lat="43.65642" lon="3.783">
        <ele>84</ele>
        <time>2021-04-24T12:26:53Z</time>
      </trkpt>
      <trkpt lat="43.65639" lon="3.78302">
        <ele>83</ele>
        <time>2021-04-24T12:26:54Z</time>
      </trkpt>
      <trkpt lat="43.65636" lon="3.78305">
        <ele>83</ele>
        <time>2021-04-24T12:26:55Z</time>
      </trkpt>
      <trkpt lat="43.65633" lon="3.78309">
        <ele>83</ele>
        <time>2021-04-24T12:26:56Z</time>
      </trkpt>
      <trkpt lat="43.6563" lon="3.78312">
        <ele>83</ele>
        <time>2021-04-24T12:26:57Z</time>
      </trkpt>
      <trkpt lat="43.65627" lon="3.78315">
        <ele>83</ele>
        <time>2021-04-24T12:26:58Z</time>
      </trkpt>
      <trkpt lat="43.65623" lon="3.7832">
        <ele>83</ele>
        <time>2021-04-24T12:26:59Z</time>
      </trkpt>
      <trkpt lat="43.6562" lon="3.78324">
        <ele>83</ele>
        <time>2021-04-24T12:27:00Z</time>
      </trkpt>
      <trkpt lat="43.65616" lon="3.78328">
        <ele>83</ele>
        <time>2021-04-24T12:27:01Z</time>
      </trkpt>
      <trkpt lat="43.65612" lon="3.78331">
        <ele>83</ele>
        <time>2021-04-24T12:27:02Z</time>
      </trkpt>
      <trkpt lat="43.65608" lon="3.78334">
        <ele>83</ele>
        <time>2021-04-24T12:27:03Z</time>
      </trkpt>
      <trkpt lat="43.65603" lon="3.78337">
        <ele>81</ele>
        <time>2021-04-24T12:27:04Z</time>
      </trkpt>
      <trkpt lat="43.65599" lon="3.7834">
        <ele>81</ele>
        <time>2021-04-24T12:27:05Z</time>
      </trkpt>
      <trkpt lat="43.65594" lon="3.78342">
        <ele>81</ele>
        <time>2021-04-24T12:27:06Z</time>
      </trkpt>
      <trkpt lat="43.65589" lon="3.78345">
        <ele>81</ele>
        <time>2021-04-24T12:27:07Z</time>
      </trkpt>
      <trkpt lat="43.65584" lon="3.78347">
        <ele>81</ele>
        <time>2021-04-24T12:27:08Z</time>
      </trkpt>
      <trkpt lat="43.65578" lon="3.78348">
        <ele>81</ele>
        <time>2021-04-24T12:27:09Z</time>
      </trkpt>
      <trkpt lat="43.65573" lon="3.7835">
        <ele>81</ele>
        <time>2021-04-24T12:27:10Z</time>
      </trkpt>
      <trkpt lat="43.65567" lon="3.78351">
        <ele>81</ele>
        <time>2021-04-24T12:27:11Z</time>
      </trkpt>
      <trkpt lat="43.65562" lon="3.78351">
        <ele>81</ele>
        <time>2021-04-24T12:27:12Z</time>
      </trkpt>
      <trkpt lat="43.65557" lon="3.78352">
        <ele>81</ele>
        <time>2021-04-24T12:27:13Z</time>
      </trkpt>
      <trkpt lat="43.65552" lon="3.78352">
        <ele>80</ele>
        <time>2021-04-24T12:27:14Z</time>
      </trkpt>
      <trkpt lat="43.65547" lon="3.78353">
        <ele>80</ele>
        <time>2021-04-24T12:27:15Z</time>
      </trkpt>
      <trkpt lat="43.65542" lon="3.78353">
        <ele>80</ele>
        <time>2021-04-24T12:27:16Z</time>
      </trkpt>
      <trkpt lat="43.65538" lon="3.78352">
        <ele>80</ele>
        <time>2021-04-24T12:27:17Z</time>
      </trkpt>
      <trkpt lat="43.65533" lon="3.78352">
        <ele>80</ele>
        <time>2021-04-24T12:27:18Z</time>
      </trkpt>
      <trkpt lat="43.65529" lon="3.78352">
        <ele>80</ele>
        <time>2021-04-24T12:27:19Z</time>
      </trkpt>
      <trkpt lat="43.65524" lon="3.78352">
        <ele>80</ele>
        <time>2021-04-24T12:27:20Z</time>
      </trkpt>
      <trkpt lat="43.65519" lon="3.78354">
        <ele>80</ele>
        <time>2021-04-24T12:27:21Z</time>
      </trkpt>
      <trkpt lat="43.65515" lon="3.78356">
        <ele>80</ele>
        <time>2021-04-24T12:27:22Z</time>
      </trkpt>
      <trkpt lat="43.6551" lon="3.78359">
        <ele>80</ele>
        <time>2021-04-24T12:27:23Z</time>
      </trkpt>
      <trkpt lat="43.65505" lon="3.78363">
        <ele>78</ele>
        <time>2021-04-24T12:27:24Z</time>
      </trkpt>
      <trkpt lat="43.65501" lon="3.78368">
        <ele>78</ele>
        <time>2021-04-24T12:27:25Z</time>
      </trkpt>
      <trkpt lat="43.65497" lon="3.78374">
        <ele>78</ele>
        <time>2021-04-24T12:27:26Z</time>
      </trkpt>
      <trkpt lat="43.65492" lon="3.7838">
        <ele>78</ele>
        <time>2021-04-24T12:27:27Z</time>
      </trkpt>
      <trkpt lat="43.65487" lon="3.78387">
        <ele>78</ele>
        <time>2021-04-24T12:27:28Z</time>
      </trkpt>
      <trkpt lat="43.65483" lon="3.78394">
        <ele>78</ele>
        <time>2021-04-24T12:27:29Z</time>
      </trkpt>
      <trkpt lat="43.65478" lon="3.78401">
        <ele>78</ele>
        <time>2021-04-24T12:27:30Z</time>
      </trkpt>
      <trkpt lat="43.65473" lon="3.78409">
        <ele>78</ele>
        <time>2021-04-24T12:27:31Z</time>
      </trkpt>
      <trkpt lat="43.65468" lon="3.78417">
        <ele>78</ele>
        <time>2021-04-24T12:27:32Z</time>
      </trkpt>
      <trkpt lat="43.65463" lon="3.78425">
        <ele>78</ele>
        <time>2021-04-24T12:27:33Z</time>
      </trkpt>
      <trkpt lat="43.65459" lon="3.78433">
        <ele>74</ele>
        <time>2021-04-24T12:27:34Z</time>
      </trkpt>
      <trkpt lat="43.65455" lon="3.78442">
        <ele>74</ele>
        <time>2021-04-24T12:27:35Z</time>
      </trkpt>
      <trkpt lat="43.65451" lon="3.7845">
        <ele>74</ele>
        <time>2021-04-24T12:27:36Z</time>
      </trkpt>
      <trkpt lat="43.65447" lon="3.78459">
        <ele>74</ele>
        <time>2021-04-24T12:27:37Z</time>
      </trkpt>
      <trkpt lat="43.65443" lon="3.78468">
        <ele>74</ele>
        <time>2021-04-24T12:27:38Z</time>
      </trkpt>
      <trkpt lat="43.65439" lon="3.78476">
        <ele>74</ele>
        <time>2021-04-24T12:27:39Z</time>
      </trkpt>
      <trkpt lat="43.65436" lon="3.78485">
        <ele>74</ele>
        <time>2021-04-24T12:27:40Z</time>
      </trkpt>
      <trkpt lat="43.65433" lon="3.78494">
        <ele>74</ele>
        <time>2021-04-24T12:27:41Z</time>
      </trkpt>
      <trkpt lat="43.65429" lon="3.78502">
        <ele>74</ele>
        <time>2021-04-24T12:27:42Z</time>
      </trkpt>
      <trkpt lat="43.65427" lon="3.78511">
        <ele>74</ele>
        <time>2021-04-24T12:27:43Z</time>
      </trkpt>
      <trkpt lat="43.65425" lon="3.7852">
        <ele>71</ele>
        <time>2021-04-24T12:27:44Z</time>
      </trkpt>
      <trkpt lat="43.65424" lon="3.78529">
        <ele>71</ele>
        <time>2021-04-24T12:27:45Z</time>
      </trkpt>
      <trkpt lat="43.65424" lon="3.78537">
        <ele>71</ele>
        <time>2021-04-24T12:27:46Z</time>
      </trkpt>
      <trkpt lat="43.65424" lon="3.78546">
        <ele>71</ele>
        <time>2021-04-24T12:27:47Z</time>
      </trkpt>
      <trkpt lat="43.65426" lon="3.78554">
        <ele>71</ele>
        <time>2021-04-24T12:27:48Z</time>
      </trkpt>
      <trkpt lat="43.65427" lon="3.78561">
        <ele>71</ele>
        <time>2021-04-24T12:27:49Z</time>
      </trkpt>
      <trkpt lat="43.65429" lon="3.78569">
        <ele>71</ele>
        <time>2021-04-24T12:27:50Z</time>
      </trkpt>
      <trkpt lat="43.6543" lon="3.78576">
        <ele>71</ele>
        <time>2021-04-24T12:27:51Z</time>
      </trkpt>
      <trkpt lat="43.65431" lon="3.78584">
        <ele>71</ele>
        <time>2021-04-24T12:27:52Z</time>
      </trkpt>
      <trkpt lat="43.65431" lon="3.78593">
        <ele>71</ele>
        <time>2021-04-24T12:27:53Z</time>
      </trkpt>
      <trkpt lat="43.65431" lon="3.78601">
        <ele>67</ele>
        <time>2021-04-24T12:27:54Z</time>
      </trkpt>
      <trkpt lat="43.65429" lon="3.7861">
        <ele>67</ele>
        <time>2021-04-24T12:27:55Z</time>
      </trkpt>
      <trkpt lat="43.65425" lon="3.78617">
        <ele>67</ele>
        <time>2021-04-24T12:27:56Z</time>
      </trkpt>
      <trkpt lat="43.65421" lon="3.78622">
        <ele>67</ele>
        <time>2021-04-24T12:27:57Z</time>
      </trkpt>
      <trkpt lat="43.65416" lon="3.78626">
        <ele>67</ele>
        <time>2021-04-24T12:27:58Z</time>
      </trkpt>
      <trkpt lat="43.65411" lon="3.7863">
        <ele>67</ele>
        <time>2021-04-24T12:27:59Z</time>
      </trkpt>
      <trkpt lat="43.65405" lon="3.78633">
        <ele>67</ele>
        <time>2021-04-24T12:28:00Z</time>
      </trkpt>
      <trkpt lat="43.654" lon="3.78635">
        <ele>67</ele>
        <time>2021-04-24T12:28:01Z</time>
      </trkpt>
      <trkpt lat="43.65396" lon="3.78637">
        <ele>67</ele>
        <time>2021-04-24T12:28:02Z</time>
      </trkpt>
      <trkpt lat="43.65391" lon="3.78639">
        <ele>67</ele>
        <time>2021-04-24T12:28:03Z</time>
      </trkpt>
      <trkpt lat="43.65387" lon="3.78641">
        <ele>66</ele>
        <time>2021-04-24T12:28:04Z</time>
      </trkpt>
      <trkpt lat="43.65383" lon="3.78643">
        <ele>66</ele>
        <time>2021-04-24T12:28:05Z</time>
      </trkpt>
      <trkpt lat="43.65379" lon="3.78644">
        <ele>66</ele>
        <time>2021-04-24T12:28:06Z</time>
      </trkpt>
      <trkpt lat="43.65376" lon="3.78645">
        <ele>66</ele>
        <time>2021-04-24T12:28:07Z</time>
      </trkpt>
      <trkpt lat="43.65373" lon="3.78647">
        <ele>66</ele>
        <time>2021-04-24T12:28:08Z</time>
      </trkpt>
      <trkpt lat="43.6537" lon="3.78648">
        <ele>66</ele>
        <time>2021-04-24T12:28:09Z</time>
      </trkpt>
      <trkpt lat="43.65367" lon="3.7865">
        <ele>66</ele>
        <time>2021-04-24T12:28:10Z</time>
      </trkpt>
      <trkpt lat="43.65364" lon="3.78651">
        <ele>66</ele>
        <time>2021-04-24T12:28:11Z</time>
      </trkpt>
      <trkpt lat="43.65361" lon="3.78653">
        <ele>66</ele>
        <time>2021-04-24T12:28:12Z</time>
      </trkpt>
      <trkpt lat="43.65359" lon="3.78654">
        <ele>66</ele>
        <time>2021-04-24T12:28:13Z</time>
      </trkpt>
      <trkpt lat="43.65356" lon="3.78656">
        <ele>67</ele>
        <time>2021-04-24T12:28:14Z</time>
      </trkpt>
      <trkpt lat="43.65354" lon="3.78657">
        <ele>67</ele>
        <time>2021-04-24T12:28:15Z</time>
      </trkpt>
      <trkpt lat="43.65352" lon="3.78659">
        <ele>67</ele>
        <time>2021-04-24T12:28:16Z</time>
      </trkpt>
      <trkpt lat="43.65349" lon="3.7866">
        <ele>67</ele>
        <time>2021-04-24T12:28:17Z</time>
      </trkpt>
      <trkpt lat="43.65347" lon="3.78662">
        <ele>67</ele>
        <time>2021-04-24T12:28:18Z</time>
      </trkpt>
      <trkpt lat="43.65345" lon="3.78663">
        <ele>67</ele>
        <time>2021-04-24T12:28:19Z</time>
      </trkpt>
      <trkpt lat="43.65342" lon="3.78665">
        <ele>67</ele>
        <time>2021-04-24T12:28:20Z</time>
      </trkpt>
      <trkpt lat="43.6534" lon="3.78667">
        <ele>67</ele>
        <time>2021-04-24T12:28:21Z</time>
      </trkpt>
      <trkpt lat="43.65337" lon="3.78669">
        <ele>67</ele>
        <time>2021-04-24T12:28:22Z</time>
      </trkpt>
      <trkpt lat="43.65335" lon="3.78671">
        <ele>67</ele>
        <time>2021-04-24T12:28:23Z</time>
      </trkpt>
      <trkpt lat="43.65332" lon="3.78673">
        <ele>68</ele>
        <time>2021-04-24T12:28:24Z</time>
      </trkpt>
      <trkpt lat="43.6533" lon="3.78675">
        <ele>68</ele>
        <time>2021-04-24T12:28:25Z</time>
      </trkpt>
      <trkpt lat="43.65327" lon="3.78677">
        <ele>68</ele>
        <time>2021-04-24T12:28:26Z</time>
      </trkpt>
      <trkpt lat="43.65325" lon="3.7868">
        <ele>68</ele>
        <time>2021-04-24T12:28:27Z</time>
      </trkpt>
      <trkpt lat="43.65322" lon="3.78682">
        <ele>68</ele>
        <time>2021-04-24T12:28:28Z</time>
      </trkpt>
      <trkpt lat="43.65319" lon="3.78684">
        <ele>68</ele>
        <time>2021-04-24T12:28:29Z</time>
      </trkpt>
      <trkpt lat="43.65317" lon="3.78687">
        <ele>68</ele>
        <time>2021-04-24T12:28:30Z</time>
      </trkpt>
      <trkpt lat="43.65314" lon="3.78689">
        <ele>68</ele>
        <time>2021-04-24T12:28:31Z</time>
      </trkpt>
      <trkpt lat="43.65311" lon="3.78691">
        <ele>68</ele>
        <time>2021-04-24T12:28:32Z</time>
      </trkpt>
      <trkpt lat="43.65308" lon="3.78694">
        <ele>68</ele>
        <time>2021-04-24T12:28:33Z</time>
      </trkpt>
      <trkpt lat="43.65304" lon="3.78697">
        <ele>69</ele>
        <time>2021-04-24T12:28:34Z</time>
      </trkpt>
      <trkpt lat="43.65301" lon="3.78699">
        <ele>69</ele>
        <time>2021-04-24T12:28:35Z</time>
      </trkpt>
      <trkpt lat="43.65298" lon="3.78701">
        <ele>69</ele>
        <time>2021-04-24T12:28:36Z</time>
      </trkpt>
      <trkpt lat="43.65294" lon="3.78703">
        <ele>69</ele>
        <time>2021-04-24T12:28:37Z</time>
      </trkpt>
      <trkpt lat="43.65291" lon="3.78704">
        <ele>69</ele>
        <time>2021-04-24T12:28:38Z</time>
      </trkpt>
      <trkpt lat="43.65288" lon="3.78706">
        <ele>69</ele>
        <time>2021-04-24T12:28:39Z</time>
      </trkpt>
      <trkpt lat="43.65285" lon="3.78707">
        <ele>69</ele>
        <time>2021-04-24T12:28:40Z</time>
      </trkpt>
      <trkpt lat="43.65282" lon="3.78709">
        <ele>69</ele>
        <time>2021-04-24T12:28:41Z</time>
      </trkpt>
      <trkpt lat="43.65279" lon="3.78711">
        <ele>69</ele>
        <time>2021-04-24T12:28:42Z</time>
      </trkpt>
      <trkpt lat="43.65276" lon="3.78712">
        <ele>69</ele>
        <time>2021-04-24T12:28:43Z</time>
      </trkpt>
      <trkpt lat="43.65273" lon="3.78714">
        <ele>69</ele>
        <time>2021-04-24T12:28:44Z</time>
      </trkpt>
      <trkpt lat="43.65271" lon="3.78715">
        <ele>69</ele>
        <time>2021-04-24T12:28:45Z</time>
      </trkpt>
      <trkpt lat="43.65268" lon="3.78716">
        <ele>69</ele>
        <time>2021-04-24T12:28:46Z</time>
      </trkpt>
      <trkpt lat="43.65265" lon="3.78717">
        <ele>69</ele>
        <time>2021-04-24T12:28:47Z</time>
      </trkpt>
      <trkpt lat="43.65263" lon="3.78718">
        <ele>69</ele>
        <time>2021-04-24T12:28:48Z</time>
      </trkpt>
      <trkpt lat="43.6526" lon="3.7872">
        <ele>69</ele>
        <time>2021-04-24T12:28:49Z</time>
      </trkpt>
      <trkpt lat="43.65257" lon="3.78721">
        <ele>69</ele>
        <time>2021-04-24T12:28:50Z</time>
      </trkpt>
      <trkpt lat="43.65254" lon="3.78722">
        <ele>69</ele>
        <time>2021-04-24T12:28:51Z</time>
      </trkpt>
      <trkpt lat="43.65251" lon="3.78724">
        <ele>69</ele>
        <time>2021-04-24T12:28:52Z</time>
      </trkpt>
      <trkpt lat="43.65248" lon="3.78725">
        <ele>69</ele>
        <time>2021-04-24T12:28:53Z</time>
      </trkpt>
      <trkpt lat="43.65244" lon="3.78727">
        <ele>68</ele>
        <time>2021-04-24T12:28:54Z</time>
      </trkpt>
      <trkpt lat="43.65241" lon="3.7873">
        <ele>68</ele>
        <time>2021-04-24T12:28:55Z</time>
      </trkpt>
      <trkpt lat="43.65238" lon="3.78732">
        <ele>68</ele>
        <time>2021-04-24T12:28:56Z</time>
      </trkpt>
      <trkpt lat="43.65234" lon="3.78734">
        <ele>68</ele>
        <time>2021-04-24T12:28:57Z</time>
      </trkpt>
      <trkpt lat="43.6523" lon="3.78737">
        <ele>68</ele>
        <time>2021-04-24T12:28:58Z</time>
      </trkpt>
      <trkpt lat="43.65227" lon="3.78741">
        <ele>68</ele>
        <time>2021-04-24T12:28:59Z</time>
      </trkpt>
      <trkpt lat="43.65224" lon="3.78745">
        <ele>68</ele>
        <time>2021-04-24T12:29:00Z</time>
      </trkpt>
      <trkpt lat="43.65221" lon="3.78749">
        <ele>68</ele>
        <time>2021-04-24T12:29:01Z</time>
      </trkpt>
      <trkpt lat="43.65219" lon="3.78753">
        <ele>68</ele>
        <time>2021-04-24T12:29:02Z</time>
      </trkpt>
      <trkpt lat="43.65218" lon="3.78757">
        <ele>68</ele>
        <time>2021-04-24T12:29:03Z</time>
      </trkpt>
      <trkpt lat="43.65216" lon="3.78762">
        <ele>66</ele>
        <time>2021-04-24T12:29:04Z</time>
      </trkpt>
      <trkpt lat="43.65214" lon="3.78766">
        <ele>66</ele>
        <time>2021-04-24T12:29:05Z</time>
      </trkpt>
      <trkpt lat="43.65212" lon="3.78769">
        <ele>66</ele>
        <time>2021-04-24T12:29:06Z</time>
      </trkpt>
      <trkpt lat="43.6521" lon="3.78773">
        <ele>66</ele>
        <time>2021-04-24T12:29:07Z</time>
      </trkpt>
      <trkpt lat="43.65207" lon="3.78775">
        <ele>66</ele>
        <time>2021-04-24T12:29:08Z</time>
      </trkpt>
      <trkpt lat="43.65205" lon="3.78777">
        <ele>66</ele>
        <time>2021-04-24T12:29:09Z</time>
      </trkpt>
      <trkpt lat="43.65203" lon="3.7878">
        <ele>66</ele>
        <time>2021-04-24T12:29:10Z</time>
      </trkpt>
      <trkpt lat="43.652" lon="3.78782">
        <ele>66</ele>
        <time>2021-04-24T12:29:11Z</time>
      </trkpt>
      <trkpt lat="43.65197" lon="3.78785">
        <ele>66</ele>
        <time>2021-04-24T12:29:12Z</time>
      </trkpt>
      <trkpt lat="43.65193" lon="3.78787">
        <ele>66</ele>
        <time>2021-04-24T12:29:13Z</time>
      </trkpt>
      <trkpt lat="43.6519" lon="3.78789">
        <ele>66</ele>
        <time>2021-04-24T12:29:14Z</time>
      </trkpt>
      <trkpt lat="43.65186" lon="3.78791">
        <ele>66</ele>
        <time>2021-04-24T12:29:15Z</time>
      </trkpt>
      <trkpt lat="43.65182" lon="3.78793">
        <ele>66</ele>
        <time>2021-04-24T12:29:16Z</time>
      </trkpt>
      <trkpt lat="43.65179" lon="3.78795">
        <ele>66</ele>
        <time>2021-04-24T12:29:17Z</time>
      </trkpt>
      <trkpt lat="43.65176" lon="3.78798">
        <ele>66</ele>
        <time>2021-04-24T12:29:18Z</time>
      </trkpt>
      <trkpt lat="43.65172" lon="3.788">
        <ele>66</ele>
        <time>2021-04-24T12:29:19Z</time>
      </trkpt>
      <trkpt lat="43.65168" lon="3.78802">
        <ele>66</ele>
        <time>2021-04-24T12:29:20Z</time>
      </trkpt>
      <trkpt lat="43.65164" lon="3.78804">
        <ele>66</ele>
        <time>2021-04-24T12:29:21Z</time>
      </trkpt>
      <trkpt lat="43.6516" lon="3.78806">
        <ele>66</ele>
        <time>2021-04-24T12:29:22Z</time>
      </trkpt>
      <trkpt lat="43.65156" lon="3.78808">
        <ele>66</ele>
        <time>2021-04-24T12:29:23Z</time>
      </trkpt>
      <trkpt lat="43.65152" lon="3.7881">
        <ele>67</ele>
        <time>2021-04-24T12:29:24Z</time>
      </trkpt>
      <trkpt lat="43.65149" lon="3.78813">
        <ele>67</ele>
        <time>2021-04-24T12:29:25Z</time>
      </trkpt>
      <trkpt lat="43.65148" lon="3.78819">
        <ele>67</ele>
        <time>2021-04-24T12:29:26Z</time>
      </trkpt>
      <trkpt lat="43.65148" lon="3.78825">
        <ele>67</ele>
        <time>2021-04-24T12:29:27Z</time>
      </trkpt>
      <trkpt lat="43.65148" lon="3.78831">
        <ele>67</ele>
        <time>2021-04-24T12:29:28Z</time>
      </trkpt>
      <trkpt lat="43.65148" lon="3.78839">
        <ele>67</ele>
        <time>2021-04-24T12:29:29Z</time>
      </trkpt>
      <trkpt lat="43.65148" lon="3.78847">
        <ele>67</ele>
        <time>2021-04-24T12:29:30Z</time>
      </trkpt>
      <trkpt lat="43.65147" lon="3.78854">
        <ele>67</ele>
        <time>2021-04-24T12:29:31Z</time>
      </trkpt>
      <trkpt lat="43.65145" lon="3.78861">
        <ele>67</ele>
        <time>2021-04-24T12:29:32Z</time>
      </trkpt>
      <trkpt lat="43.65142" lon="3.78866">
        <ele>67</ele>
        <time>2021-04-24T12:29:33Z</time>
      </trkpt>
      <trkpt lat="43.65139" lon="3.7887">
        <ele>65</ele>
        <time>2021-04-24T12:29:34Z</time>
      </trkpt>
      <trkpt lat="43.65135" lon="3.78873">
        <ele>65</ele>
        <time>2021-04-24T12:29:35Z</time>
      </trkpt>
      <trkpt lat="43.65131" lon="3.78877">
        <ele>65</ele>
        <time>2021-04-24T12:29:36Z</time>
      </trkpt>
      <trkpt lat="43.65126" lon="3.7888">
        <ele>65</ele>
        <time>2021-04-24T12:29:37Z</time>
      </trkpt>
      <trkpt lat="43.65121" lon="3.78883">
        <ele>65</ele>
        <time>2021-04-24T12:29:38Z</time>
      </trkpt>
      <trkpt lat="43.65116" lon="3.78887">
        <ele>65</ele>
        <time>2021-04-24T12:29:39Z</time>
      </trkpt>
      <trkpt lat="43.65111" lon="3.7889">
        <ele>65</ele>
        <time>2021-04-24T12:29:40Z</time>
      </trkpt>
      <trkpt lat="43.65106" lon="3.78894">
        <ele>65</ele>
        <time>2021-04-24T12:29:41Z</time>
      </trkpt>
      <trkpt lat="43.65102" lon="3.78899">
        <ele>65</ele>
        <time>2021-04-24T12:29:42Z</time>
      </trkpt>
      <trkpt lat="43.65098" lon="3.78904">
        <ele>65</ele>
        <time>2021-04-24T12:29:43Z</time>
      </trkpt>
      <trkpt lat="43.65094" lon="3.78908">
        <ele>66</ele>
        <time>2021-04-24T12:29:44Z</time>
      </trkpt>
      <trkpt lat="43.65091" lon="3.78913">
        <ele>66</ele>
        <time>2021-04-24T12:29:45Z</time>
      </trkpt>
      <trkpt lat="43.65088" lon="3.78919">
        <ele>66</ele>
        <time>2021-04-24T12:29:46Z</time>
      </trkpt>
      <trkpt lat="43.65086" lon="3.78925">
        <ele>66</ele>
        <time>2021-04-24T12:29:47Z</time>
      </trkpt>
      <trkpt lat="43.65085" lon="3.78932">
        <ele>66</ele>
        <time>2021-04-24T12:29:48Z</time>
      </trkpt>
      <trkpt lat="43.65082" lon="3.78937">
        <ele>66</ele>
        <time>2021-04-24T12:29:49Z</time>
      </trkpt>
      <trkpt lat="43.65079" lon="3.78941">
        <ele>66</ele>
        <time>2021-04-24T12:29:50Z</time>
      </trkpt>
      <trkpt lat="43.65077" lon="3.78945">
        <ele>66</ele>
        <time>2021-04-24T12:29:51Z</time>
      </trkpt>
      <trkpt lat="43.65074" lon="3.78949">
        <ele>66</ele>
        <time>2021-04-24T12:29:52Z</time>
      </trkpt>
      <trkpt lat="43.65071" lon="3.78953">
        <ele>66</ele>
        <time>2021-04-24T12:29:53Z</time>
      </trkpt>
      <trkpt lat="43.65068" lon="3.78955">
        <ele>66</ele>
        <time>2021-04-24T12:29:54Z</time>
      </trkpt>
      <trkpt lat="43.65066" lon="3.78959">
        <ele>66</ele>
        <time>2021-04-24T12:29:55Z</time>
      </trkpt>
      <trkpt lat="43.65062" lon="3.78961">
        <ele>66</ele>
        <time>2021-04-24T12:29:56Z</time>
      </trkpt>
      <trkpt lat="43.65059" lon="3.78965">
        <ele>66</ele>
        <time>2021-04-24T12:29:57Z</time>
      </trkpt>
      <trkpt lat="43.65055" lon="3.78968">
        <ele>66</ele>
        <time>2021-04-24T12:29:58Z</time>
      </trkpt>
      <trkpt lat="43.65051" lon="3.78971">
        <ele>66</ele>
        <time>2021-04-24T12:29:59Z</time>
      </trkpt>
      <trkpt lat="43.65047" lon="3.78974">
        <ele>66</ele>
        <time>2021-04-24T12:30:00Z</time>
      </trkpt>
      <trkpt lat="43.65044" lon="3.78976">
        <ele>66</ele>
        <time>2021-04-24T12:30:01Z</time>
      </trkpt>
      <trkpt lat="43.6504" lon="3.78978">
        <ele>66</ele>
        <time>2021-04-24T12:30:02Z</time>
      </trkpt>
      <trkpt lat="43.65035" lon="3.7898">
        <ele>66</ele>
        <time>2021-04-24T12:30:03Z</time>
      </trkpt>
      <trkpt lat="43.6503" lon="3.78982">
        <ele>66</ele>
        <time>2021-04-24T12:30:04Z</time>
      </trkpt>
      <trkpt lat="43.65024" lon="3.78984">
        <ele>66</ele>
        <time>2021-04-24T12:30:05Z</time>
      </trkpt>
      <trkpt lat="43.65019" lon="3.78987">
        <ele>66</ele>
        <time>2021-04-24T12:30:06Z</time>
      </trkpt>
      <trkpt lat="43.65014" lon="3.78989">
        <ele>66</ele>
        <time>2021-04-24T12:30:07Z</time>
      </trkpt>
      <trkpt lat="43.65011" lon="3.7899">
        <ele>66</ele>
        <time>2021-04-24T12:30:08Z</time>
      </trkpt>
      <trkpt lat="43.65008" lon="3.7899">
        <ele>66</ele>
        <time>2021-04-24T12:30:09Z</time>
      </trkpt>
      <trkpt lat="43.65005" lon="3.7899">
        <ele>66</ele>
        <time>2021-04-24T12:30:10Z</time>
      </trkpt>
      <trkpt lat="43.65003" lon="3.7899">
        <ele>66</ele>
        <time>2021-04-24T12:30:11Z</time>
      </trkpt>
      <trkpt lat="43.65" lon="3.7899">
        <ele>66</ele>
        <time>2021-04-24T12:30:13Z</time>
      </trkpt>
      <trkpt lat="43.64997" lon="3.78991">
        <ele>66</ele>
        <time>2021-04-24T12:30:15Z</time>
      </trkpt>
      <trkpt lat="43.64994" lon="3.78991">
        <ele>66</ele>
        <time>2021-04-24T12:30:17Z</time>
      </trkpt>
      <trkpt lat="43.64991" lon="3.78991">
        <ele>66</ele>
        <time>2021-04-24T12:30:19Z</time>
      </trkpt>
      <trkpt lat="43.6499" lon="3.78993">
        <ele>66</ele>
        <time>2021-04-24T12:30:22Z</time>
      </trkpt>
      <trkpt lat="43.64988" lon="3.78995">
        <ele>66</ele>
        <time>2021-04-24T12:30:26Z</time>
      </trkpt>
      <trkpt lat="43.64984" lon="3.78997">
        <ele>66</ele>
        <time>2021-04-24T12:30:28Z</time>
      </trkpt>
      <trkpt lat="43.64982" lon="3.78997">
        <ele>66</ele>
        <time>2021-04-24T12:30:29Z</time>
      </trkpt>
      <trkpt lat="43.64979" lon="3.78998">
        <ele>66</ele>
        <time>2021-04-24T12:30:30Z</time>
      </trkpt>
      <trkpt lat="43.64977" lon="3.78999">
        <ele>66</ele>
        <time>2021-04-24T12:30:31Z</time>
      </trkpt>
      <trkpt lat="43.64974" lon="3.78999">
        <ele>66</ele>
        <time>2021-04-24T12:30:32Z</time>
      </trkpt>
      <trkpt lat="43.64971" lon="3.78999">
        <ele>66</ele>
        <time>2021-04-24T12:30:33Z</time>
      </trkpt>
      <trkpt lat="43.64967" lon="3.78999">
        <ele>64</ele>
        <time>2021-04-24T12:30:34Z</time>
      </trkpt>
      <trkpt lat="43.64964" lon="3.78999">
        <ele>64</ele>
        <time>2021-04-24T12:30:35Z</time>
      </trkpt>
      <trkpt lat="43.64961" lon="3.79">
        <ele>64</ele>
        <time>2021-04-24T12:30:36Z</time>
      </trkpt>
      <trkpt lat="43.64958" lon="3.79">
        <ele>64</ele>
        <time>2021-04-24T12:30:37Z</time>
      </trkpt>
      <trkpt lat="43.64954" lon="3.79001">
        <ele>64</ele>
        <time>2021-04-24T12:30:38Z</time>
      </trkpt>
      <trkpt lat="43.64951" lon="3.79002">
        <ele>64</ele>
        <time>2021-04-24T12:30:39Z</time>
      </trkpt>
      <trkpt lat="43.64948" lon="3.79004">
        <ele>64</ele>
        <time>2021-04-24T12:30:40Z</time>
      </trkpt>
      <trkpt lat="43.64946" lon="3.79006">
        <ele>64</ele>
        <time>2021-04-24T12:30:41Z</time>
      </trkpt>
      <trkpt lat="43.64944" lon="3.79007">
        <ele>64</ele>
        <time>2021-04-24T12:30:42Z</time>
      </trkpt>
      <trkpt lat="43.64942" lon="3.7901">
        <ele>64</ele>
        <time>2021-04-24T12:30:43Z</time>
      </trkpt>
      <trkpt lat="43.6494" lon="3.79013">
        <ele>64</ele>
        <time>2021-04-24T12:30:44Z</time>
      </trkpt>
      <trkpt lat="43.64938" lon="3.79015">
        <ele>64</ele>
        <time>2021-04-24T12:30:45Z</time>
      </trkpt>
      <trkpt lat="43.64936" lon="3.79017">
        <ele>64</ele>
        <time>2021-04-24T12:30:46Z</time>
      </trkpt>
      <trkpt lat="43.64933" lon="3.79019">
        <ele>64</ele>
        <time>2021-04-24T12:30:47Z</time>
      </trkpt>
      <trkpt lat="43.6493" lon="3.7902">
        <ele>64</ele>
        <time>2021-04-24T12:30:48Z</time>
      </trkpt>
      <trkpt lat="43.64928" lon="3.79021">
        <ele>64</ele>
        <time>2021-04-24T12:30:49Z</time>
      </trkpt>
      <trkpt lat="43.64926" lon="3.79025">
        <ele>64</ele>
        <time>2021-04-24T12:30:51Z</time>
      </trkpt>
      <trkpt lat="43.64925" lon="3.79027">
        <ele>64</ele>
        <time>2021-04-24T12:30:52Z</time>
      </trkpt>
      <trkpt lat="43.64922" lon="3.7903">
        <ele>66</ele>
        <time>2021-04-24T12:30:54Z</time>
      </trkpt>
      <trkpt lat="43.6492" lon="3.79032">
        <ele>66</ele>
        <time>2021-04-24T12:30:56Z</time>
      </trkpt>
      <trkpt lat="43.64918" lon="3.79034">
        <ele>66</ele>
        <time>2021-04-24T12:30:58Z</time>
      </trkpt>
      <trkpt lat="43.64915" lon="3.79035">
        <ele>66</ele>
        <time>2021-04-24T12:31:02Z</time>
      </trkpt>
      <trkpt lat="43.64913" lon="3.79035">
        <ele>66</ele>
        <time>2021-04-24T12:31:03Z</time>
      </trkpt>
      <trkpt lat="43.64911" lon="3.79037">
        <ele>66</ele>
        <time>2021-04-24T12:31:04Z</time>
      </trkpt>
      <trkpt lat="43.64908" lon="3.79039">
        <ele>66</ele>
        <time>2021-04-24T12:31:05Z</time>
      </trkpt>
      <trkpt lat="43.64904" lon="3.79041">
        <ele>66</ele>
        <time>2021-04-24T12:31:06Z</time>
      </trkpt>
      <trkpt lat="43.64901" lon="3.79042">
        <ele>66</ele>
        <time>2021-04-24T12:31:07Z</time>
      </trkpt>
      <trkpt lat="43.64898" lon="3.79043">
        <ele>66</ele>
        <time>2021-04-24T12:31:08Z</time>
      </trkpt>
      <trkpt lat="43.64895" lon="3.79044">
        <ele>66</ele>
        <time>2021-04-24T12:31:09Z</time>
      </trkpt>
      <trkpt lat="43.64892" lon="3.79046">
        <ele>66</ele>
        <time>2021-04-24T12:31:10Z</time>
      </trkpt>
      <trkpt lat="43.6489" lon="3.79048">
        <ele>66</ele>
        <time>2021-04-24T12:31:11Z</time>
      </trkpt>
      <trkpt lat="43.64888" lon="3.7905">
        <ele>66</ele>
        <time>2021-04-24T12:31:12Z</time>
      </trkpt>
      <trkpt lat="43.64886" lon="3.79053">
        <ele>66</ele>
        <time>2021-04-24T12:31:13Z</time>
      </trkpt>
      <trkpt lat="43.64883" lon="3.79055">
        <ele>67</ele>
        <time>2021-04-24T12:31:14Z</time>
      </trkpt>
      <trkpt lat="43.64881" lon="3.79057">
        <ele>67</ele>
        <time>2021-04-24T12:31:15Z</time>
      </trkpt>
      <trkpt lat="43.64878" lon="3.79059">
        <ele>67</ele>
        <time>2021-04-24T12:31:16Z</time>
      </trkpt>
      <trkpt lat="43.64875" lon="3.79062">
        <ele>67</ele>
        <time>2021-04-24T12:31:17Z</time>
      </trkpt>
      <trkpt lat="43.64872" lon="3.79064">
        <ele>67</ele>
        <time>2021-04-24T12:31:18Z</time>
      </trkpt>
      <trkpt lat="43.6487" lon="3.79067">
        <ele>67</ele>
        <time>2021-04-24T12:31:19Z</time>
      </trkpt>
      <trkpt lat="43.64867" lon="3.7907">
        <ele>67</ele>
        <time>2021-04-24T12:31:20Z</time>
      </trkpt>
      <trkpt lat="43.64865" lon="3.79073">
        <ele>67</ele>
        <time>2021-04-24T12:31:21Z</time>
      </trkpt>
      <trkpt lat="43.64862" lon="3.79075">
        <ele>67</ele>
        <time>2021-04-24T12:31:22Z</time>
      </trkpt>
      <trkpt lat="43.64859" lon="3.79074">
        <ele>67</ele>
        <time>2021-04-24T12:31:23Z</time>
      </trkpt>
      <trkpt lat="43.64855" lon="3.79073">
        <ele>66</ele>
        <time>2021-04-24T12:31:24Z</time>
      </trkpt>
      <trkpt lat="43.64852" lon="3.79072">
        <ele>66</ele>
        <time>2021-04-24T12:31:25Z</time>
      </trkpt>
      <trkpt lat="43.64849" lon="3.79072">
        <ele>66</ele>
        <time>2021-04-24T12:31:26Z</time>
      </trkpt>
      <trkpt lat="43.64847" lon="3.79072">
        <ele>66</ele>
        <time>2021-04-24T12:31:27Z</time>
      </trkpt>
      <trkpt lat="43.64845" lon="3.79073">
        <ele>66</ele>
        <time>2021-04-24T12:31:28Z</time>
      </trkpt>
      <trkpt lat="43.64843" lon="3.79076">
        <ele>66</ele>
        <time>2021-04-24T12:31:29Z</time>
      </trkpt>
      <trkpt lat="43.64842" lon="3.79079">
        <ele>66</ele>
        <time>2021-04-24T12:31:30Z</time>
      </trkpt>
      <trkpt lat="43.6484" lon="3.79083">
        <ele>66</ele>
        <time>2021-04-24T12:31:31Z</time>
      </trkpt>
      <trkpt lat="43.64838" lon="3.79088">
        <ele>66</ele>
        <time>2021-04-24T12:31:32Z</time>
      </trkpt>
      <trkpt lat="43.64836" lon="3.79093">
        <ele>66</ele>
        <time>2021-04-24T12:31:33Z</time>
      </trkpt>
      <trkpt lat="43.64833" lon="3.79097">
        <ele>65</ele>
        <time>2021-04-24T12:31:34Z</time>
      </trkpt>
      <trkpt lat="43.6483" lon="3.79102">
        <ele>65</ele>
        <time>2021-04-24T12:31:35Z</time>
      </trkpt>
      <trkpt lat="43.64827" lon="3.79106">
        <ele>65</ele>
        <time>2021-04-24T12:31:36Z</time>
      </trkpt>
      <trkpt lat="43.64824" lon="3.7911">
        <ele>65</ele>
        <time>2021-04-24T12:31:37Z</time>
      </trkpt>
      <trkpt lat="43.64821" lon="3.79113">
        <ele>65</ele>
        <time>2021-04-24T12:31:38Z</time>
      </trkpt>
      <trkpt lat="43.64819" lon="3.79115">
        <ele>65</ele>
        <time>2021-04-24T12:31:39Z</time>
      </trkpt>
      <trkpt lat="43.64816" lon="3.79117">
        <ele>65</ele>
        <time>2021-04-24T12:31:40Z</time>
      </trkpt>
      <trkpt lat="43.64813" lon="3.79119">
        <ele>65</ele>
        <time>2021-04-24T12:31:41Z</time>
      </trkpt>
      <trkpt lat="43.64811" lon="3.79121">
        <ele>65</ele>
        <time>2021-04-24T12:31:42Z</time>
      </trkpt>
      <trkpt lat="43.64808" lon="3.79122">
        <ele>65</ele>
        <time>2021-04-24T12:31:43Z</time>
      </trkpt>
      <trkpt lat="43.64806" lon="3.79124">
        <ele>65</ele>
        <time>2021-04-24T12:31:44Z</time>
      </trkpt>
      <trkpt lat="43.64804" lon="3.79126">
        <ele>65</ele>
        <time>2021-04-24T12:31:45Z</time>
      </trkpt>
      <trkpt lat="43.64802" lon="3.79128">
        <ele>65</ele>
        <time>2021-04-24T12:31:46Z</time>
      </trkpt>
      <trkpt lat="43.648" lon="3.79129">
        <ele>65</ele>
        <time>2021-04-24T12:31:47Z</time>
      </trkpt>
      <trkpt lat="43.64797" lon="3.79131">
        <ele>65</ele>
        <time>2021-04-24T12:31:48Z</time>
      </trkpt>
      <trkpt lat="43.64796" lon="3.79131">
        <ele>65</ele>
        <time>2021-04-24T12:31:49Z</time>
      </trkpt>
      <trkpt lat="43.64792" lon="3.79132">
        <ele>65</ele>
        <time>2021-04-24T12:31:51Z</time>
      </trkpt>
      <trkpt lat="43.6479" lon="3.79135">
        <ele>65</ele>
        <time>2021-04-24T12:31:53Z</time>
      </trkpt>
      <trkpt lat="43.64788" lon="3.79137">
        <ele>66</ele>
        <time>2021-04-24T12:31:54Z</time>
      </trkpt>
      <trkpt lat="43.64787" lon="3.79139">
        <ele>66</ele>
        <time>2021-04-24T12:31:55Z</time>
      </trkpt>
      <trkpt lat="43.64785" lon="3.79141">
        <ele>66</ele>
        <time>2021-04-24T12:31:56Z</time>
      </trkpt>
      <trkpt lat="43.64783" lon="3.79143">
        <ele>66</ele>
        <time>2021-04-24T12:31:57Z</time>
      </trkpt>
      <trkpt lat="43.6478" lon="3.79144">
        <ele>66</ele>
        <time>2021-04-24T12:31:58Z</time>
      </trkpt>
      <trkpt lat="43.64778" lon="3.79146">
        <ele>66</ele>
        <time>2021-04-24T12:31:59Z</time>
      </trkpt>
      <trkpt lat="43.64775" lon="3.79147">
        <ele>66</ele>
        <time>2021-04-24T12:32:00Z</time>
      </trkpt>
      <trkpt lat="43.64773" lon="3.79148">
        <ele>66</ele>
        <time>2021-04-24T12:32:01Z</time>
      </trkpt>
      <trkpt lat="43.6477" lon="3.79148">
        <ele>66</ele>
        <time>2021-04-24T12:32:02Z</time>
      </trkpt>
      <trkpt lat="43.64769" lon="3.79147">
        <ele>66</ele>
        <time>2021-04-24T12:32:03Z</time>
      </trkpt>
      <trkpt lat="43.64768" lon="3.79145">
        <ele>67</ele>
        <time>2021-04-24T12:32:10Z</time>
      </trkpt>
      <trkpt lat="43.64755" lon="3.7916">
        <ele>68</ele>
        <time>2021-04-24T12:32:49Z</time>
      </trkpt>
      <trkpt lat="43.64753" lon="3.79162">
        <ele>68</ele>
        <time>2021-04-24T12:32:50Z</time>
      </trkpt>
      <trkpt lat="43.6475" lon="3.79164">
        <ele>68</ele>
        <time>2021-04-24T12:32:51Z</time>
      </trkpt>
      <trkpt lat="43.64747" lon="3.79166">
        <ele>68</ele>
        <time>2021-04-24T12:32:52Z</time>
      </trkpt>
      <trkpt lat="43.64744" lon="3.79168">
        <ele>68</ele>
        <time>2021-04-24T12:32:53Z</time>
      </trkpt>
      <trkpt lat="43.64741" lon="3.7917">
        <ele>68</ele>
        <time>2021-04-24T12:32:54Z</time>
      </trkpt>
      <trkpt lat="43.64738" lon="3.79173">
        <ele>68</ele>
        <time>2021-04-24T12:32:55Z</time>
      </trkpt>
      <trkpt lat="43.64736" lon="3.79176">
        <ele>68</ele>
        <time>2021-04-24T12:32:56Z</time>
      </trkpt>
      <trkpt lat="43.64733" lon="3.7918">
        <ele>68</ele>
        <time>2021-04-24T12:32:57Z</time>
      </trkpt>
      <trkpt lat="43.64729" lon="3.79183">
        <ele>68</ele>
        <time>2021-04-24T12:32:58Z</time>
      </trkpt>
      <trkpt lat="43.64726" lon="3.79185">
        <ele>69</ele>
        <time>2021-04-24T12:32:59Z</time>
      </trkpt>
      <trkpt lat="43.64722" lon="3.79187">
        <ele>69</ele>
        <time>2021-04-24T12:33:00Z</time>
      </trkpt>
      <trkpt lat="43.64719" lon="3.79189">
        <ele>69</ele>
        <time>2021-04-24T12:33:01Z</time>
      </trkpt>
      <trkpt lat="43.64715" lon="3.79191">
        <ele>69</ele>
        <time>2021-04-24T12:33:02Z</time>
      </trkpt>
      <trkpt lat="43.64712" lon="3.79193">
        <ele>69</ele>
        <time>2021-04-24T12:33:03Z</time>
      </trkpt>
      <trkpt lat="43.64709" lon="3.79194">
        <ele>69</ele>
        <time>2021-04-24T12:33:04Z</time>
      </trkpt>
      <trkpt lat="43.64707" lon="3.79195">
        <ele>69</ele>
        <time>2021-04-24T12:33:05Z</time>
      </trkpt>
      <trkpt lat="43.64704" lon="3.79196">
        <ele>69</ele>
        <time>2021-04-24T12:33:06Z</time>
      </trkpt>
      <trkpt lat="43.64703" lon="3.79197">
        <ele>69</ele>
        <time>2021-04-24T12:33:07Z</time>
      </trkpt>
      <trkpt lat="43.64699" lon="3.79199">
        <ele>70</ele>
        <time>2021-04-24T12:33:09Z</time>
      </trkpt>
      <trkpt lat="43.64698" lon="3.792">
        <ele>70</ele>
        <time>2021-04-24T12:33:10Z</time>
      </trkpt>
      <trkpt lat="43.64696" lon="3.79201">
        <ele>70</ele>
        <time>2021-04-24T12:33:11Z</time>
      </trkpt>
      <trkpt lat="43.64696" lon="3.79204">
        <ele>70</ele>
        <time>2021-04-24T12:33:16Z</time>
      </trkpt>
      <trkpt lat="43.64693" lon="3.79208">
        <ele>69</ele>
        <time>2021-04-24T12:33:43Z</time>
      </trkpt>
      <trkpt lat="43.6469" lon="3.7921">
        <ele>69</ele>
        <time>2021-04-24T12:33:44Z</time>
      </trkpt>
      <trkpt lat="43.64688" lon="3.79209">
        <ele>69</ele>
        <time>2021-04-24T12:33:49Z</time>
      </trkpt>
      <trkpt lat="43.64688" lon="3.79209">
        <ele>69</ele>
        <time>2021-04-24T12:33:54Z</time>
      </trkpt>
      <trkpt lat="43.64697" lon="3.79207">
        <ele>74</ele>
        <time>2021-04-24T12:35:19Z</time>
      </trkpt>
      <trkpt lat="43.64699" lon="3.79211">
        <ele>74</ele>
        <time>2021-04-24T12:35:20Z</time>
      </trkpt>
      <trkpt lat="43.64699" lon="3.79215">
        <ele>74</ele>
        <time>2021-04-24T12:35:21Z</time>
      </trkpt>
      <trkpt lat="43.64698" lon="3.79219">
        <ele>74</ele>
        <time>2021-04-24T12:35:22Z</time>
      </trkpt>
      <trkpt lat="43.64697" lon="3.79223">
        <ele>74</ele>
        <time>2021-04-24T12:35:24Z</time>
      </trkpt>
      <trkpt lat="43.64697" lon="3.79226">
        <ele>74</ele>
        <time>2021-04-24T12:35:25Z</time>
      </trkpt>
      <trkpt lat="43.64696" lon="3.7923">
        <ele>74</ele>
        <time>2021-04-24T12:35:26Z</time>
      </trkpt>
      <trkpt lat="43.64696" lon="3.79234">
        <ele>74</ele>
        <time>2021-04-24T12:35:27Z</time>
      </trkpt>
      <trkpt lat="43.64696" lon="3.79238">
        <ele>74</ele>
        <time>2021-04-24T12:35:28Z</time>
      </trkpt>
      <trkpt lat="43.64696" lon="3.79241">
        <ele>71</ele>
        <time>2021-04-24T12:35:29Z</time>
      </trkpt>
      <trkpt lat="43.64699" lon="3.79243">
        <ele>71</ele>
        <time>2021-04-24T12:35:30Z</time>
      </trkpt>
      <trkpt lat="43.64701" lon="3.79245">
        <ele>71</ele>
        <time>2021-04-24T12:35:31Z</time>
      </trkpt>
      <trkpt lat="43.64704" lon="3.79245">
        <ele>71</ele>
        <time>2021-04-24T12:35:32Z</time>
      </trkpt>
      <trkpt lat="43.64706" lon="3.79243">
        <ele>71</ele>
        <time>2021-04-24T12:35:33Z</time>
      </trkpt>
      <trkpt lat="43.64707" lon="3.79241">
        <ele>71</ele>
        <time>2021-04-24T12:35:34Z</time>
      </trkpt>
      <trkpt lat="43.64706" lon="3.79238">
        <ele>71</ele>
        <time>2021-04-24T12:35:36Z</time>
      </trkpt>
      <trkpt lat="43.64703" lon="3.79239">
        <ele>71</ele>
        <time>2021-04-24T12:35:38Z</time>
      </trkpt>
      <trkpt lat="43.64701" lon="3.79241">
        <ele>71</ele>
        <time>2021-04-24T12:35:39Z</time>
      </trkpt>
      <trkpt lat="43.64699" lon="3.79244">
        <ele>71</ele>
        <time>2021-04-24T12:35:41Z</time>
      </trkpt>
      <trkpt lat="43.64702" lon="3.79262">
        <ele>69</ele>
        <time>2021-04-24T12:35:53Z</time>
      </trkpt>
      <trkpt lat="43.64703" lon="3.79267">
        <ele>69</ele>
        <time>2021-04-24T12:35:54Z</time>
      </trkpt>
      <trkpt lat="43.64704" lon="3.79272">
        <ele>69</ele>
        <time>2021-04-24T12:35:55Z</time>
      </trkpt>
      <trkpt lat="43.64703" lon="3.79277">
        <ele>69</ele>
        <time>2021-04-24T12:35:56Z</time>
      </trkpt>
      <trkpt lat="43.64702" lon="3.7928">
        <ele>69</ele>
        <time>2021-04-24T12:35:57Z</time>
      </trkpt>
      <trkpt lat="43.647" lon="3.79281">
        <ele>69</ele>
        <time>2021-04-24T12:35:58Z</time>
      </trkpt>
      <trkpt lat="43.64698" lon="3.79282">
        <ele>69</ele>
        <time>2021-04-24T12:35:59Z</time>
      </trkpt>
      <trkpt lat="43.64697" lon="3.79284">
        <ele>69</ele>
        <time>2021-04-24T12:36:01Z</time>
      </trkpt>
      <trkpt lat="43.64694" lon="3.79286">
        <ele>68</ele>
        <time>2021-04-24T12:36:03Z</time>
      </trkpt>
      <trkpt lat="43.64691" lon="3.79287">
        <ele>68</ele>
        <time>2021-04-24T12:36:05Z</time>
      </trkpt>
      <trkpt lat="43.64689" lon="3.79287">
        <ele>68</ele>
        <time>2021-04-24T12:36:07Z</time>
      </trkpt>
      <trkpt lat="43.64686" lon="3.79289">
        <ele>68</ele>
        <time>2021-04-24T12:36:09Z</time>
      </trkpt>
      <trkpt lat="43.64683" lon="3.7929">
        <ele>68</ele>
        <time>2021-04-24T12:36:11Z</time>
      </trkpt>
      <trkpt lat="43.64681" lon="3.7929">
        <ele>68</ele>
        <time>2021-04-24T12:36:12Z</time>
      </trkpt>
      <trkpt lat="43.64678" lon="3.7929">
        <ele>68</ele>
        <time>2021-04-24T12:36:14Z</time>
      </trkpt>
      <trkpt lat="43.64675" lon="3.7929">
        <ele>68</ele>
        <time>2021-04-24T12:36:16Z</time>
      </trkpt>
      <trkpt lat="43.64672" lon="3.79291">
        <ele>68</ele>
        <time>2021-04-24T12:36:18Z</time>
      </trkpt>
      <trkpt lat="43.6467" lon="3.79293">
        <ele>68</ele>
        <time>2021-04-24T12:36:20Z</time>
      </trkpt>
      <trkpt lat="43.64667" lon="3.79294">
        <ele>68</ele>
        <time>2021-04-24T12:36:22Z</time>
      </trkpt>
      <trkpt lat="43.64664" lon="3.79297">
        <ele>68</ele>
        <time>2021-04-24T12:36:24Z</time>
      </trkpt>
      <trkpt lat="43.64662" lon="3.79299">
        <ele>68</ele>
        <time>2021-04-24T12:36:25Z</time>
      </trkpt>
      <trkpt lat="43.64661" lon="3.79302">
        <ele>68</ele>
        <time>2021-04-24T12:36:26Z</time>
      </trkpt>
      <trkpt lat="43.64659" lon="3.79306">
        <ele>68</ele>
        <time>2021-04-24T12:36:27Z</time>
      </trkpt>
      <trkpt lat="43.64658" lon="3.7931">
        <ele>68</ele>
        <time>2021-04-24T12:36:28Z</time>
      </trkpt>
      <trkpt lat="43.64657" lon="3.79314">
        <ele>68</ele>
        <time>2021-04-24T12:36:29Z</time>
      </trkpt>
      <trkpt lat="43.64656" lon="3.79317">
        <ele>68</ele>
        <time>2021-04-24T12:36:30Z</time>
      </trkpt>
      <trkpt lat="43.64655" lon="3.79321">
        <ele>68</ele>
        <time>2021-04-24T12:36:31Z</time>
      </trkpt>
      <trkpt lat="43.64654" lon="3.79325">
        <ele>68</ele>
        <time>2021-04-24T12:36:32Z</time>
      </trkpt>
      <trkpt lat="43.64654" lon="3.79328">
        <ele>66</ele>
        <time>2021-04-24T12:36:33Z</time>
      </trkpt>
      <trkpt lat="43.64653" lon="3.79332">
        <ele>66</ele>
        <time>2021-04-24T12:36:34Z</time>
      </trkpt>
      <trkpt lat="43.64653" lon="3.79336">
        <ele>66</ele>
        <time>2021-04-24T12:36:35Z</time>
      </trkpt>
      <trkpt lat="43.64653" lon="3.7934">
        <ele>66</ele>
        <time>2021-04-24T12:36:36Z</time>
      </trkpt>
      <trkpt lat="43.64652" lon="3.79343">
        <ele>66</ele>
        <time>2021-04-24T12:36:37Z</time>
      </trkpt>
      <trkpt lat="43.64651" lon="3.79348">
        <ele>66</ele>
        <time>2021-04-24T12:36:38Z</time>
      </trkpt>
      <trkpt lat="43.6465" lon="3.79352">
        <ele>66</ele>
        <time>2021-04-24T12:36:39Z</time>
      </trkpt>
      <trkpt lat="43.64648" lon="3.79358">
        <ele>66</ele>
        <time>2021-04-24T12:36:40Z</time>
      </trkpt>
      <trkpt lat="43.64646" lon="3.79364">
        <ele>66</ele>
        <time>2021-04-24T12:36:41Z</time>
      </trkpt>
      <trkpt lat="43.64644" lon="3.7937">
        <ele>66</ele>
        <time>2021-04-24T12:36:42Z</time>
      </trkpt>
      <trkpt lat="43.64642" lon="3.79376">
        <ele>64</ele>
        <time>2021-04-24T12:36:43Z</time>
      </trkpt>
      <trkpt lat="43.6464" lon="3.79389">
        <ele>64</ele>
        <time>2021-04-24T12:36:45Z</time>
      </trkpt>
      <trkpt lat="43.64638" lon="3.79396">
        <ele>64</ele>
        <time>2021-04-24T12:36:46Z</time>
      </trkpt>
      <trkpt lat="43.64634" lon="3.79401">
        <ele>64</ele>
        <time>2021-04-24T12:36:47Z</time>
      </trkpt>
      <trkpt lat="43.6463" lon="3.79406">
        <ele>64</ele>
        <time>2021-04-24T12:36:48Z</time>
      </trkpt>
      <trkpt lat="43.64626" lon="3.79411">
        <ele>64</ele>
        <time>2021-04-24T12:36:49Z</time>
      </trkpt>
      <trkpt lat="43.64623" lon="3.79415">
        <ele>64</ele>
        <time>2021-04-24T12:36:50Z</time>
      </trkpt>
      <trkpt lat="43.64621" lon="3.79419">
        <ele>64</ele>
        <time>2021-04-24T12:36:51Z</time>
      </trkpt>
      <trkpt lat="43.64619" lon="3.79424">
        <ele>64</ele>
        <time>2021-04-24T12:36:52Z</time>
      </trkpt>
      <trkpt lat="43.64616" lon="3.79428">
        <ele>63</ele>
        <time>2021-04-24T12:36:53Z</time>
      </trkpt>
      <trkpt lat="43.64613" lon="3.79432">
        <ele>63</ele>
        <time>2021-04-24T12:36:54Z</time>
      </trkpt>
      <trkpt lat="43.6461" lon="3.79436">
        <ele>63</ele>
        <time>2021-04-24T12:36:55Z</time>
      </trkpt>
      <trkpt lat="43.64607" lon="3.79439">
        <ele>63</ele>
        <time>2021-04-24T12:36:56Z</time>
      </trkpt>
      <trkpt lat="43.64604" lon="3.79441">
        <ele>63</ele>
        <time>2021-04-24T12:36:57Z</time>
      </trkpt>
      <trkpt lat="43.64601" lon="3.79444">
        <ele>63</ele>
        <time>2021-04-24T12:36:58Z</time>
      </trkpt>
      <trkpt lat="43.64599" lon="3.79446">
        <ele>63</ele>
        <time>2021-04-24T12:36:59Z</time>
      </trkpt>
      <trkpt lat="43.64598" lon="3.79449">
        <ele>63</ele>
        <time>2021-04-24T12:37:00Z</time>
      </trkpt>
      <trkpt lat="43.64597" lon="3.79451">
        <ele>63</ele>
        <time>2021-04-24T12:37:01Z</time>
      </trkpt>
      <trkpt lat="43.64595" lon="3.79453">
        <ele>63</ele>
        <time>2021-04-24T12:37:02Z</time>
      </trkpt>
      <trkpt lat="43.64592" lon="3.79455">
        <ele>63</ele>
        <time>2021-04-24T12:37:04Z</time>
      </trkpt>
      <trkpt lat="43.64592" lon="3.79459">
        <ele>63</ele>
        <time>2021-04-24T12:37:06Z</time>
      </trkpt>
      <trkpt lat="43.64594" lon="3.79461">
        <ele>63</ele>
        <time>2021-04-24T12:37:08Z</time>
      </trkpt>
      <trkpt lat="43.64596" lon="3.79462">
        <ele>63</ele>
        <time>2021-04-24T12:37:09Z</time>
      </trkpt>
      <trkpt lat="43.64597" lon="3.79463">
        <ele>63</ele>
        <time>2021-04-24T12:37:10Z</time>
      </trkpt>
      <trkpt lat="43.64599" lon="3.79464">
        <ele>63</ele>
        <time>2021-04-24T12:37:11Z</time>
      </trkpt>
      <trkpt lat="43.646" lon="3.79467">
        <ele>63</ele>
        <time>2021-04-24T12:37:12Z</time>
      </trkpt>
      <trkpt lat="43.64602" lon="3.79471">
        <ele>63</ele>
        <time>2021-04-24T12:37:14Z</time>
      </trkpt>
      <trkpt lat="43.64601" lon="3.79475">
        <ele>63</ele>
        <time>2021-04-24T12:37:16Z</time>
      </trkpt>
      <trkpt lat="43.646" lon="3.79479">
        <ele>63</ele>
        <time>2021-04-24T12:37:18Z</time>
      </trkpt>
      <trkpt lat="43.64599" lon="3.79481">
        <ele>63</ele>
        <time>2021-04-24T12:37:20Z</time>
      </trkpt>
      <trkpt lat="43.64598" lon="3.79483">
        <ele>63</ele>
        <time>2021-04-24T12:37:22Z</time>
      </trkpt>
      <trkpt lat="43.64596" lon="3.79486">
        <ele>63</ele>
        <time>2021-04-24T12:37:24Z</time>
      </trkpt>
      <trkpt lat="43.64594" lon="3.79488">
        <ele>63</ele>
        <time>2021-04-24T12:37:25Z</time>
      </trkpt>
      <trkpt lat="43.64592" lon="3.79491">
        <ele>63</ele>
        <time>2021-04-24T12:37:26Z</time>
      </trkpt>
      <trkpt lat="43.6459" lon="3.79494">
        <ele>63</ele>
        <time>2021-04-24T12:37:27Z</time>
      </trkpt>
      <trkpt lat="43.64588" lon="3.79497">
        <ele>63</ele>
        <time>2021-04-24T12:37:28Z</time>
      </trkpt>
      <trkpt lat="43.64586" lon="3.79501">
        <ele>63</ele>
        <time>2021-04-24T12:37:29Z</time>
      </trkpt>
      <trkpt lat="43.64585" lon="3.79505">
        <ele>63</ele>
        <time>2021-04-24T12:37:30Z</time>
      </trkpt>
      <trkpt lat="43.64583" lon="3.79509">
        <ele>63</ele>
        <time>2021-04-24T12:37:31Z</time>
      </trkpt>
      <trkpt lat="43.64582" lon="3.79512">
        <ele>63</ele>
        <time>2021-04-24T12:37:32Z</time>
      </trkpt>
      <trkpt lat="43.64581" lon="3.79516">
        <ele>59</ele>
        <time>2021-04-24T12:37:33Z</time>
      </trkpt>
      <trkpt lat="43.64579" lon="3.7952">
        <ele>59</ele>
        <time>2021-04-24T12:37:34Z</time>
      </trkpt>
      <trkpt lat="43.64578" lon="3.79525">
        <ele>59</ele>
        <time>2021-04-24T12:37:35Z</time>
      </trkpt>
      <trkpt lat="43.64576" lon="3.79529">
        <ele>59</ele>
        <time>2021-04-24T12:37:36Z</time>
      </trkpt>
      <trkpt lat="43.64575" lon="3.79532">
        <ele>59</ele>
        <time>2021-04-24T12:37:37Z</time>
      </trkpt>
      <trkpt lat="43.64573" lon="3.79537">
        <ele>59</ele>
        <time>2021-04-24T12:37:38Z</time>
      </trkpt>
      <trkpt lat="43.64572" lon="3.79541">
        <ele>59</ele>
        <time>2021-04-24T12:37:39Z</time>
      </trkpt>
      <trkpt lat="43.64571" lon="3.79546">
        <ele>59</ele>
        <time>2021-04-24T12:37:40Z</time>
      </trkpt>
      <trkpt lat="43.6457" lon="3.79551">
        <ele>59</ele>
        <time>2021-04-24T12:37:41Z</time>
      </trkpt>
      <trkpt lat="43.64569" lon="3.79555">
        <ele>59</ele>
        <time>2021-04-24T12:37:42Z</time>
      </trkpt>
      <trkpt lat="43.64568" lon="3.79559">
        <ele>59</ele>
        <time>2021-04-24T12:37:43Z</time>
      </trkpt>
      <trkpt lat="43.64567" lon="3.79564">
        <ele>59</ele>
        <time>2021-04-24T12:37:44Z</time>
      </trkpt>
      <trkpt lat="43.64566" lon="3.79568">
        <ele>59</ele>
        <time>2021-04-24T12:37:45Z</time>
      </trkpt>
      <trkpt lat="43.64566" lon="3.79572">
        <ele>59</ele>
        <time>2021-04-24T12:37:46Z</time>
      </trkpt>
      <trkpt lat="43.64565" lon="3.79576">
        <ele>59</ele>
        <time>2021-04-24T12:37:47Z</time>
      </trkpt>
      <trkpt lat="43.64565" lon="3.79581">
        <ele>59</ele>
        <time>2021-04-24T12:37:48Z</time>
      </trkpt>
      <trkpt lat="43.64565" lon="3.79586">
        <ele>59</ele>
        <time>2021-04-24T12:37:49Z</time>
      </trkpt>
      <trkpt lat="43.64564" lon="3.79591">
        <ele>59</ele>
        <time>2021-04-24T12:37:50Z</time>
      </trkpt>
      <trkpt lat="43.64564" lon="3.79595">
        <ele>59</ele>
        <time>2021-04-24T12:37:51Z</time>
      </trkpt>
      <trkpt lat="43.64562" lon="3.79599">
        <ele>59</ele>
        <time>2021-04-24T12:37:52Z</time>
      </trkpt>
      <trkpt lat="43.6456" lon="3.79604">
        <ele>58</ele>
        <time>2021-04-24T12:37:53Z</time>
      </trkpt>
      <trkpt lat="43.64559" lon="3.79608">
        <ele>58</ele>
        <time>2021-04-24T12:37:54Z</time>
      </trkpt>
      <trkpt lat="43.64557" lon="3.79613">
        <ele>58</ele>
        <time>2021-04-24T12:37:55Z</time>
      </trkpt>
      <trkpt lat="43.64555" lon="3.79617">
        <ele>58</ele>
        <time>2021-04-24T12:37:56Z</time>
      </trkpt>
      <trkpt lat="43.64553" lon="3.79621">
        <ele>58</ele>
        <time>2021-04-24T12:37:57Z</time>
      </trkpt>
      <trkpt lat="43.64552" lon="3.79625">
        <ele>58</ele>
        <time>2021-04-24T12:37:58Z</time>
      </trkpt>
      <trkpt lat="43.64551" lon="3.7963">
        <ele>58</ele>
        <time>2021-04-24T12:37:59Z</time>
      </trkpt>
      <trkpt lat="43.6455" lon="3.79634">
        <ele>58</ele>
        <time>2021-04-24T12:38:00Z</time>
      </trkpt>
      <trkpt lat="43.64548" lon="3.79638">
        <ele>58</ele>
        <time>2021-04-24T12:38:01Z</time>
      </trkpt>
      <trkpt lat="43.64546" lon="3.79642">
        <ele>58</ele>
        <time>2021-04-24T12:38:02Z</time>
      </trkpt>
      <trkpt lat="43.64544" lon="3.79646">
        <ele>58</ele>
        <time>2021-04-24T12:38:03Z</time>
      </trkpt>
      <trkpt lat="43.64542" lon="3.7965">
        <ele>58</ele>
        <time>2021-04-24T12:38:04Z</time>
      </trkpt>
      <trkpt lat="43.64541" lon="3.79654">
        <ele>58</ele>
        <time>2021-04-24T12:38:05Z</time>
      </trkpt>
      <trkpt lat="43.6454" lon="3.79659">
        <ele>58</ele>
        <time>2021-04-24T12:38:06Z</time>
      </trkpt>
      <trkpt lat="43.64539" lon="3.79663">
        <ele>58</ele>
        <time>2021-04-24T12:38:07Z</time>
      </trkpt>
      <trkpt lat="43.64538" lon="3.79668">
        <ele>58</ele>
        <time>2021-04-24T12:38:08Z</time>
      </trkpt>
      <trkpt lat="43.64535" lon="3.79672">
        <ele>58</ele>
        <time>2021-04-24T12:38:09Z</time>
      </trkpt>
      <trkpt lat="43.64532" lon="3.79675">
        <ele>58</ele>
        <time>2021-04-24T12:38:10Z</time>
      </trkpt>
      <trkpt lat="43.64529" lon="3.79679">
        <ele>58</ele>
        <time>2021-04-24T12:38:11Z</time>
      </trkpt>
      <trkpt lat="43.64526" lon="3.79684">
        <ele>58</ele>
        <time>2021-04-24T12:38:12Z</time>
      </trkpt>
      <trkpt lat="43.64523" lon="3.79688">
        <ele>58</ele>
        <time>2021-04-24T12:38:13Z</time>
      </trkpt>
      <trkpt lat="43.6452" lon="3.79693">
        <ele>58</ele>
        <time>2021-04-24T12:38:14Z</time>
      </trkpt>
      <trkpt lat="43.64517" lon="3.79698">
        <ele>58</ele>
        <time>2021-04-24T12:38:15Z</time>
      </trkpt>
      <trkpt lat="43.64514" lon="3.79703">
        <ele>58</ele>
        <time>2021-04-24T12:38:16Z</time>
      </trkpt>
      <trkpt lat="43.64511" lon="3.79708">
        <ele>58</ele>
        <time>2021-04-24T12:38:17Z</time>
      </trkpt>
      <trkpt lat="43.64508" lon="3.79713">
        <ele>58</ele>
        <time>2021-04-24T12:38:18Z</time>
      </trkpt>
      <trkpt lat="43.64507" lon="3.79719">
        <ele>58</ele>
        <time>2021-04-24T12:38:19Z</time>
      </trkpt>
      <trkpt lat="43.64505" lon="3.79725">
        <ele>58</ele>
        <time>2021-04-24T12:38:20Z</time>
      </trkpt>
      <trkpt lat="43.64503" lon="3.7973">
        <ele>58</ele>
        <time>2021-04-24T12:38:21Z</time>
      </trkpt>
      <trkpt lat="43.64501" lon="3.79735">
        <ele>58</ele>
        <time>2021-04-24T12:38:22Z</time>
      </trkpt>
      <trkpt lat="43.64499" lon="3.79739">
        <ele>57</ele>
        <time>2021-04-24T12:38:23Z</time>
      </trkpt>
      <trkpt lat="43.64497" lon="3.79743">
        <ele>57</ele>
        <time>2021-04-24T12:38:24Z</time>
      </trkpt>
      <trkpt lat="43.64495" lon="3.79746">
        <ele>57</ele>
        <time>2021-04-24T12:38:25Z</time>
      </trkpt>
      <trkpt lat="43.64493" lon="3.7975">
        <ele>57</ele>
        <time>2021-04-24T12:38:26Z</time>
      </trkpt>
      <trkpt lat="43.6449" lon="3.79753">
        <ele>57</ele>
        <time>2021-04-24T12:38:27Z</time>
      </trkpt>
      <trkpt lat="43.64488" lon="3.79755">
        <ele>57</ele>
        <time>2021-04-24T12:38:28Z</time>
      </trkpt>
      <trkpt lat="43.64485" lon="3.79758">
        <ele>57</ele>
        <time>2021-04-24T12:38:29Z</time>
      </trkpt>
      <trkpt lat="43.64483" lon="3.79759">
        <ele>57</ele>
        <time>2021-04-24T12:38:30Z</time>
      </trkpt>
      <trkpt lat="43.6448" lon="3.79761">
        <ele>57</ele>
        <time>2021-04-24T12:38:31Z</time>
      </trkpt>
      <trkpt lat="43.64477" lon="3.79762">
        <ele>57</ele>
        <time>2021-04-24T12:38:32Z</time>
      </trkpt>
      <trkpt lat="43.64475" lon="3.79763">
        <ele>59</ele>
        <time>2021-04-24T12:38:33Z</time>
      </trkpt>
      <trkpt lat="43.64472" lon="3.79764">
        <ele>59</ele>
        <time>2021-04-24T12:38:34Z</time>
      </trkpt>
      <trkpt lat="43.64469" lon="3.79766">
        <ele>59</ele>
        <time>2021-04-24T12:38:35Z</time>
      </trkpt>
      <trkpt lat="43.64466" lon="3.7977">
        <ele>59</ele>
        <time>2021-04-24T12:38:36Z</time>
      </trkpt>
      <trkpt lat="43.64463" lon="3.79774">
        <ele>59</ele>
        <time>2021-04-24T12:38:37Z</time>
      </trkpt>
      <trkpt lat="43.64459" lon="3.79777">
        <ele>59</ele>
        <time>2021-04-24T12:38:38Z</time>
      </trkpt>
      <trkpt lat="43.64455" lon="3.7978">
        <ele>59</ele>
        <time>2021-04-24T12:38:39Z</time>
      </trkpt>
      <trkpt lat="43.64451" lon="3.79781">
        <ele>59</ele>
        <time>2021-04-24T12:38:40Z</time>
      </trkpt>
      <trkpt lat="43.64447" lon="3.79782">
        <ele>59</ele>
        <time>2021-04-24T12:38:41Z</time>
      </trkpt>
      <trkpt lat="43.64445" lon="3.79785">
        <ele>59</ele>
        <time>2021-04-24T12:38:42Z</time>
      </trkpt>
      <trkpt lat="43.64443" lon="3.79786">
        <ele>58</ele>
        <time>2021-04-24T12:38:43Z</time>
      </trkpt>
      <trkpt lat="43.6444" lon="3.79788">
        <ele>58</ele>
        <time>2021-04-24T12:38:45Z</time>
      </trkpt>
      <trkpt lat="43.64438" lon="3.79789">
        <ele>58</ele>
        <time>2021-04-24T12:38:47Z</time>
      </trkpt>
      <trkpt lat="43.64435" lon="3.79789">
        <ele>58</ele>
        <time>2021-04-24T12:38:49Z</time>
      </trkpt>
      <trkpt lat="43.64432" lon="3.79789">
        <ele>58</ele>
        <time>2021-04-24T12:38:51Z</time>
      </trkpt>
      <trkpt lat="43.64429" lon="3.7979">
        <ele>59</ele>
        <time>2021-04-24T12:38:53Z</time>
      </trkpt>
      <trkpt lat="43.64426" lon="3.79791">
        <ele>59</ele>
        <time>2021-04-24T12:38:55Z</time>
      </trkpt>
      <trkpt lat="43.64423" lon="3.79791">
        <ele>59</ele>
        <time>2021-04-24T12:38:57Z</time>
      </trkpt>
      <trkpt lat="43.64421" lon="3.79791">
        <ele>59</ele>
        <time>2021-04-24T12:38:59Z</time>
      </trkpt>
      <trkpt lat="43.64418" lon="3.79791">
        <ele>59</ele>
        <time>2021-04-24T12:39:01Z</time>
      </trkpt>
      <trkpt lat="43.64417" lon="3.7979">
        <ele>59</ele>
        <time>2021-04-24T12:39:03Z</time>
      </trkpt>
      <trkpt lat="43.64413" lon="3.79789">
        <ele>59</ele>
        <time>2021-04-24T12:39:05Z</time>
      </trkpt>
      <trkpt lat="43.64411" lon="3.79789">
        <ele>59</ele>
        <time>2021-04-24T12:39:06Z</time>
      </trkpt>
      <trkpt lat="43.64408" lon="3.79788">
        <ele>59</ele>
        <time>2021-04-24T12:39:07Z</time>
      </trkpt>
      <trkpt lat="43.64405" lon="3.79787">
        <ele>59</ele>
        <time>2021-04-24T12:39:08Z</time>
      </trkpt>
      <trkpt lat="43.64403" lon="3.79786">
        <ele>59</ele>
        <time>2021-04-24T12:39:09Z</time>
      </trkpt>
      <trkpt lat="43.64401" lon="3.79785">
        <ele>59</ele>
        <time>2021-04-24T12:39:10Z</time>
      </trkpt>
      <trkpt lat="43.64398" lon="3.79784">
        <ele>59</ele>
        <time>2021-04-24T12:39:11Z</time>
      </trkpt>
      <trkpt lat="43.64395" lon="3.79782">
        <ele>59</ele>
        <time>2021-04-24T12:39:12Z</time>
      </trkpt>
      <trkpt lat="43.64391" lon="3.79781">
        <ele>59</ele>
        <time>2021-04-24T12:39:13Z</time>
      </trkpt>
      <trkpt lat="43.64386" lon="3.79781">
        <ele>59</ele>
        <time>2021-04-24T12:39:14Z</time>
      </trkpt>
      <trkpt lat="43.64382" lon="3.79781">
        <ele>59</ele>
        <time>2021-04-24T12:39:15Z</time>
      </trkpt>
      <trkpt lat="43.64377" lon="3.79782">
        <ele>59</ele>
        <time>2021-04-24T12:39:16Z</time>
      </trkpt>
      <trkpt lat="43.64373" lon="3.79783">
        <ele>59</ele>
        <time>2021-04-24T12:39:17Z</time>
      </trkpt>
      <trkpt lat="43.64368" lon="3.79783">
        <ele>59</ele>
        <time>2021-04-24T12:39:18Z</time>
      </trkpt>
      <trkpt lat="43.64364" lon="3.79784">
        <ele>59</ele>
        <time>2021-04-24T12:39:19Z</time>
      </trkpt>
      <trkpt lat="43.6436" lon="3.79785">
        <ele>59</ele>
        <time>2021-04-24T12:39:20Z</time>
      </trkpt>
      <trkpt lat="43.64356" lon="3.79786">
        <ele>59</ele>
        <time>2021-04-24T12:39:21Z</time>
      </trkpt>
      <trkpt lat="43.64353" lon="3.79788">
        <ele>59</ele>
        <time>2021-04-24T12:39:22Z</time>
      </trkpt>
      <trkpt lat="43.64349" lon="3.79789">
        <ele>58</ele>
        <time>2021-04-24T12:39:23Z</time>
      </trkpt>
      <trkpt lat="43.64346" lon="3.79791">
        <ele>58</ele>
        <time>2021-04-24T12:39:24Z</time>
      </trkpt>
      <trkpt lat="43.64343" lon="3.79793">
        <ele>58</ele>
        <time>2021-04-24T12:39:25Z</time>
      </trkpt>
      <trkpt lat="43.6434" lon="3.79795">
        <ele>58</ele>
        <time>2021-04-24T12:39:26Z</time>
      </trkpt>
      <trkpt lat="43.64337" lon="3.79797">
        <ele>58</ele>
        <time>2021-04-24T12:39:27Z</time>
      </trkpt>
      <trkpt lat="43.64334" lon="3.79799">
        <ele>58</ele>
        <time>2021-04-24T12:39:28Z</time>
      </trkpt>
      <trkpt lat="43.64332" lon="3.798">
        <ele>58</ele>
        <time>2021-04-24T12:39:29Z</time>
      </trkpt>
      <trkpt lat="43.64329" lon="3.79803">
        <ele>58</ele>
        <time>2021-04-24T12:39:30Z</time>
      </trkpt>
      <trkpt lat="43.64326" lon="3.79805">
        <ele>58</ele>
        <time>2021-04-24T12:39:31Z</time>
      </trkpt>
      <trkpt lat="43.64324" lon="3.79807">
        <ele>58</ele>
        <time>2021-04-24T12:39:32Z</time>
      </trkpt>
      <trkpt lat="43.64322" lon="3.79808">
        <ele>58</ele>
        <time>2021-04-24T12:39:33Z</time>
      </trkpt>
      <trkpt lat="43.6432" lon="3.7981">
        <ele>58</ele>
        <time>2021-04-24T12:39:34Z</time>
      </trkpt>
      <trkpt lat="43.64318" lon="3.79813">
        <ele>58</ele>
        <time>2021-04-24T12:39:35Z</time>
      </trkpt>
      <trkpt lat="43.64315" lon="3.79815">
        <ele>58</ele>
        <time>2021-04-24T12:39:36Z</time>
      </trkpt>
      <trkpt lat="43.64312" lon="3.79818">
        <ele>58</ele>
        <time>2021-04-24T12:39:38Z</time>
      </trkpt>
      <trkpt lat="43.6431" lon="3.79819">
        <ele>58</ele>
        <time>2021-04-24T12:39:39Z</time>
      </trkpt>
      <trkpt lat="43.64307" lon="3.7982">
        <ele>58</ele>
        <time>2021-04-24T12:39:40Z</time>
      </trkpt>
      <trkpt lat="43.64304" lon="3.7982">
        <ele>58</ele>
        <time>2021-04-24T12:39:41Z</time>
      </trkpt>
      <trkpt lat="43.643" lon="3.79819">
        <ele>58</ele>
        <time>2021-04-24T12:39:42Z</time>
      </trkpt>
      <trkpt lat="43.64297" lon="3.79819">
        <ele>59</ele>
        <time>2021-04-24T12:39:43Z</time>
      </trkpt>
      <trkpt lat="43.64293" lon="3.7982">
        <ele>59</ele>
        <time>2021-04-24T12:39:44Z</time>
      </trkpt>
      <trkpt lat="43.64288" lon="3.79821">
        <ele>59</ele>
        <time>2021-04-24T12:39:45Z</time>
      </trkpt>
      <trkpt lat="43.64284" lon="3.79822">
        <ele>59</ele>
        <time>2021-04-24T12:39:46Z</time>
      </trkpt>
      <trkpt lat="43.6428" lon="3.79824">
        <ele>59</ele>
        <time>2021-04-24T12:39:47Z</time>
      </trkpt>
      <trkpt lat="43.64276" lon="3.79826">
        <ele>59</ele>
        <time>2021-04-24T12:39:48Z</time>
      </trkpt>
      <trkpt lat="43.64271" lon="3.79828">
        <ele>59</ele>
        <time>2021-04-24T12:39:49Z</time>
      </trkpt>
      <trkpt lat="43.64267" lon="3.79831">
        <ele>59</ele>
        <time>2021-04-24T12:39:50Z</time>
      </trkpt>
      <trkpt lat="43.64264" lon="3.79833">
        <ele>59</ele>
        <time>2021-04-24T12:39:51Z</time>
      </trkpt>
      <trkpt lat="43.6426" lon="3.79836">
        <ele>59</ele>
        <time>2021-04-24T12:39:52Z</time>
      </trkpt>
      <trkpt lat="43.64256" lon="3.79838">
        <ele>59</ele>
        <time>2021-04-24T12:39:53Z</time>
      </trkpt>
      <trkpt lat="43.64253" lon="3.79841">
        <ele>59</ele>
        <time>2021-04-24T12:39:54Z</time>
      </trkpt>
      <trkpt lat="43.6425" lon="3.79843">
        <ele>59</ele>
        <time>2021-04-24T12:39:55Z</time>
      </trkpt>
      <trkpt lat="43.64246" lon="3.79846">
        <ele>59</ele>
        <time>2021-04-24T12:39:56Z</time>
      </trkpt>
      <trkpt lat="43.64243" lon="3.79848">
        <ele>59</ele>
        <time>2021-04-24T12:39:57Z</time>
      </trkpt>
      <trkpt lat="43.64241" lon="3.7985">
        <ele>59</ele>
        <time>2021-04-24T12:39:58Z</time>
      </trkpt>
      <trkpt lat="43.64238" lon="3.79853">
        <ele>59</ele>
        <time>2021-04-24T12:39:59Z</time>
      </trkpt>
      <trkpt lat="43.64235" lon="3.79855">
        <ele>59</ele>
        <time>2021-04-24T12:40:00Z</time>
      </trkpt>
      <trkpt lat="43.64232" lon="3.79857">
        <ele>59</ele>
        <time>2021-04-24T12:40:01Z</time>
      </trkpt>
      <trkpt lat="43.6423" lon="3.79859">
        <ele>59</ele>
        <time>2021-04-24T12:40:02Z</time>
      </trkpt>
      <trkpt lat="43.64227" lon="3.79862">
        <ele>58</ele>
        <time>2021-04-24T12:40:03Z</time>
      </trkpt>
      <trkpt lat="43.64224" lon="3.79864">
        <ele>58</ele>
        <time>2021-04-24T12:40:04Z</time>
      </trkpt>
      <trkpt lat="43.64222" lon="3.79868">
        <ele>58</ele>
        <time>2021-04-24T12:40:05Z</time>
      </trkpt>
      <trkpt lat="43.6422" lon="3.79873">
        <ele>58</ele>
        <time>2021-04-24T12:40:06Z</time>
      </trkpt>
      <trkpt lat="43.6422" lon="3.79879">
        <ele>58</ele>
        <time>2021-04-24T12:40:07Z</time>
      </trkpt>
      <trkpt lat="43.6422" lon="3.79886">
        <ele>58</ele>
        <time>2021-04-24T12:40:08Z</time>
      </trkpt>
      <trkpt lat="43.64219" lon="3.79893">
        <ele>58</ele>
        <time>2021-04-24T12:40:09Z</time>
      </trkpt>
      <trkpt lat="43.64217" lon="3.79897">
        <ele>58</ele>
        <time>2021-04-24T12:40:10Z</time>
      </trkpt>
      <trkpt lat="43.64213" lon="3.79899">
        <ele>58</ele>
        <time>2021-04-24T12:40:11Z</time>
      </trkpt>
      <trkpt lat="43.6421" lon="3.79898">
        <ele>58</ele>
        <time>2021-04-24T12:40:12Z</time>
      </trkpt>
      <trkpt lat="43.64206" lon="3.79897">
        <ele>57</ele>
        <time>2021-04-24T12:40:13Z</time>
      </trkpt>
      <trkpt lat="43.64202" lon="3.79896">
        <ele>57</ele>
        <time>2021-04-24T12:40:14Z</time>
      </trkpt>
      <trkpt lat="43.64198" lon="3.79896">
        <ele>57</ele>
        <time>2021-04-24T12:40:15Z</time>
      </trkpt>
      <trkpt lat="43.64193" lon="3.79896">
        <ele>57</ele>
        <time>2021-04-24T12:40:16Z</time>
      </trkpt>
      <trkpt lat="43.64189" lon="3.79898">
        <ele>57</ele>
        <time>2021-04-24T12:40:17Z</time>
      </trkpt>
      <trkpt lat="43.64185" lon="3.799">
        <ele>57</ele>
        <time>2021-04-24T12:40:18Z</time>
      </trkpt>
      <trkpt lat="43.64181" lon="3.79903">
        <ele>57</ele>
        <time>2021-04-24T12:40:19Z</time>
      </trkpt>
      <trkpt lat="43.64176" lon="3.79906">
        <ele>57</ele>
        <time>2021-04-24T12:40:20Z</time>
      </trkpt>
      <trkpt lat="43.64172" lon="3.79909">
        <ele>57</ele>
        <time>2021-04-24T12:40:21Z</time>
      </trkpt>
      <trkpt lat="43.64168" lon="3.79912">
        <ele>57</ele>
        <time>2021-04-24T12:40:22Z</time>
      </trkpt>
      <trkpt lat="43.64164" lon="3.79915">
        <ele>56</ele>
        <time>2021-04-24T12:40:23Z</time>
      </trkpt>
      <trkpt lat="43.64159" lon="3.79918">
        <ele>56</ele>
        <time>2021-04-24T12:40:24Z</time>
      </trkpt>
      <trkpt lat="43.64155" lon="3.79922">
        <ele>56</ele>
        <time>2021-04-24T12:40:25Z</time>
      </trkpt>
      <trkpt lat="43.64151" lon="3.79925">
        <ele>56</ele>
        <time>2021-04-24T12:40:26Z</time>
      </trkpt>
      <trkpt lat="43.64147" lon="3.79929">
        <ele>56</ele>
        <time>2021-04-24T12:40:27Z</time>
      </trkpt>
      <trkpt lat="43.64143" lon="3.79933">
        <ele>56</ele>
        <time>2021-04-24T12:40:28Z</time>
      </trkpt>
      <trkpt lat="43.64139" lon="3.79936">
        <ele>56</ele>
        <time>2021-04-24T12:40:29Z</time>
      </trkpt>
      <trkpt lat="43.64135" lon="3.79939">
        <ele>56</ele>
        <time>2021-04-24T12:40:30Z</time>
      </trkpt>
      <trkpt lat="43.64131" lon="3.79942">
        <ele>56</ele>
        <time>2021-04-24T12:40:31Z</time>
      </trkpt>
      <trkpt lat="43.64126" lon="3.79945">
        <ele>56</ele>
        <time>2021-04-24T12:40:32Z</time>
      </trkpt>
      <trkpt lat="43.64122" lon="3.79948">
        <ele>57</ele>
        <time>2021-04-24T12:40:33Z</time>
      </trkpt>
      <trkpt lat="43.64118" lon="3.79952">
        <ele>57</ele>
        <time>2021-04-24T12:40:34Z</time>
      </trkpt>
      <trkpt lat="43.64114" lon="3.79957">
        <ele>57</ele>
        <time>2021-04-24T12:40:35Z</time>
      </trkpt>
      <trkpt lat="43.64109" lon="3.79961">
        <ele>57</ele>
        <time>2021-04-24T12:40:36Z</time>
      </trkpt>
      <trkpt lat="43.64104" lon="3.79964">
        <ele>57</ele>
        <time>2021-04-24T12:40:37Z</time>
      </trkpt>
      <trkpt lat="43.64099" lon="3.79967">
        <ele>57</ele>
        <time>2021-04-24T12:40:38Z</time>
      </trkpt>
      <trkpt lat="43.64094" lon="3.79971">
        <ele>57</ele>
        <time>2021-04-24T12:40:39Z</time>
      </trkpt>
      <trkpt lat="43.64089" lon="3.79974">
        <ele>57</ele>
        <time>2021-04-24T12:40:40Z</time>
      </trkpt>
      <trkpt lat="43.64085" lon="3.79978">
        <ele>57</ele>
        <time>2021-04-24T12:40:41Z</time>
      </trkpt>
      <trkpt lat="43.64081" lon="3.79981">
        <ele>57</ele>
        <time>2021-04-24T12:40:42Z</time>
      </trkpt>
      <trkpt lat="43.64076" lon="3.79984">
        <ele>56</ele>
        <time>2021-04-24T12:40:43Z</time>
      </trkpt>
      <trkpt lat="43.64072" lon="3.79987">
        <ele>56</ele>
        <time>2021-04-24T12:40:44Z</time>
      </trkpt>
      <trkpt lat="43.64067" lon="3.79989">
        <ele>56</ele>
        <time>2021-04-24T12:40:45Z</time>
      </trkpt>
      <trkpt lat="43.64063" lon="3.79992">
        <ele>56</ele>
        <time>2021-04-24T12:40:46Z</time>
      </trkpt>
      <trkpt lat="43.64059" lon="3.79994">
        <ele>56</ele>
        <time>2021-04-24T12:40:47Z</time>
      </trkpt>
      <trkpt lat="43.64056" lon="3.79996">
        <ele>56</ele>
        <time>2021-04-24T12:40:48Z</time>
      </trkpt>
      <trkpt lat="43.64052" lon="3.79999">
        <ele>56</ele>
        <time>2021-04-24T12:40:49Z</time>
      </trkpt>
      <trkpt lat="43.64048" lon="3.80002">
        <ele>56</ele>
        <time>2021-04-24T12:40:50Z</time>
      </trkpt>
      <trkpt lat="43.64045" lon="3.80005">
        <ele>56</ele>
        <time>2021-04-24T12:40:51Z</time>
      </trkpt>
      <trkpt lat="43.64041" lon="3.80008">
        <ele>56</ele>
        <time>2021-04-24T12:40:52Z</time>
      </trkpt>
      <trkpt lat="43.64038" lon="3.80011">
        <ele>57</ele>
        <time>2021-04-24T12:40:53Z</time>
      </trkpt>
      <trkpt lat="43.64034" lon="3.80013">
        <ele>57</ele>
        <time>2021-04-24T12:40:54Z</time>
      </trkpt>
      <trkpt lat="43.64031" lon="3.80016">
        <ele>57</ele>
        <time>2021-04-24T12:40:55Z</time>
      </trkpt>
      <trkpt lat="43.64027" lon="3.80019">
        <ele>57</ele>
        <time>2021-04-24T12:40:56Z</time>
      </trkpt>
      <trkpt lat="43.64024" lon="3.80021">
        <ele>57</ele>
        <time>2021-04-24T12:40:57Z</time>
      </trkpt>
      <trkpt lat="43.6402" lon="3.80024">
        <ele>57</ele>
        <time>2021-04-24T12:40:58Z</time>
      </trkpt>
      <trkpt lat="43.64017" lon="3.80027">
        <ele>57</ele>
        <time>2021-04-24T12:40:59Z</time>
      </trkpt>
      <trkpt lat="43.64013" lon="3.8003">
        <ele>57</ele>
        <time>2021-04-24T12:41:00Z</time>
      </trkpt>
      <trkpt lat="43.64009" lon="3.80033">
        <ele>57</ele>
        <time>2021-04-24T12:41:01Z</time>
      </trkpt>
      <trkpt lat="43.64005" lon="3.80036">
        <ele>57</ele>
        <time>2021-04-24T12:41:02Z</time>
      </trkpt>
      <trkpt lat="43.64002" lon="3.80039">
        <ele>56</ele>
        <time>2021-04-24T12:41:03Z</time>
      </trkpt>
      <trkpt lat="43.63998" lon="3.80042">
        <ele>56</ele>
        <time>2021-04-24T12:41:04Z</time>
      </trkpt>
      <trkpt lat="43.63994" lon="3.80044">
        <ele>56</ele>
        <time>2021-04-24T12:41:05Z</time>
      </trkpt>
      <trkpt lat="43.6399" lon="3.80047">
        <ele>56</ele>
        <time>2021-04-24T12:41:06Z</time>
      </trkpt>
      <trkpt lat="43.63987" lon="3.8005">
        <ele>56</ele>
        <time>2021-04-24T12:41:07Z</time>
      </trkpt>
      <trkpt lat="43.63983" lon="3.80053">
        <ele>56</ele>
        <time>2021-04-24T12:41:08Z</time>
      </trkpt>
      <trkpt lat="43.63979" lon="3.80056">
        <ele>56</ele>
        <time>2021-04-24T12:41:09Z</time>
      </trkpt>
      <trkpt lat="43.63975" lon="3.80058">
        <ele>56</ele>
        <time>2021-04-24T12:41:10Z</time>
      </trkpt>
      <trkpt lat="43.63971" lon="3.80061">
        <ele>56</ele>
        <time>2021-04-24T12:41:11Z</time>
      </trkpt>
      <trkpt lat="43.63968" lon="3.80064">
        <ele>56</ele>
        <time>2021-04-24T12:41:12Z</time>
      </trkpt>
      <trkpt lat="43.63964" lon="3.80066">
        <ele>57</ele>
        <time>2021-04-24T12:41:13Z</time>
      </trkpt>
      <trkpt lat="43.63959" lon="3.80068">
        <ele>57</ele>
        <time>2021-04-24T12:41:14Z</time>
      </trkpt>
      <trkpt lat="43.63955" lon="3.8007">
        <ele>57</ele>
        <time>2021-04-24T12:41:15Z</time>
      </trkpt>
      <trkpt lat="43.63951" lon="3.80072">
        <ele>57</ele>
        <time>2021-04-24T12:41:16Z</time>
      </trkpt>
      <trkpt lat="43.63948" lon="3.80075">
        <ele>57</ele>
        <time>2021-04-24T12:41:17Z</time>
      </trkpt>
      <trkpt lat="43.63944" lon="3.80077">
        <ele>57</ele>
        <time>2021-04-24T12:41:18Z</time>
      </trkpt>
      <trkpt lat="43.6394" lon="3.80079">
        <ele>57</ele>
        <time>2021-04-24T12:41:19Z</time>
      </trkpt>
      <trkpt lat="43.63935" lon="3.80082">
        <ele>57</ele>
        <time>2021-04-24T12:41:20Z</time>
      </trkpt>
      <trkpt lat="43.63932" lon="3.80085">
        <ele>57</ele>
        <time>2021-04-24T12:41:21Z</time>
      </trkpt>
      <trkpt lat="43.63928" lon="3.80088">
        <ele>57</ele>
        <time>2021-04-24T12:41:22Z</time>
      </trkpt>
      <trkpt lat="43.63924" lon="3.80091">
        <ele>57</ele>
        <time>2021-04-24T12:41:23Z</time>
      </trkpt>
      <trkpt lat="43.63919" lon="3.80094">
        <ele>57</ele>
        <time>2021-04-24T12:41:24Z</time>
      </trkpt>
      <trkpt lat="43.63915" lon="3.80096">
        <ele>57</ele>
        <time>2021-04-24T12:41:25Z</time>
      </trkpt>
      <trkpt lat="43.63911" lon="3.80097">
        <ele>57</ele>
        <time>2021-04-24T12:41:26Z</time>
      </trkpt>
      <trkpt lat="43.63907" lon="3.80098">
        <ele>57</ele>
        <time>2021-04-24T12:41:27Z</time>
      </trkpt>
      <trkpt lat="43.63902" lon="3.80099">
        <ele>57</ele>
        <time>2021-04-24T12:41:28Z</time>
      </trkpt>
      <trkpt lat="43.63898" lon="3.80101">
        <ele>57</ele>
        <time>2021-04-24T12:41:29Z</time>
      </trkpt>
      <trkpt lat="43.63894" lon="3.80102">
        <ele>57</ele>
        <time>2021-04-24T12:41:30Z</time>
      </trkpt>
      <trkpt lat="43.6389" lon="3.80104">
        <ele>57</ele>
        <time>2021-04-24T12:41:31Z</time>
      </trkpt>
      <trkpt lat="43.63887" lon="3.80106">
        <ele>57</ele>
        <time>2021-04-24T12:41:32Z</time>
      </trkpt>
      <trkpt lat="43.63883" lon="3.80108">
        <ele>57</ele>
        <time>2021-04-24T12:41:33Z</time>
      </trkpt>
      <trkpt lat="43.6388" lon="3.80109">
        <ele>57</ele>
        <time>2021-04-24T12:41:34Z</time>
      </trkpt>
      <trkpt lat="43.63877" lon="3.8011">
        <ele>57</ele>
        <time>2021-04-24T12:41:35Z</time>
      </trkpt>
      <trkpt lat="43.63874" lon="3.80111">
        <ele>57</ele>
        <time>2021-04-24T12:41:36Z</time>
      </trkpt>
      <trkpt lat="43.63871" lon="3.8011">
        <ele>57</ele>
        <time>2021-04-24T12:41:37Z</time>
      </trkpt>
      <trkpt lat="43.63868" lon="3.8011">
        <ele>57</ele>
        <time>2021-04-24T12:41:38Z</time>
      </trkpt>
      <trkpt lat="43.63866" lon="3.80111">
        <ele>57</ele>
        <time>2021-04-24T12:41:43Z</time>
      </trkpt>
      <trkpt lat="43.63864" lon="3.8011">
        <ele>57</ele>
        <time>2021-04-24T12:41:48Z</time>
      </trkpt>
      <trkpt lat="43.63861" lon="3.8011">
        <ele>57</ele>
        <time>2021-04-24T12:41:50Z</time>
      </trkpt>
      <trkpt lat="43.63859" lon="3.8011">
        <ele>57</ele>
        <time>2021-04-24T12:41:51Z</time>
      </trkpt>
      <trkpt lat="43.63856" lon="3.80111">
        <ele>57</ele>
        <time>2021-04-24T12:41:52Z</time>
      </trkpt>
      <trkpt lat="43.63853" lon="3.80113">
        <ele>57</ele>
        <time>2021-04-24T12:41:53Z</time>
      </trkpt>
      <trkpt lat="43.63851" lon="3.80115">
        <ele>57</ele>
        <time>2021-04-24T12:41:54Z</time>
      </trkpt>
      <trkpt lat="43.63848" lon="3.80117">
        <ele>57</ele>
        <time>2021-04-24T12:41:55Z</time>
      </trkpt>
      <trkpt lat="43.63844" lon="3.80119">
        <ele>57</ele>
        <time>2021-04-24T12:41:56Z</time>
      </trkpt>
      <trkpt lat="43.6384" lon="3.80121">
        <ele>57</ele>
        <time>2021-04-24T12:41:57Z</time>
      </trkpt>
      <trkpt lat="43.63836" lon="3.80123">
        <ele>57</ele>
        <time>2021-04-24T12:41:58Z</time>
      </trkpt>
      <trkpt lat="43.63833" lon="3.80126">
        <ele>57</ele>
        <time>2021-04-24T12:41:59Z</time>
      </trkpt>
      <trkpt lat="43.6383" lon="3.80128">
        <ele>57</ele>
        <time>2021-04-24T12:42:00Z</time>
      </trkpt>
      <trkpt lat="43.63826" lon="3.80131">
        <ele>57</ele>
        <time>2021-04-24T12:42:01Z</time>
      </trkpt>
      <trkpt lat="43.63822" lon="3.80133">
        <ele>57</ele>
        <time>2021-04-24T12:42:02Z</time>
      </trkpt>
      <trkpt lat="43.63818" lon="3.80135">
        <ele>58</ele>
        <time>2021-04-24T12:42:03Z</time>
      </trkpt>
      <trkpt lat="43.63815" lon="3.80137">
        <ele>58</ele>
        <time>2021-04-24T12:42:04Z</time>
      </trkpt>
      <trkpt lat="43.63811" lon="3.80141">
        <ele>58</ele>
        <time>2021-04-24T12:42:05Z</time>
      </trkpt>
      <trkpt lat="43.63806" lon="3.80144">
        <ele>58</ele>
        <time>2021-04-24T12:42:06Z</time>
      </trkpt>
      <trkpt lat="43.63802" lon="3.80147">
        <ele>58</ele>
        <time>2021-04-24T12:42:07Z</time>
      </trkpt>
      <trkpt lat="43.63799" lon="3.80149">
        <ele>58</ele>
        <time>2021-04-24T12:42:08Z</time>
      </trkpt>
      <trkpt lat="43.63795" lon="3.80152">
        <ele>58</ele>
        <time>2021-04-24T12:42:09Z</time>
      </trkpt>
      <trkpt lat="43.63792" lon="3.80155">
        <ele>58</ele>
        <time>2021-04-24T12:42:10Z</time>
      </trkpt>
      <trkpt lat="43.63789" lon="3.80159">
        <ele>58</ele>
        <time>2021-04-24T12:42:11Z</time>
      </trkpt>
      <trkpt lat="43.63785" lon="3.80162">
        <ele>58</ele>
        <time>2021-04-24T12:42:12Z</time>
      </trkpt>
      <trkpt lat="43.63781" lon="3.80165">
        <ele>58</ele>
        <time>2021-04-24T12:42:13Z</time>
      </trkpt>
      <trkpt lat="43.63777" lon="3.80168">
        <ele>58</ele>
        <time>2021-04-24T12:42:14Z</time>
      </trkpt>
      <trkpt lat="43.63773" lon="3.80172">
        <ele>58</ele>
        <time>2021-04-24T12:42:15Z</time>
      </trkpt>
      <trkpt lat="43.63771" lon="3.80177">
        <ele>58</ele>
        <time>2021-04-24T12:42:16Z</time>
      </trkpt>
      <trkpt lat="43.63769" lon="3.80183">
        <ele>58</ele>
        <time>2021-04-24T12:42:17Z</time>
      </trkpt>
      <trkpt lat="43.63768" lon="3.80189">
        <ele>58</ele>
        <time>2021-04-24T12:42:18Z</time>
      </trkpt>
      <trkpt lat="43.63766" lon="3.80195">
        <ele>58</ele>
        <time>2021-04-24T12:42:19Z</time>
      </trkpt>
      <trkpt lat="43.63765" lon="3.80201">
        <ele>58</ele>
        <time>2021-04-24T12:42:20Z</time>
      </trkpt>
      <trkpt lat="43.63765" lon="3.80207">
        <ele>58</ele>
        <time>2021-04-24T12:42:21Z</time>
      </trkpt>
      <trkpt lat="43.63767" lon="3.80214">
        <ele>58</ele>
        <time>2021-04-24T12:42:22Z</time>
      </trkpt>
      <trkpt lat="43.63768" lon="3.80221">
        <ele>58</ele>
        <time>2021-04-24T12:42:23Z</time>
      </trkpt>
      <trkpt lat="43.6377" lon="3.80228">
        <ele>58</ele>
        <time>2021-04-24T12:42:24Z</time>
      </trkpt>
      <trkpt lat="43.6377" lon="3.80234">
        <ele>58</ele>
        <time>2021-04-24T12:42:25Z</time>
      </trkpt>
      <trkpt lat="43.63771" lon="3.80239">
        <ele>58</ele>
        <time>2021-04-24T12:42:26Z</time>
      </trkpt>
      <trkpt lat="43.63772" lon="3.80246">
        <ele>58</ele>
        <time>2021-04-24T12:42:27Z</time>
      </trkpt>
      <trkpt lat="43.63772" lon="3.80252">
        <ele>58</ele>
        <time>2021-04-24T12:42:28Z</time>
      </trkpt>
      <trkpt lat="43.63772" lon="3.80259">
        <ele>58</ele>
        <time>2021-04-24T12:42:29Z</time>
      </trkpt>
      <trkpt lat="43.63771" lon="3.80265">
        <ele>58</ele>
        <time>2021-04-24T12:42:30Z</time>
      </trkpt>
      <trkpt lat="43.63772" lon="3.80271">
        <ele>58</ele>
        <time>2021-04-24T12:42:31Z</time>
      </trkpt>
      <trkpt lat="43.63773" lon="3.80277">
        <ele>58</ele>
        <time>2021-04-24T12:42:32Z</time>
      </trkpt>
      <trkpt lat="43.63774" lon="3.80284">
        <ele>58</ele>
        <time>2021-04-24T12:42:33Z</time>
      </trkpt>
      <trkpt lat="43.63776" lon="3.8029">
        <ele>58</ele>
        <time>2021-04-24T12:42:34Z</time>
      </trkpt>
      <trkpt lat="43.63778" lon="3.80297">
        <ele>58</ele>
        <time>2021-04-24T12:42:35Z</time>
      </trkpt>
      <trkpt lat="43.6378" lon="3.80302">
        <ele>58</ele>
        <time>2021-04-24T12:42:36Z</time>
      </trkpt>
      <trkpt lat="43.63782" lon="3.80308">
        <ele>58</ele>
        <time>2021-04-24T12:42:37Z</time>
      </trkpt>
      <trkpt lat="43.63784" lon="3.80312">
        <ele>58</ele>
        <time>2021-04-24T12:42:38Z</time>
      </trkpt>
      <trkpt lat="43.63787" lon="3.80317">
        <ele>58</ele>
        <time>2021-04-24T12:42:39Z</time>
      </trkpt>
      <trkpt lat="43.63789" lon="3.80323">
        <ele>58</ele>
        <time>2021-04-24T12:42:40Z</time>
      </trkpt>
      <trkpt lat="43.63791" lon="3.80329">
        <ele>58</ele>
        <time>2021-04-24T12:42:41Z</time>
      </trkpt>
      <trkpt lat="43.63793" lon="3.80335">
        <ele>58</ele>
        <time>2021-04-24T12:42:42Z</time>
      </trkpt>
      <trkpt lat="43.63795" lon="3.8034">
        <ele>57</ele>
        <time>2021-04-24T12:42:43Z</time>
      </trkpt>
      <trkpt lat="43.63798" lon="3.80344">
        <ele>57</ele>
        <time>2021-04-24T12:42:44Z</time>
      </trkpt>
      <trkpt lat="43.63801" lon="3.80349">
        <ele>57</ele>
        <time>2021-04-24T12:42:45Z</time>
      </trkpt>
      <trkpt lat="43.63804" lon="3.80354">
        <ele>57</ele>
        <time>2021-04-24T12:42:46Z</time>
      </trkpt>
      <trkpt lat="43.63806" lon="3.80359">
        <ele>57</ele>
        <time>2021-04-24T12:42:47Z</time>
      </trkpt>
      <trkpt lat="43.63809" lon="3.80365">
        <ele>57</ele>
        <time>2021-04-24T12:42:48Z</time>
      </trkpt>
      <trkpt lat="43.63811" lon="3.80371">
        <ele>57</ele>
        <time>2021-04-24T12:42:49Z</time>
      </trkpt>
      <trkpt lat="43.63813" lon="3.80377">
        <ele>57</ele>
        <time>2021-04-24T12:42:50Z</time>
      </trkpt>
      <trkpt lat="43.63815" lon="3.80383">
        <ele>57</ele>
        <time>2021-04-24T12:42:51Z</time>
      </trkpt>
      <trkpt lat="43.63817" lon="3.80389">
        <ele>57</ele>
        <time>2021-04-24T12:42:52Z</time>
      </trkpt>
      <trkpt lat="43.63819" lon="3.80395">
        <ele>56</ele>
        <time>2021-04-24T12:42:53Z</time>
      </trkpt>
      <trkpt lat="43.63822" lon="3.804">
        <ele>56</ele>
        <time>2021-04-24T12:42:54Z</time>
      </trkpt>
      <trkpt lat="43.63825" lon="3.80403">
        <ele>56</ele>
        <time>2021-04-24T12:42:55Z</time>
      </trkpt>
      <trkpt lat="43.63828" lon="3.80404">
        <ele>56</ele>
        <time>2021-04-24T12:42:56Z</time>
      </trkpt>
      <trkpt lat="43.6383" lon="3.80405">
        <ele>56</ele>
        <time>2021-04-24T12:42:57Z</time>
      </trkpt>
      <trkpt lat="43.63833" lon="3.80403">
        <ele>56</ele>
        <time>2021-04-24T12:42:59Z</time>
      </trkpt>
      <trkpt lat="43.63836" lon="3.804">
        <ele>56</ele>
        <time>2021-04-24T12:43:01Z</time>
      </trkpt>
      <trkpt lat="43.63839" lon="3.804">
        <ele>55</ele>
        <time>2021-04-24T12:43:03Z</time>
      </trkpt>
      <trkpt lat="43.63841" lon="3.80401">
        <ele>55</ele>
        <time>2021-04-24T12:43:04Z</time>
      </trkpt>
      <trkpt lat="43.63843" lon="3.80403">
        <ele>55</ele>
        <time>2021-04-24T12:43:05Z</time>
      </trkpt>
      <trkpt lat="43.63844" lon="3.80405">
        <ele>55</ele>
        <time>2021-04-24T12:43:06Z</time>
      </trkpt>
      <trkpt lat="43.63846" lon="3.80407">
        <ele>55</ele>
        <time>2021-04-24T12:43:07Z</time>
      </trkpt>
      <trkpt lat="43.63847" lon="3.80409">
        <ele>55</ele>
        <time>2021-04-24T12:43:08Z</time>
      </trkpt>
      <trkpt lat="43.63848" lon="3.80412">
        <ele>55</ele>
        <time>2021-04-24T12:43:09Z</time>
      </trkpt>
      <trkpt lat="43.63849" lon="3.80414">
        <ele>55</ele>
        <time>2021-04-24T12:43:10Z</time>
      </trkpt>
      <trkpt lat="43.6385" lon="3.80416">
        <ele>55</ele>
        <time>2021-04-24T12:43:11Z</time>
      </trkpt>
      <trkpt lat="43.63852" lon="3.80419">
        <ele>55</ele>
        <time>2021-04-24T12:43:12Z</time>
      </trkpt>
      <trkpt lat="43.63853" lon="3.80421">
        <ele>55</ele>
        <time>2021-04-24T12:43:13Z</time>
      </trkpt>
      <trkpt lat="43.63855" lon="3.80424">
        <ele>55</ele>
        <time>2021-04-24T12:43:14Z</time>
      </trkpt>
      <trkpt lat="43.63857" lon="3.80427">
        <ele>55</ele>
        <time>2021-04-24T12:43:15Z</time>
      </trkpt>
      <trkpt lat="43.63858" lon="3.80429">
        <ele>55</ele>
        <time>2021-04-24T12:43:16Z</time>
      </trkpt>
      <trkpt lat="43.6386" lon="3.80432">
        <ele>55</ele>
        <time>2021-04-24T12:43:17Z</time>
      </trkpt>
      <trkpt lat="43.63861" lon="3.80434">
        <ele>55</ele>
        <time>2021-04-24T12:43:18Z</time>
      </trkpt>
      <trkpt lat="43.63863" lon="3.80436">
        <ele>55</ele>
        <time>2021-04-24T12:43:19Z</time>
      </trkpt>
      <trkpt lat="43.63864" lon="3.80438">
        <ele>55</ele>
        <time>2021-04-24T12:43:20Z</time>
      </trkpt>
      <trkpt lat="43.63866" lon="3.80441">
        <ele>55</ele>
        <time>2021-04-24T12:43:21Z</time>
      </trkpt>
      <trkpt lat="43.63868" lon="3.80443">
        <ele>55</ele>
        <time>2021-04-24T12:43:22Z</time>
      </trkpt>
      <trkpt lat="43.63869" lon="3.80445">
        <ele>54</ele>
        <time>2021-04-24T12:43:23Z</time>
      </trkpt>
      <trkpt lat="43.63871" lon="3.80447">
        <ele>54</ele>
        <time>2021-04-24T12:43:24Z</time>
      </trkpt>
      <trkpt lat="43.63873" lon="3.80449">
        <ele>54</ele>
        <time>2021-04-24T12:43:25Z</time>
      </trkpt>
      <trkpt lat="43.63875" lon="3.80452">
        <ele>54</ele>
        <time>2021-04-24T12:43:26Z</time>
      </trkpt>
      <trkpt lat="43.63876" lon="3.80454">
        <ele>54</ele>
        <time>2021-04-24T12:43:27Z</time>
      </trkpt>
      <trkpt lat="43.63878" lon="3.80457">
        <ele>54</ele>
        <time>2021-04-24T12:43:28Z</time>
      </trkpt>
      <trkpt lat="43.63879" lon="3.80459">
        <ele>54</ele>
        <time>2021-04-24T12:43:29Z</time>
      </trkpt>
      <trkpt lat="43.6388" lon="3.80462">
        <ele>54</ele>
        <time>2021-04-24T12:43:30Z</time>
      </trkpt>
      <trkpt lat="43.63882" lon="3.80464">
        <ele>54</ele>
        <time>2021-04-24T12:43:31Z</time>
      </trkpt>
      <trkpt lat="43.63882" lon="3.80467">
        <ele>54</ele>
        <time>2021-04-24T12:43:32Z</time>
      </trkpt>
      <trkpt lat="43.63883" lon="3.8047">
        <ele>54</ele>
        <time>2021-04-24T12:43:33Z</time>
      </trkpt>
      <trkpt lat="43.63884" lon="3.80472">
        <ele>54</ele>
        <time>2021-04-24T12:43:34Z</time>
      </trkpt>
      <trkpt lat="43.63886" lon="3.80475">
        <ele>54</ele>
        <time>2021-04-24T12:43:35Z</time>
      </trkpt>
      <trkpt lat="43.63887" lon="3.80477">
        <ele>54</ele>
        <time>2021-04-24T12:43:36Z</time>
      </trkpt>
      <trkpt lat="43.63888" lon="3.80479">
        <ele>54</ele>
        <time>2021-04-24T12:43:37Z</time>
      </trkpt>
      <trkpt lat="43.6389" lon="3.80481">
        <ele>54</ele>
        <time>2021-04-24T12:43:38Z</time>
      </trkpt>
      <trkpt lat="43.63891" lon="3.80483">
        <ele>54</ele>
        <time>2021-04-24T12:43:39Z</time>
      </trkpt>
      <trkpt lat="43.63893" lon="3.80486">
        <ele>54</ele>
        <time>2021-04-24T12:43:41Z</time>
      </trkpt>
      <trkpt lat="43.63896" lon="3.80488">
        <ele>54</ele>
        <time>2021-04-24T12:43:43Z</time>
      </trkpt>
      <trkpt lat="43.63896" lon="3.80491">
        <ele>54</ele>
        <time>2021-04-24T12:43:45Z</time>
      </trkpt>
      <trkpt lat="43.63896" lon="3.80493">
        <ele>54</ele>
        <time>2021-04-24T12:43:52Z</time>
      </trkpt>
      <trkpt lat="43.63885" lon="3.80509">
        <ele>54</ele>
        <time>2021-04-24T12:44:07Z</time>
      </trkpt>
      <trkpt lat="43.63884" lon="3.80512">
        <ele>54</ele>
        <time>2021-04-24T12:44:08Z</time>
      </trkpt>
      <trkpt lat="43.63882" lon="3.80515">
        <ele>54</ele>
        <time>2021-04-24T12:44:09Z</time>
      </trkpt>
      <trkpt lat="43.63881" lon="3.80517">
        <ele>54</ele>
        <time>2021-04-24T12:44:10Z</time>
      </trkpt>
      <trkpt lat="43.63879" lon="3.80519">
        <ele>54</ele>
        <time>2021-04-24T12:44:12Z</time>
      </trkpt>
      <trkpt lat="43.63879" lon="3.80522">
        <ele>54</ele>
        <time>2021-04-24T12:44:14Z</time>
      </trkpt>
      <trkpt lat="43.6388" lon="3.80526">
        <ele>54</ele>
        <time>2021-04-24T12:44:16Z</time>
      </trkpt>
      <trkpt lat="43.63882" lon="3.8053">
        <ele>54</ele>
        <time>2021-04-24T12:44:18Z</time>
      </trkpt>
      <trkpt lat="43.63883" lon="3.80532">
        <ele>54</ele>
        <time>2021-04-24T12:44:19Z</time>
      </trkpt>
      <trkpt lat="43.63885" lon="3.80535">
        <ele>54</ele>
        <time>2021-04-24T12:44:20Z</time>
      </trkpt>
      <trkpt lat="43.63886" lon="3.80538">
        <ele>54</ele>
        <time>2021-04-24T12:44:21Z</time>
      </trkpt>
      <trkpt lat="43.63887" lon="3.80541">
        <ele>54</ele>
        <time>2021-04-24T12:44:22Z</time>
      </trkpt>
      <trkpt lat="43.63887" lon="3.80544">
        <ele>54</ele>
        <time>2021-04-24T12:44:23Z</time>
      </trkpt>
      <trkpt lat="43.63887" lon="3.80547">
        <ele>54</ele>
        <time>2021-04-24T12:44:24Z</time>
      </trkpt>
      <trkpt lat="43.63888" lon="3.8055">
        <ele>54</ele>
        <time>2021-04-24T12:44:25Z</time>
      </trkpt>
      <trkpt lat="43.63888" lon="3.80554">
        <ele>54</ele>
        <time>2021-04-24T12:44:26Z</time>
      </trkpt>
      <trkpt lat="43.63888" lon="3.80558">
        <ele>55</ele>
        <time>2021-04-24T12:44:27Z</time>
      </trkpt>
      <trkpt lat="43.63888" lon="3.80562">
        <ele>55</ele>
        <time>2021-04-24T12:44:28Z</time>
      </trkpt>
      <trkpt lat="43.63887" lon="3.80565">
        <ele>55</ele>
        <time>2021-04-24T12:44:29Z</time>
      </trkpt>
      <trkpt lat="43.63885" lon="3.80569">
        <ele>55</ele>
        <time>2021-04-24T12:44:30Z</time>
      </trkpt>
      <trkpt lat="43.63883" lon="3.80572">
        <ele>55</ele>
        <time>2021-04-24T12:44:31Z</time>
      </trkpt>
      <trkpt lat="43.63881" lon="3.8058">
        <ele>55</ele>
        <time>2021-04-24T12:44:33Z</time>
      </trkpt>
      <trkpt lat="43.63879" lon="3.80583">
        <ele>55</ele>
        <time>2021-04-24T12:44:34Z</time>
      </trkpt>
      <trkpt lat="43.63876" lon="3.80586">
        <ele>55</ele>
        <time>2021-04-24T12:44:35Z</time>
      </trkpt>
      <trkpt lat="43.63874" lon="3.8059">
        <ele>55</ele>
        <time>2021-04-24T12:44:36Z</time>
      </trkpt>
      <trkpt lat="43.63873" lon="3.80593">
        <ele>55</ele>
        <time>2021-04-24T12:44:37Z</time>
      </trkpt>
      <trkpt lat="43.63872" lon="3.80597">
        <ele>55</ele>
        <time>2021-04-24T12:44:38Z</time>
      </trkpt>
      <trkpt lat="43.63871" lon="3.80599">
        <ele>55</ele>
        <time>2021-04-24T12:44:39Z</time>
      </trkpt>
      <trkpt lat="43.63872" lon="3.80603">
        <ele>55</ele>
        <time>2021-04-24T12:44:40Z</time>
      </trkpt>
      <trkpt lat="43.63871" lon="3.80607">
        <ele>55</ele>
        <time>2021-04-24T12:44:41Z</time>
      </trkpt>
      <trkpt lat="43.63871" lon="3.8061">
        <ele>55</ele>
        <time>2021-04-24T12:44:42Z</time>
      </trkpt>
      <trkpt lat="43.6387" lon="3.80614">
        <ele>55</ele>
        <time>2021-04-24T12:44:43Z</time>
      </trkpt>
      <trkpt lat="43.6387" lon="3.80617">
        <ele>55</ele>
        <time>2021-04-24T12:44:44Z</time>
      </trkpt>
      <trkpt lat="43.6387" lon="3.8062">
        <ele>55</ele>
        <time>2021-04-24T12:44:45Z</time>
      </trkpt>
      <trkpt lat="43.6387" lon="3.80623">
        <ele>55</ele>
        <time>2021-04-24T12:44:46Z</time>
      </trkpt>
      <trkpt lat="43.6387" lon="3.80628">
        <ele>56</ele>
        <time>2021-04-24T12:44:47Z</time>
      </trkpt>
      <trkpt lat="43.6387" lon="3.80632">
        <ele>56</ele>
        <time>2021-04-24T12:44:48Z</time>
      </trkpt>
      <trkpt lat="43.63869" lon="3.80636">
        <ele>56</ele>
        <time>2021-04-24T12:44:49Z</time>
      </trkpt>
      <trkpt lat="43.63868" lon="3.80641">
        <ele>56</ele>
        <time>2021-04-24T12:44:50Z</time>
      </trkpt>
      <trkpt lat="43.63867" lon="3.80645">
        <ele>56</ele>
        <time>2021-04-24T12:44:51Z</time>
      </trkpt>
      <trkpt lat="43.63866" lon="3.80649">
        <ele>56</ele>
        <time>2021-04-24T12:44:52Z</time>
      </trkpt>
      <trkpt lat="43.63866" lon="3.80653">
        <ele>56</ele>
        <time>2021-04-24T12:44:53Z</time>
      </trkpt>
      <trkpt lat="43.63866" lon="3.80656">
        <ele>56</ele>
        <time>2021-04-24T12:44:54Z</time>
      </trkpt>
      <trkpt lat="43.63866" lon="3.80659">
        <ele>56</ele>
        <time>2021-04-24T12:44:55Z</time>
      </trkpt>
      <trkpt lat="43.63865" lon="3.80662">
        <ele>56</ele>
        <time>2021-04-24T12:44:56Z</time>
      </trkpt>
      <trkpt lat="43.63865" lon="3.80665">
        <ele>56</ele>
        <time>2021-04-24T12:44:57Z</time>
      </trkpt>
      <trkpt lat="43.63865" lon="3.80668">
        <ele>56</ele>
        <time>2021-04-24T12:44:58Z</time>
      </trkpt>
      <trkpt lat="43.63865" lon="3.80672">
        <ele>56</ele>
        <time>2021-04-24T12:44:59Z</time>
      </trkpt>
      <trkpt lat="43.63867" lon="3.80687">
        <ele>56</ele>
        <time>2021-04-24T12:45:04Z</time>
      </trkpt>
      <trkpt lat="43.63871" lon="3.80695">
        <ele>56</ele>
        <time>2021-04-24T12:45:06Z</time>
      </trkpt>
      <trkpt lat="43.63872" lon="3.80697">
        <ele>56</ele>
        <time>2021-04-24T12:45:07Z</time>
      </trkpt>
      <trkpt lat="43.63872" lon="3.80701">
        <ele>56</ele>
        <time>2021-04-24T12:45:09Z</time>
      </trkpt>
      <trkpt lat="43.63874" lon="3.80703">
        <ele>56</ele>
        <time>2021-04-24T12:45:10Z</time>
      </trkpt>
      <trkpt lat="43.63876" lon="3.80704">
        <ele>56</ele>
        <time>2021-04-24T12:45:11Z</time>
      </trkpt>
      <trkpt lat="43.63877" lon="3.80707">
        <ele>56</ele>
        <time>2021-04-24T12:45:13Z</time>
      </trkpt>
      <trkpt lat="43.63878" lon="3.80709">
        <ele>56</ele>
        <time>2021-04-24T12:45:15Z</time>
      </trkpt>
      <trkpt lat="43.63878" lon="3.80712">
        <ele>56</ele>
        <time>2021-04-24T12:45:22Z</time>
      </trkpt>
      <trkpt lat="43.63879" lon="3.80713">
        <ele>54</ele>
        <time>2021-04-24T12:45:24Z</time>
      </trkpt>
      <trkpt lat="43.63877" lon="3.80718">
        <ele>55</ele>
        <time>2021-04-24T12:45:33Z</time>
      </trkpt>
      <trkpt lat="43.63877" lon="3.80719">
        <ele>55</ele>
        <time>2021-04-24T12:45:34Z</time>
      </trkpt>
      <trkpt lat="43.63877" lon="3.8072">
        <ele>55</ele>
        <time>2021-04-24T12:45:37Z</time>
      </trkpt>
      <trkpt lat="43.63872" lon="3.80726">
        <ele>56</ele>
        <time>2021-04-24T12:45:43Z</time>
      </trkpt>
      <trkpt lat="43.63865" lon="3.80739">
        <ele>54</ele>
        <time>2021-04-24T12:46:17Z</time>
      </trkpt>
      <trkpt lat="43.63865" lon="3.80742">
        <ele>54</ele>
        <time>2021-04-24T12:46:19Z</time>
      </trkpt>
      <trkpt lat="43.63865" lon="3.80746">
        <ele>54</ele>
        <time>2021-04-24T12:46:21Z</time>
      </trkpt>
      <trkpt lat="43.63865" lon="3.8075">
        <ele>54</ele>
        <time>2021-04-24T12:46:23Z</time>
      </trkpt>
      <trkpt lat="43.63865" lon="3.80753">
        <ele>54</ele>
        <time>2021-04-24T12:46:24Z</time>
      </trkpt>
      <trkpt lat="43.63864" lon="3.80756">
        <ele>54</ele>
        <time>2021-04-24T12:46:25Z</time>
      </trkpt>
      <trkpt lat="43.63863" lon="3.80758">
        <ele>54</ele>
        <time>2021-04-24T12:46:26Z</time>
      </trkpt>
      <trkpt lat="43.63862" lon="3.8076">
        <ele>54</ele>
        <time>2021-04-24T12:46:27Z</time>
      </trkpt>
      <trkpt lat="43.6386" lon="3.80762">
        <ele>54</ele>
        <time>2021-04-24T12:46:28Z</time>
      </trkpt>
      <trkpt lat="43.63859" lon="3.80764">
        <ele>54</ele>
        <time>2021-04-24T12:46:29Z</time>
      </trkpt>
      <trkpt lat="43.63858" lon="3.80767">
        <ele>54</ele>
        <time>2021-04-24T12:46:30Z</time>
      </trkpt>
      <trkpt lat="43.63858" lon="3.80769">
        <ele>54</ele>
        <time>2021-04-24T12:46:31Z</time>
      </trkpt>
      <trkpt lat="43.63857" lon="3.80772">
        <ele>54</ele>
        <time>2021-04-24T12:46:32Z</time>
      </trkpt>
      <trkpt lat="43.63855" lon="3.80776">
        <ele>54</ele>
        <time>2021-04-24T12:46:34Z</time>
      </trkpt>
      <trkpt lat="43.63853" lon="3.8078">
        <ele>54</ele>
        <time>2021-04-24T12:46:36Z</time>
      </trkpt>
      <trkpt lat="43.63852" lon="3.80782">
        <ele>55</ele>
        <time>2021-04-24T12:46:37Z</time>
      </trkpt>
      <trkpt lat="43.63851" lon="3.80785">
        <ele>55</ele>
        <time>2021-04-24T12:46:38Z</time>
      </trkpt>
      <trkpt lat="43.63849" lon="3.80788">
        <ele>55</ele>
        <time>2021-04-24T12:46:39Z</time>
      </trkpt>
      <trkpt lat="43.63848" lon="3.80791">
        <ele>55</ele>
        <time>2021-04-24T12:46:40Z</time>
      </trkpt>
      <trkpt lat="43.63846" lon="3.80793">
        <ele>55</ele>
        <time>2021-04-24T12:46:41Z</time>
      </trkpt>
      <trkpt lat="43.63844" lon="3.80794">
        <ele>55</ele>
        <time>2021-04-24T12:46:42Z</time>
      </trkpt>
      <trkpt lat="43.63842" lon="3.80794">
        <ele>55</ele>
        <time>2021-04-24T12:46:43Z</time>
      </trkpt>
      <trkpt lat="43.63841" lon="3.80797">
        <ele>55</ele>
        <time>2021-04-24T12:46:46Z</time>
      </trkpt>
      <trkpt lat="43.6384" lon="3.80797">
        <ele>54</ele>
        <time>2021-04-24T12:46:52Z</time>
      </trkpt>
      <trkpt lat="43.63838" lon="3.80802">
        <ele>54</ele>
        <time>2021-04-24T12:46:57Z</time>
      </trkpt>
      <trkpt lat="43.63837" lon="3.80804">
        <ele>54</ele>
        <time>2021-04-24T12:46:59Z</time>
      </trkpt>
      <trkpt lat="43.63838" lon="3.80812">
        <ele>52</ele>
        <time>2021-04-24T12:47:11Z</time>
      </trkpt>
      <trkpt lat="43.63837" lon="3.80816">
        <ele>52</ele>
        <time>2021-04-24T12:47:13Z</time>
      </trkpt>
      <trkpt lat="43.63834" lon="3.8082">
        <ele>52</ele>
        <time>2021-04-24T12:47:15Z</time>
      </trkpt>
      <trkpt lat="43.63832" lon="3.80823">
        <ele>52</ele>
        <time>2021-04-24T12:47:17Z</time>
      </trkpt>
      <trkpt lat="43.6383" lon="3.80825">
        <ele>52</ele>
        <time>2021-04-24T12:47:18Z</time>
      </trkpt>
      <trkpt lat="43.63829" lon="3.80826">
        <ele>52</ele>
        <time>2021-04-24T12:47:19Z</time>
      </trkpt>
      <trkpt lat="43.63826" lon="3.80828">
        <ele>53</ele>
        <time>2021-04-24T12:47:21Z</time>
      </trkpt>
      <trkpt lat="43.63823" lon="3.8083">
        <ele>53</ele>
        <time>2021-04-24T12:47:23Z</time>
      </trkpt>
      <trkpt lat="43.6382" lon="3.80831">
        <ele>53</ele>
        <time>2021-04-24T12:47:25Z</time>
      </trkpt>
      <trkpt lat="43.63816" lon="3.80832">
        <ele>53</ele>
        <time>2021-04-24T12:47:27Z</time>
      </trkpt>
      <trkpt lat="43.63814" lon="3.80833">
        <ele>53</ele>
        <time>2021-04-24T12:47:28Z</time>
      </trkpt>
      <trkpt lat="43.63812" lon="3.80834">
        <ele>53</ele>
        <time>2021-04-24T12:47:29Z</time>
      </trkpt>
      <trkpt lat="43.6381" lon="3.80835">
        <ele>53</ele>
        <time>2021-04-24T12:47:30Z</time>
      </trkpt>
      <trkpt lat="43.63808" lon="3.80836">
        <ele>53</ele>
        <time>2021-04-24T12:47:31Z</time>
      </trkpt>
      <trkpt lat="43.63806" lon="3.80836">
        <ele>53</ele>
        <time>2021-04-24T12:47:32Z</time>
      </trkpt>
      <trkpt lat="43.63804" lon="3.80837">
        <ele>53</ele>
        <time>2021-04-24T12:47:33Z</time>
      </trkpt>
      <trkpt lat="43.63802" lon="3.80838">
        <ele>53</ele>
        <time>2021-04-24T12:47:34Z</time>
      </trkpt>
      <trkpt lat="43.63799" lon="3.80839">
        <ele>53</ele>
        <time>2021-04-24T12:47:35Z</time>
      </trkpt>
      <trkpt lat="43.63797" lon="3.8084">
        <ele>53</ele>
        <time>2021-04-24T12:47:36Z</time>
      </trkpt>
      <trkpt lat="43.63795" lon="3.80841">
        <ele>53</ele>
        <time>2021-04-24T12:47:37Z</time>
      </trkpt>
      <trkpt lat="43.63793" lon="3.80841">
        <ele>53</ele>
        <time>2021-04-24T12:47:38Z</time>
      </trkpt>
      <trkpt lat="43.6379" lon="3.80842">
        <ele>53</ele>
        <time>2021-04-24T12:47:39Z</time>
      </trkpt>
      <trkpt lat="43.63787" lon="3.80843">
        <ele>53</ele>
        <time>2021-04-24T12:47:40Z</time>
      </trkpt>
      <trkpt lat="43.63784" lon="3.80844">
        <ele>53</ele>
        <time>2021-04-24T12:47:41Z</time>
      </trkpt>
      <trkpt lat="43.63781" lon="3.80845">
        <ele>53</ele>
        <time>2021-04-24T12:47:42Z</time>
      </trkpt>
      <trkpt lat="43.63777" lon="3.80846">
        <ele>53</ele>
        <time>2021-04-24T12:47:43Z</time>
      </trkpt>
      <trkpt lat="43.63774" lon="3.80847">
        <ele>53</ele>
        <time>2021-04-24T12:47:44Z</time>
      </trkpt>
      <trkpt lat="43.63771" lon="3.80847">
        <ele>53</ele>
        <time>2021-04-24T12:47:45Z</time>
      </trkpt>
      <trkpt lat="43.63767" lon="3.80848">
        <ele>53</ele>
        <time>2021-04-24T12:47:46Z</time>
      </trkpt>
      <trkpt lat="43.63764" lon="3.80849">
        <ele>53</ele>
        <time>2021-04-24T12:47:47Z</time>
      </trkpt>
      <trkpt lat="43.63761" lon="3.8085">
        <ele>53</ele>
        <time>2021-04-24T12:47:48Z</time>
      </trkpt>
      <trkpt lat="43.63757" lon="3.80852">
        <ele>53</ele>
        <time>2021-04-24T12:47:49Z</time>
      </trkpt>
      <trkpt lat="43.63754" lon="3.80853">
        <ele>53</ele>
        <time>2021-04-24T12:47:50Z</time>
      </trkpt>
      <trkpt lat="43.63751" lon="3.80853">
        <ele>54</ele>
        <time>2021-04-24T12:47:51Z</time>
      </trkpt>
      <trkpt lat="43.63747" lon="3.80854">
        <ele>54</ele>
        <time>2021-04-24T12:47:52Z</time>
      </trkpt>
      <trkpt lat="43.63743" lon="3.80854">
        <ele>54</ele>
        <time>2021-04-24T12:47:53Z</time>
      </trkpt>
      <trkpt lat="43.6374" lon="3.80855">
        <ele>54</ele>
        <time>2021-04-24T12:47:54Z</time>
      </trkpt>
      <trkpt lat="43.63736" lon="3.80855">
        <ele>54</ele>
        <time>2021-04-24T12:47:55Z</time>
      </trkpt>
      <trkpt lat="43.63733" lon="3.80855">
        <ele>54</ele>
        <time>2021-04-24T12:47:56Z</time>
      </trkpt>
      <trkpt lat="43.6373" lon="3.80855">
        <ele>54</ele>
        <time>2021-04-24T12:47:57Z</time>
      </trkpt>
      <trkpt lat="43.63726" lon="3.80855">
        <ele>54</ele>
        <time>2021-04-24T12:47:58Z</time>
      </trkpt>
      <trkpt lat="43.63723" lon="3.80854">
        <ele>54</ele>
        <time>2021-04-24T12:47:59Z</time>
      </trkpt>
      <trkpt lat="43.6372" lon="3.80854">
        <ele>54</ele>
        <time>2021-04-24T12:48:00Z</time>
      </trkpt>
      <trkpt lat="43.63716" lon="3.80853">
        <ele>55</ele>
        <time>2021-04-24T12:48:01Z</time>
      </trkpt>
      <trkpt lat="43.63713" lon="3.80853">
        <ele>55</ele>
        <time>2021-04-24T12:48:02Z</time>
      </trkpt>
      <trkpt lat="43.6371" lon="3.80853">
        <ele>55</ele>
        <time>2021-04-24T12:48:03Z</time>
      </trkpt>
      <trkpt lat="43.63707" lon="3.80853">
        <ele>55</ele>
        <time>2021-04-24T12:48:04Z</time>
      </trkpt>
      <trkpt lat="43.63704" lon="3.80853">
        <ele>55</ele>
        <time>2021-04-24T12:48:05Z</time>
      </trkpt>
      <trkpt lat="43.63701" lon="3.80853">
        <ele>55</ele>
        <time>2021-04-24T12:48:06Z</time>
      </trkpt>
      <trkpt lat="43.63698" lon="3.80853">
        <ele>55</ele>
        <time>2021-04-24T12:48:07Z</time>
      </trkpt>
      <trkpt lat="43.63694" lon="3.80852">
        <ele>55</ele>
        <time>2021-04-24T12:48:08Z</time>
      </trkpt>
      <trkpt lat="43.63691" lon="3.80852">
        <ele>55</ele>
        <time>2021-04-24T12:48:09Z</time>
      </trkpt>
      <trkpt lat="43.63688" lon="3.80851">
        <ele>55</ele>
        <time>2021-04-24T12:48:10Z</time>
      </trkpt>
      <trkpt lat="43.63685" lon="3.80851">
        <ele>56</ele>
        <time>2021-04-24T12:48:11Z</time>
      </trkpt>
      <trkpt lat="43.63682" lon="3.80852">
        <ele>56</ele>
        <time>2021-04-24T12:48:12Z</time>
      </trkpt>
      <trkpt lat="43.63679" lon="3.80854">
        <ele>56</ele>
        <time>2021-04-24T12:48:13Z</time>
      </trkpt>
      <trkpt lat="43.63676" lon="3.80857">
        <ele>56</ele>
        <time>2021-04-24T12:48:14Z</time>
      </trkpt>
      <trkpt lat="43.63673" lon="3.80859">
        <ele>56</ele>
        <time>2021-04-24T12:48:15Z</time>
      </trkpt>
      <trkpt lat="43.63671" lon="3.80862">
        <ele>56</ele>
        <time>2021-04-24T12:48:16Z</time>
      </trkpt>
      <trkpt lat="43.63668" lon="3.80864">
        <ele>56</ele>
        <time>2021-04-24T12:48:17Z</time>
      </trkpt>
      <trkpt lat="43.63665" lon="3.80865">
        <ele>56</ele>
        <time>2021-04-24T12:48:18Z</time>
      </trkpt>
      <trkpt lat="43.63662" lon="3.80866">
        <ele>56</ele>
        <time>2021-04-24T12:48:19Z</time>
      </trkpt>
      <trkpt lat="43.63659" lon="3.80867">
        <ele>56</ele>
        <time>2021-04-24T12:48:20Z</time>
      </trkpt>
      <trkpt lat="43.63656" lon="3.80868">
        <ele>53</ele>
        <time>2021-04-24T12:48:21Z</time>
      </trkpt>
      <trkpt lat="43.63653" lon="3.80869">
        <ele>53</ele>
        <time>2021-04-24T12:48:22Z</time>
      </trkpt>
      <trkpt lat="43.6365" lon="3.80869">
        <ele>53</ele>
        <time>2021-04-24T12:48:23Z</time>
      </trkpt>
      <trkpt lat="43.63647" lon="3.8087">
        <ele>53</ele>
        <time>2021-04-24T12:48:24Z</time>
      </trkpt>
      <trkpt lat="43.63644" lon="3.80871">
        <ele>53</ele>
        <time>2021-04-24T12:48:25Z</time>
      </trkpt>
      <trkpt lat="43.63641" lon="3.80872">
        <ele>53</ele>
        <time>2021-04-24T12:48:26Z</time>
      </trkpt>
      <trkpt lat="43.63639" lon="3.80872">
        <ele>53</ele>
        <time>2021-04-24T12:48:27Z</time>
      </trkpt>
      <trkpt lat="43.63636" lon="3.80872">
        <ele>53</ele>
        <time>2021-04-24T12:48:28Z</time>
      </trkpt>
      <trkpt lat="43.63634" lon="3.80872">
        <ele>53</ele>
        <time>2021-04-24T12:48:29Z</time>
      </trkpt>
      <trkpt lat="43.63632" lon="3.80871">
        <ele>53</ele>
        <time>2021-04-24T12:48:30Z</time>
      </trkpt>
      <trkpt lat="43.63629" lon="3.80871">
        <ele>55</ele>
        <time>2021-04-24T12:48:31Z</time>
      </trkpt>
      <trkpt lat="43.63626" lon="3.80871">
        <ele>55</ele>
        <time>2021-04-24T12:48:32Z</time>
      </trkpt>
      <trkpt lat="43.63624" lon="3.8087">
        <ele>55</ele>
        <time>2021-04-24T12:48:33Z</time>
      </trkpt>
      <trkpt lat="43.63621" lon="3.80869">
        <ele>55</ele>
        <time>2021-04-24T12:48:34Z</time>
      </trkpt>
      <trkpt lat="43.63618" lon="3.80868">
        <ele>55</ele>
        <time>2021-04-24T12:48:35Z</time>
      </trkpt>
      <trkpt lat="43.63615" lon="3.80867">
        <ele>55</ele>
        <time>2021-04-24T12:48:36Z</time>
      </trkpt>
      <trkpt lat="43.63612" lon="3.80866">
        <ele>55</ele>
        <time>2021-04-24T12:48:37Z</time>
      </trkpt>
      <trkpt lat="43.6361" lon="3.80864">
        <ele>55</ele>
        <time>2021-04-24T12:48:38Z</time>
      </trkpt>
      <trkpt lat="43.63607" lon="3.80863">
        <ele>55</ele>
        <time>2021-04-24T12:48:39Z</time>
      </trkpt>
      <trkpt lat="43.63604" lon="3.80861">
        <ele>55</ele>
        <time>2021-04-24T12:48:40Z</time>
      </trkpt>
      <trkpt lat="43.636" lon="3.8086">
        <ele>56</ele>
        <time>2021-04-24T12:48:41Z</time>
      </trkpt>
      <trkpt lat="43.63597" lon="3.80859">
        <ele>56</ele>
        <time>2021-04-24T12:48:42Z</time>
      </trkpt>
      <trkpt lat="43.63594" lon="3.80858">
        <ele>56</ele>
        <time>2021-04-24T12:48:43Z</time>
      </trkpt>
      <trkpt lat="43.63591" lon="3.80855">
        <ele>56</ele>
        <time>2021-04-24T12:48:44Z</time>
      </trkpt>
      <trkpt lat="43.63588" lon="3.80853">
        <ele>56</ele>
        <time>2021-04-24T12:48:45Z</time>
      </trkpt>
      <trkpt lat="43.63585" lon="3.80851">
        <ele>56</ele>
        <time>2021-04-24T12:48:46Z</time>
      </trkpt>
      <trkpt lat="43.63582" lon="3.80848">
        <ele>56</ele>
        <time>2021-04-24T12:48:47Z</time>
      </trkpt>
      <trkpt lat="43.63579" lon="3.80845">
        <ele>56</ele>
        <time>2021-04-24T12:48:48Z</time>
      </trkpt>
      <trkpt lat="43.63576" lon="3.80843">
        <ele>56</ele>
        <time>2021-04-24T12:48:49Z</time>
      </trkpt>
      <trkpt lat="43.63573" lon="3.8084">
        <ele>56</ele>
        <time>2021-04-24T12:48:50Z</time>
      </trkpt>
      <trkpt lat="43.63571" lon="3.80837">
        <ele>55</ele>
        <time>2021-04-24T12:48:51Z</time>
      </trkpt>
      <trkpt lat="43.63568" lon="3.80833">
        <ele>55</ele>
        <time>2021-04-24T12:48:52Z</time>
      </trkpt>
      <trkpt lat="43.63565" lon="3.8083">
        <ele>55</ele>
        <time>2021-04-24T12:48:53Z</time>
      </trkpt>
      <trkpt lat="43.63563" lon="3.80826">
        <ele>55</ele>
        <time>2021-04-24T12:48:54Z</time>
      </trkpt>
      <trkpt lat="43.6356" lon="3.80823">
        <ele>55</ele>
        <time>2021-04-24T12:48:55Z</time>
      </trkpt>
      <trkpt lat="43.63557" lon="3.8082">
        <ele>55</ele>
        <time>2021-04-24T12:48:56Z</time>
      </trkpt>
      <trkpt lat="43.63554" lon="3.80817">
        <ele>55</ele>
        <time>2021-04-24T12:48:57Z</time>
      </trkpt>
      <trkpt lat="43.63551" lon="3.80814">
        <ele>55</ele>
        <time>2021-04-24T12:48:58Z</time>
      </trkpt>
      <trkpt lat="43.63549" lon="3.80811">
        <ele>55</ele>
        <time>2021-04-24T12:48:59Z</time>
      </trkpt>
      <trkpt lat="43.63546" lon="3.80808">
        <ele>55</ele>
        <time>2021-04-24T12:49:00Z</time>
      </trkpt>
      <trkpt lat="43.63543" lon="3.80805">
        <ele>55</ele>
        <time>2021-04-24T12:49:01Z</time>
      </trkpt>
      <trkpt lat="43.6354" lon="3.80802">
        <ele>55</ele>
        <time>2021-04-24T12:49:02Z</time>
      </trkpt>
      <trkpt lat="43.63537" lon="3.80799">
        <ele>55</ele>
        <time>2021-04-24T12:49:03Z</time>
      </trkpt>
      <trkpt lat="43.63534" lon="3.80796">
        <ele>55</ele>
        <time>2021-04-24T12:49:04Z</time>
      </trkpt>
      <trkpt lat="43.63532" lon="3.80793">
        <ele>55</ele>
        <time>2021-04-24T12:49:05Z</time>
      </trkpt>
      <trkpt lat="43.6353" lon="3.8079">
        <ele>55</ele>
        <time>2021-04-24T12:49:06Z</time>
      </trkpt>
      <trkpt lat="43.63527" lon="3.80787">
        <ele>55</ele>
        <time>2021-04-24T12:49:07Z</time>
      </trkpt>
      <trkpt lat="43.63525" lon="3.80785">
        <ele>55</ele>
        <time>2021-04-24T12:49:08Z</time>
      </trkpt>
      <trkpt lat="43.63522" lon="3.80783">
        <ele>55</ele>
        <time>2021-04-24T12:49:09Z</time>
      </trkpt>
      <trkpt lat="43.63519" lon="3.80781">
        <ele>55</ele>
        <time>2021-04-24T12:49:10Z</time>
      </trkpt>
      <trkpt lat="43.63517" lon="3.80779">
        <ele>54</ele>
        <time>2021-04-24T12:49:11Z</time>
      </trkpt>
      <trkpt lat="43.63514" lon="3.80777">
        <ele>54</ele>
        <time>2021-04-24T12:49:12Z</time>
      </trkpt>
      <trkpt lat="43.63511" lon="3.80776">
        <ele>54</ele>
        <time>2021-04-24T12:49:13Z</time>
      </trkpt>
      <trkpt lat="43.63508" lon="3.80775">
        <ele>54</ele>
        <time>2021-04-24T12:49:14Z</time>
      </trkpt>
      <trkpt lat="43.63504" lon="3.80774">
        <ele>54</ele>
        <time>2021-04-24T12:49:15Z</time>
      </trkpt>
      <trkpt lat="43.63501" lon="3.80774">
        <ele>54</ele>
        <time>2021-04-24T12:49:16Z</time>
      </trkpt>
      <trkpt lat="43.63498" lon="3.80774">
        <ele>54</ele>
        <time>2021-04-24T12:49:17Z</time>
      </trkpt>
      <trkpt lat="43.63495" lon="3.80775">
        <ele>54</ele>
        <time>2021-04-24T12:49:18Z</time>
      </trkpt>
      <trkpt lat="43.63491" lon="3.80775">
        <ele>54</ele>
        <time>2021-04-24T12:49:19Z</time>
      </trkpt>
      <trkpt lat="43.63488" lon="3.80775">
        <ele>54</ele>
        <time>2021-04-24T12:49:20Z</time>
      </trkpt>
      <trkpt lat="43.63485" lon="3.80776">
        <ele>52</ele>
        <time>2021-04-24T12:49:21Z</time>
      </trkpt>
      <trkpt lat="43.63481" lon="3.80776">
        <ele>52</ele>
        <time>2021-04-24T12:49:22Z</time>
      </trkpt>
      <trkpt lat="43.63478" lon="3.80777">
        <ele>52</ele>
        <time>2021-04-24T12:49:23Z</time>
      </trkpt>
      <trkpt lat="43.63475" lon="3.80777">
        <ele>52</ele>
        <time>2021-04-24T12:49:24Z</time>
      </trkpt>
      <trkpt lat="43.63472" lon="3.80778">
        <ele>52</ele>
        <time>2021-04-24T12:49:25Z</time>
      </trkpt>
      <trkpt lat="43.63468" lon="3.80779">
        <ele>52</ele>
        <time>2021-04-24T12:49:26Z</time>
      </trkpt>
      <trkpt lat="43.63465" lon="3.80781">
        <ele>52</ele>
        <time>2021-04-24T12:49:27Z</time>
      </trkpt>
      <trkpt lat="43.63462" lon="3.80783">
        <ele>52</ele>
        <time>2021-04-24T12:49:28Z</time>
      </trkpt>
      <trkpt lat="43.6346" lon="3.80786">
        <ele>52</ele>
        <time>2021-04-24T12:49:29Z</time>
      </trkpt>
      <trkpt lat="43.63457" lon="3.80789">
        <ele>52</ele>
        <time>2021-04-24T12:49:30Z</time>
      </trkpt>
      <trkpt lat="43.63455" lon="3.80793">
        <ele>51</ele>
        <time>2021-04-24T12:49:31Z</time>
      </trkpt>
      <trkpt lat="43.63454" lon="3.80797">
        <ele>51</ele>
        <time>2021-04-24T12:49:32Z</time>
      </trkpt>
      <trkpt lat="43.63453" lon="3.80802">
        <ele>51</ele>
        <time>2021-04-24T12:49:33Z</time>
      </trkpt>
      <trkpt lat="43.63453" lon="3.80806">
        <ele>51</ele>
        <time>2021-04-24T12:49:34Z</time>
      </trkpt>
      <trkpt lat="43.63452" lon="3.80811">
        <ele>51</ele>
        <time>2021-04-24T12:49:35Z</time>
      </trkpt>
      <trkpt lat="43.63452" lon="3.80815">
        <ele>51</ele>
        <time>2021-04-24T12:49:36Z</time>
      </trkpt>
      <trkpt lat="43.63452" lon="3.8082">
        <ele>51</ele>
        <time>2021-04-24T12:49:37Z</time>
      </trkpt>
      <trkpt lat="43.63452" lon="3.80825">
        <ele>51</ele>
        <time>2021-04-24T12:49:38Z</time>
      </trkpt>
      <trkpt lat="43.63452" lon="3.8083">
        <ele>51</ele>
        <time>2021-04-24T12:49:39Z</time>
      </trkpt>
      <trkpt lat="43.63452" lon="3.80835">
        <ele>51</ele>
        <time>2021-04-24T12:49:40Z</time>
      </trkpt>
      <trkpt lat="43.63452" lon="3.8084">
        <ele>50</ele>
        <time>2021-04-24T12:49:41Z</time>
      </trkpt>
      <trkpt lat="43.63452" lon="3.80845">
        <ele>50</ele>
        <time>2021-04-24T12:49:42Z</time>
      </trkpt>
      <trkpt lat="43.63452" lon="3.8085">
        <ele>50</ele>
        <time>2021-04-24T12:49:43Z</time>
      </trkpt>
      <trkpt lat="43.63452" lon="3.80855">
        <ele>50</ele>
        <time>2021-04-24T12:49:44Z</time>
      </trkpt>
      <trkpt lat="43.63452" lon="3.8086">
        <ele>50</ele>
        <time>2021-04-24T12:49:45Z</time>
      </trkpt>
      <trkpt lat="43.63451" lon="3.80866">
        <ele>50</ele>
        <time>2021-04-24T12:49:46Z</time>
      </trkpt>
      <trkpt lat="43.6345" lon="3.80872">
        <ele>50</ele>
        <time>2021-04-24T12:49:47Z</time>
      </trkpt>
      <trkpt lat="43.63449" lon="3.80879">
        <ele>50</ele>
        <time>2021-04-24T12:49:48Z</time>
      </trkpt>
      <trkpt lat="43.63448" lon="3.80884">
        <ele>50</ele>
        <time>2021-04-24T12:49:49Z</time>
      </trkpt>
      <trkpt lat="43.63447" lon="3.80889">
        <ele>50</ele>
        <time>2021-04-24T12:49:50Z</time>
      </trkpt>
      <trkpt lat="43.63446" lon="3.80894">
        <ele>52</ele>
        <time>2021-04-24T12:49:51Z</time>
      </trkpt>
      <trkpt lat="43.63445" lon="3.80898">
        <ele>52</ele>
        <time>2021-04-24T12:49:52Z</time>
      </trkpt>
      <trkpt lat="43.63445" lon="3.80901">
        <ele>52</ele>
        <time>2021-04-24T12:49:53Z</time>
      </trkpt>
      <trkpt lat="43.63445" lon="3.80905">
        <ele>52</ele>
        <time>2021-04-24T12:49:54Z</time>
      </trkpt>
      <trkpt lat="43.63445" lon="3.80908">
        <ele>52</ele>
        <time>2021-04-24T12:49:55Z</time>
      </trkpt>
      <trkpt lat="43.63445" lon="3.8091">
        <ele>52</ele>
        <time>2021-04-24T12:49:56Z</time>
      </trkpt>
      <trkpt lat="43.63445" lon="3.80914">
        <ele>52</ele>
        <time>2021-04-24T12:49:57Z</time>
      </trkpt>
      <trkpt lat="43.63446" lon="3.80918">
        <ele>52</ele>
        <time>2021-04-24T12:49:58Z</time>
      </trkpt>
      <trkpt lat="43.63446" lon="3.80922">
        <ele>52</ele>
        <time>2021-04-24T12:49:59Z</time>
      </trkpt>
      <trkpt lat="43.63446" lon="3.80925">
        <ele>52</ele>
        <time>2021-04-24T12:50:00Z</time>
      </trkpt>
      <trkpt lat="43.63446" lon="3.80928">
        <ele>53</ele>
        <time>2021-04-24T12:50:01Z</time>
      </trkpt>
      <trkpt lat="43.63446" lon="3.80931">
        <ele>53</ele>
        <time>2021-04-24T12:50:02Z</time>
      </trkpt>
      <trkpt lat="43.63446" lon="3.80933">
        <ele>53</ele>
        <time>2021-04-24T12:50:03Z</time>
      </trkpt>
      <trkpt lat="43.63446" lon="3.80937">
        <ele>53</ele>
        <time>2021-04-24T12:50:04Z</time>
      </trkpt>
      <trkpt lat="43.63447" lon="3.8094">
        <ele>53</ele>
        <time>2021-04-24T12:50:05Z</time>
      </trkpt>
      <trkpt lat="43.63447" lon="3.80943">
        <ele>53</ele>
        <time>2021-04-24T12:50:06Z</time>
      </trkpt>
      <trkpt lat="43.63447" lon="3.80947">
        <ele>53</ele>
        <time>2021-04-24T12:50:07Z</time>
      </trkpt>
      <trkpt lat="43.63448" lon="3.8095">
        <ele>53</ele>
        <time>2021-04-24T12:50:08Z</time>
      </trkpt>
      <trkpt lat="43.63447" lon="3.80954">
        <ele>53</ele>
        <time>2021-04-24T12:50:09Z</time>
      </trkpt>
      <trkpt lat="43.63446" lon="3.80958">
        <ele>53</ele>
        <time>2021-04-24T12:50:10Z</time>
      </trkpt>
      <trkpt lat="43.63442" lon="3.80964">
        <ele>53</ele>
        <time>2021-04-24T12:50:12Z</time>
      </trkpt>
      <trkpt lat="43.6344" lon="3.80968">
        <ele>53</ele>
        <time>2021-04-24T12:50:13Z</time>
      </trkpt>
      <trkpt lat="43.63439" lon="3.80974">
        <ele>53</ele>
        <time>2021-04-24T12:50:14Z</time>
      </trkpt>
      <trkpt lat="43.63439" lon="3.80979">
        <ele>53</ele>
        <time>2021-04-24T12:50:15Z</time>
      </trkpt>
      <trkpt lat="43.63438" lon="3.80986">
        <ele>53</ele>
        <time>2021-04-24T12:50:16Z</time>
      </trkpt>
      <trkpt lat="43.63438" lon="3.80992">
        <ele>53</ele>
        <time>2021-04-24T12:50:17Z</time>
      </trkpt>
      <trkpt lat="43.63439" lon="3.80997">
        <ele>53</ele>
        <time>2021-04-24T12:50:18Z</time>
      </trkpt>
      <trkpt lat="43.6344" lon="3.81003">
        <ele>53</ele>
        <time>2021-04-24T12:50:19Z</time>
      </trkpt>
      <trkpt lat="43.6344" lon="3.81008">
        <ele>53</ele>
        <time>2021-04-24T12:50:20Z</time>
      </trkpt>
      <trkpt lat="43.63441" lon="3.81013">
        <ele>52</ele>
        <time>2021-04-24T12:50:21Z</time>
      </trkpt>
      <trkpt lat="43.63442" lon="3.81017">
        <ele>52</ele>
        <time>2021-04-24T12:50:22Z</time>
      </trkpt>
      <trkpt lat="43.63443" lon="3.81022">
        <ele>52</ele>
        <time>2021-04-24T12:50:23Z</time>
      </trkpt>
      <trkpt lat="43.63444" lon="3.81026">
        <ele>52</ele>
        <time>2021-04-24T12:50:24Z</time>
      </trkpt>
      <trkpt lat="43.63445" lon="3.81031">
        <ele>52</ele>
        <time>2021-04-24T12:50:25Z</time>
      </trkpt>
      <trkpt lat="43.63446" lon="3.81036">
        <ele>52</ele>
        <time>2021-04-24T12:50:26Z</time>
      </trkpt>
      <trkpt lat="43.63447" lon="3.8104">
        <ele>52</ele>
        <time>2021-04-24T12:50:27Z</time>
      </trkpt>
      <trkpt lat="43.63448" lon="3.81044">
        <ele>52</ele>
        <time>2021-04-24T12:50:28Z</time>
      </trkpt>
      <trkpt lat="43.63448" lon="3.81049">
        <ele>52</ele>
        <time>2021-04-24T12:50:29Z</time>
      </trkpt>
      <trkpt lat="43.63449" lon="3.81054">
        <ele>52</ele>
        <time>2021-04-24T12:50:30Z</time>
      </trkpt>
      <trkpt lat="43.6345" lon="3.81059">
        <ele>52</ele>
        <time>2021-04-24T12:50:31Z</time>
      </trkpt>
      <trkpt lat="43.63451" lon="3.81063">
        <ele>52</ele>
        <time>2021-04-24T12:50:32Z</time>
      </trkpt>
      <trkpt lat="43.63452" lon="3.81068">
        <ele>52</ele>
        <time>2021-04-24T12:50:33Z</time>
      </trkpt>
      <trkpt lat="43.63453" lon="3.81073">
        <ele>52</ele>
        <time>2021-04-24T12:50:34Z</time>
      </trkpt>
      <trkpt lat="43.63453" lon="3.81078">
        <ele>52</ele>
        <time>2021-04-24T12:50:35Z</time>
      </trkpt>
      <trkpt lat="43.63454" lon="3.81084">
        <ele>52</ele>
        <time>2021-04-24T12:50:36Z</time>
      </trkpt>
      <trkpt lat="43.63455" lon="3.81089">
        <ele>52</ele>
        <time>2021-04-24T12:50:37Z</time>
      </trkpt>
      <trkpt lat="43.63456" lon="3.81095">
        <ele>52</ele>
        <time>2021-04-24T12:50:38Z</time>
      </trkpt>
      <trkpt lat="43.63456" lon="3.811">
        <ele>52</ele>
        <time>2021-04-24T12:50:39Z</time>
      </trkpt>
      <trkpt lat="43.63457" lon="3.81106">
        <ele>52</ele>
        <time>2021-04-24T12:50:40Z</time>
      </trkpt>
      <trkpt lat="43.63458" lon="3.81111">
        <ele>51</ele>
        <time>2021-04-24T12:50:41Z</time>
      </trkpt>
      <trkpt lat="43.63459" lon="3.81117">
        <ele>51</ele>
        <time>2021-04-24T12:50:42Z</time>
      </trkpt>
      <trkpt lat="43.63459" lon="3.81122">
        <ele>51</ele>
        <time>2021-04-24T12:50:43Z</time>
      </trkpt>
      <trkpt lat="43.6346" lon="3.81127">
        <ele>51</ele>
        <time>2021-04-24T12:50:44Z</time>
      </trkpt>
      <trkpt lat="43.6346" lon="3.81132">
        <ele>51</ele>
        <time>2021-04-24T12:50:45Z</time>
      </trkpt>
      <trkpt lat="43.63461" lon="3.81137">
        <ele>51</ele>
        <time>2021-04-24T12:50:46Z</time>
      </trkpt>
      <trkpt lat="43.63461" lon="3.81142">
        <ele>51</ele>
        <time>2021-04-24T12:50:47Z</time>
      </trkpt>
      <trkpt lat="43.63461" lon="3.81147">
        <ele>51</ele>
        <time>2021-04-24T12:50:48Z</time>
      </trkpt>
      <trkpt lat="43.63462" lon="3.81152">
        <ele>51</ele>
        <time>2021-04-24T12:50:49Z</time>
      </trkpt>
      <trkpt lat="43.63462" lon="3.81157">
        <ele>51</ele>
        <time>2021-04-24T12:50:50Z</time>
      </trkpt>
      <trkpt lat="43.63462" lon="3.81162">
        <ele>51</ele>
        <time>2021-04-24T12:50:51Z</time>
      </trkpt>
      <trkpt lat="43.63463" lon="3.81168">
        <ele>51</ele>
        <time>2021-04-24T12:50:52Z</time>
      </trkpt>
      <trkpt lat="43.63463" lon="3.81173">
        <ele>51</ele>
        <time>2021-04-24T12:50:53Z</time>
      </trkpt>
      <trkpt lat="43.63463" lon="3.81178">
        <ele>51</ele>
        <time>2021-04-24T12:50:54Z</time>
      </trkpt>
      <trkpt lat="43.63463" lon="3.81184">
        <ele>51</ele>
        <time>2021-04-24T12:50:55Z</time>
      </trkpt>
      <trkpt lat="43.63464" lon="3.81189">
        <ele>51</ele>
        <time>2021-04-24T12:50:56Z</time>
      </trkpt>
      <trkpt lat="43.63464" lon="3.81194">
        <ele>51</ele>
        <time>2021-04-24T12:50:57Z</time>
      </trkpt>
      <trkpt lat="43.63464" lon="3.812">
        <ele>51</ele>
        <time>2021-04-24T12:50:58Z</time>
      </trkpt>
      <trkpt lat="43.63464" lon="3.81205">
        <ele>51</ele>
        <time>2021-04-24T12:50:59Z</time>
      </trkpt>
      <trkpt lat="43.63464" lon="3.8121">
        <ele>51</ele>
        <time>2021-04-24T12:51:00Z</time>
      </trkpt>
      <trkpt lat="43.63464" lon="3.81216">
        <ele>51</ele>
        <time>2021-04-24T12:51:01Z</time>
      </trkpt>
      <trkpt lat="43.63464" lon="3.8122">
        <ele>51</ele>
        <time>2021-04-24T12:51:02Z</time>
      </trkpt>
      <trkpt lat="43.63464" lon="3.81225">
        <ele>51</ele>
        <time>2021-04-24T12:51:03Z</time>
      </trkpt>
      <trkpt lat="43.63464" lon="3.8123">
        <ele>51</ele>
        <time>2021-04-24T12:51:04Z</time>
      </trkpt>
      <trkpt lat="43.63464" lon="3.81235">
        <ele>51</ele>
        <time>2021-04-24T12:51:05Z</time>
      </trkpt>
      <trkpt lat="43.63464" lon="3.8124">
        <ele>51</ele>
        <time>2021-04-24T12:51:06Z</time>
      </trkpt>
      <trkpt lat="43.63463" lon="3.81245">
        <ele>51</ele>
        <time>2021-04-24T12:51:07Z</time>
      </trkpt>
      <trkpt lat="43.63463" lon="3.8125">
        <ele>51</ele>
        <time>2021-04-24T12:51:08Z</time>
      </trkpt>
      <trkpt lat="43.63462" lon="3.81255">
        <ele>51</ele>
        <time>2021-04-24T12:51:09Z</time>
      </trkpt>
      <trkpt lat="43.63462" lon="3.8126">
        <ele>51</ele>
        <time>2021-04-24T12:51:10Z</time>
      </trkpt>
      <trkpt lat="43.63462" lon="3.81265">
        <ele>51</ele>
        <time>2021-04-24T12:51:11Z</time>
      </trkpt>
      <trkpt lat="43.63461" lon="3.8127">
        <ele>51</ele>
        <time>2021-04-24T12:51:12Z</time>
      </trkpt>
      <trkpt lat="43.63461" lon="3.81275">
        <ele>51</ele>
        <time>2021-04-24T12:51:13Z</time>
      </trkpt>
      <trkpt lat="43.6346" lon="3.8128">
        <ele>51</ele>
        <time>2021-04-24T12:51:14Z</time>
      </trkpt>
      <trkpt lat="43.63459" lon="3.81285">
        <ele>51</ele>
        <time>2021-04-24T12:51:15Z</time>
      </trkpt>
      <trkpt lat="43.63458" lon="3.8129">
        <ele>51</ele>
        <time>2021-04-24T12:51:16Z</time>
      </trkpt>
      <trkpt lat="43.63457" lon="3.81295">
        <ele>51</ele>
        <time>2021-04-24T12:51:17Z</time>
      </trkpt>
      <trkpt lat="43.63456" lon="3.81299">
        <ele>51</ele>
        <time>2021-04-24T12:51:18Z</time>
      </trkpt>
      <trkpt lat="43.63455" lon="3.81304">
        <ele>51</ele>
        <time>2021-04-24T12:51:19Z</time>
      </trkpt>
      <trkpt lat="43.63453" lon="3.81308">
        <ele>51</ele>
        <time>2021-04-24T12:51:20Z</time>
      </trkpt>
      <trkpt lat="43.63451" lon="3.81312">
        <ele>51</ele>
        <time>2021-04-24T12:51:21Z</time>
      </trkpt>
      <trkpt lat="43.6345" lon="3.81316">
        <ele>51</ele>
        <time>2021-04-24T12:51:22Z</time>
      </trkpt>
      <trkpt lat="43.63448" lon="3.8132">
        <ele>51</ele>
        <time>2021-04-24T12:51:23Z</time>
      </trkpt>
      <trkpt lat="43.63446" lon="3.81323">
        <ele>51</ele>
        <time>2021-04-24T12:51:24Z</time>
      </trkpt>
      <trkpt lat="43.63443" lon="3.81327">
        <ele>51</ele>
        <time>2021-04-24T12:51:25Z</time>
      </trkpt>
      <trkpt lat="43.63441" lon="3.81331">
        <ele>51</ele>
        <time>2021-04-24T12:51:26Z</time>
      </trkpt>
      <trkpt lat="43.63438" lon="3.81335">
        <ele>51</ele>
        <time>2021-04-24T12:51:27Z</time>
      </trkpt>
      <trkpt lat="43.63435" lon="3.81338">
        <ele>51</ele>
        <time>2021-04-24T12:51:28Z</time>
      </trkpt>
      <trkpt lat="43.63431" lon="3.81342">
        <ele>51</ele>
        <time>2021-04-24T12:51:29Z</time>
      </trkpt>
      <trkpt lat="43.63428" lon="3.81345">
        <ele>51</ele>
        <time>2021-04-24T12:51:30Z</time>
      </trkpt>
      <trkpt lat="43.63425" lon="3.81348">
        <ele>52</ele>
        <time>2021-04-24T12:51:31Z</time>
      </trkpt>
      <trkpt lat="43.63422" lon="3.8135">
        <ele>52</ele>
        <time>2021-04-24T12:51:32Z</time>
      </trkpt>
      <trkpt lat="43.63418" lon="3.81352">
        <ele>52</ele>
        <time>2021-04-24T12:51:33Z</time>
      </trkpt>
      <trkpt lat="43.63414" lon="3.81355">
        <ele>52</ele>
        <time>2021-04-24T12:51:34Z</time>
      </trkpt>
      <trkpt lat="43.63411" lon="3.81358">
        <ele>52</ele>
        <time>2021-04-24T12:51:35Z</time>
      </trkpt>
      <trkpt lat="43.63407" lon="3.8136">
        <ele>52</ele>
        <time>2021-04-24T12:51:36Z</time>
      </trkpt>
      <trkpt lat="43.63403" lon="3.81363">
        <ele>52</ele>
        <time>2021-04-24T12:51:37Z</time>
      </trkpt>
      <trkpt lat="43.634" lon="3.81364">
        <ele>52</ele>
        <time>2021-04-24T12:51:38Z</time>
      </trkpt>
      <trkpt lat="43.63396" lon="3.81366">
        <ele>52</ele>
        <time>2021-04-24T12:51:39Z</time>
      </trkpt>
      <trkpt lat="43.63392" lon="3.81368">
        <ele>52</ele>
        <time>2021-04-24T12:51:40Z</time>
      </trkpt>
      <trkpt lat="43.63389" lon="3.81371">
        <ele>53</ele>
        <time>2021-04-24T12:51:41Z</time>
      </trkpt>
      <trkpt lat="43.63385" lon="3.81373">
        <ele>53</ele>
        <time>2021-04-24T12:51:42Z</time>
      </trkpt>
      <trkpt lat="43.63382" lon="3.81375">
        <ele>53</ele>
        <time>2021-04-24T12:51:43Z</time>
      </trkpt>
      <trkpt lat="43.63378" lon="3.81378">
        <ele>53</ele>
        <time>2021-04-24T12:51:44Z</time>
      </trkpt>
      <trkpt lat="43.63375" lon="3.81381">
        <ele>53</ele>
        <time>2021-04-24T12:51:45Z</time>
      </trkpt>
      <trkpt lat="43.63371" lon="3.81384">
        <ele>53</ele>
        <time>2021-04-24T12:51:46Z</time>
      </trkpt>
      <trkpt lat="43.63367" lon="3.81386">
        <ele>53</ele>
        <time>2021-04-24T12:51:47Z</time>
      </trkpt>
      <trkpt lat="43.63364" lon="3.81389">
        <ele>53</ele>
        <time>2021-04-24T12:51:48Z</time>
      </trkpt>
      <trkpt lat="43.63361" lon="3.81393">
        <ele>53</ele>
        <time>2021-04-24T12:51:49Z</time>
      </trkpt>
      <trkpt lat="43.63357" lon="3.81396">
        <ele>53</ele>
        <time>2021-04-24T12:51:50Z</time>
      </trkpt>
      <trkpt lat="43.63355" lon="3.81399">
        <ele>53</ele>
        <time>2021-04-24T12:51:51Z</time>
      </trkpt>
      <trkpt lat="43.63352" lon="3.81402">
        <ele>53</ele>
        <time>2021-04-24T12:51:52Z</time>
      </trkpt>
      <trkpt lat="43.6335" lon="3.81405">
        <ele>53</ele>
        <time>2021-04-24T12:51:53Z</time>
      </trkpt>
      <trkpt lat="43.63348" lon="3.81408">
        <ele>53</ele>
        <time>2021-04-24T12:51:54Z</time>
      </trkpt>
      <trkpt lat="43.63346" lon="3.8141">
        <ele>53</ele>
        <time>2021-04-24T12:51:55Z</time>
      </trkpt>
      <trkpt lat="43.63344" lon="3.81413">
        <ele>53</ele>
        <time>2021-04-24T12:51:56Z</time>
      </trkpt>
      <trkpt lat="43.63342" lon="3.81415">
        <ele>53</ele>
        <time>2021-04-24T12:51:57Z</time>
      </trkpt>
      <trkpt lat="43.6334" lon="3.81417">
        <ele>53</ele>
        <time>2021-04-24T12:51:58Z</time>
      </trkpt>
      <trkpt lat="43.63337" lon="3.8142">
        <ele>53</ele>
        <time>2021-04-24T12:51:59Z</time>
      </trkpt>
      <trkpt lat="43.63335" lon="3.81422">
        <ele>53</ele>
        <time>2021-04-24T12:52:00Z</time>
      </trkpt>
      <trkpt lat="43.63332" lon="3.81424">
        <ele>52</ele>
        <time>2021-04-24T12:52:01Z</time>
      </trkpt>
      <trkpt lat="43.6333" lon="3.81426">
        <ele>52</ele>
        <time>2021-04-24T12:52:02Z</time>
      </trkpt>
      <trkpt lat="43.63328" lon="3.81429">
        <ele>52</ele>
        <time>2021-04-24T12:52:03Z</time>
      </trkpt>
      <trkpt lat="43.63326" lon="3.81431">
        <ele>52</ele>
        <time>2021-04-24T12:52:04Z</time>
      </trkpt>
      <trkpt lat="43.63324" lon="3.81434">
        <ele>52</ele>
        <time>2021-04-24T12:52:05Z</time>
      </trkpt>
      <trkpt lat="43.63322" lon="3.81437">
        <ele>52</ele>
        <time>2021-04-24T12:52:06Z</time>
      </trkpt>
      <trkpt lat="43.6332" lon="3.8144">
        <ele>52</ele>
        <time>2021-04-24T12:52:07Z</time>
      </trkpt>
      <trkpt lat="43.63318" lon="3.81443">
        <ele>52</ele>
        <time>2021-04-24T12:52:08Z</time>
      </trkpt>
      <trkpt lat="43.63316" lon="3.81446">
        <ele>52</ele>
        <time>2021-04-24T12:52:09Z</time>
      </trkpt>
      <trkpt lat="43.63313" lon="3.81449">
        <ele>52</ele>
        <time>2021-04-24T12:52:10Z</time>
      </trkpt>
      <trkpt lat="43.63311" lon="3.81453">
        <ele>53</ele>
        <time>2021-04-24T12:52:11Z</time>
      </trkpt>
      <trkpt lat="43.63309" lon="3.81456">
        <ele>53</ele>
        <time>2021-04-24T12:52:12Z</time>
      </trkpt>
      <trkpt lat="43.63308" lon="3.8146">
        <ele>53</ele>
        <time>2021-04-24T12:52:13Z</time>
      </trkpt>
      <trkpt lat="43.63306" lon="3.81463">
        <ele>53</ele>
        <time>2021-04-24T12:52:14Z</time>
      </trkpt>
      <trkpt lat="43.63305" lon="3.81467">
        <ele>53</ele>
        <time>2021-04-24T12:52:15Z</time>
      </trkpt>
      <trkpt lat="43.63304" lon="3.81469">
        <ele>53</ele>
        <time>2021-04-24T12:52:16Z</time>
      </trkpt>
      <trkpt lat="43.63301" lon="3.81475">
        <ele>53</ele>
        <time>2021-04-24T12:52:18Z</time>
      </trkpt>
      <trkpt lat="43.633" lon="3.81477">
        <ele>53</ele>
        <time>2021-04-24T12:52:19Z</time>
      </trkpt>
      <trkpt lat="43.63298" lon="3.81479">
        <ele>53</ele>
        <time>2021-04-24T12:52:20Z</time>
      </trkpt>
      <trkpt lat="43.63295" lon="3.81482">
        <ele>54</ele>
        <time>2021-04-24T12:52:21Z</time>
      </trkpt>
      <trkpt lat="43.63293" lon="3.81485">
        <ele>54</ele>
        <time>2021-04-24T12:52:22Z</time>
      </trkpt>
      <trkpt lat="43.6329" lon="3.81488">
        <ele>54</ele>
        <time>2021-04-24T12:52:23Z</time>
      </trkpt>
      <trkpt lat="43.63287" lon="3.81491">
        <ele>54</ele>
        <time>2021-04-24T12:52:24Z</time>
      </trkpt>
      <trkpt lat="43.63283" lon="3.81495">
        <ele>54</ele>
        <time>2021-04-24T12:52:25Z</time>
      </trkpt>
      <trkpt lat="43.6328" lon="3.81499">
        <ele>54</ele>
        <time>2021-04-24T12:52:26Z</time>
      </trkpt>
      <trkpt lat="43.63277" lon="3.81502">
        <ele>54</ele>
        <time>2021-04-24T12:52:27Z</time>
      </trkpt>
      <trkpt lat="43.63274" lon="3.81506">
        <ele>54</ele>
        <time>2021-04-24T12:52:28Z</time>
      </trkpt>
      <trkpt lat="43.63271" lon="3.8151">
        <ele>54</ele>
        <time>2021-04-24T12:52:29Z</time>
      </trkpt>
      <trkpt lat="43.63268" lon="3.81514">
        <ele>54</ele>
        <time>2021-04-24T12:52:30Z</time>
      </trkpt>
      <trkpt lat="43.63265" lon="3.81518">
        <ele>53</ele>
        <time>2021-04-24T12:52:31Z</time>
      </trkpt>
      <trkpt lat="43.63262" lon="3.81522">
        <ele>53</ele>
        <time>2021-04-24T12:52:32Z</time>
      </trkpt>
      <trkpt lat="43.6326" lon="3.81525">
        <ele>53</ele>
        <time>2021-04-24T12:52:33Z</time>
      </trkpt>
      <trkpt lat="43.63257" lon="3.81529">
        <ele>53</ele>
        <time>2021-04-24T12:52:34Z</time>
      </trkpt>
      <trkpt lat="43.63254" lon="3.81532">
        <ele>53</ele>
        <time>2021-04-24T12:52:35Z</time>
      </trkpt>
      <trkpt lat="43.63251" lon="3.81536">
        <ele>53</ele>
        <time>2021-04-24T12:52:36Z</time>
      </trkpt>
      <trkpt lat="43.63249" lon="3.81539">
        <ele>53</ele>
        <time>2021-04-24T12:52:37Z</time>
      </trkpt>
      <trkpt lat="43.63246" lon="3.81543">
        <ele>53</ele>
        <time>2021-04-24T12:52:38Z</time>
      </trkpt>
      <trkpt lat="43.63244" lon="3.81546">
        <ele>53</ele>
        <time>2021-04-24T12:52:39Z</time>
      </trkpt>
      <trkpt lat="43.63241" lon="3.81548">
        <ele>53</ele>
        <time>2021-04-24T12:52:40Z</time>
      </trkpt>
      <trkpt lat="43.63239" lon="3.81551">
        <ele>52</ele>
        <time>2021-04-24T12:52:41Z</time>
      </trkpt>
      <trkpt lat="43.63236" lon="3.81553">
        <ele>52</ele>
        <time>2021-04-24T12:52:42Z</time>
      </trkpt>
      <trkpt lat="43.63234" lon="3.81556">
        <ele>52</ele>
        <time>2021-04-24T12:52:43Z</time>
      </trkpt>
      <trkpt lat="43.63231" lon="3.81558">
        <ele>52</ele>
        <time>2021-04-24T12:52:44Z</time>
      </trkpt>
      <trkpt lat="43.63228" lon="3.81561">
        <ele>52</ele>
        <time>2021-04-24T12:52:45Z</time>
      </trkpt>
      <trkpt lat="43.63225" lon="3.81564">
        <ele>52</ele>
        <time>2021-04-24T12:52:46Z</time>
      </trkpt>
      <trkpt lat="43.63223" lon="3.81567">
        <ele>52</ele>
        <time>2021-04-24T12:52:47Z</time>
      </trkpt>
      <trkpt lat="43.63221" lon="3.81569">
        <ele>52</ele>
        <time>2021-04-24T12:52:48Z</time>
      </trkpt>
      <trkpt lat="43.63218" lon="3.81572">
        <ele>52</ele>
        <time>2021-04-24T12:52:49Z</time>
      </trkpt>
      <trkpt lat="43.63216" lon="3.81575">
        <ele>52</ele>
        <time>2021-04-24T12:52:50Z</time>
      </trkpt>
      <trkpt lat="43.63214" lon="3.81579">
        <ele>53</ele>
        <time>2021-04-24T12:52:51Z</time>
      </trkpt>
      <trkpt lat="43.63212" lon="3.81583">
        <ele>53</ele>
        <time>2021-04-24T12:52:52Z</time>
      </trkpt>
      <trkpt lat="43.63209" lon="3.81587">
        <ele>53</ele>
        <time>2021-04-24T12:52:53Z</time>
      </trkpt>
      <trkpt lat="43.63206" lon="3.8159">
        <ele>53</ele>
        <time>2021-04-24T12:52:54Z</time>
      </trkpt>
      <trkpt lat="43.63204" lon="3.81592">
        <ele>53</ele>
        <time>2021-04-24T12:52:55Z</time>
      </trkpt>
      <trkpt lat="43.63201" lon="3.81595">
        <ele>53</ele>
        <time>2021-04-24T12:52:56Z</time>
      </trkpt>
      <trkpt lat="43.63198" lon="3.81597">
        <ele>53</ele>
        <time>2021-04-24T12:52:57Z</time>
      </trkpt>
      <trkpt lat="43.63196" lon="3.816">
        <ele>53</ele>
        <time>2021-04-24T12:52:58Z</time>
      </trkpt>
      <trkpt lat="43.63193" lon="3.81603">
        <ele>53</ele>
        <time>2021-04-24T12:52:59Z</time>
      </trkpt>
      <trkpt lat="43.6319" lon="3.81607">
        <ele>53</ele>
        <time>2021-04-24T12:53:00Z</time>
      </trkpt>
      <trkpt lat="43.63187" lon="3.8161">
        <ele>54</ele>
        <time>2021-04-24T12:53:01Z</time>
      </trkpt>
      <trkpt lat="43.63184" lon="3.81613">
        <ele>54</ele>
        <time>2021-04-24T12:53:02Z</time>
      </trkpt>
      <trkpt lat="43.63181" lon="3.81616">
        <ele>54</ele>
        <time>2021-04-24T12:53:03Z</time>
      </trkpt>
      <trkpt lat="43.63179" lon="3.81619">
        <ele>54</ele>
        <time>2021-04-24T12:53:04Z</time>
      </trkpt>
      <trkpt lat="43.63176" lon="3.81622">
        <ele>54</ele>
        <time>2021-04-24T12:53:05Z</time>
      </trkpt>
      <trkpt lat="43.63173" lon="3.81625">
        <ele>54</ele>
        <time>2021-04-24T12:53:06Z</time>
      </trkpt>
      <trkpt lat="43.6317" lon="3.81627">
        <ele>54</ele>
        <time>2021-04-24T12:53:07Z</time>
      </trkpt>
      <trkpt lat="43.63167" lon="3.81629">
        <ele>54</ele>
        <time>2021-04-24T12:53:08Z</time>
      </trkpt>
      <trkpt lat="43.63164" lon="3.81632">
        <ele>54</ele>
        <time>2021-04-24T12:53:09Z</time>
      </trkpt>
      <trkpt lat="43.63161" lon="3.81633">
        <ele>54</ele>
        <time>2021-04-24T12:53:10Z</time>
      </trkpt>
      <trkpt lat="43.63158" lon="3.81635">
        <ele>55</ele>
        <time>2021-04-24T12:53:11Z</time>
      </trkpt>
      <trkpt lat="43.63155" lon="3.81637">
        <ele>55</ele>
        <time>2021-04-24T12:53:12Z</time>
      </trkpt>
      <trkpt lat="43.63153" lon="3.81638">
        <ele>55</ele>
        <time>2021-04-24T12:53:13Z</time>
      </trkpt>
      <trkpt lat="43.6315" lon="3.8164">
        <ele>55</ele>
        <time>2021-04-24T12:53:14Z</time>
      </trkpt>
      <trkpt lat="43.63148" lon="3.81641">
        <ele>55</ele>
        <time>2021-04-24T12:53:15Z</time>
      </trkpt>
      <trkpt lat="43.63146" lon="3.81641">
        <ele>55</ele>
        <time>2021-04-24T12:53:16Z</time>
      </trkpt>
      <trkpt lat="43.63144" lon="3.81641">
        <ele>55</ele>
        <time>2021-04-24T12:53:17Z</time>
      </trkpt>
      <trkpt lat="43.63141" lon="3.81641">
        <ele>55</ele>
        <time>2021-04-24T12:53:19Z</time>
      </trkpt>
      <trkpt lat="43.63139" lon="3.81641">
        <ele>55</ele>
        <time>2021-04-24T12:53:21Z</time>
      </trkpt>
      <trkpt lat="43.63136" lon="3.81642">
        <ele>55</ele>
        <time>2021-04-24T12:53:23Z</time>
      </trkpt>
      <trkpt lat="43.63133" lon="3.81643">
        <ele>55</ele>
        <time>2021-04-24T12:53:25Z</time>
      </trkpt>
      <trkpt lat="43.6313" lon="3.81643">
        <ele>55</ele>
        <time>2021-04-24T12:53:27Z</time>
      </trkpt>
      <trkpt lat="43.63125" lon="3.81642">
        <ele>54</ele>
        <time>2021-04-24T12:53:41Z</time>
      </trkpt>
      <trkpt lat="43.6312" lon="3.81642">
        <ele>54</ele>
        <time>2021-04-24T12:53:47Z</time>
      </trkpt>
      <trkpt lat="43.63118" lon="3.81641">
        <ele>54</ele>
        <time>2021-04-24T12:53:48Z</time>
      </trkpt>
      <trkpt lat="43.63116" lon="3.8164">
        <ele>54</ele>
        <time>2021-04-24T12:53:49Z</time>
      </trkpt>
      <trkpt lat="43.63114" lon="3.8164">
        <ele>54</ele>
        <time>2021-04-24T12:53:51Z</time>
      </trkpt>
      <trkpt lat="43.63112" lon="3.81638">
        <ele>54</ele>
        <time>2021-04-24T12:53:54Z</time>
      </trkpt>
      <trkpt lat="43.63104" lon="3.8164">
        <ele>54</ele>
        <time>2021-04-24T12:53:58Z</time>
      </trkpt>
      <trkpt lat="43.63103" lon="3.81642">
        <ele>54</ele>
        <time>2021-04-24T12:53:59Z</time>
      </trkpt>
      <trkpt lat="43.63101" lon="3.81644">
        <ele>54</ele>
        <time>2021-04-24T12:54:00Z</time>
      </trkpt>
      <trkpt lat="43.63099" lon="3.81646">
        <ele>54</ele>
        <time>2021-04-24T12:54:01Z</time>
      </trkpt>
      <trkpt lat="43.63097" lon="3.81647">
        <ele>54</ele>
        <time>2021-04-24T12:54:02Z</time>
      </trkpt>
      <trkpt lat="43.63095" lon="3.81648">
        <ele>54</ele>
        <time>2021-04-24T12:54:03Z</time>
      </trkpt>
      <trkpt lat="43.63092" lon="3.8165">
        <ele>54</ele>
        <time>2021-04-24T12:54:04Z</time>
      </trkpt>
      <trkpt lat="43.6309" lon="3.81652">
        <ele>54</ele>
        <time>2021-04-24T12:54:05Z</time>
      </trkpt>
      <trkpt lat="43.63089" lon="3.81655">
        <ele>54</ele>
        <time>2021-04-24T12:54:06Z</time>
      </trkpt>
      <trkpt lat="43.63089" lon="3.81658">
        <ele>54</ele>
        <time>2021-04-24T12:54:07Z</time>
      </trkpt>
      <trkpt lat="43.63089" lon="3.81662">
        <ele>54</ele>
        <time>2021-04-24T12:54:08Z</time>
      </trkpt>
      <trkpt lat="43.6309" lon="3.81665">
        <ele>54</ele>
        <time>2021-04-24T12:54:09Z</time>
      </trkpt>
      <trkpt lat="43.63091" lon="3.81668">
        <ele>54</ele>
        <time>2021-04-24T12:54:10Z</time>
      </trkpt>
      <trkpt lat="43.63093" lon="3.81672">
        <ele>54</ele>
        <time>2021-04-24T12:54:12Z</time>
      </trkpt>
      <trkpt lat="43.63091" lon="3.81673">
        <ele>54</ele>
        <time>2021-04-24T12:54:21Z</time>
      </trkpt>
      <trkpt lat="43.63089" lon="3.81674">
        <ele>54</ele>
        <time>2021-04-24T12:54:26Z</time>
      </trkpt>
      <trkpt lat="43.6309" lon="3.81677">
        <ele>54</ele>
        <time>2021-04-24T12:54:29Z</time>
      </trkpt>
      <trkpt lat="43.6309" lon="3.8168">
        <ele>54</ele>
        <time>2021-04-24T12:54:32Z</time>
      </trkpt>
      <trkpt lat="43.63091" lon="3.81683">
        <ele>54</ele>
        <time>2021-04-24T12:54:35Z</time>
      </trkpt>
      <trkpt lat="43.63091" lon="3.81686">
        <ele>54</ele>
        <time>2021-04-24T12:54:39Z</time>
      </trkpt>
      <trkpt lat="43.63092" lon="3.81689">
        <ele>54</ele>
        <time>2021-04-24T12:54:44Z</time>
      </trkpt>
      <trkpt lat="43.63092" lon="3.81691">
        <ele>54</ele>
        <time>2021-04-24T12:54:47Z</time>
      </trkpt>
      <trkpt lat="43.63092" lon="3.81694">
        <ele>54</ele>
        <time>2021-04-24T12:54:50Z</time>
      </trkpt>
      <trkpt lat="43.63094" lon="3.81697">
        <ele>54</ele>
        <time>2021-04-24T12:54:54Z</time>
      </trkpt>
      <trkpt lat="43.63095" lon="3.817">
        <ele>54</ele>
        <time>2021-04-24T12:54:57Z</time>
      </trkpt>
      <trkpt lat="43.63096" lon="3.81703">
        <ele>54</ele>
        <time>2021-04-24T12:55:00Z</time>
      </trkpt>
      <trkpt lat="43.63095" lon="3.81706">
        <ele>54</ele>
        <time>2021-04-24T12:55:03Z</time>
      </trkpt>
      <trkpt lat="43.63096" lon="3.8171">
        <ele>54</ele>
        <time>2021-04-24T12:55:06Z</time>
      </trkpt>
      <trkpt lat="43.63095" lon="3.81713">
        <ele>54</ele>
        <time>2021-04-24T12:55:09Z</time>
      </trkpt>
      <trkpt lat="43.63093" lon="3.81714">
        <ele>54</ele>
        <time>2021-04-24T12:55:12Z</time>
      </trkpt>
      <trkpt lat="43.63092" lon="3.81717">
        <ele>54</ele>
        <time>2021-04-24T12:55:15Z</time>
      </trkpt>
      <trkpt lat="43.63098" lon="3.81719">
        <ele>57</ele>
        <time>2021-04-24T12:55:37Z</time>
      </trkpt>
      <trkpt lat="43.63097" lon="3.81723">
        <ele>57</ele>
        <time>2021-04-24T12:55:39Z</time>
      </trkpt>
      <trkpt lat="43.63098" lon="3.81726">
        <ele>57</ele>
        <time>2021-04-24T12:55:41Z</time>
      </trkpt>
      <trkpt lat="43.631" lon="3.81729">
        <ele>57</ele>
        <time>2021-04-24T12:55:43Z</time>
      </trkpt>
      <trkpt lat="43.631" lon="3.81732">
        <ele>57</ele>
        <time>2021-04-24T12:55:45Z</time>
      </trkpt>
      <trkpt lat="43.63101" lon="3.81735">
        <ele>58</ele>
        <time>2021-04-24T12:55:47Z</time>
      </trkpt>
      <trkpt lat="43.63103" lon="3.81737">
        <ele>58</ele>
        <time>2021-04-24T12:55:49Z</time>
      </trkpt>
      <trkpt lat="43.63104" lon="3.8174">
        <ele>58</ele>
        <time>2021-04-24T12:55:51Z</time>
      </trkpt>
      <trkpt lat="43.63106" lon="3.81743">
        <ele>58</ele>
        <time>2021-04-24T12:55:53Z</time>
      </trkpt>
      <trkpt lat="43.63106" lon="3.81746">
        <ele>58</ele>
        <time>2021-04-24T12:55:55Z</time>
      </trkpt>
      <trkpt lat="43.63107" lon="3.81749">
        <ele>58</ele>
        <time>2021-04-24T12:55:58Z</time>
      </trkpt>
      <trkpt lat="43.63109" lon="3.81752">
        <ele>58</ele>
        <time>2021-04-24T12:56:00Z</time>
      </trkpt>
      <trkpt lat="43.6311" lon="3.81754">
        <ele>58</ele>
        <time>2021-04-24T12:56:03Z</time>
      </trkpt>
      <trkpt lat="43.63111" lon="3.81756">
        <ele>58</ele>
        <time>2021-04-24T12:56:09Z</time>
      </trkpt>
      <trkpt lat="43.63112" lon="3.81756">
        <ele>64</ele>
        <time>2021-04-24T12:56:12Z</time>
      </trkpt>
      <trkpt lat="43.63115" lon="3.81759">
        <ele>65</ele>
        <time>2021-04-24T12:56:19Z</time>
      </trkpt>
      <trkpt lat="43.63113" lon="3.81767">
        <ele>67</ele>
        <time>2021-04-24T12:57:03Z</time>
      </trkpt>
      <trkpt lat="43.63113" lon="3.81772">
        <ele>67</ele>
        <time>2021-04-24T12:57:04Z</time>
      </trkpt>
      <trkpt lat="43.63112" lon="3.81775">
        <ele>67</ele>
        <time>2021-04-24T12:57:05Z</time>
      </trkpt>
      <trkpt lat="43.63111" lon="3.81777">
        <ele>67</ele>
        <time>2021-04-24T12:57:06Z</time>
      </trkpt>
      <trkpt lat="43.6311" lon="3.8178">
        <ele>67</ele>
        <time>2021-04-24T12:57:07Z</time>
      </trkpt>
      <trkpt lat="43.6311" lon="3.81782">
        <ele>67</ele>
        <time>2021-04-24T12:57:08Z</time>
      </trkpt>
      <trkpt lat="43.63109" lon="3.81785">
        <ele>67</ele>
        <time>2021-04-24T12:57:09Z</time>
      </trkpt>
      <trkpt lat="43.63108" lon="3.81789">
        <ele>67</ele>
        <time>2021-04-24T12:57:10Z</time>
      </trkpt>
      <trkpt lat="43.63107" lon="3.81792">
        <ele>67</ele>
        <time>2021-04-24T12:57:11Z</time>
      </trkpt>
      <trkpt lat="43.63107" lon="3.81795">
        <ele>67</ele>
        <time>2021-04-24T12:57:12Z</time>
      </trkpt>
      <trkpt lat="43.63106" lon="3.81798">
        <ele>67</ele>
        <time>2021-04-24T12:57:13Z</time>
      </trkpt>
      <trkpt lat="43.63106" lon="3.81801">
        <ele>67</ele>
        <time>2021-04-24T12:57:14Z</time>
      </trkpt>
      <trkpt lat="43.63106" lon="3.81805">
        <ele>67</ele>
        <time>2021-04-24T12:57:16Z</time>
      </trkpt>
      <trkpt lat="43.63105" lon="3.81808">
        <ele>67</ele>
        <time>2021-04-24T12:57:17Z</time>
      </trkpt>
      <trkpt lat="43.63105" lon="3.81811">
        <ele>67</ele>
        <time>2021-04-24T12:57:18Z</time>
      </trkpt>
      <trkpt lat="43.63105" lon="3.81815">
        <ele>67</ele>
        <time>2021-04-24T12:57:19Z</time>
      </trkpt>
      <trkpt lat="43.63105" lon="3.81818">
        <ele>67</ele>
        <time>2021-04-24T12:57:20Z</time>
      </trkpt>
      <trkpt lat="43.63104" lon="3.81821">
        <ele>67</ele>
        <time>2021-04-24T12:57:21Z</time>
      </trkpt>
      <trkpt lat="43.63104" lon="3.81823">
        <ele>67</ele>
        <time>2021-04-24T12:57:22Z</time>
      </trkpt>
      <trkpt lat="43.63104" lon="3.81826">
        <ele>67</ele>
        <time>2021-04-24T12:57:23Z</time>
      </trkpt>
      <trkpt lat="43.63103" lon="3.81829">
        <ele>67</ele>
        <time>2021-04-24T12:57:24Z</time>
      </trkpt>
      <trkpt lat="43.63103" lon="3.81831">
        <ele>67</ele>
        <time>2021-04-24T12:57:25Z</time>
      </trkpt>
      <trkpt lat="43.63102" lon="3.81834">
        <ele>67</ele>
        <time>2021-04-24T12:57:26Z</time>
      </trkpt>
      <trkpt lat="43.63102" lon="3.81837">
        <ele>67</ele>
        <time>2021-04-24T12:57:27Z</time>
      </trkpt>
      <trkpt lat="43.63101" lon="3.8184">
        <ele>67</ele>
        <time>2021-04-24T12:57:28Z</time>
      </trkpt>
      <trkpt lat="43.631" lon="3.81843">
        <ele>67</ele>
        <time>2021-04-24T12:57:29Z</time>
      </trkpt>
      <trkpt lat="43.63099" lon="3.81846">
        <ele>67</ele>
        <time>2021-04-24T12:57:30Z</time>
      </trkpt>
      <trkpt lat="43.63098" lon="3.8185">
        <ele>67</ele>
        <time>2021-04-24T12:57:31Z</time>
      </trkpt>
      <trkpt lat="43.63097" lon="3.81854">
        <ele>67</ele>
        <time>2021-04-24T12:57:32Z</time>
      </trkpt>
      <trkpt lat="43.63096" lon="3.81858">
        <ele>66</ele>
        <time>2021-04-24T12:57:33Z</time>
      </trkpt>
      <trkpt lat="43.63094" lon="3.81863">
        <ele>66</ele>
        <time>2021-04-24T12:57:34Z</time>
      </trkpt>
      <trkpt lat="43.63093" lon="3.81868">
        <ele>66</ele>
        <time>2021-04-24T12:57:35Z</time>
      </trkpt>
      <trkpt lat="43.63092" lon="3.81874">
        <ele>66</ele>
        <time>2021-04-24T12:57:36Z</time>
      </trkpt>
      <trkpt lat="43.63093" lon="3.81879">
        <ele>66</ele>
        <time>2021-04-24T12:57:37Z</time>
      </trkpt>
      <trkpt lat="43.63093" lon="3.81886">
        <ele>66</ele>
        <time>2021-04-24T12:57:38Z</time>
      </trkpt>
      <trkpt lat="43.63094" lon="3.81892">
        <ele>66</ele>
        <time>2021-04-24T12:57:39Z</time>
      </trkpt>
      <trkpt lat="43.63093" lon="3.81898">
        <ele>66</ele>
        <time>2021-04-24T12:57:40Z</time>
      </trkpt>
      <trkpt lat="43.63092" lon="3.81905">
        <ele>66</ele>
        <time>2021-04-24T12:57:41Z</time>
      </trkpt>
      <trkpt lat="43.63092" lon="3.81913">
        <ele>66</ele>
        <time>2021-04-24T12:57:42Z</time>
      </trkpt>
      <trkpt lat="43.63092" lon="3.8192">
        <ele>66</ele>
        <time>2021-04-24T12:57:43Z</time>
      </trkpt>
      <trkpt lat="43.63091" lon="3.81927">
        <ele>66</ele>
        <time>2021-04-24T12:57:44Z</time>
      </trkpt>
      <trkpt lat="43.63089" lon="3.81934">
        <ele>66</ele>
        <time>2021-04-24T12:57:45Z</time>
      </trkpt>
      <trkpt lat="43.63088" lon="3.81939">
        <ele>66</ele>
        <time>2021-04-24T12:57:46Z</time>
      </trkpt>
      <trkpt lat="43.63087" lon="3.81945">
        <ele>66</ele>
        <time>2021-04-24T12:57:47Z</time>
      </trkpt>
      <trkpt lat="43.63087" lon="3.81952">
        <ele>66</ele>
        <time>2021-04-24T12:57:48Z</time>
      </trkpt>
      <trkpt lat="43.63087" lon="3.81957">
        <ele>66</ele>
        <time>2021-04-24T12:57:49Z</time>
      </trkpt>
      <trkpt lat="43.63086" lon="3.81963">
        <ele>66</ele>
        <time>2021-04-24T12:57:50Z</time>
      </trkpt>
      <trkpt lat="43.63086" lon="3.81967">
        <ele>66</ele>
        <time>2021-04-24T12:57:51Z</time>
      </trkpt>
      <trkpt lat="43.63085" lon="3.81971">
        <ele>66</ele>
        <time>2021-04-24T12:57:52Z</time>
      </trkpt>
      <trkpt lat="43.63083" lon="3.81975">
        <ele>67</ele>
        <time>2021-04-24T12:57:53Z</time>
      </trkpt>
      <trkpt lat="43.63082" lon="3.81979">
        <ele>67</ele>
        <time>2021-04-24T12:57:54Z</time>
      </trkpt>
      <trkpt lat="43.63079" lon="3.81982">
        <ele>67</ele>
        <time>2021-04-24T12:57:55Z</time>
      </trkpt>
      <trkpt lat="43.63077" lon="3.81985">
        <ele>67</ele>
        <time>2021-04-24T12:57:56Z</time>
      </trkpt>
      <trkpt lat="43.63076" lon="3.8199">
        <ele>67</ele>
        <time>2021-04-24T12:57:57Z</time>
      </trkpt>
      <trkpt lat="43.63075" lon="3.81994">
        <ele>67</ele>
        <time>2021-04-24T12:57:58Z</time>
      </trkpt>
      <trkpt lat="43.63076" lon="3.81998">
        <ele>67</ele>
        <time>2021-04-24T12:57:59Z</time>
      </trkpt>
      <trkpt lat="43.63076" lon="3.82002">
        <ele>67</ele>
        <time>2021-04-24T12:58:00Z</time>
      </trkpt>
      <trkpt lat="43.63076" lon="3.82006">
        <ele>67</ele>
        <time>2021-04-24T12:58:01Z</time>
      </trkpt>
      <trkpt lat="43.63076" lon="3.8201">
        <ele>67</ele>
        <time>2021-04-24T12:58:02Z</time>
      </trkpt>
      <trkpt lat="43.63076" lon="3.82014">
        <ele>64</ele>
        <time>2021-04-24T12:58:03Z</time>
      </trkpt>
      <trkpt lat="43.63075" lon="3.82017">
        <ele>64</ele>
        <time>2021-04-24T12:58:04Z</time>
      </trkpt>
      <trkpt lat="43.63075" lon="3.8202">
        <ele>64</ele>
        <time>2021-04-24T12:58:05Z</time>
      </trkpt>
      <trkpt lat="43.63075" lon="3.82024">
        <ele>64</ele>
        <time>2021-04-24T12:58:06Z</time>
      </trkpt>
      <trkpt lat="43.63076" lon="3.82028">
        <ele>64</ele>
        <time>2021-04-24T12:58:07Z</time>
      </trkpt>
      <trkpt lat="43.63076" lon="3.82031">
        <ele>64</ele>
        <time>2021-04-24T12:58:08Z</time>
      </trkpt>
      <trkpt lat="43.63076" lon="3.82035">
        <ele>64</ele>
        <time>2021-04-24T12:58:09Z</time>
      </trkpt>
      <trkpt lat="43.63076" lon="3.82039">
        <ele>64</ele>
        <time>2021-04-24T12:58:10Z</time>
      </trkpt>
      <trkpt lat="43.63076" lon="3.82042">
        <ele>64</ele>
        <time>2021-04-24T12:58:11Z</time>
      </trkpt>
      <trkpt lat="43.63076" lon="3.82046">
        <ele>64</ele>
        <time>2021-04-24T12:58:12Z</time>
      </trkpt>
      <trkpt lat="43.63076" lon="3.8205">
        <ele>62</ele>
        <time>2021-04-24T12:58:13Z</time>
      </trkpt>
      <trkpt lat="43.63077" lon="3.82053">
        <ele>62</ele>
        <time>2021-04-24T12:58:14Z</time>
      </trkpt>
      <trkpt lat="43.63077" lon="3.82056">
        <ele>62</ele>
        <time>2021-04-24T12:58:15Z</time>
      </trkpt>
      <trkpt lat="43.63077" lon="3.82059">
        <ele>62</ele>
        <time>2021-04-24T12:58:16Z</time>
      </trkpt>
      <trkpt lat="43.63077" lon="3.82062">
        <ele>62</ele>
        <time>2021-04-24T12:58:17Z</time>
      </trkpt>
      <trkpt lat="43.6308" lon="3.82065">
        <ele>62</ele>
        <time>2021-04-24T12:58:19Z</time>
      </trkpt>
      <trkpt lat="43.63083" lon="3.82066">
        <ele>62</ele>
        <time>2021-04-24T12:58:20Z</time>
      </trkpt>
      <trkpt lat="43.63085" lon="3.82068">
        <ele>62</ele>
        <time>2021-04-24T12:58:21Z</time>
      </trkpt>
      <trkpt lat="43.63086" lon="3.82071">
        <ele>62</ele>
        <time>2021-04-24T12:58:22Z</time>
      </trkpt>
      <trkpt lat="43.63088" lon="3.82074">
        <ele>59</ele>
        <time>2021-04-24T12:58:23Z</time>
      </trkpt>
      <trkpt lat="43.63091" lon="3.82076">
        <ele>59</ele>
        <time>2021-04-24T12:58:24Z</time>
      </trkpt>
      <trkpt lat="43.63093" lon="3.82077">
        <ele>59</ele>
        <time>2021-04-24T12:58:25Z</time>
      </trkpt>
      <trkpt lat="43.63095" lon="3.82078">
        <ele>59</ele>
        <time>2021-04-24T12:58:26Z</time>
      </trkpt>
      <trkpt lat="43.63098" lon="3.82078">
        <ele>59</ele>
        <time>2021-04-24T12:58:27Z</time>
      </trkpt>
      <trkpt lat="43.631" lon="3.82078">
        <ele>59</ele>
        <time>2021-04-24T12:58:28Z</time>
      </trkpt>
      <trkpt lat="43.63102" lon="3.82079">
        <ele>59</ele>
        <time>2021-04-24T12:58:29Z</time>
      </trkpt>
      <trkpt lat="43.63105" lon="3.82079">
        <ele>59</ele>
        <time>2021-04-24T12:58:30Z</time>
      </trkpt>
      <trkpt lat="43.63107" lon="3.8208">
        <ele>59</ele>
        <time>2021-04-24T12:58:31Z</time>
      </trkpt>
      <trkpt lat="43.63109" lon="3.82082">
        <ele>59</ele>
        <time>2021-04-24T12:58:32Z</time>
      </trkpt>
      <trkpt lat="43.6311" lon="3.82086">
        <ele>59</ele>
        <time>2021-04-24T12:58:33Z</time>
      </trkpt>
      <trkpt lat="43.63111" lon="3.8209">
        <ele>59</ele>
        <time>2021-04-24T12:58:34Z</time>
      </trkpt>
      <trkpt lat="43.63113" lon="3.82093">
        <ele>59</ele>
        <time>2021-04-24T12:58:35Z</time>
      </trkpt>
      <trkpt lat="43.63115" lon="3.82093">
        <ele>59</ele>
        <time>2021-04-24T12:58:36Z</time>
      </trkpt>
      <trkpt lat="43.63118" lon="3.82093">
        <ele>59</ele>
        <time>2021-04-24T12:58:37Z</time>
      </trkpt>
      <trkpt lat="43.6312" lon="3.82093">
        <ele>59</ele>
        <time>2021-04-24T12:58:38Z</time>
      </trkpt>
      <trkpt lat="43.63123" lon="3.8209">
        <ele>59</ele>
        <time>2021-04-24T12:58:40Z</time>
      </trkpt>
      <trkpt lat="43.63113" lon="3.82093">
        <ele>59</ele>
        <time>2021-04-24T12:58:50Z</time>
      </trkpt>
      <trkpt lat="43.63112" lon="3.82074">
        <ele>59</ele>
        <time>2021-04-24T12:59:16Z</time>
      </trkpt>
      <trkpt lat="43.63098" lon="3.82098">
        <ele>59</ele>
        <time>2021-04-24T12:59:32Z</time>
      </trkpt>
      <trkpt lat="43.63119" lon="3.82102">
        <ele>59</ele>
        <time>2021-04-24T13:00:07Z</time>
      </trkpt>
      <trkpt lat="43.63109" lon="3.82095">
        <ele>59</ele>
        <time>2021-04-24T13:00:12Z</time>
      </trkpt>
      <trkpt lat="43.631" lon="3.82088">
        <ele>59</ele>
        <time>2021-04-24T13:00:19Z</time>
      </trkpt>
      <trkpt lat="43.63102" lon="3.82102">
        <ele>59</ele>
        <time>2021-04-24T13:00:26Z</time>
      </trkpt>
      <trkpt lat="43.63107" lon="3.82112">
        <ele>59</ele>
        <time>2021-04-24T13:00:34Z</time>
      </trkpt>
      <trkpt lat="43.63105" lon="3.821">
        <ele>59</ele>
        <time>2021-04-24T13:00:39Z</time>
      </trkpt>
      <trkpt lat="43.63095" lon="3.82101">
        <ele>59</ele>
        <time>2021-04-24T13:00:45Z</time>
      </trkpt>
      <trkpt lat="43.63106" lon="3.82096">
        <ele>59</ele>
        <time>2021-04-24T13:00:51Z</time>
      </trkpt>
      <trkpt lat="43.63119" lon="3.82093">
        <ele>59</ele>
        <time>2021-04-24T13:01:00Z</time>
      </trkpt>
      <trkpt lat="43.63128" lon="3.8209">
        <ele>58</ele>
        <time>2021-04-24T13:01:03Z</time>
      </trkpt>
      <trkpt lat="43.63121" lon="3.82082">
        <ele>58</ele>
        <time>2021-04-24T13:01:10Z</time>
      </trkpt>
      <trkpt lat="43.63111" lon="3.82075">
        <ele>57</ele>
        <time>2021-04-24T13:01:13Z</time>
      </trkpt>
      <trkpt lat="43.63118" lon="3.82084">
        <ele>57</ele>
        <time>2021-04-24T13:01:18Z</time>
      </trkpt>
      <trkpt lat="43.63126" lon="3.82094">
        <ele>57</ele>
        <time>2021-04-24T13:01:23Z</time>
      </trkpt>
      <trkpt lat="43.63117" lon="3.82093">
        <ele>57</ele>
        <time>2021-04-24T13:01:32Z</time>
      </trkpt>
      <trkpt lat="43.63107" lon="3.82095">
        <ele>57</ele>
        <time>2021-04-24T13:01:41Z</time>
      </trkpt>
      <trkpt lat="43.63109" lon="3.82082">
        <ele>57</ele>
        <time>2021-04-24T13:01:50Z</time>
      </trkpt>
      <trkpt lat="43.63119" lon="3.82081">
        <ele>57</ele>
        <time>2021-04-24T13:01:57Z</time>
      </trkpt>
      <trkpt lat="43.63109" lon="3.82072">
        <ele>57</ele>
        <time>2021-04-24T13:03:00Z</time>
      </trkpt>
      <trkpt lat="43.63118" lon="3.82073">
        <ele>57</ele>
        <time>2021-04-24T13:03:20Z</time>
      </trkpt>
      <trkpt lat="43.63128" lon="3.82074">
        <ele>57</ele>
        <time>2021-04-24T13:03:28Z</time>
      </trkpt>
      <trkpt lat="43.63122" lon="3.82084">
        <ele>57</ele>
        <time>2021-04-24T13:03:54Z</time>
      </trkpt>
      <trkpt lat="43.6313" lon="3.82091">
        <ele>47</ele>
        <time>2021-04-24T13:04:03Z</time>
      </trkpt>
      <trkpt lat="43.63122" lon="3.82084">
        <ele>47</ele>
        <time>2021-04-24T13:04:31Z</time>
      </trkpt>
      <trkpt lat="43.63113" lon="3.82078">
        <ele>47</ele>
        <time>2021-04-24T13:04:35Z</time>
      </trkpt>
      <trkpt lat="43.63121" lon="3.82084">
        <ele>47</ele>
        <time>2021-04-24T13:04:39Z</time>
      </trkpt>
      <trkpt lat="43.63123" lon="3.82097">
        <ele>40</ele>
        <time>2021-04-24T13:04:43Z</time>
      </trkpt>
      <trkpt lat="43.63122" lon="3.82084">
        <ele>40</ele>
        <time>2021-04-24T13:04:56Z</time>
      </trkpt>
      <trkpt lat="43.63116" lon="3.82073">
        <ele>40</ele>
        <time>2021-04-24T13:05:15Z</time>
      </trkpt>
      <trkpt lat="43.63106" lon="3.82074">
        <ele>40</ele>
        <time>2021-04-24T13:05:37Z</time>
      </trkpt>
      <trkpt lat="43.6311" lon="3.82087">
        <ele>40</ele>
        <time>2021-04-24T13:05:45Z</time>
      </trkpt>
      <trkpt lat="43.63102" lon="3.82093">
        <ele>40</ele>
        <time>2021-04-24T13:06:14Z</time>
      </trkpt>
      <trkpt lat="43.63092" lon="3.82091">
        <ele>40</ele>
        <time>2021-04-24T13:06:17Z</time>
      </trkpt>
      <trkpt lat="43.63087" lon="3.82081">
        <ele>40</ele>
        <time>2021-04-24T13:06:27Z</time>
      </trkpt>
      <trkpt lat="43.63096" lon="3.82081">
        <ele>40</ele>
        <time>2021-04-24T13:06:52Z</time>
      </trkpt>
      <trkpt lat="43.63097" lon="3.82094">
        <ele>40</ele>
        <time>2021-04-24T13:07:22Z</time>
      </trkpt>
      <trkpt lat="43.63108" lon="3.82096">
        <ele>40</ele>
        <time>2021-04-24T13:07:35Z</time>
      </trkpt>
      <trkpt lat="43.63116" lon="3.82089">
        <ele>40</ele>
        <time>2021-04-24T13:07:41Z</time>
      </trkpt>
      <trkpt lat="43.63118" lon="3.82075">
        <ele>40</ele>
        <time>2021-04-24T13:07:45Z</time>
      </trkpt>
      <trkpt lat="43.63111" lon="3.8206">
        <ele>40</ele>
        <time>2021-04-24T13:07:48Z</time>
      </trkpt>
      <trkpt lat="43.63104" lon="3.82049">
        <ele>30</ele>
        <time>2021-04-24T13:08:03Z</time>
      </trkpt>
      <trkpt lat="43.63108" lon="3.82064">
        <ele>30</ele>
        <time>2021-04-24T13:08:23Z</time>
      </trkpt>
      <trkpt lat="43.63115" lon="3.82072">
        <ele>29</ele>
        <time>2021-04-24T13:08:33Z</time>
      </trkpt>
      <trkpt lat="43.63123" lon="3.8208">
        <ele>29</ele>
        <time>2021-04-24T13:08:54Z</time>
      </trkpt>
      <trkpt lat="43.63129" lon="3.82091">
        <ele>29</ele>
        <time>2021-04-24T13:09:06Z</time>
      </trkpt>
      <trkpt lat="43.63139" lon="3.82085">
        <ele>29</ele>
        <time>2021-04-24T13:09:11Z</time>
      </trkpt>
      <trkpt lat="43.63148" lon="3.82086">
        <ele>29</ele>
        <time>2021-04-24T13:09:21Z</time>
      </trkpt>
      <trkpt lat="43.6314" lon="3.82078">
        <ele>29</ele>
        <time>2021-04-24T13:09:37Z</time>
      </trkpt>
      <trkpt lat="43.6313" lon="3.82073">
        <ele>29</ele>
        <time>2021-04-24T13:09:42Z</time>
      </trkpt>
      <trkpt lat="43.6312" lon="3.82071">
        <ele>29</ele>
        <time>2021-04-24T13:09:45Z</time>
      </trkpt>
      <trkpt lat="43.63122" lon="3.82085">
        <ele>29</ele>
        <time>2021-04-24T13:09:50Z</time>
      </trkpt>
      <trkpt lat="43.6311" lon="3.82089">
        <ele>29</ele>
        <time>2021-04-24T13:09:54Z</time>
      </trkpt>
      <trkpt lat="43.63118" lon="3.82094">
        <ele>29</ele>
        <time>2021-04-24T13:10:18Z</time>
      </trkpt>
      <trkpt lat="43.63119" lon="3.8208">
        <ele>28</ele>
        <time>2021-04-24T13:10:33Z</time>
      </trkpt>
      <trkpt lat="43.63126" lon="3.82069">
        <ele>28</ele>
        <time>2021-04-24T13:10:39Z</time>
      </trkpt>
      <trkpt lat="43.63116" lon="3.82078">
        <ele>22</ele>
        <time>2021-04-24T13:11:03Z</time>
      </trkpt>
      <trkpt lat="43.63113" lon="3.82066">
        <ele>22</ele>
        <time>2021-04-24T13:11:18Z</time>
      </trkpt>
      <trkpt lat="43.63104" lon="3.82069">
        <ele>22</ele>
        <time>2021-04-24T13:11:22Z</time>
      </trkpt>
      <trkpt lat="43.63104" lon="3.82083">
        <ele>22</ele>
        <time>2021-04-24T13:11:25Z</time>
      </trkpt>
      <trkpt lat="43.63103" lon="3.82088">
        <ele>22</ele>
        <time>2021-04-24T13:11:30Z</time>
      </trkpt>
      <trkpt lat="43.63101" lon="3.82091">
        <ele>22</ele>
        <time>2021-04-24T13:11:32Z</time>
      </trkpt>
      <trkpt lat="43.631" lon="3.82093">
        <ele>46</ele>
        <time>2021-04-24T13:11:33Z</time>
      </trkpt>
      <trkpt lat="43.63098" lon="3.82095">
        <ele>46</ele>
        <time>2021-04-24T13:11:34Z</time>
      </trkpt>
      <trkpt lat="43.63096" lon="3.82096">
        <ele>46</ele>
        <time>2021-04-24T13:11:35Z</time>
      </trkpt>
      <trkpt lat="43.63094" lon="3.82097">
        <ele>46</ele>
        <time>2021-04-24T13:11:36Z</time>
      </trkpt>
      <trkpt lat="43.63091" lon="3.82097">
        <ele>46</ele>
        <time>2021-04-24T13:11:37Z</time>
      </trkpt>
      <trkpt lat="43.63089" lon="3.82098">
        <ele>46</ele>
        <time>2021-04-24T13:11:38Z</time>
      </trkpt>
      <trkpt lat="43.63086" lon="3.821">
        <ele>46</ele>
        <time>2021-04-24T13:11:39Z</time>
      </trkpt>
      <trkpt lat="43.63084" lon="3.82101">
        <ele>46</ele>
        <time>2021-04-24T13:11:40Z</time>
      </trkpt>
      <trkpt lat="43.63082" lon="3.82103">
        <ele>46</ele>
        <time>2021-04-24T13:11:41Z</time>
      </trkpt>
      <trkpt lat="43.63081" lon="3.82108">
        <ele>51</ele>
        <time>2021-04-24T13:11:43Z</time>
      </trkpt>
      <trkpt lat="43.63081" lon="3.82111">
        <ele>51</ele>
        <time>2021-04-24T13:11:44Z</time>
      </trkpt>
      <trkpt lat="43.63081" lon="3.82115">
        <ele>51</ele>
        <time>2021-04-24T13:11:45Z</time>
      </trkpt>
      <trkpt lat="43.63081" lon="3.82117">
        <ele>51</ele>
        <time>2021-04-24T13:11:46Z</time>
      </trkpt>
      <trkpt lat="43.63081" lon="3.8212">
        <ele>51</ele>
        <time>2021-04-24T13:11:47Z</time>
      </trkpt>
      <trkpt lat="43.6308" lon="3.82123">
        <ele>51</ele>
        <time>2021-04-24T13:11:48Z</time>
      </trkpt>
      <trkpt lat="43.63077" lon="3.82124">
        <ele>51</ele>
        <time>2021-04-24T13:11:49Z</time>
      </trkpt>
      <trkpt lat="43.63075" lon="3.82124">
        <ele>51</ele>
        <time>2021-04-24T13:11:50Z</time>
      </trkpt>
      <trkpt lat="43.63073" lon="3.82127">
        <ele>51</ele>
        <time>2021-04-24T13:11:52Z</time>
      </trkpt>
      <trkpt lat="43.63072" lon="3.8213">
        <ele>53</ele>
        <time>2021-04-24T13:11:53Z</time>
      </trkpt>
      <trkpt lat="43.63072" lon="3.82134">
        <ele>53</ele>
        <time>2021-04-24T13:11:54Z</time>
      </trkpt>
      <trkpt lat="43.63072" lon="3.82138">
        <ele>53</ele>
        <time>2021-04-24T13:11:55Z</time>
      </trkpt>
      <trkpt lat="43.63072" lon="3.82142">
        <ele>53</ele>
        <time>2021-04-24T13:11:56Z</time>
      </trkpt>
      <trkpt lat="43.63072" lon="3.82146">
        <ele>53</ele>
        <time>2021-04-24T13:11:57Z</time>
      </trkpt>
      <trkpt lat="43.63072" lon="3.8215">
        <ele>53</ele>
        <time>2021-04-24T13:11:58Z</time>
      </trkpt>
      <trkpt lat="43.63072" lon="3.82154">
        <ele>53</ele>
        <time>2021-04-24T13:11:59Z</time>
      </trkpt>
      <trkpt lat="43.63072" lon="3.82158">
        <ele>53</ele>
        <time>2021-04-24T13:12:00Z</time>
      </trkpt>
      <trkpt lat="43.63072" lon="3.82162">
        <ele>53</ele>
        <time>2021-04-24T13:12:01Z</time>
      </trkpt>
      <trkpt lat="43.63072" lon="3.82166">
        <ele>53</ele>
        <time>2021-04-24T13:12:02Z</time>
      </trkpt>
      <trkpt lat="43.63072" lon="3.8217">
        <ele>52</ele>
        <time>2021-04-24T13:12:03Z</time>
      </trkpt>
      <trkpt lat="43.63072" lon="3.82174">
        <ele>52</ele>
        <time>2021-04-24T13:12:04Z</time>
      </trkpt>
      <trkpt lat="43.63071" lon="3.82178">
        <ele>52</ele>
        <time>2021-04-24T13:12:05Z</time>
      </trkpt>
      <trkpt lat="43.63071" lon="3.82182">
        <ele>52</ele>
        <time>2021-04-24T13:12:06Z</time>
      </trkpt>
      <trkpt lat="43.6307" lon="3.82186">
        <ele>52</ele>
        <time>2021-04-24T13:12:07Z</time>
      </trkpt>
      <trkpt lat="43.6307" lon="3.82191">
        <ele>52</ele>
        <time>2021-04-24T13:12:08Z</time>
      </trkpt>
      <trkpt lat="43.6307" lon="3.82194">
        <ele>52</ele>
        <time>2021-04-24T13:12:09Z</time>
      </trkpt>
      <trkpt lat="43.6307" lon="3.82197">
        <ele>52</ele>
        <time>2021-04-24T13:12:10Z</time>
      </trkpt>
      <trkpt lat="43.6307" lon="3.82203">
        <ele>52</ele>
        <time>2021-04-24T13:12:12Z</time>
      </trkpt>
      <trkpt lat="43.6307" lon="3.82206">
        <ele>54</ele>
        <time>2021-04-24T13:12:13Z</time>
      </trkpt>
      <trkpt lat="43.63069" lon="3.82209">
        <ele>54</ele>
        <time>2021-04-24T13:12:14Z</time>
      </trkpt>
      <trkpt lat="43.63068" lon="3.82213">
        <ele>54</ele>
        <time>2021-04-24T13:12:15Z</time>
      </trkpt>
      <trkpt lat="43.63067" lon="3.82217">
        <ele>54</ele>
        <time>2021-04-24T13:12:16Z</time>
      </trkpt>
      <trkpt lat="43.63066" lon="3.8222">
        <ele>54</ele>
        <time>2021-04-24T13:12:17Z</time>
      </trkpt>
      <trkpt lat="43.63065" lon="3.82223">
        <ele>54</ele>
        <time>2021-04-24T13:12:18Z</time>
      </trkpt>
      <trkpt lat="43.63064" lon="3.82227">
        <ele>54</ele>
        <time>2021-04-24T13:12:19Z</time>
      </trkpt>
      <trkpt lat="43.63064" lon="3.8223">
        <ele>54</ele>
        <time>2021-04-24T13:12:20Z</time>
      </trkpt>
      <trkpt lat="43.63064" lon="3.82234">
        <ele>54</ele>
        <time>2021-04-24T13:12:21Z</time>
      </trkpt>
      <trkpt lat="43.63063" lon="3.82237">
        <ele>54</ele>
        <time>2021-04-24T13:12:22Z</time>
      </trkpt>
      <trkpt lat="43.63063" lon="3.82241">
        <ele>56</ele>
        <time>2021-04-24T13:12:23Z</time>
      </trkpt>
      <trkpt lat="43.63063" lon="3.82244">
        <ele>56</ele>
        <time>2021-04-24T13:12:24Z</time>
      </trkpt>
      <trkpt lat="43.63063" lon="3.82248">
        <ele>56</ele>
        <time>2021-04-24T13:12:25Z</time>
      </trkpt>
      <trkpt lat="43.63063" lon="3.82252">
        <ele>56</ele>
        <time>2021-04-24T13:12:26Z</time>
      </trkpt>
      <trkpt lat="43.63063" lon="3.82255">
        <ele>56</ele>
        <time>2021-04-24T13:12:27Z</time>
      </trkpt>
      <trkpt lat="43.63063" lon="3.82259">
        <ele>56</ele>
        <time>2021-04-24T13:12:28Z</time>
      </trkpt>
      <trkpt lat="43.63063" lon="3.82263">
        <ele>56</ele>
        <time>2021-04-24T13:12:29Z</time>
      </trkpt>
      <trkpt lat="43.63063" lon="3.82267">
        <ele>56</ele>
        <time>2021-04-24T13:12:30Z</time>
      </trkpt>
      <trkpt lat="43.63062" lon="3.8227">
        <ele>56</ele>
        <time>2021-04-24T13:12:31Z</time>
      </trkpt>
      <trkpt lat="43.63062" lon="3.82274">
        <ele>56</ele>
        <time>2021-04-24T13:12:32Z</time>
      </trkpt>
      <trkpt lat="43.63062" lon="3.82279">
        <ele>57</ele>
        <time>2021-04-24T13:12:33Z</time>
      </trkpt>
      <trkpt lat="43.63062" lon="3.82283">
        <ele>57</ele>
        <time>2021-04-24T13:12:34Z</time>
      </trkpt>
      <trkpt lat="43.63062" lon="3.82288">
        <ele>57</ele>
        <time>2021-04-24T13:12:35Z</time>
      </trkpt>
      <trkpt lat="43.63062" lon="3.82293">
        <ele>57</ele>
        <time>2021-04-24T13:12:36Z</time>
      </trkpt>
      <trkpt lat="43.63062" lon="3.82298">
        <ele>57</ele>
        <time>2021-04-24T13:12:37Z</time>
      </trkpt>
      <trkpt lat="43.63062" lon="3.82302">
        <ele>57</ele>
        <time>2021-04-24T13:12:38Z</time>
      </trkpt>
      <trkpt lat="43.63061" lon="3.82307">
        <ele>57</ele>
        <time>2021-04-24T13:12:39Z</time>
      </trkpt>
      <trkpt lat="43.6306" lon="3.82312">
        <ele>57</ele>
        <time>2021-04-24T13:12:40Z</time>
      </trkpt>
      <trkpt lat="43.6306" lon="3.82317">
        <ele>57</ele>
        <time>2021-04-24T13:12:41Z</time>
      </trkpt>
      <trkpt lat="43.6306" lon="3.82322">
        <ele>57</ele>
        <time>2021-04-24T13:12:42Z</time>
      </trkpt>
      <trkpt lat="43.63059" lon="3.82327">
        <ele>57</ele>
        <time>2021-04-24T13:12:43Z</time>
      </trkpt>
      <trkpt lat="43.63058" lon="3.82332">
        <ele>57</ele>
        <time>2021-04-24T13:12:44Z</time>
      </trkpt>
      <trkpt lat="43.63058" lon="3.82336">
        <ele>57</ele>
        <time>2021-04-24T13:12:45Z</time>
      </trkpt>
      <trkpt lat="43.63058" lon="3.82341">
        <ele>57</ele>
        <time>2021-04-24T13:12:46Z</time>
      </trkpt>
      <trkpt lat="43.63058" lon="3.82346">
        <ele>57</ele>
        <time>2021-04-24T13:12:47Z</time>
      </trkpt>
      <trkpt lat="43.63058" lon="3.82351">
        <ele>57</ele>
        <time>2021-04-24T13:12:48Z</time>
      </trkpt>
      <trkpt lat="43.63058" lon="3.82355">
        <ele>57</ele>
        <time>2021-04-24T13:12:49Z</time>
      </trkpt>
      <trkpt lat="43.63058" lon="3.8236">
        <ele>57</ele>
        <time>2021-04-24T13:12:50Z</time>
      </trkpt>
      <trkpt lat="43.63058" lon="3.82365">
        <ele>57</ele>
        <time>2021-04-24T13:12:51Z</time>
      </trkpt>
      <trkpt lat="43.63058" lon="3.8237">
        <ele>57</ele>
        <time>2021-04-24T13:12:52Z</time>
      </trkpt>
      <trkpt lat="43.63058" lon="3.82375">
        <ele>58</ele>
        <time>2021-04-24T13:12:53Z</time>
      </trkpt>
      <trkpt lat="43.63058" lon="3.8238">
        <ele>58</ele>
        <time>2021-04-24T13:12:54Z</time>
      </trkpt>
      <trkpt lat="43.63058" lon="3.82385">
        <ele>58</ele>
        <time>2021-04-24T13:12:55Z</time>
      </trkpt>
      <trkpt lat="43.63058" lon="3.8239">
        <ele>58</ele>
        <time>2021-04-24T13:12:56Z</time>
      </trkpt>
      <trkpt lat="43.63057" lon="3.82395">
        <ele>58</ele>
        <time>2021-04-24T13:12:57Z</time>
      </trkpt>
      <trkpt lat="43.63057" lon="3.824">
        <ele>58</ele>
        <time>2021-04-24T13:12:58Z</time>
      </trkpt>
      <trkpt lat="43.63057" lon="3.82406">
        <ele>58</ele>
        <time>2021-04-24T13:12:59Z</time>
      </trkpt>
      <trkpt lat="43.63057" lon="3.82411">
        <ele>58</ele>
        <time>2021-04-24T13:13:00Z</time>
      </trkpt>
      <trkpt lat="43.63057" lon="3.82416">
        <ele>58</ele>
        <time>2021-04-24T13:13:01Z</time>
      </trkpt>
      <trkpt lat="43.63057" lon="3.82421">
        <ele>58</ele>
        <time>2021-04-24T13:13:02Z</time>
      </trkpt>
      <trkpt lat="43.63057" lon="3.82427">
        <ele>58</ele>
        <time>2021-04-24T13:13:03Z</time>
      </trkpt>
      <trkpt lat="43.63056" lon="3.82432">
        <ele>58</ele>
        <time>2021-04-24T13:13:04Z</time>
      </trkpt>
      <trkpt lat="43.63056" lon="3.82437">
        <ele>58</ele>
        <time>2021-04-24T13:13:05Z</time>
      </trkpt>
      <trkpt lat="43.63056" lon="3.82443">
        <ele>58</ele>
        <time>2021-04-24T13:13:06Z</time>
      </trkpt>
      <trkpt lat="43.63056" lon="3.82448">
        <ele>58</ele>
        <time>2021-04-24T13:13:07Z</time>
      </trkpt>
      <trkpt lat="43.63056" lon="3.82454">
        <ele>58</ele>
        <time>2021-04-24T13:13:08Z</time>
      </trkpt>
      <trkpt lat="43.63055" lon="3.82459">
        <ele>58</ele>
        <time>2021-04-24T13:13:09Z</time>
      </trkpt>
      <trkpt lat="43.63053" lon="3.82465">
        <ele>58</ele>
        <time>2021-04-24T13:13:10Z</time>
      </trkpt>
      <trkpt lat="43.63052" lon="3.8247">
        <ele>58</ele>
        <time>2021-04-24T13:13:11Z</time>
      </trkpt>
      <trkpt lat="43.63051" lon="3.82475">
        <ele>58</ele>
        <time>2021-04-24T13:13:12Z</time>
      </trkpt>
      <trkpt lat="43.6305" lon="3.82481">
        <ele>58</ele>
        <time>2021-04-24T13:13:13Z</time>
      </trkpt>
      <trkpt lat="43.63049" lon="3.82487">
        <ele>58</ele>
        <time>2021-04-24T13:13:14Z</time>
      </trkpt>
      <trkpt lat="43.63047" lon="3.82492">
        <ele>58</ele>
        <time>2021-04-24T13:13:15Z</time>
      </trkpt>
      <trkpt lat="43.63046" lon="3.82498">
        <ele>58</ele>
        <time>2021-04-24T13:13:16Z</time>
      </trkpt>
      <trkpt lat="43.63045" lon="3.82504">
        <ele>58</ele>
        <time>2021-04-24T13:13:17Z</time>
      </trkpt>
      <trkpt lat="43.63044" lon="3.8251">
        <ele>58</ele>
        <time>2021-04-24T13:13:18Z</time>
      </trkpt>
      <trkpt lat="43.63043" lon="3.82516">
        <ele>58</ele>
        <time>2021-04-24T13:13:19Z</time>
      </trkpt>
      <trkpt lat="43.63042" lon="3.82522">
        <ele>58</ele>
        <time>2021-04-24T13:13:20Z</time>
      </trkpt>
      <trkpt lat="43.63041" lon="3.82527">
        <ele>58</ele>
        <time>2021-04-24T13:13:21Z</time>
      </trkpt>
      <trkpt lat="43.63041" lon="3.82533">
        <ele>58</ele>
        <time>2021-04-24T13:13:22Z</time>
      </trkpt>
      <trkpt lat="43.6304" lon="3.82539">
        <ele>58</ele>
        <time>2021-04-24T13:13:23Z</time>
      </trkpt>
      <trkpt lat="43.6304" lon="3.82544">
        <ele>58</ele>
        <time>2021-04-24T13:13:24Z</time>
      </trkpt>
      <trkpt lat="43.6304" lon="3.82549">
        <ele>58</ele>
        <time>2021-04-24T13:13:25Z</time>
      </trkpt>
      <trkpt lat="43.6304" lon="3.82554">
        <ele>58</ele>
        <time>2021-04-24T13:13:26Z</time>
      </trkpt>
      <trkpt lat="43.6304" lon="3.82559">
        <ele>58</ele>
        <time>2021-04-24T13:13:27Z</time>
      </trkpt>
      <trkpt lat="43.6304" lon="3.82564">
        <ele>58</ele>
        <time>2021-04-24T13:13:28Z</time>
      </trkpt>
      <trkpt lat="43.6304" lon="3.82568">
        <ele>58</ele>
        <time>2021-04-24T13:13:29Z</time>
      </trkpt>
      <trkpt lat="43.6304" lon="3.82572">
        <ele>58</ele>
        <time>2021-04-24T13:13:30Z</time>
      </trkpt>
      <trkpt lat="43.6304" lon="3.82576">
        <ele>58</ele>
        <time>2021-04-24T13:13:31Z</time>
      </trkpt>
      <trkpt lat="43.63039" lon="3.82579">
        <ele>58</ele>
        <time>2021-04-24T13:13:32Z</time>
      </trkpt>
      <trkpt lat="43.63039" lon="3.82583">
        <ele>59</ele>
        <time>2021-04-24T13:13:33Z</time>
      </trkpt>
      <trkpt lat="43.63039" lon="3.82586">
        <ele>59</ele>
        <time>2021-04-24T13:13:34Z</time>
      </trkpt>
      <trkpt lat="43.63039" lon="3.82589">
        <ele>59</ele>
        <time>2021-04-24T13:13:35Z</time>
      </trkpt>
      <trkpt lat="43.63039" lon="3.82592">
        <ele>59</ele>
        <time>2021-04-24T13:13:36Z</time>
      </trkpt>
      <trkpt lat="43.6304" lon="3.82595">
        <ele>59</ele>
        <time>2021-04-24T13:13:37Z</time>
      </trkpt>
      <trkpt lat="43.63041" lon="3.82598">
        <ele>59</ele>
        <time>2021-04-24T13:13:38Z</time>
      </trkpt>
      <trkpt lat="43.63041" lon="3.82602">
        <ele>59</ele>
        <time>2021-04-24T13:13:39Z</time>
      </trkpt>
      <trkpt lat="43.63041" lon="3.82605">
        <ele>59</ele>
        <time>2021-04-24T13:13:40Z</time>
      </trkpt>
      <trkpt lat="43.63041" lon="3.82608">
        <ele>59</ele>
        <time>2021-04-24T13:13:41Z</time>
      </trkpt>
      <trkpt lat="43.63041" lon="3.82611">
        <ele>59</ele>
        <time>2021-04-24T13:13:42Z</time>
      </trkpt>
      <trkpt lat="43.6304" lon="3.82614">
        <ele>60</ele>
        <time>2021-04-24T13:13:43Z</time>
      </trkpt>
      <trkpt lat="43.6304" lon="3.82617">
        <ele>60</ele>
        <time>2021-04-24T13:13:44Z</time>
      </trkpt>
      <trkpt lat="43.6304" lon="3.8262">
        <ele>60</ele>
        <time>2021-04-24T13:13:45Z</time>
      </trkpt>
      <trkpt lat="43.63039" lon="3.82623">
        <ele>60</ele>
        <time>2021-04-24T13:13:46Z</time>
      </trkpt>
      <trkpt lat="43.63038" lon="3.82626">
        <ele>60</ele>
        <time>2021-04-24T13:13:47Z</time>
      </trkpt>
      <trkpt lat="43.63037" lon="3.82628">
        <ele>60</ele>
        <time>2021-04-24T13:13:48Z</time>
      </trkpt>
      <trkpt lat="43.63036" lon="3.8263">
        <ele>60</ele>
        <time>2021-04-24T13:13:49Z</time>
      </trkpt>
      <trkpt lat="43.63035" lon="3.82633">
        <ele>60</ele>
        <time>2021-04-24T13:13:50Z</time>
      </trkpt>
      <trkpt lat="43.63034" lon="3.82635">
        <ele>60</ele>
        <time>2021-04-24T13:13:51Z</time>
      </trkpt>
      <trkpt lat="43.63033" lon="3.82637">
        <ele>60</ele>
        <time>2021-04-24T13:13:52Z</time>
      </trkpt>
      <trkpt lat="43.63031" lon="3.82639">
        <ele>59</ele>
        <time>2021-04-24T13:13:53Z</time>
      </trkpt>
      <trkpt lat="43.63029" lon="3.8264">
        <ele>59</ele>
        <time>2021-04-24T13:13:54Z</time>
      </trkpt>
      <trkpt lat="43.63027" lon="3.82641">
        <ele>59</ele>
        <time>2021-04-24T13:13:55Z</time>
      </trkpt>
      <trkpt lat="43.63024" lon="3.82641">
        <ele>59</ele>
        <time>2021-04-24T13:13:56Z</time>
      </trkpt>
      <trkpt lat="43.63021" lon="3.82641">
        <ele>59</ele>
        <time>2021-04-24T13:13:57Z</time>
      </trkpt>
      <trkpt lat="43.63019" lon="3.82641">
        <ele>59</ele>
        <time>2021-04-24T13:13:58Z</time>
      </trkpt>
      <trkpt lat="43.63017" lon="3.8264">
        <ele>59</ele>
        <time>2021-04-24T13:13:59Z</time>
      </trkpt>
      <trkpt lat="43.63014" lon="3.82641">
        <ele>59</ele>
        <time>2021-04-24T13:14:00Z</time>
      </trkpt>
      <trkpt lat="43.63012" lon="3.82641">
        <ele>59</ele>
        <time>2021-04-24T13:14:01Z</time>
      </trkpt>
      <trkpt lat="43.6301" lon="3.82643">
        <ele>59</ele>
        <time>2021-04-24T13:14:02Z</time>
      </trkpt>
      <trkpt lat="43.63008" lon="3.82644">
        <ele>59</ele>
        <time>2021-04-24T13:14:03Z</time>
      </trkpt>
      <trkpt lat="43.63006" lon="3.82646">
        <ele>59</ele>
        <time>2021-04-24T13:14:04Z</time>
      </trkpt>
      <trkpt lat="43.63005" lon="3.82648">
        <ele>59</ele>
        <time>2021-04-24T13:14:05Z</time>
      </trkpt>
      <trkpt lat="43.63004" lon="3.82651">
        <ele>59</ele>
        <time>2021-04-24T13:14:06Z</time>
      </trkpt>
      <trkpt lat="43.63002" lon="3.82653">
        <ele>59</ele>
        <time>2021-04-24T13:14:07Z</time>
      </trkpt>
      <trkpt lat="43.63" lon="3.82655">
        <ele>59</ele>
        <time>2021-04-24T13:14:08Z</time>
      </trkpt>
      <trkpt lat="43.62998" lon="3.82657">
        <ele>59</ele>
        <time>2021-04-24T13:14:09Z</time>
      </trkpt>
      <trkpt lat="43.62996" lon="3.82659">
        <ele>59</ele>
        <time>2021-04-24T13:14:10Z</time>
      </trkpt>
      <trkpt lat="43.62994" lon="3.82661">
        <ele>59</ele>
        <time>2021-04-24T13:14:11Z</time>
      </trkpt>
      <trkpt lat="43.62992" lon="3.82664">
        <ele>59</ele>
        <time>2021-04-24T13:14:12Z</time>
      </trkpt>
      <trkpt lat="43.6299" lon="3.82665">
        <ele>60</ele>
        <time>2021-04-24T13:14:13Z</time>
      </trkpt>
      <trkpt lat="43.62988" lon="3.82667">
        <ele>60</ele>
        <time>2021-04-24T13:14:14Z</time>
      </trkpt>
      <trkpt lat="43.62986" lon="3.82669">
        <ele>60</ele>
        <time>2021-04-24T13:14:15Z</time>
      </trkpt>
      <trkpt lat="43.62984" lon="3.82671">
        <ele>60</ele>
        <time>2021-04-24T13:14:16Z</time>
      </trkpt>
      <trkpt lat="43.62982" lon="3.82674">
        <ele>60</ele>
        <time>2021-04-24T13:14:17Z</time>
      </trkpt>
      <trkpt lat="43.6298" lon="3.82676">
        <ele>60</ele>
        <time>2021-04-24T13:14:18Z</time>
      </trkpt>
      <trkpt lat="43.62978" lon="3.82679">
        <ele>60</ele>
        <time>2021-04-24T13:14:19Z</time>
      </trkpt>
      <trkpt lat="43.62976" lon="3.82681">
        <ele>60</ele>
        <time>2021-04-24T13:14:20Z</time>
      </trkpt>
      <trkpt lat="43.62974" lon="3.82684">
        <ele>60</ele>
        <time>2021-04-24T13:14:21Z</time>
      </trkpt>
      <trkpt lat="43.62971" lon="3.82686">
        <ele>60</ele>
        <time>2021-04-24T13:14:22Z</time>
      </trkpt>
      <trkpt lat="43.62969" lon="3.82689">
        <ele>60</ele>
        <time>2021-04-24T13:14:23Z</time>
      </trkpt>
      <trkpt lat="43.62967" lon="3.82691">
        <ele>60</ele>
        <time>2021-04-24T13:14:24Z</time>
      </trkpt>
      <trkpt lat="43.62964" lon="3.82692">
        <ele>60</ele>
        <time>2021-04-24T13:14:25Z</time>
      </trkpt>
      <trkpt lat="43.62961" lon="3.82693">
        <ele>60</ele>
        <time>2021-04-24T13:14:26Z</time>
      </trkpt>
      <trkpt lat="43.62958" lon="3.82694">
        <ele>60</ele>
        <time>2021-04-24T13:14:27Z</time>
      </trkpt>
      <trkpt lat="43.62956" lon="3.82696">
        <ele>60</ele>
        <time>2021-04-24T13:14:28Z</time>
      </trkpt>
      <trkpt lat="43.62954" lon="3.82698">
        <ele>60</ele>
        <time>2021-04-24T13:14:29Z</time>
      </trkpt>
      <trkpt lat="43.62952" lon="3.82701">
        <ele>60</ele>
        <time>2021-04-24T13:14:30Z</time>
      </trkpt>
      <trkpt lat="43.6295" lon="3.82704">
        <ele>60</ele>
        <time>2021-04-24T13:14:31Z</time>
      </trkpt>
      <trkpt lat="43.62947" lon="3.82706">
        <ele>60</ele>
        <time>2021-04-24T13:14:32Z</time>
      </trkpt>
      <trkpt lat="43.62945" lon="3.82709">
        <ele>60</ele>
        <time>2021-04-24T13:14:33Z</time>
      </trkpt>
      <trkpt lat="43.62943" lon="3.82712">
        <ele>60</ele>
        <time>2021-04-24T13:14:34Z</time>
      </trkpt>
      <trkpt lat="43.62941" lon="3.82714">
        <ele>60</ele>
        <time>2021-04-24T13:14:35Z</time>
      </trkpt>
      <trkpt lat="43.62939" lon="3.82717">
        <ele>60</ele>
        <time>2021-04-24T13:14:36Z</time>
      </trkpt>
      <trkpt lat="43.62936" lon="3.82719">
        <ele>60</ele>
        <time>2021-04-24T13:14:37Z</time>
      </trkpt>
      <trkpt lat="43.62933" lon="3.82722">
        <ele>60</ele>
        <time>2021-04-24T13:14:38Z</time>
      </trkpt>
      <trkpt lat="43.62931" lon="3.82726">
        <ele>60</ele>
        <time>2021-04-24T13:14:39Z</time>
      </trkpt>
      <trkpt lat="43.62928" lon="3.82729">
        <ele>60</ele>
        <time>2021-04-24T13:14:40Z</time>
      </trkpt>
      <trkpt lat="43.62926" lon="3.82732">
        <ele>60</ele>
        <time>2021-04-24T13:14:41Z</time>
      </trkpt>
      <trkpt lat="43.62924" lon="3.82735">
        <ele>60</ele>
        <time>2021-04-24T13:14:42Z</time>
      </trkpt>
      <trkpt lat="43.62921" lon="3.82739">
        <ele>60</ele>
        <time>2021-04-24T13:14:43Z</time>
      </trkpt>
      <trkpt lat="43.62918" lon="3.82741">
        <ele>60</ele>
        <time>2021-04-24T13:14:44Z</time>
      </trkpt>
      <trkpt lat="43.62916" lon="3.82744">
        <ele>60</ele>
        <time>2021-04-24T13:14:45Z</time>
      </trkpt>
      <trkpt lat="43.62913" lon="3.82747">
        <ele>60</ele>
        <time>2021-04-24T13:14:46Z</time>
      </trkpt>
      <trkpt lat="43.62911" lon="3.82751">
        <ele>60</ele>
        <time>2021-04-24T13:14:47Z</time>
      </trkpt>
      <trkpt lat="43.62909" lon="3.82754">
        <ele>60</ele>
        <time>2021-04-24T13:14:48Z</time>
      </trkpt>
      <trkpt lat="43.62906" lon="3.82757">
        <ele>60</ele>
        <time>2021-04-24T13:14:49Z</time>
      </trkpt>
      <trkpt lat="43.62904" lon="3.8276">
        <ele>60</ele>
        <time>2021-04-24T13:14:50Z</time>
      </trkpt>
      <trkpt lat="43.62902" lon="3.82764">
        <ele>60</ele>
        <time>2021-04-24T13:14:51Z</time>
      </trkpt>
      <trkpt lat="43.62901" lon="3.82769">
        <ele>60</ele>
        <time>2021-04-24T13:14:52Z</time>
      </trkpt>
      <trkpt lat="43.62901" lon="3.82774">
        <ele>60</ele>
        <time>2021-04-24T13:14:53Z</time>
      </trkpt>
      <trkpt lat="43.62901" lon="3.8278">
        <ele>60</ele>
        <time>2021-04-24T13:14:54Z</time>
      </trkpt>
      <trkpt lat="43.62901" lon="3.82786">
        <ele>60</ele>
        <time>2021-04-24T13:14:55Z</time>
      </trkpt>
      <trkpt lat="43.62901" lon="3.82792">
        <ele>60</ele>
        <time>2021-04-24T13:14:56Z</time>
      </trkpt>
      <trkpt lat="43.62901" lon="3.82797">
        <ele>60</ele>
        <time>2021-04-24T13:14:57Z</time>
      </trkpt>
      <trkpt lat="43.62901" lon="3.82802">
        <ele>60</ele>
        <time>2021-04-24T13:14:58Z</time>
      </trkpt>
      <trkpt lat="43.62902" lon="3.82806">
        <ele>60</ele>
        <time>2021-04-24T13:14:59Z</time>
      </trkpt>
      <trkpt lat="43.62901" lon="3.82811">
        <ele>60</ele>
        <time>2021-04-24T13:15:00Z</time>
      </trkpt>
      <trkpt lat="43.629" lon="3.82814">
        <ele>60</ele>
        <time>2021-04-24T13:15:01Z</time>
      </trkpt>
      <trkpt lat="43.62898" lon="3.82815">
        <ele>60</ele>
        <time>2021-04-24T13:15:02Z</time>
      </trkpt>
      <trkpt lat="43.62896" lon="3.82815">
        <ele>61</ele>
        <time>2021-04-24T13:15:03Z</time>
      </trkpt>
      <trkpt lat="43.62894" lon="3.82815">
        <ele>61</ele>
        <time>2021-04-24T13:15:04Z</time>
      </trkpt>
      <trkpt lat="43.62892" lon="3.82816">
        <ele>61</ele>
        <time>2021-04-24T13:15:05Z</time>
      </trkpt>
      <trkpt lat="43.6289" lon="3.82816">
        <ele>61</ele>
        <time>2021-04-24T13:15:06Z</time>
      </trkpt>
      <trkpt lat="43.62888" lon="3.82816">
        <ele>61</ele>
        <time>2021-04-24T13:15:07Z</time>
      </trkpt>
      <trkpt lat="43.62885" lon="3.82816">
        <ele>61</ele>
        <time>2021-04-24T13:15:08Z</time>
      </trkpt>
      <trkpt lat="43.62883" lon="3.82815">
        <ele>61</ele>
        <time>2021-04-24T13:15:09Z</time>
      </trkpt>
      <trkpt lat="43.62881" lon="3.82816">
        <ele>61</ele>
        <time>2021-04-24T13:15:10Z</time>
      </trkpt>
      <trkpt lat="43.62879" lon="3.82816">
        <ele>61</ele>
        <time>2021-04-24T13:15:11Z</time>
      </trkpt>
      <trkpt lat="43.62877" lon="3.82817">
        <ele>61</ele>
        <time>2021-04-24T13:15:12Z</time>
      </trkpt>
      <trkpt lat="43.62875" lon="3.82818">
        <ele>62</ele>
        <time>2021-04-24T13:15:13Z</time>
      </trkpt>
      <trkpt lat="43.62873" lon="3.8282">
        <ele>62</ele>
        <time>2021-04-24T13:15:14Z</time>
      </trkpt>
      <trkpt lat="43.62872" lon="3.82822">
        <ele>62</ele>
        <time>2021-04-24T13:15:15Z</time>
      </trkpt>
      <trkpt lat="43.62869" lon="3.82823">
        <ele>62</ele>
        <time>2021-04-24T13:15:16Z</time>
      </trkpt>
      <trkpt lat="43.62867" lon="3.82825">
        <ele>62</ele>
        <time>2021-04-24T13:15:17Z</time>
      </trkpt>
      <trkpt lat="43.62866" lon="3.82829">
        <ele>62</ele>
        <time>2021-04-24T13:15:19Z</time>
      </trkpt>
      <trkpt lat="43.62864" lon="3.82833">
        <ele>62</ele>
        <time>2021-04-24T13:15:21Z</time>
      </trkpt>
      <trkpt lat="43.62864" lon="3.82836">
        <ele>62</ele>
        <time>2021-04-24T13:15:22Z</time>
      </trkpt>
      <trkpt lat="43.62863" lon="3.82839">
        <ele>63</ele>
        <time>2021-04-24T13:15:23Z</time>
      </trkpt>
      <trkpt lat="43.62863" lon="3.82841">
        <ele>63</ele>
        <time>2021-04-24T13:15:24Z</time>
      </trkpt>
      <trkpt lat="43.62862" lon="3.82846">
        <ele>63</ele>
        <time>2021-04-24T13:15:26Z</time>
      </trkpt>
      <trkpt lat="43.62862" lon="3.82848">
        <ele>63</ele>
        <time>2021-04-24T13:15:27Z</time>
      </trkpt>
      <trkpt lat="43.62859" lon="3.82851">
        <ele>63</ele>
        <time>2021-04-24T13:15:29Z</time>
      </trkpt>
      <trkpt lat="43.62857" lon="3.82853">
        <ele>63</ele>
        <time>2021-04-24T13:15:31Z</time>
      </trkpt>
      <trkpt lat="43.62854" lon="3.82854">
        <ele>65</ele>
        <time>2021-04-24T13:15:33Z</time>
      </trkpt>
      <trkpt lat="43.62851" lon="3.82855">
        <ele>65</ele>
        <time>2021-04-24T13:15:35Z</time>
      </trkpt>
      <trkpt lat="43.62848" lon="3.82856">
        <ele>65</ele>
        <time>2021-04-24T13:15:37Z</time>
      </trkpt>
      <trkpt lat="43.62847" lon="3.8286">
        <ele>65</ele>
        <time>2021-04-24T13:15:39Z</time>
      </trkpt>
      <trkpt lat="43.62847" lon="3.82865">
        <ele>65</ele>
        <time>2021-04-24T13:15:41Z</time>
      </trkpt>
      <trkpt lat="43.62846" lon="3.82869">
        <ele>66</ele>
        <time>2021-04-24T13:15:43Z</time>
      </trkpt>
      <trkpt lat="43.62845" lon="3.82874">
        <ele>66</ele>
        <time>2021-04-24T13:15:45Z</time>
      </trkpt>
      <trkpt lat="43.62844" lon="3.82878">
        <ele>66</ele>
        <time>2021-04-24T13:15:47Z</time>
      </trkpt>
      <trkpt lat="43.62844" lon="3.82883">
        <ele>66</ele>
        <time>2021-04-24T13:15:49Z</time>
      </trkpt>
      <trkpt lat="43.62844" lon="3.82887">
        <ele>66</ele>
        <time>2021-04-24T13:15:51Z</time>
      </trkpt>
      <trkpt lat="43.62843" lon="3.82892">
        <ele>68</ele>
        <time>2021-04-24T13:15:53Z</time>
      </trkpt>
      <trkpt lat="43.62842" lon="3.82896">
        <ele>68</ele>
        <time>2021-04-24T13:15:55Z</time>
      </trkpt>
      <trkpt lat="43.62842" lon="3.82898">
        <ele>68</ele>
        <time>2021-04-24T13:15:56Z</time>
      </trkpt>
      <trkpt lat="43.62841" lon="3.82903">
        <ele>68</ele>
        <time>2021-04-24T13:15:58Z</time>
      </trkpt>
      <trkpt lat="43.6284" lon="3.82906">
        <ele>68</ele>
        <time>2021-04-24T13:15:59Z</time>
      </trkpt>
      <trkpt lat="43.62839" lon="3.82908">
        <ele>68</ele>
        <time>2021-04-24T13:16:00Z</time>
      </trkpt>
      <trkpt lat="43.62838" lon="3.82912">
        <ele>68</ele>
        <time>2021-04-24T13:16:02Z</time>
      </trkpt>
      <trkpt lat="43.62837" lon="3.82917">
        <ele>68</ele>
        <time>2021-04-24T13:16:04Z</time>
      </trkpt>
      <trkpt lat="43.62837" lon="3.82921">
        <ele>68</ele>
        <time>2021-04-24T13:16:06Z</time>
      </trkpt>
      <trkpt lat="43.62837" lon="3.82926">
        <ele>68</ele>
        <time>2021-04-24T13:16:08Z</time>
      </trkpt>
      <trkpt lat="43.62836" lon="3.8293">
        <ele>68</ele>
        <time>2021-04-24T13:16:10Z</time>
      </trkpt>
      <trkpt lat="43.62834" lon="3.82935">
        <ele>68</ele>
        <time>2021-04-24T13:16:12Z</time>
      </trkpt>
      <trkpt lat="43.62834" lon="3.82939">
        <ele>68</ele>
        <time>2021-04-24T13:16:14Z</time>
      </trkpt>
      <trkpt lat="43.62834" lon="3.82943">
        <ele>68</ele>
        <time>2021-04-24T13:16:16Z</time>
      </trkpt>
      <trkpt lat="43.62834" lon="3.82948">
        <ele>68</ele>
        <time>2021-04-24T13:16:18Z</time>
      </trkpt>
      <trkpt lat="43.62833" lon="3.82952">
        <ele>68</ele>
        <time>2021-04-24T13:16:20Z</time>
      </trkpt>
      <trkpt lat="43.62833" lon="3.82955">
        <ele>68</ele>
        <time>2021-04-24T13:16:21Z</time>
      </trkpt>
      <trkpt lat="43.62833" lon="3.82958">
        <ele>68</ele>
        <time>2021-04-24T13:16:22Z</time>
      </trkpt>
      <trkpt lat="43.62833" lon="3.82961">
        <ele>72</ele>
        <time>2021-04-24T13:16:23Z</time>
      </trkpt>
      <trkpt lat="43.62832" lon="3.82966">
        <ele>72</ele>
        <time>2021-04-24T13:16:25Z</time>
      </trkpt>
      <trkpt lat="43.62833" lon="3.82969">
        <ele>72</ele>
        <time>2021-04-24T13:16:27Z</time>
      </trkpt>
      <trkpt lat="43.62833" lon="3.82973">
        <ele>72</ele>
        <time>2021-04-24T13:16:29Z</time>
      </trkpt>
      <trkpt lat="43.62834" lon="3.82977">
        <ele>72</ele>
        <time>2021-04-24T13:16:31Z</time>
      </trkpt>
      <trkpt lat="43.62835" lon="3.82981">
        <ele>73</ele>
        <time>2021-04-24T13:16:33Z</time>
      </trkpt>
      <trkpt lat="43.62837" lon="3.82985">
        <ele>73</ele>
        <time>2021-04-24T13:16:35Z</time>
      </trkpt>
      <trkpt lat="43.62837" lon="3.82989">
        <ele>73</ele>
        <time>2021-04-24T13:16:37Z</time>
      </trkpt>
      <trkpt lat="43.62837" lon="3.82993">
        <ele>73</ele>
        <time>2021-04-24T13:16:39Z</time>
      </trkpt>
      <trkpt lat="43.62836" lon="3.82997">
        <ele>73</ele>
        <time>2021-04-24T13:16:41Z</time>
      </trkpt>
      <trkpt lat="43.62836" lon="3.83001">
        <ele>75</ele>
        <time>2021-04-24T13:16:43Z</time>
      </trkpt>
      <trkpt lat="43.62835" lon="3.83005">
        <ele>75</ele>
        <time>2021-04-24T13:16:45Z</time>
      </trkpt>
      <trkpt lat="43.62835" lon="3.83009">
        <ele>75</ele>
        <time>2021-04-24T13:16:47Z</time>
      </trkpt>
      <trkpt lat="43.62836" lon="3.83014">
        <ele>75</ele>
        <time>2021-04-24T13:16:49Z</time>
      </trkpt>
      <trkpt lat="43.62837" lon="3.83018">
        <ele>75</ele>
        <time>2021-04-24T13:16:51Z</time>
      </trkpt>
      <trkpt lat="43.62837" lon="3.83022">
        <ele>76</ele>
        <time>2021-04-24T13:16:53Z</time>
      </trkpt>
      <trkpt lat="43.62837" lon="3.83026">
        <ele>76</ele>
        <time>2021-04-24T13:16:55Z</time>
      </trkpt>
      <trkpt lat="43.62837" lon="3.83029">
        <ele>76</ele>
        <time>2021-04-24T13:16:57Z</time>
      </trkpt>
      <trkpt lat="43.62838" lon="3.83033">
        <ele>76</ele>
        <time>2021-04-24T13:16:59Z</time>
      </trkpt>
      <trkpt lat="43.62838" lon="3.83037">
        <ele>76</ele>
        <time>2021-04-24T13:17:01Z</time>
      </trkpt>
      <trkpt lat="43.62839" lon="3.83041">
        <ele>78</ele>
        <time>2021-04-24T13:17:03Z</time>
      </trkpt>
      <trkpt lat="43.6284" lon="3.83044">
        <ele>78</ele>
        <time>2021-04-24T13:17:05Z</time>
      </trkpt>
      <trkpt lat="43.62842" lon="3.83048">
        <ele>78</ele>
        <time>2021-04-24T13:17:07Z</time>
      </trkpt>
      <trkpt lat="43.62843" lon="3.83051">
        <ele>78</ele>
        <time>2021-04-24T13:17:09Z</time>
      </trkpt>
      <trkpt lat="43.62844" lon="3.83055">
        <ele>78</ele>
        <time>2021-04-24T13:17:11Z</time>
      </trkpt>
      <trkpt lat="43.62845" lon="3.83058">
        <ele>80</ele>
        <time>2021-04-24T13:17:13Z</time>
      </trkpt>
      <trkpt lat="43.62846" lon="3.83062">
        <ele>80</ele>
        <time>2021-04-24T13:17:15Z</time>
      </trkpt>
      <trkpt lat="43.62847" lon="3.83067">
        <ele>80</ele>
        <time>2021-04-24T13:17:17Z</time>
      </trkpt>
      <trkpt lat="43.62847" lon="3.83069">
        <ele>80</ele>
        <time>2021-04-24T13:17:18Z</time>
      </trkpt>
      <trkpt lat="43.62845" lon="3.83073">
        <ele>80</ele>
        <time>2021-04-24T13:17:20Z</time>
      </trkpt>
      <trkpt lat="43.62844" lon="3.83077">
        <ele>80</ele>
        <time>2021-04-24T13:17:22Z</time>
      </trkpt>
      <trkpt lat="43.62842" lon="3.8308">
        <ele>80</ele>
        <time>2021-04-24T13:17:24Z</time>
      </trkpt>
      <trkpt lat="43.62841" lon="3.83083">
        <ele>80</ele>
        <time>2021-04-24T13:17:26Z</time>
      </trkpt>
      <trkpt lat="43.62839" lon="3.83086">
        <ele>80</ele>
        <time>2021-04-24T13:17:28Z</time>
      </trkpt>
      <trkpt lat="43.62837" lon="3.83088">
        <ele>80</ele>
        <time>2021-04-24T13:17:30Z</time>
      </trkpt>
      <trkpt lat="43.62834" lon="3.83088">
        <ele>80</ele>
        <time>2021-04-24T13:17:32Z</time>
      </trkpt>
      <trkpt lat="43.62831" lon="3.83088">
        <ele>80</ele>
        <time>2021-04-24T13:17:34Z</time>
      </trkpt>
      <trkpt lat="43.62828" lon="3.83088">
        <ele>80</ele>
        <time>2021-04-24T13:17:36Z</time>
      </trkpt>
      <trkpt lat="43.62825" lon="3.83088">
        <ele>80</ele>
        <time>2021-04-24T13:17:38Z</time>
      </trkpt>
      <trkpt lat="43.62821" lon="3.83089">
        <ele>80</ele>
        <time>2021-04-24T13:17:40Z</time>
      </trkpt>
      <trkpt lat="43.62819" lon="3.8309">
        <ele>80</ele>
        <time>2021-04-24T13:17:41Z</time>
      </trkpt>
      <trkpt lat="43.62818" lon="3.8309">
        <ele>80</ele>
        <time>2021-04-24T13:17:42Z</time>
      </trkpt>
      <trkpt lat="43.62814" lon="3.83091">
        <ele>80</ele>
        <time>2021-04-24T13:17:44Z</time>
      </trkpt>
      <trkpt lat="43.62811" lon="3.83092">
        <ele>80</ele>
        <time>2021-04-24T13:17:46Z</time>
      </trkpt>
      <trkpt lat="43.62809" lon="3.83093">
        <ele>80</ele>
        <time>2021-04-24T13:17:47Z</time>
      </trkpt>
      <trkpt lat="43.62807" lon="3.83093">
        <ele>80</ele>
        <time>2021-04-24T13:17:48Z</time>
      </trkpt>
      <trkpt lat="43.62805" lon="3.83094">
        <ele>80</ele>
        <time>2021-04-24T13:17:49Z</time>
      </trkpt>
      <trkpt lat="43.62803" lon="3.83095">
        <ele>80</ele>
        <time>2021-04-24T13:17:50Z</time>
      </trkpt>
      <trkpt lat="43.62801" lon="3.83095">
        <ele>80</ele>
        <time>2021-04-24T13:17:51Z</time>
      </trkpt>
      <trkpt lat="43.62799" lon="3.83096">
        <ele>80</ele>
        <time>2021-04-24T13:17:52Z</time>
      </trkpt>
      <trkpt lat="43.62797" lon="3.83097">
        <ele>85</ele>
        <time>2021-04-24T13:17:53Z</time>
      </trkpt>
      <trkpt lat="43.62795" lon="3.83098">
        <ele>85</ele>
        <time>2021-04-24T13:17:54Z</time>
      </trkpt>
      <trkpt lat="43.62793" lon="3.83098">
        <ele>85</ele>
        <time>2021-04-24T13:17:55Z</time>
      </trkpt>
      <trkpt lat="43.62791" lon="3.83099">
        <ele>85</ele>
        <time>2021-04-24T13:17:56Z</time>
      </trkpt>
      <trkpt lat="43.62789" lon="3.83099">
        <ele>85</ele>
        <time>2021-04-24T13:17:57Z</time>
      </trkpt>
      <trkpt lat="43.62787" lon="3.831">
        <ele>85</ele>
        <time>2021-04-24T13:17:58Z</time>
      </trkpt>
      <trkpt lat="43.62785" lon="3.831">
        <ele>85</ele>
        <time>2021-04-24T13:17:59Z</time>
      </trkpt>
      <trkpt lat="43.62782" lon="3.831">
        <ele>85</ele>
        <time>2021-04-24T13:18:00Z</time>
      </trkpt>
      <trkpt lat="43.62781" lon="3.831">
        <ele>85</ele>
        <time>2021-04-24T13:18:01Z</time>
      </trkpt>
      <trkpt lat="43.62779" lon="3.831">
        <ele>85</ele>
        <time>2021-04-24T13:18:02Z</time>
      </trkpt>
      <trkpt lat="43.62777" lon="3.831">
        <ele>85</ele>
        <time>2021-04-24T13:18:03Z</time>
      </trkpt>
      <trkpt lat="43.62775" lon="3.831">
        <ele>85</ele>
        <time>2021-04-24T13:18:04Z</time>
      </trkpt>
      <trkpt lat="43.62772" lon="3.831">
        <ele>85</ele>
        <time>2021-04-24T13:18:06Z</time>
      </trkpt>
      <trkpt lat="43.6277" lon="3.83101">
        <ele>85</ele>
        <time>2021-04-24T13:18:07Z</time>
      </trkpt>
      <trkpt lat="43.62768" lon="3.83101">
        <ele>85</ele>
        <time>2021-04-24T13:18:08Z</time>
      </trkpt>
      <trkpt lat="43.62766" lon="3.83102">
        <ele>85</ele>
        <time>2021-04-24T13:18:09Z</time>
      </trkpt>
      <trkpt lat="43.62764" lon="3.83102">
        <ele>85</ele>
        <time>2021-04-24T13:18:10Z</time>
      </trkpt>
      <trkpt lat="43.62762" lon="3.83103">
        <ele>85</ele>
        <time>2021-04-24T13:18:11Z</time>
      </trkpt>
      <trkpt lat="43.62759" lon="3.83103">
        <ele>85</ele>
        <time>2021-04-24T13:18:13Z</time>
      </trkpt>
      <trkpt lat="43.62755" lon="3.83105">
        <ele>85</ele>
        <time>2021-04-24T13:18:15Z</time>
      </trkpt>
      <trkpt lat="43.62753" lon="3.83105">
        <ele>85</ele>
        <time>2021-04-24T13:18:16Z</time>
      </trkpt>
      <trkpt lat="43.62751" lon="3.83106">
        <ele>85</ele>
        <time>2021-04-24T13:18:17Z</time>
      </trkpt>
      <trkpt lat="43.62749" lon="3.83107">
        <ele>85</ele>
        <time>2021-04-24T13:18:18Z</time>
      </trkpt>
      <trkpt lat="43.62746" lon="3.83108">
        <ele>85</ele>
        <time>2021-04-24T13:18:20Z</time>
      </trkpt>
      <trkpt lat="43.62744" lon="3.83109">
        <ele>85</ele>
        <time>2021-04-24T13:18:21Z</time>
      </trkpt>
      <trkpt lat="43.62742" lon="3.8311">
        <ele>85</ele>
        <time>2021-04-24T13:18:22Z</time>
      </trkpt>
      <trkpt lat="43.6274" lon="3.83111">
        <ele>85</ele>
        <time>2021-04-24T13:18:23Z</time>
      </trkpt>
      <trkpt lat="43.62738" lon="3.83111">
        <ele>85</ele>
        <time>2021-04-24T13:18:24Z</time>
      </trkpt>
      <trkpt lat="43.62736" lon="3.83112">
        <ele>85</ele>
        <time>2021-04-24T13:18:25Z</time>
      </trkpt>
      <trkpt lat="43.62734" lon="3.83113">
        <ele>85</ele>
        <time>2021-04-24T13:18:26Z</time>
      </trkpt>
      <trkpt lat="43.62732" lon="3.83115">
        <ele>85</ele>
        <time>2021-04-24T13:18:27Z</time>
      </trkpt>
      <trkpt lat="43.6273" lon="3.83116">
        <ele>85</ele>
        <time>2021-04-24T13:18:28Z</time>
      </trkpt>
      <trkpt lat="43.62727" lon="3.83118">
        <ele>85</ele>
        <time>2021-04-24T13:18:29Z</time>
      </trkpt>
      <trkpt lat="43.62725" lon="3.83119">
        <ele>85</ele>
        <time>2021-04-24T13:18:30Z</time>
      </trkpt>
      <trkpt lat="43.62722" lon="3.83121">
        <ele>85</ele>
        <time>2021-04-24T13:18:31Z</time>
      </trkpt>
      <trkpt lat="43.62719" lon="3.83123">
        <ele>85</ele>
        <time>2021-04-24T13:18:32Z</time>
      </trkpt>
      <trkpt lat="43.62716" lon="3.83125">
        <ele>86</ele>
        <time>2021-04-24T13:18:33Z</time>
      </trkpt>
      <trkpt lat="43.62713" lon="3.83127">
        <ele>86</ele>
        <time>2021-04-24T13:18:34Z</time>
      </trkpt>
      <trkpt lat="43.6271" lon="3.8313">
        <ele>86</ele>
        <time>2021-04-24T13:18:35Z</time>
      </trkpt>
      <trkpt lat="43.62706" lon="3.83132">
        <ele>86</ele>
        <time>2021-04-24T13:18:36Z</time>
      </trkpt>
      <trkpt lat="43.62703" lon="3.83135">
        <ele>86</ele>
        <time>2021-04-24T13:18:37Z</time>
      </trkpt>
      <trkpt lat="43.62699" lon="3.83138">
        <ele>86</ele>
        <time>2021-04-24T13:18:38Z</time>
      </trkpt>
      <trkpt lat="43.62696" lon="3.8314">
        <ele>86</ele>
        <time>2021-04-24T13:18:39Z</time>
      </trkpt>
      <trkpt lat="43.62692" lon="3.83142">
        <ele>86</ele>
        <time>2021-04-24T13:18:40Z</time>
      </trkpt>
      <trkpt lat="43.62688" lon="3.83144">
        <ele>86</ele>
        <time>2021-04-24T13:18:41Z</time>
      </trkpt>
      <trkpt lat="43.62684" lon="3.83147">
        <ele>86</ele>
        <time>2021-04-24T13:18:42Z</time>
      </trkpt>
      <trkpt lat="43.6268" lon="3.83151">
        <ele>85</ele>
        <time>2021-04-24T13:18:43Z</time>
      </trkpt>
      <trkpt lat="43.62676" lon="3.83155">
        <ele>85</ele>
        <time>2021-04-24T13:18:44Z</time>
      </trkpt>
      <trkpt lat="43.62672" lon="3.83159">
        <ele>85</ele>
        <time>2021-04-24T13:18:45Z</time>
      </trkpt>
      <trkpt lat="43.62668" lon="3.83164">
        <ele>85</ele>
        <time>2021-04-24T13:18:46Z</time>
      </trkpt>
      <trkpt lat="43.62664" lon="3.83168">
        <ele>85</ele>
        <time>2021-04-24T13:18:47Z</time>
      </trkpt>
      <trkpt lat="43.62659" lon="3.83172">
        <ele>85</ele>
        <time>2021-04-24T13:18:48Z</time>
      </trkpt>
      <trkpt lat="43.62655" lon="3.83175">
        <ele>85</ele>
        <time>2021-04-24T13:18:49Z</time>
      </trkpt>
      <trkpt lat="43.6265" lon="3.83178">
        <ele>85</ele>
        <time>2021-04-24T13:18:50Z</time>
      </trkpt>
      <trkpt lat="43.62645" lon="3.83181">
        <ele>85</ele>
        <time>2021-04-24T13:18:51Z</time>
      </trkpt>
      <trkpt lat="43.62641" lon="3.83184">
        <ele>85</ele>
        <time>2021-04-24T13:18:52Z</time>
      </trkpt>
      <trkpt lat="43.62636" lon="3.83188">
        <ele>83</ele>
        <time>2021-04-24T13:18:53Z</time>
      </trkpt>
      <trkpt lat="43.62631" lon="3.83192">
        <ele>83</ele>
        <time>2021-04-24T13:18:54Z</time>
      </trkpt>
      <trkpt lat="43.62626" lon="3.83195">
        <ele>83</ele>
        <time>2021-04-24T13:18:55Z</time>
      </trkpt>
      <trkpt lat="43.62622" lon="3.83198">
        <ele>83</ele>
        <time>2021-04-24T13:18:56Z</time>
      </trkpt>
      <trkpt lat="43.62617" lon="3.83202">
        <ele>83</ele>
        <time>2021-04-24T13:18:57Z</time>
      </trkpt>
      <trkpt lat="43.62612" lon="3.83205">
        <ele>83</ele>
        <time>2021-04-24T13:18:58Z</time>
      </trkpt>
      <trkpt lat="43.62607" lon="3.83208">
        <ele>83</ele>
        <time>2021-04-24T13:18:59Z</time>
      </trkpt>
      <trkpt lat="43.62602" lon="3.83211">
        <ele>83</ele>
        <time>2021-04-24T13:19:00Z</time>
      </trkpt>
      <trkpt lat="43.62596" lon="3.83212">
        <ele>83</ele>
        <time>2021-04-24T13:19:01Z</time>
      </trkpt>
      <trkpt lat="43.62591" lon="3.83214">
        <ele>83</ele>
        <time>2021-04-24T13:19:02Z</time>
      </trkpt>
      <trkpt lat="43.62586" lon="3.83217">
        <ele>82</ele>
        <time>2021-04-24T13:19:03Z</time>
      </trkpt>
      <trkpt lat="43.62582" lon="3.8322">
        <ele>82</ele>
        <time>2021-04-24T13:19:04Z</time>
      </trkpt>
      <trkpt lat="43.62578" lon="3.83223">
        <ele>82</ele>
        <time>2021-04-24T13:19:05Z</time>
      </trkpt>
      <trkpt lat="43.62577" lon="3.83229">
        <ele>82</ele>
        <time>2021-04-24T13:19:06Z</time>
      </trkpt>
      <trkpt lat="43.62577" lon="3.83235">
        <ele>82</ele>
        <time>2021-04-24T13:19:07Z</time>
      </trkpt>
      <trkpt lat="43.62579" lon="3.8324">
        <ele>82</ele>
        <time>2021-04-24T13:19:08Z</time>
      </trkpt>
      <trkpt lat="43.62581" lon="3.83245">
        <ele>82</ele>
        <time>2021-04-24T13:19:09Z</time>
      </trkpt>
      <trkpt lat="43.62581" lon="3.8325">
        <ele>82</ele>
        <time>2021-04-24T13:19:10Z</time>
      </trkpt>
      <trkpt lat="43.6258" lon="3.83254">
        <ele>82</ele>
        <time>2021-04-24T13:19:11Z</time>
      </trkpt>
      <trkpt lat="43.62578" lon="3.83259">
        <ele>82</ele>
        <time>2021-04-24T13:19:12Z</time>
      </trkpt>
      <trkpt lat="43.62576" lon="3.83262">
        <ele>81</ele>
        <time>2021-04-24T13:19:13Z</time>
      </trkpt>
      <trkpt lat="43.62574" lon="3.83265">
        <ele>81</ele>
        <time>2021-04-24T13:19:14Z</time>
      </trkpt>
      <trkpt lat="43.62571" lon="3.83267">
        <ele>81</ele>
        <time>2021-04-24T13:19:15Z</time>
      </trkpt>
      <trkpt lat="43.62568" lon="3.83268">
        <ele>81</ele>
        <time>2021-04-24T13:19:16Z</time>
      </trkpt>
      <trkpt lat="43.62565" lon="3.83269">
        <ele>81</ele>
        <time>2021-04-24T13:19:17Z</time>
      </trkpt>
      <trkpt lat="43.62562" lon="3.8327">
        <ele>81</ele>
        <time>2021-04-24T13:19:18Z</time>
      </trkpt>
      <trkpt lat="43.62559" lon="3.83272">
        <ele>81</ele>
        <time>2021-04-24T13:19:19Z</time>
      </trkpt>
      <trkpt lat="43.62557" lon="3.83274">
        <ele>81</ele>
        <time>2021-04-24T13:19:20Z</time>
      </trkpt>
      <trkpt lat="43.62555" lon="3.83276">
        <ele>81</ele>
        <time>2021-04-24T13:19:21Z</time>
      </trkpt>
      <trkpt lat="43.62553" lon="3.83279">
        <ele>81</ele>
        <time>2021-04-24T13:19:22Z</time>
      </trkpt>
      <trkpt lat="43.62551" lon="3.83283">
        <ele>80</ele>
        <time>2021-04-24T13:19:23Z</time>
      </trkpt>
      <trkpt lat="43.62549" lon="3.83287">
        <ele>80</ele>
        <time>2021-04-24T13:19:24Z</time>
      </trkpt>
      <trkpt lat="43.62548" lon="3.83292">
        <ele>80</ele>
        <time>2021-04-24T13:19:25Z</time>
      </trkpt>
      <trkpt lat="43.62547" lon="3.83298">
        <ele>80</ele>
        <time>2021-04-24T13:19:26Z</time>
      </trkpt>
      <trkpt lat="43.62546" lon="3.83303">
        <ele>80</ele>
        <time>2021-04-24T13:19:27Z</time>
      </trkpt>
      <trkpt lat="43.62545" lon="3.83309">
        <ele>80</ele>
        <time>2021-04-24T13:19:28Z</time>
      </trkpt>
      <trkpt lat="43.62543" lon="3.83315">
        <ele>80</ele>
        <time>2021-04-24T13:19:29Z</time>
      </trkpt>
      <trkpt lat="43.62542" lon="3.83321">
        <ele>80</ele>
        <time>2021-04-24T13:19:30Z</time>
      </trkpt>
      <trkpt lat="43.6254" lon="3.83327">
        <ele>80</ele>
        <time>2021-04-24T13:19:31Z</time>
      </trkpt>
      <trkpt lat="43.62538" lon="3.83333">
        <ele>80</ele>
        <time>2021-04-24T13:19:32Z</time>
      </trkpt>
      <trkpt lat="43.62536" lon="3.8334">
        <ele>79</ele>
        <time>2021-04-24T13:19:33Z</time>
      </trkpt>
      <trkpt lat="43.62535" lon="3.83346">
        <ele>79</ele>
        <time>2021-04-24T13:19:34Z</time>
      </trkpt>
      <trkpt lat="43.62533" lon="3.83353">
        <ele>79</ele>
        <time>2021-04-24T13:19:35Z</time>
      </trkpt>
      <trkpt lat="43.62532" lon="3.83359">
        <ele>79</ele>
        <time>2021-04-24T13:19:36Z</time>
      </trkpt>
      <trkpt lat="43.6253" lon="3.83365">
        <ele>79</ele>
        <time>2021-04-24T13:19:37Z</time>
      </trkpt>
      <trkpt lat="43.62527" lon="3.8337">
        <ele>79</ele>
        <time>2021-04-24T13:19:38Z</time>
      </trkpt>
      <trkpt lat="43.62525" lon="3.83376">
        <ele>79</ele>
        <time>2021-04-24T13:19:39Z</time>
      </trkpt>
      <trkpt lat="43.62523" lon="3.83381">
        <ele>79</ele>
        <time>2021-04-24T13:19:40Z</time>
      </trkpt>
      <trkpt lat="43.62521" lon="3.83387">
        <ele>79</ele>
        <time>2021-04-24T13:19:41Z</time>
      </trkpt>
      <trkpt lat="43.6252" lon="3.83393">
        <ele>79</ele>
        <time>2021-04-24T13:19:42Z</time>
      </trkpt>
      <trkpt lat="43.62518" lon="3.83399">
        <ele>79</ele>
        <time>2021-04-24T13:19:43Z</time>
      </trkpt>
      <trkpt lat="43.62517" lon="3.83405">
        <ele>79</ele>
        <time>2021-04-24T13:19:44Z</time>
      </trkpt>
      <trkpt lat="43.62516" lon="3.83412">
        <ele>79</ele>
        <time>2021-04-24T13:19:45Z</time>
      </trkpt>
      <trkpt lat="43.62515" lon="3.83418">
        <ele>79</ele>
        <time>2021-04-24T13:19:46Z</time>
      </trkpt>
      <trkpt lat="43.62515" lon="3.83425">
        <ele>79</ele>
        <time>2021-04-24T13:19:47Z</time>
      </trkpt>
      <trkpt lat="43.62513" lon="3.8343">
        <ele>79</ele>
        <time>2021-04-24T13:19:48Z</time>
      </trkpt>
      <trkpt lat="43.62512" lon="3.83436">
        <ele>79</ele>
        <time>2021-04-24T13:19:49Z</time>
      </trkpt>
      <trkpt lat="43.6251" lon="3.83441">
        <ele>79</ele>
        <time>2021-04-24T13:19:50Z</time>
      </trkpt>
      <trkpt lat="43.62509" lon="3.83447">
        <ele>79</ele>
        <time>2021-04-24T13:19:51Z</time>
      </trkpt>
      <trkpt lat="43.62507" lon="3.83452">
        <ele>79</ele>
        <time>2021-04-24T13:19:52Z</time>
      </trkpt>
      <trkpt lat="43.62506" lon="3.83458">
        <ele>78</ele>
        <time>2021-04-24T13:19:53Z</time>
      </trkpt>
      <trkpt lat="43.62505" lon="3.83464">
        <ele>78</ele>
        <time>2021-04-24T13:19:54Z</time>
      </trkpt>
      <trkpt lat="43.62505" lon="3.83469">
        <ele>78</ele>
        <time>2021-04-24T13:19:55Z</time>
      </trkpt>
      <trkpt lat="43.62506" lon="3.83474">
        <ele>78</ele>
        <time>2021-04-24T13:19:56Z</time>
      </trkpt>
      <trkpt lat="43.62508" lon="3.83477">
        <ele>78</ele>
        <time>2021-04-24T13:19:57Z</time>
      </trkpt>
      <trkpt lat="43.62509" lon="3.83482">
        <ele>78</ele>
        <time>2021-04-24T13:19:58Z</time>
      </trkpt>
      <trkpt lat="43.6251" lon="3.83485">
        <ele>78</ele>
        <time>2021-04-24T13:19:59Z</time>
      </trkpt>
      <trkpt lat="43.62512" lon="3.83489">
        <ele>78</ele>
        <time>2021-04-24T13:20:00Z</time>
      </trkpt>
      <trkpt lat="43.62513" lon="3.83492">
        <ele>78</ele>
        <time>2021-04-24T13:20:01Z</time>
      </trkpt>
      <trkpt lat="43.62516" lon="3.83496">
        <ele>78</ele>
        <time>2021-04-24T13:20:02Z</time>
      </trkpt>
      <trkpt lat="43.62518" lon="3.83501">
        <ele>78</ele>
        <time>2021-04-24T13:20:03Z</time>
      </trkpt>
      <trkpt lat="43.6252" lon="3.83506">
        <ele>78</ele>
        <time>2021-04-24T13:20:04Z</time>
      </trkpt>
      <trkpt lat="43.62522" lon="3.83512">
        <ele>78</ele>
        <time>2021-04-24T13:20:05Z</time>
      </trkpt>
      <trkpt lat="43.62525" lon="3.83518">
        <ele>78</ele>
        <time>2021-04-24T13:20:06Z</time>
      </trkpt>
      <trkpt lat="43.62527" lon="3.83524">
        <ele>78</ele>
        <time>2021-04-24T13:20:07Z</time>
      </trkpt>
      <trkpt lat="43.6253" lon="3.8353">
        <ele>78</ele>
        <time>2021-04-24T13:20:08Z</time>
      </trkpt>
      <trkpt lat="43.62532" lon="3.83536">
        <ele>78</ele>
        <time>2021-04-24T13:20:09Z</time>
      </trkpt>
      <trkpt lat="43.62533" lon="3.83543">
        <ele>78</ele>
        <time>2021-04-24T13:20:10Z</time>
      </trkpt>
      <trkpt lat="43.62535" lon="3.83549">
        <ele>78</ele>
        <time>2021-04-24T13:20:11Z</time>
      </trkpt>
      <trkpt lat="43.62537" lon="3.83554">
        <ele>78</ele>
        <time>2021-04-24T13:20:12Z</time>
      </trkpt>
      <trkpt lat="43.62539" lon="3.83558">
        <ele>76</ele>
        <time>2021-04-24T13:20:13Z</time>
      </trkpt>
      <trkpt lat="43.62542" lon="3.83561">
        <ele>76</ele>
        <time>2021-04-24T13:20:14Z</time>
      </trkpt>
      <trkpt lat="43.62545" lon="3.83564">
        <ele>76</ele>
        <time>2021-04-24T13:20:15Z</time>
      </trkpt>
      <trkpt lat="43.62548" lon="3.83566">
        <ele>76</ele>
        <time>2021-04-24T13:20:16Z</time>
      </trkpt>
      <trkpt lat="43.62552" lon="3.83568">
        <ele>76</ele>
        <time>2021-04-24T13:20:17Z</time>
      </trkpt>
      <trkpt lat="43.62555" lon="3.83571">
        <ele>76</ele>
        <time>2021-04-24T13:20:18Z</time>
      </trkpt>
      <trkpt lat="43.62558" lon="3.83573">
        <ele>76</ele>
        <time>2021-04-24T13:20:19Z</time>
      </trkpt>
      <trkpt lat="43.62561" lon="3.83576">
        <ele>76</ele>
        <time>2021-04-24T13:20:20Z</time>
      </trkpt>
      <trkpt lat="43.62564" lon="3.83579">
        <ele>76</ele>
        <time>2021-04-24T13:20:21Z</time>
      </trkpt>
      <trkpt lat="43.62566" lon="3.83583">
        <ele>76</ele>
        <time>2021-04-24T13:20:22Z</time>
      </trkpt>
      <trkpt lat="43.62569" lon="3.83586">
        <ele>76</ele>
        <time>2021-04-24T13:20:23Z</time>
      </trkpt>
      <trkpt lat="43.62571" lon="3.83589">
        <ele>76</ele>
        <time>2021-04-24T13:20:24Z</time>
      </trkpt>
      <trkpt lat="43.62573" lon="3.83592">
        <ele>76</ele>
        <time>2021-04-24T13:20:25Z</time>
      </trkpt>
      <trkpt lat="43.62576" lon="3.83595">
        <ele>76</ele>
        <time>2021-04-24T13:20:26Z</time>
      </trkpt>
      <trkpt lat="43.62577" lon="3.83598">
        <ele>76</ele>
        <time>2021-04-24T13:20:27Z</time>
      </trkpt>
      <trkpt lat="43.62578" lon="3.83602">
        <ele>76</ele>
        <time>2021-04-24T13:20:28Z</time>
      </trkpt>
      <trkpt lat="43.62578" lon="3.83605">
        <ele>76</ele>
        <time>2021-04-24T13:20:29Z</time>
      </trkpt>
      <trkpt lat="43.62577" lon="3.83609">
        <ele>76</ele>
        <time>2021-04-24T13:20:30Z</time>
      </trkpt>
      <trkpt lat="43.62575" lon="3.83612">
        <ele>76</ele>
        <time>2021-04-24T13:20:31Z</time>
      </trkpt>
      <trkpt lat="43.62571" lon="3.83615">
        <ele>76</ele>
        <time>2021-04-24T13:20:32Z</time>
      </trkpt>
      <trkpt lat="43.62568" lon="3.83616">
        <ele>76</ele>
        <time>2021-04-24T13:20:33Z</time>
      </trkpt>
      <trkpt lat="43.62565" lon="3.83618">
        <ele>76</ele>
        <time>2021-04-24T13:20:34Z</time>
      </trkpt>
      <trkpt lat="43.62562" lon="3.83619">
        <ele>76</ele>
        <time>2021-04-24T13:20:35Z</time>
      </trkpt>
      <trkpt lat="43.62559" lon="3.8362">
        <ele>76</ele>
        <time>2021-04-24T13:20:36Z</time>
      </trkpt>
      <trkpt lat="43.62556" lon="3.83621">
        <ele>76</ele>
        <time>2021-04-24T13:20:37Z</time>
      </trkpt>
      <trkpt lat="43.62553" lon="3.83622">
        <ele>76</ele>
        <time>2021-04-24T13:20:38Z</time>
      </trkpt>
      <trkpt lat="43.6255" lon="3.83622">
        <ele>76</ele>
        <time>2021-04-24T13:20:39Z</time>
      </trkpt>
      <trkpt lat="43.62547" lon="3.83623">
        <ele>76</ele>
        <time>2021-04-24T13:20:40Z</time>
      </trkpt>
      <trkpt lat="43.62544" lon="3.83622">
        <ele>76</ele>
        <time>2021-04-24T13:20:41Z</time>
      </trkpt>
      <trkpt lat="43.62541" lon="3.83619">
        <ele>76</ele>
        <time>2021-04-24T13:20:42Z</time>
      </trkpt>
      <trkpt lat="43.62538" lon="3.83616">
        <ele>76</ele>
        <time>2021-04-24T13:20:43Z</time>
      </trkpt>
      <trkpt lat="43.62535" lon="3.83614">
        <ele>76</ele>
        <time>2021-04-24T13:20:44Z</time>
      </trkpt>
      <trkpt lat="43.62531" lon="3.83611">
        <ele>76</ele>
        <time>2021-04-24T13:20:45Z</time>
      </trkpt>
      <trkpt lat="43.62528" lon="3.83609">
        <ele>76</ele>
        <time>2021-04-24T13:20:46Z</time>
      </trkpt>
      <trkpt lat="43.62524" lon="3.83607">
        <ele>76</ele>
        <time>2021-04-24T13:20:47Z</time>
      </trkpt>
      <trkpt lat="43.6252" lon="3.83606">
        <ele>76</ele>
        <time>2021-04-24T13:20:48Z</time>
      </trkpt>
      <trkpt lat="43.62517" lon="3.83605">
        <ele>76</ele>
        <time>2021-04-24T13:20:49Z</time>
      </trkpt>
      <trkpt lat="43.62514" lon="3.83605">
        <ele>76</ele>
        <time>2021-04-24T13:20:50Z</time>
      </trkpt>
      <trkpt lat="43.6251" lon="3.83606">
        <ele>76</ele>
        <time>2021-04-24T13:20:51Z</time>
      </trkpt>
      <trkpt lat="43.62507" lon="3.83608">
        <ele>76</ele>
        <time>2021-04-24T13:20:52Z</time>
      </trkpt>
      <trkpt lat="43.62505" lon="3.8361">
        <ele>76</ele>
        <time>2021-04-24T13:20:53Z</time>
      </trkpt>
      <trkpt lat="43.62502" lon="3.83611">
        <ele>76</ele>
        <time>2021-04-24T13:20:54Z</time>
      </trkpt>
      <trkpt lat="43.62501" lon="3.83614">
        <ele>76</ele>
        <time>2021-04-24T13:20:55Z</time>
      </trkpt>
      <trkpt lat="43.62499" lon="3.83616">
        <ele>76</ele>
        <time>2021-04-24T13:20:56Z</time>
      </trkpt>
      <trkpt lat="43.62498" lon="3.83619">
        <ele>76</ele>
        <time>2021-04-24T13:20:57Z</time>
      </trkpt>
      <trkpt lat="43.62497" lon="3.83621">
        <ele>76</ele>
        <time>2021-04-24T13:20:58Z</time>
      </trkpt>
      <trkpt lat="43.62496" lon="3.83624">
        <ele>76</ele>
        <time>2021-04-24T13:20:59Z</time>
      </trkpt>
      <trkpt lat="43.62495" lon="3.83626">
        <ele>76</ele>
        <time>2021-04-24T13:21:00Z</time>
      </trkpt>
      <trkpt lat="43.62494" lon="3.83629">
        <ele>76</ele>
        <time>2021-04-24T13:21:01Z</time>
      </trkpt>
      <trkpt lat="43.62493" lon="3.83633">
        <ele>76</ele>
        <time>2021-04-24T13:21:03Z</time>
      </trkpt>
      <trkpt lat="43.62493" lon="3.83636">
        <ele>76</ele>
        <time>2021-04-24T13:21:04Z</time>
      </trkpt>
      <trkpt lat="43.62493" lon="3.8364">
        <ele>76</ele>
        <time>2021-04-24T13:21:05Z</time>
      </trkpt>
      <trkpt lat="43.62493" lon="3.83644">
        <ele>76</ele>
        <time>2021-04-24T13:21:06Z</time>
      </trkpt>
      <trkpt lat="43.62491" lon="3.83648">
        <ele>76</ele>
        <time>2021-04-24T13:21:07Z</time>
      </trkpt>
      <trkpt lat="43.62489" lon="3.8365">
        <ele>76</ele>
        <time>2021-04-24T13:21:08Z</time>
      </trkpt>
      <trkpt lat="43.62487" lon="3.83651">
        <ele>76</ele>
        <time>2021-04-24T13:21:09Z</time>
      </trkpt>
      <trkpt lat="43.62484" lon="3.83653">
        <ele>76</ele>
        <time>2021-04-24T13:21:10Z</time>
      </trkpt>
      <trkpt lat="43.62482" lon="3.83654">
        <ele>76</ele>
        <time>2021-04-24T13:21:11Z</time>
      </trkpt>
      <trkpt lat="43.62479" lon="3.83655">
        <ele>76</ele>
        <time>2021-04-24T13:21:12Z</time>
      </trkpt>
      <trkpt lat="43.62476" lon="3.83656">
        <ele>76</ele>
        <time>2021-04-24T13:21:13Z</time>
      </trkpt>
      <trkpt lat="43.62472" lon="3.83657">
        <ele>76</ele>
        <time>2021-04-24T13:21:14Z</time>
      </trkpt>
      <trkpt lat="43.62469" lon="3.83658">
        <ele>76</ele>
        <time>2021-04-24T13:21:15Z</time>
      </trkpt>
      <trkpt lat="43.62466" lon="3.8366">
        <ele>76</ele>
        <time>2021-04-24T13:21:16Z</time>
      </trkpt>
      <trkpt lat="43.62463" lon="3.83662">
        <ele>76</ele>
        <time>2021-04-24T13:21:17Z</time>
      </trkpt>
      <trkpt lat="43.6246" lon="3.83665">
        <ele>76</ele>
        <time>2021-04-24T13:21:18Z</time>
      </trkpt>
      <trkpt lat="43.62456" lon="3.83668">
        <ele>76</ele>
        <time>2021-04-24T13:21:19Z</time>
      </trkpt>
      <trkpt lat="43.62453" lon="3.83669">
        <ele>76</ele>
        <time>2021-04-24T13:21:20Z</time>
      </trkpt>
      <trkpt lat="43.62449" lon="3.8367">
        <ele>76</ele>
        <time>2021-04-24T13:21:21Z</time>
      </trkpt>
      <trkpt lat="43.62445" lon="3.83672">
        <ele>76</ele>
        <time>2021-04-24T13:21:22Z</time>
      </trkpt>
      <trkpt lat="43.62441" lon="3.83674">
        <ele>76</ele>
        <time>2021-04-24T13:21:23Z</time>
      </trkpt>
      <trkpt lat="43.62437" lon="3.83674">
        <ele>76</ele>
        <time>2021-04-24T13:21:24Z</time>
      </trkpt>
      <trkpt lat="43.62433" lon="3.83675">
        <ele>76</ele>
        <time>2021-04-24T13:21:25Z</time>
      </trkpt>
      <trkpt lat="43.62429" lon="3.83676">
        <ele>76</ele>
        <time>2021-04-24T13:21:26Z</time>
      </trkpt>
      <trkpt lat="43.62426" lon="3.83677">
        <ele>76</ele>
        <time>2021-04-24T13:21:27Z</time>
      </trkpt>
      <trkpt lat="43.62423" lon="3.8368">
        <ele>76</ele>
        <time>2021-04-24T13:21:28Z</time>
      </trkpt>
      <trkpt lat="43.62422" lon="3.83684">
        <ele>76</ele>
        <time>2021-04-24T13:21:29Z</time>
      </trkpt>
      <trkpt lat="43.62421" lon="3.83688">
        <ele>76</ele>
        <time>2021-04-24T13:21:31Z</time>
      </trkpt>
      <trkpt lat="43.62421" lon="3.83692">
        <ele>76</ele>
        <time>2021-04-24T13:21:32Z</time>
      </trkpt>
      <trkpt lat="43.62422" lon="3.83696">
        <ele>76</ele>
        <time>2021-04-24T13:21:33Z</time>
      </trkpt>
      <trkpt lat="43.62425" lon="3.83701">
        <ele>76</ele>
        <time>2021-04-24T13:21:34Z</time>
      </trkpt>
      <trkpt lat="43.62427" lon="3.83706">
        <ele>76</ele>
        <time>2021-04-24T13:21:35Z</time>
      </trkpt>
      <trkpt lat="43.62428" lon="3.83712">
        <ele>76</ele>
        <time>2021-04-24T13:21:36Z</time>
      </trkpt>
      <trkpt lat="43.6243" lon="3.83718">
        <ele>76</ele>
        <time>2021-04-24T13:21:37Z</time>
      </trkpt>
      <trkpt lat="43.62432" lon="3.83725">
        <ele>76</ele>
        <time>2021-04-24T13:21:38Z</time>
      </trkpt>
      <trkpt lat="43.62434" lon="3.83732">
        <ele>76</ele>
        <time>2021-04-24T13:21:39Z</time>
      </trkpt>
      <trkpt lat="43.62436" lon="3.83739">
        <ele>76</ele>
        <time>2021-04-24T13:21:40Z</time>
      </trkpt>
      <trkpt lat="43.62438" lon="3.83745">
        <ele>76</ele>
        <time>2021-04-24T13:21:41Z</time>
      </trkpt>
      <trkpt lat="43.62439" lon="3.83752">
        <ele>76</ele>
        <time>2021-04-24T13:21:42Z</time>
      </trkpt>
      <trkpt lat="43.6244" lon="3.83758">
        <ele>75</ele>
        <time>2021-04-24T13:21:43Z</time>
      </trkpt>
      <trkpt lat="43.62441" lon="3.83763">
        <ele>75</ele>
        <time>2021-04-24T13:21:44Z</time>
      </trkpt>
      <trkpt lat="43.62442" lon="3.83768">
        <ele>75</ele>
        <time>2021-04-24T13:21:45Z</time>
      </trkpt>
      <trkpt lat="43.62443" lon="3.83772">
        <ele>75</ele>
        <time>2021-04-24T13:21:46Z</time>
      </trkpt>
      <trkpt lat="43.62444" lon="3.83776">
        <ele>75</ele>
        <time>2021-04-24T13:21:47Z</time>
      </trkpt>
      <trkpt lat="43.62446" lon="3.8378">
        <ele>75</ele>
        <time>2021-04-24T13:21:48Z</time>
      </trkpt>
      <trkpt lat="43.62448" lon="3.83784">
        <ele>75</ele>
        <time>2021-04-24T13:21:49Z</time>
      </trkpt>
      <trkpt lat="43.62451" lon="3.83787">
        <ele>75</ele>
        <time>2021-04-24T13:21:50Z</time>
      </trkpt>
      <trkpt lat="43.62453" lon="3.83791">
        <ele>75</ele>
        <time>2021-04-24T13:21:51Z</time>
      </trkpt>
      <trkpt lat="43.62457" lon="3.83794">
        <ele>75</ele>
        <time>2021-04-24T13:21:52Z</time>
      </trkpt>
      <trkpt lat="43.6246" lon="3.83797">
        <ele>75</ele>
        <time>2021-04-24T13:21:53Z</time>
      </trkpt>
      <trkpt lat="43.62463" lon="3.838">
        <ele>75</ele>
        <time>2021-04-24T13:21:54Z</time>
      </trkpt>
      <trkpt lat="43.62467" lon="3.83803">
        <ele>75</ele>
        <time>2021-04-24T13:21:55Z</time>
      </trkpt>
      <trkpt lat="43.6247" lon="3.83806">
        <ele>75</ele>
        <time>2021-04-24T13:21:56Z</time>
      </trkpt>
      <trkpt lat="43.62474" lon="3.83808">
        <ele>75</ele>
        <time>2021-04-24T13:21:57Z</time>
      </trkpt>
      <trkpt lat="43.62478" lon="3.83811">
        <ele>75</ele>
        <time>2021-04-24T13:21:58Z</time>
      </trkpt>
      <trkpt lat="43.62481" lon="3.83814">
        <ele>75</ele>
        <time>2021-04-24T13:21:59Z</time>
      </trkpt>
      <trkpt lat="43.62485" lon="3.83817">
        <ele>75</ele>
        <time>2021-04-24T13:22:00Z</time>
      </trkpt>
      <trkpt lat="43.62489" lon="3.83819">
        <ele>75</ele>
        <time>2021-04-24T13:22:01Z</time>
      </trkpt>
      <trkpt lat="43.62493" lon="3.83822">
        <ele>75</ele>
        <time>2021-04-24T13:22:02Z</time>
      </trkpt>
      <trkpt lat="43.62497" lon="3.83825">
        <ele>74</ele>
        <time>2021-04-24T13:22:03Z</time>
      </trkpt>
      <trkpt lat="43.62501" lon="3.83828">
        <ele>74</ele>
        <time>2021-04-24T13:22:04Z</time>
      </trkpt>
      <trkpt lat="43.62505" lon="3.83831">
        <ele>74</ele>
        <time>2021-04-24T13:22:05Z</time>
      </trkpt>
      <trkpt lat="43.62509" lon="3.83835">
        <ele>74</ele>
        <time>2021-04-24T13:22:06Z</time>
      </trkpt>
      <trkpt lat="43.62513" lon="3.83838">
        <ele>74</ele>
        <time>2021-04-24T13:22:07Z</time>
      </trkpt>
      <trkpt lat="43.62517" lon="3.83842">
        <ele>74</ele>
        <time>2021-04-24T13:22:08Z</time>
      </trkpt>
      <trkpt lat="43.6252" lon="3.83847">
        <ele>74</ele>
        <time>2021-04-24T13:22:09Z</time>
      </trkpt>
      <trkpt lat="43.62523" lon="3.83853">
        <ele>74</ele>
        <time>2021-04-24T13:22:10Z</time>
      </trkpt>
      <trkpt lat="43.62524" lon="3.83859">
        <ele>74</ele>
        <time>2021-04-24T13:22:11Z</time>
      </trkpt>
      <trkpt lat="43.62526" lon="3.83866">
        <ele>74</ele>
        <time>2021-04-24T13:22:12Z</time>
      </trkpt>
      <trkpt lat="43.62527" lon="3.83873">
        <ele>72</ele>
        <time>2021-04-24T13:22:13Z</time>
      </trkpt>
      <trkpt lat="43.62528" lon="3.83879">
        <ele>72</ele>
        <time>2021-04-24T13:22:14Z</time>
      </trkpt>
      <trkpt lat="43.6253" lon="3.83886">
        <ele>72</ele>
        <time>2021-04-24T13:22:15Z</time>
      </trkpt>
      <trkpt lat="43.62532" lon="3.83892">
        <ele>72</ele>
        <time>2021-04-24T13:22:16Z</time>
      </trkpt>
      <trkpt lat="43.62534" lon="3.83899">
        <ele>72</ele>
        <time>2021-04-24T13:22:17Z</time>
      </trkpt>
      <trkpt lat="43.62535" lon="3.83906">
        <ele>72</ele>
        <time>2021-04-24T13:22:18Z</time>
      </trkpt>
      <trkpt lat="43.62535" lon="3.83912">
        <ele>72</ele>
        <time>2021-04-24T13:22:19Z</time>
      </trkpt>
      <trkpt lat="43.62536" lon="3.83919">
        <ele>72</ele>
        <time>2021-04-24T13:22:20Z</time>
      </trkpt>
      <trkpt lat="43.62537" lon="3.83924">
        <ele>72</ele>
        <time>2021-04-24T13:22:21Z</time>
      </trkpt>
      <trkpt lat="43.62538" lon="3.8393">
        <ele>72</ele>
        <time>2021-04-24T13:22:22Z</time>
      </trkpt>
      <trkpt lat="43.62539" lon="3.83936">
        <ele>71</ele>
        <time>2021-04-24T13:22:23Z</time>
      </trkpt>
      <trkpt lat="43.6254" lon="3.83942">
        <ele>71</ele>
        <time>2021-04-24T13:22:24Z</time>
      </trkpt>
      <trkpt lat="43.6254" lon="3.83949">
        <ele>71</ele>
        <time>2021-04-24T13:22:25Z</time>
      </trkpt>
      <trkpt lat="43.62539" lon="3.83956">
        <ele>71</ele>
        <time>2021-04-24T13:22:26Z</time>
      </trkpt>
      <trkpt lat="43.62537" lon="3.83963">
        <ele>71</ele>
        <time>2021-04-24T13:22:27Z</time>
      </trkpt>
      <trkpt lat="43.62535" lon="3.83969">
        <ele>71</ele>
        <time>2021-04-24T13:22:28Z</time>
      </trkpt>
      <trkpt lat="43.62532" lon="3.83974">
        <ele>71</ele>
        <time>2021-04-24T13:22:29Z</time>
      </trkpt>
      <trkpt lat="43.62529" lon="3.8398">
        <ele>71</ele>
        <time>2021-04-24T13:22:30Z</time>
      </trkpt>
      <trkpt lat="43.62527" lon="3.83985">
        <ele>71</ele>
        <time>2021-04-24T13:22:31Z</time>
      </trkpt>
      <trkpt lat="43.62524" lon="3.83991">
        <ele>71</ele>
        <time>2021-04-24T13:22:32Z</time>
      </trkpt>
      <trkpt lat="43.62521" lon="3.83996">
        <ele>69</ele>
        <time>2021-04-24T13:22:33Z</time>
      </trkpt>
      <trkpt lat="43.62519" lon="3.84002">
        <ele>69</ele>
        <time>2021-04-24T13:22:34Z</time>
      </trkpt>
      <trkpt lat="43.62516" lon="3.84009">
        <ele>69</ele>
        <time>2021-04-24T13:22:35Z</time>
      </trkpt>
      <trkpt lat="43.62513" lon="3.84015">
        <ele>69</ele>
        <time>2021-04-24T13:22:36Z</time>
      </trkpt>
      <trkpt lat="43.6251" lon="3.84022">
        <ele>69</ele>
        <time>2021-04-24T13:22:37Z</time>
      </trkpt>
      <trkpt lat="43.62507" lon="3.84029">
        <ele>69</ele>
        <time>2021-04-24T13:22:38Z</time>
      </trkpt>
      <trkpt lat="43.62505" lon="3.84036">
        <ele>69</ele>
        <time>2021-04-24T13:22:39Z</time>
      </trkpt>
      <trkpt lat="43.62502" lon="3.84043">
        <ele>69</ele>
        <time>2021-04-24T13:22:40Z</time>
      </trkpt>
      <trkpt lat="43.62499" lon="3.8405">
        <ele>69</ele>
        <time>2021-04-24T13:22:41Z</time>
      </trkpt>
      <trkpt lat="43.62496" lon="3.84057">
        <ele>69</ele>
        <time>2021-04-24T13:22:42Z</time>
      </trkpt>
      <trkpt lat="43.62494" lon="3.84064">
        <ele>67</ele>
        <time>2021-04-24T13:22:43Z</time>
      </trkpt>
      <trkpt lat="43.62491" lon="3.8407">
        <ele>67</ele>
        <time>2021-04-24T13:22:44Z</time>
      </trkpt>
      <trkpt lat="43.62489" lon="3.84076">
        <ele>67</ele>
        <time>2021-04-24T13:22:45Z</time>
      </trkpt>
      <trkpt lat="43.62486" lon="3.84082">
        <ele>67</ele>
        <time>2021-04-24T13:22:46Z</time>
      </trkpt>
      <trkpt lat="43.62483" lon="3.84088">
        <ele>67</ele>
        <time>2021-04-24T13:22:47Z</time>
      </trkpt>
      <trkpt lat="43.62481" lon="3.84094">
        <ele>67</ele>
        <time>2021-04-24T13:22:48Z</time>
      </trkpt>
      <trkpt lat="43.62478" lon="3.841">
        <ele>67</ele>
        <time>2021-04-24T13:22:49Z</time>
      </trkpt>
      <trkpt lat="43.62476" lon="3.84106">
        <ele>67</ele>
        <time>2021-04-24T13:22:50Z</time>
      </trkpt>
      <trkpt lat="43.62473" lon="3.84112">
        <ele>67</ele>
        <time>2021-04-24T13:22:51Z</time>
      </trkpt>
      <trkpt lat="43.6247" lon="3.84118">
        <ele>67</ele>
        <time>2021-04-24T13:22:52Z</time>
      </trkpt>
      <trkpt lat="43.62467" lon="3.84123">
        <ele>66</ele>
        <time>2021-04-24T13:22:53Z</time>
      </trkpt>
      <trkpt lat="43.62463" lon="3.84128">
        <ele>66</ele>
        <time>2021-04-24T13:22:54Z</time>
      </trkpt>
      <trkpt lat="43.62459" lon="3.84131">
        <ele>66</ele>
        <time>2021-04-24T13:22:55Z</time>
      </trkpt>
      <trkpt lat="43.62454" lon="3.84133">
        <ele>66</ele>
        <time>2021-04-24T13:22:56Z</time>
      </trkpt>
      <trkpt lat="43.6245" lon="3.84135">
        <ele>66</ele>
        <time>2021-04-24T13:22:57Z</time>
      </trkpt>
      <trkpt lat="43.62446" lon="3.84136">
        <ele>66</ele>
        <time>2021-04-24T13:22:58Z</time>
      </trkpt>
      <trkpt lat="43.62441" lon="3.84137">
        <ele>66</ele>
        <time>2021-04-24T13:22:59Z</time>
      </trkpt>
      <trkpt lat="43.62437" lon="3.84138">
        <ele>66</ele>
        <time>2021-04-24T13:23:00Z</time>
      </trkpt>
      <trkpt lat="43.62432" lon="3.8414">
        <ele>66</ele>
        <time>2021-04-24T13:23:01Z</time>
      </trkpt>
      <trkpt lat="43.62427" lon="3.84141">
        <ele>66</ele>
        <time>2021-04-24T13:23:02Z</time>
      </trkpt>
      <trkpt lat="43.62422" lon="3.84143">
        <ele>65</ele>
        <time>2021-04-24T13:23:03Z</time>
      </trkpt>
      <trkpt lat="43.62417" lon="3.84145">
        <ele>65</ele>
        <time>2021-04-24T13:23:04Z</time>
      </trkpt>
      <trkpt lat="43.62412" lon="3.84147">
        <ele>65</ele>
        <time>2021-04-24T13:23:05Z</time>
      </trkpt>
      <trkpt lat="43.62407" lon="3.84149">
        <ele>65</ele>
        <time>2021-04-24T13:23:06Z</time>
      </trkpt>
      <trkpt lat="43.62403" lon="3.84151">
        <ele>65</ele>
        <time>2021-04-24T13:23:07Z</time>
      </trkpt>
      <trkpt lat="43.624" lon="3.84152">
        <ele>65</ele>
        <time>2021-04-24T13:23:08Z</time>
      </trkpt>
      <trkpt lat="43.62397" lon="3.84154">
        <ele>65</ele>
        <time>2021-04-24T13:23:09Z</time>
      </trkpt>
      <trkpt lat="43.62396" lon="3.84156">
        <ele>65</ele>
        <time>2021-04-24T13:23:10Z</time>
      </trkpt>
      <trkpt lat="43.62394" lon="3.84159">
        <ele>65</ele>
        <time>2021-04-24T13:23:11Z</time>
      </trkpt>
      <trkpt lat="43.62392" lon="3.84162">
        <ele>65</ele>
        <time>2021-04-24T13:23:12Z</time>
      </trkpt>
      <trkpt lat="43.6239" lon="3.84165">
        <ele>65</ele>
        <time>2021-04-24T13:23:13Z</time>
      </trkpt>
      <trkpt lat="43.62388" lon="3.84168">
        <ele>65</ele>
        <time>2021-04-24T13:23:14Z</time>
      </trkpt>
      <trkpt lat="43.62386" lon="3.84172">
        <ele>65</ele>
        <time>2021-04-24T13:23:15Z</time>
      </trkpt>
      <trkpt lat="43.62384" lon="3.84174">
        <ele>65</ele>
        <time>2021-04-24T13:23:16Z</time>
      </trkpt>
      <trkpt lat="43.62382" lon="3.84177">
        <ele>65</ele>
        <time>2021-04-24T13:23:17Z</time>
      </trkpt>
      <trkpt lat="43.62383" lon="3.84181">
        <ele>65</ele>
        <time>2021-04-24T13:23:18Z</time>
      </trkpt>
      <trkpt lat="43.62384" lon="3.84186">
        <ele>65</ele>
        <time>2021-04-24T13:23:19Z</time>
      </trkpt>
      <trkpt lat="43.62386" lon="3.84191">
        <ele>65</ele>
        <time>2021-04-24T13:23:20Z</time>
      </trkpt>
      <trkpt lat="43.62387" lon="3.84195">
        <ele>65</ele>
        <time>2021-04-24T13:23:21Z</time>
      </trkpt>
      <trkpt lat="43.62389" lon="3.842">
        <ele>65</ele>
        <time>2021-04-24T13:23:22Z</time>
      </trkpt>
      <trkpt lat="43.6239" lon="3.84206">
        <ele>65</ele>
        <time>2021-04-24T13:23:23Z</time>
      </trkpt>
      <trkpt lat="43.62392" lon="3.84211">
        <ele>65</ele>
        <time>2021-04-24T13:23:24Z</time>
      </trkpt>
      <trkpt lat="43.62393" lon="3.84216">
        <ele>65</ele>
        <time>2021-04-24T13:23:25Z</time>
      </trkpt>
      <trkpt lat="43.62394" lon="3.84219">
        <ele>65</ele>
        <time>2021-04-24T13:23:26Z</time>
      </trkpt>
      <trkpt lat="43.62393" lon="3.84222">
        <ele>65</ele>
        <time>2021-04-24T13:23:27Z</time>
      </trkpt>
      <trkpt lat="43.62391" lon="3.84225">
        <ele>65</ele>
        <time>2021-04-24T13:23:28Z</time>
      </trkpt>
      <trkpt lat="43.6239" lon="3.84228">
        <ele>65</ele>
        <time>2021-04-24T13:23:29Z</time>
      </trkpt>
      <trkpt lat="43.62389" lon="3.84233">
        <ele>65</ele>
        <time>2021-04-24T13:23:30Z</time>
      </trkpt>
      <trkpt lat="43.62389" lon="3.8424">
        <ele>65</ele>
        <time>2021-04-24T13:23:31Z</time>
      </trkpt>
      <trkpt lat="43.62389" lon="3.84248">
        <ele>65</ele>
        <time>2021-04-24T13:23:32Z</time>
      </trkpt>
      <trkpt lat="43.62389" lon="3.84256">
        <ele>64</ele>
        <time>2021-04-24T13:23:33Z</time>
      </trkpt>
      <trkpt lat="43.62388" lon="3.84263">
        <ele>64</ele>
        <time>2021-04-24T13:23:34Z</time>
      </trkpt>
      <trkpt lat="43.62387" lon="3.84269">
        <ele>64</ele>
        <time>2021-04-24T13:23:35Z</time>
      </trkpt>
      <trkpt lat="43.62388" lon="3.84273">
        <ele>64</ele>
        <time>2021-04-24T13:23:36Z</time>
      </trkpt>
      <trkpt lat="43.62388" lon="3.84278">
        <ele>64</ele>
        <time>2021-04-24T13:23:37Z</time>
      </trkpt>
      <trkpt lat="43.62389" lon="3.84284">
        <ele>64</ele>
        <time>2021-04-24T13:23:38Z</time>
      </trkpt>
      <trkpt lat="43.62388" lon="3.84289">
        <ele>64</ele>
        <time>2021-04-24T13:23:39Z</time>
      </trkpt>
      <trkpt lat="43.62388" lon="3.84292">
        <ele>64</ele>
        <time>2021-04-24T13:23:40Z</time>
      </trkpt>
      <trkpt lat="43.62386" lon="3.84296">
        <ele>64</ele>
        <time>2021-04-24T13:23:41Z</time>
      </trkpt>
      <trkpt lat="43.62384" lon="3.84299">
        <ele>64</ele>
        <time>2021-04-24T13:23:42Z</time>
      </trkpt>
      <trkpt lat="43.62382" lon="3.84302">
        <ele>64</ele>
        <time>2021-04-24T13:23:43Z</time>
      </trkpt>
      <trkpt lat="43.6238" lon="3.84306">
        <ele>64</ele>
        <time>2021-04-24T13:23:44Z</time>
      </trkpt>
      <trkpt lat="43.62377" lon="3.8431">
        <ele>64</ele>
        <time>2021-04-24T13:23:45Z</time>
      </trkpt>
      <trkpt lat="43.62374" lon="3.84314">
        <ele>64</ele>
        <time>2021-04-24T13:23:46Z</time>
      </trkpt>
      <trkpt lat="43.62371" lon="3.84318">
        <ele>64</ele>
        <time>2021-04-24T13:23:47Z</time>
      </trkpt>
      <trkpt lat="43.62368" lon="3.84323">
        <ele>64</ele>
        <time>2021-04-24T13:23:48Z</time>
      </trkpt>
      <trkpt lat="43.62364" lon="3.84328">
        <ele>64</ele>
        <time>2021-04-24T13:23:49Z</time>
      </trkpt>
      <trkpt lat="43.62361" lon="3.84332">
        <ele>64</ele>
        <time>2021-04-24T13:23:50Z</time>
      </trkpt>
      <trkpt lat="43.6236" lon="3.84337">
        <ele>64</ele>
        <time>2021-04-24T13:23:51Z</time>
      </trkpt>
      <trkpt lat="43.62361" lon="3.84342">
        <ele>64</ele>
        <time>2021-04-24T13:23:52Z</time>
      </trkpt>
      <trkpt lat="43.62361" lon="3.84348">
        <ele>62</ele>
        <time>2021-04-24T13:23:53Z</time>
      </trkpt>
      <trkpt lat="43.62361" lon="3.84353">
        <ele>62</ele>
        <time>2021-04-24T13:23:54Z</time>
      </trkpt>
      <trkpt lat="43.62359" lon="3.84359">
        <ele>62</ele>
        <time>2021-04-24T13:23:55Z</time>
      </trkpt>
      <trkpt lat="43.62358" lon="3.84365">
        <ele>62</ele>
        <time>2021-04-24T13:23:56Z</time>
      </trkpt>
      <trkpt lat="43.62356" lon="3.8437">
        <ele>62</ele>
        <time>2021-04-24T13:23:57Z</time>
      </trkpt>
      <trkpt lat="43.62353" lon="3.84374">
        <ele>62</ele>
        <time>2021-04-24T13:23:58Z</time>
      </trkpt>
      <trkpt lat="43.62351" lon="3.84378">
        <ele>62</ele>
        <time>2021-04-24T13:23:59Z</time>
      </trkpt>
      <trkpt lat="43.62348" lon="3.84382">
        <ele>62</ele>
        <time>2021-04-24T13:24:00Z</time>
      </trkpt>
      <trkpt lat="43.62346" lon="3.84386">
        <ele>62</ele>
        <time>2021-04-24T13:24:01Z</time>
      </trkpt>
      <trkpt lat="43.62343" lon="3.84391">
        <ele>62</ele>
        <time>2021-04-24T13:24:02Z</time>
      </trkpt>
      <trkpt lat="43.6234" lon="3.84395">
        <ele>60</ele>
        <time>2021-04-24T13:24:03Z</time>
      </trkpt>
      <trkpt lat="43.62337" lon="3.84399">
        <ele>60</ele>
        <time>2021-04-24T13:24:04Z</time>
      </trkpt>
      <trkpt lat="43.62333" lon="3.84404">
        <ele>60</ele>
        <time>2021-04-24T13:24:05Z</time>
      </trkpt>
      <trkpt lat="43.6233" lon="3.84408">
        <ele>60</ele>
        <time>2021-04-24T13:24:06Z</time>
      </trkpt>
      <trkpt lat="43.62327" lon="3.84413">
        <ele>60</ele>
        <time>2021-04-24T13:24:07Z</time>
      </trkpt>
      <trkpt lat="43.62324" lon="3.84417">
        <ele>60</ele>
        <time>2021-04-24T13:24:08Z</time>
      </trkpt>
      <trkpt lat="43.62321" lon="3.84422">
        <ele>60</ele>
        <time>2021-04-24T13:24:09Z</time>
      </trkpt>
      <trkpt lat="43.62318" lon="3.84427">
        <ele>60</ele>
        <time>2021-04-24T13:24:10Z</time>
      </trkpt>
      <trkpt lat="43.62315" lon="3.84431">
        <ele>60</ele>
        <time>2021-04-24T13:24:11Z</time>
      </trkpt>
      <trkpt lat="43.62313" lon="3.84435">
        <ele>60</ele>
        <time>2021-04-24T13:24:12Z</time>
      </trkpt>
      <trkpt lat="43.62311" lon="3.84439">
        <ele>59</ele>
        <time>2021-04-24T13:24:13Z</time>
      </trkpt>
      <trkpt lat="43.62308" lon="3.84443">
        <ele>59</ele>
        <time>2021-04-24T13:24:14Z</time>
      </trkpt>
      <trkpt lat="43.62306" lon="3.84447">
        <ele>59</ele>
        <time>2021-04-24T13:24:15Z</time>
      </trkpt>
      <trkpt lat="43.62303" lon="3.84451">
        <ele>59</ele>
        <time>2021-04-24T13:24:16Z</time>
      </trkpt>
      <trkpt lat="43.623" lon="3.84455">
        <ele>59</ele>
        <time>2021-04-24T13:24:17Z</time>
      </trkpt>
      <trkpt lat="43.62296" lon="3.84459">
        <ele>59</ele>
        <time>2021-04-24T13:24:18Z</time>
      </trkpt>
      <trkpt lat="43.62293" lon="3.84462">
        <ele>59</ele>
        <time>2021-04-24T13:24:19Z</time>
      </trkpt>
      <trkpt lat="43.6229" lon="3.84466">
        <ele>59</ele>
        <time>2021-04-24T13:24:20Z</time>
      </trkpt>
      <trkpt lat="43.62286" lon="3.84471">
        <ele>59</ele>
        <time>2021-04-24T13:24:21Z</time>
      </trkpt>
      <trkpt lat="43.62283" lon="3.84475">
        <ele>59</ele>
        <time>2021-04-24T13:24:22Z</time>
      </trkpt>
      <trkpt lat="43.6228" lon="3.84479">
        <ele>58</ele>
        <time>2021-04-24T13:24:23Z</time>
      </trkpt>
      <trkpt lat="43.62277" lon="3.84483">
        <ele>58</ele>
        <time>2021-04-24T13:24:24Z</time>
      </trkpt>
      <trkpt lat="43.62274" lon="3.84487">
        <ele>58</ele>
        <time>2021-04-24T13:24:25Z</time>
      </trkpt>
      <trkpt lat="43.62271" lon="3.84491">
        <ele>58</ele>
        <time>2021-04-24T13:24:26Z</time>
      </trkpt>
      <trkpt lat="43.62269" lon="3.84494">
        <ele>58</ele>
        <time>2021-04-24T13:24:27Z</time>
      </trkpt>
      <trkpt lat="43.62266" lon="3.84498">
        <ele>58</ele>
        <time>2021-04-24T13:24:28Z</time>
      </trkpt>
      <trkpt lat="43.62264" lon="3.84502">
        <ele>58</ele>
        <time>2021-04-24T13:24:29Z</time>
      </trkpt>
      <trkpt lat="43.62262" lon="3.84506">
        <ele>58</ele>
        <time>2021-04-24T13:24:30Z</time>
      </trkpt>
      <trkpt lat="43.62259" lon="3.84511">
        <ele>58</ele>
        <time>2021-04-24T13:24:31Z</time>
      </trkpt>
      <trkpt lat="43.62256" lon="3.84515">
        <ele>58</ele>
        <time>2021-04-24T13:24:32Z</time>
      </trkpt>
      <trkpt lat="43.62253" lon="3.84519">
        <ele>58</ele>
        <time>2021-04-24T13:24:33Z</time>
      </trkpt>
      <trkpt lat="43.62251" lon="3.84522">
        <ele>58</ele>
        <time>2021-04-24T13:24:34Z</time>
      </trkpt>
      <trkpt lat="43.62249" lon="3.84527">
        <ele>58</ele>
        <time>2021-04-24T13:24:35Z</time>
      </trkpt>
      <trkpt lat="43.62248" lon="3.84531">
        <ele>58</ele>
        <time>2021-04-24T13:24:36Z</time>
      </trkpt>
      <trkpt lat="43.62247" lon="3.84534">
        <ele>58</ele>
        <time>2021-04-24T13:24:37Z</time>
      </trkpt>
      <trkpt lat="43.62245" lon="3.84537">
        <ele>58</ele>
        <time>2021-04-24T13:24:38Z</time>
      </trkpt>
      <trkpt lat="43.62243" lon="3.8454">
        <ele>58</ele>
        <time>2021-04-24T13:24:39Z</time>
      </trkpt>
      <trkpt lat="43.62241" lon="3.84542">
        <ele>58</ele>
        <time>2021-04-24T13:24:40Z</time>
      </trkpt>
      <trkpt lat="43.6224" lon="3.84545">
        <ele>58</ele>
        <time>2021-04-24T13:24:41Z</time>
      </trkpt>
      <trkpt lat="43.62238" lon="3.84547">
        <ele>58</ele>
        <time>2021-04-24T13:24:42Z</time>
      </trkpt>
      <trkpt lat="43.62237" lon="3.84549">
        <ele>57</ele>
        <time>2021-04-24T13:24:43Z</time>
      </trkpt>
      <trkpt lat="43.62235" lon="3.84551">
        <ele>57</ele>
        <time>2021-04-24T13:24:44Z</time>
      </trkpt>
      <trkpt lat="43.62234" lon="3.84554">
        <ele>57</ele>
        <time>2021-04-24T13:24:45Z</time>
      </trkpt>
      <trkpt lat="43.62232" lon="3.84556">
        <ele>57</ele>
        <time>2021-04-24T13:24:46Z</time>
      </trkpt>
      <trkpt lat="43.62231" lon="3.84559">
        <ele>57</ele>
        <time>2021-04-24T13:24:47Z</time>
      </trkpt>
      <trkpt lat="43.62231" lon="3.84559">
        <ele>57</ele>
        <time>2021-04-24T13:24:48Z</time>
      </trkpt>
    </trkseg>
  </trk>
</gpx>